<?xml version="1.0" encoding="UTF-8" standalone="no" ?>
<gpx xmlns="http://www.topografix.com/GPX/1/1" xmlns:xsi="http://www.w3.org/2001/XMLSchema-instance" xsi:schemaLocation="http://www.topografix.com/GPX/1/1 http://www.topografix.com/GPX/1/1/gpx.xsd" version="1.1" creator="VisuGPX - https://www.visugpx.com">
  <metadata>
    <name>VTT des 7 pêchés capitaux</name>
    <desc><![CDATA[Voilà une très belle randonnée dans une très belle région avec beaucoup de D+ avec de très beaux passages dans les bois  et bonnes organisations.

vidéo 
https://www.youtube.com/watch?v=qunwU17e8fU]]></desc>
  </metadata>
  <trk>
    <name><![CDATA[Thuin]]></name>
    <trkseg>
      <trkpt lat="50.3341" lon="4.29733">
        <ele>171.308701</ele>
        <time>2022-03-20T07:10:36Z</time>
      </trkpt>
      <trkpt lat="50.3341" lon="4.29736">
        <ele>171.237091</ele>
        <time>2022-03-20T07:10:38Z</time>
      </trkpt>
      <trkpt lat="50.3341" lon="4.29738">
        <ele>171.189117</ele>
        <time>2022-03-20T07:10:40Z</time>
      </trkpt>
      <trkpt lat="50.33411" lon="4.2974">
        <ele>171.230057</ele>
        <time>2022-03-20T07:11:03Z</time>
      </trkpt>
      <trkpt lat="50.33415" lon="4.2975">
        <ele>171.230759</ele>
        <time>2022-03-20T07:11:05Z</time>
      </trkpt>
      <trkpt lat="50.33416" lon="4.29762">
        <ele>171.276398</ele>
        <time>2022-03-20T07:11:07Z</time>
      </trkpt>
      <trkpt lat="50.33413" lon="4.29766">
        <ele>171.301056</ele>
        <time>2022-03-20T07:11:09Z</time>
      </trkpt>
      <trkpt lat="50.3341" lon="4.2977">
        <ele>171.357315</ele>
        <time>2022-03-20T07:11:11Z</time>
      </trkpt>
      <trkpt lat="50.33406" lon="4.29774">
        <ele>171.396942</ele>
        <time>2022-03-20T07:11:13Z</time>
      </trkpt>
      <trkpt lat="50.33402" lon="4.29778">
        <ele>171.449966</ele>
        <time>2022-03-20T07:11:15Z</time>
      </trkpt>
      <trkpt lat="50.33397" lon="4.29782">
        <ele>171.531708</ele>
        <time>2022-03-20T07:11:17Z</time>
      </trkpt>
      <trkpt lat="50.33393" lon="4.29787">
        <ele>171.601227</ele>
        <time>2022-03-20T07:11:19Z</time>
      </trkpt>
      <trkpt lat="50.33388" lon="4.29793">
        <ele>171.718018</ele>
        <time>2022-03-20T07:11:21Z</time>
      </trkpt>
      <trkpt lat="50.33383" lon="4.298">
        <ele>171.841095</ele>
        <time>2022-03-20T07:11:23Z</time>
      </trkpt>
      <trkpt lat="50.33379" lon="4.29808">
        <ele>172.003983</ele>
        <time>2022-03-20T07:11:25Z</time>
      </trkpt>
      <trkpt lat="50.33374" lon="4.29816">
        <ele>172.068634</ele>
        <time>2022-03-20T07:11:27Z</time>
      </trkpt>
      <trkpt lat="50.3337" lon="4.29824">
        <ele>172.210495</ele>
        <time>2022-03-20T07:11:29Z</time>
      </trkpt>
      <trkpt lat="50.33366" lon="4.29833">
        <ele>172.391113</ele>
        <time>2022-03-20T07:11:31Z</time>
      </trkpt>
      <trkpt lat="50.33361" lon="4.29841">
        <ele>172.498123</ele>
        <time>2022-03-20T07:11:33Z</time>
      </trkpt>
      <trkpt lat="50.33357" lon="4.2985">
        <ele>172.811035</ele>
        <time>2022-03-20T07:11:35Z</time>
      </trkpt>
      <trkpt lat="50.33352" lon="4.29859">
        <ele>172.945435</ele>
        <time>2022-03-20T07:11:37Z</time>
      </trkpt>
      <trkpt lat="50.33348" lon="4.29869">
        <ele>173.097214</ele>
        <time>2022-03-20T07:11:39Z</time>
      </trkpt>
      <trkpt lat="50.33344" lon="4.29879">
        <ele>173.251617</ele>
        <time>2022-03-20T07:11:41Z</time>
      </trkpt>
      <trkpt lat="50.3334" lon="4.29888">
        <ele>173.435135</ele>
        <time>2022-03-20T07:11:43Z</time>
      </trkpt>
      <trkpt lat="50.33335" lon="4.29897">
        <ele>173.652466</ele>
        <time>2022-03-20T07:11:45Z</time>
      </trkpt>
      <trkpt lat="50.33331" lon="4.29907">
        <ele>173.907074</ele>
        <time>2022-03-20T07:11:47Z</time>
      </trkpt>
      <trkpt lat="50.33326" lon="4.29916">
        <ele>174.158234</ele>
        <time>2022-03-20T07:11:49Z</time>
      </trkpt>
      <trkpt lat="50.33321" lon="4.29925">
        <ele>174.53067</ele>
        <time>2022-03-20T07:11:51Z</time>
      </trkpt>
      <trkpt lat="50.33316" lon="4.29935">
        <ele>174.846802</ele>
        <time>2022-03-20T07:11:53Z</time>
      </trkpt>
      <trkpt lat="50.33311" lon="4.29944">
        <ele>175.190598</ele>
        <time>2022-03-20T07:11:55Z</time>
      </trkpt>
      <trkpt lat="50.33307" lon="4.29955">
        <ele>175.538681</ele>
        <time>2022-03-20T07:11:57Z</time>
      </trkpt>
      <trkpt lat="50.33301" lon="4.29965">
        <ele>175.864182</ele>
        <time>2022-03-20T07:11:59Z</time>
      </trkpt>
      <trkpt lat="50.33296" lon="4.29975">
        <ele>176.279434</ele>
        <time>2022-03-20T07:12:01Z</time>
      </trkpt>
      <trkpt lat="50.33292" lon="4.29987">
        <ele>176.406708</ele>
        <time>2022-03-20T07:12:03Z</time>
      </trkpt>
      <trkpt lat="50.33287" lon="4.29998">
        <ele>176.982712</ele>
        <time>2022-03-20T07:12:05Z</time>
      </trkpt>
      <trkpt lat="50.33282" lon="4.30008">
        <ele>177.329132</ele>
        <time>2022-03-20T07:12:07Z</time>
      </trkpt>
      <trkpt lat="50.33276" lon="4.30018">
        <ele>177.502319</ele>
        <time>2022-03-20T07:12:09Z</time>
      </trkpt>
      <trkpt lat="50.3327" lon="4.30027">
        <ele>177.813278</ele>
        <time>2022-03-20T07:12:11Z</time>
      </trkpt>
      <trkpt lat="50.33263" lon="4.30035">
        <ele>178.115326</ele>
        <time>2022-03-20T07:12:13Z</time>
      </trkpt>
      <trkpt lat="50.33256" lon="4.30042">
        <ele>178.491043</ele>
        <time>2022-03-20T07:12:15Z</time>
      </trkpt>
      <trkpt lat="50.33249" lon="4.30049">
        <ele>178.71019</ele>
        <time>2022-03-20T07:12:17Z</time>
      </trkpt>
      <trkpt lat="50.33242" lon="4.30055">
        <ele>178.969009</ele>
        <time>2022-03-20T07:12:19Z</time>
      </trkpt>
      <trkpt lat="50.33235" lon="4.30062">
        <ele>179.382248</ele>
        <time>2022-03-20T07:12:21Z</time>
      </trkpt>
      <trkpt lat="50.33227" lon="4.30068">
        <ele>179.132767</ele>
        <time>2022-03-20T07:12:23Z</time>
      </trkpt>
      <trkpt lat="50.33219" lon="4.30075">
        <ele>179.437119</ele>
        <time>2022-03-20T07:12:25Z</time>
      </trkpt>
      <trkpt lat="50.33211" lon="4.30081">
        <ele>179.676346</ele>
        <time>2022-03-20T07:12:27Z</time>
      </trkpt>
      <trkpt lat="50.33207" lon="4.30085">
        <ele>179.816193</ele>
        <time>2022-03-20T07:12:28Z</time>
      </trkpt>
      <trkpt lat="50.33199" lon="4.30092">
        <ele>180.151978</ele>
        <time>2022-03-20T07:12:30Z</time>
      </trkpt>
      <trkpt lat="50.33192" lon="4.30098">
        <ele>180.305771</ele>
        <time>2022-03-20T07:12:32Z</time>
      </trkpt>
      <trkpt lat="50.33184" lon="4.30106">
        <ele>180.405975</ele>
        <time>2022-03-20T07:12:34Z</time>
      </trkpt>
      <trkpt lat="50.33176" lon="4.30113">
        <ele>180.544815</ele>
        <time>2022-03-20T07:12:36Z</time>
      </trkpt>
      <trkpt lat="50.33169" lon="4.30119">
        <ele>180.780716</ele>
        <time>2022-03-20T07:12:38Z</time>
      </trkpt>
      <trkpt lat="50.33162" lon="4.30126">
        <ele>180.908066</ele>
        <time>2022-03-20T07:12:40Z</time>
      </trkpt>
      <trkpt lat="50.33155" lon="4.30131">
        <ele>181.020813</ele>
        <time>2022-03-20T07:12:42Z</time>
      </trkpt>
      <trkpt lat="50.33151" lon="4.30135">
        <ele>181.13147</ele>
        <time>2022-03-20T07:12:44Z</time>
      </trkpt>
      <trkpt lat="50.33147" lon="4.3014">
        <ele>181.196762</ele>
        <time>2022-03-20T07:12:46Z</time>
      </trkpt>
      <trkpt lat="50.33142" lon="4.30145">
        <ele>181.231201</ele>
        <time>2022-03-20T07:12:48Z</time>
      </trkpt>
      <trkpt lat="50.33135" lon="4.30151">
        <ele>181.300095</ele>
        <time>2022-03-20T07:12:50Z</time>
      </trkpt>
      <trkpt lat="50.33127" lon="4.30156">
        <ele>181.249985</ele>
        <time>2022-03-20T07:12:52Z</time>
      </trkpt>
      <trkpt lat="50.3312" lon="4.30163">
        <ele>181.791794</ele>
        <time>2022-03-20T07:12:54Z</time>
      </trkpt>
      <trkpt lat="50.33113" lon="4.30169">
        <ele>181.740585</ele>
        <time>2022-03-20T07:12:56Z</time>
      </trkpt>
      <trkpt lat="50.33107" lon="4.30174">
        <ele>181.769806</ele>
        <time>2022-03-20T07:12:58Z</time>
      </trkpt>
      <trkpt lat="50.33103" lon="4.30178">
        <ele>182.349869</ele>
        <time>2022-03-20T07:13:00Z</time>
      </trkpt>
      <trkpt lat="50.33099" lon="4.30178">
        <ele>182.809692</ele>
        <time>2022-03-20T07:13:02Z</time>
      </trkpt>
      <trkpt lat="50.33098" lon="4.30175">
        <ele>183.309174</ele>
        <time>2022-03-20T07:13:04Z</time>
      </trkpt>
      <trkpt lat="50.33099" lon="4.30169">
        <ele>183.26741</ele>
        <time>2022-03-20T07:13:06Z</time>
      </trkpt>
      <trkpt lat="50.33099" lon="4.30164">
        <ele>183.21521</ele>
        <time>2022-03-20T07:13:08Z</time>
      </trkpt>
      <trkpt lat="50.331" lon="4.3016">
        <ele>183.158844</ele>
        <time>2022-03-20T07:13:10Z</time>
      </trkpt>
      <trkpt lat="50.33099" lon="4.30155">
        <ele>182.995377</ele>
        <time>2022-03-20T07:13:12Z</time>
      </trkpt>
      <trkpt lat="50.33097" lon="4.30152">
        <ele>182.9077</ele>
        <time>2022-03-20T07:13:14Z</time>
      </trkpt>
      <trkpt lat="50.33095" lon="4.30149">
        <ele>182.842499</ele>
        <time>2022-03-20T07:13:16Z</time>
      </trkpt>
      <trkpt lat="50.33094" lon="4.30147">
        <ele>182.760788</ele>
        <time>2022-03-20T07:13:18Z</time>
      </trkpt>
      <trkpt lat="50.33093" lon="4.30144">
        <ele>182.601166</ele>
        <time>2022-03-20T07:13:20Z</time>
      </trkpt>
      <trkpt lat="50.33093" lon="4.30142">
        <ele>182.475906</ele>
        <time>2022-03-20T07:13:22Z</time>
      </trkpt>
      <trkpt lat="50.33093" lon="4.30139">
        <ele>182.36734</ele>
        <time>2022-03-20T07:13:24Z</time>
      </trkpt>
      <trkpt lat="50.33091" lon="4.30137">
        <ele>182.251923</ele>
        <time>2022-03-20T07:13:26Z</time>
      </trkpt>
      <trkpt lat="50.33091" lon="4.30135">
        <ele>182.139191</ele>
        <time>2022-03-20T07:13:28Z</time>
      </trkpt>
      <trkpt lat="50.33089" lon="4.30133">
        <ele>181.969055</ele>
        <time>2022-03-20T07:13:32Z</time>
      </trkpt>
      <trkpt lat="50.33084" lon="4.30131">
        <ele>174.633896</ele>
        <time>2022-03-20T07:19:49Z</time>
      </trkpt>
      <trkpt lat="50.33084" lon="4.30136">
        <ele>174.678207</ele>
        <time>2022-03-20T07:19:51Z</time>
      </trkpt>
      <trkpt lat="50.33085" lon="4.30144">
        <ele>174.734543</ele>
        <time>2022-03-20T07:19:53Z</time>
      </trkpt>
      <trkpt lat="50.33086" lon="4.30147">
        <ele>174.817993</ele>
        <time>2022-03-20T07:19:55Z</time>
      </trkpt>
      <trkpt lat="50.33088" lon="4.30149">
        <ele>174.786682</ele>
        <time>2022-03-20T07:19:57Z</time>
      </trkpt>
      <trkpt lat="50.3309" lon="4.30152">
        <ele>174.83049</ele>
        <time>2022-03-20T07:19:59Z</time>
      </trkpt>
      <trkpt lat="50.33092" lon="4.30155">
        <ele>174.899338</ele>
        <time>2022-03-20T07:20:01Z</time>
      </trkpt>
      <trkpt lat="50.33093" lon="4.30158">
        <ele>174.938995</ele>
        <time>2022-03-20T07:20:03Z</time>
      </trkpt>
      <trkpt lat="50.33096" lon="4.30159">
        <ele>174.967422</ele>
        <time>2022-03-20T07:20:05Z</time>
      </trkpt>
      <trkpt lat="50.33101" lon="4.30157">
        <ele>175.157532</ele>
        <time>2022-03-20T07:20:13Z</time>
      </trkpt>
      <trkpt lat="50.33105" lon="4.30156">
        <ele>175.159622</ele>
        <time>2022-03-20T07:20:15Z</time>
      </trkpt>
      <trkpt lat="50.33109" lon="4.30154">
        <ele>175.201355</ele>
        <time>2022-03-20T07:20:17Z</time>
      </trkpt>
      <trkpt lat="50.33112" lon="4.3015">
        <ele>175.213882</ele>
        <time>2022-03-20T07:20:19Z</time>
      </trkpt>
      <trkpt lat="50.33115" lon="4.30148">
        <ele>175.213882</ele>
        <time>2022-03-20T07:20:20Z</time>
      </trkpt>
      <trkpt lat="50.33119" lon="4.30145">
        <ele>175.229919</ele>
        <time>2022-03-20T07:20:22Z</time>
      </trkpt>
      <trkpt lat="50.33125" lon="4.3014">
        <ele>175.240356</ele>
        <time>2022-03-20T07:20:24Z</time>
      </trkpt>
      <trkpt lat="50.3313" lon="4.30133">
        <ele>175.41983</ele>
        <time>2022-03-20T07:20:26Z</time>
      </trkpt>
      <trkpt lat="50.33131" lon="4.30126">
        <ele>175.442734</ele>
        <time>2022-03-20T07:20:28Z</time>
      </trkpt>
      <trkpt lat="50.3313" lon="4.30119">
        <ele>175.463593</ele>
        <time>2022-03-20T07:20:30Z</time>
      </trkpt>
      <trkpt lat="50.33127" lon="4.30114">
        <ele>175.463104</ele>
        <time>2022-03-20T07:20:32Z</time>
      </trkpt>
      <trkpt lat="50.33126" lon="4.3011">
        <ele>175.617523</ele>
        <time>2022-03-20T07:20:34Z</time>
      </trkpt>
      <trkpt lat="50.33124" lon="4.30106">
        <ele>175.726028</ele>
        <time>2022-03-20T07:20:36Z</time>
      </trkpt>
      <trkpt lat="50.33124" lon="4.30103">
        <ele>175.862228</ele>
        <time>2022-03-20T07:20:38Z</time>
      </trkpt>
      <trkpt lat="50.33125" lon="4.30098">
        <ele>177.872147</ele>
        <time>2022-03-20T07:21:25Z</time>
      </trkpt>
      <trkpt lat="50.33122" lon="4.3009">
        <ele>177.816605</ele>
        <time>2022-03-20T07:21:27Z</time>
      </trkpt>
      <trkpt lat="50.33118" lon="4.30082">
        <ele>177.764435</ele>
        <time>2022-03-20T07:21:29Z</time>
      </trkpt>
      <trkpt lat="50.33115" lon="4.30073">
        <ele>177.70723</ele>
        <time>2022-03-20T07:21:31Z</time>
      </trkpt>
      <trkpt lat="50.3311" lon="4.30063">
        <ele>177.612381</ele>
        <time>2022-03-20T07:21:33Z</time>
      </trkpt>
      <trkpt lat="50.33106" lon="4.30054">
        <ele>177.568527</ele>
        <time>2022-03-20T07:21:35Z</time>
      </trkpt>
      <trkpt lat="50.33102" lon="4.30046">
        <ele>177.4534</ele>
        <time>2022-03-20T07:21:37Z</time>
      </trkpt>
      <trkpt lat="50.33099" lon="4.30038">
        <ele>177.397049</ele>
        <time>2022-03-20T07:21:39Z</time>
      </trkpt>
      <trkpt lat="50.33095" lon="4.30033">
        <ele>177.345551</ele>
        <time>2022-03-20T07:21:41Z</time>
      </trkpt>
      <trkpt lat="50.33094" lon="4.3003">
        <ele>177.301117</ele>
        <time>2022-03-20T07:21:43Z</time>
      </trkpt>
      <trkpt lat="50.33091" lon="4.30026">
        <ele>177.258652</ele>
        <time>2022-03-20T07:21:45Z</time>
      </trkpt>
      <trkpt lat="50.3309" lon="4.30021">
        <ele>177.198486</ele>
        <time>2022-03-20T07:21:47Z</time>
      </trkpt>
      <trkpt lat="50.33091" lon="4.30014">
        <ele>177.161865</ele>
        <time>2022-03-20T07:21:49Z</time>
      </trkpt>
      <trkpt lat="50.33095" lon="4.30009">
        <ele>177.046677</ele>
        <time>2022-03-20T07:21:51Z</time>
      </trkpt>
      <trkpt lat="50.33099" lon="4.30002">
        <ele>176.94783</ele>
        <time>2022-03-20T07:21:53Z</time>
      </trkpt>
      <trkpt lat="50.33104" lon="4.29995">
        <ele>176.814285</ele>
        <time>2022-03-20T07:21:55Z</time>
      </trkpt>
      <trkpt lat="50.3311" lon="4.29989">
        <ele>176.728973</ele>
        <time>2022-03-20T07:21:57Z</time>
      </trkpt>
      <trkpt lat="50.33117" lon="4.29983">
        <ele>176.609955</ele>
        <time>2022-03-20T07:21:59Z</time>
      </trkpt>
      <trkpt lat="50.33122" lon="4.29971">
        <ele>176.538406</ele>
        <time>2022-03-20T07:22:01Z</time>
      </trkpt>
      <trkpt lat="50.33129" lon="4.29963">
        <ele>176.494583</ele>
        <time>2022-03-20T07:22:03Z</time>
      </trkpt>
      <trkpt lat="50.33136" lon="4.29958">
        <ele>176.481171</ele>
        <time>2022-03-20T07:22:05Z</time>
      </trkpt>
      <trkpt lat="50.33143" lon="4.29955">
        <ele>176.412354</ele>
        <time>2022-03-20T07:22:07Z</time>
      </trkpt>
      <trkpt lat="50.33149" lon="4.29952">
        <ele>176.330048</ele>
        <time>2022-03-20T07:22:09Z</time>
      </trkpt>
      <trkpt lat="50.33156" lon="4.29949">
        <ele>176.192337</ele>
        <time>2022-03-20T07:22:11Z</time>
      </trkpt>
      <trkpt lat="50.33164" lon="4.29948">
        <ele>176.164719</ele>
        <time>2022-03-20T07:22:13Z</time>
      </trkpt>
      <trkpt lat="50.33171" lon="4.29948">
        <ele>176.091675</ele>
        <time>2022-03-20T07:22:15Z</time>
      </trkpt>
      <trkpt lat="50.33176" lon="4.2994">
        <ele>175.979218</ele>
        <time>2022-03-20T07:22:17Z</time>
      </trkpt>
      <trkpt lat="50.33181" lon="4.29931">
        <ele>175.944107</ele>
        <time>2022-03-20T07:22:19Z</time>
      </trkpt>
      <trkpt lat="50.33187" lon="4.29926">
        <ele>175.885529</ele>
        <time>2022-03-20T07:22:21Z</time>
      </trkpt>
      <trkpt lat="50.33191" lon="4.29923">
        <ele>175.767197</ele>
        <time>2022-03-20T07:22:23Z</time>
      </trkpt>
      <trkpt lat="50.33194" lon="4.29919">
        <ele>175.62735</ele>
        <time>2022-03-20T07:22:25Z</time>
      </trkpt>
      <trkpt lat="50.33196" lon="4.29915">
        <ele>175.505951</ele>
        <time>2022-03-20T07:22:27Z</time>
      </trkpt>
      <trkpt lat="50.33198" lon="4.29909">
        <ele>175.380768</ele>
        <time>2022-03-20T07:22:29Z</time>
      </trkpt>
      <trkpt lat="50.33197" lon="4.29906">
        <ele>175.309814</ele>
        <time>2022-03-20T07:22:31Z</time>
      </trkpt>
      <trkpt lat="50.332" lon="4.29902">
        <ele>174.637115</ele>
        <time>2022-03-20T07:22:43Z</time>
      </trkpt>
      <trkpt lat="50.33201" lon="4.299">
        <ele>174.505768</ele>
        <time>2022-03-20T07:22:45Z</time>
      </trkpt>
      <trkpt lat="50.33199" lon="4.29897">
        <ele>174.155304</ele>
        <time>2022-03-20T07:22:47Z</time>
      </trkpt>
      <trkpt lat="50.33197" lon="4.29895">
        <ele>173.891281</ele>
        <time>2022-03-20T07:22:49Z</time>
      </trkpt>
      <trkpt lat="50.33196" lon="4.29892">
        <ele>173.702301</ele>
        <time>2022-03-20T07:22:51Z</time>
      </trkpt>
      <trkpt lat="50.33196" lon="4.29888">
        <ele>173.399841</ele>
        <time>2022-03-20T07:22:53Z</time>
      </trkpt>
      <trkpt lat="50.33193" lon="4.29882">
        <ele>173.041077</ele>
        <time>2022-03-20T07:22:55Z</time>
      </trkpt>
      <trkpt lat="50.33192" lon="4.29872">
        <ele>172.640411</ele>
        <time>2022-03-20T07:22:57Z</time>
      </trkpt>
      <trkpt lat="50.3319" lon="4.29864">
        <ele>172.183685</ele>
        <time>2022-03-20T07:22:59Z</time>
      </trkpt>
      <trkpt lat="50.33188" lon="4.29853">
        <ele>171.681076</ele>
        <time>2022-03-20T07:23:01Z</time>
      </trkpt>
      <trkpt lat="50.33186" lon="4.29843">
        <ele>171.321625</ele>
        <time>2022-03-20T07:23:03Z</time>
      </trkpt>
      <trkpt lat="50.33181" lon="4.29837">
        <ele>170.654404</ele>
        <time>2022-03-20T07:23:05Z</time>
      </trkpt>
      <trkpt lat="50.33176" lon="4.2983">
        <ele>169.917084</ele>
        <time>2022-03-20T07:23:07Z</time>
      </trkpt>
      <trkpt lat="50.33169" lon="4.29824">
        <ele>169.178009</ele>
        <time>2022-03-20T07:23:09Z</time>
      </trkpt>
      <trkpt lat="50.33163" lon="4.29819">
        <ele>168.292084</ele>
        <time>2022-03-20T07:23:11Z</time>
      </trkpt>
      <trkpt lat="50.33156" lon="4.2981">
        <ele>167.472809</ele>
        <time>2022-03-20T07:23:13Z</time>
      </trkpt>
      <trkpt lat="50.33151" lon="4.29801">
        <ele>166.559906</ele>
        <time>2022-03-20T07:23:15Z</time>
      </trkpt>
      <trkpt lat="50.33143" lon="4.29791">
        <ele>165.540787</ele>
        <time>2022-03-20T07:23:17Z</time>
      </trkpt>
      <trkpt lat="50.33135" lon="4.29777">
        <ele>165.030212</ele>
        <time>2022-03-20T07:23:19Z</time>
      </trkpt>
      <trkpt lat="50.33128" lon="4.29765">
        <ele>164.070709</ele>
        <time>2022-03-20T07:23:21Z</time>
      </trkpt>
      <trkpt lat="50.33116" lon="4.29755">
        <ele>163.046158</ele>
        <time>2022-03-20T07:23:23Z</time>
      </trkpt>
      <trkpt lat="50.33103" lon="4.29747">
        <ele>162.019226</ele>
        <time>2022-03-20T07:23:25Z</time>
      </trkpt>
      <trkpt lat="50.33091" lon="4.29736">
        <ele>160.838684</ele>
        <time>2022-03-20T07:23:27Z</time>
      </trkpt>
      <trkpt lat="50.33079" lon="4.29726">
        <ele>159.74086</ele>
        <time>2022-03-20T07:23:29Z</time>
      </trkpt>
      <trkpt lat="50.33066" lon="4.29719">
        <ele>158.667252</ele>
        <time>2022-03-20T07:23:31Z</time>
      </trkpt>
      <trkpt lat="50.3305" lon="4.29717">
        <ele>157.517426</ele>
        <time>2022-03-20T07:23:33Z</time>
      </trkpt>
      <trkpt lat="50.33035" lon="4.29718">
        <ele>156.380219</ele>
        <time>2022-03-20T07:23:35Z</time>
      </trkpt>
      <trkpt lat="50.3302" lon="4.29718">
        <ele>155.136826</ele>
        <time>2022-03-20T07:23:37Z</time>
      </trkpt>
      <trkpt lat="50.33007" lon="4.29717">
        <ele>154.001892</ele>
        <time>2022-03-20T07:23:39Z</time>
      </trkpt>
      <trkpt lat="50.32995" lon="4.29714">
        <ele>152.917542</ele>
        <time>2022-03-20T07:23:41Z</time>
      </trkpt>
      <trkpt lat="50.32983" lon="4.29712">
        <ele>151.6539</ele>
        <time>2022-03-20T07:23:43Z</time>
      </trkpt>
      <trkpt lat="50.32971" lon="4.29713">
        <ele>150.586807</ele>
        <time>2022-03-20T07:23:45Z</time>
      </trkpt>
      <trkpt lat="50.32959" lon="4.29717">
        <ele>149.597214</ele>
        <time>2022-03-20T07:23:47Z</time>
      </trkpt>
      <trkpt lat="50.32946" lon="4.2972">
        <ele>148.151672</ele>
        <time>2022-03-20T07:23:49Z</time>
      </trkpt>
      <trkpt lat="50.32935" lon="4.29723">
        <ele>147.681366</ele>
        <time>2022-03-20T07:23:51Z</time>
      </trkpt>
      <trkpt lat="50.32924" lon="4.29725">
        <ele>146.684494</ele>
        <time>2022-03-20T07:23:53Z</time>
      </trkpt>
      <trkpt lat="50.32913" lon="4.29726">
        <ele>146.284958</ele>
        <time>2022-03-20T07:23:55Z</time>
      </trkpt>
      <trkpt lat="50.32904" lon="4.29726">
        <ele>145.427689</ele>
        <time>2022-03-20T07:23:57Z</time>
      </trkpt>
      <trkpt lat="50.32897" lon="4.29725">
        <ele>144.751434</ele>
        <time>2022-03-20T07:23:59Z</time>
      </trkpt>
      <trkpt lat="50.3289" lon="4.29722">
        <ele>144.077393</ele>
        <time>2022-03-20T07:24:01Z</time>
      </trkpt>
      <trkpt lat="50.32886" lon="4.29715">
        <ele>143.277115</ele>
        <time>2022-03-20T07:24:03Z</time>
      </trkpt>
      <trkpt lat="50.32888" lon="4.29707">
        <ele>143.10257</ele>
        <time>2022-03-20T07:24:05Z</time>
      </trkpt>
      <trkpt lat="50.32894" lon="4.29698">
        <ele>142.314102</ele>
        <time>2022-03-20T07:24:07Z</time>
      </trkpt>
      <trkpt lat="50.32899" lon="4.29687">
        <ele>141.964203</ele>
        <time>2022-03-20T07:24:09Z</time>
      </trkpt>
      <trkpt lat="50.32904" lon="4.29677">
        <ele>141.371445</ele>
        <time>2022-03-20T07:24:11Z</time>
      </trkpt>
      <trkpt lat="50.32907" lon="4.29666">
        <ele>140.899353</ele>
        <time>2022-03-20T07:24:13Z</time>
      </trkpt>
      <trkpt lat="50.32912" lon="4.29656">
        <ele>140.476105</ele>
        <time>2022-03-20T07:24:15Z</time>
      </trkpt>
      <trkpt lat="50.32917" lon="4.29646">
        <ele>140.137466</ele>
        <time>2022-03-20T07:24:17Z</time>
      </trkpt>
      <trkpt lat="50.32922" lon="4.29635">
        <ele>139.761078</ele>
        <time>2022-03-20T07:24:19Z</time>
      </trkpt>
      <trkpt lat="50.32926" lon="4.29623">
        <ele>139.361984</ele>
        <time>2022-03-20T07:24:21Z</time>
      </trkpt>
      <trkpt lat="50.32931" lon="4.29612">
        <ele>139.089615</ele>
        <time>2022-03-20T07:24:23Z</time>
      </trkpt>
      <trkpt lat="50.32934" lon="4.296">
        <ele>138.819336</ele>
        <time>2022-03-20T07:24:25Z</time>
      </trkpt>
      <trkpt lat="50.32939" lon="4.29589">
        <ele>138.512604</ele>
        <time>2022-03-20T07:24:27Z</time>
      </trkpt>
      <trkpt lat="50.32943" lon="4.29579">
        <ele>138.313812</ele>
        <time>2022-03-20T07:24:29Z</time>
      </trkpt>
      <trkpt lat="50.32947" lon="4.29566">
        <ele>138.043518</ele>
        <time>2022-03-20T07:24:31Z</time>
      </trkpt>
      <trkpt lat="50.32952" lon="4.29554">
        <ele>137.923248</ele>
        <time>2022-03-20T07:24:33Z</time>
      </trkpt>
      <trkpt lat="50.32954" lon="4.29547">
        <ele>137.902435</ele>
        <time>2022-03-20T07:24:34Z</time>
      </trkpt>
      <trkpt lat="50.32956" lon="4.29533">
        <ele>137.802826</ele>
        <time>2022-03-20T07:24:36Z</time>
      </trkpt>
      <trkpt lat="50.32958" lon="4.2952">
        <ele>137.692642</ele>
        <time>2022-03-20T07:24:38Z</time>
      </trkpt>
      <trkpt lat="50.32958" lon="4.29514">
        <ele>137.588699</ele>
        <time>2022-03-20T07:24:39Z</time>
      </trkpt>
      <trkpt lat="50.3296" lon="4.29503">
        <ele>137.369232</ele>
        <time>2022-03-20T07:24:41Z</time>
      </trkpt>
      <trkpt lat="50.32964" lon="4.2949">
        <ele>137.19046</ele>
        <time>2022-03-20T07:24:43Z</time>
      </trkpt>
      <trkpt lat="50.32969" lon="4.29478">
        <ele>137.10939</ele>
        <time>2022-03-20T07:24:45Z</time>
      </trkpt>
      <trkpt lat="50.32973" lon="4.29466">
        <ele>136.89711</ele>
        <time>2022-03-20T07:24:47Z</time>
      </trkpt>
      <trkpt lat="50.32978" lon="4.29453">
        <ele>136.233505</ele>
        <time>2022-03-20T07:24:49Z</time>
      </trkpt>
      <trkpt lat="50.3298" lon="4.29439">
        <ele>136.112961</ele>
        <time>2022-03-20T07:24:51Z</time>
      </trkpt>
      <trkpt lat="50.32983" lon="4.29427">
        <ele>135.861908</ele>
        <time>2022-03-20T07:24:53Z</time>
      </trkpt>
      <trkpt lat="50.32986" lon="4.29412">
        <ele>135.643326</ele>
        <time>2022-03-20T07:24:55Z</time>
      </trkpt>
      <trkpt lat="50.3299" lon="4.29398">
        <ele>135.516541</ele>
        <time>2022-03-20T07:24:57Z</time>
      </trkpt>
      <trkpt lat="50.32993" lon="4.29385">
        <ele>135.303146</ele>
        <time>2022-03-20T07:24:59Z</time>
      </trkpt>
      <trkpt lat="50.32994" lon="4.29368">
        <ele>135.126465</ele>
        <time>2022-03-20T07:25:01Z</time>
      </trkpt>
      <trkpt lat="50.32997" lon="4.29353">
        <ele>135.044403</ele>
        <time>2022-03-20T07:25:03Z</time>
      </trkpt>
      <trkpt lat="50.33" lon="4.29338">
        <ele>134.927826</ele>
        <time>2022-03-20T07:25:05Z</time>
      </trkpt>
      <trkpt lat="50.33001" lon="4.29323">
        <ele>134.867554</ele>
        <time>2022-03-20T07:25:07Z</time>
      </trkpt>
      <trkpt lat="50.33003" lon="4.29307">
        <ele>134.765366</ele>
        <time>2022-03-20T07:25:09Z</time>
      </trkpt>
      <trkpt lat="50.3301" lon="4.29292">
        <ele>134.695831</ele>
        <time>2022-03-20T07:25:11Z</time>
      </trkpt>
      <trkpt lat="50.33016" lon="4.2928">
        <ele>134.623093</ele>
        <time>2022-03-20T07:25:13Z</time>
      </trkpt>
      <trkpt lat="50.33021" lon="4.29266">
        <ele>134.550049</ele>
        <time>2022-03-20T07:25:15Z</time>
      </trkpt>
      <trkpt lat="50.33024" lon="4.29252">
        <ele>134.394196</ele>
        <time>2022-03-20T07:25:17Z</time>
      </trkpt>
      <trkpt lat="50.33025" lon="4.2924">
        <ele>134.290085</ele>
        <time>2022-03-20T07:25:19Z</time>
      </trkpt>
      <trkpt lat="50.33031" lon="4.29228">
        <ele>134.204865</ele>
        <time>2022-03-20T07:25:21Z</time>
      </trkpt>
      <trkpt lat="50.33038" lon="4.29216">
        <ele>134.052277</ele>
        <time>2022-03-20T07:25:23Z</time>
      </trkpt>
      <trkpt lat="50.33041" lon="4.29202">
        <ele>133.983292</ele>
        <time>2022-03-20T07:25:25Z</time>
      </trkpt>
      <trkpt lat="50.33045" lon="4.29188">
        <ele>133.854568</ele>
        <time>2022-03-20T07:25:27Z</time>
      </trkpt>
      <trkpt lat="50.33052" lon="4.29175">
        <ele>133.742218</ele>
        <time>2022-03-20T07:25:29Z</time>
      </trkpt>
      <trkpt lat="50.33061" lon="4.2916">
        <ele>133.623779</ele>
        <time>2022-03-20T07:25:31Z</time>
      </trkpt>
      <trkpt lat="50.33065" lon="4.29145">
        <ele>133.532349</ele>
        <time>2022-03-20T07:25:33Z</time>
      </trkpt>
      <trkpt lat="50.33073" lon="4.29132">
        <ele>133.434677</ele>
        <time>2022-03-20T07:25:35Z</time>
      </trkpt>
      <trkpt lat="50.33081" lon="4.29119">
        <ele>133.388962</ele>
        <time>2022-03-20T07:25:37Z</time>
      </trkpt>
      <trkpt lat="50.33085" lon="4.29104">
        <ele>133.272583</ele>
        <time>2022-03-20T07:25:39Z</time>
      </trkpt>
      <trkpt lat="50.33091" lon="4.29094">
        <ele>133.189468</ele>
        <time>2022-03-20T07:25:41Z</time>
      </trkpt>
      <trkpt lat="50.33096" lon="4.29081">
        <ele>133.104263</ele>
        <time>2022-03-20T07:25:43Z</time>
      </trkpt>
      <trkpt lat="50.33104" lon="4.29071">
        <ele>132.955627</ele>
        <time>2022-03-20T07:25:45Z</time>
      </trkpt>
      <trkpt lat="50.33108" lon="4.29058">
        <ele>132.83873</ele>
        <time>2022-03-20T07:25:47Z</time>
      </trkpt>
      <trkpt lat="50.33111" lon="4.29045">
        <ele>132.801331</ele>
        <time>2022-03-20T07:25:49Z</time>
      </trkpt>
      <trkpt lat="50.33114" lon="4.29032">
        <ele>132.70401</ele>
        <time>2022-03-20T07:25:51Z</time>
      </trkpt>
      <trkpt lat="50.33121" lon="4.2902">
        <ele>132.559494</ele>
        <time>2022-03-20T07:25:53Z</time>
      </trkpt>
      <trkpt lat="50.33126" lon="4.29008">
        <ele>132.443954</ele>
        <time>2022-03-20T07:25:55Z</time>
      </trkpt>
      <trkpt lat="50.33131" lon="4.28997">
        <ele>132.304718</ele>
        <time>2022-03-20T07:25:57Z</time>
      </trkpt>
      <trkpt lat="50.33135" lon="4.28987">
        <ele>132.261093</ele>
        <time>2022-03-20T07:25:59Z</time>
      </trkpt>
      <trkpt lat="50.33139" lon="4.28975">
        <ele>132.133026</ele>
        <time>2022-03-20T07:26:01Z</time>
      </trkpt>
      <trkpt lat="50.33143" lon="4.28965">
        <ele>132.022888</ele>
        <time>2022-03-20T07:26:03Z</time>
      </trkpt>
      <trkpt lat="50.33149" lon="4.28956">
        <ele>131.93187</ele>
        <time>2022-03-20T07:26:05Z</time>
      </trkpt>
      <trkpt lat="50.33152" lon="4.28945">
        <ele>131.823837</ele>
        <time>2022-03-20T07:26:07Z</time>
      </trkpt>
      <trkpt lat="50.33159" lon="4.28937">
        <ele>131.751694</ele>
        <time>2022-03-20T07:26:09Z</time>
      </trkpt>
      <trkpt lat="50.33166" lon="4.28928">
        <ele>131.707291</ele>
        <time>2022-03-20T07:26:11Z</time>
      </trkpt>
      <trkpt lat="50.33173" lon="4.28921">
        <ele>131.671967</ele>
        <time>2022-03-20T07:26:13Z</time>
      </trkpt>
      <trkpt lat="50.3318" lon="4.28915">
        <ele>131.559784</ele>
        <time>2022-03-20T07:26:15Z</time>
      </trkpt>
      <trkpt lat="50.33188" lon="4.28908">
        <ele>131.557709</ele>
        <time>2022-03-20T07:26:17Z</time>
      </trkpt>
      <trkpt lat="50.33196" lon="4.28902">
        <ele>131.496597</ele>
        <time>2022-03-20T07:26:19Z</time>
      </trkpt>
      <trkpt lat="50.33204" lon="4.28893">
        <ele>131.455826</ele>
        <time>2022-03-20T07:26:21Z</time>
      </trkpt>
      <trkpt lat="50.33211" lon="4.28889">
        <ele>131.372299</ele>
        <time>2022-03-20T07:26:23Z</time>
      </trkpt>
      <trkpt lat="50.3322" lon="4.28886">
        <ele>131.295425</ele>
        <time>2022-03-20T07:26:25Z</time>
      </trkpt>
      <trkpt lat="50.33227" lon="4.2888">
        <ele>131.251801</ele>
        <time>2022-03-20T07:26:27Z</time>
      </trkpt>
      <trkpt lat="50.33237" lon="4.28877">
        <ele>131.147919</ele>
        <time>2022-03-20T07:26:29Z</time>
      </trkpt>
      <trkpt lat="50.33243" lon="4.28871">
        <ele>131.066879</ele>
        <time>2022-03-20T07:26:31Z</time>
      </trkpt>
      <trkpt lat="50.33246" lon="4.28861">
        <ele>130.973404</ele>
        <time>2022-03-20T07:26:33Z</time>
      </trkpt>
      <trkpt lat="50.3325" lon="4.28854">
        <ele>130.93808</ele>
        <time>2022-03-20T07:26:35Z</time>
      </trkpt>
      <trkpt lat="50.33253" lon="4.28847">
        <ele>130.88739</ele>
        <time>2022-03-20T07:26:37Z</time>
      </trkpt>
      <trkpt lat="50.33254" lon="4.28844">
        <ele>130.835449</ele>
        <time>2022-03-20T07:26:39Z</time>
      </trkpt>
      <trkpt lat="50.33254" lon="4.2884">
        <ele>130.739883</ele>
        <time>2022-03-20T07:26:41Z</time>
      </trkpt>
      <trkpt lat="50.33256" lon="4.28837">
        <ele>130.639389</ele>
        <time>2022-03-20T07:26:43Z</time>
      </trkpt>
      <trkpt lat="50.33257" lon="4.28835">
        <ele>130.618622</ele>
        <time>2022-03-20T07:26:45Z</time>
      </trkpt>
      <trkpt lat="50.33262" lon="4.28824">
        <ele>129.963165</ele>
        <time>2022-03-20T07:26:59Z</time>
      </trkpt>
      <trkpt lat="50.33264" lon="4.2882">
        <ele>129.829407</ele>
        <time>2022-03-20T07:27:01Z</time>
      </trkpt>
      <trkpt lat="50.33265" lon="4.28818">
        <ele>129.676575</ele>
        <time>2022-03-20T07:27:03Z</time>
      </trkpt>
      <trkpt lat="50.33269" lon="4.2881">
        <ele>128.949982</ele>
        <time>2022-03-20T07:27:17Z</time>
      </trkpt>
      <trkpt lat="50.33271" lon="4.28807">
        <ele>128.808731</ele>
        <time>2022-03-20T07:27:19Z</time>
      </trkpt>
      <trkpt lat="50.33283" lon="4.28783">
        <ele>128.70694</ele>
        <time>2022-03-20T07:27:21Z</time>
      </trkpt>
      <trkpt lat="50.33283" lon="4.28782">
        <ele>128.580246</ele>
        <time>2022-03-20T07:27:23Z</time>
      </trkpt>
      <trkpt lat="50.33284" lon="4.2878">
        <ele>128.438995</ele>
        <time>2022-03-20T07:27:25Z</time>
      </trkpt>
      <trkpt lat="50.33285" lon="4.28774">
        <ele>128.079666</ele>
        <time>2022-03-20T07:27:31Z</time>
      </trkpt>
      <trkpt lat="50.33286" lon="4.28771">
        <ele>127.882362</ele>
        <time>2022-03-20T07:27:33Z</time>
      </trkpt>
      <trkpt lat="50.33287" lon="4.28769">
        <ele>127.705673</ele>
        <time>2022-03-20T07:27:35Z</time>
      </trkpt>
      <trkpt lat="50.33287" lon="4.28767">
        <ele>127.531166</ele>
        <time>2022-03-20T07:27:37Z</time>
      </trkpt>
      <trkpt lat="50.33289" lon="4.28764">
        <ele>127.350708</ele>
        <time>2022-03-20T07:27:39Z</time>
      </trkpt>
      <trkpt lat="50.33289" lon="4.28761">
        <ele>127.120193</ele>
        <time>2022-03-20T07:27:41Z</time>
      </trkpt>
      <trkpt lat="50.33291" lon="4.28757">
        <ele>126.847694</ele>
        <time>2022-03-20T07:27:43Z</time>
      </trkpt>
      <trkpt lat="50.33294" lon="4.28757">
        <ele>126.588135</ele>
        <time>2022-03-20T07:27:45Z</time>
      </trkpt>
      <trkpt lat="50.33297" lon="4.28761">
        <ele>126.263268</ele>
        <time>2022-03-20T07:27:47Z</time>
      </trkpt>
      <trkpt lat="50.33299" lon="4.28767">
        <ele>125.918579</ele>
        <time>2022-03-20T07:27:49Z</time>
      </trkpt>
      <trkpt lat="50.33302" lon="4.28775">
        <ele>125.950394</ele>
        <time>2022-03-20T07:27:51Z</time>
      </trkpt>
      <trkpt lat="50.33308" lon="4.28789">
        <ele>125.740662</ele>
        <time>2022-03-20T07:27:53Z</time>
      </trkpt>
      <trkpt lat="50.33315" lon="4.288">
        <ele>125.477158</ele>
        <time>2022-03-20T07:27:55Z</time>
      </trkpt>
      <trkpt lat="50.33322" lon="4.28811">
        <ele>125.099281</ele>
        <time>2022-03-20T07:27:57Z</time>
      </trkpt>
      <trkpt lat="50.33329" lon="4.28821">
        <ele>124.781601</ele>
        <time>2022-03-20T07:27:59Z</time>
      </trkpt>
      <trkpt lat="50.33337" lon="4.28831">
        <ele>124.459778</ele>
        <time>2022-03-20T07:28:01Z</time>
      </trkpt>
      <trkpt lat="50.33345" lon="4.28843">
        <ele>124.281227</ele>
        <time>2022-03-20T07:28:03Z</time>
      </trkpt>
      <trkpt lat="50.33354" lon="4.28853">
        <ele>123.994705</ele>
        <time>2022-03-20T07:28:05Z</time>
      </trkpt>
      <trkpt lat="50.33362" lon="4.28865">
        <ele>123.714394</ele>
        <time>2022-03-20T07:28:07Z</time>
      </trkpt>
      <trkpt lat="50.33373" lon="4.28874">
        <ele>123.49559</ele>
        <time>2022-03-20T07:28:09Z</time>
      </trkpt>
      <trkpt lat="50.33382" lon="4.28882">
        <ele>123.236893</ele>
        <time>2022-03-20T07:28:11Z</time>
      </trkpt>
      <trkpt lat="50.3339" lon="4.28887">
        <ele>123.029274</ele>
        <time>2022-03-20T07:28:13Z</time>
      </trkpt>
      <trkpt lat="50.33398" lon="4.28893">
        <ele>122.850609</ele>
        <time>2022-03-20T07:28:15Z</time>
      </trkpt>
      <trkpt lat="50.33407" lon="4.28894">
        <ele>122.609642</ele>
        <time>2022-03-20T07:28:17Z</time>
      </trkpt>
      <trkpt lat="50.33417" lon="4.28895">
        <ele>122.470314</ele>
        <time>2022-03-20T07:28:19Z</time>
      </trkpt>
      <trkpt lat="50.33429" lon="4.28896">
        <ele>122.378967</ele>
        <time>2022-03-20T07:28:21Z</time>
      </trkpt>
      <trkpt lat="50.33438" lon="4.28897">
        <ele>122.381042</ele>
        <time>2022-03-20T07:28:23Z</time>
      </trkpt>
      <trkpt lat="50.33443" lon="4.28897">
        <ele>122.356125</ele>
        <time>2022-03-20T07:28:24Z</time>
      </trkpt>
      <trkpt lat="50.33455" lon="4.289">
        <ele>122.40181</ele>
        <time>2022-03-20T07:28:26Z</time>
      </trkpt>
      <trkpt lat="50.33464" lon="4.28903">
        <ele>121.767372</ele>
        <time>2022-03-20T07:28:28Z</time>
      </trkpt>
      <trkpt lat="50.33476" lon="4.28907">
        <ele>121.686424</ele>
        <time>2022-03-20T07:28:30Z</time>
      </trkpt>
      <trkpt lat="50.3349" lon="4.28913">
        <ele>121.740402</ele>
        <time>2022-03-20T07:28:32Z</time>
      </trkpt>
      <trkpt lat="50.33504" lon="4.28919">
        <ele>121.252281</ele>
        <time>2022-03-20T07:28:34Z</time>
      </trkpt>
      <trkpt lat="50.33516" lon="4.28924">
        <ele>121.241905</ele>
        <time>2022-03-20T07:28:36Z</time>
      </trkpt>
      <trkpt lat="50.33527" lon="4.28927">
        <ele>121.244797</ele>
        <time>2022-03-20T07:28:38Z</time>
      </trkpt>
      <trkpt lat="50.33533" lon="4.28929">
        <ele>121.285683</ele>
        <time>2022-03-20T07:28:39Z</time>
      </trkpt>
      <trkpt lat="50.33542" lon="4.28931">
        <ele>121.345375</ele>
        <time>2022-03-20T07:28:41Z</time>
      </trkpt>
      <trkpt lat="50.33553" lon="4.28936">
        <ele>121.401428</ele>
        <time>2022-03-20T07:28:43Z</time>
      </trkpt>
      <trkpt lat="50.33563" lon="4.2894">
        <ele>121.465744</ele>
        <time>2022-03-20T07:28:45Z</time>
      </trkpt>
      <trkpt lat="50.33572" lon="4.28941">
        <ele>121.494812</ele>
        <time>2022-03-20T07:28:47Z</time>
      </trkpt>
      <trkpt lat="50.3358" lon="4.28943">
        <ele>121.374413</ele>
        <time>2022-03-20T07:28:49Z</time>
      </trkpt>
      <trkpt lat="50.33585" lon="4.28943">
        <ele>121.33783</ele>
        <time>2022-03-20T07:28:51Z</time>
      </trkpt>
      <trkpt lat="50.3359" lon="4.28945">
        <ele>121.307938</ele>
        <time>2022-03-20T07:28:53Z</time>
      </trkpt>
      <trkpt lat="50.33594" lon="4.28951">
        <ele>121.256081</ele>
        <time>2022-03-20T07:28:55Z</time>
      </trkpt>
      <trkpt lat="50.33595" lon="4.28954">
        <ele>121.22715</ele>
        <time>2022-03-20T07:28:56Z</time>
      </trkpt>
      <trkpt lat="50.33596" lon="4.28963">
        <ele>121.152603</ele>
        <time>2022-03-20T07:28:58Z</time>
      </trkpt>
      <trkpt lat="50.33597" lon="4.28972">
        <ele>120.978249</ele>
        <time>2022-03-20T07:29:00Z</time>
      </trkpt>
      <trkpt lat="50.33596" lon="4.28977">
        <ele>120.845421</ele>
        <time>2022-03-20T07:29:02Z</time>
      </trkpt>
      <trkpt lat="50.33595" lon="4.28984">
        <ele>120.727097</ele>
        <time>2022-03-20T07:29:04Z</time>
      </trkpt>
      <trkpt lat="50.33594" lon="4.28988">
        <ele>120.597214</ele>
        <time>2022-03-20T07:29:06Z</time>
      </trkpt>
      <trkpt lat="50.33592" lon="4.28994">
        <ele>120.451904</ele>
        <time>2022-03-20T07:29:08Z</time>
      </trkpt>
      <trkpt lat="50.33592" lon="4.28999">
        <ele>121.107529</ele>
        <time>2022-03-20T07:29:10Z</time>
      </trkpt>
      <trkpt lat="50.33591" lon="4.29006">
        <ele>121.09507</ele>
        <time>2022-03-20T07:29:12Z</time>
      </trkpt>
      <trkpt lat="50.33589" lon="4.29012">
        <ele>121.086769</ele>
        <time>2022-03-20T07:29:14Z</time>
      </trkpt>
      <trkpt lat="50.33587" lon="4.29017">
        <ele>121.041092</ele>
        <time>2022-03-20T07:29:16Z</time>
      </trkpt>
      <trkpt lat="50.33584" lon="4.29021">
        <ele>121.012024</ele>
        <time>2022-03-20T07:29:18Z</time>
      </trkpt>
      <trkpt lat="50.33582" lon="4.29026">
        <ele>121.052505</ele>
        <time>2022-03-20T07:29:20Z</time>
      </trkpt>
      <trkpt lat="50.3358" lon="4.29031">
        <ele>121.091003</ele>
        <time>2022-03-20T07:29:22Z</time>
      </trkpt>
      <trkpt lat="50.33578" lon="4.29032">
        <ele>121.08535</ele>
        <time>2022-03-20T07:29:23Z</time>
      </trkpt>
      <trkpt lat="50.33575" lon="4.29037">
        <ele>121.140869</ele>
        <time>2022-03-20T07:29:26Z</time>
      </trkpt>
      <trkpt lat="50.33573" lon="4.29039">
        <ele>121.263382</ele>
        <time>2022-03-20T07:29:28Z</time>
      </trkpt>
      <trkpt lat="50.33571" lon="4.29041">
        <ele>121.348953</ele>
        <time>2022-03-20T07:29:30Z</time>
      </trkpt>
      <trkpt lat="50.33571" lon="4.29043">
        <ele>121.53701</ele>
        <time>2022-03-20T07:29:32Z</time>
      </trkpt>
      <trkpt lat="50.33571" lon="4.29046">
        <ele>121.723282</ele>
        <time>2022-03-20T07:29:34Z</time>
      </trkpt>
      <trkpt lat="50.33569" lon="4.29049">
        <ele>121.98674</ele>
        <time>2022-03-20T07:29:36Z</time>
      </trkpt>
      <trkpt lat="50.33568" lon="4.29052">
        <ele>122.254539</ele>
        <time>2022-03-20T07:29:38Z</time>
      </trkpt>
      <trkpt lat="50.33569" lon="4.29055">
        <ele>122.572311</ele>
        <time>2022-03-20T07:29:40Z</time>
      </trkpt>
      <trkpt lat="50.33569" lon="4.29058">
        <ele>122.970924</ele>
        <time>2022-03-20T07:29:42Z</time>
      </trkpt>
      <trkpt lat="50.33569" lon="4.29061">
        <ele>123.431808</ele>
        <time>2022-03-20T07:29:44Z</time>
      </trkpt>
      <trkpt lat="50.33568" lon="4.29066">
        <ele>123.786865</ele>
        <time>2022-03-20T07:29:46Z</time>
      </trkpt>
      <trkpt lat="50.33567" lon="4.2907">
        <ele>124.163864</ele>
        <time>2022-03-20T07:29:48Z</time>
      </trkpt>
      <trkpt lat="50.33565" lon="4.29074">
        <ele>124.541847</ele>
        <time>2022-03-20T07:29:50Z</time>
      </trkpt>
      <trkpt lat="50.33562" lon="4.29079">
        <ele>124.958778</ele>
        <time>2022-03-20T07:29:52Z</time>
      </trkpt>
      <trkpt lat="50.3356" lon="4.29084">
        <ele>125.349167</ele>
        <time>2022-03-20T07:29:54Z</time>
      </trkpt>
      <trkpt lat="50.3356" lon="4.29088">
        <ele>125.837173</ele>
        <time>2022-03-20T07:29:56Z</time>
      </trkpt>
      <trkpt lat="50.3356" lon="4.29092">
        <ele>126.279495</ele>
        <time>2022-03-20T07:29:58Z</time>
      </trkpt>
      <trkpt lat="50.3356" lon="4.29096">
        <ele>126.713524</ele>
        <time>2022-03-20T07:30:00Z</time>
      </trkpt>
      <trkpt lat="50.3356" lon="4.29098">
        <ele>126.923294</ele>
        <time>2022-03-20T07:30:01Z</time>
      </trkpt>
      <trkpt lat="50.33561" lon="4.29101">
        <ele>127.413437</ele>
        <time>2022-03-20T07:30:03Z</time>
      </trkpt>
      <trkpt lat="50.33559" lon="4.29105">
        <ele>127.637169</ele>
        <time>2022-03-20T07:30:05Z</time>
      </trkpt>
      <trkpt lat="50.33558" lon="4.29109">
        <ele>128.061386</ele>
        <time>2022-03-20T07:30:07Z</time>
      </trkpt>
      <trkpt lat="50.33556" lon="4.29111">
        <ele>128.468506</ele>
        <time>2022-03-20T07:30:09Z</time>
      </trkpt>
      <trkpt lat="50.33554" lon="4.2912">
        <ele>130.936813</ele>
        <time>2022-03-20T07:30:21Z</time>
      </trkpt>
      <trkpt lat="50.33553" lon="4.29124">
        <ele>131.725037</ele>
        <time>2022-03-20T07:30:25Z</time>
      </trkpt>
      <trkpt lat="50.33551" lon="4.29126">
        <ele>132.159302</ele>
        <time>2022-03-20T07:30:27Z</time>
      </trkpt>
      <trkpt lat="50.33551" lon="4.29128">
        <ele>132.576965</ele>
        <time>2022-03-20T07:30:29Z</time>
      </trkpt>
      <trkpt lat="50.33546" lon="4.29139">
        <ele>136.570511</ele>
        <time>2022-03-20T07:30:49Z</time>
      </trkpt>
      <trkpt lat="50.33543" lon="4.29144">
        <ele>142.588806</ele>
        <time>2022-03-20T07:31:29Z</time>
      </trkpt>
      <trkpt lat="50.33541" lon="4.29146">
        <ele>142.898712</ele>
        <time>2022-03-20T07:31:31Z</time>
      </trkpt>
      <trkpt lat="50.33518" lon="4.29176">
        <ele>143.159363</ele>
        <time>2022-03-20T07:31:33Z</time>
      </trkpt>
      <trkpt lat="50.33519" lon="4.2918">
        <ele>143.440796</ele>
        <time>2022-03-20T07:31:35Z</time>
      </trkpt>
      <trkpt lat="50.33518" lon="4.29181">
        <ele>143.567688</ele>
        <time>2022-03-20T07:31:37Z</time>
      </trkpt>
      <trkpt lat="50.33516" lon="4.29183">
        <ele>143.854767</ele>
        <time>2022-03-20T07:31:39Z</time>
      </trkpt>
      <trkpt lat="50.3351" lon="4.29183">
        <ele>145.762604</ele>
        <time>2022-03-20T07:31:53Z</time>
      </trkpt>
      <trkpt lat="50.33508" lon="4.29181">
        <ele>146.035446</ele>
        <time>2022-03-20T07:31:55Z</time>
      </trkpt>
      <trkpt lat="50.33506" lon="4.29179">
        <ele>146.335083</ele>
        <time>2022-03-20T07:31:57Z</time>
      </trkpt>
      <trkpt lat="50.33504" lon="4.29176">
        <ele>146.655533</ele>
        <time>2022-03-20T07:31:59Z</time>
      </trkpt>
      <trkpt lat="50.33503" lon="4.29174">
        <ele>146.961426</ele>
        <time>2022-03-20T07:32:01Z</time>
      </trkpt>
      <trkpt lat="50.33501" lon="4.29171">
        <ele>147.300598</ele>
        <time>2022-03-20T07:32:03Z</time>
      </trkpt>
      <trkpt lat="50.335" lon="4.29165">
        <ele>147.594009</ele>
        <time>2022-03-20T07:32:05Z</time>
      </trkpt>
      <trkpt lat="50.33498" lon="4.29159">
        <ele>147.874969</ele>
        <time>2022-03-20T07:32:07Z</time>
      </trkpt>
      <trkpt lat="50.33499" lon="4.29154">
        <ele>148.193375</ele>
        <time>2022-03-20T07:32:09Z</time>
      </trkpt>
      <trkpt lat="50.33499" lon="4.29149">
        <ele>148.567963</ele>
        <time>2022-03-20T07:32:11Z</time>
      </trkpt>
      <trkpt lat="50.33499" lon="4.29143">
        <ele>148.842697</ele>
        <time>2022-03-20T07:32:13Z</time>
      </trkpt>
      <trkpt lat="50.33499" lon="4.29138">
        <ele>149.185455</ele>
        <time>2022-03-20T07:32:15Z</time>
      </trkpt>
      <trkpt lat="50.335" lon="4.29134">
        <ele>149.52536</ele>
        <time>2022-03-20T07:32:17Z</time>
      </trkpt>
      <trkpt lat="50.33502" lon="4.29128">
        <ele>149.827423</ele>
        <time>2022-03-20T07:32:19Z</time>
      </trkpt>
      <trkpt lat="50.33504" lon="4.29123">
        <ele>150.170853</ele>
        <time>2022-03-20T07:32:21Z</time>
      </trkpt>
      <trkpt lat="50.33505" lon="4.29117">
        <ele>150.363754</ele>
        <time>2022-03-20T07:32:23Z</time>
      </trkpt>
      <trkpt lat="50.33509" lon="4.2911">
        <ele>150.655563</ele>
        <time>2022-03-20T07:32:25Z</time>
      </trkpt>
      <trkpt lat="50.33508" lon="4.29101">
        <ele>150.959473</ele>
        <time>2022-03-20T07:32:27Z</time>
      </trkpt>
      <trkpt lat="50.33505" lon="4.29092">
        <ele>151.321716</ele>
        <time>2022-03-20T07:32:29Z</time>
      </trkpt>
      <trkpt lat="50.33497" lon="4.29082">
        <ele>151.595413</ele>
        <time>2022-03-20T07:32:31Z</time>
      </trkpt>
      <trkpt lat="50.33494" lon="4.29074">
        <ele>151.896729</ele>
        <time>2022-03-20T07:32:33Z</time>
      </trkpt>
      <trkpt lat="50.33493" lon="4.29065">
        <ele>152.156647</ele>
        <time>2022-03-20T07:32:35Z</time>
      </trkpt>
      <trkpt lat="50.33489" lon="4.29055">
        <ele>152.462677</ele>
        <time>2022-03-20T07:32:37Z</time>
      </trkpt>
      <trkpt lat="50.33484" lon="4.29049">
        <ele>152.55011</ele>
        <time>2022-03-20T07:32:39Z</time>
      </trkpt>
      <trkpt lat="50.33477" lon="4.29045">
        <ele>152.793686</ele>
        <time>2022-03-20T07:32:41Z</time>
      </trkpt>
      <trkpt lat="50.33474" lon="4.29043">
        <ele>152.887375</ele>
        <time>2022-03-20T07:32:42Z</time>
      </trkpt>
      <trkpt lat="50.33466" lon="4.2904">
        <ele>152.979874</ele>
        <time>2022-03-20T07:32:44Z</time>
      </trkpt>
      <trkpt lat="50.33461" lon="4.29038">
        <ele>153.063141</ele>
        <time>2022-03-20T07:32:46Z</time>
      </trkpt>
      <trkpt lat="50.33458" lon="4.29036">
        <ele>153.217651</ele>
        <time>2022-03-20T07:32:47Z</time>
      </trkpt>
      <trkpt lat="50.33453" lon="4.29033">
        <ele>153.314056</ele>
        <time>2022-03-20T07:32:49Z</time>
      </trkpt>
      <trkpt lat="50.33448" lon="4.29029">
        <ele>153.459808</ele>
        <time>2022-03-20T07:32:51Z</time>
      </trkpt>
      <trkpt lat="50.3344" lon="4.29026">
        <ele>153.57016</ele>
        <time>2022-03-20T07:32:53Z</time>
      </trkpt>
      <trkpt lat="50.33435" lon="4.29023">
        <ele>153.705215</ele>
        <time>2022-03-20T07:32:55Z</time>
      </trkpt>
      <trkpt lat="50.33429" lon="4.29019">
        <ele>153.856873</ele>
        <time>2022-03-20T07:32:57Z</time>
      </trkpt>
      <trkpt lat="50.33425" lon="4.29014">
        <ele>154.020081</ele>
        <time>2022-03-20T07:32:59Z</time>
      </trkpt>
      <trkpt lat="50.33418" lon="4.29009">
        <ele>154.228058</ele>
        <time>2022-03-20T07:33:01Z</time>
      </trkpt>
      <trkpt lat="50.33413" lon="4.29003">
        <ele>154.432159</ele>
        <time>2022-03-20T07:33:03Z</time>
      </trkpt>
      <trkpt lat="50.33411" lon="4.28998">
        <ele>154.497162</ele>
        <time>2022-03-20T07:33:05Z</time>
      </trkpt>
      <trkpt lat="50.33406" lon="4.28992">
        <ele>154.515778</ele>
        <time>2022-03-20T07:33:07Z</time>
      </trkpt>
      <trkpt lat="50.334" lon="4.28989">
        <ele>154.593109</ele>
        <time>2022-03-20T07:33:09Z</time>
      </trkpt>
      <trkpt lat="50.33395" lon="4.28985">
        <ele>154.697235</ele>
        <time>2022-03-20T07:33:11Z</time>
      </trkpt>
      <trkpt lat="50.33388" lon="4.2898">
        <ele>154.686005</ele>
        <time>2022-03-20T07:33:13Z</time>
      </trkpt>
      <trkpt lat="50.33385" lon="4.28977">
        <ele>154.779709</ele>
        <time>2022-03-20T07:33:15Z</time>
      </trkpt>
      <trkpt lat="50.33381" lon="4.28974">
        <ele>154.810944</ele>
        <time>2022-03-20T07:33:17Z</time>
      </trkpt>
      <trkpt lat="50.33377" lon="4.2897">
        <ele>154.908813</ele>
        <time>2022-03-20T07:33:19Z</time>
      </trkpt>
      <trkpt lat="50.33374" lon="4.28968">
        <ele>155.058716</ele>
        <time>2022-03-20T07:33:20Z</time>
      </trkpt>
      <trkpt lat="50.33368" lon="4.28964">
        <ele>155.131607</ele>
        <time>2022-03-20T07:33:22Z</time>
      </trkpt>
      <trkpt lat="50.33364" lon="4.28961">
        <ele>155.198242</ele>
        <time>2022-03-20T07:33:24Z</time>
      </trkpt>
      <trkpt lat="50.33361" lon="4.28959">
        <ele>154.926956</ele>
        <time>2022-03-20T07:33:26Z</time>
      </trkpt>
      <trkpt lat="50.33358" lon="4.28957">
        <ele>155.056305</ele>
        <time>2022-03-20T07:33:28Z</time>
      </trkpt>
      <trkpt lat="50.33356" lon="4.28955">
        <ele>155.003662</ele>
        <time>2022-03-20T07:33:30Z</time>
      </trkpt>
      <trkpt lat="50.33353" lon="4.28952">
        <ele>155.079742</ele>
        <time>2022-03-20T07:33:32Z</time>
      </trkpt>
      <trkpt lat="50.33351" lon="4.2895">
        <ele>155.314041</ele>
        <time>2022-03-20T07:33:36Z</time>
      </trkpt>
      <trkpt lat="50.33347" lon="4.28946">
        <ele>155.374847</ele>
        <time>2022-03-20T07:33:44Z</time>
      </trkpt>
      <trkpt lat="50.33344" lon="4.28944">
        <ele>155.48082</ele>
        <time>2022-03-20T07:33:46Z</time>
      </trkpt>
      <trkpt lat="50.33338" lon="4.28939">
        <ele>155.545868</ele>
        <time>2022-03-20T07:33:48Z</time>
      </trkpt>
      <trkpt lat="50.33332" lon="4.28935">
        <ele>155.537247</ele>
        <time>2022-03-20T07:33:50Z</time>
      </trkpt>
      <trkpt lat="50.33299" lon="4.2891">
        <ele>155.491425</ele>
        <time>2022-03-20T07:33:52Z</time>
      </trkpt>
      <trkpt lat="50.33292" lon="4.28909">
        <ele>155.537231</ele>
        <time>2022-03-20T07:33:54Z</time>
      </trkpt>
      <trkpt lat="50.33286" lon="4.28907">
        <ele>155.426865</ele>
        <time>2022-03-20T07:33:56Z</time>
      </trkpt>
      <trkpt lat="50.33281" lon="4.28901">
        <ele>155.36232</ele>
        <time>2022-03-20T07:33:58Z</time>
      </trkpt>
      <trkpt lat="50.33275" lon="4.28897">
        <ele>155.323425</ele>
        <time>2022-03-20T07:34:00Z</time>
      </trkpt>
      <trkpt lat="50.3327" lon="4.28891">
        <ele>155.219315</ele>
        <time>2022-03-20T07:34:02Z</time>
      </trkpt>
      <trkpt lat="50.33264" lon="4.28885">
        <ele>155.092377</ele>
        <time>2022-03-20T07:34:04Z</time>
      </trkpt>
      <trkpt lat="50.33258" lon="4.28879">
        <ele>154.971588</ele>
        <time>2022-03-20T07:34:06Z</time>
      </trkpt>
      <trkpt lat="50.33251" lon="4.28877">
        <ele>155.325287</ele>
        <time>2022-03-20T07:34:08Z</time>
      </trkpt>
      <trkpt lat="50.33247" lon="4.28876">
        <ele>155.351624</ele>
        <time>2022-03-20T07:34:10Z</time>
      </trkpt>
      <trkpt lat="50.33244" lon="4.28874">
        <ele>155.232925</ele>
        <time>2022-03-20T07:34:12Z</time>
      </trkpt>
      <trkpt lat="50.33239" lon="4.28873">
        <ele>155.062347</ele>
        <time>2022-03-20T07:34:14Z</time>
      </trkpt>
      <trkpt lat="50.33235" lon="4.28874">
        <ele>154.866608</ele>
        <time>2022-03-20T07:34:16Z</time>
      </trkpt>
      <trkpt lat="50.33232" lon="4.28878">
        <ele>154.43779</ele>
        <time>2022-03-20T07:34:18Z</time>
      </trkpt>
      <trkpt lat="50.33228" lon="4.28882">
        <ele>154.203888</ele>
        <time>2022-03-20T07:34:20Z</time>
      </trkpt>
      <trkpt lat="50.33225" lon="4.28886">
        <ele>154.034683</ele>
        <time>2022-03-20T07:34:22Z</time>
      </trkpt>
      <trkpt lat="50.33222" lon="4.28887">
        <ele>153.871796</ele>
        <time>2022-03-20T07:34:24Z</time>
      </trkpt>
      <trkpt lat="50.3322" lon="4.2889">
        <ele>153.651077</ele>
        <time>2022-03-20T07:34:26Z</time>
      </trkpt>
      <trkpt lat="50.33219" lon="4.28893">
        <ele>153.565933</ele>
        <time>2022-03-20T07:34:28Z</time>
      </trkpt>
      <trkpt lat="50.33217" lon="4.28896">
        <ele>153.446625</ele>
        <time>2022-03-20T07:34:30Z</time>
      </trkpt>
      <trkpt lat="50.33212" lon="4.28899">
        <ele>153.273788</ele>
        <time>2022-03-20T07:34:32Z</time>
      </trkpt>
      <trkpt lat="50.33208" lon="4.28904">
        <ele>153.178009</ele>
        <time>2022-03-20T07:34:34Z</time>
      </trkpt>
      <trkpt lat="50.33202" lon="4.2891">
        <ele>153.081146</ele>
        <time>2022-03-20T07:34:36Z</time>
      </trkpt>
      <trkpt lat="50.33195" lon="4.28919">
        <ele>152.96106</ele>
        <time>2022-03-20T07:34:38Z</time>
      </trkpt>
      <trkpt lat="50.33191" lon="4.2893">
        <ele>152.771591</ele>
        <time>2022-03-20T07:34:40Z</time>
      </trkpt>
      <trkpt lat="50.33189" lon="4.2894">
        <ele>152.612701</ele>
        <time>2022-03-20T07:34:42Z</time>
      </trkpt>
      <trkpt lat="50.33186" lon="4.28949">
        <ele>152.483505</ele>
        <time>2022-03-20T07:34:44Z</time>
      </trkpt>
      <trkpt lat="50.33182" lon="4.28961">
        <ele>152.296143</ele>
        <time>2022-03-20T07:34:46Z</time>
      </trkpt>
      <trkpt lat="50.3318" lon="4.28967">
        <ele>152.096283</ele>
        <time>2022-03-20T07:34:48Z</time>
      </trkpt>
      <trkpt lat="50.33175" lon="4.28976">
        <ele>151.913086</ele>
        <time>2022-03-20T07:34:50Z</time>
      </trkpt>
      <trkpt lat="50.33175" lon="4.2898">
        <ele>151.867279</ele>
        <time>2022-03-20T07:34:51Z</time>
      </trkpt>
      <trkpt lat="50.33173" lon="4.28988">
        <ele>151.702057</ele>
        <time>2022-03-20T07:34:53Z</time>
      </trkpt>
      <trkpt lat="50.33172" lon="4.28998">
        <ele>151.645828</ele>
        <time>2022-03-20T07:34:55Z</time>
      </trkpt>
      <trkpt lat="50.3317" lon="4.29004">
        <ele>151.48909</ele>
        <time>2022-03-20T07:34:57Z</time>
      </trkpt>
      <trkpt lat="50.33169" lon="4.29012">
        <ele>151.541092</ele>
        <time>2022-03-20T07:34:59Z</time>
      </trkpt>
      <trkpt lat="50.33168" lon="4.2902">
        <ele>151.406448</ele>
        <time>2022-03-20T07:35:01Z</time>
      </trkpt>
      <trkpt lat="50.33165" lon="4.29029">
        <ele>151.305984</ele>
        <time>2022-03-20T07:35:03Z</time>
      </trkpt>
      <trkpt lat="50.33162" lon="4.29038">
        <ele>151.103607</ele>
        <time>2022-03-20T07:35:05Z</time>
      </trkpt>
      <trkpt lat="50.33156" lon="4.29044">
        <ele>150.934982</ele>
        <time>2022-03-20T07:35:07Z</time>
      </trkpt>
      <trkpt lat="50.33152" lon="4.29052">
        <ele>150.774368</ele>
        <time>2022-03-20T07:35:09Z</time>
      </trkpt>
      <trkpt lat="50.33155" lon="4.29059">
        <ele>150.643478</ele>
        <time>2022-03-20T07:35:11Z</time>
      </trkpt>
      <trkpt lat="50.33159" lon="4.2906">
        <ele>150.542389</ele>
        <time>2022-03-20T07:35:13Z</time>
      </trkpt>
      <trkpt lat="50.3316" lon="4.29058">
        <ele>150.415405</ele>
        <time>2022-03-20T07:35:15Z</time>
      </trkpt>
      <trkpt lat="50.33164" lon="4.29055">
        <ele>150.304077</ele>
        <time>2022-03-20T07:35:17Z</time>
      </trkpt>
      <trkpt lat="50.33165" lon="4.29056">
        <ele>150.292999</ele>
        <time>2022-03-20T07:35:19Z</time>
      </trkpt>
      <trkpt lat="50.33167" lon="4.29064">
        <ele>150.388748</ele>
        <time>2022-03-20T07:35:21Z</time>
      </trkpt>
      <trkpt lat="50.33169" lon="4.29073">
        <ele>150.416794</ele>
        <time>2022-03-20T07:35:23Z</time>
      </trkpt>
      <trkpt lat="50.33172" lon="4.29079">
        <ele>150.383469</ele>
        <time>2022-03-20T07:35:25Z</time>
      </trkpt>
      <trkpt lat="50.33176" lon="4.2908">
        <ele>150.506302</ele>
        <time>2022-03-20T07:35:27Z</time>
      </trkpt>
      <trkpt lat="50.3318" lon="4.29079">
        <ele>150.445923</ele>
        <time>2022-03-20T07:35:29Z</time>
      </trkpt>
      <trkpt lat="50.33184" lon="4.29079">
        <ele>150.514618</ele>
        <time>2022-03-20T07:35:31Z</time>
      </trkpt>
      <trkpt lat="50.33188" lon="4.29078">
        <ele>150.562485</ele>
        <time>2022-03-20T07:35:33Z</time>
      </trkpt>
      <trkpt lat="50.33192" lon="4.29078">
        <ele>150.611908</ele>
        <time>2022-03-20T07:35:35Z</time>
      </trkpt>
      <trkpt lat="50.33196" lon="4.29079">
        <ele>150.714355</ele>
        <time>2022-03-20T07:35:37Z</time>
      </trkpt>
      <trkpt lat="50.33198" lon="4.29081">
        <ele>150.758072</ele>
        <time>2022-03-20T07:35:39Z</time>
      </trkpt>
      <trkpt lat="50.33204" lon="4.29086">
        <ele>150.930832</ele>
        <time>2022-03-20T07:35:41Z</time>
      </trkpt>
      <trkpt lat="50.33209" lon="4.29092">
        <ele>151.056686</ele>
        <time>2022-03-20T07:35:43Z</time>
      </trkpt>
      <trkpt lat="50.33214" lon="4.29098">
        <ele>151.207504</ele>
        <time>2022-03-20T07:35:45Z</time>
      </trkpt>
      <trkpt lat="50.33219" lon="4.29104">
        <ele>151.41983</ele>
        <time>2022-03-20T07:35:47Z</time>
      </trkpt>
      <trkpt lat="50.33225" lon="4.29111">
        <ele>151.647079</ele>
        <time>2022-03-20T07:35:49Z</time>
      </trkpt>
      <trkpt lat="50.33231" lon="4.29118">
        <ele>151.830231</ele>
        <time>2022-03-20T07:35:51Z</time>
      </trkpt>
      <trkpt lat="50.33236" lon="4.29125">
        <ele>152.034271</ele>
        <time>2022-03-20T07:35:53Z</time>
      </trkpt>
      <trkpt lat="50.3324" lon="4.29131">
        <ele>152.331116</ele>
        <time>2022-03-20T07:35:55Z</time>
      </trkpt>
      <trkpt lat="50.33243" lon="4.29137">
        <ele>152.568451</ele>
        <time>2022-03-20T07:35:57Z</time>
      </trkpt>
      <trkpt lat="50.33248" lon="4.29145">
        <ele>152.687134</ele>
        <time>2022-03-20T07:35:59Z</time>
      </trkpt>
      <trkpt lat="50.33252" lon="4.29152">
        <ele>152.947403</ele>
        <time>2022-03-20T07:36:01Z</time>
      </trkpt>
      <trkpt lat="50.33255" lon="4.29158">
        <ele>153.080658</ele>
        <time>2022-03-20T07:36:03Z</time>
      </trkpt>
      <trkpt lat="50.3326" lon="4.29164">
        <ele>153.331619</ele>
        <time>2022-03-20T07:36:05Z</time>
      </trkpt>
      <trkpt lat="50.33261" lon="4.29168">
        <ele>153.508606</ele>
        <time>2022-03-20T07:36:06Z</time>
      </trkpt>
      <trkpt lat="50.33266" lon="4.29175">
        <ele>153.723175</ele>
        <time>2022-03-20T07:36:08Z</time>
      </trkpt>
      <trkpt lat="50.33268" lon="4.2918">
        <ele>153.895996</ele>
        <time>2022-03-20T07:36:09Z</time>
      </trkpt>
      <trkpt lat="50.33272" lon="4.29188">
        <ele>154.197906</ele>
        <time>2022-03-20T07:36:11Z</time>
      </trkpt>
      <trkpt lat="50.33274" lon="4.29191">
        <ele>154.266617</ele>
        <time>2022-03-20T07:36:12Z</time>
      </trkpt>
      <trkpt lat="50.33278" lon="4.29198">
        <ele>154.368652</ele>
        <time>2022-03-20T07:36:14Z</time>
      </trkpt>
      <trkpt lat="50.33283" lon="4.29206">
        <ele>154.573029</ele>
        <time>2022-03-20T07:36:16Z</time>
      </trkpt>
      <trkpt lat="50.33287" lon="4.29214">
        <ele>154.8909</ele>
        <time>2022-03-20T07:36:18Z</time>
      </trkpt>
      <trkpt lat="50.33292" lon="4.29221">
        <ele>155.230484</ele>
        <time>2022-03-20T07:36:20Z</time>
      </trkpt>
      <trkpt lat="50.33297" lon="4.29229">
        <ele>155.536774</ele>
        <time>2022-03-20T07:36:22Z</time>
      </trkpt>
      <trkpt lat="50.333" lon="4.29234">
        <ele>155.785324</ele>
        <time>2022-03-20T07:36:24Z</time>
      </trkpt>
      <trkpt lat="50.33304" lon="4.29239">
        <ele>156.08313</ele>
        <time>2022-03-20T07:36:26Z</time>
      </trkpt>
      <trkpt lat="50.33308" lon="4.29245">
        <ele>156.32605</ele>
        <time>2022-03-20T07:36:28Z</time>
      </trkpt>
      <trkpt lat="50.33312" lon="4.29252">
        <ele>156.607224</ele>
        <time>2022-03-20T07:36:30Z</time>
      </trkpt>
      <trkpt lat="50.33319" lon="4.2926">
        <ele>156.24733</ele>
        <time>2022-03-20T07:36:32Z</time>
      </trkpt>
      <trkpt lat="50.33324" lon="4.29267">
        <ele>156.023224</ele>
        <time>2022-03-20T07:36:34Z</time>
      </trkpt>
      <trkpt lat="50.33328" lon="4.29273">
        <ele>156.149384</ele>
        <time>2022-03-20T07:36:36Z</time>
      </trkpt>
      <trkpt lat="50.33332" lon="4.2928">
        <ele>156.311844</ele>
        <time>2022-03-20T07:36:38Z</time>
      </trkpt>
      <trkpt lat="50.33334" lon="4.29288">
        <ele>156.632629</ele>
        <time>2022-03-20T07:36:40Z</time>
      </trkpt>
      <trkpt lat="50.33339" lon="4.29298">
        <ele>156.799271</ele>
        <time>2022-03-20T07:36:42Z</time>
      </trkpt>
      <trkpt lat="50.33342" lon="4.29306">
        <ele>157.030487</ele>
        <time>2022-03-20T07:36:44Z</time>
      </trkpt>
      <trkpt lat="50.33347" lon="4.29316">
        <ele>157.190887</ele>
        <time>2022-03-20T07:36:46Z</time>
      </trkpt>
      <trkpt lat="50.3335" lon="4.29325">
        <ele>157.232544</ele>
        <time>2022-03-20T07:36:48Z</time>
      </trkpt>
      <trkpt lat="50.33355" lon="4.29334">
        <ele>157.328278</ele>
        <time>2022-03-20T07:36:50Z</time>
      </trkpt>
      <trkpt lat="50.33359" lon="4.29342">
        <ele>157.511566</ele>
        <time>2022-03-20T07:36:52Z</time>
      </trkpt>
      <trkpt lat="50.33366" lon="4.29352">
        <ele>157.744858</ele>
        <time>2022-03-20T07:36:54Z</time>
      </trkpt>
      <trkpt lat="50.3337" lon="4.29361">
        <ele>158.001373</ele>
        <time>2022-03-20T07:36:56Z</time>
      </trkpt>
      <trkpt lat="50.33372" lon="4.29371">
        <ele>158.236786</ele>
        <time>2022-03-20T07:36:58Z</time>
      </trkpt>
      <trkpt lat="50.33373" lon="4.29381">
        <ele>158.409714</ele>
        <time>2022-03-20T07:37:00Z</time>
      </trkpt>
      <trkpt lat="50.33373" lon="4.29392">
        <ele>158.007965</ele>
        <time>2022-03-20T07:37:02Z</time>
      </trkpt>
      <trkpt lat="50.33373" lon="4.29401">
        <ele>158.171799</ele>
        <time>2022-03-20T07:37:04Z</time>
      </trkpt>
      <trkpt lat="50.33375" lon="4.29409">
        <ele>158.313477</ele>
        <time>2022-03-20T07:37:06Z</time>
      </trkpt>
      <trkpt lat="50.33378" lon="4.29414">
        <ele>158.492645</ele>
        <time>2022-03-20T07:37:08Z</time>
      </trkpt>
      <trkpt lat="50.33382" lon="4.29416">
        <ele>158.632965</ele>
        <time>2022-03-20T07:37:10Z</time>
      </trkpt>
      <trkpt lat="50.33385" lon="4.29418">
        <ele>159.303268</ele>
        <time>2022-03-20T07:37:12Z</time>
      </trkpt>
      <trkpt lat="50.33391" lon="4.29426">
        <ele>160.039429</ele>
        <time>2022-03-20T07:37:14Z</time>
      </trkpt>
      <trkpt lat="50.33394" lon="4.29434">
        <ele>160.257767</ele>
        <time>2022-03-20T07:37:16Z</time>
      </trkpt>
      <trkpt lat="50.33394" lon="4.2944">
        <ele>160.454514</ele>
        <time>2022-03-20T07:37:18Z</time>
      </trkpt>
      <trkpt lat="50.33394" lon="4.29448">
        <ele>160.585785</ele>
        <time>2022-03-20T07:37:20Z</time>
      </trkpt>
      <trkpt lat="50.33394" lon="4.29454">
        <ele>160.692062</ele>
        <time>2022-03-20T07:37:22Z</time>
      </trkpt>
      <trkpt lat="50.33395" lon="4.29462">
        <ele>160.789993</ele>
        <time>2022-03-20T07:37:24Z</time>
      </trkpt>
      <trkpt lat="50.33394" lon="4.2947">
        <ele>160.98172</ele>
        <time>2022-03-20T07:37:26Z</time>
      </trkpt>
      <trkpt lat="50.33393" lon="4.29479">
        <ele>161.158813</ele>
        <time>2022-03-20T07:37:28Z</time>
      </trkpt>
      <trkpt lat="50.33392" lon="4.29488">
        <ele>161.408371</ele>
        <time>2022-03-20T07:37:30Z</time>
      </trkpt>
      <trkpt lat="50.3339" lon="4.29496">
        <ele>161.479218</ele>
        <time>2022-03-20T07:37:32Z</time>
      </trkpt>
      <trkpt lat="50.3339" lon="4.29502">
        <ele>161.710541</ele>
        <time>2022-03-20T07:37:34Z</time>
      </trkpt>
      <trkpt lat="50.33389" lon="4.2951">
        <ele>161.835434</ele>
        <time>2022-03-20T07:37:36Z</time>
      </trkpt>
      <trkpt lat="50.3339" lon="4.29518">
        <ele>162.089691</ele>
        <time>2022-03-20T07:37:38Z</time>
      </trkpt>
      <trkpt lat="50.33392" lon="4.29527">
        <ele>162.294632</ele>
        <time>2022-03-20T07:37:40Z</time>
      </trkpt>
      <trkpt lat="50.33394" lon="4.29532">
        <ele>162.502853</ele>
        <time>2022-03-20T07:37:42Z</time>
      </trkpt>
      <trkpt lat="50.33398" lon="4.29536">
        <ele>163.301682</ele>
        <time>2022-03-20T07:37:44Z</time>
      </trkpt>
      <trkpt lat="50.33402" lon="4.29541">
        <ele>163.580963</ele>
        <time>2022-03-20T07:37:46Z</time>
      </trkpt>
      <trkpt lat="50.33406" lon="4.29546">
        <ele>163.874847</ele>
        <time>2022-03-20T07:37:48Z</time>
      </trkpt>
      <trkpt lat="50.33409" lon="4.2955">
        <ele>164.121017</ele>
        <time>2022-03-20T07:37:50Z</time>
      </trkpt>
      <trkpt lat="50.33412" lon="4.29552">
        <ele>164.435181</ele>
        <time>2022-03-20T07:37:52Z</time>
      </trkpt>
      <trkpt lat="50.33416" lon="4.29552">
        <ele>164.739532</ele>
        <time>2022-03-20T07:37:54Z</time>
      </trkpt>
      <trkpt lat="50.33419" lon="4.29556">
        <ele>164.971725</ele>
        <time>2022-03-20T07:37:56Z</time>
      </trkpt>
      <trkpt lat="50.3342" lon="4.29562">
        <ele>165.198898</ele>
        <time>2022-03-20T07:37:58Z</time>
      </trkpt>
      <trkpt lat="50.33423" lon="4.29569">
        <ele>165.284378</ele>
        <time>2022-03-20T07:38:00Z</time>
      </trkpt>
      <trkpt lat="50.33425" lon="4.29579">
        <ele>165.613739</ele>
        <time>2022-03-20T07:38:02Z</time>
      </trkpt>
      <trkpt lat="50.33428" lon="4.29587">
        <ele>165.753387</ele>
        <time>2022-03-20T07:38:04Z</time>
      </trkpt>
      <trkpt lat="50.33429" lon="4.29593">
        <ele>165.959641</ele>
        <time>2022-03-20T07:38:06Z</time>
      </trkpt>
      <trkpt lat="50.33429" lon="4.296">
        <ele>166.18396</ele>
        <time>2022-03-20T07:38:08Z</time>
      </trkpt>
      <trkpt lat="50.33428" lon="4.29606">
        <ele>166.423019</ele>
        <time>2022-03-20T07:38:10Z</time>
      </trkpt>
      <trkpt lat="50.33427" lon="4.29609">
        <ele>166.608566</ele>
        <time>2022-03-20T07:38:12Z</time>
      </trkpt>
      <trkpt lat="50.33429" lon="4.29613">
        <ele>166.908676</ele>
        <time>2022-03-20T07:38:14Z</time>
      </trkpt>
      <trkpt lat="50.33432" lon="4.29613">
        <ele>167.094208</ele>
        <time>2022-03-20T07:38:16Z</time>
      </trkpt>
      <trkpt lat="50.33434" lon="4.29611">
        <ele>167.139618</ele>
        <time>2022-03-20T07:38:17Z</time>
      </trkpt>
      <trkpt lat="50.33436" lon="4.29603">
        <ele>167.204239</ele>
        <time>2022-03-20T07:38:19Z</time>
      </trkpt>
      <trkpt lat="50.3344" lon="4.29594">
        <ele>167.226486</ele>
        <time>2022-03-20T07:38:21Z</time>
      </trkpt>
      <trkpt lat="50.33444" lon="4.29584">
        <ele>167.149551</ele>
        <time>2022-03-20T07:38:23Z</time>
      </trkpt>
      <trkpt lat="50.33447" lon="4.29572">
        <ele>167.129486</ele>
        <time>2022-03-20T07:38:25Z</time>
      </trkpt>
      <trkpt lat="50.3345" lon="4.2956">
        <ele>166.850235</ele>
        <time>2022-03-20T07:38:27Z</time>
      </trkpt>
      <trkpt lat="50.33453" lon="4.29548">
        <ele>166.665192</ele>
        <time>2022-03-20T07:38:29Z</time>
      </trkpt>
      <trkpt lat="50.33453" lon="4.29532">
        <ele>166.427338</ele>
        <time>2022-03-20T07:38:31Z</time>
      </trkpt>
      <trkpt lat="50.33455" lon="4.29519">
        <ele>166.282028</ele>
        <time>2022-03-20T07:38:33Z</time>
      </trkpt>
      <trkpt lat="50.3346" lon="4.29504">
        <ele>165.958939</ele>
        <time>2022-03-20T07:38:35Z</time>
      </trkpt>
      <trkpt lat="50.33466" lon="4.29487">
        <ele>166.08844</ele>
        <time>2022-03-20T07:38:37Z</time>
      </trkpt>
      <trkpt lat="50.33469" lon="4.29471">
        <ele>165.82753</ele>
        <time>2022-03-20T07:38:39Z</time>
      </trkpt>
      <trkpt lat="50.3347" lon="4.29457">
        <ele>165.013336</ele>
        <time>2022-03-20T07:38:41Z</time>
      </trkpt>
      <trkpt lat="50.33474" lon="4.29447">
        <ele>164.494431</ele>
        <time>2022-03-20T07:38:43Z</time>
      </trkpt>
      <trkpt lat="50.33473" lon="4.29431">
        <ele>164.210526</ele>
        <time>2022-03-20T07:38:45Z</time>
      </trkpt>
      <trkpt lat="50.33477" lon="4.29415">
        <ele>163.233917</ele>
        <time>2022-03-20T07:38:47Z</time>
      </trkpt>
      <trkpt lat="50.33482" lon="4.29397">
        <ele>162.830383</ele>
        <time>2022-03-20T07:38:49Z</time>
      </trkpt>
      <trkpt lat="50.33485" lon="4.29384">
        <ele>162.263275</ele>
        <time>2022-03-20T07:38:51Z</time>
      </trkpt>
      <trkpt lat="50.33491" lon="4.29368">
        <ele>161.742294</ele>
        <time>2022-03-20T07:38:53Z</time>
      </trkpt>
      <trkpt lat="50.33493" lon="4.29353">
        <ele>161.065155</ele>
        <time>2022-03-20T07:38:55Z</time>
      </trkpt>
      <trkpt lat="50.33494" lon="4.29341">
        <ele>160.358841</ele>
        <time>2022-03-20T07:38:57Z</time>
      </trkpt>
      <trkpt lat="50.33497" lon="4.29335">
        <ele>159.569275</ele>
        <time>2022-03-20T07:38:59Z</time>
      </trkpt>
      <trkpt lat="50.33503" lon="4.29334">
        <ele>158.860977</ele>
        <time>2022-03-20T07:39:01Z</time>
      </trkpt>
      <trkpt lat="50.33508" lon="4.29331">
        <ele>158.144424</ele>
        <time>2022-03-20T07:39:03Z</time>
      </trkpt>
      <trkpt lat="50.33513" lon="4.29326">
        <ele>157.763275</ele>
        <time>2022-03-20T07:39:05Z</time>
      </trkpt>
      <trkpt lat="50.33517" lon="4.2932">
        <ele>157.019318</ele>
        <time>2022-03-20T07:39:07Z</time>
      </trkpt>
      <trkpt lat="50.33521" lon="4.29315">
        <ele>156.4133</ele>
        <time>2022-03-20T07:39:09Z</time>
      </trkpt>
      <trkpt lat="50.33524" lon="4.29312">
        <ele>155.742523</ele>
        <time>2022-03-20T07:39:11Z</time>
      </trkpt>
      <trkpt lat="50.33526" lon="4.29309">
        <ele>155.051132</ele>
        <time>2022-03-20T07:39:13Z</time>
      </trkpt>
      <trkpt lat="50.3353" lon="4.29305">
        <ele>154.411835</ele>
        <time>2022-03-20T07:39:15Z</time>
      </trkpt>
      <trkpt lat="50.33532" lon="4.29301">
        <ele>153.332367</ele>
        <time>2022-03-20T07:39:17Z</time>
      </trkpt>
      <trkpt lat="50.33535" lon="4.29297">
        <ele>152.654236</ele>
        <time>2022-03-20T07:39:19Z</time>
      </trkpt>
      <trkpt lat="50.33538" lon="4.29293">
        <ele>151.969162</ele>
        <time>2022-03-20T07:39:21Z</time>
      </trkpt>
      <trkpt lat="50.3354" lon="4.2929">
        <ele>152.016693</ele>
        <time>2022-03-20T07:39:23Z</time>
      </trkpt>
      <trkpt lat="50.33542" lon="4.29287">
        <ele>151.411163</ele>
        <time>2022-03-20T07:39:25Z</time>
      </trkpt>
      <trkpt lat="50.33544" lon="4.29284">
        <ele>151.290176</ele>
        <time>2022-03-20T07:39:27Z</time>
      </trkpt>
      <trkpt lat="50.33546" lon="4.29281">
        <ele>150.817535</ele>
        <time>2022-03-20T07:39:29Z</time>
      </trkpt>
      <trkpt lat="50.33549" lon="4.29277">
        <ele>150.357376</ele>
        <time>2022-03-20T07:39:31Z</time>
      </trkpt>
      <trkpt lat="50.33551" lon="4.29274">
        <ele>149.888275</ele>
        <time>2022-03-20T07:39:33Z</time>
      </trkpt>
      <trkpt lat="50.33553" lon="4.29272">
        <ele>149.517502</ele>
        <time>2022-03-20T07:39:35Z</time>
      </trkpt>
      <trkpt lat="50.33555" lon="4.2927">
        <ele>149.303085</ele>
        <time>2022-03-20T07:39:37Z</time>
      </trkpt>
      <trkpt lat="50.33557" lon="4.29268">
        <ele>149.180893</ele>
        <time>2022-03-20T07:39:39Z</time>
      </trkpt>
      <trkpt lat="50.33564" lon="4.29258">
        <ele>148.682724</ele>
        <time>2022-03-20T07:39:57Z</time>
      </trkpt>
      <trkpt lat="50.33568" lon="4.29254">
        <ele>148.643723</ele>
        <time>2022-03-20T07:39:59Z</time>
      </trkpt>
      <trkpt lat="50.3358" lon="4.29238">
        <ele>148.792633</ele>
        <time>2022-03-20T07:40:01Z</time>
      </trkpt>
      <trkpt lat="50.33585" lon="4.29232">
        <ele>148.753082</ele>
        <time>2022-03-20T07:40:03Z</time>
      </trkpt>
      <trkpt lat="50.3359" lon="4.29226">
        <ele>148.807343</ele>
        <time>2022-03-20T07:40:05Z</time>
      </trkpt>
      <trkpt lat="50.33596" lon="4.29218">
        <ele>148.817749</ele>
        <time>2022-03-20T07:40:07Z</time>
      </trkpt>
      <trkpt lat="50.336" lon="4.29206">
        <ele>148.928238</ele>
        <time>2022-03-20T07:40:09Z</time>
      </trkpt>
      <trkpt lat="50.33607" lon="4.29196">
        <ele>148.952332</ele>
        <time>2022-03-20T07:40:11Z</time>
      </trkpt>
      <trkpt lat="50.33614" lon="4.29186">
        <ele>148.879486</ele>
        <time>2022-03-20T07:40:13Z</time>
      </trkpt>
      <trkpt lat="50.33619" lon="4.29176">
        <ele>148.887817</ele>
        <time>2022-03-20T07:40:15Z</time>
      </trkpt>
      <trkpt lat="50.33626" lon="4.2917">
        <ele>148.877609</ele>
        <time>2022-03-20T07:40:17Z</time>
      </trkpt>
      <trkpt lat="50.33631" lon="4.29165">
        <ele>148.951935</ele>
        <time>2022-03-20T07:40:19Z</time>
      </trkpt>
      <trkpt lat="50.33637" lon="4.29158">
        <ele>148.98732</ele>
        <time>2022-03-20T07:40:21Z</time>
      </trkpt>
      <trkpt lat="50.33641" lon="4.29152">
        <ele>148.914474</ele>
        <time>2022-03-20T07:40:23Z</time>
      </trkpt>
      <trkpt lat="50.33646" lon="4.29146">
        <ele>148.920731</ele>
        <time>2022-03-20T07:40:25Z</time>
      </trkpt>
      <trkpt lat="50.3365" lon="4.29139">
        <ele>148.904083</ele>
        <time>2022-03-20T07:40:27Z</time>
      </trkpt>
      <trkpt lat="50.33655" lon="4.29134">
        <ele>148.864532</ele>
        <time>2022-03-20T07:40:29Z</time>
      </trkpt>
      <trkpt lat="50.3366" lon="4.29127">
        <ele>148.864532</ele>
        <time>2022-03-20T07:40:31Z</time>
      </trkpt>
      <trkpt lat="50.33664" lon="4.29122">
        <ele>148.841644</ele>
        <time>2022-03-20T07:40:33Z</time>
      </trkpt>
      <trkpt lat="50.33668" lon="4.29119">
        <ele>148.881775</ele>
        <time>2022-03-20T07:40:35Z</time>
      </trkpt>
      <trkpt lat="50.33669" lon="4.29114">
        <ele>148.904678</ele>
        <time>2022-03-20T07:40:37Z</time>
      </trkpt>
      <trkpt lat="50.33669" lon="4.29106">
        <ele>148.737732</ele>
        <time>2022-03-20T07:40:39Z</time>
      </trkpt>
      <trkpt lat="50.33668" lon="4.29096">
        <ele>148.729904</ele>
        <time>2022-03-20T07:40:41Z</time>
      </trkpt>
      <trkpt lat="50.33669" lon="4.29087">
        <ele>148.67691</ele>
        <time>2022-03-20T07:40:43Z</time>
      </trkpt>
      <trkpt lat="50.33669" lon="4.29082">
        <ele>148.678986</ele>
        <time>2022-03-20T07:40:44Z</time>
      </trkpt>
      <trkpt lat="50.3367" lon="4.29075">
        <ele>148.600189</ele>
        <time>2022-03-20T07:40:46Z</time>
      </trkpt>
      <trkpt lat="50.33672" lon="4.29069">
        <ele>148.539825</ele>
        <time>2022-03-20T07:40:48Z</time>
      </trkpt>
      <trkpt lat="50.33674" lon="4.29061">
        <ele>147.131363</ele>
        <time>2022-03-20T07:41:04Z</time>
      </trkpt>
      <trkpt lat="50.33675" lon="4.29054">
        <ele>146.844208</ele>
        <time>2022-03-20T07:41:06Z</time>
      </trkpt>
      <trkpt lat="50.33675" lon="4.29051">
        <ele>146.613266</ele>
        <time>2022-03-20T07:41:08Z</time>
      </trkpt>
      <trkpt lat="50.33676" lon="4.29047">
        <ele>146.35321</ele>
        <time>2022-03-20T07:41:10Z</time>
      </trkpt>
      <trkpt lat="50.33676" lon="4.29044">
        <ele>146.064026</ele>
        <time>2022-03-20T07:41:12Z</time>
      </trkpt>
      <trkpt lat="50.33677" lon="4.29039">
        <ele>145.045929</ele>
        <time>2022-03-20T07:41:18Z</time>
      </trkpt>
      <trkpt lat="50.33677" lon="4.29037">
        <ele>144.735535</ele>
        <time>2022-03-20T07:41:20Z</time>
      </trkpt>
      <trkpt lat="50.33676" lon="4.29034">
        <ele>144.299133</ele>
        <time>2022-03-20T07:41:22Z</time>
      </trkpt>
      <trkpt lat="50.33677" lon="4.29029">
        <ele>143.345001</ele>
        <time>2022-03-20T07:41:26Z</time>
      </trkpt>
      <trkpt lat="50.33677" lon="4.29027">
        <ele>142.887421</ele>
        <time>2022-03-20T07:41:28Z</time>
      </trkpt>
      <trkpt lat="50.33676" lon="4.29026">
        <ele>142.409439</ele>
        <time>2022-03-20T07:41:30Z</time>
      </trkpt>
      <trkpt lat="50.33675" lon="4.29024">
        <ele>141.96022</ele>
        <time>2022-03-20T07:41:32Z</time>
      </trkpt>
      <trkpt lat="50.33674" lon="4.29022">
        <ele>141.558807</ele>
        <time>2022-03-20T07:41:34Z</time>
      </trkpt>
      <trkpt lat="50.33673" lon="4.29022">
        <ele>141.162003</ele>
        <time>2022-03-20T07:41:36Z</time>
      </trkpt>
      <trkpt lat="50.3367" lon="4.29021">
        <ele>140.461212</ele>
        <time>2022-03-20T07:41:40Z</time>
      </trkpt>
      <trkpt lat="50.33666" lon="4.2902">
        <ele>140.034576</ele>
        <time>2022-03-20T07:41:42Z</time>
      </trkpt>
      <trkpt lat="50.33661" lon="4.29018">
        <ele>139.516861</ele>
        <time>2022-03-20T07:41:44Z</time>
      </trkpt>
      <trkpt lat="50.33658" lon="4.29014">
        <ele>139.015778</ele>
        <time>2022-03-20T07:41:46Z</time>
      </trkpt>
      <trkpt lat="50.33656" lon="4.2901">
        <ele>138.47731</ele>
        <time>2022-03-20T07:41:48Z</time>
      </trkpt>
      <trkpt lat="50.33654" lon="4.29005">
        <ele>137.893158</ele>
        <time>2022-03-20T07:41:50Z</time>
      </trkpt>
      <trkpt lat="50.33651" lon="4.29003">
        <ele>137.296539</ele>
        <time>2022-03-20T07:41:52Z</time>
      </trkpt>
      <trkpt lat="50.33651" lon="4.29">
        <ele>136.688568</ele>
        <time>2022-03-20T07:41:54Z</time>
      </trkpt>
      <trkpt lat="50.3365" lon="4.28997">
        <ele>136.037766</ele>
        <time>2022-03-20T07:41:56Z</time>
      </trkpt>
      <trkpt lat="50.33653" lon="4.28996">
        <ele>135.355194</ele>
        <time>2022-03-20T07:41:58Z</time>
      </trkpt>
      <trkpt lat="50.33654" lon="4.28996">
        <ele>134.19342</ele>
        <time>2022-03-20T07:42:02Z</time>
      </trkpt>
      <trkpt lat="50.33656" lon="4.28998">
        <ele>133.649017</ele>
        <time>2022-03-20T07:42:04Z</time>
      </trkpt>
      <trkpt lat="50.33657" lon="4.28998">
        <ele>133.104019</ele>
        <time>2022-03-20T07:42:06Z</time>
      </trkpt>
      <trkpt lat="50.33658" lon="4.28997">
        <ele>132.8526</ele>
        <time>2022-03-20T07:42:08Z</time>
      </trkpt>
      <trkpt lat="50.33661" lon="4.28998">
        <ele>131.837692</ele>
        <time>2022-03-20T07:42:12Z</time>
      </trkpt>
      <trkpt lat="50.33663" lon="4.28998">
        <ele>129.973114</ele>
        <time>2022-03-20T07:42:19Z</time>
      </trkpt>
      <trkpt lat="50.33666" lon="4.28998">
        <ele>129.511902</ele>
        <time>2022-03-20T07:42:21Z</time>
      </trkpt>
      <trkpt lat="50.33667" lon="4.28999">
        <ele>129.024017</ele>
        <time>2022-03-20T07:42:23Z</time>
      </trkpt>
      <trkpt lat="50.33668" lon="4.28999">
        <ele>128.845367</ele>
        <time>2022-03-20T07:42:24Z</time>
      </trkpt>
      <trkpt lat="50.33671" lon="4.29003">
        <ele>127.185806</ele>
        <time>2022-03-20T07:42:36Z</time>
      </trkpt>
      <trkpt lat="50.33674" lon="4.29003">
        <ele>126.72052</ele>
        <time>2022-03-20T07:42:44Z</time>
      </trkpt>
      <trkpt lat="50.33677" lon="4.29003">
        <ele>126.596298</ele>
        <time>2022-03-20T07:42:48Z</time>
      </trkpt>
      <trkpt lat="50.33679" lon="4.29003">
        <ele>126.584473</ele>
        <time>2022-03-20T07:42:50Z</time>
      </trkpt>
      <trkpt lat="50.33682" lon="4.29004">
        <ele>126.569641</ele>
        <time>2022-03-20T07:42:52Z</time>
      </trkpt>
      <trkpt lat="50.33684" lon="4.29006">
        <ele>126.628075</ele>
        <time>2022-03-20T07:42:54Z</time>
      </trkpt>
      <trkpt lat="50.33686" lon="4.29008">
        <ele>126.644653</ele>
        <time>2022-03-20T07:42:56Z</time>
      </trkpt>
      <trkpt lat="50.33688" lon="4.2901">
        <ele>126.743065</ele>
        <time>2022-03-20T07:42:58Z</time>
      </trkpt>
      <trkpt lat="50.33691" lon="4.29011">
        <ele>126.863525</ele>
        <time>2022-03-20T07:43:00Z</time>
      </trkpt>
      <trkpt lat="50.33693" lon="4.29012">
        <ele>127.054604</ele>
        <time>2022-03-20T07:43:02Z</time>
      </trkpt>
      <trkpt lat="50.33696" lon="4.29012">
        <ele>127.166763</ele>
        <time>2022-03-20T07:43:04Z</time>
      </trkpt>
      <trkpt lat="50.33699" lon="4.29013">
        <ele>127.696777</ele>
        <time>2022-03-20T07:43:10Z</time>
      </trkpt>
      <trkpt lat="50.33703" lon="4.29014">
        <ele>127.915482</ele>
        <time>2022-03-20T07:43:12Z</time>
      </trkpt>
      <trkpt lat="50.33705" lon="4.29015">
        <ele>128.142853</ele>
        <time>2022-03-20T07:43:14Z</time>
      </trkpt>
      <trkpt lat="50.33707" lon="4.29015">
        <ele>128.427322</ele>
        <time>2022-03-20T07:43:17Z</time>
      </trkpt>
      <trkpt lat="50.33708" lon="4.29015">
        <ele>128.716934</ele>
        <time>2022-03-20T07:43:19Z</time>
      </trkpt>
      <trkpt lat="50.33715" lon="4.29018">
        <ele>129.052231</ele>
        <time>2022-03-20T07:43:21Z</time>
      </trkpt>
      <trkpt lat="50.33717" lon="4.29018">
        <ele>129.424088</ele>
        <time>2022-03-20T07:43:23Z</time>
      </trkpt>
      <trkpt lat="50.33719" lon="4.29018">
        <ele>129.814667</ele>
        <time>2022-03-20T07:43:25Z</time>
      </trkpt>
      <trkpt lat="50.33722" lon="4.29019">
        <ele>130.152267</ele>
        <time>2022-03-20T07:43:27Z</time>
      </trkpt>
      <trkpt lat="50.33723" lon="4.29019">
        <ele>130.501312</ele>
        <time>2022-03-20T07:43:29Z</time>
      </trkpt>
      <trkpt lat="50.33728" lon="4.2902">
        <ele>131.242798</ele>
        <time>2022-03-20T07:43:33Z</time>
      </trkpt>
      <trkpt lat="50.33731" lon="4.29021">
        <ele>131.654205</ele>
        <time>2022-03-20T07:43:35Z</time>
      </trkpt>
      <trkpt lat="50.33733" lon="4.29021">
        <ele>132.109283</ele>
        <time>2022-03-20T07:43:37Z</time>
      </trkpt>
      <trkpt lat="50.33735" lon="4.29022">
        <ele>132.568146</ele>
        <time>2022-03-20T07:43:39Z</time>
      </trkpt>
      <trkpt lat="50.33738" lon="4.29022">
        <ele>132.952423</ele>
        <time>2022-03-20T07:43:41Z</time>
      </trkpt>
      <trkpt lat="50.3374" lon="4.29022">
        <ele>133.374283</ele>
        <time>2022-03-20T07:43:43Z</time>
      </trkpt>
      <trkpt lat="50.33742" lon="4.29023">
        <ele>133.833542</ele>
        <time>2022-03-20T07:43:45Z</time>
      </trkpt>
      <trkpt lat="50.33744" lon="4.29024">
        <ele>134.278259</ele>
        <time>2022-03-20T07:43:47Z</time>
      </trkpt>
      <trkpt lat="50.33746" lon="4.29025">
        <ele>135.153275</ele>
        <time>2022-03-20T07:43:51Z</time>
      </trkpt>
      <trkpt lat="50.33749" lon="4.29027">
        <ele>135.845871</ele>
        <time>2022-03-20T07:43:55Z</time>
      </trkpt>
      <trkpt lat="50.33753" lon="4.29032">
        <ele>136.238724</ele>
        <time>2022-03-20T07:43:57Z</time>
      </trkpt>
      <trkpt lat="50.33751" lon="4.29033">
        <ele>136.912689</ele>
        <time>2022-03-20T07:43:59Z</time>
      </trkpt>
      <trkpt lat="50.33749" lon="4.29034">
        <ele>137.305588</ele>
        <time>2022-03-20T07:44:01Z</time>
      </trkpt>
      <trkpt lat="50.33748" lon="4.29034">
        <ele>137.305588</ele>
        <time>2022-03-20T07:44:02Z</time>
      </trkpt>
      <trkpt lat="50.33745" lon="4.29034">
        <ele>137.654465</ele>
        <time>2022-03-20T07:44:04Z</time>
      </trkpt>
      <trkpt lat="50.33741" lon="4.29035">
        <ele>137.851974</ele>
        <time>2022-03-20T07:44:06Z</time>
      </trkpt>
      <trkpt lat="50.3374" lon="4.29037">
        <ele>138.213257</ele>
        <time>2022-03-20T07:44:08Z</time>
      </trkpt>
      <trkpt lat="50.33737" lon="4.29039">
        <ele>138.581253</ele>
        <time>2022-03-20T07:44:10Z</time>
      </trkpt>
      <trkpt lat="50.33735" lon="4.29043">
        <ele>138.976273</ele>
        <time>2022-03-20T07:44:12Z</time>
      </trkpt>
      <trkpt lat="50.33732" lon="4.29046">
        <ele>139.397995</ele>
        <time>2022-03-20T07:44:14Z</time>
      </trkpt>
      <trkpt lat="50.33729" lon="4.29048">
        <ele>139.775146</ele>
        <time>2022-03-20T07:44:16Z</time>
      </trkpt>
      <trkpt lat="50.33726" lon="4.29049">
        <ele>140.075653</ele>
        <time>2022-03-20T07:44:18Z</time>
      </trkpt>
      <trkpt lat="50.33723" lon="4.29052">
        <ele>140.44165</ele>
        <time>2022-03-20T07:44:20Z</time>
      </trkpt>
      <trkpt lat="50.3372" lon="4.29055">
        <ele>140.811981</ele>
        <time>2022-03-20T07:44:22Z</time>
      </trkpt>
      <trkpt lat="50.33717" lon="4.29058">
        <ele>141.127365</ele>
        <time>2022-03-20T07:44:24Z</time>
      </trkpt>
      <trkpt lat="50.33713" lon="4.2906">
        <ele>141.488037</ele>
        <time>2022-03-20T07:44:26Z</time>
      </trkpt>
      <trkpt lat="50.33709" lon="4.29063">
        <ele>141.860321</ele>
        <time>2022-03-20T07:44:28Z</time>
      </trkpt>
      <trkpt lat="50.33706" lon="4.29067">
        <ele>142.220139</ele>
        <time>2022-03-20T07:44:30Z</time>
      </trkpt>
      <trkpt lat="50.33702" lon="4.29071">
        <ele>142.600784</ele>
        <time>2022-03-20T07:44:32Z</time>
      </trkpt>
      <trkpt lat="50.33699" lon="4.29074">
        <ele>142.900299</ele>
        <time>2022-03-20T07:44:34Z</time>
      </trkpt>
      <trkpt lat="50.33697" lon="4.29078">
        <ele>143.301773</ele>
        <time>2022-03-20T07:44:36Z</time>
      </trkpt>
      <trkpt lat="50.33695" lon="4.29083">
        <ele>143.703217</ele>
        <time>2022-03-20T07:44:38Z</time>
      </trkpt>
      <trkpt lat="50.33692" lon="4.29088">
        <ele>144.048553</ele>
        <time>2022-03-20T07:44:40Z</time>
      </trkpt>
      <trkpt lat="50.3369" lon="4.29091">
        <ele>144.400116</ele>
        <time>2022-03-20T07:44:42Z</time>
      </trkpt>
      <trkpt lat="50.33688" lon="4.29095">
        <ele>144.801971</ele>
        <time>2022-03-20T07:44:44Z</time>
      </trkpt>
      <trkpt lat="50.33686" lon="4.29099">
        <ele>145.0121</ele>
        <time>2022-03-20T07:44:46Z</time>
      </trkpt>
      <trkpt lat="50.33684" lon="4.29103">
        <ele>145.410965</ele>
        <time>2022-03-20T07:44:48Z</time>
      </trkpt>
      <trkpt lat="50.33682" lon="4.29109">
        <ele>145.77713</ele>
        <time>2022-03-20T07:44:50Z</time>
      </trkpt>
      <trkpt lat="50.3368" lon="4.29114">
        <ele>146.166183</ele>
        <time>2022-03-20T07:44:52Z</time>
      </trkpt>
      <trkpt lat="50.33678" lon="4.29118">
        <ele>146.561554</ele>
        <time>2022-03-20T07:44:54Z</time>
      </trkpt>
      <trkpt lat="50.33676" lon="4.29123">
        <ele>146.916656</ele>
        <time>2022-03-20T07:44:56Z</time>
      </trkpt>
      <trkpt lat="50.33675" lon="4.2913">
        <ele>147.337006</ele>
        <time>2022-03-20T07:44:58Z</time>
      </trkpt>
      <trkpt lat="50.33674" lon="4.29135">
        <ele>147.755341</ele>
        <time>2022-03-20T07:45:00Z</time>
      </trkpt>
      <trkpt lat="50.33674" lon="4.2914">
        <ele>148.192001</ele>
        <time>2022-03-20T07:45:02Z</time>
      </trkpt>
      <trkpt lat="50.33672" lon="4.29144">
        <ele>148.638077</ele>
        <time>2022-03-20T07:45:04Z</time>
      </trkpt>
      <trkpt lat="50.3367" lon="4.29148">
        <ele>149.035568</ele>
        <time>2022-03-20T07:45:06Z</time>
      </trkpt>
      <trkpt lat="50.33668" lon="4.29153">
        <ele>149.455093</ele>
        <time>2022-03-20T07:45:08Z</time>
      </trkpt>
      <trkpt lat="50.33666" lon="4.29158">
        <ele>149.863037</ele>
        <time>2022-03-20T07:45:10Z</time>
      </trkpt>
      <trkpt lat="50.33663" lon="4.29163">
        <ele>150.246017</ele>
        <time>2022-03-20T07:45:12Z</time>
      </trkpt>
      <trkpt lat="50.33661" lon="4.29169">
        <ele>150.572815</ele>
        <time>2022-03-20T07:45:14Z</time>
      </trkpt>
      <trkpt lat="50.33659" lon="4.29177">
        <ele>151.072388</ele>
        <time>2022-03-20T07:45:16Z</time>
      </trkpt>
      <trkpt lat="50.33656" lon="4.29183">
        <ele>151.293076</ele>
        <time>2022-03-20T07:45:18Z</time>
      </trkpt>
      <trkpt lat="50.33654" lon="4.2919">
        <ele>151.691559</ele>
        <time>2022-03-20T07:45:20Z</time>
      </trkpt>
      <trkpt lat="50.33652" lon="4.29196">
        <ele>152.086563</ele>
        <time>2022-03-20T07:45:22Z</time>
      </trkpt>
      <trkpt lat="50.33649" lon="4.29202">
        <ele>152.515533</ele>
        <time>2022-03-20T07:45:24Z</time>
      </trkpt>
      <trkpt lat="50.33647" lon="4.29209">
        <ele>152.865692</ele>
        <time>2022-03-20T07:45:26Z</time>
      </trkpt>
      <trkpt lat="50.33646" lon="4.29215">
        <ele>153.218811</ele>
        <time>2022-03-20T07:45:28Z</time>
      </trkpt>
      <trkpt lat="50.33645" lon="4.29222">
        <ele>153.649796</ele>
        <time>2022-03-20T07:45:30Z</time>
      </trkpt>
      <trkpt lat="50.33645" lon="4.29229">
        <ele>154.016083</ele>
        <time>2022-03-20T07:45:32Z</time>
      </trkpt>
      <trkpt lat="50.33645" lon="4.29232">
        <ele>154.255539</ele>
        <time>2022-03-20T07:45:33Z</time>
      </trkpt>
      <trkpt lat="50.33646" lon="4.29238">
        <ele>154.537079</ele>
        <time>2022-03-20T07:45:35Z</time>
      </trkpt>
      <trkpt lat="50.33647" lon="4.29245">
        <ele>154.920944</ele>
        <time>2022-03-20T07:45:37Z</time>
      </trkpt>
      <trkpt lat="50.33648" lon="4.29251">
        <ele>155.28537</ele>
        <time>2022-03-20T07:45:39Z</time>
      </trkpt>
      <trkpt lat="50.33649" lon="4.29257">
        <ele>155.500793</ele>
        <time>2022-03-20T07:45:41Z</time>
      </trkpt>
      <trkpt lat="50.33651" lon="4.29263">
        <ele>155.276245</ele>
        <time>2022-03-20T07:45:43Z</time>
      </trkpt>
      <trkpt lat="50.33653" lon="4.29269">
        <ele>155.108276</ele>
        <time>2022-03-20T07:45:45Z</time>
      </trkpt>
      <trkpt lat="50.33656" lon="4.29273">
        <ele>155.468567</ele>
        <time>2022-03-20T07:45:47Z</time>
      </trkpt>
      <trkpt lat="50.33658" lon="4.29277">
        <ele>155.822647</ele>
        <time>2022-03-20T07:45:49Z</time>
      </trkpt>
      <trkpt lat="50.33661" lon="4.2928">
        <ele>156.22467</ele>
        <time>2022-03-20T07:45:51Z</time>
      </trkpt>
      <trkpt lat="50.33664" lon="4.29284">
        <ele>156.599594</ele>
        <time>2022-03-20T07:45:53Z</time>
      </trkpt>
      <trkpt lat="50.33667" lon="4.29289">
        <ele>157.026642</ele>
        <time>2022-03-20T07:45:55Z</time>
      </trkpt>
      <trkpt lat="50.33666" lon="4.29293">
        <ele>157.414078</ele>
        <time>2022-03-20T07:45:57Z</time>
      </trkpt>
      <trkpt lat="50.33665" lon="4.293">
        <ele>157.695328</ele>
        <time>2022-03-20T07:45:59Z</time>
      </trkpt>
      <trkpt lat="50.33662" lon="4.29305">
        <ele>158.056931</ele>
        <time>2022-03-20T07:46:01Z</time>
      </trkpt>
      <trkpt lat="50.33662" lon="4.29308">
        <ele>158.257462</ele>
        <time>2022-03-20T07:46:02Z</time>
      </trkpt>
      <trkpt lat="50.33659" lon="4.29312">
        <ele>158.603638</ele>
        <time>2022-03-20T07:46:04Z</time>
      </trkpt>
      <trkpt lat="50.33657" lon="4.29319">
        <ele>158.776566</ele>
        <time>2022-03-20T07:46:06Z</time>
      </trkpt>
      <trkpt lat="50.33654" lon="4.29326">
        <ele>159.172653</ele>
        <time>2022-03-20T07:46:08Z</time>
      </trkpt>
      <trkpt lat="50.33652" lon="4.29333">
        <ele>159.577667</ele>
        <time>2022-03-20T07:46:10Z</time>
      </trkpt>
      <trkpt lat="50.33651" lon="4.29342">
        <ele>159.939636</ele>
        <time>2022-03-20T07:46:12Z</time>
      </trkpt>
      <trkpt lat="50.33649" lon="4.2935">
        <ele>160.295746</ele>
        <time>2022-03-20T07:46:14Z</time>
      </trkpt>
      <trkpt lat="50.33646" lon="4.29359">
        <ele>160.661926</ele>
        <time>2022-03-20T07:46:16Z</time>
      </trkpt>
      <trkpt lat="50.33643" lon="4.29369">
        <ele>161.054962</ele>
        <time>2022-03-20T07:46:18Z</time>
      </trkpt>
      <trkpt lat="50.33641" lon="4.29377">
        <ele>161.432144</ele>
        <time>2022-03-20T07:46:20Z</time>
      </trkpt>
      <trkpt lat="50.33638" lon="4.29384">
        <ele>161.810638</ele>
        <time>2022-03-20T07:46:22Z</time>
      </trkpt>
      <trkpt lat="50.33636" lon="4.29391">
        <ele>162.701874</ele>
        <time>2022-03-20T07:46:24Z</time>
      </trkpt>
      <trkpt lat="50.33633" lon="4.29399">
        <ele>163.643188</ele>
        <time>2022-03-20T07:46:26Z</time>
      </trkpt>
      <trkpt lat="50.33632" lon="4.29406">
        <ele>164.043335</ele>
        <time>2022-03-20T07:46:28Z</time>
      </trkpt>
      <trkpt lat="50.33629" lon="4.29414">
        <ele>164.443542</ele>
        <time>2022-03-20T07:46:30Z</time>
      </trkpt>
      <trkpt lat="50.33626" lon="4.29421">
        <ele>164.736343</ele>
        <time>2022-03-20T07:46:32Z</time>
      </trkpt>
      <trkpt lat="50.33624" lon="4.29429">
        <ele>165.04274</ele>
        <time>2022-03-20T07:46:34Z</time>
      </trkpt>
      <trkpt lat="50.33621" lon="4.29435">
        <ele>165.182404</ele>
        <time>2022-03-20T07:46:36Z</time>
      </trkpt>
      <trkpt lat="50.33619" lon="4.29445">
        <ele>165.488831</ele>
        <time>2022-03-20T07:46:38Z</time>
      </trkpt>
      <trkpt lat="50.33616" lon="4.29455">
        <ele>165.813995</ele>
        <time>2022-03-20T07:46:40Z</time>
      </trkpt>
      <trkpt lat="50.33614" lon="4.29465">
        <ele>166.112091</ele>
        <time>2022-03-20T07:46:42Z</time>
      </trkpt>
      <trkpt lat="50.33612" lon="4.29474">
        <ele>166.435211</ele>
        <time>2022-03-20T07:46:44Z</time>
      </trkpt>
      <trkpt lat="50.33611" lon="4.29483">
        <ele>166.684631</ele>
        <time>2022-03-20T07:46:46Z</time>
      </trkpt>
      <trkpt lat="50.33609" lon="4.29491">
        <ele>166.977066</ele>
        <time>2022-03-20T07:46:48Z</time>
      </trkpt>
      <trkpt lat="50.33608" lon="4.29498">
        <ele>167.214706</ele>
        <time>2022-03-20T07:46:50Z</time>
      </trkpt>
      <trkpt lat="50.33608" lon="4.29505">
        <ele>167.469086</ele>
        <time>2022-03-20T07:46:52Z</time>
      </trkpt>
      <trkpt lat="50.33609" lon="4.29513">
        <ele>167.709778</ele>
        <time>2022-03-20T07:46:54Z</time>
      </trkpt>
      <trkpt lat="50.33611" lon="4.29521">
        <ele>167.95462</ele>
        <time>2022-03-20T07:46:56Z</time>
      </trkpt>
      <trkpt lat="50.33613" lon="4.29533">
        <ele>168.233994</ele>
        <time>2022-03-20T07:46:58Z</time>
      </trkpt>
      <trkpt lat="50.33614" lon="4.29546">
        <ele>168.402893</ele>
        <time>2022-03-20T07:47:00Z</time>
      </trkpt>
      <trkpt lat="50.33618" lon="4.29557">
        <ele>168.600433</ele>
        <time>2022-03-20T07:47:02Z</time>
      </trkpt>
      <trkpt lat="50.33623" lon="4.29567">
        <ele>168.838959</ele>
        <time>2022-03-20T07:47:04Z</time>
      </trkpt>
      <trkpt lat="50.33627" lon="4.29577">
        <ele>169.001617</ele>
        <time>2022-03-20T07:47:06Z</time>
      </trkpt>
      <trkpt lat="50.3363" lon="4.29588">
        <ele>169.274796</ele>
        <time>2022-03-20T07:47:08Z</time>
      </trkpt>
      <trkpt lat="50.33632" lon="4.29601">
        <ele>169.397522</ele>
        <time>2022-03-20T07:47:10Z</time>
      </trkpt>
      <trkpt lat="50.33635" lon="4.29612">
        <ele>169.561264</ele>
        <time>2022-03-20T07:47:12Z</time>
      </trkpt>
      <trkpt lat="50.33638" lon="4.29623">
        <ele>169.721863</ele>
        <time>2022-03-20T07:47:14Z</time>
      </trkpt>
      <trkpt lat="50.33642" lon="4.29635">
        <ele>169.916367</ele>
        <time>2022-03-20T07:47:16Z</time>
      </trkpt>
      <trkpt lat="50.33645" lon="4.29646">
        <ele>170.111725</ele>
        <time>2022-03-20T07:47:18Z</time>
      </trkpt>
      <trkpt lat="50.33649" lon="4.29657">
        <ele>170.259796</ele>
        <time>2022-03-20T07:47:20Z</time>
      </trkpt>
      <trkpt lat="50.33653" lon="4.29668">
        <ele>170.364075</ele>
        <time>2022-03-20T07:47:22Z</time>
      </trkpt>
      <trkpt lat="50.33658" lon="4.29678">
        <ele>170.560089</ele>
        <time>2022-03-20T07:47:24Z</time>
      </trkpt>
      <trkpt lat="50.33664" lon="4.29688">
        <ele>170.740204</ele>
        <time>2022-03-20T07:47:26Z</time>
      </trkpt>
      <trkpt lat="50.3367" lon="4.29697">
        <ele>170.915375</ele>
        <time>2022-03-20T07:47:28Z</time>
      </trkpt>
      <trkpt lat="50.33677" lon="4.29706">
        <ele>171.095612</ele>
        <time>2022-03-20T07:47:30Z</time>
      </trkpt>
      <trkpt lat="50.33683" lon="4.29715">
        <ele>171.302109</ele>
        <time>2022-03-20T07:47:32Z</time>
      </trkpt>
      <trkpt lat="50.3369" lon="4.29724">
        <ele>171.56073</ele>
        <time>2022-03-20T07:47:34Z</time>
      </trkpt>
      <trkpt lat="50.33696" lon="4.29733">
        <ele>171.635803</ele>
        <time>2022-03-20T07:47:36Z</time>
      </trkpt>
      <trkpt lat="50.33703" lon="4.29741">
        <ele>171.781799</ele>
        <time>2022-03-20T07:47:38Z</time>
      </trkpt>
      <trkpt lat="50.3371" lon="4.2975">
        <ele>171.906952</ele>
        <time>2022-03-20T07:47:40Z</time>
      </trkpt>
      <trkpt lat="50.33716" lon="4.29758">
        <ele>172.036407</ele>
        <time>2022-03-20T07:47:42Z</time>
      </trkpt>
      <trkpt lat="50.33723" lon="4.29766">
        <ele>172.193451</ele>
        <time>2022-03-20T07:47:44Z</time>
      </trkpt>
      <trkpt lat="50.3373" lon="4.29774">
        <ele>172.306412</ele>
        <time>2022-03-20T07:47:46Z</time>
      </trkpt>
      <trkpt lat="50.33737" lon="4.29782">
        <ele>172.46286</ele>
        <time>2022-03-20T07:47:48Z</time>
      </trkpt>
      <trkpt lat="50.33744" lon="4.29791">
        <ele>172.556992</ele>
        <time>2022-03-20T07:47:50Z</time>
      </trkpt>
      <trkpt lat="50.33749" lon="4.29802">
        <ele>172.663391</ele>
        <time>2022-03-20T07:47:52Z</time>
      </trkpt>
      <trkpt lat="50.33753" lon="4.29814">
        <ele>172.835587</ele>
        <time>2022-03-20T07:47:54Z</time>
      </trkpt>
      <trkpt lat="50.33757" lon="4.29827">
        <ele>172.887146</ele>
        <time>2022-03-20T07:47:56Z</time>
      </trkpt>
      <trkpt lat="50.33761" lon="4.29841">
        <ele>173.006653</ele>
        <time>2022-03-20T07:47:58Z</time>
      </trkpt>
      <trkpt lat="50.33763" lon="4.29853">
        <ele>173.110718</ele>
        <time>2022-03-20T07:48:00Z</time>
      </trkpt>
      <trkpt lat="50.33766" lon="4.29866">
        <ele>173.233246</ele>
        <time>2022-03-20T07:48:02Z</time>
      </trkpt>
      <trkpt lat="50.33769" lon="4.29878">
        <ele>173.333374</ele>
        <time>2022-03-20T07:48:04Z</time>
      </trkpt>
      <trkpt lat="50.33772" lon="4.2989">
        <ele>173.483063</ele>
        <time>2022-03-20T07:48:06Z</time>
      </trkpt>
      <trkpt lat="50.33774" lon="4.29902">
        <ele>173.556091</ele>
        <time>2022-03-20T07:48:08Z</time>
      </trkpt>
      <trkpt lat="50.33775" lon="4.29911">
        <ele>173.748001</ele>
        <time>2022-03-20T07:48:10Z</time>
      </trkpt>
      <trkpt lat="50.3378" lon="4.29917">
        <ele>173.910736</ele>
        <time>2022-03-20T07:48:12Z</time>
      </trkpt>
      <trkpt lat="50.33788" lon="4.29919">
        <ele>173.990021</ele>
        <time>2022-03-20T07:48:14Z</time>
      </trkpt>
      <trkpt lat="50.33797" lon="4.29919">
        <ele>174.148575</ele>
        <time>2022-03-20T07:48:16Z</time>
      </trkpt>
      <trkpt lat="50.33806" lon="4.2992">
        <ele>174.269577</ele>
        <time>2022-03-20T07:48:18Z</time>
      </trkpt>
      <trkpt lat="50.33814" lon="4.29919">
        <ele>174.457672</ele>
        <time>2022-03-20T07:48:20Z</time>
      </trkpt>
      <trkpt lat="50.33822" lon="4.29918">
        <ele>174.566177</ele>
        <time>2022-03-20T07:48:22Z</time>
      </trkpt>
      <trkpt lat="50.33831" lon="4.29917">
        <ele>174.691193</ele>
        <time>2022-03-20T07:48:24Z</time>
      </trkpt>
      <trkpt lat="50.3384" lon="4.29916">
        <ele>174.783005</ele>
        <time>2022-03-20T07:48:26Z</time>
      </trkpt>
      <trkpt lat="50.33849" lon="4.29915">
        <ele>174.930771</ele>
        <time>2022-03-20T07:48:28Z</time>
      </trkpt>
      <trkpt lat="50.33858" lon="4.29914">
        <ele>174.97937</ele>
        <time>2022-03-20T07:48:30Z</time>
      </trkpt>
      <trkpt lat="50.33868" lon="4.29914">
        <ele>175.13208</ele>
        <time>2022-03-20T07:48:32Z</time>
      </trkpt>
      <trkpt lat="50.33877" lon="4.29913">
        <ele>175.244766</ele>
        <time>2022-03-20T07:48:34Z</time>
      </trkpt>
      <trkpt lat="50.33886" lon="4.29913">
        <ele>175.364639</ele>
        <time>2022-03-20T07:48:36Z</time>
      </trkpt>
      <trkpt lat="50.33895" lon="4.29912">
        <ele>175.469025</ele>
        <time>2022-03-20T07:48:38Z</time>
      </trkpt>
      <trkpt lat="50.33904" lon="4.29911">
        <ele>175.602798</ele>
        <time>2022-03-20T07:48:40Z</time>
      </trkpt>
      <trkpt lat="50.33912" lon="4.2991">
        <ele>175.695816</ele>
        <time>2022-03-20T07:48:42Z</time>
      </trkpt>
      <trkpt lat="50.3392" lon="4.29909">
        <ele>175.841888</ele>
        <time>2022-03-20T07:48:44Z</time>
      </trkpt>
      <trkpt lat="50.33929" lon="4.29908">
        <ele>175.958725</ele>
        <time>2022-03-20T07:48:46Z</time>
      </trkpt>
      <trkpt lat="50.33938" lon="4.29907">
        <ele>176.075577</ele>
        <time>2022-03-20T07:48:48Z</time>
      </trkpt>
      <trkpt lat="50.33945" lon="4.29904">
        <ele>176.181992</ele>
        <time>2022-03-20T07:48:50Z</time>
      </trkpt>
      <trkpt lat="50.33949" lon="4.29904">
        <ele>176.152802</ele>
        <time>2022-03-20T07:48:51Z</time>
      </trkpt>
      <trkpt lat="50.33956" lon="4.29905">
        <ele>176.17157</ele>
        <time>2022-03-20T07:48:53Z</time>
      </trkpt>
      <trkpt lat="50.33964" lon="4.29906">
        <ele>176.233704</ele>
        <time>2022-03-20T07:48:55Z</time>
      </trkpt>
      <trkpt lat="50.33973" lon="4.29907">
        <ele>176.333282</ele>
        <time>2022-03-20T07:48:57Z</time>
      </trkpt>
      <trkpt lat="50.33981" lon="4.29907">
        <ele>176.431213</ele>
        <time>2022-03-20T07:48:59Z</time>
      </trkpt>
      <trkpt lat="50.33991" lon="4.29906">
        <ele>176.404083</ele>
        <time>2022-03-20T07:49:01Z</time>
      </trkpt>
      <trkpt lat="50.34001" lon="4.29901">
        <ele>176.36203</ele>
        <time>2022-03-20T07:49:03Z</time>
      </trkpt>
      <trkpt lat="50.34011" lon="4.29898">
        <ele>176.462189</ele>
        <time>2022-03-20T07:49:05Z</time>
      </trkpt>
      <trkpt lat="50.34016" lon="4.29895">
        <ele>176.487244</ele>
        <time>2022-03-20T07:49:06Z</time>
      </trkpt>
      <trkpt lat="50.34026" lon="4.29892">
        <ele>176.574692</ele>
        <time>2022-03-20T07:49:08Z</time>
      </trkpt>
      <trkpt lat="50.34037" lon="4.29887">
        <ele>176.611664</ele>
        <time>2022-03-20T07:49:10Z</time>
      </trkpt>
      <trkpt lat="50.34046" lon="4.29883">
        <ele>176.709335</ele>
        <time>2022-03-20T07:49:12Z</time>
      </trkpt>
      <trkpt lat="50.34056" lon="4.29877">
        <ele>176.726379</ele>
        <time>2022-03-20T07:49:14Z</time>
      </trkpt>
      <trkpt lat="50.34066" lon="4.29872">
        <ele>176.665863</ele>
        <time>2022-03-20T07:49:16Z</time>
      </trkpt>
      <trkpt lat="50.34076" lon="4.29867">
        <ele>176.732651</ele>
        <time>2022-03-20T07:49:18Z</time>
      </trkpt>
      <trkpt lat="50.34086" lon="4.29866">
        <ele>176.780075</ele>
        <time>2022-03-20T07:49:20Z</time>
      </trkpt>
      <trkpt lat="50.34095" lon="4.29872">
        <ele>176.852325</ele>
        <time>2022-03-20T07:49:22Z</time>
      </trkpt>
      <trkpt lat="50.34104" lon="4.29877">
        <ele>176.972687</ele>
        <time>2022-03-20T07:49:24Z</time>
      </trkpt>
      <trkpt lat="50.34113" lon="4.29884">
        <ele>176.972687</ele>
        <time>2022-03-20T07:49:26Z</time>
      </trkpt>
      <trkpt lat="50.34116" lon="4.29898">
        <ele>177.010254</ele>
        <time>2022-03-20T07:49:28Z</time>
      </trkpt>
      <trkpt lat="50.34118" lon="4.29913">
        <ele>176.920532</ele>
        <time>2022-03-20T07:49:30Z</time>
      </trkpt>
      <trkpt lat="50.34119" lon="4.29928">
        <ele>176.918427</ele>
        <time>2022-03-20T07:49:32Z</time>
      </trkpt>
      <trkpt lat="50.3412" lon="4.29943">
        <ele>177.043625</ele>
        <time>2022-03-20T07:49:34Z</time>
      </trkpt>
      <trkpt lat="50.34121" lon="4.29958">
        <ele>177.02742</ele>
        <time>2022-03-20T07:49:36Z</time>
      </trkpt>
      <trkpt lat="50.34121" lon="4.29973">
        <ele>177.117722</ele>
        <time>2022-03-20T07:49:38Z</time>
      </trkpt>
      <trkpt lat="50.34121" lon="4.2999">
        <ele>177.119965</ele>
        <time>2022-03-20T07:49:40Z</time>
      </trkpt>
      <trkpt lat="50.34121" lon="4.30007">
        <ele>177.282745</ele>
        <time>2022-03-20T07:49:42Z</time>
      </trkpt>
      <trkpt lat="50.34123" lon="4.30026">
        <ele>177.468552</ele>
        <time>2022-03-20T07:49:44Z</time>
      </trkpt>
      <trkpt lat="50.34124" lon="4.30044">
        <ele>177.489426</ele>
        <time>2022-03-20T07:49:46Z</time>
      </trkpt>
      <trkpt lat="50.34126" lon="4.3006">
        <ele>177.596069</ele>
        <time>2022-03-20T07:49:48Z</time>
      </trkpt>
      <trkpt lat="50.34126" lon="4.30075">
        <ele>177.648239</ele>
        <time>2022-03-20T07:49:50Z</time>
      </trkpt>
      <trkpt lat="50.34127" lon="4.3009">
        <ele>177.629471</ele>
        <time>2022-03-20T07:49:52Z</time>
      </trkpt>
      <trkpt lat="50.34128" lon="4.30105">
        <ele>177.593979</ele>
        <time>2022-03-20T07:49:54Z</time>
      </trkpt>
      <trkpt lat="50.34129" lon="4.3012">
        <ele>177.693802</ele>
        <time>2022-03-20T07:49:56Z</time>
      </trkpt>
      <trkpt lat="50.34129" lon="4.30127">
        <ele>177.81485</ele>
        <time>2022-03-20T07:49:57Z</time>
      </trkpt>
      <trkpt lat="50.34129" lon="4.30143">
        <ele>177.825714</ele>
        <time>2022-03-20T07:49:59Z</time>
      </trkpt>
      <trkpt lat="50.34131" lon="4.30157">
        <ele>177.797073</ele>
        <time>2022-03-20T07:50:01Z</time>
      </trkpt>
      <trkpt lat="50.34132" lon="4.30172">
        <ele>177.935638</ele>
        <time>2022-03-20T07:50:03Z</time>
      </trkpt>
      <trkpt lat="50.34133" lon="4.30187">
        <ele>177.968002</ele>
        <time>2022-03-20T07:50:05Z</time>
      </trkpt>
      <trkpt lat="50.34134" lon="4.302">
        <ele>177.960434</ele>
        <time>2022-03-20T07:50:07Z</time>
      </trkpt>
      <trkpt lat="50.34135" lon="4.30214">
        <ele>178.10141</ele>
        <time>2022-03-20T07:50:09Z</time>
      </trkpt>
      <trkpt lat="50.34137" lon="4.30228">
        <ele>178.322617</ele>
        <time>2022-03-20T07:50:11Z</time>
      </trkpt>
      <trkpt lat="50.34139" lon="4.30241">
        <ele>178.445999</ele>
        <time>2022-03-20T07:50:13Z</time>
      </trkpt>
      <trkpt lat="50.3414" lon="4.30254">
        <ele>178.512787</ele>
        <time>2022-03-20T07:50:15Z</time>
      </trkpt>
      <trkpt lat="50.34142" lon="4.30267">
        <ele>178.673111</ele>
        <time>2022-03-20T07:50:17Z</time>
      </trkpt>
      <trkpt lat="50.34145" lon="4.30279">
        <ele>178.677277</ele>
        <time>2022-03-20T07:50:19Z</time>
      </trkpt>
      <trkpt lat="50.34147" lon="4.30289">
        <ele>178.664764</ele>
        <time>2022-03-20T07:50:21Z</time>
      </trkpt>
      <trkpt lat="50.34152" lon="4.30294">
        <ele>178.693985</ele>
        <time>2022-03-20T07:50:23Z</time>
      </trkpt>
      <trkpt lat="50.34158" lon="4.30295">
        <ele>178.616776</ele>
        <time>2022-03-20T07:50:25Z</time>
      </trkpt>
      <trkpt lat="50.34164" lon="4.30299">
        <ele>178.652374</ele>
        <time>2022-03-20T07:50:27Z</time>
      </trkpt>
      <trkpt lat="50.34171" lon="4.30299">
        <ele>178.606461</ele>
        <time>2022-03-20T07:50:29Z</time>
      </trkpt>
      <trkpt lat="50.34177" lon="4.30298">
        <ele>178.539673</ele>
        <time>2022-03-20T07:50:31Z</time>
      </trkpt>
      <trkpt lat="50.34185" lon="4.30291">
        <ele>178.635666</ele>
        <time>2022-03-20T07:50:33Z</time>
      </trkpt>
      <trkpt lat="50.34189" lon="4.30287">
        <ele>178.704544</ele>
        <time>2022-03-20T07:50:34Z</time>
      </trkpt>
      <trkpt lat="50.34197" lon="4.30278">
        <ele>178.733765</ele>
        <time>2022-03-20T07:50:36Z</time>
      </trkpt>
      <trkpt lat="50.34201" lon="4.30267">
        <ele>178.67952</ele>
        <time>2022-03-20T07:50:38Z</time>
      </trkpt>
      <trkpt lat="50.34205" lon="4.30261">
        <ele>178.659454</ele>
        <time>2022-03-20T07:50:40Z</time>
      </trkpt>
      <trkpt lat="50.34209" lon="4.30256">
        <ele>178.756683</ele>
        <time>2022-03-20T07:50:42Z</time>
      </trkpt>
      <trkpt lat="50.34211" lon="4.30251">
        <ele>178.746353</ele>
        <time>2022-03-20T07:50:43Z</time>
      </trkpt>
      <trkpt lat="50.34216" lon="4.30241">
        <ele>178.685211</ele>
        <time>2022-03-20T07:50:45Z</time>
      </trkpt>
      <trkpt lat="50.34219" lon="4.30229">
        <ele>178.58844</ele>
        <time>2022-03-20T07:50:47Z</time>
      </trkpt>
      <trkpt lat="50.34226" lon="4.30217">
        <ele>178.607529</ele>
        <time>2022-03-20T07:50:49Z</time>
      </trkpt>
      <trkpt lat="50.34231" lon="4.30207">
        <ele>178.582916</ele>
        <time>2022-03-20T07:50:51Z</time>
      </trkpt>
      <trkpt lat="50.34235" lon="4.30195">
        <ele>178.443085</ele>
        <time>2022-03-20T07:50:53Z</time>
      </trkpt>
      <trkpt lat="50.34239" lon="4.30186">
        <ele>178.294678</ele>
        <time>2022-03-20T07:50:55Z</time>
      </trkpt>
      <trkpt lat="50.34244" lon="4.30175">
        <ele>178.232071</ele>
        <time>2022-03-20T07:50:57Z</time>
      </trkpt>
      <trkpt lat="50.3425" lon="4.30163">
        <ele>178.687973</ele>
        <time>2022-03-20T07:50:59Z</time>
      </trkpt>
      <trkpt lat="50.34255" lon="4.30151">
        <ele>178.724747</ele>
        <time>2022-03-20T07:51:01Z</time>
      </trkpt>
      <trkpt lat="50.3426" lon="4.3014">
        <ele>178.699692</ele>
        <time>2022-03-20T07:51:03Z</time>
      </trkpt>
      <trkpt lat="50.34267" lon="4.3013">
        <ele>178.553604</ele>
        <time>2022-03-20T07:51:05Z</time>
      </trkpt>
      <trkpt lat="50.34272" lon="4.30117">
        <ele>178.509766</ele>
        <time>2022-03-20T07:51:07Z</time>
      </trkpt>
      <trkpt lat="50.34277" lon="4.30103">
        <ele>178.418152</ele>
        <time>2022-03-20T07:51:09Z</time>
      </trkpt>
      <trkpt lat="50.34283" lon="4.3009">
        <ele>178.263733</ele>
        <time>2022-03-20T07:51:11Z</time>
      </trkpt>
      <trkpt lat="50.34288" lon="4.30077">
        <ele>178.261642</ele>
        <time>2022-03-20T07:51:13Z</time>
      </trkpt>
      <trkpt lat="50.34293" lon="4.30064">
        <ele>178.111389</ele>
        <time>2022-03-20T07:51:15Z</time>
      </trkpt>
      <trkpt lat="50.34296" lon="4.3005">
        <ele>177.996613</ele>
        <time>2022-03-20T07:51:17Z</time>
      </trkpt>
      <trkpt lat="50.343" lon="4.30038">
        <ele>177.904785</ele>
        <time>2022-03-20T07:51:19Z</time>
      </trkpt>
      <trkpt lat="50.34304" lon="4.30025">
        <ele>177.769958</ele>
        <time>2022-03-20T07:51:21Z</time>
      </trkpt>
      <trkpt lat="50.34309" lon="4.30012">
        <ele>177.574646</ele>
        <time>2022-03-20T07:51:23Z</time>
      </trkpt>
      <trkpt lat="50.34315" lon="4.30004">
        <ele>177.507294</ele>
        <time>2022-03-20T07:51:25Z</time>
      </trkpt>
      <trkpt lat="50.34324" lon="4.29995">
        <ele>177.453049</ele>
        <time>2022-03-20T07:51:27Z</time>
      </trkpt>
      <trkpt lat="50.34333" lon="4.29986">
        <ele>177.617676</ele>
        <time>2022-03-20T07:51:29Z</time>
      </trkpt>
      <trkpt lat="50.3434" lon="4.29974">
        <ele>177.40947</ele>
        <time>2022-03-20T07:51:31Z</time>
      </trkpt>
      <trkpt lat="50.34343" lon="4.29959">
        <ele>177.284271</ele>
        <time>2022-03-20T07:51:33Z</time>
      </trkpt>
      <trkpt lat="50.34346" lon="4.29948">
        <ele>177.259247</ele>
        <time>2022-03-20T07:51:35Z</time>
      </trkpt>
      <trkpt lat="50.34348" lon="4.29935">
        <ele>177.048508</ele>
        <time>2022-03-20T07:51:37Z</time>
      </trkpt>
      <trkpt lat="50.34349" lon="4.29923">
        <ele>176.852341</ele>
        <time>2022-03-20T07:51:39Z</time>
      </trkpt>
      <trkpt lat="50.34351" lon="4.29905">
        <ele>176.155685</ele>
        <time>2022-03-20T07:51:41Z</time>
      </trkpt>
      <trkpt lat="50.34353" lon="4.2989">
        <ele>175.934525</ele>
        <time>2022-03-20T07:51:43Z</time>
      </trkpt>
      <trkpt lat="50.34356" lon="4.29879">
        <ele>175.6633</ele>
        <time>2022-03-20T07:51:45Z</time>
      </trkpt>
      <trkpt lat="50.34359" lon="4.29872">
        <ele>175.30661</ele>
        <time>2022-03-20T07:51:47Z</time>
      </trkpt>
      <trkpt lat="50.34361" lon="4.29863">
        <ele>175.062057</ele>
        <time>2022-03-20T07:51:49Z</time>
      </trkpt>
      <trkpt lat="50.3436" lon="4.29857">
        <ele>175.005707</ele>
        <time>2022-03-20T07:51:50Z</time>
      </trkpt>
      <trkpt lat="50.34354" lon="4.29851">
        <ele>174.993195</ele>
        <time>2022-03-20T07:51:52Z</time>
      </trkpt>
      <trkpt lat="50.34348" lon="4.29846">
        <ele>174.765793</ele>
        <time>2022-03-20T07:51:54Z</time>
      </trkpt>
      <trkpt lat="50.34342" lon="4.29844">
        <ele>174.425735</ele>
        <time>2022-03-20T07:51:56Z</time>
      </trkpt>
      <trkpt lat="50.34337" lon="4.29839">
        <ele>174.160355</ele>
        <time>2022-03-20T07:51:58Z</time>
      </trkpt>
      <trkpt lat="50.34334" lon="4.29837">
        <ele>173.928802</ele>
        <time>2022-03-20T07:52:00Z</time>
      </trkpt>
      <trkpt lat="50.34337" lon="4.2984">
        <ele>173.632813</ele>
        <time>2022-03-20T07:52:02Z</time>
      </trkpt>
      <trkpt lat="50.34342" lon="4.29841">
        <ele>173.309494</ele>
        <time>2022-03-20T07:52:04Z</time>
      </trkpt>
      <trkpt lat="50.3435" lon="4.29843">
        <ele>173.001175</ele>
        <time>2022-03-20T07:52:06Z</time>
      </trkpt>
      <trkpt lat="50.34358" lon="4.29845">
        <ele>172.652802</ele>
        <time>2022-03-20T07:52:08Z</time>
      </trkpt>
      <trkpt lat="50.34366" lon="4.29847">
        <ele>172.323227</ele>
        <time>2022-03-20T07:52:10Z</time>
      </trkpt>
      <trkpt lat="50.34374" lon="4.2985">
        <ele>171.907944</ele>
        <time>2022-03-20T07:52:12Z</time>
      </trkpt>
      <trkpt lat="50.34383" lon="4.2985">
        <ele>171.753586</ele>
        <time>2022-03-20T07:52:14Z</time>
      </trkpt>
      <trkpt lat="50.34393" lon="4.29844">
        <ele>171.457428</ele>
        <time>2022-03-20T07:52:16Z</time>
      </trkpt>
      <trkpt lat="50.34404" lon="4.29833">
        <ele>171.215485</ele>
        <time>2022-03-20T07:52:18Z</time>
      </trkpt>
      <trkpt lat="50.34416" lon="4.29821">
        <ele>170.854675</ele>
        <time>2022-03-20T07:52:20Z</time>
      </trkpt>
      <trkpt lat="50.34429" lon="4.29807">
        <ele>170.331116</ele>
        <time>2022-03-20T07:52:22Z</time>
      </trkpt>
      <trkpt lat="50.34443" lon="4.29792">
        <ele>170.183075</ele>
        <time>2022-03-20T07:52:24Z</time>
      </trkpt>
      <trkpt lat="50.34457" lon="4.29778">
        <ele>169.661774</ele>
        <time>2022-03-20T07:52:26Z</time>
      </trkpt>
      <trkpt lat="50.3447" lon="4.29764">
        <ele>169.633591</ele>
        <time>2022-03-20T07:52:28Z</time>
      </trkpt>
      <trkpt lat="50.34477" lon="4.29755">
        <ele>169.418823</ele>
        <time>2022-03-20T07:52:29Z</time>
      </trkpt>
      <trkpt lat="50.34489" lon="4.29731">
        <ele>168.991913</ele>
        <time>2022-03-20T07:52:31Z</time>
      </trkpt>
      <trkpt lat="50.34498" lon="4.29707">
        <ele>168.383179</ele>
        <time>2022-03-20T07:52:33Z</time>
      </trkpt>
      <trkpt lat="50.34506" lon="4.29683">
        <ele>167.722412</ele>
        <time>2022-03-20T07:52:35Z</time>
      </trkpt>
      <trkpt lat="50.34513" lon="4.29662">
        <ele>167.579193</ele>
        <time>2022-03-20T07:52:37Z</time>
      </trkpt>
      <trkpt lat="50.34517" lon="4.29645">
        <ele>166.83139</ele>
        <time>2022-03-20T07:52:39Z</time>
      </trkpt>
      <trkpt lat="50.3452" lon="4.29632">
        <ele>166.024948</ele>
        <time>2022-03-20T07:52:41Z</time>
      </trkpt>
      <trkpt lat="50.34521" lon="4.29625">
        <ele>165.166412</ele>
        <time>2022-03-20T07:52:43Z</time>
      </trkpt>
      <trkpt lat="50.34518" lon="4.29618">
        <ele>164.297211</ele>
        <time>2022-03-20T07:52:45Z</time>
      </trkpt>
      <trkpt lat="50.34517" lon="4.29616">
        <ele>163.340393</ele>
        <time>2022-03-20T07:52:47Z</time>
      </trkpt>
      <trkpt lat="50.34515" lon="4.29613">
        <ele>162.325729</ele>
        <time>2022-03-20T07:52:49Z</time>
      </trkpt>
      <trkpt lat="50.34515" lon="4.2961">
        <ele>160.234207</ele>
        <time>2022-03-20T07:52:53Z</time>
      </trkpt>
      <trkpt lat="50.34515" lon="4.29608">
        <ele>158.934158</ele>
        <time>2022-03-20T07:52:55Z</time>
      </trkpt>
      <trkpt lat="50.34515" lon="4.29606">
        <ele>157.796143</ele>
        <time>2022-03-20T07:52:57Z</time>
      </trkpt>
      <trkpt lat="50.34515" lon="4.29602">
        <ele>155.353271</ele>
        <time>2022-03-20T07:53:01Z</time>
      </trkpt>
      <trkpt lat="50.34514" lon="4.29601">
        <ele>154.235184</ele>
        <time>2022-03-20T07:53:03Z</time>
      </trkpt>
      <trkpt lat="50.34514" lon="4.29598">
        <ele>153.633377</ele>
        <time>2022-03-20T07:53:05Z</time>
      </trkpt>
      <trkpt lat="50.34513" lon="4.29595">
        <ele>152.563416</ele>
        <time>2022-03-20T07:53:07Z</time>
      </trkpt>
      <trkpt lat="50.34512" lon="4.29593">
        <ele>151.347061</ele>
        <time>2022-03-20T07:53:09Z</time>
      </trkpt>
      <trkpt lat="50.34512" lon="4.29591">
        <ele>150.005249</ele>
        <time>2022-03-20T07:53:11Z</time>
      </trkpt>
      <trkpt lat="50.34511" lon="4.2959">
        <ele>149.30513</ele>
        <time>2022-03-20T07:53:12Z</time>
      </trkpt>
      <trkpt lat="50.34512" lon="4.29585">
        <ele>144.771484</ele>
        <time>2022-03-20T07:53:20Z</time>
      </trkpt>
      <trkpt lat="50.34511" lon="4.29583">
        <ele>143.766571</ele>
        <time>2022-03-20T07:53:22Z</time>
      </trkpt>
      <trkpt lat="50.34512" lon="4.29581">
        <ele>142.860474</ele>
        <time>2022-03-20T07:53:24Z</time>
      </trkpt>
      <trkpt lat="50.3451" lon="4.29577">
        <ele>141.837189</ele>
        <time>2022-03-20T07:53:26Z</time>
      </trkpt>
      <trkpt lat="50.3451" lon="4.29576">
        <ele>141.288071</ele>
        <time>2022-03-20T07:53:27Z</time>
      </trkpt>
      <trkpt lat="50.34509" lon="4.29574">
        <ele>140.873077</ele>
        <time>2022-03-20T07:53:29Z</time>
      </trkpt>
      <trkpt lat="50.34506" lon="4.29567">
        <ele>135.251434</ele>
        <time>2022-03-20T07:53:41Z</time>
      </trkpt>
      <trkpt lat="50.34506" lon="4.29565">
        <ele>134.514191</ele>
        <time>2022-03-20T07:53:43Z</time>
      </trkpt>
      <trkpt lat="50.34504" lon="4.29562">
        <ele>133.790924</ele>
        <time>2022-03-20T07:53:45Z</time>
      </trkpt>
      <trkpt lat="50.34502" lon="4.29555">
        <ele>129.89566</ele>
        <time>2022-03-20T07:53:55Z</time>
      </trkpt>
      <trkpt lat="50.34502" lon="4.29553">
        <ele>129.758362</ele>
        <time>2022-03-20T07:53:57Z</time>
      </trkpt>
      <trkpt lat="50.34505" lon="4.29545">
        <ele>126.603745</ele>
        <time>2022-03-20T07:54:05Z</time>
      </trkpt>
      <trkpt lat="50.34505" lon="4.29543">
        <ele>126.107872</ele>
        <time>2022-03-20T07:54:07Z</time>
      </trkpt>
      <trkpt lat="50.34502" lon="4.29542">
        <ele>125.215904</ele>
        <time>2022-03-20T07:54:11Z</time>
      </trkpt>
      <trkpt lat="50.34498" lon="4.29538">
        <ele>124.588829</ele>
        <time>2022-03-20T07:54:13Z</time>
      </trkpt>
      <trkpt lat="50.34489" lon="4.29529">
        <ele>124.10746</ele>
        <time>2022-03-20T07:54:15Z</time>
      </trkpt>
      <trkpt lat="50.34485" lon="4.29527">
        <ele>123.69841</ele>
        <time>2022-03-20T07:54:17Z</time>
      </trkpt>
      <trkpt lat="50.34483" lon="4.29529">
        <ele>123.211754</ele>
        <time>2022-03-20T07:54:19Z</time>
      </trkpt>
      <trkpt lat="50.34481" lon="4.29528">
        <ele>122.690895</ele>
        <time>2022-03-20T07:54:21Z</time>
      </trkpt>
      <trkpt lat="50.34478" lon="4.29527">
        <ele>121.5858</ele>
        <time>2022-03-20T07:54:25Z</time>
      </trkpt>
      <trkpt lat="50.34473" lon="4.29526">
        <ele>120.982956</ele>
        <time>2022-03-20T07:54:27Z</time>
      </trkpt>
      <trkpt lat="50.34468" lon="4.29523">
        <ele>120.486877</ele>
        <time>2022-03-20T07:54:29Z</time>
      </trkpt>
      <trkpt lat="50.34462" lon="4.2952">
        <ele>119.882919</ele>
        <time>2022-03-20T07:54:31Z</time>
      </trkpt>
      <trkpt lat="50.34454" lon="4.2952">
        <ele>119.411789</ele>
        <time>2022-03-20T07:54:33Z</time>
      </trkpt>
      <trkpt lat="50.34446" lon="4.29517">
        <ele>118.875145</ele>
        <time>2022-03-20T07:54:35Z</time>
      </trkpt>
      <trkpt lat="50.34439" lon="4.29515">
        <ele>118.607407</ele>
        <time>2022-03-20T07:54:37Z</time>
      </trkpt>
      <trkpt lat="50.34432" lon="4.29513">
        <ele>118.14463</ele>
        <time>2022-03-20T07:54:39Z</time>
      </trkpt>
      <trkpt lat="50.34425" lon="4.29512">
        <ele>117.607216</ele>
        <time>2022-03-20T07:54:41Z</time>
      </trkpt>
      <trkpt lat="50.34419" lon="4.29506">
        <ele>117.261147</ele>
        <time>2022-03-20T07:54:43Z</time>
      </trkpt>
      <trkpt lat="50.34411" lon="4.295">
        <ele>117.106422</ele>
        <time>2022-03-20T07:54:45Z</time>
      </trkpt>
      <trkpt lat="50.34404" lon="4.295">
        <ele>117.348679</ele>
        <time>2022-03-20T07:54:47Z</time>
      </trkpt>
      <trkpt lat="50.34397" lon="4.29501">
        <ele>117.05143</ele>
        <time>2022-03-20T07:54:49Z</time>
      </trkpt>
      <trkpt lat="50.34392" lon="4.29501">
        <ele>116.838722</ele>
        <time>2022-03-20T07:54:51Z</time>
      </trkpt>
      <trkpt lat="50.3439" lon="4.29498">
        <ele>116.651978</ele>
        <time>2022-03-20T07:54:53Z</time>
      </trkpt>
      <trkpt lat="50.34388" lon="4.29496">
        <ele>116.493507</ele>
        <time>2022-03-20T07:54:55Z</time>
      </trkpt>
      <trkpt lat="50.34388" lon="4.29494">
        <ele>116.325073</ele>
        <time>2022-03-20T07:54:57Z</time>
      </trkpt>
      <trkpt lat="50.34388" lon="4.29491">
        <ele>115.954422</ele>
        <time>2022-03-20T07:54:59Z</time>
      </trkpt>
      <trkpt lat="50.34386" lon="4.2949">
        <ele>115.784042</ele>
        <time>2022-03-20T07:55:01Z</time>
      </trkpt>
      <trkpt lat="50.34384" lon="4.29488">
        <ele>115.688614</ele>
        <time>2022-03-20T07:55:03Z</time>
      </trkpt>
      <trkpt lat="50.3438" lon="4.29484">
        <ele>115.678238</ele>
        <time>2022-03-20T07:55:04Z</time>
      </trkpt>
      <trkpt lat="50.34377" lon="4.29481">
        <ele>115.582787</ele>
        <time>2022-03-20T07:55:07Z</time>
      </trkpt>
      <trkpt lat="50.34372" lon="4.2948">
        <ele>115.551758</ele>
        <time>2022-03-20T07:55:09Z</time>
      </trkpt>
      <trkpt lat="50.34369" lon="4.29479">
        <ele>115.524796</ele>
        <time>2022-03-20T07:55:11Z</time>
      </trkpt>
      <trkpt lat="50.34362" lon="4.29477">
        <ele>115.477097</ele>
        <time>2022-03-20T07:55:13Z</time>
      </trkpt>
      <trkpt lat="50.34358" lon="4.29478">
        <ele>115.40242</ele>
        <time>2022-03-20T07:55:15Z</time>
      </trkpt>
      <trkpt lat="50.34349" lon="4.29472">
        <ele>115.173401</ele>
        <time>2022-03-20T07:55:17Z</time>
      </trkpt>
      <trkpt lat="50.34341" lon="4.2947">
        <ele>115.098717</ele>
        <time>2022-03-20T07:55:19Z</time>
      </trkpt>
      <trkpt lat="50.34332" lon="4.2947">
        <ele>114.947311</ele>
        <time>2022-03-20T07:55:21Z</time>
      </trkpt>
      <trkpt lat="50.34325" lon="4.29471">
        <ele>114.758591</ele>
        <time>2022-03-20T07:55:23Z</time>
      </trkpt>
      <trkpt lat="50.34319" lon="4.29468">
        <ele>114.525467</ele>
        <time>2022-03-20T07:55:25Z</time>
      </trkpt>
      <trkpt lat="50.34312" lon="4.29457">
        <ele>114.352844</ele>
        <time>2022-03-20T07:55:27Z</time>
      </trkpt>
      <trkpt lat="50.34304" lon="4.29448">
        <ele>114.047081</ele>
        <time>2022-03-20T07:55:29Z</time>
      </trkpt>
      <trkpt lat="50.34299" lon="4.29442">
        <ele>113.750488</ele>
        <time>2022-03-20T07:55:31Z</time>
      </trkpt>
      <trkpt lat="50.34295" lon="4.29435">
        <ele>113.338852</ele>
        <time>2022-03-20T07:55:33Z</time>
      </trkpt>
      <trkpt lat="50.34288" lon="4.29429">
        <ele>112.976685</ele>
        <time>2022-03-20T07:55:35Z</time>
      </trkpt>
      <trkpt lat="50.34283" lon="4.29426">
        <ele>112.659378</ele>
        <time>2022-03-20T07:55:37Z</time>
      </trkpt>
      <trkpt lat="50.34279" lon="4.29424">
        <ele>112.290237</ele>
        <time>2022-03-20T07:55:39Z</time>
      </trkpt>
      <trkpt lat="50.34273" lon="4.29425">
        <ele>111.890015</ele>
        <time>2022-03-20T07:55:41Z</time>
      </trkpt>
      <trkpt lat="50.34269" lon="4.29427">
        <ele>111.574791</ele>
        <time>2022-03-20T07:55:43Z</time>
      </trkpt>
      <trkpt lat="50.34266" lon="4.29425">
        <ele>111.202293</ele>
        <time>2022-03-20T07:55:45Z</time>
      </trkpt>
      <trkpt lat="50.34264" lon="4.29422">
        <ele>110.839401</ele>
        <time>2022-03-20T07:55:47Z</time>
      </trkpt>
      <trkpt lat="50.34261" lon="4.29417">
        <ele>110.41832</ele>
        <time>2022-03-20T07:55:49Z</time>
      </trkpt>
      <trkpt lat="50.34257" lon="4.29411">
        <ele>110.181908</ele>
        <time>2022-03-20T07:55:51Z</time>
      </trkpt>
      <trkpt lat="50.34252" lon="4.29404">
        <ele>110.05957</ele>
        <time>2022-03-20T07:55:53Z</time>
      </trkpt>
      <trkpt lat="50.34245" lon="4.29394">
        <ele>109.821083</ele>
        <time>2022-03-20T07:55:55Z</time>
      </trkpt>
      <trkpt lat="50.34243" lon="4.29387">
        <ele>109.593796</ele>
        <time>2022-03-20T07:55:57Z</time>
      </trkpt>
      <trkpt lat="50.34239" lon="4.29378">
        <ele>109.440353</ele>
        <time>2022-03-20T07:55:59Z</time>
      </trkpt>
      <trkpt lat="50.34232" lon="4.29367">
        <ele>109.304367</ele>
        <time>2022-03-20T07:56:01Z</time>
      </trkpt>
      <trkpt lat="50.34226" lon="4.29357">
        <ele>109.266663</ele>
        <time>2022-03-20T07:56:03Z</time>
      </trkpt>
      <trkpt lat="50.3422" lon="4.29349">
        <ele>109.138931</ele>
        <time>2022-03-20T07:56:05Z</time>
      </trkpt>
      <trkpt lat="50.34216" lon="4.29341">
        <ele>109.047157</ele>
        <time>2022-03-20T07:56:07Z</time>
      </trkpt>
      <trkpt lat="50.34211" lon="4.29335">
        <ele>108.987877</ele>
        <time>2022-03-20T07:56:09Z</time>
      </trkpt>
      <trkpt lat="50.34207" lon="4.29327">
        <ele>108.965073</ele>
        <time>2022-03-20T07:56:11Z</time>
      </trkpt>
      <trkpt lat="50.34203" lon="4.29318">
        <ele>108.965065</ele>
        <time>2022-03-20T07:56:13Z</time>
      </trkpt>
      <trkpt lat="50.34199" lon="4.29307">
        <ele>109.050064</ele>
        <time>2022-03-20T07:56:15Z</time>
      </trkpt>
      <trkpt lat="50.34195" lon="4.29296">
        <ele>109.083229</ele>
        <time>2022-03-20T07:56:17Z</time>
      </trkpt>
      <trkpt lat="50.3419" lon="4.29285">
        <ele>109.132996</ele>
        <time>2022-03-20T07:56:19Z</time>
      </trkpt>
      <trkpt lat="50.34189" lon="4.29281">
        <ele>109.265709</ele>
        <time>2022-03-20T07:56:20Z</time>
      </trkpt>
      <trkpt lat="50.34185" lon="4.29269">
        <ele>109.328041</ele>
        <time>2022-03-20T07:56:22Z</time>
      </trkpt>
      <trkpt lat="50.34181" lon="4.29259">
        <ele>109.330116</ele>
        <time>2022-03-20T07:56:24Z</time>
      </trkpt>
      <trkpt lat="50.34179" lon="4.2925">
        <ele>109.399887</ele>
        <time>2022-03-20T07:56:26Z</time>
      </trkpt>
      <trkpt lat="50.3418" lon="4.29243">
        <ele>109.484146</ele>
        <time>2022-03-20T07:56:28Z</time>
      </trkpt>
      <trkpt lat="50.34185" lon="4.29238">
        <ele>109.547318</ele>
        <time>2022-03-20T07:56:30Z</time>
      </trkpt>
      <trkpt lat="50.34187" lon="4.29226">
        <ele>109.625351</ele>
        <time>2022-03-20T07:56:32Z</time>
      </trkpt>
      <trkpt lat="50.34186" lon="4.29213">
        <ele>109.538269</ele>
        <time>2022-03-20T07:56:34Z</time>
      </trkpt>
      <trkpt lat="50.34181" lon="4.29202">
        <ele>109.496803</ele>
        <time>2022-03-20T07:56:36Z</time>
      </trkpt>
      <trkpt lat="50.34175" lon="4.29188">
        <ele>109.523758</ele>
        <time>2022-03-20T07:56:38Z</time>
      </trkpt>
      <trkpt lat="50.34169" lon="4.29175">
        <ele>109.451187</ele>
        <time>2022-03-20T07:56:40Z</time>
      </trkpt>
      <trkpt lat="50.34164" lon="4.29161">
        <ele>109.42543</ele>
        <time>2022-03-20T07:56:42Z</time>
      </trkpt>
      <trkpt lat="50.34159" lon="4.29148">
        <ele>109.357384</ele>
        <time>2022-03-20T07:56:44Z</time>
      </trkpt>
      <trkpt lat="50.34156" lon="4.29134">
        <ele>109.378113</ele>
        <time>2022-03-20T07:56:46Z</time>
      </trkpt>
      <trkpt lat="50.34155" lon="4.29119">
        <ele>109.298241</ele>
        <time>2022-03-20T07:56:48Z</time>
      </trkpt>
      <trkpt lat="50.34153" lon="4.29104">
        <ele>109.279579</ele>
        <time>2022-03-20T07:56:50Z</time>
      </trkpt>
      <trkpt lat="50.34153" lon="4.29089">
        <ele>109.209091</ele>
        <time>2022-03-20T07:56:52Z</time>
      </trkpt>
      <trkpt lat="50.34152" lon="4.29074">
        <ele>109.13031</ele>
        <time>2022-03-20T07:56:54Z</time>
      </trkpt>
      <trkpt lat="50.3415" lon="4.29059">
        <ele>108.972755</ele>
        <time>2022-03-20T07:56:56Z</time>
      </trkpt>
      <trkpt lat="50.34149" lon="4.29044">
        <ele>109.00985</ele>
        <time>2022-03-20T07:56:58Z</time>
      </trkpt>
      <trkpt lat="50.34148" lon="4.29029">
        <ele>108.974609</ele>
        <time>2022-03-20T07:57:00Z</time>
      </trkpt>
      <trkpt lat="50.34148" lon="4.29015">
        <ele>108.665672</ele>
        <time>2022-03-20T07:57:02Z</time>
      </trkpt>
      <trkpt lat="50.34147" lon="4.29001">
        <ele>108.658485</ele>
        <time>2022-03-20T07:57:04Z</time>
      </trkpt>
      <trkpt lat="50.34147" lon="4.28987">
        <ele>108.557602</ele>
        <time>2022-03-20T07:57:06Z</time>
      </trkpt>
      <trkpt lat="50.34143" lon="4.28974">
        <ele>108.48291</ele>
        <time>2022-03-20T07:57:08Z</time>
      </trkpt>
      <trkpt lat="50.34137" lon="4.28967">
        <ele>108.245628</ele>
        <time>2022-03-20T07:57:10Z</time>
      </trkpt>
      <trkpt lat="50.34133" lon="4.28959">
        <ele>108.159302</ele>
        <time>2022-03-20T07:57:12Z</time>
      </trkpt>
      <trkpt lat="50.34133" lon="4.28946">
        <ele>108.045303</ele>
        <time>2022-03-20T07:57:14Z</time>
      </trkpt>
      <trkpt lat="50.34133" lon="4.28934">
        <ele>107.937515</ele>
        <time>2022-03-20T07:57:16Z</time>
      </trkpt>
      <trkpt lat="50.34131" lon="4.2892">
        <ele>107.848389</ele>
        <time>2022-03-20T07:57:18Z</time>
      </trkpt>
      <trkpt lat="50.34131" lon="4.28907">
        <ele>107.856689</ele>
        <time>2022-03-20T07:57:20Z</time>
      </trkpt>
      <trkpt lat="50.34128" lon="4.28894">
        <ele>107.773842</ele>
        <time>2022-03-20T07:57:22Z</time>
      </trkpt>
      <trkpt lat="50.34127" lon="4.28881">
        <ele>107.753311</ele>
        <time>2022-03-20T07:57:24Z</time>
      </trkpt>
      <trkpt lat="50.34126" lon="4.28867">
        <ele>107.769897</ele>
        <time>2022-03-20T07:57:26Z</time>
      </trkpt>
      <trkpt lat="50.34124" lon="4.28852">
        <ele>107.682846</ele>
        <time>2022-03-20T07:57:28Z</time>
      </trkpt>
      <trkpt lat="50.34123" lon="4.28838">
        <ele>107.664612</ele>
        <time>2022-03-20T07:57:30Z</time>
      </trkpt>
      <trkpt lat="50.34121" lon="4.28824">
        <ele>107.66803</ele>
        <time>2022-03-20T07:57:32Z</time>
      </trkpt>
      <trkpt lat="50.3412" lon="4.2881">
        <ele>107.597549</ele>
        <time>2022-03-20T07:57:34Z</time>
      </trkpt>
      <trkpt lat="50.34118" lon="4.28797">
        <ele>107.528648</ele>
        <time>2022-03-20T07:57:36Z</time>
      </trkpt>
      <trkpt lat="50.34119" lon="4.28787">
        <ele>107.4646</ele>
        <time>2022-03-20T07:57:38Z</time>
      </trkpt>
      <trkpt lat="50.34119" lon="4.28782">
        <ele>107.373398</ele>
        <time>2022-03-20T07:57:39Z</time>
      </trkpt>
      <trkpt lat="50.34124" lon="4.28772">
        <ele>107.33506</ele>
        <time>2022-03-20T07:57:41Z</time>
      </trkpt>
      <trkpt lat="50.34128" lon="4.28757">
        <ele>107.258362</ele>
        <time>2022-03-20T07:57:43Z</time>
      </trkpt>
      <trkpt lat="50.34131" lon="4.28743">
        <ele>107.204651</ele>
        <time>2022-03-20T07:57:45Z</time>
      </trkpt>
      <trkpt lat="50.34131" lon="4.28729">
        <ele>107.118858</ele>
        <time>2022-03-20T07:57:47Z</time>
      </trkpt>
      <trkpt lat="50.34132" lon="4.28716">
        <ele>107.035934</ele>
        <time>2022-03-20T07:57:49Z</time>
      </trkpt>
      <trkpt lat="50.34132" lon="4.28705">
        <ele>106.97789</ele>
        <time>2022-03-20T07:57:51Z</time>
      </trkpt>
      <trkpt lat="50.34134" lon="4.28698">
        <ele>107.05043</ele>
        <time>2022-03-20T07:57:53Z</time>
      </trkpt>
      <trkpt lat="50.34135" lon="4.28695">
        <ele>106.984093</ele>
        <time>2022-03-20T07:57:55Z</time>
      </trkpt>
      <trkpt lat="50.34137" lon="4.28692">
        <ele>107.071144</ele>
        <time>2022-03-20T07:57:57Z</time>
      </trkpt>
      <trkpt lat="50.34139" lon="4.2869">
        <ele>107.079422</ele>
        <time>2022-03-20T07:57:59Z</time>
      </trkpt>
      <trkpt lat="50.3414" lon="4.28689">
        <ele>106.879593</ele>
        <time>2022-03-20T07:58:01Z</time>
      </trkpt>
      <trkpt lat="50.34142" lon="4.28689">
        <ele>106.704605</ele>
        <time>2022-03-20T07:58:03Z</time>
      </trkpt>
      <trkpt lat="50.34143" lon="4.28689">
        <ele>106.746033</ele>
        <time>2022-03-20T07:58:05Z</time>
      </trkpt>
      <trkpt lat="50.34144" lon="4.28689">
        <ele>106.668663</ele>
        <time>2022-03-20T07:58:07Z</time>
      </trkpt>
      <trkpt lat="50.34146" lon="4.28689">
        <ele>106.603516</ele>
        <time>2022-03-20T07:58:09Z</time>
      </trkpt>
      <trkpt lat="50.34147" lon="4.28689">
        <ele>106.524315</ele>
        <time>2022-03-20T07:58:11Z</time>
      </trkpt>
      <trkpt lat="50.34148" lon="4.28689">
        <ele>106.49115</ele>
        <time>2022-03-20T07:58:13Z</time>
      </trkpt>
      <trkpt lat="50.3415" lon="4.2869">
        <ele>106.413124</ele>
        <time>2022-03-20T07:58:15Z</time>
      </trkpt>
      <trkpt lat="50.34152" lon="4.2869">
        <ele>106.34314</ele>
        <time>2022-03-20T07:58:17Z</time>
      </trkpt>
      <trkpt lat="50.34154" lon="4.2869">
        <ele>106.334862</ele>
        <time>2022-03-20T07:58:19Z</time>
      </trkpt>
      <trkpt lat="50.34156" lon="4.2869">
        <ele>106.372696</ele>
        <time>2022-03-20T07:58:21Z</time>
      </trkpt>
      <trkpt lat="50.34159" lon="4.2869">
        <ele>106.446266</ele>
        <time>2022-03-20T07:58:23Z</time>
      </trkpt>
      <trkpt lat="50.34161" lon="4.2869">
        <ele>106.456459</ele>
        <time>2022-03-20T07:58:25Z</time>
      </trkpt>
      <trkpt lat="50.34162" lon="4.2869">
        <ele>106.451889</ele>
        <time>2022-03-20T07:58:27Z</time>
      </trkpt>
      <trkpt lat="50.34164" lon="4.28691">
        <ele>106.447815</ele>
        <time>2022-03-20T07:58:29Z</time>
      </trkpt>
      <trkpt lat="50.34165" lon="4.28691">
        <ele>106.5411</ele>
        <time>2022-03-20T07:58:31Z</time>
      </trkpt>
      <trkpt lat="50.34166" lon="4.28691">
        <ele>106.642662</ele>
        <time>2022-03-20T07:58:33Z</time>
      </trkpt>
      <trkpt lat="50.34168" lon="4.28691">
        <ele>106.728981</ele>
        <time>2022-03-20T07:58:35Z</time>
      </trkpt>
      <trkpt lat="50.34169" lon="4.28692">
        <ele>106.800964</ele>
        <time>2022-03-20T07:58:37Z</time>
      </trkpt>
      <trkpt lat="50.34173" lon="4.28692">
        <ele>106.95105</ele>
        <time>2022-03-20T07:58:43Z</time>
      </trkpt>
      <trkpt lat="50.34174" lon="4.28693">
        <ele>107.041031</ele>
        <time>2022-03-20T07:58:45Z</time>
      </trkpt>
      <trkpt lat="50.34176" lon="4.28693">
        <ele>107.145081</ele>
        <time>2022-03-20T07:58:47Z</time>
      </trkpt>
      <trkpt lat="50.34177" lon="4.28693">
        <ele>107.208633</ele>
        <time>2022-03-20T07:58:49Z</time>
      </trkpt>
      <trkpt lat="50.34176" lon="4.28695">
        <ele>107.322632</ele>
        <time>2022-03-20T07:58:53Z</time>
      </trkpt>
      <trkpt lat="50.34174" lon="4.287">
        <ele>107.395309</ele>
        <time>2022-03-20T07:58:55Z</time>
      </trkpt>
      <trkpt lat="50.34172" lon="4.28708">
        <ele>107.473961</ele>
        <time>2022-03-20T07:58:57Z</time>
      </trkpt>
      <trkpt lat="50.34173" lon="4.28723">
        <ele>107.572548</ele>
        <time>2022-03-20T07:58:59Z</time>
      </trkpt>
      <trkpt lat="50.34175" lon="4.28739">
        <ele>107.549217</ele>
        <time>2022-03-20T07:59:01Z</time>
      </trkpt>
      <trkpt lat="50.34176" lon="4.28757">
        <ele>107.520996</ele>
        <time>2022-03-20T07:59:03Z</time>
      </trkpt>
      <trkpt lat="50.34176" lon="4.28772">
        <ele>107.462967</ele>
        <time>2022-03-20T07:59:05Z</time>
      </trkpt>
      <trkpt lat="50.34178" lon="4.28789">
        <ele>107.417343</ele>
        <time>2022-03-20T07:59:07Z</time>
      </trkpt>
      <trkpt lat="50.34178" lon="4.28805">
        <ele>107.485657</ele>
        <time>2022-03-20T07:59:09Z</time>
      </trkpt>
      <trkpt lat="50.34178" lon="4.28821">
        <ele>107.413109</ele>
        <time>2022-03-20T07:59:11Z</time>
      </trkpt>
      <trkpt lat="50.34177" lon="4.28836">
        <ele>107.328415</ele>
        <time>2022-03-20T07:59:13Z</time>
      </trkpt>
      <trkpt lat="50.34177" lon="4.28852">
        <ele>107.235146</ele>
        <time>2022-03-20T07:59:15Z</time>
      </trkpt>
      <trkpt lat="50.34177" lon="4.28868">
        <ele>107.138771</ele>
        <time>2022-03-20T07:59:17Z</time>
      </trkpt>
      <trkpt lat="50.34176" lon="4.28886">
        <ele>107.153664</ele>
        <time>2022-03-20T07:59:19Z</time>
      </trkpt>
      <trkpt lat="50.34176" lon="4.28903">
        <ele>107.047958</ele>
        <time>2022-03-20T07:59:21Z</time>
      </trkpt>
      <trkpt lat="50.34176" lon="4.2892">
        <ele>106.886292</ele>
        <time>2022-03-20T07:59:23Z</time>
      </trkpt>
      <trkpt lat="50.34176" lon="4.28937">
        <ele>106.701279</ele>
        <time>2022-03-20T07:59:25Z</time>
      </trkpt>
      <trkpt lat="50.34176" lon="4.28955">
        <ele>106.628738</ele>
        <time>2022-03-20T07:59:27Z</time>
      </trkpt>
      <trkpt lat="50.34176" lon="4.28973">
        <ele>106.477867</ele>
        <time>2022-03-20T07:59:29Z</time>
      </trkpt>
      <trkpt lat="50.34177" lon="4.28991">
        <ele>106.342667</ele>
        <time>2022-03-20T07:59:31Z</time>
      </trkpt>
      <trkpt lat="50.34179" lon="4.29009">
        <ele>106.216164</ele>
        <time>2022-03-20T07:59:33Z</time>
      </trkpt>
      <trkpt lat="50.34181" lon="4.29026">
        <ele>106.091797</ele>
        <time>2022-03-20T07:59:35Z</time>
      </trkpt>
      <trkpt lat="50.34184" lon="4.29043">
        <ele>105.973511</ele>
        <time>2022-03-20T07:59:37Z</time>
      </trkpt>
      <trkpt lat="50.34188" lon="4.29059">
        <ele>105.876205</ele>
        <time>2022-03-20T07:59:39Z</time>
      </trkpt>
      <trkpt lat="50.34193" lon="4.29075">
        <ele>105.756897</ele>
        <time>2022-03-20T07:59:41Z</time>
      </trkpt>
      <trkpt lat="50.342" lon="4.2909">
        <ele>105.664894</ele>
        <time>2022-03-20T07:59:43Z</time>
      </trkpt>
      <trkpt lat="50.34206" lon="4.29105">
        <ele>105.557114</ele>
        <time>2022-03-20T07:59:45Z</time>
      </trkpt>
      <trkpt lat="50.34213" lon="4.2912">
        <ele>105.480431</ele>
        <time>2022-03-20T07:59:47Z</time>
      </trkpt>
      <trkpt lat="50.34221" lon="4.29135">
        <ele>105.395462</ele>
        <time>2022-03-20T07:59:49Z</time>
      </trkpt>
      <trkpt lat="50.34228" lon="4.29149">
        <ele>105.346313</ele>
        <time>2022-03-20T07:59:51Z</time>
      </trkpt>
      <trkpt lat="50.34235" lon="4.29164">
        <ele>105.271988</ele>
        <time>2022-03-20T07:59:53Z</time>
      </trkpt>
      <trkpt lat="50.34242" lon="4.29178">
        <ele>105.264877</ele>
        <time>2022-03-20T07:59:55Z</time>
      </trkpt>
      <trkpt lat="50.34249" lon="4.29192">
        <ele>105.235863</ele>
        <time>2022-03-20T07:59:57Z</time>
      </trkpt>
      <trkpt lat="50.34256" lon="4.29206">
        <ele>105.221069</ele>
        <time>2022-03-20T07:59:59Z</time>
      </trkpt>
      <trkpt lat="50.34263" lon="4.29221">
        <ele>105.171486</ele>
        <time>2022-03-20T08:00:01Z</time>
      </trkpt>
      <trkpt lat="50.34271" lon="4.29235">
        <ele>105.198425</ele>
        <time>2022-03-20T08:00:03Z</time>
      </trkpt>
      <trkpt lat="50.34278" lon="4.29248">
        <ele>105.248169</ele>
        <time>2022-03-20T08:00:05Z</time>
      </trkpt>
      <trkpt lat="50.34285" lon="4.29262">
        <ele>105.269409</ele>
        <time>2022-03-20T08:00:07Z</time>
      </trkpt>
      <trkpt lat="50.34293" lon="4.29275">
        <ele>105.318764</ele>
        <time>2022-03-20T08:00:09Z</time>
      </trkpt>
      <trkpt lat="50.34302" lon="4.29288">
        <ele>105.403732</ele>
        <time>2022-03-20T08:00:11Z</time>
      </trkpt>
      <trkpt lat="50.34311" lon="4.293">
        <ele>105.503281</ele>
        <time>2022-03-20T08:00:13Z</time>
      </trkpt>
      <trkpt lat="50.3432" lon="4.29311">
        <ele>105.608986</ele>
        <time>2022-03-20T08:00:15Z</time>
      </trkpt>
      <trkpt lat="50.3433" lon="4.29322">
        <ele>105.66494</ele>
        <time>2022-03-20T08:00:17Z</time>
      </trkpt>
      <trkpt lat="50.3434" lon="4.29333">
        <ele>105.733337</ele>
        <time>2022-03-20T08:00:19Z</time>
      </trkpt>
      <trkpt lat="50.34349" lon="4.29343">
        <ele>105.82058</ele>
        <time>2022-03-20T08:00:21Z</time>
      </trkpt>
      <trkpt lat="50.34359" lon="4.29354">
        <ele>105.940086</ele>
        <time>2022-03-20T08:00:23Z</time>
      </trkpt>
      <trkpt lat="50.34369" lon="4.29365">
        <ele>106.029213</ele>
        <time>2022-03-20T08:00:25Z</time>
      </trkpt>
      <trkpt lat="50.34379" lon="4.29375">
        <ele>106.136986</ele>
        <time>2022-03-20T08:00:27Z</time>
      </trkpt>
      <trkpt lat="50.34389" lon="4.29386">
        <ele>106.213669</ele>
        <time>2022-03-20T08:00:29Z</time>
      </trkpt>
      <trkpt lat="50.34399" lon="4.29395">
        <ele>106.219284</ele>
        <time>2022-03-20T08:00:31Z</time>
      </trkpt>
      <trkpt lat="50.34409" lon="4.29405">
        <ele>106.267113</ele>
        <time>2022-03-20T08:00:33Z</time>
      </trkpt>
      <trkpt lat="50.34419" lon="4.29415">
        <ele>106.417847</ele>
        <time>2022-03-20T08:00:35Z</time>
      </trkpt>
      <trkpt lat="50.34428" lon="4.29424">
        <ele>106.534805</ele>
        <time>2022-03-20T08:00:37Z</time>
      </trkpt>
      <trkpt lat="50.34438" lon="4.29433">
        <ele>106.63015</ele>
        <time>2022-03-20T08:00:39Z</time>
      </trkpt>
      <trkpt lat="50.34448" lon="4.2944">
        <ele>106.810486</ele>
        <time>2022-03-20T08:00:41Z</time>
      </trkpt>
      <trkpt lat="50.34459" lon="4.29445">
        <ele>106.860229</ele>
        <time>2022-03-20T08:00:43Z</time>
      </trkpt>
      <trkpt lat="50.34469" lon="4.29451">
        <ele>106.930702</ele>
        <time>2022-03-20T08:00:45Z</time>
      </trkpt>
      <trkpt lat="50.34481" lon="4.29453">
        <ele>106.976303</ele>
        <time>2022-03-20T08:00:47Z</time>
      </trkpt>
      <trkpt lat="50.34494" lon="4.29456">
        <ele>107.025452</ele>
        <time>2022-03-20T08:00:49Z</time>
      </trkpt>
      <trkpt lat="50.34506" lon="4.2946">
        <ele>107.037888</ele>
        <time>2022-03-20T08:00:51Z</time>
      </trkpt>
      <trkpt lat="50.34519" lon="4.29463">
        <ele>107.129105</ele>
        <time>2022-03-20T08:00:53Z</time>
      </trkpt>
      <trkpt lat="50.34532" lon="4.29466">
        <ele>107.107262</ele>
        <time>2022-03-20T08:00:55Z</time>
      </trkpt>
      <trkpt lat="50.34544" lon="4.29468">
        <ele>107.204697</ele>
        <time>2022-03-20T08:00:57Z</time>
      </trkpt>
      <trkpt lat="50.34557" lon="4.2947">
        <ele>107.250305</ele>
        <time>2022-03-20T08:00:59Z</time>
      </trkpt>
      <trkpt lat="50.34569" lon="4.29472">
        <ele>107.257858</ele>
        <time>2022-03-20T08:01:01Z</time>
      </trkpt>
      <trkpt lat="50.34581" lon="4.29472">
        <ele>107.254234</ele>
        <time>2022-03-20T08:01:03Z</time>
      </trkpt>
      <trkpt lat="50.34592" lon="4.29472">
        <ele>107.306053</ele>
        <time>2022-03-20T08:01:05Z</time>
      </trkpt>
      <trkpt lat="50.34601" lon="4.29471">
        <ele>107.368248</ele>
        <time>2022-03-20T08:01:07Z</time>
      </trkpt>
      <trkpt lat="50.34609" lon="4.2947">
        <ele>107.46962</ele>
        <time>2022-03-20T08:01:09Z</time>
      </trkpt>
      <trkpt lat="50.34617" lon="4.29467">
        <ele>107.471695</ele>
        <time>2022-03-20T08:01:11Z</time>
      </trkpt>
      <trkpt lat="50.3462" lon="4.29458">
        <ele>107.573257</ele>
        <time>2022-03-20T08:01:13Z</time>
      </trkpt>
      <trkpt lat="50.3462" lon="4.29446">
        <ele>107.639366</ele>
        <time>2022-03-20T08:01:15Z</time>
      </trkpt>
      <trkpt lat="50.34621" lon="4.29435">
        <ele>107.689125</ele>
        <time>2022-03-20T08:01:17Z</time>
      </trkpt>
      <trkpt lat="50.34621" lon="4.29427">
        <ele>107.693275</ele>
        <time>2022-03-20T08:01:19Z</time>
      </trkpt>
      <trkpt lat="50.34621" lon="4.29422">
        <ele>107.75547</ele>
        <time>2022-03-20T08:01:21Z</time>
      </trkpt>
      <trkpt lat="50.34622" lon="4.29418">
        <ele>107.825729</ele>
        <time>2022-03-20T08:01:23Z</time>
      </trkpt>
      <trkpt lat="50.34621" lon="4.29415">
        <ele>107.925232</ele>
        <time>2022-03-20T08:01:25Z</time>
      </trkpt>
      <trkpt lat="50.34619" lon="4.29413">
        <ele>108.147034</ele>
        <time>2022-03-20T08:01:29Z</time>
      </trkpt>
      <trkpt lat="50.34618" lon="4.29408">
        <ele>108.271057</ele>
        <time>2022-03-20T08:01:37Z</time>
      </trkpt>
      <trkpt lat="50.34619" lon="4.29406">
        <ele>108.362267</ele>
        <time>2022-03-20T08:01:39Z</time>
      </trkpt>
      <trkpt lat="50.3462" lon="4.29405">
        <ele>108.416908</ele>
        <time>2022-03-20T08:01:41Z</time>
      </trkpt>
      <trkpt lat="50.3462" lon="4.29404">
        <ele>108.468735</ele>
        <time>2022-03-20T08:01:42Z</time>
      </trkpt>
      <trkpt lat="50.34619" lon="4.29402">
        <ele>108.503983</ele>
        <time>2022-03-20T08:01:44Z</time>
      </trkpt>
      <trkpt lat="50.34619" lon="4.294">
        <ele>108.577316</ele>
        <time>2022-03-20T08:01:46Z</time>
      </trkpt>
      <trkpt lat="50.34619" lon="4.29397">
        <ele>108.604271</ele>
        <time>2022-03-20T08:01:48Z</time>
      </trkpt>
      <trkpt lat="50.3462" lon="4.29393">
        <ele>108.615311</ele>
        <time>2022-03-20T08:01:50Z</time>
      </trkpt>
      <trkpt lat="50.3462" lon="4.2939">
        <ele>108.69014</ele>
        <time>2022-03-20T08:01:52Z</time>
      </trkpt>
      <trkpt lat="50.3462" lon="4.29387">
        <ele>108.737816</ele>
        <time>2022-03-20T08:01:54Z</time>
      </trkpt>
      <trkpt lat="50.34621" lon="4.29385">
        <ele>108.847778</ele>
        <time>2022-03-20T08:01:56Z</time>
      </trkpt>
      <trkpt lat="50.34623" lon="4.29382">
        <ele>108.936913</ele>
        <time>2022-03-20T08:01:58Z</time>
      </trkpt>
      <trkpt lat="50.34623" lon="4.2938">
        <ele>109.115234</ele>
        <time>2022-03-20T08:02:02Z</time>
      </trkpt>
      <trkpt lat="50.34624" lon="4.29377">
        <ele>109.227394</ele>
        <time>2022-03-20T08:02:04Z</time>
      </trkpt>
      <trkpt lat="50.34625" lon="4.2937">
        <ele>109.602707</ele>
        <time>2022-03-20T08:02:10Z</time>
      </trkpt>
      <trkpt lat="50.34625" lon="4.29368">
        <ele>109.739548</ele>
        <time>2022-03-20T08:02:12Z</time>
      </trkpt>
      <trkpt lat="50.34627" lon="4.29362">
        <ele>110.169823</ele>
        <time>2022-03-20T08:02:16Z</time>
      </trkpt>
      <trkpt lat="50.34628" lon="4.29359">
        <ele>110.362282</ele>
        <time>2022-03-20T08:02:18Z</time>
      </trkpt>
      <trkpt lat="50.34629" lon="4.29355">
        <ele>110.45974</ele>
        <time>2022-03-20T08:02:20Z</time>
      </trkpt>
      <trkpt lat="50.34629" lon="4.2935">
        <ele>110.652931</ele>
        <time>2022-03-20T08:02:22Z</time>
      </trkpt>
      <trkpt lat="50.34629" lon="4.29344">
        <ele>110.885422</ele>
        <time>2022-03-20T08:02:24Z</time>
      </trkpt>
      <trkpt lat="50.34626" lon="4.29337">
        <ele>111.095657</ele>
        <time>2022-03-20T08:02:26Z</time>
      </trkpt>
      <trkpt lat="50.34623" lon="4.29333">
        <ele>111.515831</ele>
        <time>2022-03-20T08:02:30Z</time>
      </trkpt>
      <trkpt lat="50.3462" lon="4.2933">
        <ele>111.764</ele>
        <time>2022-03-20T08:02:32Z</time>
      </trkpt>
      <trkpt lat="50.34618" lon="4.29327">
        <ele>112.009438</ele>
        <time>2022-03-20T08:02:34Z</time>
      </trkpt>
      <trkpt lat="50.34618" lon="4.29322">
        <ele>112.204369</ele>
        <time>2022-03-20T08:02:36Z</time>
      </trkpt>
      <trkpt lat="50.3462" lon="4.29319">
        <ele>112.43457</ele>
        <time>2022-03-20T08:02:38Z</time>
      </trkpt>
      <trkpt lat="50.34623" lon="4.29315">
        <ele>112.629517</ele>
        <time>2022-03-20T08:02:40Z</time>
      </trkpt>
      <trkpt lat="50.34626" lon="4.29311">
        <ele>112.834854</ele>
        <time>2022-03-20T08:02:42Z</time>
      </trkpt>
      <trkpt lat="50.34628" lon="4.29308">
        <ele>113.050552</ele>
        <time>2022-03-20T08:02:44Z</time>
      </trkpt>
      <trkpt lat="50.34629" lon="4.29305">
        <ele>113.32019</ele>
        <time>2022-03-20T08:02:46Z</time>
      </trkpt>
      <trkpt lat="50.34631" lon="4.29304">
        <ele>113.482468</ele>
        <time>2022-03-20T08:02:48Z</time>
      </trkpt>
      <trkpt lat="50.34633" lon="4.29299">
        <ele>113.565445</ele>
        <time>2022-03-20T08:02:50Z</time>
      </trkpt>
      <trkpt lat="50.34634" lon="4.29295">
        <ele>113.97831</ele>
        <time>2022-03-20T08:02:52Z</time>
      </trkpt>
      <trkpt lat="50.34636" lon="4.29292">
        <ele>114.138039</ele>
        <time>2022-03-20T08:02:54Z</time>
      </trkpt>
      <trkpt lat="50.34638" lon="4.29286">
        <ele>115.234421</ele>
        <time>2022-03-20T08:03:02Z</time>
      </trkpt>
      <trkpt lat="50.34639" lon="4.2928">
        <ele>116.021683</ele>
        <time>2022-03-20T08:03:08Z</time>
      </trkpt>
      <trkpt lat="50.34639" lon="4.29278">
        <ele>116.314186</ele>
        <time>2022-03-20T08:03:10Z</time>
      </trkpt>
      <trkpt lat="50.34648" lon="4.29268">
        <ele>121.18203</ele>
        <time>2022-03-20T08:03:53Z</time>
      </trkpt>
      <trkpt lat="50.34651" lon="4.29265">
        <ele>121.379776</ele>
        <time>2022-03-20T08:03:55Z</time>
      </trkpt>
      <trkpt lat="50.34655" lon="4.29255">
        <ele>121.579041</ele>
        <time>2022-03-20T08:03:57Z</time>
      </trkpt>
      <trkpt lat="50.34657" lon="4.29252">
        <ele>121.705666</ele>
        <time>2022-03-20T08:03:59Z</time>
      </trkpt>
      <trkpt lat="50.3466" lon="4.29249">
        <ele>121.960999</ele>
        <time>2022-03-20T08:04:01Z</time>
      </trkpt>
      <trkpt lat="50.34662" lon="4.29246">
        <ele>122.187279</ele>
        <time>2022-03-20T08:04:03Z</time>
      </trkpt>
      <trkpt lat="50.34664" lon="4.29242">
        <ele>122.401108</ele>
        <time>2022-03-20T08:04:05Z</time>
      </trkpt>
      <trkpt lat="50.34665" lon="4.29238">
        <ele>122.660141</ele>
        <time>2022-03-20T08:04:07Z</time>
      </trkpt>
      <trkpt lat="50.34664" lon="4.29233">
        <ele>122.869812</ele>
        <time>2022-03-20T08:04:09Z</time>
      </trkpt>
      <trkpt lat="50.34663" lon="4.29228">
        <ele>122.97361</ele>
        <time>2022-03-20T08:04:11Z</time>
      </trkpt>
      <trkpt lat="50.34661" lon="4.29224">
        <ele>123.214439</ele>
        <time>2022-03-20T08:04:13Z</time>
      </trkpt>
      <trkpt lat="50.34659" lon="4.2922">
        <ele>123.46981</ele>
        <time>2022-03-20T08:04:15Z</time>
      </trkpt>
      <trkpt lat="50.34658" lon="4.29214">
        <ele>123.753601</ele>
        <time>2022-03-20T08:04:17Z</time>
      </trkpt>
      <trkpt lat="50.34656" lon="4.29208">
        <ele>124.033897</ele>
        <time>2022-03-20T08:04:19Z</time>
      </trkpt>
      <trkpt lat="50.34654" lon="4.29203">
        <ele>124.307961</ele>
        <time>2022-03-20T08:04:21Z</time>
      </trkpt>
      <trkpt lat="50.34651" lon="4.29201">
        <ele>124.669266</ele>
        <time>2022-03-20T08:04:23Z</time>
      </trkpt>
      <trkpt lat="50.34648" lon="4.29198">
        <ele>124.999428</ele>
        <time>2022-03-20T08:04:25Z</time>
      </trkpt>
      <trkpt lat="50.34646" lon="4.29195">
        <ele>125.310913</ele>
        <time>2022-03-20T08:04:27Z</time>
      </trkpt>
      <trkpt lat="50.34644" lon="4.2919">
        <ele>125.642746</ele>
        <time>2022-03-20T08:04:29Z</time>
      </trkpt>
      <trkpt lat="50.34642" lon="4.29185">
        <ele>125.962547</ele>
        <time>2022-03-20T08:04:31Z</time>
      </trkpt>
      <trkpt lat="50.34642" lon="4.29183">
        <ele>126.319763</ele>
        <time>2022-03-20T08:04:33Z</time>
      </trkpt>
      <trkpt lat="50.34641" lon="4.29175">
        <ele>126.672264</ele>
        <time>2022-03-20T08:04:35Z</time>
      </trkpt>
      <trkpt lat="50.3464" lon="4.29171">
        <ele>126.828026</ele>
        <time>2022-03-20T08:04:36Z</time>
      </trkpt>
      <trkpt lat="50.34638" lon="4.29165">
        <ele>127.119606</ele>
        <time>2022-03-20T08:04:38Z</time>
      </trkpt>
      <trkpt lat="50.34635" lon="4.29162">
        <ele>127.584801</ele>
        <time>2022-03-20T08:04:40Z</time>
      </trkpt>
      <trkpt lat="50.34633" lon="4.29157">
        <ele>127.87767</ele>
        <time>2022-03-20T08:04:42Z</time>
      </trkpt>
      <trkpt lat="50.34631" lon="4.29151">
        <ele>128.118622</ele>
        <time>2022-03-20T08:04:44Z</time>
      </trkpt>
      <trkpt lat="50.34628" lon="4.29146">
        <ele>128.438568</ele>
        <time>2022-03-20T08:04:46Z</time>
      </trkpt>
      <trkpt lat="50.34627" lon="4.29141">
        <ele>128.656662</ele>
        <time>2022-03-20T08:04:48Z</time>
      </trkpt>
      <trkpt lat="50.34627" lon="4.29136">
        <ele>129.057587</ele>
        <time>2022-03-20T08:04:50Z</time>
      </trkpt>
      <trkpt lat="50.34626" lon="4.2913">
        <ele>129.464996</ele>
        <time>2022-03-20T08:04:52Z</time>
      </trkpt>
      <trkpt lat="50.34626" lon="4.29122">
        <ele>129.846634</ele>
        <time>2022-03-20T08:04:54Z</time>
      </trkpt>
      <trkpt lat="50.34625" lon="4.29115">
        <ele>130.230957</ele>
        <time>2022-03-20T08:04:56Z</time>
      </trkpt>
      <trkpt lat="50.34623" lon="4.29111">
        <ele>130.653351</ele>
        <time>2022-03-20T08:04:58Z</time>
      </trkpt>
      <trkpt lat="50.3462" lon="4.29105">
        <ele>131.026703</ele>
        <time>2022-03-20T08:05:00Z</time>
      </trkpt>
      <trkpt lat="50.34618" lon="4.29101">
        <ele>131.44014</ele>
        <time>2022-03-20T08:05:02Z</time>
      </trkpt>
      <trkpt lat="50.34617" lon="4.29096">
        <ele>131.82872</ele>
        <time>2022-03-20T08:05:04Z</time>
      </trkpt>
      <trkpt lat="50.34613" lon="4.29092">
        <ele>132.189896</ele>
        <time>2022-03-20T08:05:06Z</time>
      </trkpt>
      <trkpt lat="50.34609" lon="4.29086">
        <ele>132.572235</ele>
        <time>2022-03-20T08:05:08Z</time>
      </trkpt>
      <trkpt lat="50.34607" lon="4.29082">
        <ele>133.054367</ele>
        <time>2022-03-20T08:05:10Z</time>
      </trkpt>
      <trkpt lat="50.34604" lon="4.29078">
        <ele>132.9487</ele>
        <time>2022-03-20T08:05:12Z</time>
      </trkpt>
      <trkpt lat="50.34602" lon="4.29073">
        <ele>133.391388</ele>
        <time>2022-03-20T08:05:14Z</time>
      </trkpt>
      <trkpt lat="50.34601" lon="4.29066">
        <ele>133.82785</ele>
        <time>2022-03-20T08:05:16Z</time>
      </trkpt>
      <trkpt lat="50.34598" lon="4.29058">
        <ele>134.39444</ele>
        <time>2022-03-20T08:05:18Z</time>
      </trkpt>
      <trkpt lat="50.34595" lon="4.2905">
        <ele>134.844986</ele>
        <time>2022-03-20T08:05:20Z</time>
      </trkpt>
      <trkpt lat="50.34591" lon="4.29042">
        <ele>135.040375</ele>
        <time>2022-03-20T08:05:22Z</time>
      </trkpt>
      <trkpt lat="50.34586" lon="4.29029">
        <ele>135.464371</ele>
        <time>2022-03-20T08:05:24Z</time>
      </trkpt>
      <trkpt lat="50.34583" lon="4.29023">
        <ele>135.872375</ele>
        <time>2022-03-20T08:05:26Z</time>
      </trkpt>
      <trkpt lat="50.3458" lon="4.29017">
        <ele>137.437317</ele>
        <time>2022-03-20T08:05:32Z</time>
      </trkpt>
      <trkpt lat="50.34579" lon="4.29014">
        <ele>137.920258</ele>
        <time>2022-03-20T08:05:34Z</time>
      </trkpt>
      <trkpt lat="50.3458" lon="4.2901">
        <ele>138.362885</ele>
        <time>2022-03-20T08:05:36Z</time>
      </trkpt>
      <trkpt lat="50.34581" lon="4.2901">
        <ele>138.834869</ele>
        <time>2022-03-20T08:05:38Z</time>
      </trkpt>
      <trkpt lat="50.34583" lon="4.2901">
        <ele>139.324127</ele>
        <time>2022-03-20T08:05:40Z</time>
      </trkpt>
      <trkpt lat="50.34586" lon="4.29011">
        <ele>139.789902</ele>
        <time>2022-03-20T08:05:42Z</time>
      </trkpt>
      <trkpt lat="50.34587" lon="4.29012">
        <ele>140.041519</ele>
        <time>2022-03-20T08:05:43Z</time>
      </trkpt>
      <trkpt lat="50.3459" lon="4.29015">
        <ele>140.442368</ele>
        <time>2022-03-20T08:05:45Z</time>
      </trkpt>
      <trkpt lat="50.34593" lon="4.29017">
        <ele>140.669052</ele>
        <time>2022-03-20T08:05:47Z</time>
      </trkpt>
      <trkpt lat="50.34596" lon="4.29019">
        <ele>141.086639</ele>
        <time>2022-03-20T08:05:49Z</time>
      </trkpt>
      <trkpt lat="50.34599" lon="4.29022">
        <ele>141.51712</ele>
        <time>2022-03-20T08:05:51Z</time>
      </trkpt>
      <trkpt lat="50.34602" lon="4.29025">
        <ele>142.423553</ele>
        <time>2022-03-20T08:05:53Z</time>
      </trkpt>
      <trkpt lat="50.34605" lon="4.29027">
        <ele>142.822891</ele>
        <time>2022-03-20T08:05:55Z</time>
      </trkpt>
      <trkpt lat="50.34608" lon="4.2903">
        <ele>143.170807</ele>
        <time>2022-03-20T08:05:57Z</time>
      </trkpt>
      <trkpt lat="50.34611" lon="4.29033">
        <ele>143.520279</ele>
        <time>2022-03-20T08:05:59Z</time>
      </trkpt>
      <trkpt lat="50.34614" lon="4.29035">
        <ele>143.808365</ele>
        <time>2022-03-20T08:06:01Z</time>
      </trkpt>
      <trkpt lat="50.34618" lon="4.29037">
        <ele>144.226715</ele>
        <time>2022-03-20T08:06:03Z</time>
      </trkpt>
      <trkpt lat="50.34621" lon="4.29038">
        <ele>144.661469</ele>
        <time>2022-03-20T08:06:05Z</time>
      </trkpt>
      <trkpt lat="50.34625" lon="4.29039">
        <ele>145.068542</ele>
        <time>2022-03-20T08:06:07Z</time>
      </trkpt>
      <trkpt lat="50.34627" lon="4.2904">
        <ele>145.424332</ele>
        <time>2022-03-20T08:06:09Z</time>
      </trkpt>
      <trkpt lat="50.3463" lon="4.29042">
        <ele>145.817566</ele>
        <time>2022-03-20T08:06:11Z</time>
      </trkpt>
      <trkpt lat="50.34634" lon="4.29044">
        <ele>146.190292</ele>
        <time>2022-03-20T08:06:13Z</time>
      </trkpt>
      <trkpt lat="50.34638" lon="4.29045">
        <ele>146.60231</ele>
        <time>2022-03-20T08:06:15Z</time>
      </trkpt>
      <trkpt lat="50.34641" lon="4.29047">
        <ele>147.006241</ele>
        <time>2022-03-20T08:06:17Z</time>
      </trkpt>
      <trkpt lat="50.34644" lon="4.29048">
        <ele>147.403702</ele>
        <time>2022-03-20T08:06:19Z</time>
      </trkpt>
      <trkpt lat="50.34648" lon="4.29049">
        <ele>147.803253</ele>
        <time>2022-03-20T08:06:21Z</time>
      </trkpt>
      <trkpt lat="50.34652" lon="4.2905">
        <ele>148.190338</ele>
        <time>2022-03-20T08:06:23Z</time>
      </trkpt>
      <trkpt lat="50.34655" lon="4.29051">
        <ele>148.627869</ele>
        <time>2022-03-20T08:06:25Z</time>
      </trkpt>
      <trkpt lat="50.34658" lon="4.29053">
        <ele>148.807266</ele>
        <time>2022-03-20T08:06:27Z</time>
      </trkpt>
      <trkpt lat="50.34662" lon="4.29055">
        <ele>149.240936</ele>
        <time>2022-03-20T08:06:29Z</time>
      </trkpt>
      <trkpt lat="50.34664" lon="4.29056">
        <ele>149.694702</ele>
        <time>2022-03-20T08:06:31Z</time>
      </trkpt>
      <trkpt lat="50.34668" lon="4.29058">
        <ele>150.137909</ele>
        <time>2022-03-20T08:06:33Z</time>
      </trkpt>
      <trkpt lat="50.34671" lon="4.29059">
        <ele>150.528595</ele>
        <time>2022-03-20T08:06:35Z</time>
      </trkpt>
      <trkpt lat="50.34672" lon="4.2906">
        <ele>150.744354</ele>
        <time>2022-03-20T08:06:36Z</time>
      </trkpt>
      <trkpt lat="50.34675" lon="4.29062">
        <ele>151.186905</ele>
        <time>2022-03-20T08:06:38Z</time>
      </trkpt>
      <trkpt lat="50.34678" lon="4.29064">
        <ele>151.657379</ele>
        <time>2022-03-20T08:06:40Z</time>
      </trkpt>
      <trkpt lat="50.34681" lon="4.29067">
        <ele>152.132843</ele>
        <time>2022-03-20T08:06:42Z</time>
      </trkpt>
      <trkpt lat="50.34685" lon="4.29069">
        <ele>152.600204</ele>
        <time>2022-03-20T08:06:44Z</time>
      </trkpt>
      <trkpt lat="50.34689" lon="4.2907">
        <ele>153.110321</ele>
        <time>2022-03-20T08:06:46Z</time>
      </trkpt>
      <trkpt lat="50.3469" lon="4.29071">
        <ele>153.110321</ele>
        <time>2022-03-20T08:06:47Z</time>
      </trkpt>
      <trkpt lat="50.34694" lon="4.29073">
        <ele>153.560486</ele>
        <time>2022-03-20T08:06:49Z</time>
      </trkpt>
      <trkpt lat="50.34697" lon="4.29075">
        <ele>153.968124</ele>
        <time>2022-03-20T08:06:51Z</time>
      </trkpt>
      <trkpt lat="50.34701" lon="4.29079">
        <ele>154.453308</ele>
        <time>2022-03-20T08:06:53Z</time>
      </trkpt>
      <trkpt lat="50.34704" lon="4.29081">
        <ele>154.959122</ele>
        <time>2022-03-20T08:06:55Z</time>
      </trkpt>
      <trkpt lat="50.34708" lon="4.29084">
        <ele>155.442291</ele>
        <time>2022-03-20T08:06:57Z</time>
      </trkpt>
      <trkpt lat="50.34711" lon="4.29086">
        <ele>155.92337</ele>
        <time>2022-03-20T08:06:59Z</time>
      </trkpt>
      <trkpt lat="50.34714" lon="4.29088">
        <ele>156.429504</ele>
        <time>2022-03-20T08:07:01Z</time>
      </trkpt>
      <trkpt lat="50.34717" lon="4.29091">
        <ele>156.91478</ele>
        <time>2022-03-20T08:07:03Z</time>
      </trkpt>
      <trkpt lat="50.34721" lon="4.29093">
        <ele>157.454269</ele>
        <time>2022-03-20T08:07:05Z</time>
      </trkpt>
      <trkpt lat="50.34724" lon="4.29095">
        <ele>157.700073</ele>
        <time>2022-03-20T08:07:07Z</time>
      </trkpt>
      <trkpt lat="50.34726" lon="4.29098">
        <ele>158.214142</ele>
        <time>2022-03-20T08:07:09Z</time>
      </trkpt>
      <trkpt lat="50.34729" lon="4.29102">
        <ele>158.668823</ele>
        <time>2022-03-20T08:07:11Z</time>
      </trkpt>
      <trkpt lat="50.34732" lon="4.29105">
        <ele>159.112701</ele>
        <time>2022-03-20T08:07:13Z</time>
      </trkpt>
      <trkpt lat="50.34734" lon="4.29107">
        <ele>159.616684</ele>
        <time>2022-03-20T08:07:15Z</time>
      </trkpt>
      <trkpt lat="50.34737" lon="4.29111">
        <ele>160.088837</ele>
        <time>2022-03-20T08:07:17Z</time>
      </trkpt>
      <trkpt lat="50.3474" lon="4.29114">
        <ele>160.620438</ele>
        <time>2022-03-20T08:07:19Z</time>
      </trkpt>
      <trkpt lat="50.34744" lon="4.29117">
        <ele>161.095016</ele>
        <time>2022-03-20T08:07:21Z</time>
      </trkpt>
      <trkpt lat="50.34747" lon="4.29119">
        <ele>161.597198</ele>
        <time>2022-03-20T08:07:23Z</time>
      </trkpt>
      <trkpt lat="50.34752" lon="4.2912">
        <ele>162.124588</ele>
        <time>2022-03-20T08:07:25Z</time>
      </trkpt>
      <trkpt lat="50.34757" lon="4.29122">
        <ele>162.626022</ele>
        <time>2022-03-20T08:07:27Z</time>
      </trkpt>
      <trkpt lat="50.3476" lon="4.29122">
        <ele>163.098663</ele>
        <time>2022-03-20T08:07:29Z</time>
      </trkpt>
      <trkpt lat="50.34764" lon="4.29122">
        <ele>163.624298</ele>
        <time>2022-03-20T08:07:31Z</time>
      </trkpt>
      <trkpt lat="50.34767" lon="4.29122">
        <ele>164.17244</ele>
        <time>2022-03-20T08:07:33Z</time>
      </trkpt>
      <trkpt lat="50.34771" lon="4.29121">
        <ele>164.662262</ele>
        <time>2022-03-20T08:07:35Z</time>
      </trkpt>
      <trkpt lat="50.34775" lon="4.2912">
        <ele>165.118561</ele>
        <time>2022-03-20T08:07:37Z</time>
      </trkpt>
      <trkpt lat="50.34779" lon="4.29119">
        <ele>165.540237</ele>
        <time>2022-03-20T08:07:39Z</time>
      </trkpt>
      <trkpt lat="50.34783" lon="4.29118">
        <ele>165.771042</ele>
        <time>2022-03-20T08:07:41Z</time>
      </trkpt>
      <trkpt lat="50.34787" lon="4.29117">
        <ele>166.22551</ele>
        <time>2022-03-20T08:07:43Z</time>
      </trkpt>
      <trkpt lat="50.3479" lon="4.29116">
        <ele>166.700851</ele>
        <time>2022-03-20T08:07:45Z</time>
      </trkpt>
      <trkpt lat="50.34794" lon="4.29117">
        <ele>167.161621</ele>
        <time>2022-03-20T08:07:47Z</time>
      </trkpt>
      <trkpt lat="50.34797" lon="4.29117">
        <ele>167.601532</ele>
        <time>2022-03-20T08:07:49Z</time>
      </trkpt>
      <trkpt lat="50.34802" lon="4.29118">
        <ele>168.102753</ele>
        <time>2022-03-20T08:07:51Z</time>
      </trkpt>
      <trkpt lat="50.34806" lon="4.29119">
        <ele>168.657227</ele>
        <time>2022-03-20T08:07:53Z</time>
      </trkpt>
      <trkpt lat="50.34808" lon="4.2912">
        <ele>168.913727</ele>
        <time>2022-03-20T08:07:54Z</time>
      </trkpt>
      <trkpt lat="50.34812" lon="4.29121">
        <ele>169.346405</ele>
        <time>2022-03-20T08:07:56Z</time>
      </trkpt>
      <trkpt lat="50.34816" lon="4.29123">
        <ele>169.896255</ele>
        <time>2022-03-20T08:07:58Z</time>
      </trkpt>
      <trkpt lat="50.34821" lon="4.29126">
        <ele>170.470444</ele>
        <time>2022-03-20T08:08:00Z</time>
      </trkpt>
      <trkpt lat="50.34824" lon="4.29131">
        <ele>170.739487</ele>
        <time>2022-03-20T08:08:02Z</time>
      </trkpt>
      <trkpt lat="50.34828" lon="4.29138">
        <ele>171.288513</ele>
        <time>2022-03-20T08:08:04Z</time>
      </trkpt>
      <trkpt lat="50.3483" lon="4.29145">
        <ele>171.818314</ele>
        <time>2022-03-20T08:08:06Z</time>
      </trkpt>
      <trkpt lat="50.34832" lon="4.29154">
        <ele>172.29599</ele>
        <time>2022-03-20T08:08:08Z</time>
      </trkpt>
      <trkpt lat="50.34834" lon="4.29164">
        <ele>172.815399</ele>
        <time>2022-03-20T08:08:10Z</time>
      </trkpt>
      <trkpt lat="50.34836" lon="4.29174">
        <ele>173.343307</ele>
        <time>2022-03-20T08:08:12Z</time>
      </trkpt>
      <trkpt lat="50.34839" lon="4.29183">
        <ele>173.885757</ele>
        <time>2022-03-20T08:08:14Z</time>
      </trkpt>
      <trkpt lat="50.34841" lon="4.29193">
        <ele>174.292877</ele>
        <time>2022-03-20T08:08:16Z</time>
      </trkpt>
      <trkpt lat="50.34843" lon="4.29197">
        <ele>174.526535</ele>
        <time>2022-03-20T08:08:17Z</time>
      </trkpt>
      <trkpt lat="50.34845" lon="4.29207">
        <ele>175.016891</ele>
        <time>2022-03-20T08:08:19Z</time>
      </trkpt>
      <trkpt lat="50.34848" lon="4.29215">
        <ele>175.558746</ele>
        <time>2022-03-20T08:08:21Z</time>
      </trkpt>
      <trkpt lat="50.34852" lon="4.29224">
        <ele>176.078827</ele>
        <time>2022-03-20T08:08:23Z</time>
      </trkpt>
      <trkpt lat="50.34855" lon="4.29233">
        <ele>176.318802</ele>
        <time>2022-03-20T08:08:25Z</time>
      </trkpt>
      <trkpt lat="50.34857" lon="4.29241">
        <ele>176.760468</ele>
        <time>2022-03-20T08:08:27Z</time>
      </trkpt>
      <trkpt lat="50.3486" lon="4.2925">
        <ele>177.731583</ele>
        <time>2022-03-20T08:08:29Z</time>
      </trkpt>
      <trkpt lat="50.34862" lon="4.29258">
        <ele>178.188568</ele>
        <time>2022-03-20T08:08:31Z</time>
      </trkpt>
      <trkpt lat="50.34863" lon="4.29262">
        <ele>178.437576</ele>
        <time>2022-03-20T08:08:32Z</time>
      </trkpt>
      <trkpt lat="50.34866" lon="4.29271">
        <ele>178.625748</ele>
        <time>2022-03-20T08:08:34Z</time>
      </trkpt>
      <trkpt lat="50.34868" lon="4.29281">
        <ele>179.019913</ele>
        <time>2022-03-20T08:08:36Z</time>
      </trkpt>
      <trkpt lat="50.34871" lon="4.2929">
        <ele>179.421661</ele>
        <time>2022-03-20T08:08:38Z</time>
      </trkpt>
      <trkpt lat="50.34874" lon="4.29299">
        <ele>179.828644</ele>
        <time>2022-03-20T08:08:40Z</time>
      </trkpt>
      <trkpt lat="50.34878" lon="4.29308">
        <ele>180.150085</ele>
        <time>2022-03-20T08:08:42Z</time>
      </trkpt>
      <trkpt lat="50.34883" lon="4.29318">
        <ele>180.456604</ele>
        <time>2022-03-20T08:08:44Z</time>
      </trkpt>
      <trkpt lat="50.34887" lon="4.29329">
        <ele>180.713348</ele>
        <time>2022-03-20T08:08:46Z</time>
      </trkpt>
      <trkpt lat="50.34893" lon="4.29341">
        <ele>181.020203</ele>
        <time>2022-03-20T08:08:48Z</time>
      </trkpt>
      <trkpt lat="50.34898" lon="4.29354">
        <ele>181.274872</ele>
        <time>2022-03-20T08:08:50Z</time>
      </trkpt>
      <trkpt lat="50.34903" lon="4.29366">
        <ele>181.55954</ele>
        <time>2022-03-20T08:08:52Z</time>
      </trkpt>
      <trkpt lat="50.34907" lon="4.29377">
        <ele>181.801941</ele>
        <time>2022-03-20T08:08:54Z</time>
      </trkpt>
      <trkpt lat="50.34912" lon="4.29389">
        <ele>181.916733</ele>
        <time>2022-03-20T08:08:56Z</time>
      </trkpt>
      <trkpt lat="50.34917" lon="4.294">
        <ele>182.175308</ele>
        <time>2022-03-20T08:08:58Z</time>
      </trkpt>
      <trkpt lat="50.34922" lon="4.29412">
        <ele>182.386292</ele>
        <time>2022-03-20T08:09:00Z</time>
      </trkpt>
      <trkpt lat="50.34926" lon="4.29424">
        <ele>182.484283</ele>
        <time>2022-03-20T08:09:02Z</time>
      </trkpt>
      <trkpt lat="50.3493" lon="4.29435">
        <ele>182.686798</ele>
        <time>2022-03-20T08:09:04Z</time>
      </trkpt>
      <trkpt lat="50.34934" lon="4.29445">
        <ele>182.832993</ele>
        <time>2022-03-20T08:09:06Z</time>
      </trkpt>
      <trkpt lat="50.34939" lon="4.29455">
        <ele>182.915085</ele>
        <time>2022-03-20T08:09:08Z</time>
      </trkpt>
      <trkpt lat="50.34943" lon="4.29465">
        <ele>182.449005</ele>
        <time>2022-03-20T08:09:10Z</time>
      </trkpt>
      <trkpt lat="50.34946" lon="4.29476">
        <ele>182.542969</ele>
        <time>2022-03-20T08:09:12Z</time>
      </trkpt>
      <trkpt lat="50.3495" lon="4.29485">
        <ele>182.661972</ele>
        <time>2022-03-20T08:09:14Z</time>
      </trkpt>
      <trkpt lat="50.34955" lon="4.29495">
        <ele>182.824768</ele>
        <time>2022-03-20T08:09:16Z</time>
      </trkpt>
      <trkpt lat="50.34959" lon="4.29505">
        <ele>182.925262</ele>
        <time>2022-03-20T08:09:18Z</time>
      </trkpt>
      <trkpt lat="50.34964" lon="4.29514">
        <ele>183.018402</ele>
        <time>2022-03-20T08:09:20Z</time>
      </trkpt>
      <trkpt lat="50.34969" lon="4.29523">
        <ele>183.068512</ele>
        <time>2022-03-20T08:09:22Z</time>
      </trkpt>
      <trkpt lat="50.34975" lon="4.2953">
        <ele>183.185455</ele>
        <time>2022-03-20T08:09:24Z</time>
      </trkpt>
      <trkpt lat="50.3498" lon="4.29536">
        <ele>183.348679</ele>
        <time>2022-03-20T08:09:26Z</time>
      </trkpt>
      <trkpt lat="50.34984" lon="4.29542">
        <ele>183.496948</ele>
        <time>2022-03-20T08:09:28Z</time>
      </trkpt>
      <trkpt lat="50.34988" lon="4.29546">
        <ele>183.647293</ele>
        <time>2022-03-20T08:09:30Z</time>
      </trkpt>
      <trkpt lat="50.34992" lon="4.29547">
        <ele>183.75589</ele>
        <time>2022-03-20T08:09:32Z</time>
      </trkpt>
      <trkpt lat="50.34996" lon="4.29544">
        <ele>183.924286</ele>
        <time>2022-03-20T08:09:34Z</time>
      </trkpt>
      <trkpt lat="50.35" lon="4.29542">
        <ele>184.122269</ele>
        <time>2022-03-20T08:09:36Z</time>
      </trkpt>
      <trkpt lat="50.35004" lon="4.29542">
        <ele>184.293533</ele>
        <time>2022-03-20T08:09:38Z</time>
      </trkpt>
      <trkpt lat="50.35008" lon="4.29546">
        <ele>184.395752</ele>
        <time>2022-03-20T08:09:39Z</time>
      </trkpt>
      <trkpt lat="50.35011" lon="4.29553">
        <ele>184.554565</ele>
        <time>2022-03-20T08:09:42Z</time>
      </trkpt>
      <trkpt lat="50.35014" lon="4.29559">
        <ele>184.738358</ele>
        <time>2022-03-20T08:09:44Z</time>
      </trkpt>
      <trkpt lat="50.35019" lon="4.29565">
        <ele>184.844162</ele>
        <time>2022-03-20T08:09:46Z</time>
      </trkpt>
      <trkpt lat="50.35023" lon="4.29569">
        <ele>184.990356</ele>
        <time>2022-03-20T08:09:48Z</time>
      </trkpt>
      <trkpt lat="50.35027" lon="4.29572">
        <ele>185.213501</ele>
        <time>2022-03-20T08:09:50Z</time>
      </trkpt>
      <trkpt lat="50.3503" lon="4.29575">
        <ele>185.362183</ele>
        <time>2022-03-20T08:09:52Z</time>
      </trkpt>
      <trkpt lat="50.35033" lon="4.2958">
        <ele>185.46785</ele>
        <time>2022-03-20T08:09:54Z</time>
      </trkpt>
      <trkpt lat="50.35035" lon="4.29585">
        <ele>185.584503</ele>
        <time>2022-03-20T08:09:56Z</time>
      </trkpt>
      <trkpt lat="50.35037" lon="4.29593">
        <ele>185.725494</ele>
        <time>2022-03-20T08:09:58Z</time>
      </trkpt>
      <trkpt lat="50.35037" lon="4.29605">
        <ele>185.822372</ele>
        <time>2022-03-20T08:10:00Z</time>
      </trkpt>
      <trkpt lat="50.35039" lon="4.29616">
        <ele>185.96022</ele>
        <time>2022-03-20T08:10:02Z</time>
      </trkpt>
      <trkpt lat="50.35038" lon="4.29628">
        <ele>186.087616</ele>
        <time>2022-03-20T08:10:04Z</time>
      </trkpt>
      <trkpt lat="50.35038" lon="4.29639">
        <ele>186.162415</ele>
        <time>2022-03-20T08:10:06Z</time>
      </trkpt>
      <trkpt lat="50.35041" lon="4.29648">
        <ele>186.250137</ele>
        <time>2022-03-20T08:10:08Z</time>
      </trkpt>
      <trkpt lat="50.35045" lon="4.29658">
        <ele>186.367111</ele>
        <time>2022-03-20T08:10:10Z</time>
      </trkpt>
      <trkpt lat="50.35048" lon="4.29667">
        <ele>186.455048</ele>
        <time>2022-03-20T08:10:12Z</time>
      </trkpt>
      <trkpt lat="50.35046" lon="4.29674">
        <ele>186.509354</ele>
        <time>2022-03-20T08:10:14Z</time>
      </trkpt>
      <trkpt lat="50.35043" lon="4.29678">
        <ele>186.574112</ele>
        <time>2022-03-20T08:10:16Z</time>
      </trkpt>
      <trkpt lat="50.35037" lon="4.29681">
        <ele>186.640945</ele>
        <time>2022-03-20T08:10:18Z</time>
      </trkpt>
      <trkpt lat="50.35031" lon="4.29683">
        <ele>186.73912</ele>
        <time>2022-03-20T08:10:20Z</time>
      </trkpt>
      <trkpt lat="50.35024" lon="4.29683">
        <ele>186.80191</ele>
        <time>2022-03-20T08:10:22Z</time>
      </trkpt>
      <trkpt lat="50.35016" lon="4.29683">
        <ele>186.866653</ele>
        <time>2022-03-20T08:10:24Z</time>
      </trkpt>
      <trkpt lat="50.35011" lon="4.29683">
        <ele>186.893814</ele>
        <time>2022-03-20T08:10:26Z</time>
      </trkpt>
      <trkpt lat="50.35007" lon="4.29688">
        <ele>186.976898</ele>
        <time>2022-03-20T08:10:34Z</time>
      </trkpt>
      <trkpt lat="50.35006" lon="4.29692">
        <ele>187.031525</ele>
        <time>2022-03-20T08:10:36Z</time>
      </trkpt>
      <trkpt lat="50.35006" lon="4.29698">
        <ele>186.331268</ele>
        <time>2022-03-20T08:10:38Z</time>
      </trkpt>
      <trkpt lat="50.35006" lon="4.29707">
        <ele>186.362595</ele>
        <time>2022-03-20T08:10:40Z</time>
      </trkpt>
      <trkpt lat="50.35006" lon="4.29718">
        <ele>186.378723</ele>
        <time>2022-03-20T08:10:42Z</time>
      </trkpt>
      <trkpt lat="50.35002" lon="4.29724">
        <ele>186.375305</ele>
        <time>2022-03-20T08:10:44Z</time>
      </trkpt>
      <trkpt lat="50.35003" lon="4.2973">
        <ele>186.302216</ele>
        <time>2022-03-20T08:10:46Z</time>
      </trkpt>
      <trkpt lat="50.35003" lon="4.29739">
        <ele>186.177277</ele>
        <time>2022-03-20T08:10:48Z</time>
      </trkpt>
      <trkpt lat="50.35002" lon="4.29744">
        <ele>186.079132</ele>
        <time>2022-03-20T08:10:49Z</time>
      </trkpt>
      <trkpt lat="50.35004" lon="4.29757">
        <ele>185.884872</ele>
        <time>2022-03-20T08:10:51Z</time>
      </trkpt>
      <trkpt lat="50.35007" lon="4.2977">
        <ele>185.746811</ele>
        <time>2022-03-20T08:10:53Z</time>
      </trkpt>
      <trkpt lat="50.35008" lon="4.29781">
        <ele>185.711487</ele>
        <time>2022-03-20T08:10:55Z</time>
      </trkpt>
      <trkpt lat="50.35009" lon="4.29792">
        <ele>185.511002</ele>
        <time>2022-03-20T08:10:57Z</time>
      </trkpt>
      <trkpt lat="50.3501" lon="4.29803">
        <ele>185.454605</ele>
        <time>2022-03-20T08:10:59Z</time>
      </trkpt>
      <trkpt lat="50.35009" lon="4.29814">
        <ele>185.337631</ele>
        <time>2022-03-20T08:11:01Z</time>
      </trkpt>
      <trkpt lat="50.35009" lon="4.29825">
        <ele>185.185165</ele>
        <time>2022-03-20T08:11:03Z</time>
      </trkpt>
      <trkpt lat="50.35005" lon="4.29836">
        <ele>185.105804</ele>
        <time>2022-03-20T08:11:05Z</time>
      </trkpt>
      <trkpt lat="50.35" lon="4.29846">
        <ele>185.066101</ele>
        <time>2022-03-20T08:11:07Z</time>
      </trkpt>
      <trkpt lat="50.34991" lon="4.29856">
        <ele>184.969177</ele>
        <time>2022-03-20T08:11:09Z</time>
      </trkpt>
      <trkpt lat="50.34985" lon="4.29865">
        <ele>184.969177</ele>
        <time>2022-03-20T08:11:11Z</time>
      </trkpt>
      <trkpt lat="50.34981" lon="4.29878">
        <ele>184.883881</ele>
        <time>2022-03-20T08:11:13Z</time>
      </trkpt>
      <trkpt lat="50.34977" lon="4.29891">
        <ele>184.785736</ele>
        <time>2022-03-20T08:11:15Z</time>
      </trkpt>
      <trkpt lat="50.34974" lon="4.29904">
        <ele>184.693832</ele>
        <time>2022-03-20T08:11:17Z</time>
      </trkpt>
      <trkpt lat="50.34971" lon="4.29915">
        <ele>185.238373</ele>
        <time>2022-03-20T08:11:19Z</time>
      </trkpt>
      <trkpt lat="50.34968" lon="4.29931">
        <ele>185.194504</ele>
        <time>2022-03-20T08:11:21Z</time>
      </trkpt>
      <trkpt lat="50.34967" lon="4.29947">
        <ele>185.167938</ele>
        <time>2022-03-20T08:11:23Z</time>
      </trkpt>
      <trkpt lat="50.34967" lon="4.29961">
        <ele>185.114365</ele>
        <time>2022-03-20T08:11:25Z</time>
      </trkpt>
      <trkpt lat="50.34968" lon="4.29976">
        <ele>185.078857</ele>
        <time>2022-03-20T08:11:27Z</time>
      </trkpt>
      <trkpt lat="50.34971" lon="4.29989">
        <ele>185.105804</ele>
        <time>2022-03-20T08:11:29Z</time>
      </trkpt>
      <trkpt lat="50.34974" lon="4.30004">
        <ele>185.191437</ele>
        <time>2022-03-20T08:11:31Z</time>
      </trkpt>
      <trkpt lat="50.34977" lon="4.30016">
        <ele>185.370865</ele>
        <time>2022-03-20T08:11:33Z</time>
      </trkpt>
      <trkpt lat="50.3498" lon="4.30029">
        <ele>185.47113</ele>
        <time>2022-03-20T08:11:35Z</time>
      </trkpt>
      <trkpt lat="50.34986" lon="4.30038">
        <ele>185.456329</ele>
        <time>2022-03-20T08:11:37Z</time>
      </trkpt>
      <trkpt lat="50.34991" lon="4.30051">
        <ele>185.389542</ele>
        <time>2022-03-20T08:11:39Z</time>
      </trkpt>
      <trkpt lat="50.34995" lon="4.30064">
        <ele>185.41246</ele>
        <time>2022-03-20T08:11:41Z</time>
      </trkpt>
      <trkpt lat="50.35" lon="4.30075">
        <ele>185.521149</ele>
        <time>2022-03-20T08:11:43Z</time>
      </trkpt>
      <trkpt lat="50.35004" lon="4.30085">
        <ele>185.618958</ele>
        <time>2022-03-20T08:11:45Z</time>
      </trkpt>
      <trkpt lat="50.35008" lon="4.30097">
        <ele>185.790253</ele>
        <time>2022-03-20T08:11:47Z</time>
      </trkpt>
      <trkpt lat="50.35013" lon="4.30109">
        <ele>185.84787</ele>
        <time>2022-03-20T08:11:49Z</time>
      </trkpt>
      <trkpt lat="50.35017" lon="4.30121">
        <ele>185.856232</ele>
        <time>2022-03-20T08:11:51Z</time>
      </trkpt>
      <trkpt lat="50.35024" lon="4.30131">
        <ele>185.935593</ele>
        <time>2022-03-20T08:11:53Z</time>
      </trkpt>
      <trkpt lat="50.35029" lon="4.30141">
        <ele>186.139389</ele>
        <time>2022-03-20T08:11:55Z</time>
      </trkpt>
      <trkpt lat="50.35035" lon="4.30149">
        <ele>186.206223</ele>
        <time>2022-03-20T08:11:57Z</time>
      </trkpt>
      <trkpt lat="50.3504" lon="4.30156">
        <ele>186.259308</ele>
        <time>2022-03-20T08:11:59Z</time>
      </trkpt>
      <trkpt lat="50.35045" lon="4.30162">
        <ele>186.449356</ele>
        <time>2022-03-20T08:12:01Z</time>
      </trkpt>
      <trkpt lat="50.35051" lon="4.30169">
        <ele>186.443085</ele>
        <time>2022-03-20T08:12:03Z</time>
      </trkpt>
      <trkpt lat="50.35057" lon="4.30172">
        <ele>186.39299</ele>
        <time>2022-03-20T08:12:05Z</time>
      </trkpt>
      <trkpt lat="50.35065" lon="4.30179">
        <ele>186.627579</ele>
        <time>2022-03-20T08:12:07Z</time>
      </trkpt>
      <trkpt lat="50.35071" lon="4.30185">
        <ele>186.713409</ele>
        <time>2022-03-20T08:12:09Z</time>
      </trkpt>
      <trkpt lat="50.35078" lon="4.3019">
        <ele>186.567215</ele>
        <time>2022-03-20T08:12:11Z</time>
      </trkpt>
      <trkpt lat="50.35082" lon="4.30192">
        <ele>186.646088</ele>
        <time>2022-03-20T08:12:12Z</time>
      </trkpt>
      <trkpt lat="50.35088" lon="4.30201">
        <ele>186.595963</ele>
        <time>2022-03-20T08:12:14Z</time>
      </trkpt>
      <trkpt lat="50.35095" lon="4.30211">
        <ele>186.481262</ele>
        <time>2022-03-20T08:12:16Z</time>
      </trkpt>
      <trkpt lat="50.35101" lon="4.30223">
        <ele>186.512573</ele>
        <time>2022-03-20T08:12:18Z</time>
      </trkpt>
      <trkpt lat="50.35104" lon="4.30236">
        <ele>186.788223</ele>
        <time>2022-03-20T08:12:20Z</time>
      </trkpt>
      <trkpt lat="50.35106" lon="4.30249">
        <ele>186.692429</ele>
        <time>2022-03-20T08:12:22Z</time>
      </trkpt>
      <trkpt lat="50.35108" lon="4.30263">
        <ele>186.657669</ele>
        <time>2022-03-20T08:12:24Z</time>
      </trkpt>
      <trkpt lat="50.35111" lon="4.30275">
        <ele>187.009201</ele>
        <time>2022-03-20T08:12:26Z</time>
      </trkpt>
      <trkpt lat="50.35114" lon="4.30288">
        <ele>186.81076</ele>
        <time>2022-03-20T08:12:28Z</time>
      </trkpt>
      <trkpt lat="50.35116" lon="4.30295">
        <ele>186.798233</ele>
        <time>2022-03-20T08:12:29Z</time>
      </trkpt>
      <trkpt lat="50.35121" lon="4.30307">
        <ele>186.713715</ele>
        <time>2022-03-20T08:12:31Z</time>
      </trkpt>
      <trkpt lat="50.35127" lon="4.30319">
        <ele>186.628082</ele>
        <time>2022-03-20T08:12:33Z</time>
      </trkpt>
      <trkpt lat="50.35132" lon="4.30326">
        <ele>186.51738</ele>
        <time>2022-03-20T08:12:35Z</time>
      </trkpt>
      <trkpt lat="50.35138" lon="4.30328">
        <ele>186.505371</ele>
        <time>2022-03-20T08:12:37Z</time>
      </trkpt>
      <trkpt lat="50.35144" lon="4.30327">
        <ele>186.380753</ele>
        <time>2022-03-20T08:12:39Z</time>
      </trkpt>
      <trkpt lat="50.35152" lon="4.30326">
        <ele>186.282578</ele>
        <time>2022-03-20T08:12:41Z</time>
      </trkpt>
      <trkpt lat="50.35159" lon="4.30329">
        <ele>186.219925</ele>
        <time>2022-03-20T08:12:43Z</time>
      </trkpt>
      <trkpt lat="50.35166" lon="4.30334">
        <ele>186.088348</ele>
        <time>2022-03-20T08:12:45Z</time>
      </trkpt>
      <trkpt lat="50.35172" lon="4.30341">
        <ele>186.608704</ele>
        <time>2022-03-20T08:12:47Z</time>
      </trkpt>
      <trkpt lat="50.35178" lon="4.3035">
        <ele>186.368713</ele>
        <time>2022-03-20T08:12:49Z</time>
      </trkpt>
      <trkpt lat="50.35185" lon="4.30362">
        <ele>186.294983</ele>
        <time>2022-03-20T08:12:51Z</time>
      </trkpt>
      <trkpt lat="50.35191" lon="4.30374">
        <ele>186.336761</ele>
        <time>2022-03-20T08:12:53Z</time>
      </trkpt>
      <trkpt lat="50.35193" lon="4.30383">
        <ele>186.178543</ele>
        <time>2022-03-20T08:12:55Z</time>
      </trkpt>
      <trkpt lat="50.35198" lon="4.30393">
        <ele>185.896667</ele>
        <time>2022-03-20T08:12:57Z</time>
      </trkpt>
      <trkpt lat="50.35202" lon="4.30404">
        <ele>185.708588</ele>
        <time>2022-03-20T08:12:59Z</time>
      </trkpt>
      <trkpt lat="50.35208" lon="4.30414">
        <ele>185.449615</ele>
        <time>2022-03-20T08:13:01Z</time>
      </trkpt>
      <trkpt lat="50.35214" lon="4.30421">
        <ele>185.282318</ele>
        <time>2022-03-20T08:13:03Z</time>
      </trkpt>
      <trkpt lat="50.3522" lon="4.30427">
        <ele>185.133224</ele>
        <time>2022-03-20T08:13:05Z</time>
      </trkpt>
      <trkpt lat="50.35226" lon="4.30435">
        <ele>184.618881</ele>
        <time>2022-03-20T08:13:07Z</time>
      </trkpt>
      <trkpt lat="50.35231" lon="4.30442">
        <ele>184.506134</ele>
        <time>2022-03-20T08:13:09Z</time>
      </trkpt>
      <trkpt lat="50.35236" lon="4.30452">
        <ele>184.28363</ele>
        <time>2022-03-20T08:13:11Z</time>
      </trkpt>
      <trkpt lat="50.35244" lon="4.3046">
        <ele>184.061295</ele>
        <time>2022-03-20T08:13:13Z</time>
      </trkpt>
      <trkpt lat="50.35251" lon="4.30466">
        <ele>184.002838</ele>
        <time>2022-03-20T08:13:15Z</time>
      </trkpt>
      <trkpt lat="50.35258" lon="4.30472">
        <ele>183.845978</ele>
        <time>2022-03-20T08:13:17Z</time>
      </trkpt>
      <trkpt lat="50.35264" lon="4.30477">
        <ele>184.179962</ele>
        <time>2022-03-20T08:13:19Z</time>
      </trkpt>
      <trkpt lat="50.35271" lon="4.30482">
        <ele>183.996567</ele>
        <time>2022-03-20T08:13:21Z</time>
      </trkpt>
      <trkpt lat="50.3528" lon="4.30484">
        <ele>184.385361</ele>
        <time>2022-03-20T08:13:23Z</time>
      </trkpt>
      <trkpt lat="50.35288" lon="4.30487">
        <ele>184.287643</ele>
        <time>2022-03-20T08:13:25Z</time>
      </trkpt>
      <trkpt lat="50.35296" lon="4.3049">
        <ele>183.69838</ele>
        <time>2022-03-20T08:13:27Z</time>
      </trkpt>
      <trkpt lat="50.35305" lon="4.30496">
        <ele>183.338989</ele>
        <time>2022-03-20T08:13:29Z</time>
      </trkpt>
      <trkpt lat="50.35315" lon="4.30504">
        <ele>183.101578</ele>
        <time>2022-03-20T08:13:31Z</time>
      </trkpt>
      <trkpt lat="50.35323" lon="4.30518">
        <ele>182.821808</ele>
        <time>2022-03-20T08:13:33Z</time>
      </trkpt>
      <trkpt lat="50.35334" lon="4.30533">
        <ele>182.421005</ele>
        <time>2022-03-20T08:13:35Z</time>
      </trkpt>
      <trkpt lat="50.35342" lon="4.30547">
        <ele>182.308304</ele>
        <time>2022-03-20T08:13:37Z</time>
      </trkpt>
      <trkpt lat="50.35349" lon="4.30558">
        <ele>182.10173</ele>
        <time>2022-03-20T08:13:39Z</time>
      </trkpt>
      <trkpt lat="50.35357" lon="4.30571">
        <ele>181.984833</ele>
        <time>2022-03-20T08:13:41Z</time>
      </trkpt>
      <trkpt lat="50.35368" lon="4.30586">
        <ele>181.753143</ele>
        <time>2022-03-20T08:13:43Z</time>
      </trkpt>
      <trkpt lat="50.35378" lon="4.306">
        <ele>181.429596</ele>
        <time>2022-03-20T08:13:45Z</time>
      </trkpt>
      <trkpt lat="50.35386" lon="4.30612">
        <ele>181.03302</ele>
        <time>2022-03-20T08:13:47Z</time>
      </trkpt>
      <trkpt lat="50.35394" lon="4.30622">
        <ele>180.663818</ele>
        <time>2022-03-20T08:13:49Z</time>
      </trkpt>
      <trkpt lat="50.35401" lon="4.30633">
        <ele>180.302734</ele>
        <time>2022-03-20T08:13:51Z</time>
      </trkpt>
      <trkpt lat="50.35408" lon="4.30651">
        <ele>179.740326</ele>
        <time>2022-03-20T08:13:53Z</time>
      </trkpt>
      <trkpt lat="50.35413" lon="4.30669">
        <ele>179.452881</ele>
        <time>2022-03-20T08:13:55Z</time>
      </trkpt>
      <trkpt lat="50.35418" lon="4.30684">
        <ele>179.300751</ele>
        <time>2022-03-20T08:13:57Z</time>
      </trkpt>
      <trkpt lat="50.35425" lon="4.307">
        <ele>178.910446</ele>
        <time>2022-03-20T08:13:59Z</time>
      </trkpt>
      <trkpt lat="50.35435" lon="4.30714">
        <ele>177.90799</ele>
        <time>2022-03-20T08:14:01Z</time>
      </trkpt>
      <trkpt lat="50.35444" lon="4.30727">
        <ele>177.49913</ele>
        <time>2022-03-20T08:14:03Z</time>
      </trkpt>
      <trkpt lat="50.35453" lon="4.30738">
        <ele>176.430557</ele>
        <time>2022-03-20T08:14:05Z</time>
      </trkpt>
      <trkpt lat="50.3546" lon="4.30746">
        <ele>175.883942</ele>
        <time>2022-03-20T08:14:07Z</time>
      </trkpt>
      <trkpt lat="50.35468" lon="4.30755">
        <ele>175.39949</ele>
        <time>2022-03-20T08:14:09Z</time>
      </trkpt>
      <trkpt lat="50.35477" lon="4.30764">
        <ele>174.869553</ele>
        <time>2022-03-20T08:14:11Z</time>
      </trkpt>
      <trkpt lat="50.35485" lon="4.30771">
        <ele>174.37381</ele>
        <time>2022-03-20T08:14:13Z</time>
      </trkpt>
      <trkpt lat="50.35492" lon="4.30783">
        <ele>173.841873</ele>
        <time>2022-03-20T08:14:15Z</time>
      </trkpt>
      <trkpt lat="50.35502" lon="4.30792">
        <ele>173.370529</ele>
        <time>2022-03-20T08:14:17Z</time>
      </trkpt>
      <trkpt lat="50.35509" lon="4.30799">
        <ele>172.513351</ele>
        <time>2022-03-20T08:14:19Z</time>
      </trkpt>
      <trkpt lat="50.35517" lon="4.30806">
        <ele>171.731277</ele>
        <time>2022-03-20T08:14:21Z</time>
      </trkpt>
      <trkpt lat="50.35524" lon="4.30813">
        <ele>170.888763</ele>
        <time>2022-03-20T08:14:23Z</time>
      </trkpt>
      <trkpt lat="50.35533" lon="4.30821">
        <ele>170.452927</ele>
        <time>2022-03-20T08:14:25Z</time>
      </trkpt>
      <trkpt lat="50.35541" lon="4.30831">
        <ele>169.798874</ele>
        <time>2022-03-20T08:14:27Z</time>
      </trkpt>
      <trkpt lat="50.3555" lon="4.30837">
        <ele>168.950439</ele>
        <time>2022-03-20T08:14:29Z</time>
      </trkpt>
      <trkpt lat="50.35555" lon="4.30842">
        <ele>167.985199</ele>
        <time>2022-03-20T08:14:31Z</time>
      </trkpt>
      <trkpt lat="50.35557" lon="4.30843">
        <ele>167.524506</ele>
        <time>2022-03-20T08:14:33Z</time>
      </trkpt>
      <trkpt lat="50.35563" lon="4.30848">
        <ele>162.550812</ele>
        <time>2022-03-20T08:14:43Z</time>
      </trkpt>
      <trkpt lat="50.35568" lon="4.30852">
        <ele>161.500214</ele>
        <time>2022-03-20T08:14:45Z</time>
      </trkpt>
      <trkpt lat="50.35574" lon="4.30859">
        <ele>160.535187</ele>
        <time>2022-03-20T08:14:47Z</time>
      </trkpt>
      <trkpt lat="50.35592" lon="4.30877">
        <ele>159.514771</ele>
        <time>2022-03-20T08:14:49Z</time>
      </trkpt>
      <trkpt lat="50.35601" lon="4.30881">
        <ele>158.501694</ele>
        <time>2022-03-20T08:14:51Z</time>
      </trkpt>
      <trkpt lat="50.35605" lon="4.30885">
        <ele>157.543198</ele>
        <time>2022-03-20T08:14:53Z</time>
      </trkpt>
      <trkpt lat="50.3561" lon="4.30891">
        <ele>156.41127</ele>
        <time>2022-03-20T08:14:55Z</time>
      </trkpt>
      <trkpt lat="50.35616" lon="4.30896">
        <ele>155.255386</ele>
        <time>2022-03-20T08:14:57Z</time>
      </trkpt>
      <trkpt lat="50.35623" lon="4.30899">
        <ele>154.429871</ele>
        <time>2022-03-20T08:14:59Z</time>
      </trkpt>
      <trkpt lat="50.35634" lon="4.30907">
        <ele>153.678497</ele>
        <time>2022-03-20T08:15:01Z</time>
      </trkpt>
      <trkpt lat="50.35646" lon="4.30917">
        <ele>152.454529</ele>
        <time>2022-03-20T08:15:03Z</time>
      </trkpt>
      <trkpt lat="50.35658" lon="4.30927">
        <ele>150.946548</ele>
        <time>2022-03-20T08:15:05Z</time>
      </trkpt>
      <trkpt lat="50.35667" lon="4.30937">
        <ele>150.101212</ele>
        <time>2022-03-20T08:15:07Z</time>
      </trkpt>
      <trkpt lat="50.35677" lon="4.30945">
        <ele>149.161026</ele>
        <time>2022-03-20T08:15:09Z</time>
      </trkpt>
      <trkpt lat="50.35685" lon="4.3095">
        <ele>148.330673</ele>
        <time>2022-03-20T08:15:11Z</time>
      </trkpt>
      <trkpt lat="50.35697" lon="4.30953">
        <ele>147.916519</ele>
        <time>2022-03-20T08:15:13Z</time>
      </trkpt>
      <trkpt lat="50.35708" lon="4.30959">
        <ele>146.826355</ele>
        <time>2022-03-20T08:15:15Z</time>
      </trkpt>
      <trkpt lat="50.35719" lon="4.3096">
        <ele>145.748749</ele>
        <time>2022-03-20T08:15:17Z</time>
      </trkpt>
      <trkpt lat="50.35732" lon="4.30962">
        <ele>144.880676</ele>
        <time>2022-03-20T08:15:19Z</time>
      </trkpt>
      <trkpt lat="50.35745" lon="4.30964">
        <ele>144.006927</ele>
        <time>2022-03-20T08:15:21Z</time>
      </trkpt>
      <trkpt lat="50.35762" lon="4.30968">
        <ele>143.137405</ele>
        <time>2022-03-20T08:15:23Z</time>
      </trkpt>
      <trkpt lat="50.35774" lon="4.30972">
        <ele>142.282516</ele>
        <time>2022-03-20T08:15:25Z</time>
      </trkpt>
      <trkpt lat="50.35783" lon="4.30973">
        <ele>141.414368</ele>
        <time>2022-03-20T08:15:27Z</time>
      </trkpt>
      <trkpt lat="50.35795" lon="4.30973">
        <ele>140.522339</ele>
        <time>2022-03-20T08:15:29Z</time>
      </trkpt>
      <trkpt lat="50.35807" lon="4.3097">
        <ele>139.65567</ele>
        <time>2022-03-20T08:15:31Z</time>
      </trkpt>
      <trkpt lat="50.35819" lon="4.30964">
        <ele>138.738983</ele>
        <time>2022-03-20T08:15:33Z</time>
      </trkpt>
      <trkpt lat="50.35829" lon="4.30956">
        <ele>137.942627</ele>
        <time>2022-03-20T08:15:35Z</time>
      </trkpt>
      <trkpt lat="50.35843" lon="4.30945">
        <ele>137.298889</ele>
        <time>2022-03-20T08:15:37Z</time>
      </trkpt>
      <trkpt lat="50.35859" lon="4.30942">
        <ele>136.610733</ele>
        <time>2022-03-20T08:15:39Z</time>
      </trkpt>
      <trkpt lat="50.35873" lon="4.30942">
        <ele>135.719376</ele>
        <time>2022-03-20T08:15:41Z</time>
      </trkpt>
      <trkpt lat="50.35887" lon="4.30938">
        <ele>135.137268</ele>
        <time>2022-03-20T08:15:43Z</time>
      </trkpt>
      <trkpt lat="50.35902" lon="4.30932">
        <ele>134.673828</ele>
        <time>2022-03-20T08:15:45Z</time>
      </trkpt>
      <trkpt lat="50.35912" lon="4.3093">
        <ele>134.104355</ele>
        <time>2022-03-20T08:15:47Z</time>
      </trkpt>
      <trkpt lat="50.35922" lon="4.30926">
        <ele>133.829941</ele>
        <time>2022-03-20T08:15:49Z</time>
      </trkpt>
      <trkpt lat="50.35933" lon="4.3092">
        <ele>133.175751</ele>
        <time>2022-03-20T08:15:51Z</time>
      </trkpt>
      <trkpt lat="50.35946" lon="4.30914">
        <ele>132.674835</ele>
        <time>2022-03-20T08:15:53Z</time>
      </trkpt>
      <trkpt lat="50.35957" lon="4.30909">
        <ele>132.284149</ele>
        <time>2022-03-20T08:15:55Z</time>
      </trkpt>
      <trkpt lat="50.35967" lon="4.30903">
        <ele>132.180252</ele>
        <time>2022-03-20T08:15:57Z</time>
      </trkpt>
      <trkpt lat="50.35975" lon="4.30895">
        <ele>131.808777</ele>
        <time>2022-03-20T08:15:59Z</time>
      </trkpt>
      <trkpt lat="50.35985" lon="4.30889">
        <ele>131.355789</ele>
        <time>2022-03-20T08:16:01Z</time>
      </trkpt>
      <trkpt lat="50.35994" lon="4.30883">
        <ele>131.158386</ele>
        <time>2022-03-20T08:16:03Z</time>
      </trkpt>
      <trkpt lat="50.36005" lon="4.30876">
        <ele>130.884125</ele>
        <time>2022-03-20T08:16:05Z</time>
      </trkpt>
      <trkpt lat="50.36013" lon="4.30871">
        <ele>130.646515</ele>
        <time>2022-03-20T08:16:07Z</time>
      </trkpt>
      <trkpt lat="50.36022" lon="4.30867">
        <ele>130.407578</ele>
        <time>2022-03-20T08:16:09Z</time>
      </trkpt>
      <trkpt lat="50.36032" lon="4.30862">
        <ele>130.127106</ele>
        <time>2022-03-20T08:16:11Z</time>
      </trkpt>
      <trkpt lat="50.36041" lon="4.30854">
        <ele>129.940125</ele>
        <time>2022-03-20T08:16:13Z</time>
      </trkpt>
      <trkpt lat="50.36053" lon="4.30846">
        <ele>129.668015</ele>
        <time>2022-03-20T08:16:15Z</time>
      </trkpt>
      <trkpt lat="50.36058" lon="4.30843">
        <ele>129.636871</ele>
        <time>2022-03-20T08:16:16Z</time>
      </trkpt>
      <trkpt lat="50.36068" lon="4.30836">
        <ele>129.365997</ele>
        <time>2022-03-20T08:16:18Z</time>
      </trkpt>
      <trkpt lat="50.36078" lon="4.3083">
        <ele>129.085602</ele>
        <time>2022-03-20T08:16:20Z</time>
      </trkpt>
      <trkpt lat="50.36089" lon="4.30822">
        <ele>128.944351</ele>
        <time>2022-03-20T08:16:22Z</time>
      </trkpt>
      <trkpt lat="50.361" lon="4.30816">
        <ele>128.639038</ele>
        <time>2022-03-20T08:16:24Z</time>
      </trkpt>
      <trkpt lat="50.36112" lon="4.30809">
        <ele>128.360748</ele>
        <time>2022-03-20T08:16:26Z</time>
      </trkpt>
      <trkpt lat="50.36121" lon="4.30804">
        <ele>128.001434</ele>
        <time>2022-03-20T08:16:28Z</time>
      </trkpt>
      <trkpt lat="50.36131" lon="4.30797">
        <ele>127.785416</ele>
        <time>2022-03-20T08:16:30Z</time>
      </trkpt>
      <trkpt lat="50.3614" lon="4.30792">
        <ele>127.583969</ele>
        <time>2022-03-20T08:16:32Z</time>
      </trkpt>
      <trkpt lat="50.36146" lon="4.30787">
        <ele>127.396408</ele>
        <time>2022-03-20T08:16:34Z</time>
      </trkpt>
      <trkpt lat="50.36152" lon="4.30784">
        <ele>127.095276</ele>
        <time>2022-03-20T08:16:36Z</time>
      </trkpt>
      <trkpt lat="50.3616" lon="4.30782">
        <ele>126.748428</ele>
        <time>2022-03-20T08:16:38Z</time>
      </trkpt>
      <trkpt lat="50.36169" lon="4.30784">
        <ele>126.552322</ele>
        <time>2022-03-20T08:16:40Z</time>
      </trkpt>
      <trkpt lat="50.36177" lon="4.30793">
        <ele>126.25853</ele>
        <time>2022-03-20T08:16:42Z</time>
      </trkpt>
      <trkpt lat="50.36185" lon="4.30802">
        <ele>125.758072</ele>
        <time>2022-03-20T08:16:44Z</time>
      </trkpt>
      <trkpt lat="50.36194" lon="4.30814">
        <ele>125.263931</ele>
        <time>2022-03-20T08:16:46Z</time>
      </trkpt>
      <trkpt lat="50.36203" lon="4.30827">
        <ele>124.90126</ele>
        <time>2022-03-20T08:16:48Z</time>
      </trkpt>
      <trkpt lat="50.36213" lon="4.3084">
        <ele>124.415421</ele>
        <time>2022-03-20T08:16:50Z</time>
      </trkpt>
      <trkpt lat="50.36223" lon="4.30854">
        <ele>123.819656</ele>
        <time>2022-03-20T08:16:52Z</time>
      </trkpt>
      <trkpt lat="50.36234" lon="4.30866">
        <ele>123.279831</ele>
        <time>2022-03-20T08:16:54Z</time>
      </trkpt>
      <trkpt lat="50.36244" lon="4.30879">
        <ele>122.823196</ele>
        <time>2022-03-20T08:16:56Z</time>
      </trkpt>
      <trkpt lat="50.36254" lon="4.30889">
        <ele>122.379105</ele>
        <time>2022-03-20T08:16:58Z</time>
      </trkpt>
      <trkpt lat="50.36263" lon="4.30899">
        <ele>121.833153</ele>
        <time>2022-03-20T08:17:00Z</time>
      </trkpt>
      <trkpt lat="50.36273" lon="4.30905">
        <ele>121.920677</ele>
        <time>2022-03-20T08:17:02Z</time>
      </trkpt>
      <trkpt lat="50.36284" lon="4.30905">
        <ele>121.468155</ele>
        <time>2022-03-20T08:17:04Z</time>
      </trkpt>
      <trkpt lat="50.36294" lon="4.30901">
        <ele>121.349838</ele>
        <time>2022-03-20T08:17:06Z</time>
      </trkpt>
      <trkpt lat="50.36304" lon="4.30896">
        <ele>120.688339</ele>
        <time>2022-03-20T08:17:08Z</time>
      </trkpt>
      <trkpt lat="50.36315" lon="4.30891">
        <ele>120.275574</ele>
        <time>2022-03-20T08:17:10Z</time>
      </trkpt>
      <trkpt lat="50.36324" lon="4.30886">
        <ele>119.785561</ele>
        <time>2022-03-20T08:17:12Z</time>
      </trkpt>
      <trkpt lat="50.36334" lon="4.30881">
        <ele>119.311119</ele>
        <time>2022-03-20T08:17:14Z</time>
      </trkpt>
      <trkpt lat="50.36344" lon="4.30876">
        <ele>118.794724</ele>
        <time>2022-03-20T08:17:16Z</time>
      </trkpt>
      <trkpt lat="50.36354" lon="4.30872">
        <ele>118.302963</ele>
        <time>2022-03-20T08:17:18Z</time>
      </trkpt>
      <trkpt lat="50.36364" lon="4.30869">
        <ele>118.358139</ele>
        <time>2022-03-20T08:17:20Z</time>
      </trkpt>
      <trkpt lat="50.36374" lon="4.30865">
        <ele>117.890114</ele>
        <time>2022-03-20T08:17:22Z</time>
      </trkpt>
      <trkpt lat="50.36384" lon="4.30863">
        <ele>117.172691</ele>
        <time>2022-03-20T08:17:24Z</time>
      </trkpt>
      <trkpt lat="50.36394" lon="4.3086">
        <ele>116.79509</ele>
        <time>2022-03-20T08:17:26Z</time>
      </trkpt>
      <trkpt lat="50.36399" lon="4.30859">
        <ele>116.715187</ele>
        <time>2022-03-20T08:17:27Z</time>
      </trkpt>
      <trkpt lat="50.36409" lon="4.30856">
        <ele>116.277367</ele>
        <time>2022-03-20T08:17:29Z</time>
      </trkpt>
      <trkpt lat="50.36419" lon="4.30852">
        <ele>115.976791</ele>
        <time>2022-03-20T08:17:31Z</time>
      </trkpt>
      <trkpt lat="50.36429" lon="4.3085">
        <ele>115.814987</ele>
        <time>2022-03-20T08:17:33Z</time>
      </trkpt>
      <trkpt lat="50.36439" lon="4.30848">
        <ele>115.489319</ele>
        <time>2022-03-20T08:17:35Z</time>
      </trkpt>
      <trkpt lat="50.36449" lon="4.30846">
        <ele>115.447838</ele>
        <time>2022-03-20T08:17:37Z</time>
      </trkpt>
      <trkpt lat="50.36458" lon="4.30846">
        <ele>115.126144</ele>
        <time>2022-03-20T08:17:39Z</time>
      </trkpt>
      <trkpt lat="50.36467" lon="4.30847">
        <ele>114.807297</ele>
        <time>2022-03-20T08:17:41Z</time>
      </trkpt>
      <trkpt lat="50.36475" lon="4.30848">
        <ele>114.665482</ele>
        <time>2022-03-20T08:17:43Z</time>
      </trkpt>
      <trkpt lat="50.36483" lon="4.30849">
        <ele>113.876587</ele>
        <time>2022-03-20T08:17:45Z</time>
      </trkpt>
      <trkpt lat="50.36491" lon="4.3085">
        <ele>113.44503</ele>
        <time>2022-03-20T08:17:47Z</time>
      </trkpt>
      <trkpt lat="50.36495" lon="4.3085">
        <ele>113.291519</ele>
        <time>2022-03-20T08:17:48Z</time>
      </trkpt>
      <trkpt lat="50.36501" lon="4.30849">
        <ele>113.48555</ele>
        <time>2022-03-20T08:17:50Z</time>
      </trkpt>
      <trkpt lat="50.36509" lon="4.30848">
        <ele>113.294899</ele>
        <time>2022-03-20T08:17:52Z</time>
      </trkpt>
      <trkpt lat="50.36516" lon="4.30848">
        <ele>113.108032</ele>
        <time>2022-03-20T08:17:54Z</time>
      </trkpt>
      <trkpt lat="50.36524" lon="4.30848">
        <ele>113.128769</ele>
        <time>2022-03-20T08:17:56Z</time>
      </trkpt>
      <trkpt lat="50.36532" lon="4.30849">
        <ele>112.838013</ele>
        <time>2022-03-20T08:17:58Z</time>
      </trkpt>
      <trkpt lat="50.3654" lon="4.3085">
        <ele>112.87117</ele>
        <time>2022-03-20T08:18:00Z</time>
      </trkpt>
      <trkpt lat="50.36547" lon="4.30851">
        <ele>112.156998</ele>
        <time>2022-03-20T08:18:02Z</time>
      </trkpt>
      <trkpt lat="50.36554" lon="4.30853">
        <ele>112.473999</ele>
        <time>2022-03-20T08:18:04Z</time>
      </trkpt>
      <trkpt lat="50.3656" lon="4.30856">
        <ele>112.368225</ele>
        <time>2022-03-20T08:18:06Z</time>
      </trkpt>
      <trkpt lat="50.36565" lon="4.30857">
        <ele>112.33297</ele>
        <time>2022-03-20T08:18:08Z</time>
      </trkpt>
      <trkpt lat="50.36572" lon="4.30859">
        <ele>112.180557</ele>
        <time>2022-03-20T08:18:10Z</time>
      </trkpt>
      <trkpt lat="50.36579" lon="4.30861">
        <ele>112.060013</ele>
        <time>2022-03-20T08:18:12Z</time>
      </trkpt>
      <trkpt lat="50.36586" lon="4.30864">
        <ele>112.018539</ele>
        <time>2022-03-20T08:18:14Z</time>
      </trkpt>
      <trkpt lat="50.36593" lon="4.30866">
        <ele>111.995728</ele>
        <time>2022-03-20T08:18:16Z</time>
      </trkpt>
      <trkpt lat="50.366" lon="4.30869">
        <ele>111.964622</ele>
        <time>2022-03-20T08:18:18Z</time>
      </trkpt>
      <trkpt lat="50.36608" lon="4.30872">
        <ele>111.910851</ele>
        <time>2022-03-20T08:18:20Z</time>
      </trkpt>
      <trkpt lat="50.36615" lon="4.30874">
        <ele>111.908226</ele>
        <time>2022-03-20T08:18:22Z</time>
      </trkpt>
      <trkpt lat="50.36622" lon="4.30876">
        <ele>111.821899</ele>
        <time>2022-03-20T08:18:24Z</time>
      </trkpt>
      <trkpt lat="50.36629" lon="4.30878">
        <ele>111.86544</ele>
        <time>2022-03-20T08:18:26Z</time>
      </trkpt>
      <trkpt lat="50.36635" lon="4.30881">
        <ele>111.797012</ele>
        <time>2022-03-20T08:18:28Z</time>
      </trkpt>
      <trkpt lat="50.36641" lon="4.30885">
        <ele>111.681259</ele>
        <time>2022-03-20T08:18:30Z</time>
      </trkpt>
      <trkpt lat="50.3665" lon="4.30889">
        <ele>111.662582</ele>
        <time>2022-03-20T08:18:32Z</time>
      </trkpt>
      <trkpt lat="50.36659" lon="4.30894">
        <ele>111.621109</ele>
        <time>2022-03-20T08:18:34Z</time>
      </trkpt>
      <trkpt lat="50.36671" lon="4.30901">
        <ele>111.601089</ele>
        <time>2022-03-20T08:18:36Z</time>
      </trkpt>
      <trkpt lat="50.36684" lon="4.30906">
        <ele>111.657082</ele>
        <time>2022-03-20T08:18:38Z</time>
      </trkpt>
      <trkpt lat="50.36692" lon="4.30909">
        <ele>111.665382</ele>
        <time>2022-03-20T08:18:40Z</time>
      </trkpt>
      <trkpt lat="50.36697" lon="4.30912">
        <ele>111.672607</ele>
        <time>2022-03-20T08:18:42Z</time>
      </trkpt>
      <trkpt lat="50.36704" lon="4.30916">
        <ele>111.658096</ele>
        <time>2022-03-20T08:18:45Z</time>
      </trkpt>
      <trkpt lat="50.36709" lon="4.3092">
        <ele>111.761795</ele>
        <time>2022-03-20T08:18:47Z</time>
      </trkpt>
      <trkpt lat="50.36718" lon="4.30928">
        <ele>111.853104</ele>
        <time>2022-03-20T08:18:49Z</time>
      </trkpt>
      <trkpt lat="50.36724" lon="4.30931">
        <ele>111.927757</ele>
        <time>2022-03-20T08:18:52Z</time>
      </trkpt>
      <trkpt lat="50.36732" lon="4.30938">
        <ele>112.178711</ele>
        <time>2022-03-20T08:18:54Z</time>
      </trkpt>
      <trkpt lat="50.36739" lon="4.30947">
        <ele>112.149704</ele>
        <time>2022-03-20T08:18:56Z</time>
      </trkpt>
      <trkpt lat="50.36747" lon="4.30954">
        <ele>112.269997</ele>
        <time>2022-03-20T08:18:58Z</time>
      </trkpt>
      <trkpt lat="50.36754" lon="4.30962">
        <ele>112.412292</ele>
        <time>2022-03-20T08:19:00Z</time>
      </trkpt>
      <trkpt lat="50.36762" lon="4.30969">
        <ele>113.215454</ele>
        <time>2022-03-20T08:19:02Z</time>
      </trkpt>
      <trkpt lat="50.3677" lon="4.30977">
        <ele>113.34819</ele>
        <time>2022-03-20T08:19:04Z</time>
      </trkpt>
      <trkpt lat="50.36777" lon="4.30984">
        <ele>113.445663</ele>
        <time>2022-03-20T08:19:06Z</time>
      </trkpt>
      <trkpt lat="50.36785" lon="4.30992">
        <ele>113.553513</ele>
        <time>2022-03-20T08:19:08Z</time>
      </trkpt>
      <trkpt lat="50.36792" lon="4.31002">
        <ele>113.731873</ele>
        <time>2022-03-20T08:19:10Z</time>
      </trkpt>
      <trkpt lat="50.36797" lon="4.31009">
        <ele>113.868752</ele>
        <time>2022-03-20T08:19:12Z</time>
      </trkpt>
      <trkpt lat="50.36803" lon="4.31016">
        <ele>113.990112</ele>
        <time>2022-03-20T08:19:14Z</time>
      </trkpt>
      <trkpt lat="50.36809" lon="4.31022">
        <ele>114.189224</ele>
        <time>2022-03-20T08:19:16Z</time>
      </trkpt>
      <trkpt lat="50.36815" lon="4.3103">
        <ele>114.368958</ele>
        <time>2022-03-20T08:19:18Z</time>
      </trkpt>
      <trkpt lat="50.36821" lon="4.31036">
        <ele>114.397751</ele>
        <time>2022-03-20T08:19:20Z</time>
      </trkpt>
      <trkpt lat="50.36825" lon="4.31042">
        <ele>114.559525</ele>
        <time>2022-03-20T08:19:22Z</time>
      </trkpt>
      <trkpt lat="50.36828" lon="4.31045">
        <ele>114.745193</ele>
        <time>2022-03-20T08:19:24Z</time>
      </trkpt>
      <trkpt lat="50.36831" lon="4.31046">
        <ele>114.956764</ele>
        <time>2022-03-20T08:19:28Z</time>
      </trkpt>
      <trkpt lat="50.36832" lon="4.3105">
        <ele>115.131699</ele>
        <time>2022-03-20T08:19:30Z</time>
      </trkpt>
      <trkpt lat="50.36832" lon="4.31053">
        <ele>115.278236</ele>
        <time>2022-03-20T08:19:32Z</time>
      </trkpt>
      <trkpt lat="50.36831" lon="4.31056">
        <ele>115.325943</ele>
        <time>2022-03-20T08:19:34Z</time>
      </trkpt>
      <trkpt lat="50.36829" lon="4.31059">
        <ele>115.357056</ele>
        <time>2022-03-20T08:19:36Z</time>
      </trkpt>
      <trkpt lat="50.36828" lon="4.31065">
        <ele>115.106461</ele>
        <time>2022-03-20T08:20:28Z</time>
      </trkpt>
      <trkpt lat="50.36824" lon="4.3107">
        <ele>115.002747</ele>
        <time>2022-03-20T08:20:30Z</time>
      </trkpt>
      <trkpt lat="50.36821" lon="4.31076">
        <ele>114.95089</ele>
        <time>2022-03-20T08:20:32Z</time>
      </trkpt>
      <trkpt lat="50.36817" lon="4.31081">
        <ele>114.882431</ele>
        <time>2022-03-20T08:20:34Z</time>
      </trkpt>
      <trkpt lat="50.36813" lon="4.31088">
        <ele>114.843018</ele>
        <time>2022-03-20T08:20:36Z</time>
      </trkpt>
      <trkpt lat="50.36812" lon="4.31095">
        <ele>114.778709</ele>
        <time>2022-03-20T08:20:38Z</time>
      </trkpt>
      <trkpt lat="50.36813" lon="4.31103">
        <ele>114.7808</ele>
        <time>2022-03-20T08:20:40Z</time>
      </trkpt>
      <trkpt lat="50.36815" lon="4.3111">
        <ele>114.793251</ele>
        <time>2022-03-20T08:20:42Z</time>
      </trkpt>
      <trkpt lat="50.36818" lon="4.31116">
        <ele>114.813988</ele>
        <time>2022-03-20T08:20:44Z</time>
      </trkpt>
      <trkpt lat="50.36821" lon="4.31121">
        <ele>114.828514</ele>
        <time>2022-03-20T08:20:46Z</time>
      </trkpt>
      <trkpt lat="50.36826" lon="4.31126">
        <ele>114.909424</ele>
        <time>2022-03-20T08:20:48Z</time>
      </trkpt>
      <trkpt lat="50.36831" lon="4.31132">
        <ele>115.544861</ele>
        <time>2022-03-20T08:20:50Z</time>
      </trkpt>
      <trkpt lat="50.36836" lon="4.31138">
        <ele>115.669334</ele>
        <time>2022-03-20T08:20:52Z</time>
      </trkpt>
      <trkpt lat="50.36841" lon="4.31145">
        <ele>115.791748</ele>
        <time>2022-03-20T08:20:54Z</time>
      </trkpt>
      <trkpt lat="50.36843" lon="4.31148">
        <ele>115.887184</ele>
        <time>2022-03-20T08:20:55Z</time>
      </trkpt>
      <trkpt lat="50.36848" lon="4.31156">
        <ele>115.953575</ele>
        <time>2022-03-20T08:20:57Z</time>
      </trkpt>
      <trkpt lat="50.36852" lon="4.31163">
        <ele>116.125</ele>
        <time>2022-03-20T08:20:59Z</time>
      </trkpt>
      <trkpt lat="50.36857" lon="4.31171">
        <ele>116.317276</ele>
        <time>2022-03-20T08:21:01Z</time>
      </trkpt>
      <trkpt lat="50.36861" lon="4.3118">
        <ele>116.555664</ele>
        <time>2022-03-20T08:21:03Z</time>
      </trkpt>
      <trkpt lat="50.36866" lon="4.31189">
        <ele>116.794266</ele>
        <time>2022-03-20T08:21:05Z</time>
      </trkpt>
      <trkpt lat="50.3687" lon="4.31199">
        <ele>117.032883</ele>
        <time>2022-03-20T08:21:07Z</time>
      </trkpt>
      <trkpt lat="50.36874" lon="4.3121">
        <ele>117.290176</ele>
        <time>2022-03-20T08:21:09Z</time>
      </trkpt>
      <trkpt lat="50.36876" lon="4.31221">
        <ele>117.671959</ele>
        <time>2022-03-20T08:21:11Z</time>
      </trkpt>
      <trkpt lat="50.36878" lon="4.31231">
        <ele>118.03923</ele>
        <time>2022-03-20T08:21:13Z</time>
      </trkpt>
      <trkpt lat="50.3688" lon="4.31243">
        <ele>118.416885</ele>
        <time>2022-03-20T08:21:15Z</time>
      </trkpt>
      <trkpt lat="50.36882" lon="4.31255">
        <ele>118.763412</ele>
        <time>2022-03-20T08:21:17Z</time>
      </trkpt>
      <trkpt lat="50.36884" lon="4.31267">
        <ele>119.174271</ele>
        <time>2022-03-20T08:21:19Z</time>
      </trkpt>
      <trkpt lat="50.36886" lon="4.3128">
        <ele>119.508362</ele>
        <time>2022-03-20T08:21:21Z</time>
      </trkpt>
      <trkpt lat="50.36887" lon="4.31293">
        <ele>119.765671</ele>
        <time>2022-03-20T08:21:23Z</time>
      </trkpt>
      <trkpt lat="50.36889" lon="4.31306">
        <ele>120.05619</ele>
        <time>2022-03-20T08:21:25Z</time>
      </trkpt>
      <trkpt lat="50.36892" lon="4.31318">
        <ele>120.224281</ele>
        <time>2022-03-20T08:21:27Z</time>
      </trkpt>
      <trkpt lat="50.36895" lon="4.3133">
        <ele>120.522659</ele>
        <time>2022-03-20T08:21:29Z</time>
      </trkpt>
      <trkpt lat="50.36898" lon="4.31342">
        <ele>120.284767</ele>
        <time>2022-03-20T08:21:31Z</time>
      </trkpt>
      <trkpt lat="50.36901" lon="4.31352">
        <ele>120.556664</ele>
        <time>2022-03-20T08:21:33Z</time>
      </trkpt>
      <trkpt lat="50.36903" lon="4.31363">
        <ele>120.901108</ele>
        <time>2022-03-20T08:21:35Z</time>
      </trkpt>
      <trkpt lat="50.36906" lon="4.31374">
        <ele>121.183388</ele>
        <time>2022-03-20T08:21:37Z</time>
      </trkpt>
      <trkpt lat="50.36909" lon="4.31384">
        <ele>121.513443</ele>
        <time>2022-03-20T08:21:39Z</time>
      </trkpt>
      <trkpt lat="50.36911" lon="4.31394">
        <ele>121.837296</ele>
        <time>2022-03-20T08:21:41Z</time>
      </trkpt>
      <trkpt lat="50.36914" lon="4.31404">
        <ele>122.157471</ele>
        <time>2022-03-20T08:21:43Z</time>
      </trkpt>
      <trkpt lat="50.36917" lon="4.31414">
        <ele>122.387894</ele>
        <time>2022-03-20T08:21:45Z</time>
      </trkpt>
      <trkpt lat="50.36919" lon="4.31425">
        <ele>122.647385</ele>
        <time>2022-03-20T08:21:47Z</time>
      </trkpt>
      <trkpt lat="50.3692" lon="4.31435">
        <ele>122.942177</ele>
        <time>2022-03-20T08:21:49Z</time>
      </trkpt>
      <trkpt lat="50.36923" lon="4.31445">
        <ele>123.241127</ele>
        <time>2022-03-20T08:21:51Z</time>
      </trkpt>
      <trkpt lat="50.36924" lon="4.31455">
        <ele>123.506882</ele>
        <time>2022-03-20T08:21:53Z</time>
      </trkpt>
      <trkpt lat="50.36926" lon="4.31465">
        <ele>123.776794</ele>
        <time>2022-03-20T08:21:55Z</time>
      </trkpt>
      <trkpt lat="50.36927" lon="4.31475">
        <ele>124.05088</ele>
        <time>2022-03-20T08:21:57Z</time>
      </trkpt>
      <trkpt lat="50.36929" lon="4.31485">
        <ele>124.351952</ele>
        <time>2022-03-20T08:21:59Z</time>
      </trkpt>
      <trkpt lat="50.36931" lon="4.31495">
        <ele>124.644791</ele>
        <time>2022-03-20T08:22:01Z</time>
      </trkpt>
      <trkpt lat="50.36932" lon="4.31505">
        <ele>124.788063</ele>
        <time>2022-03-20T08:22:03Z</time>
      </trkpt>
      <trkpt lat="50.36934" lon="4.31515">
        <ele>125.209557</ele>
        <time>2022-03-20T08:22:05Z</time>
      </trkpt>
      <trkpt lat="50.36935" lon="4.31525">
        <ele>125.593689</ele>
        <time>2022-03-20T08:22:07Z</time>
      </trkpt>
      <trkpt lat="50.36937" lon="4.31534">
        <ele>125.918076</ele>
        <time>2022-03-20T08:22:09Z</time>
      </trkpt>
      <trkpt lat="50.36937" lon="4.31544">
        <ele>126.250809</ele>
        <time>2022-03-20T08:22:11Z</time>
      </trkpt>
      <trkpt lat="50.36934" lon="4.31552">
        <ele>126.591782</ele>
        <time>2022-03-20T08:22:13Z</time>
      </trkpt>
      <trkpt lat="50.36929" lon="4.31557">
        <ele>126.903404</ele>
        <time>2022-03-20T08:22:15Z</time>
      </trkpt>
      <trkpt lat="50.36924" lon="4.31562">
        <ele>127.221191</ele>
        <time>2022-03-20T08:22:17Z</time>
      </trkpt>
      <trkpt lat="50.36919" lon="4.31567">
        <ele>127.563866</ele>
        <time>2022-03-20T08:22:19Z</time>
      </trkpt>
      <trkpt lat="50.36914" lon="4.31571">
        <ele>127.879593</ele>
        <time>2022-03-20T08:22:21Z</time>
      </trkpt>
      <trkpt lat="50.36908" lon="4.31576">
        <ele>128.177567</ele>
        <time>2022-03-20T08:22:23Z</time>
      </trkpt>
      <trkpt lat="50.36904" lon="4.3158">
        <ele>128.563904</ele>
        <time>2022-03-20T08:22:25Z</time>
      </trkpt>
      <trkpt lat="50.36902" lon="4.31583">
        <ele>128.748764</ele>
        <time>2022-03-20T08:22:26Z</time>
      </trkpt>
      <trkpt lat="50.36897" lon="4.31587">
        <ele>129.095932</ele>
        <time>2022-03-20T08:22:28Z</time>
      </trkpt>
      <trkpt lat="50.36893" lon="4.31591">
        <ele>129.474014</ele>
        <time>2022-03-20T08:22:30Z</time>
      </trkpt>
      <trkpt lat="50.36889" lon="4.31595">
        <ele>129.825089</ele>
        <time>2022-03-20T08:22:32Z</time>
      </trkpt>
      <trkpt lat="50.36884" lon="4.316">
        <ele>130.203186</ele>
        <time>2022-03-20T08:22:34Z</time>
      </trkpt>
      <trkpt lat="50.3688" lon="4.31604">
        <ele>130.556366</ele>
        <time>2022-03-20T08:22:36Z</time>
      </trkpt>
      <trkpt lat="50.36876" lon="4.31608">
        <ele>130.730881</ele>
        <time>2022-03-20T08:22:38Z</time>
      </trkpt>
      <trkpt lat="50.36871" lon="4.31612">
        <ele>131.07991</ele>
        <time>2022-03-20T08:22:40Z</time>
      </trkpt>
      <trkpt lat="50.36868" lon="4.31616">
        <ele>131.455978</ele>
        <time>2022-03-20T08:22:42Z</time>
      </trkpt>
      <trkpt lat="50.36864" lon="4.31621">
        <ele>131.815338</ele>
        <time>2022-03-20T08:22:44Z</time>
      </trkpt>
      <trkpt lat="50.3686" lon="4.31625">
        <ele>132.172516</ele>
        <time>2022-03-20T08:22:46Z</time>
      </trkpt>
      <trkpt lat="50.36856" lon="4.3163">
        <ele>132.55954</ele>
        <time>2022-03-20T08:22:48Z</time>
      </trkpt>
      <trkpt lat="50.36852" lon="4.31633">
        <ele>132.956696</ele>
        <time>2022-03-20T08:22:50Z</time>
      </trkpt>
      <trkpt lat="50.36848" lon="4.31637">
        <ele>133.41713</ele>
        <time>2022-03-20T08:22:52Z</time>
      </trkpt>
      <trkpt lat="50.36844" lon="4.31641">
        <ele>133.821442</ele>
        <time>2022-03-20T08:22:54Z</time>
      </trkpt>
      <trkpt lat="50.3684" lon="4.31645">
        <ele>134.282852</ele>
        <time>2022-03-20T08:22:56Z</time>
      </trkpt>
      <trkpt lat="50.36836" lon="4.31649">
        <ele>134.700623</ele>
        <time>2022-03-20T08:22:58Z</time>
      </trkpt>
      <trkpt lat="50.36831" lon="4.31653">
        <ele>135.205704</ele>
        <time>2022-03-20T08:23:00Z</time>
      </trkpt>
      <trkpt lat="50.36826" lon="4.31657">
        <ele>135.621811</ele>
        <time>2022-03-20T08:23:02Z</time>
      </trkpt>
      <trkpt lat="50.36822" lon="4.31661">
        <ele>136.049072</ele>
        <time>2022-03-20T08:23:04Z</time>
      </trkpt>
      <trkpt lat="50.36818" lon="4.31666">
        <ele>136.427399</ele>
        <time>2022-03-20T08:23:06Z</time>
      </trkpt>
      <trkpt lat="50.36815" lon="4.31668">
        <ele>136.666428</ele>
        <time>2022-03-20T08:23:07Z</time>
      </trkpt>
      <trkpt lat="50.36811" lon="4.31672">
        <ele>137.106888</ele>
        <time>2022-03-20T08:23:09Z</time>
      </trkpt>
      <trkpt lat="50.36806" lon="4.31677">
        <ele>137.302292</ele>
        <time>2022-03-20T08:23:11Z</time>
      </trkpt>
      <trkpt lat="50.36802" lon="4.31681">
        <ele>137.665573</ele>
        <time>2022-03-20T08:23:13Z</time>
      </trkpt>
      <trkpt lat="50.36797" lon="4.31686">
        <ele>138.081345</ele>
        <time>2022-03-20T08:23:15Z</time>
      </trkpt>
      <trkpt lat="50.36792" lon="4.3169">
        <ele>138.5242</ele>
        <time>2022-03-20T08:23:17Z</time>
      </trkpt>
      <trkpt lat="50.36787" lon="4.31694">
        <ele>138.942108</ele>
        <time>2022-03-20T08:23:19Z</time>
      </trkpt>
      <trkpt lat="50.36783" lon="4.31698">
        <ele>139.387039</ele>
        <time>2022-03-20T08:23:21Z</time>
      </trkpt>
      <trkpt lat="50.36779" lon="4.31702">
        <ele>139.780029</ele>
        <time>2022-03-20T08:23:23Z</time>
      </trkpt>
      <trkpt lat="50.36774" lon="4.31706">
        <ele>140.25412</ele>
        <time>2022-03-20T08:23:25Z</time>
      </trkpt>
      <trkpt lat="50.36771" lon="4.3171">
        <ele>140.657715</ele>
        <time>2022-03-20T08:23:27Z</time>
      </trkpt>
      <trkpt lat="50.36766" lon="4.31714">
        <ele>141.077271</ele>
        <time>2022-03-20T08:23:29Z</time>
      </trkpt>
      <trkpt lat="50.36762" lon="4.31718">
        <ele>141.461838</ele>
        <time>2022-03-20T08:23:31Z</time>
      </trkpt>
      <trkpt lat="50.36758" lon="4.31722">
        <ele>141.789719</ele>
        <time>2022-03-20T08:23:33Z</time>
      </trkpt>
      <trkpt lat="50.36754" lon="4.31726">
        <ele>142.200195</ele>
        <time>2022-03-20T08:23:35Z</time>
      </trkpt>
      <trkpt lat="50.36749" lon="4.3173">
        <ele>142.564178</ele>
        <time>2022-03-20T08:23:37Z</time>
      </trkpt>
      <trkpt lat="50.36745" lon="4.31733">
        <ele>142.914108</ele>
        <time>2022-03-20T08:23:39Z</time>
      </trkpt>
      <trkpt lat="50.36741" lon="4.31737">
        <ele>143.267746</ele>
        <time>2022-03-20T08:23:41Z</time>
      </trkpt>
      <trkpt lat="50.36736" lon="4.31742">
        <ele>143.602249</ele>
        <time>2022-03-20T08:23:43Z</time>
      </trkpt>
      <trkpt lat="50.36732" lon="4.31746">
        <ele>143.972275</ele>
        <time>2022-03-20T08:23:45Z</time>
      </trkpt>
      <trkpt lat="50.36728" lon="4.31749">
        <ele>144.409149</ele>
        <time>2022-03-20T08:23:47Z</time>
      </trkpt>
      <trkpt lat="50.36723" lon="4.31753">
        <ele>144.590134</ele>
        <time>2022-03-20T08:23:49Z</time>
      </trkpt>
      <trkpt lat="50.36719" lon="4.31757">
        <ele>144.956284</ele>
        <time>2022-03-20T08:23:51Z</time>
      </trkpt>
      <trkpt lat="50.36715" lon="4.3176">
        <ele>145.418686</ele>
        <time>2022-03-20T08:23:53Z</time>
      </trkpt>
      <trkpt lat="50.36711" lon="4.31763">
        <ele>145.818146</ele>
        <time>2022-03-20T08:23:55Z</time>
      </trkpt>
      <trkpt lat="50.36707" lon="4.31765">
        <ele>146.210907</ele>
        <time>2022-03-20T08:23:57Z</time>
      </trkpt>
      <trkpt lat="50.36703" lon="4.3177">
        <ele>146.634384</ele>
        <time>2022-03-20T08:23:59Z</time>
      </trkpt>
      <trkpt lat="50.36699" lon="4.31774">
        <ele>147.025604</ele>
        <time>2022-03-20T08:24:01Z</time>
      </trkpt>
      <trkpt lat="50.36694" lon="4.31778">
        <ele>147.516693</ele>
        <time>2022-03-20T08:24:03Z</time>
      </trkpt>
      <trkpt lat="50.3669" lon="4.31781">
        <ele>147.957855</ele>
        <time>2022-03-20T08:24:05Z</time>
      </trkpt>
      <trkpt lat="50.36686" lon="4.31785">
        <ele>148.340851</ele>
        <time>2022-03-20T08:24:07Z</time>
      </trkpt>
      <trkpt lat="50.36682" lon="4.31789">
        <ele>148.759155</ele>
        <time>2022-03-20T08:24:09Z</time>
      </trkpt>
      <trkpt lat="50.36678" lon="4.31793">
        <ele>149.158752</ele>
        <time>2022-03-20T08:24:11Z</time>
      </trkpt>
      <trkpt lat="50.36673" lon="4.31797">
        <ele>149.520752</ele>
        <time>2022-03-20T08:24:13Z</time>
      </trkpt>
      <trkpt lat="50.36669" lon="4.31802">
        <ele>149.982391</ele>
        <time>2022-03-20T08:24:15Z</time>
      </trkpt>
      <trkpt lat="50.36665" lon="4.31807">
        <ele>150.450424</ele>
        <time>2022-03-20T08:24:17Z</time>
      </trkpt>
      <trkpt lat="50.36661" lon="4.31811">
        <ele>150.860016</ele>
        <time>2022-03-20T08:24:19Z</time>
      </trkpt>
      <trkpt lat="50.36657" lon="4.31815">
        <ele>151.226395</ele>
        <time>2022-03-20T08:24:21Z</time>
      </trkpt>
      <trkpt lat="50.36652" lon="4.31818">
        <ele>151.692688</ele>
        <time>2022-03-20T08:24:23Z</time>
      </trkpt>
      <trkpt lat="50.36649" lon="4.31823">
        <ele>151.900848</ele>
        <time>2022-03-20T08:24:25Z</time>
      </trkpt>
      <trkpt lat="50.36646" lon="4.31827">
        <ele>152.287155</ele>
        <time>2022-03-20T08:24:27Z</time>
      </trkpt>
      <trkpt lat="50.36641" lon="4.3183">
        <ele>152.732712</ele>
        <time>2022-03-20T08:24:29Z</time>
      </trkpt>
      <trkpt lat="50.36638" lon="4.31835">
        <ele>153.217865</ele>
        <time>2022-03-20T08:24:31Z</time>
      </trkpt>
      <trkpt lat="50.36633" lon="4.31839">
        <ele>153.68428</ele>
        <time>2022-03-20T08:24:33Z</time>
      </trkpt>
      <trkpt lat="50.36628" lon="4.31843">
        <ele>154.134048</ele>
        <time>2022-03-20T08:24:35Z</time>
      </trkpt>
      <trkpt lat="50.36623" lon="4.31848">
        <ele>154.58847</ele>
        <time>2022-03-20T08:24:37Z</time>
      </trkpt>
      <trkpt lat="50.36618" lon="4.31852">
        <ele>155.051743</ele>
        <time>2022-03-20T08:24:39Z</time>
      </trkpt>
      <trkpt lat="50.36612" lon="4.31857">
        <ele>155.42659</ele>
        <time>2022-03-20T08:24:41Z</time>
      </trkpt>
      <trkpt lat="50.36608" lon="4.31861">
        <ele>155.310287</ele>
        <time>2022-03-20T08:24:43Z</time>
      </trkpt>
      <trkpt lat="50.36603" lon="4.31866">
        <ele>155.726852</ele>
        <time>2022-03-20T08:24:45Z</time>
      </trkpt>
      <trkpt lat="50.36598" lon="4.3187">
        <ele>156.149612</ele>
        <time>2022-03-20T08:24:47Z</time>
      </trkpt>
      <trkpt lat="50.36593" lon="4.31875">
        <ele>156.512009</ele>
        <time>2022-03-20T08:24:49Z</time>
      </trkpt>
      <trkpt lat="50.36588" lon="4.31879">
        <ele>156.911942</ele>
        <time>2022-03-20T08:24:51Z</time>
      </trkpt>
      <trkpt lat="50.36583" lon="4.31884">
        <ele>157.845673</ele>
        <time>2022-03-20T08:24:53Z</time>
      </trkpt>
      <trkpt lat="50.36578" lon="4.31889">
        <ele>158.078949</ele>
        <time>2022-03-20T08:24:55Z</time>
      </trkpt>
      <trkpt lat="50.36573" lon="4.31892">
        <ele>158.4897</ele>
        <time>2022-03-20T08:24:57Z</time>
      </trkpt>
      <trkpt lat="50.36569" lon="4.31896">
        <ele>158.895905</ele>
        <time>2022-03-20T08:24:59Z</time>
      </trkpt>
      <trkpt lat="50.36564" lon="4.319">
        <ele>159.320892</ele>
        <time>2022-03-20T08:25:01Z</time>
      </trkpt>
      <trkpt lat="50.36559" lon="4.31904">
        <ele>159.754211</ele>
        <time>2022-03-20T08:25:03Z</time>
      </trkpt>
      <trkpt lat="50.36554" lon="4.31909">
        <ele>160.14798</ele>
        <time>2022-03-20T08:25:05Z</time>
      </trkpt>
      <trkpt lat="50.36549" lon="4.31914">
        <ele>160.582123</ele>
        <time>2022-03-20T08:25:07Z</time>
      </trkpt>
      <trkpt lat="50.36544" lon="4.31919">
        <ele>160.763718</ele>
        <time>2022-03-20T08:25:09Z</time>
      </trkpt>
      <trkpt lat="50.3654" lon="4.31924">
        <ele>161.099197</ele>
        <time>2022-03-20T08:25:11Z</time>
      </trkpt>
      <trkpt lat="50.36535" lon="4.31929">
        <ele>161.409668</ele>
        <time>2022-03-20T08:25:13Z</time>
      </trkpt>
      <trkpt lat="50.36529" lon="4.31935">
        <ele>161.813965</ele>
        <time>2022-03-20T08:25:15Z</time>
      </trkpt>
      <trkpt lat="50.36524" lon="4.3194">
        <ele>162.145309</ele>
        <time>2022-03-20T08:25:17Z</time>
      </trkpt>
      <trkpt lat="50.36519" lon="4.31946">
        <ele>162.502899</ele>
        <time>2022-03-20T08:25:19Z</time>
      </trkpt>
      <trkpt lat="50.36514" lon="4.31952">
        <ele>162.907227</ele>
        <time>2022-03-20T08:25:21Z</time>
      </trkpt>
      <trkpt lat="50.36508" lon="4.31957">
        <ele>163.269485</ele>
        <time>2022-03-20T08:25:23Z</time>
      </trkpt>
      <trkpt lat="50.36502" lon="4.31964">
        <ele>164.081619</ele>
        <time>2022-03-20T08:25:25Z</time>
      </trkpt>
      <trkpt lat="50.36496" lon="4.31969">
        <ele>164.402557</ele>
        <time>2022-03-20T08:25:27Z</time>
      </trkpt>
      <trkpt lat="50.3649" lon="4.31976">
        <ele>164.579712</ele>
        <time>2022-03-20T08:25:29Z</time>
      </trkpt>
      <trkpt lat="50.36483" lon="4.31982">
        <ele>164.942581</ele>
        <time>2022-03-20T08:25:31Z</time>
      </trkpt>
      <trkpt lat="50.36478" lon="4.31987">
        <ele>165.232269</ele>
        <time>2022-03-20T08:25:33Z</time>
      </trkpt>
      <trkpt lat="50.36471" lon="4.31993">
        <ele>165.075653</ele>
        <time>2022-03-20T08:25:35Z</time>
      </trkpt>
      <trkpt lat="50.36465" lon="4.31998">
        <ele>165.384201</ele>
        <time>2022-03-20T08:25:37Z</time>
      </trkpt>
      <trkpt lat="50.36458" lon="4.32004">
        <ele>165.720505</ele>
        <time>2022-03-20T08:25:39Z</time>
      </trkpt>
      <trkpt lat="50.36452" lon="4.32011">
        <ele>166.033234</ele>
        <time>2022-03-20T08:25:41Z</time>
      </trkpt>
      <trkpt lat="50.36446" lon="4.32016">
        <ele>166.250046</ele>
        <time>2022-03-20T08:25:43Z</time>
      </trkpt>
      <trkpt lat="50.3644" lon="4.32022">
        <ele>166.596146</ele>
        <time>2022-03-20T08:25:45Z</time>
      </trkpt>
      <trkpt lat="50.36433" lon="4.32029">
        <ele>166.958893</ele>
        <time>2022-03-20T08:25:47Z</time>
      </trkpt>
      <trkpt lat="50.36426" lon="4.32036">
        <ele>167.236191</ele>
        <time>2022-03-20T08:25:49Z</time>
      </trkpt>
      <trkpt lat="50.3642" lon="4.32042">
        <ele>167.728058</ele>
        <time>2022-03-20T08:25:51Z</time>
      </trkpt>
      <trkpt lat="50.36413" lon="4.32049">
        <ele>168.038712</ele>
        <time>2022-03-20T08:25:53Z</time>
      </trkpt>
      <trkpt lat="50.36406" lon="4.32056">
        <ele>168.357758</ele>
        <time>2022-03-20T08:25:55Z</time>
      </trkpt>
      <trkpt lat="50.364" lon="4.32062">
        <ele>168.591293</ele>
        <time>2022-03-20T08:25:57Z</time>
      </trkpt>
      <trkpt lat="50.36393" lon="4.32069">
        <ele>168.86319</ele>
        <time>2022-03-20T08:25:59Z</time>
      </trkpt>
      <trkpt lat="50.36387" lon="4.32076">
        <ele>169.15097</ele>
        <time>2022-03-20T08:26:01Z</time>
      </trkpt>
      <trkpt lat="50.3638" lon="4.32083">
        <ele>169.391144</ele>
        <time>2022-03-20T08:26:03Z</time>
      </trkpt>
      <trkpt lat="50.36373" lon="4.32089">
        <ele>169.476654</ele>
        <time>2022-03-20T08:26:05Z</time>
      </trkpt>
      <trkpt lat="50.36366" lon="4.32096">
        <ele>169.708115</ele>
        <time>2022-03-20T08:26:07Z</time>
      </trkpt>
      <trkpt lat="50.36359" lon="4.32103">
        <ele>169.972504</ele>
        <time>2022-03-20T08:26:09Z</time>
      </trkpt>
      <trkpt lat="50.36351" lon="4.3211">
        <ele>170.26149</ele>
        <time>2022-03-20T08:26:11Z</time>
      </trkpt>
      <trkpt lat="50.36344" lon="4.32117">
        <ele>170.545929</ele>
        <time>2022-03-20T08:26:13Z</time>
      </trkpt>
      <trkpt lat="50.36337" lon="4.32124">
        <ele>170.89212</ele>
        <time>2022-03-20T08:26:15Z</time>
      </trkpt>
      <trkpt lat="50.36329" lon="4.32131">
        <ele>171.179916</ele>
        <time>2022-03-20T08:26:17Z</time>
      </trkpt>
      <trkpt lat="50.36322" lon="4.32138">
        <ele>171.453156</ele>
        <time>2022-03-20T08:26:19Z</time>
      </trkpt>
      <trkpt lat="50.36314" lon="4.32145">
        <ele>171.702698</ele>
        <time>2022-03-20T08:26:21Z</time>
      </trkpt>
      <trkpt lat="50.36307" lon="4.32152">
        <ele>171.827835</ele>
        <time>2022-03-20T08:26:23Z</time>
      </trkpt>
      <trkpt lat="50.363" lon="4.32159">
        <ele>172.080231</ele>
        <time>2022-03-20T08:26:25Z</time>
      </trkpt>
      <trkpt lat="50.36293" lon="4.32166">
        <ele>172.240219</ele>
        <time>2022-03-20T08:26:27Z</time>
      </trkpt>
      <trkpt lat="50.36285" lon="4.32173">
        <ele>172.419617</ele>
        <time>2022-03-20T08:26:29Z</time>
      </trkpt>
      <trkpt lat="50.36278" lon="4.3218">
        <ele>172.663284</ele>
        <time>2022-03-20T08:26:31Z</time>
      </trkpt>
      <trkpt lat="50.36271" lon="4.32188">
        <ele>172.807205</ele>
        <time>2022-03-20T08:26:33Z</time>
      </trkpt>
      <trkpt lat="50.36264" lon="4.32196">
        <ele>172.990784</ele>
        <time>2022-03-20T08:26:35Z</time>
      </trkpt>
      <trkpt lat="50.36256" lon="4.32203">
        <ele>173.247391</ele>
        <time>2022-03-20T08:26:37Z</time>
      </trkpt>
      <trkpt lat="50.36249" lon="4.3221">
        <ele>173.364212</ele>
        <time>2022-03-20T08:26:39Z</time>
      </trkpt>
      <trkpt lat="50.36241" lon="4.32218">
        <ele>173.656281</ele>
        <time>2022-03-20T08:26:41Z</time>
      </trkpt>
      <trkpt lat="50.36234" lon="4.32225">
        <ele>173.837952</ele>
        <time>2022-03-20T08:26:43Z</time>
      </trkpt>
      <trkpt lat="50.36226" lon="4.32232">
        <ele>173.977707</ele>
        <time>2022-03-20T08:26:45Z</time>
      </trkpt>
      <trkpt lat="50.36219" lon="4.32238">
        <ele>174.184235</ele>
        <time>2022-03-20T08:26:47Z</time>
      </trkpt>
      <trkpt lat="50.36212" lon="4.32245">
        <ele>174.539413</ele>
        <time>2022-03-20T08:26:49Z</time>
      </trkpt>
      <trkpt lat="50.36205" lon="4.32253">
        <ele>174.769684</ele>
        <time>2022-03-20T08:26:51Z</time>
      </trkpt>
      <trkpt lat="50.36197" lon="4.3226">
        <ele>174.937851</ele>
        <time>2022-03-20T08:26:53Z</time>
      </trkpt>
      <trkpt lat="50.3619" lon="4.32266">
        <ele>175.06723</ele>
        <time>2022-03-20T08:26:55Z</time>
      </trkpt>
      <trkpt lat="50.36183" lon="4.32273">
        <ele>175.136078</ele>
        <time>2022-03-20T08:26:57Z</time>
      </trkpt>
      <trkpt lat="50.36177" lon="4.3228">
        <ele>175.3004</ele>
        <time>2022-03-20T08:26:59Z</time>
      </trkpt>
      <trkpt lat="50.36171" lon="4.32285">
        <ele>175.450211</ele>
        <time>2022-03-20T08:27:01Z</time>
      </trkpt>
      <trkpt lat="50.36169" lon="4.32293">
        <ele>175.67897</ele>
        <time>2022-03-20T08:27:03Z</time>
      </trkpt>
      <trkpt lat="50.36171" lon="4.323">
        <ele>175.838287</ele>
        <time>2022-03-20T08:27:05Z</time>
      </trkpt>
      <trkpt lat="50.36172" lon="4.32305">
        <ele>175.984955</ele>
        <time>2022-03-20T08:27:07Z</time>
      </trkpt>
      <trkpt lat="50.36173" lon="4.3231">
        <ele>176.218658</ele>
        <time>2022-03-20T08:27:09Z</time>
      </trkpt>
      <trkpt lat="50.36173" lon="4.32317">
        <ele>176.434784</ele>
        <time>2022-03-20T08:27:11Z</time>
      </trkpt>
      <trkpt lat="50.36173" lon="4.32325">
        <ele>176.708145</ele>
        <time>2022-03-20T08:27:13Z</time>
      </trkpt>
      <trkpt lat="50.36176" lon="4.32331">
        <ele>176.843781</ele>
        <time>2022-03-20T08:27:15Z</time>
      </trkpt>
      <trkpt lat="50.36179" lon="4.32338">
        <ele>177.044159</ele>
        <time>2022-03-20T08:27:17Z</time>
      </trkpt>
      <trkpt lat="50.36182" lon="4.32345">
        <ele>177.244232</ele>
        <time>2022-03-20T08:27:19Z</time>
      </trkpt>
      <trkpt lat="50.36185" lon="4.32353">
        <ele>177.367386</ele>
        <time>2022-03-20T08:27:21Z</time>
      </trkpt>
      <trkpt lat="50.36188" lon="4.32363">
        <ele>177.561478</ele>
        <time>2022-03-20T08:27:23Z</time>
      </trkpt>
      <trkpt lat="50.36192" lon="4.32373">
        <ele>177.665665</ele>
        <time>2022-03-20T08:27:25Z</time>
      </trkpt>
      <trkpt lat="50.36195" lon="4.32382">
        <ele>177.964081</ele>
        <time>2022-03-20T08:27:27Z</time>
      </trkpt>
      <trkpt lat="50.36197" lon="4.32389">
        <ele>178.045486</ele>
        <time>2022-03-20T08:27:29Z</time>
      </trkpt>
      <trkpt lat="50.36201" lon="4.32399">
        <ele>178.25119</ele>
        <time>2022-03-20T08:27:31Z</time>
      </trkpt>
      <trkpt lat="50.36205" lon="4.32411">
        <ele>178.54187</ele>
        <time>2022-03-20T08:27:33Z</time>
      </trkpt>
      <trkpt lat="50.36208" lon="4.32421">
        <ele>178.758148</ele>
        <time>2022-03-20T08:27:35Z</time>
      </trkpt>
      <trkpt lat="50.3621" lon="4.32425">
        <ele>178.926422</ele>
        <time>2022-03-20T08:27:36Z</time>
      </trkpt>
      <trkpt lat="50.36213" lon="4.32434">
        <ele>179.260361</ele>
        <time>2022-03-20T08:27:38Z</time>
      </trkpt>
      <trkpt lat="50.36218" lon="4.32442">
        <ele>179.350632</ele>
        <time>2022-03-20T08:27:40Z</time>
      </trkpt>
      <trkpt lat="50.36219" lon="4.32449">
        <ele>179.521652</ele>
        <time>2022-03-20T08:27:42Z</time>
      </trkpt>
      <trkpt lat="50.3622" lon="4.3246">
        <ele>179.747787</ele>
        <time>2022-03-20T08:27:44Z</time>
      </trkpt>
      <trkpt lat="50.36224" lon="4.32469">
        <ele>179.874359</ele>
        <time>2022-03-20T08:27:46Z</time>
      </trkpt>
      <trkpt lat="50.36231" lon="4.32477">
        <ele>179.576294</ele>
        <time>2022-03-20T08:27:48Z</time>
      </trkpt>
      <trkpt lat="50.36236" lon="4.32486">
        <ele>179.632645</ele>
        <time>2022-03-20T08:27:50Z</time>
      </trkpt>
      <trkpt lat="50.36239" lon="4.32499">
        <ele>179.686127</ele>
        <time>2022-03-20T08:27:52Z</time>
      </trkpt>
      <trkpt lat="50.3624" lon="4.32512">
        <ele>179.704926</ele>
        <time>2022-03-20T08:27:54Z</time>
      </trkpt>
      <trkpt lat="50.36245" lon="4.32522">
        <ele>179.707031</ele>
        <time>2022-03-20T08:27:56Z</time>
      </trkpt>
      <trkpt lat="50.36252" lon="4.3253">
        <ele>179.533783</ele>
        <time>2022-03-20T08:27:58Z</time>
      </trkpt>
      <trkpt lat="50.36259" lon="4.3254">
        <ele>179.536133</ele>
        <time>2022-03-20T08:28:00Z</time>
      </trkpt>
      <trkpt lat="50.36264" lon="4.32553">
        <ele>179.485153</ele>
        <time>2022-03-20T08:28:02Z</time>
      </trkpt>
      <trkpt lat="50.36267" lon="4.32567">
        <ele>179.407745</ele>
        <time>2022-03-20T08:28:04Z</time>
      </trkpt>
      <trkpt lat="50.3627" lon="4.32579">
        <ele>179.399384</ele>
        <time>2022-03-20T08:28:06Z</time>
      </trkpt>
      <trkpt lat="50.36275" lon="4.3259">
        <ele>179.288773</ele>
        <time>2022-03-20T08:28:08Z</time>
      </trkpt>
      <trkpt lat="50.36281" lon="4.32601">
        <ele>179.142654</ele>
        <time>2022-03-20T08:28:10Z</time>
      </trkpt>
      <trkpt lat="50.36285" lon="4.32612">
        <ele>179.02034</ele>
        <time>2022-03-20T08:28:12Z</time>
      </trkpt>
      <trkpt lat="50.36289" lon="4.32627">
        <ele>178.796432</ele>
        <time>2022-03-20T08:28:14Z</time>
      </trkpt>
      <trkpt lat="50.36293" lon="4.32637">
        <ele>178.628128</ele>
        <time>2022-03-20T08:28:16Z</time>
      </trkpt>
      <trkpt lat="50.36293" lon="4.32641">
        <ele>178.46611</ele>
        <time>2022-03-20T08:28:18Z</time>
      </trkpt>
      <trkpt lat="50.36293" lon="4.32648">
        <ele>178.209381</ele>
        <time>2022-03-20T08:28:20Z</time>
      </trkpt>
      <trkpt lat="50.36293" lon="4.32653">
        <ele>178.050751</ele>
        <time>2022-03-20T08:28:21Z</time>
      </trkpt>
      <trkpt lat="50.36295" lon="4.32663">
        <ele>177.950592</ele>
        <time>2022-03-20T08:28:23Z</time>
      </trkpt>
      <trkpt lat="50.36296" lon="4.32674">
        <ele>177.735641</ele>
        <time>2022-03-20T08:28:25Z</time>
      </trkpt>
      <trkpt lat="50.36296" lon="4.32687">
        <ele>177.508148</ele>
        <time>2022-03-20T08:28:27Z</time>
      </trkpt>
      <trkpt lat="50.36298" lon="4.32702">
        <ele>177.62265</ele>
        <time>2022-03-20T08:28:29Z</time>
      </trkpt>
      <trkpt lat="50.36305" lon="4.32714">
        <ele>177.324203</ele>
        <time>2022-03-20T08:28:31Z</time>
      </trkpt>
      <trkpt lat="50.3631" lon="4.32723">
        <ele>177.103027</ele>
        <time>2022-03-20T08:28:33Z</time>
      </trkpt>
      <trkpt lat="50.36313" lon="4.32731">
        <ele>176.629364</ele>
        <time>2022-03-20T08:28:35Z</time>
      </trkpt>
      <trkpt lat="50.36313" lon="4.32739">
        <ele>176.109879</ele>
        <time>2022-03-20T08:28:37Z</time>
      </trkpt>
      <trkpt lat="50.36312" lon="4.32749">
        <ele>175.751053</ele>
        <time>2022-03-20T08:28:39Z</time>
      </trkpt>
      <trkpt lat="50.36311" lon="4.32755">
        <ele>175.352417</ele>
        <time>2022-03-20T08:28:41Z</time>
      </trkpt>
      <trkpt lat="50.3631" lon="4.32764">
        <ele>174.90686</ele>
        <time>2022-03-20T08:28:43Z</time>
      </trkpt>
      <trkpt lat="50.36312" lon="4.32773">
        <ele>174.354233</ele>
        <time>2022-03-20T08:28:45Z</time>
      </trkpt>
      <trkpt lat="50.36318" lon="4.32789">
        <ele>173.73056</ele>
        <time>2022-03-20T08:28:47Z</time>
      </trkpt>
      <trkpt lat="50.36326" lon="4.32803">
        <ele>173.211166</ele>
        <time>2022-03-20T08:28:49Z</time>
      </trkpt>
      <trkpt lat="50.36334" lon="4.32814">
        <ele>172.912979</ele>
        <time>2022-03-20T08:28:51Z</time>
      </trkpt>
      <trkpt lat="50.36343" lon="4.32819">
        <ele>171.579269</ele>
        <time>2022-03-20T08:28:53Z</time>
      </trkpt>
      <trkpt lat="50.3635" lon="4.32827">
        <ele>171.15802</ele>
        <time>2022-03-20T08:28:55Z</time>
      </trkpt>
      <trkpt lat="50.36355" lon="4.32835">
        <ele>170.252899</ele>
        <time>2022-03-20T08:28:57Z</time>
      </trkpt>
      <trkpt lat="50.36362" lon="4.32844">
        <ele>169.337601</ele>
        <time>2022-03-20T08:28:59Z</time>
      </trkpt>
      <trkpt lat="50.36371" lon="4.32849">
        <ele>168.497589</ele>
        <time>2022-03-20T08:29:01Z</time>
      </trkpt>
      <trkpt lat="50.36379" lon="4.32853">
        <ele>167.419937</ele>
        <time>2022-03-20T08:29:03Z</time>
      </trkpt>
      <trkpt lat="50.36385" lon="4.32858">
        <ele>166.251129</ele>
        <time>2022-03-20T08:29:05Z</time>
      </trkpt>
      <trkpt lat="50.36388" lon="4.32863">
        <ele>165.133377</ele>
        <time>2022-03-20T08:29:07Z</time>
      </trkpt>
      <trkpt lat="50.36393" lon="4.32869">
        <ele>164.109848</ele>
        <time>2022-03-20T08:29:09Z</time>
      </trkpt>
      <trkpt lat="50.36403" lon="4.32875">
        <ele>162.772232</ele>
        <time>2022-03-20T08:29:11Z</time>
      </trkpt>
      <trkpt lat="50.36413" lon="4.32883">
        <ele>161.535324</ele>
        <time>2022-03-20T08:29:13Z</time>
      </trkpt>
      <trkpt lat="50.36422" lon="4.32891">
        <ele>160.227081</ele>
        <time>2022-03-20T08:29:15Z</time>
      </trkpt>
      <trkpt lat="50.36432" lon="4.32898">
        <ele>158.892059</ele>
        <time>2022-03-20T08:29:17Z</time>
      </trkpt>
      <trkpt lat="50.36445" lon="4.32908">
        <ele>157.709244</ele>
        <time>2022-03-20T08:29:19Z</time>
      </trkpt>
      <trkpt lat="50.36457" lon="4.32918">
        <ele>156.440094</ele>
        <time>2022-03-20T08:29:21Z</time>
      </trkpt>
      <trkpt lat="50.36467" lon="4.32926">
        <ele>154.857574</ele>
        <time>2022-03-20T08:29:23Z</time>
      </trkpt>
      <trkpt lat="50.3648" lon="4.3293">
        <ele>153.200378</ele>
        <time>2022-03-20T08:29:25Z</time>
      </trkpt>
      <trkpt lat="50.36492" lon="4.32932">
        <ele>151.290436</ele>
        <time>2022-03-20T08:29:27Z</time>
      </trkpt>
      <trkpt lat="50.36501" lon="4.32935">
        <ele>149.829193</ele>
        <time>2022-03-20T08:29:29Z</time>
      </trkpt>
      <trkpt lat="50.36508" lon="4.32945">
        <ele>148.394348</ele>
        <time>2022-03-20T08:29:31Z</time>
      </trkpt>
      <trkpt lat="50.36508" lon="4.32963">
        <ele>147.203064</ele>
        <time>2022-03-20T08:29:33Z</time>
      </trkpt>
      <trkpt lat="50.36506" lon="4.32982">
        <ele>146.241119</ele>
        <time>2022-03-20T08:29:35Z</time>
      </trkpt>
      <trkpt lat="50.36501" lon="4.33003">
        <ele>144.791199</ele>
        <time>2022-03-20T08:29:37Z</time>
      </trkpt>
      <trkpt lat="50.36499" lon="4.33016">
        <ele>144.092545</ele>
        <time>2022-03-20T08:29:38Z</time>
      </trkpt>
      <trkpt lat="50.36494" lon="4.33041">
        <ele>142.704285</ele>
        <time>2022-03-20T08:29:40Z</time>
      </trkpt>
      <trkpt lat="50.36489" lon="4.33069">
        <ele>140.788681</ele>
        <time>2022-03-20T08:29:42Z</time>
      </trkpt>
      <trkpt lat="50.36483" lon="4.33097">
        <ele>139.260468</ele>
        <time>2022-03-20T08:29:44Z</time>
      </trkpt>
      <trkpt lat="50.36475" lon="4.33123">
        <ele>137.894379</ele>
        <time>2022-03-20T08:29:46Z</time>
      </trkpt>
      <trkpt lat="50.36464" lon="4.33146">
        <ele>136.300186</ele>
        <time>2022-03-20T08:29:48Z</time>
      </trkpt>
      <trkpt lat="50.36453" lon="4.33166">
        <ele>134.795258</ele>
        <time>2022-03-20T08:29:50Z</time>
      </trkpt>
      <trkpt lat="50.36441" lon="4.33184">
        <ele>133.440414</ele>
        <time>2022-03-20T08:29:52Z</time>
      </trkpt>
      <trkpt lat="50.3643" lon="4.33201">
        <ele>131.892914</ele>
        <time>2022-03-20T08:29:54Z</time>
      </trkpt>
      <trkpt lat="50.3642" lon="4.33217">
        <ele>131.21138</ele>
        <time>2022-03-20T08:29:56Z</time>
      </trkpt>
      <trkpt lat="50.3641" lon="4.33231">
        <ele>130.072876</ele>
        <time>2022-03-20T08:29:58Z</time>
      </trkpt>
      <trkpt lat="50.364" lon="4.33245">
        <ele>128.657974</ele>
        <time>2022-03-20T08:30:00Z</time>
      </trkpt>
      <trkpt lat="50.36392" lon="4.33258">
        <ele>127.186844</ele>
        <time>2022-03-20T08:30:02Z</time>
      </trkpt>
      <trkpt lat="50.36383" lon="4.33272">
        <ele>125.772888</ele>
        <time>2022-03-20T08:30:04Z</time>
      </trkpt>
      <trkpt lat="50.36379" lon="4.33278">
        <ele>125.234512</ele>
        <time>2022-03-20T08:30:05Z</time>
      </trkpt>
      <trkpt lat="50.36371" lon="4.33291">
        <ele>124.294945</ele>
        <time>2022-03-20T08:30:07Z</time>
      </trkpt>
      <trkpt lat="50.36361" lon="4.33304">
        <ele>123.685036</ele>
        <time>2022-03-20T08:30:09Z</time>
      </trkpt>
      <trkpt lat="50.36354" lon="4.33317">
        <ele>122.436729</ele>
        <time>2022-03-20T08:30:11Z</time>
      </trkpt>
      <trkpt lat="50.36346" lon="4.33329">
        <ele>121.295349</ele>
        <time>2022-03-20T08:30:13Z</time>
      </trkpt>
      <trkpt lat="50.36338" lon="4.3334">
        <ele>120.210526</ele>
        <time>2022-03-20T08:30:15Z</time>
      </trkpt>
      <trkpt lat="50.36331" lon="4.33352">
        <ele>119.211716</ele>
        <time>2022-03-20T08:30:17Z</time>
      </trkpt>
      <trkpt lat="50.36323" lon="4.33363">
        <ele>118.392845</ele>
        <time>2022-03-20T08:30:19Z</time>
      </trkpt>
      <trkpt lat="50.36317" lon="4.33376">
        <ele>117.399277</ele>
        <time>2022-03-20T08:30:21Z</time>
      </trkpt>
      <trkpt lat="50.36311" lon="4.33387">
        <ele>116.938683</ele>
        <time>2022-03-20T08:30:23Z</time>
      </trkpt>
      <trkpt lat="50.36306" lon="4.33397">
        <ele>116.299622</ele>
        <time>2022-03-20T08:30:25Z</time>
      </trkpt>
      <trkpt lat="50.363" lon="4.33406">
        <ele>115.618919</ele>
        <time>2022-03-20T08:30:27Z</time>
      </trkpt>
      <trkpt lat="50.36294" lon="4.33412">
        <ele>115.116783</ele>
        <time>2022-03-20T08:30:29Z</time>
      </trkpt>
      <trkpt lat="50.36289" lon="4.33418">
        <ele>114.769508</ele>
        <time>2022-03-20T08:30:31Z</time>
      </trkpt>
      <trkpt lat="50.36282" lon="4.33423">
        <ele>114.327454</ele>
        <time>2022-03-20T08:30:33Z</time>
      </trkpt>
      <trkpt lat="50.3628" lon="4.33428">
        <ele>114.192627</ele>
        <time>2022-03-20T08:30:34Z</time>
      </trkpt>
      <trkpt lat="50.36275" lon="4.33434">
        <ele>113.816483</ele>
        <time>2022-03-20T08:30:36Z</time>
      </trkpt>
      <trkpt lat="50.36269" lon="4.3344">
        <ele>113.590378</ele>
        <time>2022-03-20T08:30:38Z</time>
      </trkpt>
      <trkpt lat="50.36264" lon="4.33444">
        <ele>113.455521</ele>
        <time>2022-03-20T08:30:40Z</time>
      </trkpt>
      <trkpt lat="50.36257" lon="4.33448">
        <ele>113.332108</ele>
        <time>2022-03-20T08:30:42Z</time>
      </trkpt>
      <trkpt lat="50.3625" lon="4.33454">
        <ele>113.211792</ele>
        <time>2022-03-20T08:30:44Z</time>
      </trkpt>
      <trkpt lat="50.36245" lon="4.33458">
        <ele>113.173294</ele>
        <time>2022-03-20T08:30:46Z</time>
      </trkpt>
      <trkpt lat="50.36239" lon="4.33462">
        <ele>113.095337</ele>
        <time>2022-03-20T08:30:48Z</time>
      </trkpt>
      <trkpt lat="50.36235" lon="4.33465">
        <ele>113.134766</ele>
        <time>2022-03-20T08:30:49Z</time>
      </trkpt>
      <trkpt lat="50.36229" lon="4.3347">
        <ele>113.092751</ele>
        <time>2022-03-20T08:30:51Z</time>
      </trkpt>
      <trkpt lat="50.36223" lon="4.33476">
        <ele>113.17981</ele>
        <time>2022-03-20T08:30:53Z</time>
      </trkpt>
      <trkpt lat="50.36217" lon="4.3348">
        <ele>113.260696</ele>
        <time>2022-03-20T08:30:55Z</time>
      </trkpt>
      <trkpt lat="50.3621" lon="4.33484">
        <ele>112.925049</ele>
        <time>2022-03-20T08:30:57Z</time>
      </trkpt>
      <trkpt lat="50.36204" lon="4.33489">
        <ele>113.213013</ele>
        <time>2022-03-20T08:30:59Z</time>
      </trkpt>
      <trkpt lat="50.36198" lon="4.33492">
        <ele>113.394508</ele>
        <time>2022-03-20T08:31:01Z</time>
      </trkpt>
      <trkpt lat="50.36192" lon="4.33497">
        <ele>113.760086</ele>
        <time>2022-03-20T08:31:03Z</time>
      </trkpt>
      <trkpt lat="50.36187" lon="4.33501">
        <ele>113.988235</ele>
        <time>2022-03-20T08:31:05Z</time>
      </trkpt>
      <trkpt lat="50.36181" lon="4.33506">
        <ele>114.338722</ele>
        <time>2022-03-20T08:31:07Z</time>
      </trkpt>
      <trkpt lat="50.36174" lon="4.33509">
        <ele>114.693459</ele>
        <time>2022-03-20T08:31:09Z</time>
      </trkpt>
      <trkpt lat="50.36168" lon="4.33512">
        <ele>115.071045</ele>
        <time>2022-03-20T08:31:11Z</time>
      </trkpt>
      <trkpt lat="50.36162" lon="4.33516">
        <ele>115.382469</ele>
        <time>2022-03-20T08:31:13Z</time>
      </trkpt>
      <trkpt lat="50.36156" lon="4.33521">
        <ele>115.693626</ele>
        <time>2022-03-20T08:31:15Z</time>
      </trkpt>
      <trkpt lat="50.36149" lon="4.33526">
        <ele>116.057617</ele>
        <time>2022-03-20T08:31:17Z</time>
      </trkpt>
      <trkpt lat="50.36143" lon="4.3353">
        <ele>116.347008</ele>
        <time>2022-03-20T08:31:19Z</time>
      </trkpt>
      <trkpt lat="50.36137" lon="4.33533">
        <ele>116.652061</ele>
        <time>2022-03-20T08:31:21Z</time>
      </trkpt>
      <trkpt lat="50.36132" lon="4.33536">
        <ele>116.864731</ele>
        <time>2022-03-20T08:31:23Z</time>
      </trkpt>
      <trkpt lat="50.36126" lon="4.33541">
        <ele>117.277672</ele>
        <time>2022-03-20T08:31:25Z</time>
      </trkpt>
      <trkpt lat="50.3612" lon="4.33546">
        <ele>117.659485</ele>
        <time>2022-03-20T08:31:27Z</time>
      </trkpt>
      <trkpt lat="50.36115" lon="4.33551">
        <ele>118.096802</ele>
        <time>2022-03-20T08:31:29Z</time>
      </trkpt>
      <trkpt lat="50.36108" lon="4.33556">
        <ele>118.428848</ele>
        <time>2022-03-20T08:31:31Z</time>
      </trkpt>
      <trkpt lat="50.36102" lon="4.3356">
        <ele>118.827332</ele>
        <time>2022-03-20T08:31:33Z</time>
      </trkpt>
      <trkpt lat="50.36096" lon="4.33562">
        <ele>119.25486</ele>
        <time>2022-03-20T08:31:35Z</time>
      </trkpt>
      <trkpt lat="50.36089" lon="4.33563">
        <ele>120.145546</ele>
        <time>2022-03-20T08:31:37Z</time>
      </trkpt>
      <trkpt lat="50.36079" lon="4.33564">
        <ele>120.446793</ele>
        <time>2022-03-20T08:31:39Z</time>
      </trkpt>
      <trkpt lat="50.36068" lon="4.33566">
        <ele>120.760178</ele>
        <time>2022-03-20T08:31:41Z</time>
      </trkpt>
      <trkpt lat="50.36058" lon="4.33567">
        <ele>121.087669</ele>
        <time>2022-03-20T08:31:43Z</time>
      </trkpt>
      <trkpt lat="50.36049" lon="4.33565">
        <ele>121.342911</ele>
        <time>2022-03-20T08:31:45Z</time>
      </trkpt>
      <trkpt lat="50.36037" lon="4.33557">
        <ele>121.689087</ele>
        <time>2022-03-20T08:31:47Z</time>
      </trkpt>
      <trkpt lat="50.36027" lon="4.33541">
        <ele>121.886375</ele>
        <time>2022-03-20T08:31:49Z</time>
      </trkpt>
      <trkpt lat="50.36015" lon="4.33521">
        <ele>121.330849</ele>
        <time>2022-03-20T08:31:51Z</time>
      </trkpt>
      <trkpt lat="50.36004" lon="4.33501">
        <ele>121.44133</ele>
        <time>2022-03-20T08:31:53Z</time>
      </trkpt>
      <trkpt lat="50.35994" lon="4.33481">
        <ele>120.918961</ele>
        <time>2022-03-20T08:31:55Z</time>
      </trkpt>
      <trkpt lat="50.35989" lon="4.33471">
        <ele>120.846336</ele>
        <time>2022-03-20T08:31:56Z</time>
      </trkpt>
      <trkpt lat="50.35979" lon="4.33453">
        <ele>120.906815</ele>
        <time>2022-03-20T08:31:58Z</time>
      </trkpt>
      <trkpt lat="50.35971" lon="4.33436">
        <ele>120.903709</ele>
        <time>2022-03-20T08:32:00Z</time>
      </trkpt>
      <trkpt lat="50.35963" lon="4.33421">
        <ele>120.814453</ele>
        <time>2022-03-20T08:32:02Z</time>
      </trkpt>
      <trkpt lat="50.35956" lon="4.33406">
        <ele>120.7854</ele>
        <time>2022-03-20T08:32:04Z</time>
      </trkpt>
      <trkpt lat="50.35949" lon="4.33393">
        <ele>120.586143</ele>
        <time>2022-03-20T08:32:06Z</time>
      </trkpt>
      <trkpt lat="50.35942" lon="4.33381">
        <ele>120.906113</ele>
        <time>2022-03-20T08:32:08Z</time>
      </trkpt>
      <trkpt lat="50.35936" lon="4.33369">
        <ele>120.677811</ele>
        <time>2022-03-20T08:32:10Z</time>
      </trkpt>
      <trkpt lat="50.35931" lon="4.33357">
        <ele>120.850357</ele>
        <time>2022-03-20T08:32:12Z</time>
      </trkpt>
      <trkpt lat="50.35926" lon="4.33346">
        <ele>120.669777</ele>
        <time>2022-03-20T08:32:14Z</time>
      </trkpt>
      <trkpt lat="50.3592" lon="4.33336">
        <ele>120.466354</ele>
        <time>2022-03-20T08:32:16Z</time>
      </trkpt>
      <trkpt lat="50.35916" lon="4.33326">
        <ele>120.164711</ele>
        <time>2022-03-20T08:32:18Z</time>
      </trkpt>
      <trkpt lat="50.35912" lon="4.33316">
        <ele>119.834755</ele>
        <time>2022-03-20T08:32:20Z</time>
      </trkpt>
      <trkpt lat="50.35908" lon="4.33307">
        <ele>119.584023</ele>
        <time>2022-03-20T08:32:22Z</time>
      </trkpt>
      <trkpt lat="50.35905" lon="4.33299">
        <ele>119.254532</ele>
        <time>2022-03-20T08:32:24Z</time>
      </trkpt>
      <trkpt lat="50.35901" lon="4.33291">
        <ele>118.940758</ele>
        <time>2022-03-20T08:32:26Z</time>
      </trkpt>
      <trkpt lat="50.35898" lon="4.33284">
        <ele>118.045273</ele>
        <time>2022-03-20T08:32:28Z</time>
      </trkpt>
      <trkpt lat="50.35895" lon="4.33277">
        <ele>117.623978</ele>
        <time>2022-03-20T08:32:30Z</time>
      </trkpt>
      <trkpt lat="50.35892" lon="4.33271">
        <ele>118.065384</ele>
        <time>2022-03-20T08:32:32Z</time>
      </trkpt>
      <trkpt lat="50.35889" lon="4.33264">
        <ele>117.864037</ele>
        <time>2022-03-20T08:32:34Z</time>
      </trkpt>
      <trkpt lat="50.35885" lon="4.33258">
        <ele>118.388489</ele>
        <time>2022-03-20T08:32:36Z</time>
      </trkpt>
      <trkpt lat="50.35883" lon="4.33252">
        <ele>118.259232</ele>
        <time>2022-03-20T08:32:38Z</time>
      </trkpt>
      <trkpt lat="50.35881" lon="4.33248">
        <ele>118.219803</ele>
        <time>2022-03-20T08:32:40Z</time>
      </trkpt>
      <trkpt lat="50.35878" lon="4.33243">
        <ele>118.113953</ele>
        <time>2022-03-20T08:32:42Z</time>
      </trkpt>
      <trkpt lat="50.35877" lon="4.33239">
        <ele>118.024719</ele>
        <time>2022-03-20T08:32:44Z</time>
      </trkpt>
      <trkpt lat="50.35875" lon="4.33235">
        <ele>117.945862</ele>
        <time>2022-03-20T08:32:46Z</time>
      </trkpt>
      <trkpt lat="50.35874" lon="4.3323">
        <ele>117.451416</ele>
        <time>2022-03-20T08:32:48Z</time>
      </trkpt>
      <trkpt lat="50.35872" lon="4.33227">
        <ele>117.33313</ele>
        <time>2022-03-20T08:32:50Z</time>
      </trkpt>
      <trkpt lat="50.3587" lon="4.33222">
        <ele>116.905296</ele>
        <time>2022-03-20T08:32:52Z</time>
      </trkpt>
      <trkpt lat="50.35869" lon="4.33217">
        <ele>116.934341</ele>
        <time>2022-03-20T08:32:54Z</time>
      </trkpt>
      <trkpt lat="50.35866" lon="4.33214">
        <ele>116.909424</ele>
        <time>2022-03-20T08:32:56Z</time>
      </trkpt>
      <trkpt lat="50.35864" lon="4.3321">
        <ele>117.035988</ele>
        <time>2022-03-20T08:32:58Z</time>
      </trkpt>
      <trkpt lat="50.35862" lon="4.33205">
        <ele>117.066811</ele>
        <time>2022-03-20T08:33:00Z</time>
      </trkpt>
      <trkpt lat="50.35861" lon="4.33201">
        <ele>117.195053</ele>
        <time>2022-03-20T08:33:02Z</time>
      </trkpt>
      <trkpt lat="50.35859" lon="4.33197">
        <ele>117.31488</ele>
        <time>2022-03-20T08:33:04Z</time>
      </trkpt>
      <trkpt lat="50.35857" lon="4.33193">
        <ele>117.470963</ele>
        <time>2022-03-20T08:33:06Z</time>
      </trkpt>
      <trkpt lat="50.35855" lon="4.33188">
        <ele>117.767677</ele>
        <time>2022-03-20T08:33:08Z</time>
      </trkpt>
      <trkpt lat="50.35854" lon="4.33185">
        <ele>118.443581</ele>
        <time>2022-03-20T08:33:10Z</time>
      </trkpt>
      <trkpt lat="50.35853" lon="4.33182">
        <ele>118.725784</ele>
        <time>2022-03-20T08:33:12Z</time>
      </trkpt>
      <trkpt lat="50.35853" lon="4.33179">
        <ele>118.810867</ele>
        <time>2022-03-20T08:33:14Z</time>
      </trkpt>
      <trkpt lat="50.35851" lon="4.33176">
        <ele>119.012169</ele>
        <time>2022-03-20T08:33:16Z</time>
      </trkpt>
      <trkpt lat="50.3585" lon="4.33174">
        <ele>119.176132</ele>
        <time>2022-03-20T08:33:18Z</time>
      </trkpt>
      <trkpt lat="50.35849" lon="4.33171">
        <ele>119.441772</ele>
        <time>2022-03-20T08:33:20Z</time>
      </trkpt>
      <trkpt lat="50.35847" lon="4.33168">
        <ele>119.672157</ele>
        <time>2022-03-20T08:33:22Z</time>
      </trkpt>
      <trkpt lat="50.35846" lon="4.33164">
        <ele>119.910828</ele>
        <time>2022-03-20T08:33:24Z</time>
      </trkpt>
      <trkpt lat="50.35845" lon="4.3316">
        <ele>120.151573</ele>
        <time>2022-03-20T08:33:26Z</time>
      </trkpt>
      <trkpt lat="50.35845" lon="4.33155">
        <ele>120.351097</ele>
        <time>2022-03-20T08:33:28Z</time>
      </trkpt>
      <trkpt lat="50.35845" lon="4.33151">
        <ele>120.57019</ele>
        <time>2022-03-20T08:33:30Z</time>
      </trkpt>
      <trkpt lat="50.35845" lon="4.33146">
        <ele>120.861107</ele>
        <time>2022-03-20T08:33:32Z</time>
      </trkpt>
      <trkpt lat="50.35845" lon="4.3314">
        <ele>121.15538</ele>
        <time>2022-03-20T08:33:34Z</time>
      </trkpt>
      <trkpt lat="50.35845" lon="4.33136">
        <ele>121.426613</ele>
        <time>2022-03-20T08:33:36Z</time>
      </trkpt>
      <trkpt lat="50.35844" lon="4.33133">
        <ele>121.723465</ele>
        <time>2022-03-20T08:33:38Z</time>
      </trkpt>
      <trkpt lat="50.35844" lon="4.33128">
        <ele>122.072205</ele>
        <time>2022-03-20T08:33:40Z</time>
      </trkpt>
      <trkpt lat="50.35843" lon="4.33125">
        <ele>122.252808</ele>
        <time>2022-03-20T08:33:42Z</time>
      </trkpt>
      <trkpt lat="50.35843" lon="4.33121">
        <ele>122.562134</ele>
        <time>2022-03-20T08:33:44Z</time>
      </trkpt>
      <trkpt lat="50.35841" lon="4.33118">
        <ele>122.900536</ele>
        <time>2022-03-20T08:33:46Z</time>
      </trkpt>
      <trkpt lat="50.35841" lon="4.33111">
        <ele>123.635536</ele>
        <time>2022-03-20T08:33:50Z</time>
      </trkpt>
      <trkpt lat="50.3584" lon="4.33108">
        <ele>124.030014</ele>
        <time>2022-03-20T08:33:52Z</time>
      </trkpt>
      <trkpt lat="50.35838" lon="4.33104">
        <ele>124.451523</ele>
        <time>2022-03-20T08:33:54Z</time>
      </trkpt>
      <trkpt lat="50.35837" lon="4.33102">
        <ele>124.866821</ele>
        <time>2022-03-20T08:33:56Z</time>
      </trkpt>
      <trkpt lat="50.35835" lon="4.33099">
        <ele>125.277969</ele>
        <time>2022-03-20T08:33:58Z</time>
      </trkpt>
      <trkpt lat="50.35833" lon="4.33096">
        <ele>125.680824</ele>
        <time>2022-03-20T08:34:00Z</time>
      </trkpt>
      <trkpt lat="50.35832" lon="4.3309">
        <ele>127.001671</ele>
        <time>2022-03-20T08:34:06Z</time>
      </trkpt>
      <trkpt lat="50.35831" lon="4.33084">
        <ele>128.085678</ele>
        <time>2022-03-20T08:34:10Z</time>
      </trkpt>
      <trkpt lat="50.3583" lon="4.3308">
        <ele>128.562241</ele>
        <time>2022-03-20T08:34:12Z</time>
      </trkpt>
      <trkpt lat="50.35827" lon="4.33077">
        <ele>129.072891</ele>
        <time>2022-03-20T08:34:14Z</time>
      </trkpt>
      <trkpt lat="50.35825" lon="4.33076">
        <ele>129.571884</ele>
        <time>2022-03-20T08:34:16Z</time>
      </trkpt>
      <trkpt lat="50.35823" lon="4.33067">
        <ele>136.202957</ele>
        <time>2022-03-20T08:34:50Z</time>
      </trkpt>
      <trkpt lat="50.35818" lon="4.33059">
        <ele>136.464996</ele>
        <time>2022-03-20T08:34:52Z</time>
      </trkpt>
      <trkpt lat="50.35816" lon="4.33056">
        <ele>136.949661</ele>
        <time>2022-03-20T08:34:56Z</time>
      </trkpt>
      <trkpt lat="50.35815" lon="4.33053">
        <ele>137.215775</ele>
        <time>2022-03-20T08:34:58Z</time>
      </trkpt>
      <trkpt lat="50.35813" lon="4.33051">
        <ele>137.469879</ele>
        <time>2022-03-20T08:35:00Z</time>
      </trkpt>
      <trkpt lat="50.35812" lon="4.3305">
        <ele>137.705154</ele>
        <time>2022-03-20T08:35:02Z</time>
      </trkpt>
      <trkpt lat="50.35809" lon="4.33049">
        <ele>138.010773</ele>
        <time>2022-03-20T08:35:04Z</time>
      </trkpt>
      <trkpt lat="50.35806" lon="4.33047">
        <ele>138.266037</ele>
        <time>2022-03-20T08:35:06Z</time>
      </trkpt>
      <trkpt lat="50.35804" lon="4.33046">
        <ele>138.50737</ele>
        <time>2022-03-20T08:35:08Z</time>
      </trkpt>
      <trkpt lat="50.35801" lon="4.33044">
        <ele>138.673706</ele>
        <time>2022-03-20T08:35:10Z</time>
      </trkpt>
      <trkpt lat="50.35798" lon="4.33043">
        <ele>138.931229</ele>
        <time>2022-03-20T08:35:12Z</time>
      </trkpt>
      <trkpt lat="50.35795" lon="4.33042">
        <ele>139.207962</ele>
        <time>2022-03-20T08:35:14Z</time>
      </trkpt>
      <trkpt lat="50.35792" lon="4.3304">
        <ele>139.476196</ele>
        <time>2022-03-20T08:35:16Z</time>
      </trkpt>
      <trkpt lat="50.35791" lon="4.33042">
        <ele>139.775192</ele>
        <time>2022-03-20T08:35:18Z</time>
      </trkpt>
      <trkpt lat="50.35789" lon="4.33042">
        <ele>140.046585</ele>
        <time>2022-03-20T08:35:20Z</time>
      </trkpt>
      <trkpt lat="50.35785" lon="4.33042">
        <ele>140.969635</ele>
        <time>2022-03-20T08:35:26Z</time>
      </trkpt>
      <trkpt lat="50.35782" lon="4.33041">
        <ele>141.240021</ele>
        <time>2022-03-20T08:35:28Z</time>
      </trkpt>
      <trkpt lat="50.35779" lon="4.3304">
        <ele>141.685104</ele>
        <time>2022-03-20T08:35:30Z</time>
      </trkpt>
      <trkpt lat="50.35777" lon="4.3304">
        <ele>142.069763</ele>
        <time>2022-03-20T08:35:32Z</time>
      </trkpt>
      <trkpt lat="50.35773" lon="4.33039">
        <ele>142.893097</ele>
        <time>2022-03-20T08:35:36Z</time>
      </trkpt>
      <trkpt lat="50.3577" lon="4.33039">
        <ele>143.334106</ele>
        <time>2022-03-20T08:35:38Z</time>
      </trkpt>
      <trkpt lat="50.35767" lon="4.33039">
        <ele>144.185806</ele>
        <time>2022-03-20T08:35:42Z</time>
      </trkpt>
      <trkpt lat="50.35768" lon="4.33037">
        <ele>144.395126</ele>
        <time>2022-03-20T08:35:44Z</time>
      </trkpt>
      <trkpt lat="50.35767" lon="4.33038">
        <ele>144.781769</ele>
        <time>2022-03-20T08:35:46Z</time>
      </trkpt>
      <trkpt lat="50.35765" lon="4.33039">
        <ele>145.213501</ele>
        <time>2022-03-20T08:35:48Z</time>
      </trkpt>
      <trkpt lat="50.35764" lon="4.3304">
        <ele>145.664978</ele>
        <time>2022-03-20T08:35:50Z</time>
      </trkpt>
      <trkpt lat="50.35759" lon="4.3304">
        <ele>148.130203</ele>
        <time>2022-03-20T08:36:02Z</time>
      </trkpt>
      <trkpt lat="50.35757" lon="4.3304">
        <ele>148.519379</ele>
        <time>2022-03-20T08:36:04Z</time>
      </trkpt>
      <trkpt lat="50.35752" lon="4.33039">
        <ele>148.975861</ele>
        <time>2022-03-20T08:36:06Z</time>
      </trkpt>
      <trkpt lat="50.35749" lon="4.33045">
        <ele>151.038452</ele>
        <time>2022-03-20T08:36:16Z</time>
      </trkpt>
      <trkpt lat="50.35745" lon="4.33051">
        <ele>152.999069</ele>
        <time>2022-03-20T08:36:28Z</time>
      </trkpt>
      <trkpt lat="50.35742" lon="4.33052">
        <ele>153.28714</ele>
        <time>2022-03-20T08:36:30Z</time>
      </trkpt>
      <trkpt lat="50.3574" lon="4.33055">
        <ele>154.654633</ele>
        <time>2022-03-20T08:36:38Z</time>
      </trkpt>
      <trkpt lat="50.35737" lon="4.33054">
        <ele>158.170685</ele>
        <time>2022-03-20T08:37:09Z</time>
      </trkpt>
      <trkpt lat="50.35735" lon="4.33053">
        <ele>158.440033</ele>
        <time>2022-03-20T08:37:11Z</time>
      </trkpt>
      <trkpt lat="50.35733" lon="4.33052">
        <ele>158.667084</ele>
        <time>2022-03-20T08:37:13Z</time>
      </trkpt>
      <trkpt lat="50.3573" lon="4.33049">
        <ele>159.359253</ele>
        <time>2022-03-20T08:37:15Z</time>
      </trkpt>
      <trkpt lat="50.35724" lon="4.3304">
        <ele>159.541962</ele>
        <time>2022-03-20T08:37:17Z</time>
      </trkpt>
      <trkpt lat="50.35722" lon="4.33038">
        <ele>159.697678</ele>
        <time>2022-03-20T08:37:19Z</time>
      </trkpt>
      <trkpt lat="50.3572" lon="4.33036">
        <ele>159.90361</ele>
        <time>2022-03-20T08:37:21Z</time>
      </trkpt>
      <trkpt lat="50.3572" lon="4.33034">
        <ele>160.124451</ele>
        <time>2022-03-20T08:37:23Z</time>
      </trkpt>
      <trkpt lat="50.3572" lon="4.33032">
        <ele>160.368225</ele>
        <time>2022-03-20T08:37:25Z</time>
      </trkpt>
      <trkpt lat="50.3572" lon="4.33029">
        <ele>160.639084</ele>
        <time>2022-03-20T08:37:27Z</time>
      </trkpt>
      <trkpt lat="50.3572" lon="4.33026">
        <ele>160.89328</ele>
        <time>2022-03-20T08:37:29Z</time>
      </trkpt>
      <trkpt lat="50.35718" lon="4.33024">
        <ele>161.149353</ele>
        <time>2022-03-20T08:37:31Z</time>
      </trkpt>
      <trkpt lat="50.35718" lon="4.33021">
        <ele>161.432739</ele>
        <time>2022-03-20T08:37:33Z</time>
      </trkpt>
      <trkpt lat="50.35717" lon="4.33016">
        <ele>162.003693</ele>
        <time>2022-03-20T08:37:37Z</time>
      </trkpt>
      <trkpt lat="50.35717" lon="4.33013">
        <ele>162.270416</ele>
        <time>2022-03-20T08:37:39Z</time>
      </trkpt>
      <trkpt lat="50.35716" lon="4.3301">
        <ele>162.56633</ele>
        <time>2022-03-20T08:37:41Z</time>
      </trkpt>
      <trkpt lat="50.35716" lon="4.33006">
        <ele>162.90184</ele>
        <time>2022-03-20T08:37:43Z</time>
      </trkpt>
      <trkpt lat="50.35715" lon="4.33001">
        <ele>163.213287</ele>
        <time>2022-03-20T08:37:45Z</time>
      </trkpt>
      <trkpt lat="50.35715" lon="4.32997">
        <ele>163.508606</ele>
        <time>2022-03-20T08:37:47Z</time>
      </trkpt>
      <trkpt lat="50.35716" lon="4.32993">
        <ele>163.840714</ele>
        <time>2022-03-20T08:37:49Z</time>
      </trkpt>
      <trkpt lat="50.35714" lon="4.32991">
        <ele>164.122818</ele>
        <time>2022-03-20T08:37:51Z</time>
      </trkpt>
      <trkpt lat="50.35714" lon="4.32988">
        <ele>164.282928</ele>
        <time>2022-03-20T08:37:53Z</time>
      </trkpt>
      <trkpt lat="50.35713" lon="4.32985">
        <ele>164.107559</ele>
        <time>2022-03-20T08:37:55Z</time>
      </trkpt>
      <trkpt lat="50.35711" lon="4.32981">
        <ele>164.476501</ele>
        <time>2022-03-20T08:37:57Z</time>
      </trkpt>
      <trkpt lat="50.35709" lon="4.32973">
        <ele>165.948929</ele>
        <time>2022-03-20T08:38:05Z</time>
      </trkpt>
      <trkpt lat="50.35708" lon="4.32971">
        <ele>166.30542</ele>
        <time>2022-03-20T08:38:07Z</time>
      </trkpt>
      <trkpt lat="50.35705" lon="4.32966">
        <ele>167.068466</ele>
        <time>2022-03-20T08:38:11Z</time>
      </trkpt>
      <trkpt lat="50.35704" lon="4.32963">
        <ele>167.421005</ele>
        <time>2022-03-20T08:38:13Z</time>
      </trkpt>
      <trkpt lat="50.35704" lon="4.3296">
        <ele>168.236313</ele>
        <time>2022-03-20T08:38:17Z</time>
      </trkpt>
      <trkpt lat="50.35704" lon="4.32957">
        <ele>168.576187</ele>
        <time>2022-03-20T08:38:19Z</time>
      </trkpt>
      <trkpt lat="50.35703" lon="4.32955">
        <ele>170.025208</ele>
        <time>2022-03-20T08:38:27Z</time>
      </trkpt>
      <trkpt lat="50.35703" lon="4.32949">
        <ele>170.394318</ele>
        <time>2022-03-20T08:38:29Z</time>
      </trkpt>
      <trkpt lat="50.35701" lon="4.32945">
        <ele>170.671661</ele>
        <time>2022-03-20T08:38:31Z</time>
      </trkpt>
      <trkpt lat="50.357" lon="4.32943">
        <ele>170.991226</ele>
        <time>2022-03-20T08:38:33Z</time>
      </trkpt>
      <trkpt lat="50.357" lon="4.3294">
        <ele>171.306137</ele>
        <time>2022-03-20T08:38:35Z</time>
      </trkpt>
      <trkpt lat="50.35699" lon="4.32936">
        <ele>171.641953</ele>
        <time>2022-03-20T08:38:37Z</time>
      </trkpt>
      <trkpt lat="50.35697" lon="4.32931">
        <ele>171.962967</ele>
        <time>2022-03-20T08:38:39Z</time>
      </trkpt>
      <trkpt lat="50.35694" lon="4.32927">
        <ele>172.096451</ele>
        <time>2022-03-20T08:38:41Z</time>
      </trkpt>
      <trkpt lat="50.35692" lon="4.32922">
        <ele>172.428085</ele>
        <time>2022-03-20T08:38:43Z</time>
      </trkpt>
      <trkpt lat="50.3569" lon="4.32918">
        <ele>172.868698</ele>
        <time>2022-03-20T08:38:45Z</time>
      </trkpt>
      <trkpt lat="50.35688" lon="4.32914">
        <ele>172.9897</ele>
        <time>2022-03-20T08:38:47Z</time>
      </trkpt>
      <trkpt lat="50.35686" lon="4.32911">
        <ele>173.255997</ele>
        <time>2022-03-20T08:38:49Z</time>
      </trkpt>
      <trkpt lat="50.35684" lon="4.3291">
        <ele>173.534027</ele>
        <time>2022-03-20T08:38:51Z</time>
      </trkpt>
      <trkpt lat="50.35683" lon="4.32905">
        <ele>173.809387</ele>
        <time>2022-03-20T08:38:53Z</time>
      </trkpt>
      <trkpt lat="50.3568" lon="4.329">
        <ele>174.101471</ele>
        <time>2022-03-20T08:38:55Z</time>
      </trkpt>
      <trkpt lat="50.35677" lon="4.32895">
        <ele>174.347305</ele>
        <time>2022-03-20T08:38:57Z</time>
      </trkpt>
      <trkpt lat="50.35674" lon="4.32891">
        <ele>174.549698</ele>
        <time>2022-03-20T08:38:59Z</time>
      </trkpt>
      <trkpt lat="50.35672" lon="4.32887">
        <ele>174.88353</ele>
        <time>2022-03-20T08:39:01Z</time>
      </trkpt>
      <trkpt lat="50.35671" lon="4.3288">
        <ele>175.186096</ele>
        <time>2022-03-20T08:39:03Z</time>
      </trkpt>
      <trkpt lat="50.3567" lon="4.32876">
        <ele>175.488663</ele>
        <time>2022-03-20T08:39:05Z</time>
      </trkpt>
      <trkpt lat="50.35669" lon="4.32869">
        <ele>175.899811</ele>
        <time>2022-03-20T08:39:07Z</time>
      </trkpt>
      <trkpt lat="50.3567" lon="4.32862">
        <ele>176.183624</ele>
        <time>2022-03-20T08:39:09Z</time>
      </trkpt>
      <trkpt lat="50.35671" lon="4.32855">
        <ele>176.492447</ele>
        <time>2022-03-20T08:39:11Z</time>
      </trkpt>
      <trkpt lat="50.35671" lon="4.32848">
        <ele>176.840912</ele>
        <time>2022-03-20T08:39:13Z</time>
      </trkpt>
      <trkpt lat="50.35671" lon="4.32839">
        <ele>177.16214</ele>
        <time>2022-03-20T08:39:15Z</time>
      </trkpt>
      <trkpt lat="50.3567" lon="4.32831">
        <ele>177.425079</ele>
        <time>2022-03-20T08:39:17Z</time>
      </trkpt>
      <trkpt lat="50.3567" lon="4.32825">
        <ele>177.686264</ele>
        <time>2022-03-20T08:39:19Z</time>
      </trkpt>
      <trkpt lat="50.35669" lon="4.32817">
        <ele>177.835312</ele>
        <time>2022-03-20T08:39:21Z</time>
      </trkpt>
      <trkpt lat="50.35669" lon="4.32808">
        <ele>178.129547</ele>
        <time>2022-03-20T08:39:23Z</time>
      </trkpt>
      <trkpt lat="50.35667" lon="4.32803">
        <ele>178.407135</ele>
        <time>2022-03-20T08:39:25Z</time>
      </trkpt>
      <trkpt lat="50.35666" lon="4.32801">
        <ele>178.498978</ele>
        <time>2022-03-20T08:39:26Z</time>
      </trkpt>
      <trkpt lat="50.35664" lon="4.328">
        <ele>179.353607</ele>
        <time>2022-03-20T08:39:28Z</time>
      </trkpt>
      <trkpt lat="50.35661" lon="4.32805">
        <ele>179.617279</ele>
        <time>2022-03-20T08:39:30Z</time>
      </trkpt>
      <trkpt lat="50.35658" lon="4.32808">
        <ele>179.837921</ele>
        <time>2022-03-20T08:39:32Z</time>
      </trkpt>
      <trkpt lat="50.35655" lon="4.32813">
        <ele>180.121796</ele>
        <time>2022-03-20T08:39:34Z</time>
      </trkpt>
      <trkpt lat="50.35652" lon="4.32815">
        <ele>180.349319</ele>
        <time>2022-03-20T08:39:36Z</time>
      </trkpt>
      <trkpt lat="50.3565" lon="4.32815">
        <ele>181.360001</ele>
        <time>2022-03-20T08:39:46Z</time>
      </trkpt>
      <trkpt lat="50.35647" lon="4.32817">
        <ele>181.424713</ele>
        <time>2022-03-20T08:39:48Z</time>
      </trkpt>
      <trkpt lat="50.35645" lon="4.3282">
        <ele>181.512375</ele>
        <time>2022-03-20T08:39:50Z</time>
      </trkpt>
      <trkpt lat="50.35642" lon="4.32825">
        <ele>181.579178</ele>
        <time>2022-03-20T08:39:52Z</time>
      </trkpt>
      <trkpt lat="50.35638" lon="4.32832">
        <ele>181.664764</ele>
        <time>2022-03-20T08:39:54Z</time>
      </trkpt>
      <trkpt lat="50.35634" lon="4.32839">
        <ele>181.618866</ele>
        <time>2022-03-20T08:39:56Z</time>
      </trkpt>
      <trkpt lat="50.35631" lon="4.32846">
        <ele>181.698196</ele>
        <time>2022-03-20T08:39:58Z</time>
      </trkpt>
      <trkpt lat="50.35627" lon="4.32855">
        <ele>181.631073</ele>
        <time>2022-03-20T08:40:00Z</time>
      </trkpt>
      <trkpt lat="50.35624" lon="4.32864">
        <ele>181.684433</ele>
        <time>2022-03-20T08:40:02Z</time>
      </trkpt>
      <trkpt lat="50.35619" lon="4.32872">
        <ele>181.277863</ele>
        <time>2022-03-20T08:40:04Z</time>
      </trkpt>
      <trkpt lat="50.35615" lon="4.32881">
        <ele>181.227753</ele>
        <time>2022-03-20T08:40:06Z</time>
      </trkpt>
      <trkpt lat="50.35611" lon="4.32891">
        <ele>181.214447</ele>
        <time>2022-03-20T08:40:08Z</time>
      </trkpt>
      <trkpt lat="50.35606" lon="4.32901">
        <ele>181.231171</ele>
        <time>2022-03-20T08:40:10Z</time>
      </trkpt>
      <trkpt lat="50.35602" lon="4.3291">
        <ele>181.816254</ele>
        <time>2022-03-20T08:40:12Z</time>
      </trkpt>
      <trkpt lat="50.35598" lon="4.3292">
        <ele>181.79747</ele>
        <time>2022-03-20T08:40:14Z</time>
      </trkpt>
      <trkpt lat="50.35593" lon="4.32931">
        <ele>181.770325</ele>
        <time>2022-03-20T08:40:16Z</time>
      </trkpt>
      <trkpt lat="50.35589" lon="4.32941">
        <ele>181.791229</ele>
        <time>2022-03-20T08:40:18Z</time>
      </trkpt>
      <trkpt lat="50.35584" lon="4.32952">
        <ele>181.797638</ele>
        <time>2022-03-20T08:40:20Z</time>
      </trkpt>
      <trkpt lat="50.35579" lon="4.32962">
        <ele>181.849457</ele>
        <time>2022-03-20T08:40:22Z</time>
      </trkpt>
      <trkpt lat="50.35573" lon="4.32973">
        <ele>181.849457</ele>
        <time>2022-03-20T08:40:24Z</time>
      </trkpt>
      <trkpt lat="50.35568" lon="4.32984">
        <ele>181.861984</ele>
        <time>2022-03-20T08:40:26Z</time>
      </trkpt>
      <trkpt lat="50.35563" lon="4.32995">
        <ele>181.914246</ele>
        <time>2022-03-20T08:40:28Z</time>
      </trkpt>
      <trkpt lat="50.35558" lon="4.33007">
        <ele>181.970734</ele>
        <time>2022-03-20T08:40:30Z</time>
      </trkpt>
      <trkpt lat="50.35553" lon="4.33019">
        <ele>182.108536</ele>
        <time>2022-03-20T08:40:32Z</time>
      </trkpt>
      <trkpt lat="50.35548" lon="4.33031">
        <ele>182.187881</ele>
        <time>2022-03-20T08:40:34Z</time>
      </trkpt>
      <trkpt lat="50.35543" lon="4.33043">
        <ele>182.399384</ele>
        <time>2022-03-20T08:40:36Z</time>
      </trkpt>
      <trkpt lat="50.35537" lon="4.33055">
        <ele>182.561142</ele>
        <time>2022-03-20T08:40:38Z</time>
      </trkpt>
      <trkpt lat="50.35532" lon="4.33067">
        <ele>182.895187</ele>
        <time>2022-03-20T08:40:40Z</time>
      </trkpt>
      <trkpt lat="50.35527" lon="4.33079">
        <ele>183.018372</ele>
        <time>2022-03-20T08:40:42Z</time>
      </trkpt>
      <trkpt lat="50.35522" lon="4.33092">
        <ele>183.036957</ele>
        <time>2022-03-20T08:40:44Z</time>
      </trkpt>
      <trkpt lat="50.35517" lon="4.33104">
        <ele>183.717194</ele>
        <time>2022-03-20T08:40:46Z</time>
      </trkpt>
      <trkpt lat="50.35513" lon="4.33116">
        <ele>183.990738</ele>
        <time>2022-03-20T08:40:48Z</time>
      </trkpt>
      <trkpt lat="50.35508" lon="4.33129">
        <ele>183.660065</ele>
        <time>2022-03-20T08:40:50Z</time>
      </trkpt>
      <trkpt lat="50.35503" lon="4.33141">
        <ele>183.365219</ele>
        <time>2022-03-20T08:40:52Z</time>
      </trkpt>
      <trkpt lat="50.35498" lon="4.33153">
        <ele>183.530182</ele>
        <time>2022-03-20T08:40:54Z</time>
      </trkpt>
      <trkpt lat="50.35494" lon="4.33166">
        <ele>183.607483</ele>
        <time>2022-03-20T08:40:56Z</time>
      </trkpt>
      <trkpt lat="50.35488" lon="4.33181">
        <ele>183.828827</ele>
        <time>2022-03-20T08:40:58Z</time>
      </trkpt>
      <trkpt lat="50.35483" lon="4.33197">
        <ele>184.010483</ele>
        <time>2022-03-20T08:41:00Z</time>
      </trkpt>
      <trkpt lat="50.35478" lon="4.33213">
        <ele>184.150284</ele>
        <time>2022-03-20T08:41:02Z</time>
      </trkpt>
      <trkpt lat="50.35471" lon="4.33227">
        <ele>184.282211</ele>
        <time>2022-03-20T08:41:04Z</time>
      </trkpt>
      <trkpt lat="50.35469" lon="4.33234">
        <ele>184.406967</ele>
        <time>2022-03-20T08:41:05Z</time>
      </trkpt>
      <trkpt lat="50.35464" lon="4.33248">
        <ele>184.584015</ele>
        <time>2022-03-20T08:41:07Z</time>
      </trkpt>
      <trkpt lat="50.35461" lon="4.33255">
        <ele>184.664886</ele>
        <time>2022-03-20T08:41:08Z</time>
      </trkpt>
      <trkpt lat="50.35456" lon="4.33269">
        <ele>184.673157</ele>
        <time>2022-03-20T08:41:10Z</time>
      </trkpt>
      <trkpt lat="50.35451" lon="4.33283">
        <ele>184.731628</ele>
        <time>2022-03-20T08:41:12Z</time>
      </trkpt>
      <trkpt lat="50.35445" lon="4.33296">
        <ele>184.823517</ele>
        <time>2022-03-20T08:41:14Z</time>
      </trkpt>
      <trkpt lat="50.3544" lon="4.3331">
        <ele>184.935638</ele>
        <time>2022-03-20T08:41:16Z</time>
      </trkpt>
      <trkpt lat="50.35435" lon="4.33325">
        <ele>185.074554</ele>
        <time>2022-03-20T08:41:18Z</time>
      </trkpt>
      <trkpt lat="50.3543" lon="4.33339">
        <ele>185.20993</ele>
        <time>2022-03-20T08:41:20Z</time>
      </trkpt>
      <trkpt lat="50.35424" lon="4.33354">
        <ele>185.297546</ele>
        <time>2022-03-20T08:41:22Z</time>
      </trkpt>
      <trkpt lat="50.3542" lon="4.3337">
        <ele>185.403107</ele>
        <time>2022-03-20T08:41:24Z</time>
      </trkpt>
      <trkpt lat="50.35414" lon="4.33385">
        <ele>185.54306</ele>
        <time>2022-03-20T08:41:26Z</time>
      </trkpt>
      <trkpt lat="50.35409" lon="4.33401">
        <ele>185.718353</ele>
        <time>2022-03-20T08:41:28Z</time>
      </trkpt>
      <trkpt lat="50.35403" lon="4.33416">
        <ele>185.689117</ele>
        <time>2022-03-20T08:41:30Z</time>
      </trkpt>
      <trkpt lat="50.35399" lon="4.3343">
        <ele>185.739548</ele>
        <time>2022-03-20T08:41:32Z</time>
      </trkpt>
      <trkpt lat="50.35394" lon="4.33444">
        <ele>185.841904</ele>
        <time>2022-03-20T08:41:34Z</time>
      </trkpt>
      <trkpt lat="50.35388" lon="4.33459">
        <ele>185.854446</ele>
        <time>2022-03-20T08:41:36Z</time>
      </trkpt>
      <trkpt lat="50.35383" lon="4.33473">
        <ele>186.090378</ele>
        <time>2022-03-20T08:41:38Z</time>
      </trkpt>
      <trkpt lat="50.35378" lon="4.33487">
        <ele>186.161407</ele>
        <time>2022-03-20T08:41:40Z</time>
      </trkpt>
      <trkpt lat="50.35373" lon="4.33501">
        <ele>186.121735</ele>
        <time>2022-03-20T08:41:42Z</time>
      </trkpt>
      <trkpt lat="50.35368" lon="4.33515">
        <ele>186.191437</ele>
        <time>2022-03-20T08:41:44Z</time>
      </trkpt>
      <trkpt lat="50.35363" lon="4.33529">
        <ele>186.166946</ele>
        <time>2022-03-20T08:41:46Z</time>
      </trkpt>
      <trkpt lat="50.35358" lon="4.33543">
        <ele>186.154877</ele>
        <time>2022-03-20T08:41:48Z</time>
      </trkpt>
      <trkpt lat="50.35354" lon="4.33556">
        <ele>186.365753</ele>
        <time>2022-03-20T08:41:50Z</time>
      </trkpt>
      <trkpt lat="50.35349" lon="4.3357">
        <ele>186.47644</ele>
        <time>2022-03-20T08:41:52Z</time>
      </trkpt>
      <trkpt lat="50.35344" lon="4.33584">
        <ele>186.62265</ele>
        <time>2022-03-20T08:41:54Z</time>
      </trkpt>
      <trkpt lat="50.35339" lon="4.33597">
        <ele>186.781403</ele>
        <time>2022-03-20T08:41:56Z</time>
      </trkpt>
      <trkpt lat="50.35335" lon="4.33611">
        <ele>186.900467</ele>
        <time>2022-03-20T08:41:58Z</time>
      </trkpt>
      <trkpt lat="50.3533" lon="4.33624">
        <ele>187.151566</ele>
        <time>2022-03-20T08:42:00Z</time>
      </trkpt>
      <trkpt lat="50.35325" lon="4.33637">
        <ele>187.210052</ele>
        <time>2022-03-20T08:42:02Z</time>
      </trkpt>
      <trkpt lat="50.35321" lon="4.3365">
        <ele>187.343796</ele>
        <time>2022-03-20T08:42:04Z</time>
      </trkpt>
      <trkpt lat="50.35316" lon="4.33662">
        <ele>187.442017</ele>
        <time>2022-03-20T08:42:06Z</time>
      </trkpt>
      <trkpt lat="50.35311" lon="4.33675">
        <ele>187.611221</ele>
        <time>2022-03-20T08:42:08Z</time>
      </trkpt>
      <trkpt lat="50.35306" lon="4.33689">
        <ele>187.665543</ele>
        <time>2022-03-20T08:42:10Z</time>
      </trkpt>
      <trkpt lat="50.35301" lon="4.33702">
        <ele>187.935028</ele>
        <time>2022-03-20T08:42:12Z</time>
      </trkpt>
      <trkpt lat="50.35296" lon="4.33716">
        <ele>188.058319</ele>
        <time>2022-03-20T08:42:14Z</time>
      </trkpt>
      <trkpt lat="50.35292" lon="4.3373">
        <ele>188.202423</ele>
        <time>2022-03-20T08:42:16Z</time>
      </trkpt>
      <trkpt lat="50.35287" lon="4.33744">
        <ele>188.321503</ele>
        <time>2022-03-20T08:42:18Z</time>
      </trkpt>
      <trkpt lat="50.35281" lon="4.33758">
        <ele>188.369537</ele>
        <time>2022-03-20T08:42:20Z</time>
      </trkpt>
      <trkpt lat="50.35276" lon="4.33773">
        <ele>188.517853</ele>
        <time>2022-03-20T08:42:22Z</time>
      </trkpt>
      <trkpt lat="50.35271" lon="4.33788">
        <ele>188.774872</ele>
        <time>2022-03-20T08:42:24Z</time>
      </trkpt>
      <trkpt lat="50.35266" lon="4.33803">
        <ele>188.860504</ele>
        <time>2022-03-20T08:42:26Z</time>
      </trkpt>
      <trkpt lat="50.3526" lon="4.33818">
        <ele>189.023453</ele>
        <time>2022-03-20T08:42:28Z</time>
      </trkpt>
      <trkpt lat="50.35255" lon="4.33833">
        <ele>189.22879</ele>
        <time>2022-03-20T08:42:30Z</time>
      </trkpt>
      <trkpt lat="50.35249" lon="4.33849">
        <ele>189.262222</ele>
        <time>2022-03-20T08:42:32Z</time>
      </trkpt>
      <trkpt lat="50.35244" lon="4.33864">
        <ele>189.377121</ele>
        <time>2022-03-20T08:42:34Z</time>
      </trkpt>
      <trkpt lat="50.35239" lon="4.3388">
        <ele>189.454102</ele>
        <time>2022-03-20T08:42:36Z</time>
      </trkpt>
      <trkpt lat="50.35234" lon="4.33896">
        <ele>189.320435</ele>
        <time>2022-03-20T08:42:38Z</time>
      </trkpt>
      <trkpt lat="50.35228" lon="4.33912">
        <ele>189.38797</ele>
        <time>2022-03-20T08:42:40Z</time>
      </trkpt>
      <trkpt lat="50.35222" lon="4.33926">
        <ele>189.281342</ele>
        <time>2022-03-20T08:42:42Z</time>
      </trkpt>
      <trkpt lat="50.35215" lon="4.33941">
        <ele>189.316864</ele>
        <time>2022-03-20T08:42:44Z</time>
      </trkpt>
      <trkpt lat="50.35209" lon="4.33955">
        <ele>189.363419</ele>
        <time>2022-03-20T08:42:46Z</time>
      </trkpt>
      <trkpt lat="50.35201" lon="4.33969">
        <ele>189.495071</ele>
        <time>2022-03-20T08:42:48Z</time>
      </trkpt>
      <trkpt lat="50.35193" lon="4.33982">
        <ele>189.60791</ele>
        <time>2022-03-20T08:42:50Z</time>
      </trkpt>
      <trkpt lat="50.35185" lon="4.33994">
        <ele>189.606354</ele>
        <time>2022-03-20T08:42:52Z</time>
      </trkpt>
      <trkpt lat="50.35177" lon="4.34005">
        <ele>189.468445</ele>
        <time>2022-03-20T08:42:54Z</time>
      </trkpt>
      <trkpt lat="50.35167" lon="4.34016">
        <ele>189.478546</ele>
        <time>2022-03-20T08:42:56Z</time>
      </trkpt>
      <trkpt lat="50.35158" lon="4.34026">
        <ele>189.509903</ele>
        <time>2022-03-20T08:42:58Z</time>
      </trkpt>
      <trkpt lat="50.35148" lon="4.34035">
        <ele>189.432602</ele>
        <time>2022-03-20T08:43:00Z</time>
      </trkpt>
      <trkpt lat="50.35138" lon="4.34044">
        <ele>189.332336</ele>
        <time>2022-03-20T08:43:02Z</time>
      </trkpt>
      <trkpt lat="50.35127" lon="4.34053">
        <ele>189.278015</ele>
        <time>2022-03-20T08:43:04Z</time>
      </trkpt>
      <trkpt lat="50.35117" lon="4.34061">
        <ele>189.227036</ele>
        <time>2022-03-20T08:43:06Z</time>
      </trkpt>
      <trkpt lat="50.35106" lon="4.34069">
        <ele>189.254211</ele>
        <time>2022-03-20T08:43:08Z</time>
      </trkpt>
      <trkpt lat="50.35096" lon="4.34078">
        <ele>189.252823</ele>
        <time>2022-03-20T08:43:10Z</time>
      </trkpt>
      <trkpt lat="50.35086" lon="4.34086">
        <ele>189.188049</ele>
        <time>2022-03-20T08:43:12Z</time>
      </trkpt>
      <trkpt lat="50.35076" lon="4.34095">
        <ele>189.091949</ele>
        <time>2022-03-20T08:43:14Z</time>
      </trkpt>
      <trkpt lat="50.35065" lon="4.34104">
        <ele>189.058502</ele>
        <time>2022-03-20T08:43:16Z</time>
      </trkpt>
      <trkpt lat="50.35055" lon="4.34113">
        <ele>189.202988</ele>
        <time>2022-03-20T08:43:18Z</time>
      </trkpt>
      <trkpt lat="50.35045" lon="4.34121">
        <ele>189.175156</ele>
        <time>2022-03-20T08:43:20Z</time>
      </trkpt>
      <trkpt lat="50.3504" lon="4.34125">
        <ele>189.095764</ele>
        <time>2022-03-20T08:43:21Z</time>
      </trkpt>
      <trkpt lat="50.3503" lon="4.34133">
        <ele>189.077011</ele>
        <time>2022-03-20T08:43:23Z</time>
      </trkpt>
      <trkpt lat="50.35021" lon="4.34142">
        <ele>189.086853</ele>
        <time>2022-03-20T08:43:25Z</time>
      </trkpt>
      <trkpt lat="50.35011" lon="4.34151">
        <ele>188.946884</ele>
        <time>2022-03-20T08:43:27Z</time>
      </trkpt>
      <trkpt lat="50.35003" lon="4.34159">
        <ele>188.8591</ele>
        <time>2022-03-20T08:43:29Z</time>
      </trkpt>
      <trkpt lat="50.34995" lon="4.34167">
        <ele>188.685684</ele>
        <time>2022-03-20T08:43:31Z</time>
      </trkpt>
      <trkpt lat="50.34987" lon="4.34175">
        <ele>188.610352</ele>
        <time>2022-03-20T08:43:33Z</time>
      </trkpt>
      <trkpt lat="50.34979" lon="4.34183">
        <ele>188.654205</ele>
        <time>2022-03-20T08:43:35Z</time>
      </trkpt>
      <trkpt lat="50.34972" lon="4.34191">
        <ele>188.650314</ele>
        <time>2022-03-20T08:43:37Z</time>
      </trkpt>
      <trkpt lat="50.34964" lon="4.342">
        <ele>188.608536</ele>
        <time>2022-03-20T08:43:39Z</time>
      </trkpt>
      <trkpt lat="50.34957" lon="4.34209">
        <ele>188.642975</ele>
        <time>2022-03-20T08:43:41Z</time>
      </trkpt>
      <trkpt lat="50.3495" lon="4.34218">
        <ele>188.708771</ele>
        <time>2022-03-20T08:43:43Z</time>
      </trkpt>
      <trkpt lat="50.34944" lon="4.34226">
        <ele>188.769348</ele>
        <time>2022-03-20T08:43:45Z</time>
      </trkpt>
      <trkpt lat="50.34938" lon="4.34234">
        <ele>188.65863</ele>
        <time>2022-03-20T08:43:47Z</time>
      </trkpt>
      <trkpt lat="50.34932" lon="4.34242">
        <ele>188.673248</ele>
        <time>2022-03-20T08:43:49Z</time>
      </trkpt>
      <trkpt lat="50.34931" lon="4.34251">
        <ele>188.586884</ele>
        <time>2022-03-20T08:43:51Z</time>
      </trkpt>
      <trkpt lat="50.34936" lon="4.34259">
        <ele>188.574356</ele>
        <time>2022-03-20T08:43:53Z</time>
      </trkpt>
      <trkpt lat="50.34943" lon="4.34261">
        <ele>188.630753</ele>
        <time>2022-03-20T08:43:55Z</time>
      </trkpt>
      <trkpt lat="50.34948" lon="4.34265">
        <ele>188.672348</ele>
        <time>2022-03-20T08:43:57Z</time>
      </trkpt>
      <trkpt lat="50.34953" lon="4.34267">
        <ele>188.666061</ele>
        <time>2022-03-20T08:43:59Z</time>
      </trkpt>
      <trkpt lat="50.34959" lon="4.34268">
        <ele>188.735016</ele>
        <time>2022-03-20T08:44:01Z</time>
      </trkpt>
      <trkpt lat="50.34966" lon="4.34268">
        <ele>188.966949</ele>
        <time>2022-03-20T08:44:03Z</time>
      </trkpt>
      <trkpt lat="50.34973" lon="4.34269">
        <ele>189.006638</ele>
        <time>2022-03-20T08:44:05Z</time>
      </trkpt>
      <trkpt lat="50.3498" lon="4.3427">
        <ele>189.117157</ele>
        <time>2022-03-20T08:44:07Z</time>
      </trkpt>
      <trkpt lat="50.34988" lon="4.34272">
        <ele>189.266571</ele>
        <time>2022-03-20T08:44:09Z</time>
      </trkpt>
      <trkpt lat="50.34994" lon="4.34274">
        <ele>189.339706</ele>
        <time>2022-03-20T08:44:11Z</time>
      </trkpt>
      <trkpt lat="50.35003" lon="4.34274">
        <ele>189.520996</ele>
        <time>2022-03-20T08:44:13Z</time>
      </trkpt>
      <trkpt lat="50.35011" lon="4.34272">
        <ele>189.613983</ele>
        <time>2022-03-20T08:44:15Z</time>
      </trkpt>
      <trkpt lat="50.35019" lon="4.34272">
        <ele>189.711624</ele>
        <time>2022-03-20T08:44:17Z</time>
      </trkpt>
      <trkpt lat="50.35026" lon="4.34272">
        <ele>189.926529</ele>
        <time>2022-03-20T08:44:19Z</time>
      </trkpt>
      <trkpt lat="50.35033" lon="4.34273">
        <ele>190.034149</ele>
        <time>2022-03-20T08:44:21Z</time>
      </trkpt>
      <trkpt lat="50.35041" lon="4.34274">
        <ele>190.148041</ele>
        <time>2022-03-20T08:44:23Z</time>
      </trkpt>
      <trkpt lat="50.3505" lon="4.34275">
        <ele>190.285721</ele>
        <time>2022-03-20T08:44:25Z</time>
      </trkpt>
      <trkpt lat="50.35061" lon="4.34274">
        <ele>190.427246</ele>
        <time>2022-03-20T08:44:27Z</time>
      </trkpt>
      <trkpt lat="50.3507" lon="4.34273">
        <ele>190.521271</ele>
        <time>2022-03-20T08:44:29Z</time>
      </trkpt>
      <trkpt lat="50.35079" lon="4.34271">
        <ele>190.636185</ele>
        <time>2022-03-20T08:44:31Z</time>
      </trkpt>
      <trkpt lat="50.35088" lon="4.3427">
        <ele>190.838867</ele>
        <time>2022-03-20T08:44:33Z</time>
      </trkpt>
      <trkpt lat="50.35099" lon="4.34269">
        <ele>190.774094</ele>
        <time>2022-03-20T08:44:35Z</time>
      </trkpt>
      <trkpt lat="50.35107" lon="4.3427">
        <ele>190.895462</ele>
        <time>2022-03-20T08:44:37Z</time>
      </trkpt>
      <trkpt lat="50.35115" lon="4.34272">
        <ele>190.924713</ele>
        <time>2022-03-20T08:44:39Z</time>
      </trkpt>
      <trkpt lat="50.3512" lon="4.3427">
        <ele>190.930984</ele>
        <time>2022-03-20T08:44:41Z</time>
      </trkpt>
      <trkpt lat="50.3512" lon="4.34263">
        <ele>190.987396</ele>
        <time>2022-03-20T08:44:43Z</time>
      </trkpt>
      <trkpt lat="50.35123" lon="4.34257">
        <ele>190.851593</ele>
        <time>2022-03-20T08:44:45Z</time>
      </trkpt>
      <trkpt lat="50.35121" lon="4.34249">
        <ele>190.715775</ele>
        <time>2022-03-20T08:44:47Z</time>
      </trkpt>
      <trkpt lat="50.35119" lon="4.34242">
        <ele>190.694702</ele>
        <time>2022-03-20T08:44:49Z</time>
      </trkpt>
      <trkpt lat="50.35114" lon="4.34238">
        <ele>190.378265</ele>
        <time>2022-03-20T08:44:51Z</time>
      </trkpt>
      <trkpt lat="50.35107" lon="4.34237">
        <ele>190.177765</ele>
        <time>2022-03-20T08:44:53Z</time>
      </trkpt>
      <trkpt lat="50.35103" lon="4.34237">
        <ele>190.045059</ele>
        <time>2022-03-20T08:44:55Z</time>
      </trkpt>
      <trkpt lat="50.35099" lon="4.34238">
        <ele>189.95163</ele>
        <time>2022-03-20T08:44:57Z</time>
      </trkpt>
      <trkpt lat="50.35096" lon="4.34236">
        <ele>189.939102</ele>
        <time>2022-03-20T08:44:58Z</time>
      </trkpt>
      <trkpt lat="50.35089" lon="4.34234">
        <ele>189.724228</ele>
        <time>2022-03-20T08:45:00Z</time>
      </trkpt>
      <trkpt lat="50.35083" lon="4.34232">
        <ele>189.488174</ele>
        <time>2022-03-20T08:45:02Z</time>
      </trkpt>
      <trkpt lat="50.35077" lon="4.34233">
        <ele>189.316864</ele>
        <time>2022-03-20T08:45:04Z</time>
      </trkpt>
      <trkpt lat="50.35071" lon="4.34233">
        <ele>189.166626</ele>
        <time>2022-03-20T08:45:06Z</time>
      </trkpt>
      <trkpt lat="50.35066" lon="4.34237">
        <ele>189.020905</ele>
        <time>2022-03-20T08:45:08Z</time>
      </trkpt>
      <trkpt lat="50.35057" lon="4.34239">
        <ele>188.987488</ele>
        <time>2022-03-20T08:45:10Z</time>
      </trkpt>
      <trkpt lat="50.35049" lon="4.34241">
        <ele>188.884781</ele>
        <time>2022-03-20T08:45:12Z</time>
      </trkpt>
      <trkpt lat="50.35043" lon="4.34246">
        <ele>188.801193</ele>
        <time>2022-03-20T08:45:14Z</time>
      </trkpt>
      <trkpt lat="50.35039" lon="4.3425">
        <ele>188.855515</ele>
        <time>2022-03-20T08:45:16Z</time>
      </trkpt>
      <trkpt lat="50.35035" lon="4.34251">
        <ele>188.8367</ele>
        <time>2022-03-20T08:45:18Z</time>
      </trkpt>
      <trkpt lat="50.3503" lon="4.34252">
        <ele>188.82251</ele>
        <time>2022-03-20T08:45:20Z</time>
      </trkpt>
      <trkpt lat="50.35025" lon="4.34254">
        <ele>188.835052</ele>
        <time>2022-03-20T08:45:22Z</time>
      </trkpt>
      <trkpt lat="50.35016" lon="4.34255">
        <ele>188.91449</ele>
        <time>2022-03-20T08:45:24Z</time>
      </trkpt>
      <trkpt lat="50.35006" lon="4.34254">
        <ele>188.730682</ele>
        <time>2022-03-20T08:45:26Z</time>
      </trkpt>
      <trkpt lat="50.35" lon="4.34256">
        <ele>188.810074</ele>
        <time>2022-03-20T08:45:28Z</time>
      </trkpt>
      <trkpt lat="50.34995" lon="4.34257">
        <ele>188.75827</ele>
        <time>2022-03-20T08:45:30Z</time>
      </trkpt>
      <trkpt lat="50.3499" lon="4.34258">
        <ele>189.08197</ele>
        <time>2022-03-20T08:45:32Z</time>
      </trkpt>
      <trkpt lat="50.34988" lon="4.34257">
        <ele>189.265823</ele>
        <time>2022-03-20T08:45:36Z</time>
      </trkpt>
      <trkpt lat="50.34987" lon="4.34253">
        <ele>189.370285</ele>
        <time>2022-03-20T08:45:38Z</time>
      </trkpt>
      <trkpt lat="50.34987" lon="4.34248">
        <ele>189.470566</ele>
        <time>2022-03-20T08:45:40Z</time>
      </trkpt>
      <trkpt lat="50.34986" lon="4.34239">
        <ele>189.614761</ele>
        <time>2022-03-20T08:45:42Z</time>
      </trkpt>
      <trkpt lat="50.34986" lon="4.34234">
        <ele>189.867523</ele>
        <time>2022-03-20T08:45:44Z</time>
      </trkpt>
      <trkpt lat="50.34984" lon="4.34228">
        <ele>190.895325</ele>
        <time>2022-03-20T08:46:10Z</time>
      </trkpt>
      <trkpt lat="50.34984" lon="4.34221">
        <ele>191.047836</ele>
        <time>2022-03-20T08:46:12Z</time>
      </trkpt>
      <trkpt lat="50.34987" lon="4.34219">
        <ele>191.045761</ele>
        <time>2022-03-20T08:46:14Z</time>
      </trkpt>
      <trkpt lat="50.3499" lon="4.34219">
        <ele>191.116806</ele>
        <time>2022-03-20T08:46:16Z</time>
      </trkpt>
      <trkpt lat="50.34993" lon="4.34217">
        <ele>191.180069</ele>
        <time>2022-03-20T08:46:18Z</time>
      </trkpt>
      <trkpt lat="50.34999" lon="4.34216">
        <ele>191.182144</ele>
        <time>2022-03-20T08:46:20Z</time>
      </trkpt>
      <trkpt lat="50.35002" lon="4.34218">
        <ele>191.123627</ele>
        <time>2022-03-20T08:46:22Z</time>
      </trkpt>
      <trkpt lat="50.35005" lon="4.34218">
        <ele>191.102737</ele>
        <time>2022-03-20T08:46:24Z</time>
      </trkpt>
      <trkpt lat="50.35009" lon="4.34219">
        <ele>191.060944</ele>
        <time>2022-03-20T08:46:26Z</time>
      </trkpt>
      <trkpt lat="50.35012" lon="4.34218">
        <ele>191.040039</ele>
        <time>2022-03-20T08:46:28Z</time>
      </trkpt>
      <trkpt lat="50.35017" lon="4.34217">
        <ele>190.856155</ele>
        <time>2022-03-20T08:46:32Z</time>
      </trkpt>
      <trkpt lat="50.35019" lon="4.34218">
        <ele>190.793488</ele>
        <time>2022-03-20T08:46:34Z</time>
      </trkpt>
      <trkpt lat="50.35023" lon="4.34217">
        <ele>190.615875</ele>
        <time>2022-03-20T08:46:38Z</time>
      </trkpt>
      <trkpt lat="50.35025" lon="4.34216">
        <ele>190.56572</ele>
        <time>2022-03-20T08:46:40Z</time>
      </trkpt>
      <trkpt lat="50.35026" lon="4.34215">
        <ele>190.511398</ele>
        <time>2022-03-20T08:46:41Z</time>
      </trkpt>
      <trkpt lat="50.35027" lon="4.34212">
        <ele>190.393845</ele>
        <time>2022-03-20T08:46:43Z</time>
      </trkpt>
      <trkpt lat="50.35032" lon="4.342">
        <ele>190.34787</ele>
        <time>2022-03-20T08:46:45Z</time>
      </trkpt>
      <trkpt lat="50.35035" lon="4.3419">
        <ele>190.176544</ele>
        <time>2022-03-20T08:46:47Z</time>
      </trkpt>
      <trkpt lat="50.3504" lon="4.34185">
        <ele>190.004547</ele>
        <time>2022-03-20T08:46:49Z</time>
      </trkpt>
      <trkpt lat="50.35049" lon="4.34183">
        <ele>190.09024</ele>
        <time>2022-03-20T08:46:51Z</time>
      </trkpt>
      <trkpt lat="50.35061" lon="4.34181">
        <ele>189.879227</ele>
        <time>2022-03-20T08:46:53Z</time>
      </trkpt>
      <trkpt lat="50.35073" lon="4.34177">
        <ele>189.643158</ele>
        <time>2022-03-20T08:46:55Z</time>
      </trkpt>
      <trkpt lat="50.35086" lon="4.34173">
        <ele>189.465561</ele>
        <time>2022-03-20T08:46:57Z</time>
      </trkpt>
      <trkpt lat="50.35098" lon="4.34172">
        <ele>189.178787</ele>
        <time>2022-03-20T08:46:59Z</time>
      </trkpt>
      <trkpt lat="50.35103" lon="4.34171">
        <ele>188.955307</ele>
        <time>2022-03-20T08:47:00Z</time>
      </trkpt>
      <trkpt lat="50.35117" lon="4.3417">
        <ele>188.713089</ele>
        <time>2022-03-20T08:47:02Z</time>
      </trkpt>
      <trkpt lat="50.3513" lon="4.34167">
        <ele>188.34964</ele>
        <time>2022-03-20T08:47:04Z</time>
      </trkpt>
      <trkpt lat="50.35145" lon="4.34165">
        <ele>188.172089</ele>
        <time>2022-03-20T08:47:06Z</time>
      </trkpt>
      <trkpt lat="50.3516" lon="4.34163">
        <ele>187.95697</ele>
        <time>2022-03-20T08:47:08Z</time>
      </trkpt>
      <trkpt lat="50.35175" lon="4.34163">
        <ele>187.526703</ele>
        <time>2022-03-20T08:47:10Z</time>
      </trkpt>
      <trkpt lat="50.3519" lon="4.34162">
        <ele>187.472382</ele>
        <time>2022-03-20T08:47:12Z</time>
      </trkpt>
      <trkpt lat="50.35207" lon="4.34161">
        <ele>187.286469</ele>
        <time>2022-03-20T08:47:14Z</time>
      </trkpt>
      <trkpt lat="50.35226" lon="4.34162">
        <ele>186.79361</ele>
        <time>2022-03-20T08:47:16Z</time>
      </trkpt>
      <trkpt lat="50.35245" lon="4.34165">
        <ele>186.315384</ele>
        <time>2022-03-20T08:47:18Z</time>
      </trkpt>
      <trkpt lat="50.3526" lon="4.34172">
        <ele>186.053909</ele>
        <time>2022-03-20T08:47:20Z</time>
      </trkpt>
      <trkpt lat="50.35275" lon="4.34179">
        <ele>185.467209</ele>
        <time>2022-03-20T08:47:22Z</time>
      </trkpt>
      <trkpt lat="50.35285" lon="4.34185">
        <ele>184.659851</ele>
        <time>2022-03-20T08:47:24Z</time>
      </trkpt>
      <trkpt lat="50.35296" lon="4.34194">
        <ele>183.894897</ele>
        <time>2022-03-20T08:47:26Z</time>
      </trkpt>
      <trkpt lat="50.35309" lon="4.34201">
        <ele>183.334869</ele>
        <time>2022-03-20T08:47:28Z</time>
      </trkpt>
      <trkpt lat="50.35324" lon="4.34206">
        <ele>182.623718</ele>
        <time>2022-03-20T08:47:30Z</time>
      </trkpt>
      <trkpt lat="50.35339" lon="4.34212">
        <ele>181.585983</ele>
        <time>2022-03-20T08:47:32Z</time>
      </trkpt>
      <trkpt lat="50.35353" lon="4.34226">
        <ele>180.567627</ele>
        <time>2022-03-20T08:47:34Z</time>
      </trkpt>
      <trkpt lat="50.35368" lon="4.34237">
        <ele>179.606598</ele>
        <time>2022-03-20T08:47:36Z</time>
      </trkpt>
      <trkpt lat="50.35386" lon="4.34256">
        <ele>178.649017</ele>
        <time>2022-03-20T08:47:38Z</time>
      </trkpt>
      <trkpt lat="50.35402" lon="4.3427">
        <ele>178.297089</ele>
        <time>2022-03-20T08:47:40Z</time>
      </trkpt>
      <trkpt lat="50.35415" lon="4.34278">
        <ele>177.399902</ele>
        <time>2022-03-20T08:47:42Z</time>
      </trkpt>
      <trkpt lat="50.3543" lon="4.34288">
        <ele>176.314377</ele>
        <time>2022-03-20T08:47:44Z</time>
      </trkpt>
      <trkpt lat="50.35447" lon="4.34302">
        <ele>175.676147</ele>
        <time>2022-03-20T08:47:46Z</time>
      </trkpt>
      <trkpt lat="50.35465" lon="4.34317">
        <ele>174.474365</ele>
        <time>2022-03-20T08:47:48Z</time>
      </trkpt>
      <trkpt lat="50.35483" lon="4.34333">
        <ele>173.909058</ele>
        <time>2022-03-20T08:47:50Z</time>
      </trkpt>
      <trkpt lat="50.3549" lon="4.3434">
        <ele>173.266754</ele>
        <time>2022-03-20T08:47:51Z</time>
      </trkpt>
      <trkpt lat="50.35505" lon="4.34351">
        <ele>171.830322</ele>
        <time>2022-03-20T08:47:53Z</time>
      </trkpt>
      <trkpt lat="50.35517" lon="4.34361">
        <ele>170.517914</ele>
        <time>2022-03-20T08:47:55Z</time>
      </trkpt>
      <trkpt lat="50.35532" lon="4.34365">
        <ele>169.456024</ele>
        <time>2022-03-20T08:47:57Z</time>
      </trkpt>
      <trkpt lat="50.35547" lon="4.34366">
        <ele>167.830536</ele>
        <time>2022-03-20T08:47:59Z</time>
      </trkpt>
      <trkpt lat="50.35564" lon="4.3437">
        <ele>166.355682</ele>
        <time>2022-03-20T08:48:01Z</time>
      </trkpt>
      <trkpt lat="50.35578" lon="4.34375">
        <ele>165.0009</ele>
        <time>2022-03-20T08:48:03Z</time>
      </trkpt>
      <trkpt lat="50.35591" lon="4.34376">
        <ele>163.960983</ele>
        <time>2022-03-20T08:48:05Z</time>
      </trkpt>
      <trkpt lat="50.356" lon="4.34382">
        <ele>162.51355</ele>
        <time>2022-03-20T08:48:07Z</time>
      </trkpt>
      <trkpt lat="50.35609" lon="4.34383">
        <ele>161.030426</ele>
        <time>2022-03-20T08:48:09Z</time>
      </trkpt>
      <trkpt lat="50.3562" lon="4.34385">
        <ele>159.553391</ele>
        <time>2022-03-20T08:48:11Z</time>
      </trkpt>
      <trkpt lat="50.35629" lon="4.34388">
        <ele>158.111938</ele>
        <time>2022-03-20T08:48:13Z</time>
      </trkpt>
      <trkpt lat="50.35641" lon="4.34388">
        <ele>156.870895</ele>
        <time>2022-03-20T08:48:15Z</time>
      </trkpt>
      <trkpt lat="50.35654" lon="4.34389">
        <ele>155.610138</ele>
        <time>2022-03-20T08:48:17Z</time>
      </trkpt>
      <trkpt lat="50.35667" lon="4.34389">
        <ele>154.355881</ele>
        <time>2022-03-20T08:48:19Z</time>
      </trkpt>
      <trkpt lat="50.35679" lon="4.3439">
        <ele>153.588699</ele>
        <time>2022-03-20T08:48:21Z</time>
      </trkpt>
      <trkpt lat="50.35689" lon="4.34395">
        <ele>152.243759</ele>
        <time>2022-03-20T08:48:23Z</time>
      </trkpt>
      <trkpt lat="50.357" lon="4.34397">
        <ele>150.442688</ele>
        <time>2022-03-20T08:48:25Z</time>
      </trkpt>
      <trkpt lat="50.35708" lon="4.34404">
        <ele>149.384308</ele>
        <time>2022-03-20T08:48:27Z</time>
      </trkpt>
      <trkpt lat="50.35714" lon="4.34403">
        <ele>148.801361</ele>
        <time>2022-03-20T08:48:28Z</time>
      </trkpt>
      <trkpt lat="50.35724" lon="4.34399">
        <ele>147.317978</ele>
        <time>2022-03-20T08:48:30Z</time>
      </trkpt>
      <trkpt lat="50.35733" lon="4.3439">
        <ele>146.210342</ele>
        <time>2022-03-20T08:48:32Z</time>
      </trkpt>
      <trkpt lat="50.35741" lon="4.3438">
        <ele>145.052094</ele>
        <time>2022-03-20T08:48:34Z</time>
      </trkpt>
      <trkpt lat="50.35751" lon="4.34366">
        <ele>143.804016</ele>
        <time>2022-03-20T08:48:36Z</time>
      </trkpt>
      <trkpt lat="50.35764" lon="4.34352">
        <ele>142.845078</ele>
        <time>2022-03-20T08:48:38Z</time>
      </trkpt>
      <trkpt lat="50.35777" lon="4.3434">
        <ele>142.24173</ele>
        <time>2022-03-20T08:48:40Z</time>
      </trkpt>
      <trkpt lat="50.35788" lon="4.34326">
        <ele>141.227524</ele>
        <time>2022-03-20T08:48:42Z</time>
      </trkpt>
      <trkpt lat="50.35799" lon="4.34314">
        <ele>140.368607</ele>
        <time>2022-03-20T08:48:44Z</time>
      </trkpt>
      <trkpt lat="50.35809" lon="4.34302">
        <ele>139.42012</ele>
        <time>2022-03-20T08:48:46Z</time>
      </trkpt>
      <trkpt lat="50.3582" lon="4.3429">
        <ele>138.812897</ele>
        <time>2022-03-20T08:48:48Z</time>
      </trkpt>
      <trkpt lat="50.35832" lon="4.34279">
        <ele>138.037277</ele>
        <time>2022-03-20T08:48:50Z</time>
      </trkpt>
      <trkpt lat="50.35843" lon="4.34269">
        <ele>137.584991</ele>
        <time>2022-03-20T08:48:52Z</time>
      </trkpt>
      <trkpt lat="50.35854" lon="4.34259">
        <ele>137.146439</ele>
        <time>2022-03-20T08:48:54Z</time>
      </trkpt>
      <trkpt lat="50.35865" lon="4.3425">
        <ele>136.479431</ele>
        <time>2022-03-20T08:48:56Z</time>
      </trkpt>
      <trkpt lat="50.35875" lon="4.34242">
        <ele>136.234131</ele>
        <time>2022-03-20T08:48:58Z</time>
      </trkpt>
      <trkpt lat="50.35887" lon="4.34234">
        <ele>135.498428</ele>
        <time>2022-03-20T08:49:00Z</time>
      </trkpt>
      <trkpt lat="50.35893" lon="4.34229">
        <ele>135.168304</ele>
        <time>2022-03-20T08:49:01Z</time>
      </trkpt>
      <trkpt lat="50.35904" lon="4.3422">
        <ele>134.785965</ele>
        <time>2022-03-20T08:49:03Z</time>
      </trkpt>
      <trkpt lat="50.35916" lon="4.34211">
        <ele>134.474258</ele>
        <time>2022-03-20T08:49:05Z</time>
      </trkpt>
      <trkpt lat="50.35928" lon="4.34202">
        <ele>133.733444</ele>
        <time>2022-03-20T08:49:07Z</time>
      </trkpt>
      <trkpt lat="50.35939" lon="4.34193">
        <ele>133.193192</ele>
        <time>2022-03-20T08:49:09Z</time>
      </trkpt>
      <trkpt lat="50.3595" lon="4.34184">
        <ele>132.592361</ele>
        <time>2022-03-20T08:49:11Z</time>
      </trkpt>
      <trkpt lat="50.35961" lon="4.34176">
        <ele>132.185547</ele>
        <time>2022-03-20T08:49:13Z</time>
      </trkpt>
      <trkpt lat="50.35973" lon="4.34168">
        <ele>131.772018</ele>
        <time>2022-03-20T08:49:15Z</time>
      </trkpt>
      <trkpt lat="50.35984" lon="4.34159">
        <ele>131.354492</ele>
        <time>2022-03-20T08:49:17Z</time>
      </trkpt>
      <trkpt lat="50.35994" lon="4.34149">
        <ele>130.760101</ele>
        <time>2022-03-20T08:49:19Z</time>
      </trkpt>
      <trkpt lat="50.36005" lon="4.34138">
        <ele>130.249054</ele>
        <time>2022-03-20T08:49:21Z</time>
      </trkpt>
      <trkpt lat="50.36016" lon="4.34126">
        <ele>129.948761</ele>
        <time>2022-03-20T08:49:23Z</time>
      </trkpt>
      <trkpt lat="50.36026" lon="4.34114">
        <ele>129.711884</ele>
        <time>2022-03-20T08:49:25Z</time>
      </trkpt>
      <trkpt lat="50.36035" lon="4.34101">
        <ele>129.4823</ele>
        <time>2022-03-20T08:49:27Z</time>
      </trkpt>
      <trkpt lat="50.36044" lon="4.34087">
        <ele>129.145096</ele>
        <time>2022-03-20T08:49:29Z</time>
      </trkpt>
      <trkpt lat="50.36054" lon="4.34074">
        <ele>128.758392</ele>
        <time>2022-03-20T08:49:31Z</time>
      </trkpt>
      <trkpt lat="50.36062" lon="4.34062">
        <ele>128.401123</ele>
        <time>2022-03-20T08:49:33Z</time>
      </trkpt>
      <trkpt lat="50.3607" lon="4.34051">
        <ele>128.339844</ele>
        <time>2022-03-20T08:49:35Z</time>
      </trkpt>
      <trkpt lat="50.36078" lon="4.34041">
        <ele>128.096405</ele>
        <time>2022-03-20T08:49:37Z</time>
      </trkpt>
      <trkpt lat="50.36085" lon="4.34031">
        <ele>127.848</ele>
        <time>2022-03-20T08:49:39Z</time>
      </trkpt>
      <trkpt lat="50.36092" lon="4.34021">
        <ele>127.94973</ele>
        <time>2022-03-20T08:49:41Z</time>
      </trkpt>
      <trkpt lat="50.36098" lon="4.34013">
        <ele>127.75386</ele>
        <time>2022-03-20T08:49:43Z</time>
      </trkpt>
      <trkpt lat="50.36105" lon="4.34005">
        <ele>127.51078</ele>
        <time>2022-03-20T08:49:45Z</time>
      </trkpt>
      <trkpt lat="50.36112" lon="4.33997">
        <ele>127.629173</ele>
        <time>2022-03-20T08:49:47Z</time>
      </trkpt>
      <trkpt lat="50.3612" lon="4.33991">
        <ele>127.64579</ele>
        <time>2022-03-20T08:49:49Z</time>
      </trkpt>
      <trkpt lat="50.36128" lon="4.33986">
        <ele>127.855568</ele>
        <time>2022-03-20T08:49:51Z</time>
      </trkpt>
      <trkpt lat="50.36136" lon="4.33981">
        <ele>127.845375</ele>
        <time>2022-03-20T08:49:53Z</time>
      </trkpt>
      <trkpt lat="50.36145" lon="4.33977">
        <ele>127.821762</ele>
        <time>2022-03-20T08:49:55Z</time>
      </trkpt>
      <trkpt lat="50.36153" lon="4.33972">
        <ele>127.952576</ele>
        <time>2022-03-20T08:49:57Z</time>
      </trkpt>
      <trkpt lat="50.36161" lon="4.33968">
        <ele>127.92765</ele>
        <time>2022-03-20T08:49:59Z</time>
      </trkpt>
      <trkpt lat="50.36168" lon="4.33964">
        <ele>127.992027</ele>
        <time>2022-03-20T08:50:01Z</time>
      </trkpt>
      <trkpt lat="50.36175" lon="4.33961">
        <ele>128.208038</ele>
        <time>2022-03-20T08:50:03Z</time>
      </trkpt>
      <trkpt lat="50.36182" lon="4.33956">
        <ele>128.290176</ele>
        <time>2022-03-20T08:50:05Z</time>
      </trkpt>
      <trkpt lat="50.36186" lon="4.33955">
        <ele>128.344162</ele>
        <time>2022-03-20T08:50:06Z</time>
      </trkpt>
      <trkpt lat="50.36194" lon="4.33951">
        <ele>128.415771</ele>
        <time>2022-03-20T08:50:08Z</time>
      </trkpt>
      <trkpt lat="50.36201" lon="4.33946">
        <ele>128.414322</ele>
        <time>2022-03-20T08:50:10Z</time>
      </trkpt>
      <trkpt lat="50.36208" lon="4.33942">
        <ele>128.620239</ele>
        <time>2022-03-20T08:50:12Z</time>
      </trkpt>
      <trkpt lat="50.36216" lon="4.33938">
        <ele>128.81131</ele>
        <time>2022-03-20T08:50:14Z</time>
      </trkpt>
      <trkpt lat="50.36224" lon="4.33934">
        <ele>128.778076</ele>
        <time>2022-03-20T08:50:16Z</time>
      </trkpt>
      <trkpt lat="50.36231" lon="4.3393">
        <ele>128.834152</ele>
        <time>2022-03-20T08:50:18Z</time>
      </trkpt>
      <trkpt lat="50.36238" lon="4.33926">
        <ele>128.922577</ele>
        <time>2022-03-20T08:50:20Z</time>
      </trkpt>
      <trkpt lat="50.36245" lon="4.33922">
        <ele>128.997375</ele>
        <time>2022-03-20T08:50:22Z</time>
      </trkpt>
      <trkpt lat="50.36252" lon="4.33918">
        <ele>129.089279</ele>
        <time>2022-03-20T08:50:24Z</time>
      </trkpt>
      <trkpt lat="50.3626" lon="4.33915">
        <ele>129.101746</ele>
        <time>2022-03-20T08:50:26Z</time>
      </trkpt>
      <trkpt lat="50.36268" lon="4.33911">
        <ele>129.17244</ele>
        <time>2022-03-20T08:50:28Z</time>
      </trkpt>
      <trkpt lat="50.36276" lon="4.33908">
        <ele>129.170364</ele>
        <time>2022-03-20T08:50:30Z</time>
      </trkpt>
      <trkpt lat="50.36285" lon="4.33904">
        <ele>129.150803</ele>
        <time>2022-03-20T08:50:32Z</time>
      </trkpt>
      <trkpt lat="50.36295" lon="4.33902">
        <ele>129.210861</ele>
        <time>2022-03-20T08:50:34Z</time>
      </trkpt>
      <trkpt lat="50.36304" lon="4.33898">
        <ele>129.247681</ele>
        <time>2022-03-20T08:50:36Z</time>
      </trkpt>
      <trkpt lat="50.36314" lon="4.33894">
        <ele>129.298294</ele>
        <time>2022-03-20T08:50:38Z</time>
      </trkpt>
      <trkpt lat="50.36325" lon="4.33889">
        <ele>129.283737</ele>
        <time>2022-03-20T08:50:40Z</time>
      </trkpt>
      <trkpt lat="50.36336" lon="4.33884">
        <ele>129.294388</ele>
        <time>2022-03-20T08:50:42Z</time>
      </trkpt>
      <trkpt lat="50.36348" lon="4.33879">
        <ele>129.251709</ele>
        <time>2022-03-20T08:50:44Z</time>
      </trkpt>
      <trkpt lat="50.3636" lon="4.33872">
        <ele>129.129181</ele>
        <time>2022-03-20T08:50:46Z</time>
      </trkpt>
      <trkpt lat="50.3637" lon="4.33866">
        <ele>129.06282</ele>
        <time>2022-03-20T08:50:48Z</time>
      </trkpt>
      <trkpt lat="50.36385" lon="4.33852">
        <ele>128.981812</ele>
        <time>2022-03-20T08:50:50Z</time>
      </trkpt>
      <trkpt lat="50.36395" lon="4.33829">
        <ele>128.896652</ele>
        <time>2022-03-20T08:50:52Z</time>
      </trkpt>
      <trkpt lat="50.36403" lon="4.33803">
        <ele>128.628738</ele>
        <time>2022-03-20T08:50:54Z</time>
      </trkpt>
      <trkpt lat="50.36411" lon="4.33776">
        <ele>128.462601</ele>
        <time>2022-03-20T08:50:56Z</time>
      </trkpt>
      <trkpt lat="50.36417" lon="4.33748">
        <ele>128.12207</ele>
        <time>2022-03-20T08:50:58Z</time>
      </trkpt>
      <trkpt lat="50.36425" lon="4.33722">
        <ele>128.033371</ele>
        <time>2022-03-20T08:51:00Z</time>
      </trkpt>
      <trkpt lat="50.36435" lon="4.33698">
        <ele>127.819458</ele>
        <time>2022-03-20T08:51:02Z</time>
      </trkpt>
      <trkpt lat="50.36452" lon="4.33676">
        <ele>127.521118</ele>
        <time>2022-03-20T08:51:04Z</time>
      </trkpt>
      <trkpt lat="50.36472" lon="4.33665">
        <ele>127.215965</ele>
        <time>2022-03-20T08:51:06Z</time>
      </trkpt>
      <trkpt lat="50.36492" lon="4.33657">
        <ele>126.943588</ele>
        <time>2022-03-20T08:51:08Z</time>
      </trkpt>
      <trkpt lat="50.36514" lon="4.33649">
        <ele>126.578102</ele>
        <time>2022-03-20T08:51:10Z</time>
      </trkpt>
      <trkpt lat="50.36535" lon="4.33642">
        <ele>126.115906</ele>
        <time>2022-03-20T08:51:12Z</time>
      </trkpt>
      <trkpt lat="50.36554" lon="4.33634">
        <ele>125.73568</ele>
        <time>2022-03-20T08:51:14Z</time>
      </trkpt>
      <trkpt lat="50.36569" lon="4.33628">
        <ele>125.118225</ele>
        <time>2022-03-20T08:51:16Z</time>
      </trkpt>
      <trkpt lat="50.3658" lon="4.33623">
        <ele>124.835854</ele>
        <time>2022-03-20T08:51:18Z</time>
      </trkpt>
      <trkpt lat="50.36589" lon="4.33621">
        <ele>124.198524</ele>
        <time>2022-03-20T08:51:20Z</time>
      </trkpt>
      <trkpt lat="50.36595" lon="4.33618">
        <ele>123.536362</ele>
        <time>2022-03-20T08:51:22Z</time>
      </trkpt>
      <trkpt lat="50.36598" lon="4.33617">
        <ele>122.945152</ele>
        <time>2022-03-20T08:51:24Z</time>
      </trkpt>
      <trkpt lat="50.36602" lon="4.33616">
        <ele>122.294289</ele>
        <time>2022-03-20T08:51:26Z</time>
      </trkpt>
      <trkpt lat="50.36604" lon="4.33616">
        <ele>121.918602</ele>
        <time>2022-03-20T08:51:27Z</time>
      </trkpt>
      <trkpt lat="50.36606" lon="4.33616">
        <ele>121.676064</ele>
        <time>2022-03-20T08:51:28Z</time>
      </trkpt>
      <trkpt lat="50.3661" lon="4.33617">
        <ele>121.002991</ele>
        <time>2022-03-20T08:51:30Z</time>
      </trkpt>
      <trkpt lat="50.36614" lon="4.33619">
        <ele>120.274635</ele>
        <time>2022-03-20T08:51:32Z</time>
      </trkpt>
      <trkpt lat="50.36617" lon="4.33621">
        <ele>119.514427</ele>
        <time>2022-03-20T08:51:34Z</time>
      </trkpt>
      <trkpt lat="50.3662" lon="4.33621">
        <ele>118.752945</ele>
        <time>2022-03-20T08:51:36Z</time>
      </trkpt>
      <trkpt lat="50.36623" lon="4.33622">
        <ele>118.306847</ele>
        <time>2022-03-20T08:51:38Z</time>
      </trkpt>
      <trkpt lat="50.36626" lon="4.33624">
        <ele>117.269554</ele>
        <time>2022-03-20T08:51:40Z</time>
      </trkpt>
      <trkpt lat="50.36629" lon="4.33622">
        <ele>116.412048</ele>
        <time>2022-03-20T08:51:42Z</time>
      </trkpt>
      <trkpt lat="50.3663" lon="4.33618">
        <ele>115.947304</ele>
        <time>2022-03-20T08:51:44Z</time>
      </trkpt>
      <trkpt lat="50.3663" lon="4.33614">
        <ele>115.010925</ele>
        <time>2022-03-20T08:51:46Z</time>
      </trkpt>
      <trkpt lat="50.3663" lon="4.33609">
        <ele>111.668907</ele>
        <time>2022-03-20T08:51:54Z</time>
      </trkpt>
      <trkpt lat="50.36631" lon="4.33607">
        <ele>110.891342</ele>
        <time>2022-03-20T08:51:56Z</time>
      </trkpt>
      <trkpt lat="50.36632" lon="4.33601">
        <ele>107.750748</ele>
        <time>2022-03-20T08:52:06Z</time>
      </trkpt>
      <trkpt lat="50.36631" lon="4.33599">
        <ele>107.106308</ele>
        <time>2022-03-20T08:52:08Z</time>
      </trkpt>
      <trkpt lat="50.36631" lon="4.33595">
        <ele>105.980858</ele>
        <time>2022-03-20T08:52:12Z</time>
      </trkpt>
      <trkpt lat="50.36633" lon="4.33591">
        <ele>97.331528</ele>
        <time>2022-03-20T08:54:38Z</time>
      </trkpt>
      <trkpt lat="50.36632" lon="4.33581">
        <ele>97.313805</ele>
        <time>2022-03-20T08:54:40Z</time>
      </trkpt>
      <trkpt lat="50.36632" lon="4.33579">
        <ele>97.311737</ele>
        <time>2022-03-20T08:54:42Z</time>
      </trkpt>
      <trkpt lat="50.36632" lon="4.33576">
        <ele>97.315872</ele>
        <time>2022-03-20T08:54:44Z</time>
      </trkpt>
      <trkpt lat="50.36632" lon="4.33573">
        <ele>97.34462</ele>
        <time>2022-03-20T08:54:46Z</time>
      </trkpt>
      <trkpt lat="50.3663" lon="4.33572">
        <ele>97.352905</ele>
        <time>2022-03-20T08:54:48Z</time>
      </trkpt>
      <trkpt lat="50.36626" lon="4.33567">
        <ele>100.115204</ele>
        <time>2022-03-20T09:00:26Z</time>
      </trkpt>
      <trkpt lat="50.36624" lon="4.33559">
        <ele>100.199127</ele>
        <time>2022-03-20T09:00:28Z</time>
      </trkpt>
      <trkpt lat="50.36622" lon="4.33546">
        <ele>100.348282</ele>
        <time>2022-03-20T09:00:30Z</time>
      </trkpt>
      <trkpt lat="50.3662" lon="4.3354">
        <ele>100.447708</ele>
        <time>2022-03-20T09:00:32Z</time>
      </trkpt>
      <trkpt lat="50.36617" lon="4.33535">
        <ele>100.489128</ele>
        <time>2022-03-20T09:00:34Z</time>
      </trkpt>
      <trkpt lat="50.36612" lon="4.3353">
        <ele>100.572739</ele>
        <time>2022-03-20T09:00:36Z</time>
      </trkpt>
      <trkpt lat="50.3661" lon="4.33526">
        <ele>100.681671</ele>
        <time>2022-03-20T09:00:38Z</time>
      </trkpt>
      <trkpt lat="50.36607" lon="4.33524">
        <ele>100.740875</ele>
        <time>2022-03-20T09:00:40Z</time>
      </trkpt>
      <trkpt lat="50.36605" lon="4.33525">
        <ele>100.724182</ele>
        <time>2022-03-20T09:00:42Z</time>
      </trkpt>
      <trkpt lat="50.36604" lon="4.3353">
        <ele>100.744896</ele>
        <time>2022-03-20T09:00:44Z</time>
      </trkpt>
      <trkpt lat="50.36604" lon="4.33536">
        <ele>100.744896</ele>
        <time>2022-03-20T09:00:46Z</time>
      </trkpt>
      <trkpt lat="50.36604" lon="4.33544">
        <ele>100.786461</ele>
        <time>2022-03-20T09:00:48Z</time>
      </trkpt>
      <trkpt lat="50.36605" lon="4.33552">
        <ele>100.832504</ele>
        <time>2022-03-20T09:00:50Z</time>
      </trkpt>
      <trkpt lat="50.36606" lon="4.3356">
        <ele>100.821808</ele>
        <time>2022-03-20T09:00:52Z</time>
      </trkpt>
      <trkpt lat="50.36607" lon="4.33569">
        <ele>100.851173</ele>
        <time>2022-03-20T09:00:54Z</time>
      </trkpt>
      <trkpt lat="50.36607" lon="4.33577">
        <ele>100.865677</ele>
        <time>2022-03-20T09:00:56Z</time>
      </trkpt>
      <trkpt lat="50.36609" lon="4.33586">
        <ele>100.913322</ele>
        <time>2022-03-20T09:00:58Z</time>
      </trkpt>
      <trkpt lat="50.36609" lon="4.33595">
        <ele>100.935074</ele>
        <time>2022-03-20T09:01:00Z</time>
      </trkpt>
      <trkpt lat="50.3661" lon="4.33603">
        <ele>100.98716</ele>
        <time>2022-03-20T09:01:02Z</time>
      </trkpt>
      <trkpt lat="50.3661" lon="4.33611">
        <ele>101.047043</ele>
        <time>2022-03-20T09:01:04Z</time>
      </trkpt>
      <trkpt lat="50.3661" lon="4.33618">
        <ele>101.136131</ele>
        <time>2022-03-20T09:01:06Z</time>
      </trkpt>
      <trkpt lat="50.3661" lon="4.33624">
        <ele>101.247574</ele>
        <time>2022-03-20T09:01:08Z</time>
      </trkpt>
      <trkpt lat="50.36611" lon="4.33631">
        <ele>101.351059</ele>
        <time>2022-03-20T09:01:10Z</time>
      </trkpt>
      <trkpt lat="50.3661" lon="4.33637">
        <ele>101.485733</ele>
        <time>2022-03-20T09:01:12Z</time>
      </trkpt>
      <trkpt lat="50.3661" lon="4.33643">
        <ele>101.721916</ele>
        <time>2022-03-20T09:01:14Z</time>
      </trkpt>
      <trkpt lat="50.36611" lon="4.33648">
        <ele>101.808945</ele>
        <time>2022-03-20T09:01:16Z</time>
      </trkpt>
      <trkpt lat="50.36611" lon="4.33654">
        <ele>101.980225</ele>
        <time>2022-03-20T09:01:18Z</time>
      </trkpt>
      <trkpt lat="50.36612" lon="4.33659">
        <ele>102.195724</ele>
        <time>2022-03-20T09:01:20Z</time>
      </trkpt>
      <trkpt lat="50.36613" lon="4.33664">
        <ele>102.463036</ele>
        <time>2022-03-20T09:01:22Z</time>
      </trkpt>
      <trkpt lat="50.36614" lon="4.3367">
        <ele>102.815285</ele>
        <time>2022-03-20T09:01:24Z</time>
      </trkpt>
      <trkpt lat="50.36615" lon="4.33674">
        <ele>103.111595</ele>
        <time>2022-03-20T09:01:26Z</time>
      </trkpt>
      <trkpt lat="50.36615" lon="4.33679">
        <ele>103.431725</ele>
        <time>2022-03-20T09:01:28Z</time>
      </trkpt>
      <trkpt lat="50.36616" lon="4.33685">
        <ele>103.746536</ele>
        <time>2022-03-20T09:01:30Z</time>
      </trkpt>
      <trkpt lat="50.36617" lon="4.3369">
        <ele>104.091515</ele>
        <time>2022-03-20T09:01:32Z</time>
      </trkpt>
      <trkpt lat="50.36619" lon="4.33694">
        <ele>104.46328</ele>
        <time>2022-03-20T09:01:34Z</time>
      </trkpt>
      <trkpt lat="50.3662" lon="4.33699">
        <ele>104.858765</ele>
        <time>2022-03-20T09:01:36Z</time>
      </trkpt>
      <trkpt lat="50.36622" lon="4.33704">
        <ele>105.273277</ele>
        <time>2022-03-20T09:01:38Z</time>
      </trkpt>
      <trkpt lat="50.36621" lon="4.33708">
        <ele>105.678101</ele>
        <time>2022-03-20T09:01:40Z</time>
      </trkpt>
      <trkpt lat="50.36622" lon="4.33714">
        <ele>106.125809</ele>
        <time>2022-03-20T09:01:42Z</time>
      </trkpt>
      <trkpt lat="50.36623" lon="4.3372">
        <ele>106.588211</ele>
        <time>2022-03-20T09:01:44Z</time>
      </trkpt>
      <trkpt lat="50.36624" lon="4.33725">
        <ele>107.015221</ele>
        <time>2022-03-20T09:01:46Z</time>
      </trkpt>
      <trkpt lat="50.36625" lon="4.33728">
        <ele>107.226646</ele>
        <time>2022-03-20T09:01:48Z</time>
      </trkpt>
      <trkpt lat="50.36625" lon="4.33732">
        <ele>107.863136</ele>
        <time>2022-03-20T09:01:50Z</time>
      </trkpt>
      <trkpt lat="50.36626" lon="4.33737">
        <ele>108.051781</ele>
        <time>2022-03-20T09:01:52Z</time>
      </trkpt>
      <trkpt lat="50.36627" lon="4.33745">
        <ele>108.410416</ele>
        <time>2022-03-20T09:01:54Z</time>
      </trkpt>
      <trkpt lat="50.36629" lon="4.3375">
        <ele>108.820885</ele>
        <time>2022-03-20T09:01:56Z</time>
      </trkpt>
      <trkpt lat="50.3663" lon="4.33755">
        <ele>109.263161</ele>
        <time>2022-03-20T09:01:58Z</time>
      </trkpt>
      <trkpt lat="50.36631" lon="4.3376">
        <ele>109.643066</ele>
        <time>2022-03-20T09:02:00Z</time>
      </trkpt>
      <trkpt lat="50.36633" lon="4.33764">
        <ele>110.078491</ele>
        <time>2022-03-20T09:02:02Z</time>
      </trkpt>
      <trkpt lat="50.36634" lon="4.33769">
        <ele>110.451698</ele>
        <time>2022-03-20T09:02:04Z</time>
      </trkpt>
      <trkpt lat="50.36636" lon="4.33774">
        <ele>110.783447</ele>
        <time>2022-03-20T09:02:06Z</time>
      </trkpt>
      <trkpt lat="50.36638" lon="4.33781">
        <ele>111.162926</ele>
        <time>2022-03-20T09:02:08Z</time>
      </trkpt>
      <trkpt lat="50.36639" lon="4.33785">
        <ele>111.561073</ele>
        <time>2022-03-20T09:02:10Z</time>
      </trkpt>
      <trkpt lat="50.36641" lon="4.3379">
        <ele>111.965858</ele>
        <time>2022-03-20T09:02:12Z</time>
      </trkpt>
      <trkpt lat="50.36642" lon="4.33794">
        <ele>112.319496</ele>
        <time>2022-03-20T09:02:14Z</time>
      </trkpt>
      <trkpt lat="50.36643" lon="4.33797">
        <ele>112.692299</ele>
        <time>2022-03-20T09:02:16Z</time>
      </trkpt>
      <trkpt lat="50.36645" lon="4.33802">
        <ele>112.968124</ele>
        <time>2022-03-20T09:02:18Z</time>
      </trkpt>
      <trkpt lat="50.36646" lon="4.33808">
        <ele>113.301369</ele>
        <time>2022-03-20T09:02:20Z</time>
      </trkpt>
      <trkpt lat="50.36648" lon="4.33812">
        <ele>113.094955</ele>
        <time>2022-03-20T09:02:22Z</time>
      </trkpt>
      <trkpt lat="50.36651" lon="4.3382">
        <ele>113.715164</ele>
        <time>2022-03-20T09:02:26Z</time>
      </trkpt>
      <trkpt lat="50.36653" lon="4.33827">
        <ele>114.027443</ele>
        <time>2022-03-20T09:02:28Z</time>
      </trkpt>
      <trkpt lat="50.36655" lon="4.33829">
        <ele>114.346169</ele>
        <time>2022-03-20T09:02:30Z</time>
      </trkpt>
      <trkpt lat="50.36657" lon="4.33834">
        <ele>114.660728</ele>
        <time>2022-03-20T09:02:32Z</time>
      </trkpt>
      <trkpt lat="50.36659" lon="4.3384">
        <ele>114.79142</ele>
        <time>2022-03-20T09:02:34Z</time>
      </trkpt>
      <trkpt lat="50.36661" lon="4.33845">
        <ele>115.151077</ele>
        <time>2022-03-20T09:02:36Z</time>
      </trkpt>
      <trkpt lat="50.36662" lon="4.33847">
        <ele>115.291649</ele>
        <time>2022-03-20T09:02:37Z</time>
      </trkpt>
      <trkpt lat="50.36663" lon="4.33852">
        <ele>115.544785</ele>
        <time>2022-03-20T09:02:39Z</time>
      </trkpt>
      <trkpt lat="50.36665" lon="4.33857">
        <ele>115.838402</ele>
        <time>2022-03-20T09:02:41Z</time>
      </trkpt>
      <trkpt lat="50.36665" lon="4.3386">
        <ele>116.081139</ele>
        <time>2022-03-20T09:02:43Z</time>
      </trkpt>
      <trkpt lat="50.36667" lon="4.33864">
        <ele>116.42971</ele>
        <time>2022-03-20T09:02:45Z</time>
      </trkpt>
      <trkpt lat="50.36667" lon="4.33867">
        <ele>116.759605</ele>
        <time>2022-03-20T09:02:47Z</time>
      </trkpt>
      <trkpt lat="50.36669" lon="4.33872">
        <ele>117.106125</ele>
        <time>2022-03-20T09:02:49Z</time>
      </trkpt>
      <trkpt lat="50.36672" lon="4.33885">
        <ele>117.413246</ele>
        <time>2022-03-20T09:02:51Z</time>
      </trkpt>
      <trkpt lat="50.36673" lon="4.3389">
        <ele>117.728661</ele>
        <time>2022-03-20T09:02:53Z</time>
      </trkpt>
      <trkpt lat="50.36675" lon="4.33894">
        <ele>118.062767</ele>
        <time>2022-03-20T09:02:55Z</time>
      </trkpt>
      <trkpt lat="50.36675" lon="4.33897">
        <ele>118.222549</ele>
        <time>2022-03-20T09:02:57Z</time>
      </trkpt>
      <trkpt lat="50.36676" lon="4.33903">
        <ele>118.57119</ele>
        <time>2022-03-20T09:02:59Z</time>
      </trkpt>
      <trkpt lat="50.36677" lon="4.33907">
        <ele>118.906761</ele>
        <time>2022-03-20T09:03:01Z</time>
      </trkpt>
      <trkpt lat="50.36678" lon="4.33909">
        <ele>119.794388</ele>
        <time>2022-03-20T09:03:03Z</time>
      </trkpt>
      <trkpt lat="50.36679" lon="4.33918">
        <ele>120.80452</ele>
        <time>2022-03-20T09:03:09Z</time>
      </trkpt>
      <trkpt lat="50.3668" lon="4.33921">
        <ele>121.147018</ele>
        <time>2022-03-20T09:03:11Z</time>
      </trkpt>
      <trkpt lat="50.36681" lon="4.33924">
        <ele>121.471558</ele>
        <time>2022-03-20T09:03:13Z</time>
      </trkpt>
      <trkpt lat="50.36682" lon="4.33927">
        <ele>121.839699</ele>
        <time>2022-03-20T09:03:15Z</time>
      </trkpt>
      <trkpt lat="50.36683" lon="4.33936">
        <ele>123.009171</ele>
        <time>2022-03-20T09:03:21Z</time>
      </trkpt>
      <trkpt lat="50.36684" lon="4.33939">
        <ele>123.42485</ele>
        <time>2022-03-20T09:03:23Z</time>
      </trkpt>
      <trkpt lat="50.36685" lon="4.33941">
        <ele>123.775719</ele>
        <time>2022-03-20T09:03:25Z</time>
      </trkpt>
      <trkpt lat="50.36688" lon="4.33945">
        <ele>124.438049</ele>
        <time>2022-03-20T09:03:29Z</time>
      </trkpt>
      <trkpt lat="50.36689" lon="4.33948">
        <ele>124.75045</ele>
        <time>2022-03-20T09:03:31Z</time>
      </trkpt>
      <trkpt lat="50.36692" lon="4.33955">
        <ele>125.583206</ele>
        <time>2022-03-20T09:03:37Z</time>
      </trkpt>
      <trkpt lat="50.36693" lon="4.33959">
        <ele>125.967369</ele>
        <time>2022-03-20T09:03:39Z</time>
      </trkpt>
      <trkpt lat="50.36694" lon="4.33962">
        <ele>126.318336</ele>
        <time>2022-03-20T09:03:41Z</time>
      </trkpt>
      <trkpt lat="50.36696" lon="4.3397">
        <ele>127.02301</ele>
        <time>2022-03-20T09:03:45Z</time>
      </trkpt>
      <trkpt lat="50.36697" lon="4.33974">
        <ele>127.420532</ele>
        <time>2022-03-20T09:03:47Z</time>
      </trkpt>
      <trkpt lat="50.36698" lon="4.33978">
        <ele>127.852554</ele>
        <time>2022-03-20T09:03:49Z</time>
      </trkpt>
      <trkpt lat="50.367" lon="4.33983">
        <ele>128.299164</ele>
        <time>2022-03-20T09:03:51Z</time>
      </trkpt>
      <trkpt lat="50.36701" lon="4.33988">
        <ele>128.755951</ele>
        <time>2022-03-20T09:03:53Z</time>
      </trkpt>
      <trkpt lat="50.36702" lon="4.33993">
        <ele>129.177658</ele>
        <time>2022-03-20T09:03:55Z</time>
      </trkpt>
      <trkpt lat="50.36703" lon="4.33995">
        <ele>129.586899</ele>
        <time>2022-03-20T09:03:57Z</time>
      </trkpt>
      <trkpt lat="50.36704" lon="4.33999">
        <ele>130.105164</ele>
        <time>2022-03-20T09:03:59Z</time>
      </trkpt>
      <trkpt lat="50.36705" lon="4.34004">
        <ele>130.543549</ele>
        <time>2022-03-20T09:04:01Z</time>
      </trkpt>
      <trkpt lat="50.36707" lon="4.34007">
        <ele>131.002716</ele>
        <time>2022-03-20T09:04:03Z</time>
      </trkpt>
      <trkpt lat="50.36713" lon="4.34025">
        <ele>131.409943</ele>
        <time>2022-03-20T09:04:05Z</time>
      </trkpt>
      <trkpt lat="50.36714" lon="4.34028">
        <ele>131.948059</ele>
        <time>2022-03-20T09:04:07Z</time>
      </trkpt>
      <trkpt lat="50.36715" lon="4.34031">
        <ele>132.438446</ele>
        <time>2022-03-20T09:04:09Z</time>
      </trkpt>
      <trkpt lat="50.36716" lon="4.34035">
        <ele>132.9487</ele>
        <time>2022-03-20T09:04:11Z</time>
      </trkpt>
      <trkpt lat="50.36716" lon="4.3404">
        <ele>133.427368</ele>
        <time>2022-03-20T09:04:13Z</time>
      </trkpt>
      <trkpt lat="50.36716" lon="4.34043">
        <ele>133.632416</ele>
        <time>2022-03-20T09:04:15Z</time>
      </trkpt>
      <trkpt lat="50.36718" lon="4.34047">
        <ele>134.169357</ele>
        <time>2022-03-20T09:04:17Z</time>
      </trkpt>
      <trkpt lat="50.36718" lon="4.34049">
        <ele>134.693085</ele>
        <time>2022-03-20T09:04:19Z</time>
      </trkpt>
      <trkpt lat="50.36719" lon="4.34052">
        <ele>135.173218</ele>
        <time>2022-03-20T09:04:21Z</time>
      </trkpt>
      <trkpt lat="50.3672" lon="4.34056">
        <ele>135.674759</ele>
        <time>2022-03-20T09:04:23Z</time>
      </trkpt>
      <trkpt lat="50.36721" lon="4.34059">
        <ele>136.116959</ele>
        <time>2022-03-20T09:04:25Z</time>
      </trkpt>
      <trkpt lat="50.36723" lon="4.34064">
        <ele>136.652954</ele>
        <time>2022-03-20T09:04:27Z</time>
      </trkpt>
      <trkpt lat="50.36724" lon="4.3407">
        <ele>137.072739</ele>
        <time>2022-03-20T09:04:29Z</time>
      </trkpt>
      <trkpt lat="50.36725" lon="4.34074">
        <ele>137.559204</ele>
        <time>2022-03-20T09:04:31Z</time>
      </trkpt>
      <trkpt lat="50.36725" lon="4.34077">
        <ele>138.045746</ele>
        <time>2022-03-20T09:04:33Z</time>
      </trkpt>
      <trkpt lat="50.36725" lon="4.3408">
        <ele>138.563629</ele>
        <time>2022-03-20T09:04:35Z</time>
      </trkpt>
      <trkpt lat="50.36726" lon="4.34085">
        <ele>139.079239</ele>
        <time>2022-03-20T09:04:37Z</time>
      </trkpt>
      <trkpt lat="50.36729" lon="4.34093">
        <ele>139.893204</ele>
        <time>2022-03-20T09:04:41Z</time>
      </trkpt>
      <trkpt lat="50.36731" lon="4.34096">
        <ele>140.342377</ele>
        <time>2022-03-20T09:04:43Z</time>
      </trkpt>
      <trkpt lat="50.36733" lon="4.34099">
        <ele>140.83725</ele>
        <time>2022-03-20T09:04:45Z</time>
      </trkpt>
      <trkpt lat="50.36733" lon="4.34102">
        <ele>141.276031</ele>
        <time>2022-03-20T09:04:47Z</time>
      </trkpt>
      <trkpt lat="50.36733" lon="4.34109">
        <ele>142.091309</ele>
        <time>2022-03-20T09:04:51Z</time>
      </trkpt>
      <trkpt lat="50.36734" lon="4.34112">
        <ele>142.526489</ele>
        <time>2022-03-20T09:04:53Z</time>
      </trkpt>
      <trkpt lat="50.36734" lon="4.34118">
        <ele>142.986847</ele>
        <time>2022-03-20T09:04:55Z</time>
      </trkpt>
      <trkpt lat="50.36733" lon="4.34123">
        <ele>143.390366</ele>
        <time>2022-03-20T09:04:57Z</time>
      </trkpt>
      <trkpt lat="50.36734" lon="4.34126">
        <ele>143.596298</ele>
        <time>2022-03-20T09:04:59Z</time>
      </trkpt>
      <trkpt lat="50.36734" lon="4.3413">
        <ele>143.976028</ele>
        <time>2022-03-20T09:05:01Z</time>
      </trkpt>
      <trkpt lat="50.36734" lon="4.34134">
        <ele>144.420563</ele>
        <time>2022-03-20T09:05:03Z</time>
      </trkpt>
      <trkpt lat="50.36734" lon="4.34138">
        <ele>144.837128</ele>
        <time>2022-03-20T09:05:05Z</time>
      </trkpt>
      <trkpt lat="50.36734" lon="4.34142">
        <ele>145.282547</ele>
        <time>2022-03-20T09:05:07Z</time>
      </trkpt>
      <trkpt lat="50.36734" lon="4.34145">
        <ele>145.690445</ele>
        <time>2022-03-20T09:05:09Z</time>
      </trkpt>
      <trkpt lat="50.36734" lon="4.3415">
        <ele>146.042053</ele>
        <time>2022-03-20T09:05:11Z</time>
      </trkpt>
      <trkpt lat="50.36734" lon="4.34152">
        <ele>146.426987</ele>
        <time>2022-03-20T09:05:13Z</time>
      </trkpt>
      <trkpt lat="50.36735" lon="4.34155">
        <ele>146.742767</ele>
        <time>2022-03-20T09:05:15Z</time>
      </trkpt>
      <trkpt lat="50.36735" lon="4.3416">
        <ele>147.106812</ele>
        <time>2022-03-20T09:05:17Z</time>
      </trkpt>
      <trkpt lat="50.36735" lon="4.34164">
        <ele>147.516769</ele>
        <time>2022-03-20T09:05:19Z</time>
      </trkpt>
      <trkpt lat="50.36735" lon="4.34169">
        <ele>147.92334</ele>
        <time>2022-03-20T09:05:21Z</time>
      </trkpt>
      <trkpt lat="50.36736" lon="4.34174">
        <ele>148.337799</ele>
        <time>2022-03-20T09:05:23Z</time>
      </trkpt>
      <trkpt lat="50.36736" lon="4.34181">
        <ele>149.181091</ele>
        <time>2022-03-20T09:05:27Z</time>
      </trkpt>
      <trkpt lat="50.36736" lon="4.34186">
        <ele>149.682724</ele>
        <time>2022-03-20T09:05:29Z</time>
      </trkpt>
      <trkpt lat="50.36736" lon="4.34189">
        <ele>150.159393</ele>
        <time>2022-03-20T09:05:31Z</time>
      </trkpt>
      <trkpt lat="50.36736" lon="4.342">
        <ele>151.743576</ele>
        <time>2022-03-20T09:05:39Z</time>
      </trkpt>
      <trkpt lat="50.36736" lon="4.34202">
        <ele>152.175049</ele>
        <time>2022-03-20T09:05:41Z</time>
      </trkpt>
      <trkpt lat="50.36737" lon="4.34203">
        <ele>152.626831</ele>
        <time>2022-03-20T09:05:43Z</time>
      </trkpt>
      <trkpt lat="50.36738" lon="4.34206">
        <ele>153.019363</ele>
        <time>2022-03-20T09:05:45Z</time>
      </trkpt>
      <trkpt lat="50.36738" lon="4.34212">
        <ele>153.862762</ele>
        <time>2022-03-20T09:05:49Z</time>
      </trkpt>
      <trkpt lat="50.36739" lon="4.34213">
        <ele>154.320847</ele>
        <time>2022-03-20T09:05:51Z</time>
      </trkpt>
      <trkpt lat="50.36739" lon="4.34221">
        <ele>156.489288</ele>
        <time>2022-03-20T09:06:01Z</time>
      </trkpt>
      <trkpt lat="50.36739" lon="4.34223">
        <ele>156.870514</ele>
        <time>2022-03-20T09:06:03Z</time>
      </trkpt>
      <trkpt lat="50.36739" lon="4.34225">
        <ele>157.282303</ele>
        <time>2022-03-20T09:06:05Z</time>
      </trkpt>
      <trkpt lat="50.36739" lon="4.34227">
        <ele>157.696381</ele>
        <time>2022-03-20T09:06:07Z</time>
      </trkpt>
      <trkpt lat="50.36739" lon="4.34232">
        <ele>158.404648</ele>
        <time>2022-03-20T09:06:11Z</time>
      </trkpt>
      <trkpt lat="50.36737" lon="4.34241">
        <ele>164.349136</ele>
        <time>2022-03-20T09:06:56Z</time>
      </trkpt>
      <trkpt lat="50.36737" lon="4.34245">
        <ele>164.300919</ele>
        <time>2022-03-20T09:06:58Z</time>
      </trkpt>
      <trkpt lat="50.36737" lon="4.34255">
        <ele>164.413376</ele>
        <time>2022-03-20T09:07:00Z</time>
      </trkpt>
      <trkpt lat="50.36737" lon="4.34258">
        <ele>164.548798</ele>
        <time>2022-03-20T09:07:02Z</time>
      </trkpt>
      <trkpt lat="50.36737" lon="4.34263">
        <ele>164.653229</ele>
        <time>2022-03-20T09:07:04Z</time>
      </trkpt>
      <trkpt lat="50.36737" lon="4.34266">
        <ele>164.776215</ele>
        <time>2022-03-20T09:07:06Z</time>
      </trkpt>
      <trkpt lat="50.36738" lon="4.3427">
        <ele>164.80957</ele>
        <time>2022-03-20T09:07:08Z</time>
      </trkpt>
      <trkpt lat="50.36739" lon="4.34274">
        <ele>164.924225</ele>
        <time>2022-03-20T09:07:10Z</time>
      </trkpt>
      <trkpt lat="50.36738" lon="4.34279">
        <ele>165.233917</ele>
        <time>2022-03-20T09:07:14Z</time>
      </trkpt>
      <trkpt lat="50.36738" lon="4.34283">
        <ele>165.413528</ele>
        <time>2022-03-20T09:07:16Z</time>
      </trkpt>
      <trkpt lat="50.36738" lon="4.34286">
        <ele>165.62616</ele>
        <time>2022-03-20T09:07:18Z</time>
      </trkpt>
      <trkpt lat="50.36738" lon="4.34289">
        <ele>165.872162</ele>
        <time>2022-03-20T09:07:20Z</time>
      </trkpt>
      <trkpt lat="50.36737" lon="4.34293">
        <ele>166.009262</ele>
        <time>2022-03-20T09:07:22Z</time>
      </trkpt>
      <trkpt lat="50.36738" lon="4.34298">
        <ele>166.257355</ele>
        <time>2022-03-20T09:07:24Z</time>
      </trkpt>
      <trkpt lat="50.36737" lon="4.34304">
        <ele>166.542999</ele>
        <time>2022-03-20T09:07:26Z</time>
      </trkpt>
      <trkpt lat="50.36737" lon="4.34309">
        <ele>166.843216</ele>
        <time>2022-03-20T09:07:28Z</time>
      </trkpt>
      <trkpt lat="50.36736" lon="4.34313">
        <ele>167.147415</ele>
        <time>2022-03-20T09:07:30Z</time>
      </trkpt>
      <trkpt lat="50.36736" lon="4.34317">
        <ele>167.447662</ele>
        <time>2022-03-20T09:07:32Z</time>
      </trkpt>
      <trkpt lat="50.36736" lon="4.34322">
        <ele>167.820892</ele>
        <time>2022-03-20T09:07:34Z</time>
      </trkpt>
      <trkpt lat="50.36735" lon="4.34327">
        <ele>168.189972</ele>
        <time>2022-03-20T09:07:36Z</time>
      </trkpt>
      <trkpt lat="50.36735" lon="4.34334">
        <ele>168.744843</ele>
        <time>2022-03-20T09:07:40Z</time>
      </trkpt>
      <trkpt lat="50.36734" lon="4.34338">
        <ele>169.120193</ele>
        <time>2022-03-20T09:07:42Z</time>
      </trkpt>
      <trkpt lat="50.36734" lon="4.34341">
        <ele>169.468628</ele>
        <time>2022-03-20T09:07:44Z</time>
      </trkpt>
      <trkpt lat="50.36733" lon="4.34344">
        <ele>169.658157</ele>
        <time>2022-03-20T09:07:45Z</time>
      </trkpt>
      <trkpt lat="50.36732" lon="4.34348">
        <ele>170.010986</ele>
        <time>2022-03-20T09:07:47Z</time>
      </trkpt>
      <trkpt lat="50.36731" lon="4.34352">
        <ele>170.436432</ele>
        <time>2022-03-20T09:07:49Z</time>
      </trkpt>
      <trkpt lat="50.36731" lon="4.34355">
        <ele>170.772171</ele>
        <time>2022-03-20T09:07:51Z</time>
      </trkpt>
      <trkpt lat="50.36729" lon="4.34361">
        <ele>171.132965</ele>
        <time>2022-03-20T09:07:53Z</time>
      </trkpt>
      <trkpt lat="50.36727" lon="4.34365">
        <ele>171.530197</ele>
        <time>2022-03-20T09:07:55Z</time>
      </trkpt>
      <trkpt lat="50.36725" lon="4.34373">
        <ele>171.859406</ele>
        <time>2022-03-20T09:07:57Z</time>
      </trkpt>
      <trkpt lat="50.36723" lon="4.34378">
        <ele>172.220261</ele>
        <time>2022-03-20T09:07:59Z</time>
      </trkpt>
      <trkpt lat="50.36721" lon="4.34384">
        <ele>172.513596</ele>
        <time>2022-03-20T09:08:01Z</time>
      </trkpt>
      <trkpt lat="50.3672" lon="4.34388">
        <ele>172.954254</ele>
        <time>2022-03-20T09:08:03Z</time>
      </trkpt>
      <trkpt lat="50.36718" lon="4.34392">
        <ele>173.315155</ele>
        <time>2022-03-20T09:08:05Z</time>
      </trkpt>
      <trkpt lat="50.36717" lon="4.34397">
        <ele>173.469528</ele>
        <time>2022-03-20T09:08:07Z</time>
      </trkpt>
      <trkpt lat="50.36714" lon="4.34403">
        <ele>173.798889</ele>
        <time>2022-03-20T09:08:09Z</time>
      </trkpt>
      <trkpt lat="50.36713" lon="4.34408">
        <ele>174.176727</ele>
        <time>2022-03-20T09:08:11Z</time>
      </trkpt>
      <trkpt lat="50.36711" lon="4.34413">
        <ele>174.427795</ele>
        <time>2022-03-20T09:08:13Z</time>
      </trkpt>
      <trkpt lat="50.36709" lon="4.34421">
        <ele>174.75119</ele>
        <time>2022-03-20T09:08:15Z</time>
      </trkpt>
      <trkpt lat="50.36707" lon="4.34427">
        <ele>175.009903</ele>
        <time>2022-03-20T09:08:17Z</time>
      </trkpt>
      <trkpt lat="50.36706" lon="4.3443">
        <ele>175.164291</ele>
        <time>2022-03-20T09:08:18Z</time>
      </trkpt>
      <trkpt lat="50.36704" lon="4.34436">
        <ele>175.481598</ele>
        <time>2022-03-20T09:08:20Z</time>
      </trkpt>
      <trkpt lat="50.36701" lon="4.34441">
        <ele>175.807098</ele>
        <time>2022-03-20T09:08:22Z</time>
      </trkpt>
      <trkpt lat="50.36699" lon="4.34446">
        <ele>176.105759</ele>
        <time>2022-03-20T09:08:24Z</time>
      </trkpt>
      <trkpt lat="50.36697" lon="4.34452">
        <ele>176.454041</ele>
        <time>2022-03-20T09:08:26Z</time>
      </trkpt>
      <trkpt lat="50.36694" lon="4.34459">
        <ele>176.763397</ele>
        <time>2022-03-20T09:08:28Z</time>
      </trkpt>
      <trkpt lat="50.36692" lon="4.34464">
        <ele>177.008911</ele>
        <time>2022-03-20T09:08:30Z</time>
      </trkpt>
      <trkpt lat="50.36688" lon="4.34472">
        <ele>177.357391</ele>
        <time>2022-03-20T09:08:32Z</time>
      </trkpt>
      <trkpt lat="50.36683" lon="4.34479">
        <ele>177.551483</ele>
        <time>2022-03-20T09:08:34Z</time>
      </trkpt>
      <trkpt lat="50.36676" lon="4.34487">
        <ele>177.793564</ele>
        <time>2022-03-20T09:08:36Z</time>
      </trkpt>
      <trkpt lat="50.36671" lon="4.34494">
        <ele>178.027313</ele>
        <time>2022-03-20T09:08:38Z</time>
      </trkpt>
      <trkpt lat="50.36662" lon="4.34504">
        <ele>178.24469</ele>
        <time>2022-03-20T09:08:40Z</time>
      </trkpt>
      <trkpt lat="50.36654" lon="4.34514">
        <ele>178.280182</ele>
        <time>2022-03-20T09:08:42Z</time>
      </trkpt>
      <trkpt lat="50.36649" lon="4.34521">
        <ele>178.510498</ele>
        <time>2022-03-20T09:08:44Z</time>
      </trkpt>
      <trkpt lat="50.3664" lon="4.34532">
        <ele>179.210388</ele>
        <time>2022-03-20T09:08:46Z</time>
      </trkpt>
      <trkpt lat="50.36631" lon="4.34541">
        <ele>179.289047</ele>
        <time>2022-03-20T09:08:48Z</time>
      </trkpt>
      <trkpt lat="50.36624" lon="4.34553">
        <ele>179.452118</ele>
        <time>2022-03-20T09:08:50Z</time>
      </trkpt>
      <trkpt lat="50.36618" lon="4.34565">
        <ele>179.500122</ele>
        <time>2022-03-20T09:08:52Z</time>
      </trkpt>
      <trkpt lat="50.36614" lon="4.34574">
        <ele>179.359604</ele>
        <time>2022-03-20T09:08:54Z</time>
      </trkpt>
      <trkpt lat="50.3661" lon="4.34582">
        <ele>179.491104</ele>
        <time>2022-03-20T09:08:56Z</time>
      </trkpt>
      <trkpt lat="50.36608" lon="4.34589">
        <ele>179.655975</ele>
        <time>2022-03-20T09:08:58Z</time>
      </trkpt>
      <trkpt lat="50.36606" lon="4.34595">
        <ele>179.724518</ele>
        <time>2022-03-20T09:09:00Z</time>
      </trkpt>
      <trkpt lat="50.36603" lon="4.34603">
        <ele>179.826996</ele>
        <time>2022-03-20T09:09:02Z</time>
      </trkpt>
      <trkpt lat="50.36601" lon="4.34608">
        <ele>179.994049</ele>
        <time>2022-03-20T09:09:04Z</time>
      </trkpt>
      <trkpt lat="50.36599" lon="4.34616">
        <ele>180.238007</ele>
        <time>2022-03-20T09:09:06Z</time>
      </trkpt>
      <trkpt lat="50.36596" lon="4.34624">
        <ele>180.38205</ele>
        <time>2022-03-20T09:09:08Z</time>
      </trkpt>
      <trkpt lat="50.36593" lon="4.34633">
        <ele>180.724243</ele>
        <time>2022-03-20T09:09:12Z</time>
      </trkpt>
      <trkpt lat="50.36587" lon="4.34642">
        <ele>180.933517</ele>
        <time>2022-03-20T09:09:14Z</time>
      </trkpt>
      <trkpt lat="50.3658" lon="4.34652">
        <ele>181.174805</ele>
        <time>2022-03-20T09:09:16Z</time>
      </trkpt>
      <trkpt lat="50.36572" lon="4.34661">
        <ele>181.325119</ele>
        <time>2022-03-20T09:09:18Z</time>
      </trkpt>
      <trkpt lat="50.36555" lon="4.34677">
        <ele>181.419067</ele>
        <time>2022-03-20T09:09:20Z</time>
      </trkpt>
      <trkpt lat="50.36544" lon="4.34685">
        <ele>181.77356</ele>
        <time>2022-03-20T09:09:22Z</time>
      </trkpt>
      <trkpt lat="50.36536" lon="4.34694">
        <ele>181.936401</ele>
        <time>2022-03-20T09:09:24Z</time>
      </trkpt>
      <trkpt lat="50.36528" lon="4.34706">
        <ele>182.140991</ele>
        <time>2022-03-20T09:09:26Z</time>
      </trkpt>
      <trkpt lat="50.36521" lon="4.34717">
        <ele>181.850998</ele>
        <time>2022-03-20T09:09:28Z</time>
      </trkpt>
      <trkpt lat="50.36514" lon="4.34726">
        <ele>182.230103</ele>
        <time>2022-03-20T09:09:30Z</time>
      </trkpt>
      <trkpt lat="50.36507" lon="4.34734">
        <ele>182.859039</ele>
        <time>2022-03-20T09:09:32Z</time>
      </trkpt>
      <trkpt lat="50.36504" lon="4.34741">
        <ele>183.307861</ele>
        <time>2022-03-20T09:09:34Z</time>
      </trkpt>
      <trkpt lat="50.36501" lon="4.34752">
        <ele>183.650894</ele>
        <time>2022-03-20T09:09:36Z</time>
      </trkpt>
      <trkpt lat="50.36499" lon="4.34767">
        <ele>183.872238</ele>
        <time>2022-03-20T09:09:38Z</time>
      </trkpt>
      <trkpt lat="50.36498" lon="4.34781">
        <ele>184.147888</ele>
        <time>2022-03-20T09:09:40Z</time>
      </trkpt>
      <trkpt lat="50.36496" lon="4.34794">
        <ele>184.504913</ele>
        <time>2022-03-20T09:09:42Z</time>
      </trkpt>
      <trkpt lat="50.36497" lon="4.34804">
        <ele>184.634369</ele>
        <time>2022-03-20T09:09:44Z</time>
      </trkpt>
      <trkpt lat="50.36496" lon="4.34813">
        <ele>184.733414</ele>
        <time>2022-03-20T09:09:46Z</time>
      </trkpt>
      <trkpt lat="50.36498" lon="4.34821">
        <ele>185.000748</ele>
        <time>2022-03-20T09:09:48Z</time>
      </trkpt>
      <trkpt lat="50.36497" lon="4.34831">
        <ele>185.055023</ele>
        <time>2022-03-20T09:09:50Z</time>
      </trkpt>
      <trkpt lat="50.36498" lon="4.34841">
        <ele>185.382935</ele>
        <time>2022-03-20T09:09:52Z</time>
      </trkpt>
      <trkpt lat="50.36498" lon="4.34851">
        <ele>185.503601</ele>
        <time>2022-03-20T09:09:54Z</time>
      </trkpt>
      <trkpt lat="50.36499" lon="4.34862">
        <ele>185.565094</ele>
        <time>2022-03-20T09:09:56Z</time>
      </trkpt>
      <trkpt lat="50.36501" lon="4.34874">
        <ele>185.751007</ele>
        <time>2022-03-20T09:09:58Z</time>
      </trkpt>
      <trkpt lat="50.36501" lon="4.34886">
        <ele>186.095596</ele>
        <time>2022-03-20T09:10:00Z</time>
      </trkpt>
      <trkpt lat="50.36501" lon="4.34899">
        <ele>186.421463</ele>
        <time>2022-03-20T09:10:02Z</time>
      </trkpt>
      <trkpt lat="50.36502" lon="4.34909">
        <ele>186.550964</ele>
        <time>2022-03-20T09:10:04Z</time>
      </trkpt>
      <trkpt lat="50.36502" lon="4.34922">
        <ele>186.803467</ele>
        <time>2022-03-20T09:10:06Z</time>
      </trkpt>
      <trkpt lat="50.36503" lon="4.34935">
        <ele>186.932968</ele>
        <time>2022-03-20T09:10:08Z</time>
      </trkpt>
      <trkpt lat="50.36503" lon="4.34947">
        <ele>187.079193</ele>
        <time>2022-03-20T09:10:10Z</time>
      </trkpt>
      <trkpt lat="50.36502" lon="4.34959">
        <ele>187.491592</ele>
        <time>2022-03-20T09:10:12Z</time>
      </trkpt>
      <trkpt lat="50.36501" lon="4.34971">
        <ele>187.361847</ele>
        <time>2022-03-20T09:10:14Z</time>
      </trkpt>
      <trkpt lat="50.36502" lon="4.34984">
        <ele>187.530334</ele>
        <time>2022-03-20T09:10:16Z</time>
      </trkpt>
      <trkpt lat="50.36502" lon="4.34998">
        <ele>187.852036</ele>
        <time>2022-03-20T09:10:18Z</time>
      </trkpt>
      <trkpt lat="50.36502" lon="4.3501">
        <ele>188.075592</ele>
        <time>2022-03-20T09:10:20Z</time>
      </trkpt>
      <trkpt lat="50.36505" lon="4.35022">
        <ele>188.217636</ele>
        <time>2022-03-20T09:10:22Z</time>
      </trkpt>
      <trkpt lat="50.36506" lon="4.35035">
        <ele>188.401474</ele>
        <time>2022-03-20T09:10:24Z</time>
      </trkpt>
      <trkpt lat="50.36508" lon="4.35048">
        <ele>188.757401</ele>
        <time>2022-03-20T09:10:26Z</time>
      </trkpt>
      <trkpt lat="50.3651" lon="4.35057">
        <ele>188.909424</ele>
        <time>2022-03-20T09:10:28Z</time>
      </trkpt>
      <trkpt lat="50.36512" lon="4.3507">
        <ele>189.059845</ele>
        <time>2022-03-20T09:10:30Z</time>
      </trkpt>
      <trkpt lat="50.36514" lon="4.35082">
        <ele>189.370636</ele>
        <time>2022-03-20T09:10:32Z</time>
      </trkpt>
      <trkpt lat="50.36516" lon="4.35096">
        <ele>189.507462</ele>
        <time>2022-03-20T09:10:34Z</time>
      </trkpt>
      <trkpt lat="50.36516" lon="4.3511">
        <ele>189.706161</ele>
        <time>2022-03-20T09:10:36Z</time>
      </trkpt>
      <trkpt lat="50.36519" lon="4.35121">
        <ele>190.101028</ele>
        <time>2022-03-20T09:10:38Z</time>
      </trkpt>
      <trkpt lat="50.36522" lon="4.35133">
        <ele>190.239365</ele>
        <time>2022-03-20T09:10:40Z</time>
      </trkpt>
      <trkpt lat="50.36525" lon="4.35146">
        <ele>190.462952</ele>
        <time>2022-03-20T09:10:42Z</time>
      </trkpt>
      <trkpt lat="50.36527" lon="4.3516">
        <ele>190.452499</ele>
        <time>2022-03-20T09:10:44Z</time>
      </trkpt>
      <trkpt lat="50.3653" lon="4.35171">
        <ele>190.801376</ele>
        <time>2022-03-20T09:10:46Z</time>
      </trkpt>
      <trkpt lat="50.36531" lon="4.35177">
        <ele>190.937469</ele>
        <time>2022-03-20T09:10:47Z</time>
      </trkpt>
      <trkpt lat="50.36532" lon="4.3519">
        <ele>191.228622</ele>
        <time>2022-03-20T09:10:49Z</time>
      </trkpt>
      <trkpt lat="50.36535" lon="4.35205">
        <ele>191.483231</ele>
        <time>2022-03-20T09:10:51Z</time>
      </trkpt>
      <trkpt lat="50.36536" lon="4.35221">
        <ele>191.483215</ele>
        <time>2022-03-20T09:10:53Z</time>
      </trkpt>
      <trkpt lat="50.36538" lon="4.35236">
        <ele>191.644165</ele>
        <time>2022-03-20T09:10:55Z</time>
      </trkpt>
      <trkpt lat="50.3654" lon="4.35251">
        <ele>191.8703</ele>
        <time>2022-03-20T09:10:57Z</time>
      </trkpt>
      <trkpt lat="50.36541" lon="4.35264">
        <ele>192.001038</ele>
        <time>2022-03-20T09:10:59Z</time>
      </trkpt>
      <trkpt lat="50.36544" lon="4.35279">
        <ele>191.86734</ele>
        <time>2022-03-20T09:11:01Z</time>
      </trkpt>
      <trkpt lat="50.36546" lon="4.35294">
        <ele>191.792145</ele>
        <time>2022-03-20T09:11:03Z</time>
      </trkpt>
      <trkpt lat="50.36548" lon="4.35311">
        <ele>191.93425</ele>
        <time>2022-03-20T09:11:05Z</time>
      </trkpt>
      <trkpt lat="50.36549" lon="4.35326">
        <ele>191.916779</ele>
        <time>2022-03-20T09:11:07Z</time>
      </trkpt>
      <trkpt lat="50.3655" lon="4.3534">
        <ele>191.795197</ele>
        <time>2022-03-20T09:11:09Z</time>
      </trkpt>
      <trkpt lat="50.3655" lon="4.35353">
        <ele>191.822357</ele>
        <time>2022-03-20T09:11:11Z</time>
      </trkpt>
      <trkpt lat="50.36551" lon="4.35366">
        <ele>191.824921</ele>
        <time>2022-03-20T09:11:13Z</time>
      </trkpt>
      <trkpt lat="50.36553" lon="4.35375">
        <ele>191.859451</ele>
        <time>2022-03-20T09:11:15Z</time>
      </trkpt>
      <trkpt lat="50.36556" lon="4.35388">
        <ele>191.913605</ele>
        <time>2022-03-20T09:11:17Z</time>
      </trkpt>
      <trkpt lat="50.36557" lon="4.35401">
        <ele>191.761063</ele>
        <time>2022-03-20T09:11:19Z</time>
      </trkpt>
      <trkpt lat="50.36558" lon="4.35415">
        <ele>191.787796</ele>
        <time>2022-03-20T09:11:21Z</time>
      </trkpt>
      <trkpt lat="50.3656" lon="4.35428">
        <ele>191.636063</ele>
        <time>2022-03-20T09:11:23Z</time>
      </trkpt>
      <trkpt lat="50.36562" lon="4.35441">
        <ele>191.725906</ele>
        <time>2022-03-20T09:11:25Z</time>
      </trkpt>
      <trkpt lat="50.36564" lon="4.35453">
        <ele>191.42305</ele>
        <time>2022-03-20T09:11:27Z</time>
      </trkpt>
      <trkpt lat="50.36565" lon="4.35467">
        <ele>191.265594</ele>
        <time>2022-03-20T09:11:29Z</time>
      </trkpt>
      <trkpt lat="50.36566" lon="4.3548">
        <ele>191.165283</ele>
        <time>2022-03-20T09:11:31Z</time>
      </trkpt>
      <trkpt lat="50.36568" lon="4.35496">
        <ele>191.120651</ele>
        <time>2022-03-20T09:11:33Z</time>
      </trkpt>
      <trkpt lat="50.36569" lon="4.35513">
        <ele>191.032883</ele>
        <time>2022-03-20T09:11:35Z</time>
      </trkpt>
      <trkpt lat="50.36569" lon="4.35526">
        <ele>190.826187</ele>
        <time>2022-03-20T09:11:37Z</time>
      </trkpt>
      <trkpt lat="50.36569" lon="4.3554">
        <ele>190.880646</ele>
        <time>2022-03-20T09:11:39Z</time>
      </trkpt>
      <trkpt lat="50.3657" lon="4.35554">
        <ele>190.942169</ele>
        <time>2022-03-20T09:11:41Z</time>
      </trkpt>
      <trkpt lat="50.3657" lon="4.35566">
        <ele>191.286896</ele>
        <time>2022-03-20T09:11:43Z</time>
      </trkpt>
      <trkpt lat="50.36572" lon="4.35583">
        <ele>191.288986</ele>
        <time>2022-03-20T09:11:45Z</time>
      </trkpt>
      <trkpt lat="50.36573" lon="4.35597">
        <ele>191.366302</ele>
        <time>2022-03-20T09:11:47Z</time>
      </trkpt>
      <trkpt lat="50.36575" lon="4.35609">
        <ele>191.351685</ele>
        <time>2022-03-20T09:11:49Z</time>
      </trkpt>
      <trkpt lat="50.36577" lon="4.35623">
        <ele>191.332886</ele>
        <time>2022-03-20T09:11:51Z</time>
      </trkpt>
      <trkpt lat="50.36578" lon="4.35636">
        <ele>191.322433</ele>
        <time>2022-03-20T09:11:53Z</time>
      </trkpt>
      <trkpt lat="50.3658" lon="4.35651">
        <ele>191.387238</ele>
        <time>2022-03-20T09:11:55Z</time>
      </trkpt>
      <trkpt lat="50.36581" lon="4.35667">
        <ele>191.435303</ele>
        <time>2022-03-20T09:11:57Z</time>
      </trkpt>
      <trkpt lat="50.36584" lon="4.35684">
        <ele>191.429047</ele>
        <time>2022-03-20T09:11:59Z</time>
      </trkpt>
      <trkpt lat="50.36585" lon="4.35704">
        <ele>191.330856</ele>
        <time>2022-03-20T09:12:01Z</time>
      </trkpt>
      <trkpt lat="50.36586" lon="4.35721">
        <ele>191.358002</ele>
        <time>2022-03-20T09:12:03Z</time>
      </trkpt>
      <trkpt lat="50.36588" lon="4.35735">
        <ele>191.183228</ele>
        <time>2022-03-20T09:12:05Z</time>
      </trkpt>
      <trkpt lat="50.36592" lon="4.35741">
        <ele>191.04451</ele>
        <time>2022-03-20T09:12:07Z</time>
      </trkpt>
      <trkpt lat="50.36597" lon="4.35746">
        <ele>191.26944</ele>
        <time>2022-03-20T09:12:09Z</time>
      </trkpt>
      <trkpt lat="50.36603" lon="4.35745">
        <ele>191.029053</ele>
        <time>2022-03-20T09:12:11Z</time>
      </trkpt>
      <trkpt lat="50.36607" lon="4.3574">
        <ele>190.983078</ele>
        <time>2022-03-20T09:12:13Z</time>
      </trkpt>
      <trkpt lat="50.3661" lon="4.35733">
        <ele>190.812897</ele>
        <time>2022-03-20T09:12:15Z</time>
      </trkpt>
      <trkpt lat="50.36612" lon="4.35726">
        <ele>190.697754</ele>
        <time>2022-03-20T09:12:17Z</time>
      </trkpt>
      <trkpt lat="50.36615" lon="4.3572">
        <ele>190.557205</ele>
        <time>2022-03-20T09:12:19Z</time>
      </trkpt>
      <trkpt lat="50.36617" lon="4.35712">
        <ele>190.243729</ele>
        <time>2022-03-20T09:12:21Z</time>
      </trkpt>
      <trkpt lat="50.3662" lon="4.35702">
        <ele>190.01178</ele>
        <time>2022-03-20T09:12:23Z</time>
      </trkpt>
      <trkpt lat="50.36623" lon="4.3569">
        <ele>189.719238</ele>
        <time>2022-03-20T09:12:25Z</time>
      </trkpt>
      <trkpt lat="50.36625" lon="4.3568">
        <ele>189.627304</ele>
        <time>2022-03-20T09:12:27Z</time>
      </trkpt>
      <trkpt lat="50.36628" lon="4.35671">
        <ele>189.456757</ele>
        <time>2022-03-20T09:12:29Z</time>
      </trkpt>
      <trkpt lat="50.36631" lon="4.35663">
        <ele>189.490189</ele>
        <time>2022-03-20T09:12:31Z</time>
      </trkpt>
      <trkpt lat="50.36634" lon="4.35656">
        <ele>189.318848</ele>
        <time>2022-03-20T09:12:33Z</time>
      </trkpt>
      <trkpt lat="50.36638" lon="4.35647">
        <ele>189.174713</ele>
        <time>2022-03-20T09:12:35Z</time>
      </trkpt>
      <trkpt lat="50.36642" lon="4.35639">
        <ele>188.974091</ele>
        <time>2022-03-20T09:12:37Z</time>
      </trkpt>
      <trkpt lat="50.36646" lon="4.35629">
        <ele>188.635529</ele>
        <time>2022-03-20T09:12:39Z</time>
      </trkpt>
      <trkpt lat="50.3665" lon="4.35617">
        <ele>188.730225</ele>
        <time>2022-03-20T09:12:41Z</time>
      </trkpt>
      <trkpt lat="50.36653" lon="4.35609">
        <ele>188.564987</ele>
        <time>2022-03-20T09:12:43Z</time>
      </trkpt>
      <trkpt lat="50.36657" lon="4.35599">
        <ele>188.461044</ele>
        <time>2022-03-20T09:12:45Z</time>
      </trkpt>
      <trkpt lat="50.36661" lon="4.3559">
        <ele>188.475677</ele>
        <time>2022-03-20T09:12:47Z</time>
      </trkpt>
      <trkpt lat="50.36666" lon="4.3558">
        <ele>188.488892</ele>
        <time>2022-03-20T09:12:49Z</time>
      </trkpt>
      <trkpt lat="50.36671" lon="4.35568">
        <ele>188.443558</ele>
        <time>2022-03-20T09:12:51Z</time>
      </trkpt>
      <trkpt lat="50.36678" lon="4.35557">
        <ele>188.477081</ele>
        <time>2022-03-20T09:12:53Z</time>
      </trkpt>
      <trkpt lat="50.36684" lon="4.35548">
        <ele>188.481628</ele>
        <time>2022-03-20T09:12:55Z</time>
      </trkpt>
      <trkpt lat="50.36688" lon="4.35539">
        <ele>188.504608</ele>
        <time>2022-03-20T09:12:57Z</time>
      </trkpt>
      <trkpt lat="50.36691" lon="4.35528">
        <ele>188.51297</ele>
        <time>2022-03-20T09:12:59Z</time>
      </trkpt>
      <trkpt lat="50.36695" lon="4.35515">
        <ele>188.579819</ele>
        <time>2022-03-20T09:13:01Z</time>
      </trkpt>
      <trkpt lat="50.36698" lon="4.35502">
        <ele>188.728149</ele>
        <time>2022-03-20T09:13:03Z</time>
      </trkpt>
      <trkpt lat="50.36701" lon="4.3549">
        <ele>188.749039</ele>
        <time>2022-03-20T09:13:05Z</time>
      </trkpt>
      <trkpt lat="50.36703" lon="4.35479">
        <ele>188.675934</ele>
        <time>2022-03-20T09:13:07Z</time>
      </trkpt>
      <trkpt lat="50.36706" lon="4.35465">
        <ele>188.599915</ele>
        <time>2022-03-20T09:13:09Z</time>
      </trkpt>
      <trkpt lat="50.3671" lon="4.35453">
        <ele>188.520523</ele>
        <time>2022-03-20T09:13:11Z</time>
      </trkpt>
      <trkpt lat="50.36715" lon="4.35438">
        <ele>188.491272</ele>
        <time>2022-03-20T09:13:13Z</time>
      </trkpt>
      <trkpt lat="50.36718" lon="4.35423">
        <ele>188.315796</ele>
        <time>2022-03-20T09:13:15Z</time>
      </trkpt>
      <trkpt lat="50.36721" lon="4.35407">
        <ele>188.230148</ele>
        <time>2022-03-20T09:13:17Z</time>
      </trkpt>
      <trkpt lat="50.36723" lon="4.35399">
        <ele>188.086029</ele>
        <time>2022-03-20T09:13:18Z</time>
      </trkpt>
      <trkpt lat="50.36727" lon="4.35382">
        <ele>187.977402</ele>
        <time>2022-03-20T09:13:20Z</time>
      </trkpt>
      <trkpt lat="50.36727" lon="4.35366">
        <ele>187.872955</ele>
        <time>2022-03-20T09:13:22Z</time>
      </trkpt>
      <trkpt lat="50.36727" lon="4.35349">
        <ele>187.777618</ele>
        <time>2022-03-20T09:13:24Z</time>
      </trkpt>
      <trkpt lat="50.36725" lon="4.35335">
        <ele>187.741211</ele>
        <time>2022-03-20T09:13:26Z</time>
      </trkpt>
      <trkpt lat="50.36723" lon="4.35319">
        <ele>187.522583</ele>
        <time>2022-03-20T09:13:28Z</time>
      </trkpt>
      <trkpt lat="50.36721" lon="4.35303">
        <ele>187.167679</ele>
        <time>2022-03-20T09:13:30Z</time>
      </trkpt>
      <trkpt lat="50.36718" lon="4.35287">
        <ele>186.90242</ele>
        <time>2022-03-20T09:13:32Z</time>
      </trkpt>
      <trkpt lat="50.36712" lon="4.35274">
        <ele>186.722321</ele>
        <time>2022-03-20T09:13:34Z</time>
      </trkpt>
      <trkpt lat="50.3671" lon="4.35256">
        <ele>186.483795</ele>
        <time>2022-03-20T09:13:36Z</time>
      </trkpt>
      <trkpt lat="50.36708" lon="4.3524">
        <ele>186.216461</ele>
        <time>2022-03-20T09:13:38Z</time>
      </trkpt>
      <trkpt lat="50.36706" lon="4.35225">
        <ele>185.965805</ele>
        <time>2022-03-20T09:13:40Z</time>
      </trkpt>
      <trkpt lat="50.36704" lon="4.35208">
        <ele>185.706818</ele>
        <time>2022-03-20T09:13:42Z</time>
      </trkpt>
      <trkpt lat="50.36704" lon="4.3519">
        <ele>184.90535</ele>
        <time>2022-03-20T09:13:44Z</time>
      </trkpt>
      <trkpt lat="50.36706" lon="4.3517">
        <ele>184.335403</ele>
        <time>2022-03-20T09:13:46Z</time>
      </trkpt>
      <trkpt lat="50.36704" lon="4.35157">
        <ele>184.022141</ele>
        <time>2022-03-20T09:13:48Z</time>
      </trkpt>
      <trkpt lat="50.36708" lon="4.35143">
        <ele>183.699371</ele>
        <time>2022-03-20T09:13:50Z</time>
      </trkpt>
      <trkpt lat="50.36711" lon="4.35125">
        <ele>183.26503</ele>
        <time>2022-03-20T09:13:52Z</time>
      </trkpt>
      <trkpt lat="50.36715" lon="4.35109">
        <ele>182.916275</ele>
        <time>2022-03-20T09:13:54Z</time>
      </trkpt>
      <trkpt lat="50.36719" lon="4.35089">
        <ele>182.751297</ele>
        <time>2022-03-20T09:13:56Z</time>
      </trkpt>
      <trkpt lat="50.36722" lon="4.35071">
        <ele>183.186035</ele>
        <time>2022-03-20T09:13:58Z</time>
      </trkpt>
      <trkpt lat="50.36728" lon="4.35054">
        <ele>182.986374</ele>
        <time>2022-03-20T09:14:00Z</time>
      </trkpt>
      <trkpt lat="50.36731" lon="4.35036">
        <ele>182.58551</ele>
        <time>2022-03-20T09:14:02Z</time>
      </trkpt>
      <trkpt lat="50.36733" lon="4.35013">
        <ele>182.817322</ele>
        <time>2022-03-20T09:14:04Z</time>
      </trkpt>
      <trkpt lat="50.36737" lon="4.34988">
        <ele>182.487335</ele>
        <time>2022-03-20T09:14:06Z</time>
      </trkpt>
      <trkpt lat="50.36743" lon="4.34969">
        <ele>181.860382</ele>
        <time>2022-03-20T09:14:08Z</time>
      </trkpt>
      <trkpt lat="50.36746" lon="4.34958">
        <ele>181.546356</ele>
        <time>2022-03-20T09:14:10Z</time>
      </trkpt>
      <trkpt lat="50.36749" lon="4.34947">
        <ele>181.333466</ele>
        <time>2022-03-20T09:14:12Z</time>
      </trkpt>
      <trkpt lat="50.36752" lon="4.34935">
        <ele>181.139282</ele>
        <time>2022-03-20T09:14:14Z</time>
      </trkpt>
      <trkpt lat="50.36754" lon="4.34927">
        <ele>180.901733</ele>
        <time>2022-03-20T09:14:15Z</time>
      </trkpt>
      <trkpt lat="50.36756" lon="4.34913">
        <ele>180.640762</ele>
        <time>2022-03-20T09:14:17Z</time>
      </trkpt>
      <trkpt lat="50.36759" lon="4.34896">
        <ele>180.321411</ele>
        <time>2022-03-20T09:14:19Z</time>
      </trkpt>
      <trkpt lat="50.36762" lon="4.34885">
        <ele>180.037476</ele>
        <time>2022-03-20T09:14:21Z</time>
      </trkpt>
      <trkpt lat="50.36763" lon="4.34873">
        <ele>179.734741</ele>
        <time>2022-03-20T09:14:23Z</time>
      </trkpt>
      <trkpt lat="50.36766" lon="4.3486">
        <ele>179.943115</ele>
        <time>2022-03-20T09:14:25Z</time>
      </trkpt>
      <trkpt lat="50.3677" lon="4.34846">
        <ele>179.892975</ele>
        <time>2022-03-20T09:14:27Z</time>
      </trkpt>
      <trkpt lat="50.36772" lon="4.34829">
        <ele>179.717621</ele>
        <time>2022-03-20T09:14:29Z</time>
      </trkpt>
      <trkpt lat="50.36774" lon="4.34814">
        <ele>179.550629</ele>
        <time>2022-03-20T09:14:31Z</time>
      </trkpt>
      <trkpt lat="50.36775" lon="4.34802">
        <ele>179.45047</ele>
        <time>2022-03-20T09:14:33Z</time>
      </trkpt>
      <trkpt lat="50.36776" lon="4.34785">
        <ele>179.206268</ele>
        <time>2022-03-20T09:14:35Z</time>
      </trkpt>
      <trkpt lat="50.36775" lon="4.34772">
        <ele>178.909943</ele>
        <time>2022-03-20T09:14:37Z</time>
      </trkpt>
      <trkpt lat="50.36775" lon="4.34755">
        <ele>178.068146</ele>
        <time>2022-03-20T09:14:39Z</time>
      </trkpt>
      <trkpt lat="50.36773" lon="4.34742">
        <ele>177.718796</ele>
        <time>2022-03-20T09:14:41Z</time>
      </trkpt>
      <trkpt lat="50.36773" lon="4.3473">
        <ele>177.647858</ele>
        <time>2022-03-20T09:14:43Z</time>
      </trkpt>
      <trkpt lat="50.36772" lon="4.34715">
        <ele>176.656952</ele>
        <time>2022-03-20T09:14:45Z</time>
      </trkpt>
      <trkpt lat="50.36771" lon="4.34703">
        <ele>176.466095</ele>
        <time>2022-03-20T09:14:47Z</time>
      </trkpt>
      <trkpt lat="50.36771" lon="4.34686">
        <ele>176.541138</ele>
        <time>2022-03-20T09:14:49Z</time>
      </trkpt>
      <trkpt lat="50.36771" lon="4.34664">
        <ele>176.549805</ele>
        <time>2022-03-20T09:14:51Z</time>
      </trkpt>
      <trkpt lat="50.36771" lon="4.34641">
        <ele>176.426788</ele>
        <time>2022-03-20T09:14:53Z</time>
      </trkpt>
      <trkpt lat="50.3677" lon="4.34619">
        <ele>176.107513</ele>
        <time>2022-03-20T09:14:55Z</time>
      </trkpt>
      <trkpt lat="50.36768" lon="4.346">
        <ele>175.913498</ele>
        <time>2022-03-20T09:14:57Z</time>
      </trkpt>
      <trkpt lat="50.36768" lon="4.34579">
        <ele>175.694412</ele>
        <time>2022-03-20T09:14:59Z</time>
      </trkpt>
      <trkpt lat="50.3677" lon="4.34562">
        <ele>175.559357</ele>
        <time>2022-03-20T09:15:01Z</time>
      </trkpt>
      <trkpt lat="50.36773" lon="4.34543">
        <ele>175.425812</ele>
        <time>2022-03-20T09:15:03Z</time>
      </trkpt>
      <trkpt lat="50.36779" lon="4.34522">
        <ele>175.288101</ele>
        <time>2022-03-20T09:15:05Z</time>
      </trkpt>
      <trkpt lat="50.36786" lon="4.345">
        <ele>175.044144</ele>
        <time>2022-03-20T09:15:07Z</time>
      </trkpt>
      <trkpt lat="50.36793" lon="4.34479">
        <ele>175.041718</ele>
        <time>2022-03-20T09:15:09Z</time>
      </trkpt>
      <trkpt lat="50.36799" lon="4.34459">
        <ele>174.717636</ele>
        <time>2022-03-20T09:15:11Z</time>
      </trkpt>
      <trkpt lat="50.36803" lon="4.34443">
        <ele>174.462219</ele>
        <time>2022-03-20T09:15:13Z</time>
      </trkpt>
      <trkpt lat="50.36807" lon="4.34431">
        <ele>174.286972</ele>
        <time>2022-03-20T09:15:15Z</time>
      </trkpt>
      <trkpt lat="50.36808" lon="4.34427">
        <ele>174.243286</ele>
        <time>2022-03-20T09:15:17Z</time>
      </trkpt>
      <trkpt lat="50.36811" lon="4.34427">
        <ele>173.99501</ele>
        <time>2022-03-20T09:15:19Z</time>
      </trkpt>
      <trkpt lat="50.36815" lon="4.34424">
        <ele>173.748856</ele>
        <time>2022-03-20T09:15:21Z</time>
      </trkpt>
      <trkpt lat="50.3682" lon="4.34417">
        <ele>173.663345</ele>
        <time>2022-03-20T09:15:23Z</time>
      </trkpt>
      <trkpt lat="50.36828" lon="4.34404">
        <ele>173.398148</ele>
        <time>2022-03-20T09:15:25Z</time>
      </trkpt>
      <trkpt lat="50.36837" lon="4.3439">
        <ele>173.170807</ele>
        <time>2022-03-20T09:15:27Z</time>
      </trkpt>
      <trkpt lat="50.36842" lon="4.34381">
        <ele>172.79538</ele>
        <time>2022-03-20T09:15:29Z</time>
      </trkpt>
      <trkpt lat="50.36847" lon="4.34373">
        <ele>172.549225</ele>
        <time>2022-03-20T09:15:31Z</time>
      </trkpt>
      <trkpt lat="50.36851" lon="4.34365">
        <ele>172.355804</ele>
        <time>2022-03-20T09:15:33Z</time>
      </trkpt>
      <trkpt lat="50.36859" lon="4.34357">
        <ele>171.982391</ele>
        <time>2022-03-20T09:15:35Z</time>
      </trkpt>
      <trkpt lat="50.36864" lon="4.34349">
        <ele>171.410934</ele>
        <time>2022-03-20T09:15:37Z</time>
      </trkpt>
      <trkpt lat="50.36872" lon="4.34338">
        <ele>171.365051</ele>
        <time>2022-03-20T09:15:39Z</time>
      </trkpt>
      <trkpt lat="50.36878" lon="4.3433">
        <ele>170.957779</ele>
        <time>2022-03-20T09:15:41Z</time>
      </trkpt>
      <trkpt lat="50.36885" lon="4.34321">
        <ele>170.540909</ele>
        <time>2022-03-20T09:15:43Z</time>
      </trkpt>
      <trkpt lat="50.3689" lon="4.34313">
        <ele>169.982025</ele>
        <time>2022-03-20T09:15:45Z</time>
      </trkpt>
      <trkpt lat="50.36895" lon="4.34303">
        <ele>169.559402</ele>
        <time>2022-03-20T09:15:47Z</time>
      </trkpt>
      <trkpt lat="50.36903" lon="4.34288">
        <ele>168.921783</ele>
        <time>2022-03-20T09:15:49Z</time>
      </trkpt>
      <trkpt lat="50.36908" lon="4.34278">
        <ele>168.196075</ele>
        <time>2022-03-20T09:15:51Z</time>
      </trkpt>
      <trkpt lat="50.36915" lon="4.34266">
        <ele>167.483231</ele>
        <time>2022-03-20T09:15:53Z</time>
      </trkpt>
      <trkpt lat="50.36922" lon="4.34256">
        <ele>166.847458</ele>
        <time>2022-03-20T09:15:55Z</time>
      </trkpt>
      <trkpt lat="50.36925" lon="4.34251">
        <ele>166.418137</ele>
        <time>2022-03-20T09:15:56Z</time>
      </trkpt>
      <trkpt lat="50.3693" lon="4.34246">
        <ele>165.596802</ele>
        <time>2022-03-20T09:15:58Z</time>
      </trkpt>
      <trkpt lat="50.36933" lon="4.3425">
        <ele>164.713165</ele>
        <time>2022-03-20T09:16:00Z</time>
      </trkpt>
      <trkpt lat="50.36935" lon="4.34257">
        <ele>163.948334</ele>
        <time>2022-03-20T09:16:02Z</time>
      </trkpt>
      <trkpt lat="50.36936" lon="4.34263">
        <ele>163.045975</ele>
        <time>2022-03-20T09:16:04Z</time>
      </trkpt>
      <trkpt lat="50.36936" lon="4.34274">
        <ele>161.982895</ele>
        <time>2022-03-20T09:16:06Z</time>
      </trkpt>
      <trkpt lat="50.36934" lon="4.34286">
        <ele>161.141235</ele>
        <time>2022-03-20T09:16:08Z</time>
      </trkpt>
      <trkpt lat="50.36934" lon="4.343">
        <ele>160.074677</ele>
        <time>2022-03-20T09:16:10Z</time>
      </trkpt>
      <trkpt lat="50.36933" lon="4.34314">
        <ele>159.570572</ele>
        <time>2022-03-20T09:16:12Z</time>
      </trkpt>
      <trkpt lat="50.36931" lon="4.34334">
        <ele>158.402435</ele>
        <time>2022-03-20T09:16:14Z</time>
      </trkpt>
      <trkpt lat="50.36927" lon="4.34355">
        <ele>157.388107</ele>
        <time>2022-03-20T09:16:16Z</time>
      </trkpt>
      <trkpt lat="50.36926" lon="4.34369">
        <ele>156.288467</ele>
        <time>2022-03-20T09:16:18Z</time>
      </trkpt>
      <trkpt lat="50.36922" lon="4.3438">
        <ele>155.292877</ele>
        <time>2022-03-20T09:16:20Z</time>
      </trkpt>
      <trkpt lat="50.36921" lon="4.3439">
        <ele>154.156616</ele>
        <time>2022-03-20T09:16:22Z</time>
      </trkpt>
      <trkpt lat="50.3692" lon="4.34399">
        <ele>153.173798</ele>
        <time>2022-03-20T09:16:24Z</time>
      </trkpt>
      <trkpt lat="50.36918" lon="4.34409">
        <ele>152.249191</ele>
        <time>2022-03-20T09:16:26Z</time>
      </trkpt>
      <trkpt lat="50.36917" lon="4.34417">
        <ele>151.134338</ele>
        <time>2022-03-20T09:16:28Z</time>
      </trkpt>
      <trkpt lat="50.36915" lon="4.34427">
        <ele>150.277084</ele>
        <time>2022-03-20T09:16:30Z</time>
      </trkpt>
      <trkpt lat="50.36913" lon="4.34437">
        <ele>149.353607</ele>
        <time>2022-03-20T09:16:32Z</time>
      </trkpt>
      <trkpt lat="50.3691" lon="4.34447">
        <ele>148.625122</ele>
        <time>2022-03-20T09:16:34Z</time>
      </trkpt>
      <trkpt lat="50.3691" lon="4.34456">
        <ele>147.776535</ele>
        <time>2022-03-20T09:16:36Z</time>
      </trkpt>
      <trkpt lat="50.36907" lon="4.34467">
        <ele>147.145905</ele>
        <time>2022-03-20T09:16:38Z</time>
      </trkpt>
      <trkpt lat="50.36904" lon="4.34477">
        <ele>146.486206</ele>
        <time>2022-03-20T09:16:40Z</time>
      </trkpt>
      <trkpt lat="50.36901" lon="4.34487">
        <ele>145.795242</ele>
        <time>2022-03-20T09:16:42Z</time>
      </trkpt>
      <trkpt lat="50.36901" lon="4.34494">
        <ele>145.183426</ele>
        <time>2022-03-20T09:16:44Z</time>
      </trkpt>
      <trkpt lat="50.36902" lon="4.34502">
        <ele>144.940033</ele>
        <time>2022-03-20T09:16:46Z</time>
      </trkpt>
      <trkpt lat="50.36901" lon="4.34513">
        <ele>144.553589</ele>
        <time>2022-03-20T09:16:48Z</time>
      </trkpt>
      <trkpt lat="50.36901" lon="4.34523">
        <ele>144.108353</ele>
        <time>2022-03-20T09:16:50Z</time>
      </trkpt>
      <trkpt lat="50.36903" lon="4.34532">
        <ele>143.821365</ele>
        <time>2022-03-20T09:16:52Z</time>
      </trkpt>
      <trkpt lat="50.36903" lon="4.34544">
        <ele>143.437775</ele>
        <time>2022-03-20T09:16:54Z</time>
      </trkpt>
      <trkpt lat="50.36903" lon="4.34556">
        <ele>143.271332</ele>
        <time>2022-03-20T09:16:56Z</time>
      </trkpt>
      <trkpt lat="50.36905" lon="4.34567">
        <ele>143.136108</ele>
        <time>2022-03-20T09:16:58Z</time>
      </trkpt>
      <trkpt lat="50.36906" lon="4.34577">
        <ele>142.948898</ele>
        <time>2022-03-20T09:17:00Z</time>
      </trkpt>
      <trkpt lat="50.36908" lon="4.34588">
        <ele>142.919754</ele>
        <time>2022-03-20T09:17:02Z</time>
      </trkpt>
      <trkpt lat="50.36908" lon="4.346">
        <ele>142.768646</ele>
        <time>2022-03-20T09:17:04Z</time>
      </trkpt>
      <trkpt lat="50.36911" lon="4.3461">
        <ele>142.600159</ele>
        <time>2022-03-20T09:17:06Z</time>
      </trkpt>
      <trkpt lat="50.36913" lon="4.34616">
        <ele>142.518585</ele>
        <time>2022-03-20T09:17:08Z</time>
      </trkpt>
      <trkpt lat="50.36914" lon="4.3462">
        <ele>142.52475</ele>
        <time>2022-03-20T09:17:09Z</time>
      </trkpt>
      <trkpt lat="50.36916" lon="4.34627">
        <ele>142.559616</ele>
        <time>2022-03-20T09:17:11Z</time>
      </trkpt>
      <trkpt lat="50.36918" lon="4.34634">
        <ele>142.651154</ele>
        <time>2022-03-20T09:17:13Z</time>
      </trkpt>
      <trkpt lat="50.36919" lon="4.34641">
        <ele>142.730194</ele>
        <time>2022-03-20T09:17:15Z</time>
      </trkpt>
      <trkpt lat="50.3692" lon="4.34647">
        <ele>142.856384</ele>
        <time>2022-03-20T09:17:17Z</time>
      </trkpt>
      <trkpt lat="50.36921" lon="4.34654">
        <ele>142.916718</ele>
        <time>2022-03-20T09:17:19Z</time>
      </trkpt>
      <trkpt lat="50.36921" lon="4.34659">
        <ele>143.091446</ele>
        <time>2022-03-20T09:17:21Z</time>
      </trkpt>
      <trkpt lat="50.36921" lon="4.34667">
        <ele>143.245377</ele>
        <time>2022-03-20T09:17:23Z</time>
      </trkpt>
      <trkpt lat="50.36921" lon="4.34674">
        <ele>143.470032</ele>
        <time>2022-03-20T09:17:25Z</time>
      </trkpt>
      <trkpt lat="50.36921" lon="4.34679">
        <ele>143.588516</ele>
        <time>2022-03-20T09:17:27Z</time>
      </trkpt>
      <trkpt lat="50.36921" lon="4.34684">
        <ele>143.617645</ele>
        <time>2022-03-20T09:17:29Z</time>
      </trkpt>
      <trkpt lat="50.36921" lon="4.34689">
        <ele>143.786087</ele>
        <time>2022-03-20T09:17:31Z</time>
      </trkpt>
      <trkpt lat="50.36921" lon="4.34695">
        <ele>144.010635</ele>
        <time>2022-03-20T09:17:33Z</time>
      </trkpt>
      <trkpt lat="50.36922" lon="4.34703">
        <ele>144.214508</ele>
        <time>2022-03-20T09:17:35Z</time>
      </trkpt>
      <trkpt lat="50.36924" lon="4.34721">
        <ele>144.388763</ele>
        <time>2022-03-20T09:17:37Z</time>
      </trkpt>
      <trkpt lat="50.36925" lon="4.34726">
        <ele>144.582245</ele>
        <time>2022-03-20T09:17:39Z</time>
      </trkpt>
      <trkpt lat="50.36924" lon="4.3473">
        <ele>144.833954</ele>
        <time>2022-03-20T09:17:41Z</time>
      </trkpt>
      <trkpt lat="50.36923" lon="4.34734">
        <ele>145.075317</ele>
        <time>2022-03-20T09:17:43Z</time>
      </trkpt>
      <trkpt lat="50.36921" lon="4.34739">
        <ele>145.339905</ele>
        <time>2022-03-20T09:17:45Z</time>
      </trkpt>
      <trkpt lat="50.3692" lon="4.34746">
        <ele>145.656143</ele>
        <time>2022-03-20T09:17:47Z</time>
      </trkpt>
      <trkpt lat="50.36918" lon="4.34754">
        <ele>145.916641</ele>
        <time>2022-03-20T09:17:49Z</time>
      </trkpt>
      <trkpt lat="50.36916" lon="4.34761">
        <ele>146.163116</ele>
        <time>2022-03-20T09:17:51Z</time>
      </trkpt>
      <trkpt lat="50.36914" lon="4.34768">
        <ele>146.389923</ele>
        <time>2022-03-20T09:17:53Z</time>
      </trkpt>
      <trkpt lat="50.36913" lon="4.34776">
        <ele>146.645859</ele>
        <time>2022-03-20T09:17:55Z</time>
      </trkpt>
      <trkpt lat="50.3691" lon="4.3479">
        <ele>146.933014</ele>
        <time>2022-03-20T09:17:57Z</time>
      </trkpt>
      <trkpt lat="50.3691" lon="4.34795">
        <ele>147.15152</ele>
        <time>2022-03-20T09:17:59Z</time>
      </trkpt>
      <trkpt lat="50.3691" lon="4.34799">
        <ele>147.392868</ele>
        <time>2022-03-20T09:18:01Z</time>
      </trkpt>
      <trkpt lat="50.3691" lon="4.34803">
        <ele>147.636642</ele>
        <time>2022-03-20T09:18:03Z</time>
      </trkpt>
      <trkpt lat="50.36909" lon="4.34807">
        <ele>147.842667</ele>
        <time>2022-03-20T09:18:05Z</time>
      </trkpt>
      <trkpt lat="50.36908" lon="4.34812">
        <ele>147.925903</ele>
        <time>2022-03-20T09:18:07Z</time>
      </trkpt>
      <trkpt lat="50.36907" lon="4.34817">
        <ele>148.36319</ele>
        <time>2022-03-20T09:18:09Z</time>
      </trkpt>
      <trkpt lat="50.36906" lon="4.3482">
        <ele>148.469315</ele>
        <time>2022-03-20T09:18:11Z</time>
      </trkpt>
      <trkpt lat="50.36906" lon="4.34825">
        <ele>148.972977</ele>
        <time>2022-03-20T09:18:15Z</time>
      </trkpt>
      <trkpt lat="50.36906" lon="4.34831">
        <ele>149.228973</ele>
        <time>2022-03-20T09:18:17Z</time>
      </trkpt>
      <trkpt lat="50.36905" lon="4.34836">
        <ele>149.535416</ele>
        <time>2022-03-20T09:18:19Z</time>
      </trkpt>
      <trkpt lat="50.36905" lon="4.34839">
        <ele>149.812225</ele>
        <time>2022-03-20T09:18:21Z</time>
      </trkpt>
      <trkpt lat="50.36902" lon="4.34845">
        <ele>151.512009</ele>
        <time>2022-03-20T09:18:35Z</time>
      </trkpt>
      <trkpt lat="50.369" lon="4.34848">
        <ele>151.672302</ele>
        <time>2022-03-20T09:18:37Z</time>
      </trkpt>
      <trkpt lat="50.369" lon="4.3485">
        <ele>151.891373</ele>
        <time>2022-03-20T09:18:39Z</time>
      </trkpt>
      <trkpt lat="50.36898" lon="4.34855">
        <ele>152.321777</ele>
        <time>2022-03-20T09:18:43Z</time>
      </trkpt>
      <trkpt lat="50.36897" lon="4.34856">
        <ele>152.473755</ele>
        <time>2022-03-20T09:18:44Z</time>
      </trkpt>
      <trkpt lat="50.36889" lon="4.34893">
        <ele>153.063599</ele>
        <time>2022-03-20T09:18:50Z</time>
      </trkpt>
      <trkpt lat="50.3689" lon="4.34895">
        <ele>153.198929</ele>
        <time>2022-03-20T09:18:52Z</time>
      </trkpt>
      <trkpt lat="50.36891" lon="4.34896">
        <ele>153.40329</ele>
        <time>2022-03-20T09:18:54Z</time>
      </trkpt>
      <trkpt lat="50.36893" lon="4.349">
        <ele>154.100372</ele>
        <time>2022-03-20T09:19:00Z</time>
      </trkpt>
      <trkpt lat="50.36895" lon="4.34901">
        <ele>154.609406</ele>
        <time>2022-03-20T09:19:04Z</time>
      </trkpt>
      <trkpt lat="50.36897" lon="4.349">
        <ele>154.861389</ele>
        <time>2022-03-20T09:19:06Z</time>
      </trkpt>
      <trkpt lat="50.369" lon="4.34899">
        <ele>154.676376</ele>
        <time>2022-03-20T09:19:08Z</time>
      </trkpt>
      <trkpt lat="50.36903" lon="4.349">
        <ele>155.287354</ele>
        <time>2022-03-20T09:19:12Z</time>
      </trkpt>
      <trkpt lat="50.36905" lon="4.34898">
        <ele>155.597687</ele>
        <time>2022-03-20T09:19:14Z</time>
      </trkpt>
      <trkpt lat="50.36908" lon="4.34897">
        <ele>155.866364</ele>
        <time>2022-03-20T09:19:16Z</time>
      </trkpt>
      <trkpt lat="50.36911" lon="4.34895">
        <ele>156.216507</ele>
        <time>2022-03-20T09:19:18Z</time>
      </trkpt>
      <trkpt lat="50.36912" lon="4.34895">
        <ele>156.406036</ele>
        <time>2022-03-20T09:19:19Z</time>
      </trkpt>
      <trkpt lat="50.36914" lon="4.34894">
        <ele>156.820068</ele>
        <time>2022-03-20T09:19:21Z</time>
      </trkpt>
      <trkpt lat="50.36915" lon="4.34893">
        <ele>156.833038</ele>
        <time>2022-03-20T09:19:22Z</time>
      </trkpt>
      <trkpt lat="50.36918" lon="4.34891">
        <ele>157.013947</ele>
        <time>2022-03-20T09:19:24Z</time>
      </trkpt>
      <trkpt lat="50.3692" lon="4.3489">
        <ele>157.343842</ele>
        <time>2022-03-20T09:19:26Z</time>
      </trkpt>
      <trkpt lat="50.36923" lon="4.34887">
        <ele>157.769196</ele>
        <time>2022-03-20T09:19:28Z</time>
      </trkpt>
      <trkpt lat="50.36926" lon="4.34885">
        <ele>158.115005</ele>
        <time>2022-03-20T09:19:30Z</time>
      </trkpt>
      <trkpt lat="50.36929" lon="4.34884">
        <ele>158.551208</ele>
        <time>2022-03-20T09:19:32Z</time>
      </trkpt>
      <trkpt lat="50.36931" lon="4.34882">
        <ele>158.959229</ele>
        <time>2022-03-20T09:19:34Z</time>
      </trkpt>
      <trkpt lat="50.36934" lon="4.34881">
        <ele>159.361313</ele>
        <time>2022-03-20T09:19:36Z</time>
      </trkpt>
      <trkpt lat="50.36937" lon="4.34879">
        <ele>159.713211</ele>
        <time>2022-03-20T09:19:38Z</time>
      </trkpt>
      <trkpt lat="50.36939" lon="4.34876">
        <ele>160.114807</ele>
        <time>2022-03-20T09:19:40Z</time>
      </trkpt>
      <trkpt lat="50.36942" lon="4.34873">
        <ele>160.480057</ele>
        <time>2022-03-20T09:19:42Z</time>
      </trkpt>
      <trkpt lat="50.36944" lon="4.34872">
        <ele>160.759262</ele>
        <time>2022-03-20T09:19:44Z</time>
      </trkpt>
      <trkpt lat="50.36946" lon="4.3487">
        <ele>161.148026</ele>
        <time>2022-03-20T09:19:46Z</time>
      </trkpt>
      <trkpt lat="50.36948" lon="4.34868">
        <ele>161.961731</ele>
        <time>2022-03-20T09:19:48Z</time>
      </trkpt>
      <trkpt lat="50.36952" lon="4.34865">
        <ele>162.341034</ele>
        <time>2022-03-20T09:19:50Z</time>
      </trkpt>
      <trkpt lat="50.36955" lon="4.34861">
        <ele>162.707062</ele>
        <time>2022-03-20T09:19:52Z</time>
      </trkpt>
      <trkpt lat="50.36958" lon="4.3486">
        <ele>163.013397</ele>
        <time>2022-03-20T09:19:54Z</time>
      </trkpt>
      <trkpt lat="50.36961" lon="4.34859">
        <ele>163.394806</ele>
        <time>2022-03-20T09:19:56Z</time>
      </trkpt>
      <trkpt lat="50.36963" lon="4.34856">
        <ele>163.799484</ele>
        <time>2022-03-20T09:19:58Z</time>
      </trkpt>
      <trkpt lat="50.36966" lon="4.34852">
        <ele>164.005585</ele>
        <time>2022-03-20T09:20:00Z</time>
      </trkpt>
      <trkpt lat="50.36968" lon="4.34848">
        <ele>164.361298</ele>
        <time>2022-03-20T09:20:02Z</time>
      </trkpt>
      <trkpt lat="50.3697" lon="4.34845">
        <ele>164.869965</ele>
        <time>2022-03-20T09:20:04Z</time>
      </trkpt>
      <trkpt lat="50.36972" lon="4.34842">
        <ele>165.259476</ele>
        <time>2022-03-20T09:20:06Z</time>
      </trkpt>
      <trkpt lat="50.36975" lon="4.34839">
        <ele>165.65654</ele>
        <time>2022-03-20T09:20:08Z</time>
      </trkpt>
      <trkpt lat="50.36978" lon="4.34837">
        <ele>166.052643</ele>
        <time>2022-03-20T09:20:10Z</time>
      </trkpt>
      <trkpt lat="50.3698" lon="4.34834">
        <ele>166.509079</ele>
        <time>2022-03-20T09:20:12Z</time>
      </trkpt>
      <trkpt lat="50.36982" lon="4.34831">
        <ele>166.853073</ele>
        <time>2022-03-20T09:20:14Z</time>
      </trkpt>
      <trkpt lat="50.36985" lon="4.34828">
        <ele>167.220016</ele>
        <time>2022-03-20T09:20:16Z</time>
      </trkpt>
      <trkpt lat="50.36987" lon="4.34824">
        <ele>167.616821</ele>
        <time>2022-03-20T09:20:18Z</time>
      </trkpt>
      <trkpt lat="50.3699" lon="4.34822">
        <ele>168.051025</ele>
        <time>2022-03-20T09:20:20Z</time>
      </trkpt>
      <trkpt lat="50.36992" lon="4.3482">
        <ele>168.457672</ele>
        <time>2022-03-20T09:20:22Z</time>
      </trkpt>
      <trkpt lat="50.36996" lon="4.34818">
        <ele>169.260818</ele>
        <time>2022-03-20T09:20:26Z</time>
      </trkpt>
      <trkpt lat="50.36998" lon="4.34816">
        <ele>169.644943</ele>
        <time>2022-03-20T09:20:28Z</time>
      </trkpt>
      <trkpt lat="50.37" lon="4.34814">
        <ele>169.876434</ele>
        <time>2022-03-20T09:20:30Z</time>
      </trkpt>
      <trkpt lat="50.37004" lon="4.34813">
        <ele>170.213257</ele>
        <time>2022-03-20T09:20:32Z</time>
      </trkpt>
      <trkpt lat="50.37009" lon="4.34811">
        <ele>170.620148</ele>
        <time>2022-03-20T09:20:34Z</time>
      </trkpt>
      <trkpt lat="50.37011" lon="4.3481">
        <ele>171.095612</ele>
        <time>2022-03-20T09:20:36Z</time>
      </trkpt>
      <trkpt lat="50.37014" lon="4.34809">
        <ele>171.469879</ele>
        <time>2022-03-20T09:20:38Z</time>
      </trkpt>
      <trkpt lat="50.37017" lon="4.34808">
        <ele>171.856003</ele>
        <time>2022-03-20T09:20:40Z</time>
      </trkpt>
      <trkpt lat="50.37019" lon="4.34807">
        <ele>172.265442</ele>
        <time>2022-03-20T09:20:42Z</time>
      </trkpt>
      <trkpt lat="50.37022" lon="4.34806">
        <ele>172.692902</ele>
        <time>2022-03-20T09:20:44Z</time>
      </trkpt>
      <trkpt lat="50.37025" lon="4.34805">
        <ele>173.094025</ele>
        <time>2022-03-20T09:20:46Z</time>
      </trkpt>
      <trkpt lat="50.37028" lon="4.34804">
        <ele>173.521698</ele>
        <time>2022-03-20T09:20:48Z</time>
      </trkpt>
      <trkpt lat="50.37032" lon="4.34805">
        <ele>173.888885</ele>
        <time>2022-03-20T09:20:50Z</time>
      </trkpt>
      <trkpt lat="50.37037" lon="4.34806">
        <ele>174.262329</ele>
        <time>2022-03-20T09:20:52Z</time>
      </trkpt>
      <trkpt lat="50.37041" lon="4.34807">
        <ele>174.61702</ele>
        <time>2022-03-20T09:20:54Z</time>
      </trkpt>
      <trkpt lat="50.37046" lon="4.34808">
        <ele>175.02179</ele>
        <time>2022-03-20T09:20:56Z</time>
      </trkpt>
      <trkpt lat="50.37051" lon="4.34811">
        <ele>175.460785</ele>
        <time>2022-03-20T09:20:58Z</time>
      </trkpt>
      <trkpt lat="50.37054" lon="4.34812">
        <ele>175.83432</ele>
        <time>2022-03-20T09:21:00Z</time>
      </trkpt>
      <trkpt lat="50.37058" lon="4.34815">
        <ele>176.184082</ele>
        <time>2022-03-20T09:21:02Z</time>
      </trkpt>
      <trkpt lat="50.3706" lon="4.34817">
        <ele>175.860931</ele>
        <time>2022-03-20T09:21:03Z</time>
      </trkpt>
      <trkpt lat="50.37064" lon="4.3482">
        <ele>176.274384</ele>
        <time>2022-03-20T09:21:05Z</time>
      </trkpt>
      <trkpt lat="50.37069" lon="4.34823">
        <ele>176.675018</ele>
        <time>2022-03-20T09:21:07Z</time>
      </trkpt>
      <trkpt lat="50.37074" lon="4.34825">
        <ele>177.029999</ele>
        <time>2022-03-20T09:21:09Z</time>
      </trkpt>
      <trkpt lat="50.37082" lon="4.34826">
        <ele>177.148941</ele>
        <time>2022-03-20T09:21:11Z</time>
      </trkpt>
      <trkpt lat="50.3709" lon="4.34827">
        <ele>177.471344</ele>
        <time>2022-03-20T09:21:13Z</time>
      </trkpt>
      <trkpt lat="50.37099" lon="4.34829">
        <ele>177.855133</ele>
        <time>2022-03-20T09:21:15Z</time>
      </trkpt>
      <trkpt lat="50.37107" lon="4.34831">
        <ele>178.751251</ele>
        <time>2022-03-20T09:21:17Z</time>
      </trkpt>
      <trkpt lat="50.37116" lon="4.34825">
        <ele>179.119797</ele>
        <time>2022-03-20T09:21:19Z</time>
      </trkpt>
      <trkpt lat="50.37125" lon="4.34817">
        <ele>179.463181</ele>
        <time>2022-03-20T09:21:21Z</time>
      </trkpt>
      <trkpt lat="50.37132" lon="4.34811">
        <ele>179.699097</ele>
        <time>2022-03-20T09:21:23Z</time>
      </trkpt>
      <trkpt lat="50.37135" lon="4.34805">
        <ele>179.97464</ele>
        <time>2022-03-20T09:21:25Z</time>
      </trkpt>
      <trkpt lat="50.37138" lon="4.34804">
        <ele>180.264771</ele>
        <time>2022-03-20T09:21:27Z</time>
      </trkpt>
      <trkpt lat="50.37143" lon="4.34804">
        <ele>180.523636</ele>
        <time>2022-03-20T09:21:29Z</time>
      </trkpt>
      <trkpt lat="50.37149" lon="4.34796">
        <ele>180.728195</ele>
        <time>2022-03-20T09:21:31Z</time>
      </trkpt>
      <trkpt lat="50.37156" lon="4.3479">
        <ele>181.453125</ele>
        <time>2022-03-20T09:21:33Z</time>
      </trkpt>
      <trkpt lat="50.37159" lon="4.34788">
        <ele>181.621414</ele>
        <time>2022-03-20T09:21:35Z</time>
      </trkpt>
      <trkpt lat="50.37164" lon="4.34783">
        <ele>182.124466</ele>
        <time>2022-03-20T09:21:43Z</time>
      </trkpt>
      <trkpt lat="50.37169" lon="4.34777">
        <ele>182.734299</ele>
        <time>2022-03-20T09:21:45Z</time>
      </trkpt>
      <trkpt lat="50.37175" lon="4.34775">
        <ele>182.688385</ele>
        <time>2022-03-20T09:21:47Z</time>
      </trkpt>
      <trkpt lat="50.3718" lon="4.34777">
        <ele>182.694626</ele>
        <time>2022-03-20T09:21:49Z</time>
      </trkpt>
      <trkpt lat="50.37185" lon="4.34777">
        <ele>182.665161</ele>
        <time>2022-03-20T09:21:51Z</time>
      </trkpt>
      <trkpt lat="50.37192" lon="4.34779">
        <ele>182.751419</ele>
        <time>2022-03-20T09:21:53Z</time>
      </trkpt>
      <trkpt lat="50.37194" lon="4.34781">
        <ele>182.832184</ele>
        <time>2022-03-20T09:21:55Z</time>
      </trkpt>
      <trkpt lat="50.37198" lon="4.34781">
        <ele>182.825928</ele>
        <time>2022-03-20T09:21:57Z</time>
      </trkpt>
      <trkpt lat="50.37201" lon="4.3478">
        <ele>182.773697</ele>
        <time>2022-03-20T09:21:59Z</time>
      </trkpt>
      <trkpt lat="50.37207" lon="4.34779">
        <ele>182.65094</ele>
        <time>2022-03-20T09:22:01Z</time>
      </trkpt>
      <trkpt lat="50.37212" lon="4.34779">
        <ele>182.590393</ele>
        <time>2022-03-20T09:22:03Z</time>
      </trkpt>
      <trkpt lat="50.37218" lon="4.34783">
        <ele>182.538208</ele>
        <time>2022-03-20T09:22:05Z</time>
      </trkpt>
      <trkpt lat="50.37223" lon="4.34787">
        <ele>182.432251</ele>
        <time>2022-03-20T09:22:07Z</time>
      </trkpt>
      <trkpt lat="50.37228" lon="4.3479">
        <ele>182.309097</ele>
        <time>2022-03-20T09:22:09Z</time>
      </trkpt>
      <trkpt lat="50.37233" lon="4.34796">
        <ele>182.192169</ele>
        <time>2022-03-20T09:22:11Z</time>
      </trkpt>
      <trkpt lat="50.37237" lon="4.34802">
        <ele>181.960464</ele>
        <time>2022-03-20T09:22:13Z</time>
      </trkpt>
      <trkpt lat="50.37241" lon="4.34809">
        <ele>181.335724</ele>
        <time>2022-03-20T09:22:15Z</time>
      </trkpt>
      <trkpt lat="50.37246" lon="4.34812">
        <ele>181.186218</ele>
        <time>2022-03-20T09:22:17Z</time>
      </trkpt>
      <trkpt lat="50.37251" lon="4.34816">
        <ele>181.09169</ele>
        <time>2022-03-20T09:22:19Z</time>
      </trkpt>
      <trkpt lat="50.37257" lon="4.34815">
        <ele>181.0896</ele>
        <time>2022-03-20T09:22:21Z</time>
      </trkpt>
      <trkpt lat="50.3726" lon="4.34821">
        <ele>181.024261</ele>
        <time>2022-03-20T09:22:23Z</time>
      </trkpt>
      <trkpt lat="50.37263" lon="4.34825">
        <ele>180.88858</ele>
        <time>2022-03-20T09:22:25Z</time>
      </trkpt>
      <trkpt lat="50.37268" lon="4.34829">
        <ele>180.725754</ele>
        <time>2022-03-20T09:22:27Z</time>
      </trkpt>
      <trkpt lat="50.37271" lon="4.34832">
        <ele>180.721588</ele>
        <time>2022-03-20T09:22:29Z</time>
      </trkpt>
      <trkpt lat="50.37275" lon="4.34839">
        <ele>180.594269</ele>
        <time>2022-03-20T09:22:31Z</time>
      </trkpt>
      <trkpt lat="50.3728" lon="4.34847">
        <ele>180.443329</ele>
        <time>2022-03-20T09:22:33Z</time>
      </trkpt>
      <trkpt lat="50.37286" lon="4.34852">
        <ele>180.301407</ele>
        <time>2022-03-20T09:22:35Z</time>
      </trkpt>
      <trkpt lat="50.37292" lon="4.34855">
        <ele>179.560394</ele>
        <time>2022-03-20T09:22:37Z</time>
      </trkpt>
      <trkpt lat="50.37296" lon="4.34859">
        <ele>179.270233</ele>
        <time>2022-03-20T09:22:39Z</time>
      </trkpt>
      <trkpt lat="50.37298" lon="4.34861">
        <ele>179.082382</ele>
        <time>2022-03-20T09:22:41Z</time>
      </trkpt>
      <trkpt lat="50.37301" lon="4.34864">
        <ele>179.055252</ele>
        <time>2022-03-20T09:22:43Z</time>
      </trkpt>
      <trkpt lat="50.37303" lon="4.34868">
        <ele>178.963409</ele>
        <time>2022-03-20T09:22:45Z</time>
      </trkpt>
      <trkpt lat="50.37306" lon="4.34874">
        <ele>178.72287</ele>
        <time>2022-03-20T09:22:47Z</time>
      </trkpt>
      <trkpt lat="50.37309" lon="4.34881">
        <ele>178.521484</ele>
        <time>2022-03-20T09:22:49Z</time>
      </trkpt>
      <trkpt lat="50.37315" lon="4.34882">
        <ele>178.354706</ele>
        <time>2022-03-20T09:22:51Z</time>
      </trkpt>
      <trkpt lat="50.37319" lon="4.34882">
        <ele>178.143936</ele>
        <time>2022-03-20T09:22:53Z</time>
      </trkpt>
      <trkpt lat="50.37322" lon="4.34884">
        <ele>178.002045</ele>
        <time>2022-03-20T09:22:55Z</time>
      </trkpt>
      <trkpt lat="50.37325" lon="4.34887">
        <ele>177.918549</ele>
        <time>2022-03-20T09:22:57Z</time>
      </trkpt>
      <trkpt lat="50.37327" lon="4.34888">
        <ele>177.622223</ele>
        <time>2022-03-20T09:22:59Z</time>
      </trkpt>
      <trkpt lat="50.37329" lon="4.3489">
        <ele>177.414124</ele>
        <time>2022-03-20T09:23:01Z</time>
      </trkpt>
      <trkpt lat="50.3733" lon="4.34891">
        <ele>177.032806</ele>
        <time>2022-03-20T09:23:03Z</time>
      </trkpt>
      <trkpt lat="50.37332" lon="4.34894">
        <ele>176.742737</ele>
        <time>2022-03-20T09:23:05Z</time>
      </trkpt>
      <trkpt lat="50.37334" lon="4.34896">
        <ele>176.467529</ele>
        <time>2022-03-20T09:23:07Z</time>
      </trkpt>
      <trkpt lat="50.37336" lon="4.349">
        <ele>176.244247</ele>
        <time>2022-03-20T09:23:09Z</time>
      </trkpt>
      <trkpt lat="50.37338" lon="4.34909">
        <ele>176.020966</ele>
        <time>2022-03-20T09:23:11Z</time>
      </trkpt>
      <trkpt lat="50.37341" lon="4.34917">
        <ele>174.685455</ele>
        <time>2022-03-20T09:23:27Z</time>
      </trkpt>
      <trkpt lat="50.37341" lon="4.34927">
        <ele>174.565765</ele>
        <time>2022-03-20T09:23:29Z</time>
      </trkpt>
      <trkpt lat="50.37344" lon="4.34933">
        <ele>174.407013</ele>
        <time>2022-03-20T09:23:31Z</time>
      </trkpt>
      <trkpt lat="50.37344" lon="4.34941">
        <ele>174.271408</ele>
        <time>2022-03-20T09:23:33Z</time>
      </trkpt>
      <trkpt lat="50.37345" lon="4.34947">
        <ele>174.169189</ele>
        <time>2022-03-20T09:23:35Z</time>
      </trkpt>
      <trkpt lat="50.37345" lon="4.34954">
        <ele>174.050049</ele>
        <time>2022-03-20T09:23:37Z</time>
      </trkpt>
      <trkpt lat="50.37346" lon="4.34961">
        <ele>174.077179</ele>
        <time>2022-03-20T09:23:39Z</time>
      </trkpt>
      <trkpt lat="50.37349" lon="4.34967">
        <ele>173.870636</ele>
        <time>2022-03-20T09:23:41Z</time>
      </trkpt>
      <trkpt lat="50.37356" lon="4.3497">
        <ele>173.774246</ele>
        <time>2022-03-20T09:23:43Z</time>
      </trkpt>
      <trkpt lat="50.37362" lon="4.34973">
        <ele>173.636566</ele>
        <time>2022-03-20T09:23:45Z</time>
      </trkpt>
      <trkpt lat="50.37369" lon="4.34978">
        <ele>173.453033</ele>
        <time>2022-03-20T09:23:47Z</time>
      </trkpt>
      <trkpt lat="50.37376" lon="4.34983">
        <ele>173.308807</ele>
        <time>2022-03-20T09:23:49Z</time>
      </trkpt>
      <trkpt lat="50.37383" lon="4.3499">
        <ele>173.133575</ele>
        <time>2022-03-20T09:23:51Z</time>
      </trkpt>
      <trkpt lat="50.37386" lon="4.34998">
        <ele>172.90213</ele>
        <time>2022-03-20T09:23:53Z</time>
      </trkpt>
      <trkpt lat="50.37387" lon="4.35008">
        <ele>172.649841</ele>
        <time>2022-03-20T09:23:55Z</time>
      </trkpt>
      <trkpt lat="50.37388" lon="4.35017">
        <ele>172.424576</ele>
        <time>2022-03-20T09:23:57Z</time>
      </trkpt>
      <trkpt lat="50.37392" lon="4.35024">
        <ele>172.186798</ele>
        <time>2022-03-20T09:23:59Z</time>
      </trkpt>
      <trkpt lat="50.37396" lon="4.3503">
        <ele>171.942245</ele>
        <time>2022-03-20T09:24:01Z</time>
      </trkpt>
      <trkpt lat="50.37398" lon="4.35035">
        <ele>171.610626</ele>
        <time>2022-03-20T09:24:03Z</time>
      </trkpt>
      <trkpt lat="50.37399" lon="4.35041">
        <ele>171.318634</ele>
        <time>2022-03-20T09:24:05Z</time>
      </trkpt>
      <trkpt lat="50.37402" lon="4.35047">
        <ele>170.9599</ele>
        <time>2022-03-20T09:24:07Z</time>
      </trkpt>
      <trkpt lat="50.37405" lon="4.35053">
        <ele>170.601212</ele>
        <time>2022-03-20T09:24:09Z</time>
      </trkpt>
      <trkpt lat="50.37406" lon="4.35065">
        <ele>170.242157</ele>
        <time>2022-03-20T09:24:11Z</time>
      </trkpt>
      <trkpt lat="50.37408" lon="4.35076">
        <ele>169.943619</ele>
        <time>2022-03-20T09:24:13Z</time>
      </trkpt>
      <trkpt lat="50.37409" lon="4.35081">
        <ele>169.75177</ele>
        <time>2022-03-20T09:24:14Z</time>
      </trkpt>
      <trkpt lat="50.3741" lon="4.35092">
        <ele>169.601059</ele>
        <time>2022-03-20T09:24:16Z</time>
      </trkpt>
      <trkpt lat="50.37411" lon="4.35103">
        <ele>169.200912</ele>
        <time>2022-03-20T09:24:18Z</time>
      </trkpt>
      <trkpt lat="50.37413" lon="4.35108">
        <ele>169.052872</ele>
        <time>2022-03-20T09:24:19Z</time>
      </trkpt>
      <trkpt lat="50.37415" lon="4.35116">
        <ele>168.653412</ele>
        <time>2022-03-20T09:24:21Z</time>
      </trkpt>
      <trkpt lat="50.37418" lon="4.35126">
        <ele>168.280609</ele>
        <time>2022-03-20T09:24:23Z</time>
      </trkpt>
      <trkpt lat="50.37419" lon="4.35137">
        <ele>167.859467</ele>
        <time>2022-03-20T09:24:25Z</time>
      </trkpt>
      <trkpt lat="50.3742" lon="4.35143">
        <ele>167.484161</ele>
        <time>2022-03-20T09:24:27Z</time>
      </trkpt>
      <trkpt lat="50.37421" lon="4.35152">
        <ele>167.334076</ele>
        <time>2022-03-20T09:24:29Z</time>
      </trkpt>
      <trkpt lat="50.37424" lon="4.3516">
        <ele>166.965073</ele>
        <time>2022-03-20T09:24:31Z</time>
      </trkpt>
      <trkpt lat="50.37425" lon="4.35169">
        <ele>166.575134</ele>
        <time>2022-03-20T09:24:33Z</time>
      </trkpt>
      <trkpt lat="50.37426" lon="4.35177">
        <ele>166.239471</ele>
        <time>2022-03-20T09:24:35Z</time>
      </trkpt>
      <trkpt lat="50.37426" lon="4.35184">
        <ele>165.916229</ele>
        <time>2022-03-20T09:24:37Z</time>
      </trkpt>
      <trkpt lat="50.37426" lon="4.3519">
        <ele>165.624374</ele>
        <time>2022-03-20T09:24:39Z</time>
      </trkpt>
      <trkpt lat="50.37427" lon="4.35194">
        <ele>165.299988</ele>
        <time>2022-03-20T09:24:41Z</time>
      </trkpt>
      <trkpt lat="50.37426" lon="4.35199">
        <ele>164.979691</ele>
        <time>2022-03-20T09:24:43Z</time>
      </trkpt>
      <trkpt lat="50.37428" lon="4.35204">
        <ele>164.73996</ele>
        <time>2022-03-20T09:24:45Z</time>
      </trkpt>
      <trkpt lat="50.37429" lon="4.35207">
        <ele>164.458527</ele>
        <time>2022-03-20T09:24:47Z</time>
      </trkpt>
      <trkpt lat="50.3743" lon="4.35213">
        <ele>164.241745</ele>
        <time>2022-03-20T09:24:49Z</time>
      </trkpt>
      <trkpt lat="50.37433" lon="4.35216">
        <ele>164.091644</ele>
        <time>2022-03-20T09:24:51Z</time>
      </trkpt>
      <trkpt lat="50.37436" lon="4.3522">
        <ele>163.935333</ele>
        <time>2022-03-20T09:24:53Z</time>
      </trkpt>
      <trkpt lat="50.37438" lon="4.35226">
        <ele>163.716797</ele>
        <time>2022-03-20T09:24:55Z</time>
      </trkpt>
      <trkpt lat="50.37443" lon="4.35235">
        <ele>163.561035</ele>
        <time>2022-03-20T09:24:57Z</time>
      </trkpt>
      <trkpt lat="50.37443" lon="4.35243">
        <ele>163.427643</ele>
        <time>2022-03-20T09:24:59Z</time>
      </trkpt>
      <trkpt lat="50.37446" lon="4.35253">
        <ele>163.230835</ele>
        <time>2022-03-20T09:25:01Z</time>
      </trkpt>
      <trkpt lat="50.37447" lon="4.35258">
        <ele>163.21553</ele>
        <time>2022-03-20T09:25:02Z</time>
      </trkpt>
      <trkpt lat="50.3745" lon="4.35267">
        <ele>163.110794</ele>
        <time>2022-03-20T09:25:04Z</time>
      </trkpt>
      <trkpt lat="50.37452" lon="4.35273">
        <ele>163.017014</ele>
        <time>2022-03-20T09:25:06Z</time>
      </trkpt>
      <trkpt lat="50.37453" lon="4.35281">
        <ele>162.910736</ele>
        <time>2022-03-20T09:25:08Z</time>
      </trkpt>
      <trkpt lat="50.37455" lon="4.35289">
        <ele>162.248703</ele>
        <time>2022-03-20T09:25:10Z</time>
      </trkpt>
      <trkpt lat="50.37456" lon="4.35299">
        <ele>162.104935</ele>
        <time>2022-03-20T09:25:12Z</time>
      </trkpt>
      <trkpt lat="50.37458" lon="4.35309">
        <ele>162.001373</ele>
        <time>2022-03-20T09:25:14Z</time>
      </trkpt>
      <trkpt lat="50.37462" lon="4.35318">
        <ele>161.815887</ele>
        <time>2022-03-20T09:25:16Z</time>
      </trkpt>
      <trkpt lat="50.37464" lon="4.35329">
        <ele>162.143448</ele>
        <time>2022-03-20T09:25:18Z</time>
      </trkpt>
      <trkpt lat="50.37468" lon="4.35338">
        <ele>161.896713</ele>
        <time>2022-03-20T09:25:20Z</time>
      </trkpt>
      <trkpt lat="50.37468" lon="4.35348">
        <ele>161.62294</ele>
        <time>2022-03-20T09:25:22Z</time>
      </trkpt>
      <trkpt lat="50.37469" lon="4.35358">
        <ele>161.297653</ele>
        <time>2022-03-20T09:25:24Z</time>
      </trkpt>
      <trkpt lat="50.37471" lon="4.35368">
        <ele>160.976807</ele>
        <time>2022-03-20T09:25:26Z</time>
      </trkpt>
      <trkpt lat="50.37473" lon="4.35378">
        <ele>160.52684</ele>
        <time>2022-03-20T09:25:28Z</time>
      </trkpt>
      <trkpt lat="50.37473" lon="4.35386">
        <ele>160.160187</ele>
        <time>2022-03-20T09:25:30Z</time>
      </trkpt>
      <trkpt lat="50.37476" lon="4.35393">
        <ele>159.664398</ele>
        <time>2022-03-20T09:25:32Z</time>
      </trkpt>
      <trkpt lat="50.37481" lon="4.35402">
        <ele>159.164444</ele>
        <time>2022-03-20T09:25:34Z</time>
      </trkpt>
      <trkpt lat="50.37484" lon="4.3541">
        <ele>158.624985</ele>
        <time>2022-03-20T09:25:36Z</time>
      </trkpt>
      <trkpt lat="50.37487" lon="4.35419">
        <ele>158.092987</ele>
        <time>2022-03-20T09:25:38Z</time>
      </trkpt>
      <trkpt lat="50.3749" lon="4.3543">
        <ele>157.50563</ele>
        <time>2022-03-20T09:25:40Z</time>
      </trkpt>
      <trkpt lat="50.37493" lon="4.35439">
        <ele>156.818451</ele>
        <time>2022-03-20T09:25:42Z</time>
      </trkpt>
      <trkpt lat="50.37497" lon="4.35449">
        <ele>156.440155</ele>
        <time>2022-03-20T09:25:44Z</time>
      </trkpt>
      <trkpt lat="50.37499" lon="4.35458">
        <ele>155.732605</ele>
        <time>2022-03-20T09:25:46Z</time>
      </trkpt>
      <trkpt lat="50.37504" lon="4.35466">
        <ele>155.113388</ele>
        <time>2022-03-20T09:25:48Z</time>
      </trkpt>
      <trkpt lat="50.37506" lon="4.35473">
        <ele>154.507263</ele>
        <time>2022-03-20T09:25:50Z</time>
      </trkpt>
      <trkpt lat="50.3751" lon="4.35482">
        <ele>154.327499</ele>
        <time>2022-03-20T09:25:52Z</time>
      </trkpt>
      <trkpt lat="50.37514" lon="4.35495">
        <ele>153.692474</ele>
        <time>2022-03-20T09:25:54Z</time>
      </trkpt>
      <trkpt lat="50.37517" lon="4.35505">
        <ele>152.823761</ele>
        <time>2022-03-20T09:25:56Z</time>
      </trkpt>
      <trkpt lat="50.37522" lon="4.35513">
        <ele>151.587921</ele>
        <time>2022-03-20T09:25:58Z</time>
      </trkpt>
      <trkpt lat="50.37526" lon="4.35521">
        <ele>150.803192</ele>
        <time>2022-03-20T09:26:00Z</time>
      </trkpt>
      <trkpt lat="50.37529" lon="4.35527">
        <ele>149.942322</ele>
        <time>2022-03-20T09:26:02Z</time>
      </trkpt>
      <trkpt lat="50.37534" lon="4.35532">
        <ele>149.222992</ele>
        <time>2022-03-20T09:26:04Z</time>
      </trkpt>
      <trkpt lat="50.37536" lon="4.3554">
        <ele>148.500549</ele>
        <time>2022-03-20T09:26:06Z</time>
      </trkpt>
      <trkpt lat="50.3754" lon="4.35544">
        <ele>147.809662</ele>
        <time>2022-03-20T09:26:08Z</time>
      </trkpt>
      <trkpt lat="50.37542" lon="4.35549">
        <ele>146.973114</ele>
        <time>2022-03-20T09:26:10Z</time>
      </trkpt>
      <trkpt lat="50.37542" lon="4.35554">
        <ele>146.556931</ele>
        <time>2022-03-20T09:26:12Z</time>
      </trkpt>
      <trkpt lat="50.37543" lon="4.35559">
        <ele>145.928253</ele>
        <time>2022-03-20T09:26:14Z</time>
      </trkpt>
      <trkpt lat="50.37545" lon="4.35565">
        <ele>145.216904</ele>
        <time>2022-03-20T09:26:16Z</time>
      </trkpt>
      <trkpt lat="50.37547" lon="4.35572">
        <ele>144.564316</ele>
        <time>2022-03-20T09:26:18Z</time>
      </trkpt>
      <trkpt lat="50.3755" lon="4.35581">
        <ele>143.743454</ele>
        <time>2022-03-20T09:26:20Z</time>
      </trkpt>
      <trkpt lat="50.37552" lon="4.35588">
        <ele>142.96344</ele>
        <time>2022-03-20T09:26:22Z</time>
      </trkpt>
      <trkpt lat="50.37556" lon="4.35592">
        <ele>142.370117</ele>
        <time>2022-03-20T09:26:24Z</time>
      </trkpt>
      <trkpt lat="50.37559" lon="4.35595">
        <ele>141.711655</ele>
        <time>2022-03-20T09:26:26Z</time>
      </trkpt>
      <trkpt lat="50.37563" lon="4.35598">
        <ele>140.913788</ele>
        <time>2022-03-20T09:26:28Z</time>
      </trkpt>
      <trkpt lat="50.37566" lon="4.35602">
        <ele>139.223907</ele>
        <time>2022-03-20T09:26:32Z</time>
      </trkpt>
      <trkpt lat="50.37567" lon="4.35606">
        <ele>138.517487</ele>
        <time>2022-03-20T09:26:34Z</time>
      </trkpt>
      <trkpt lat="50.37569" lon="4.35612">
        <ele>137.756577</ele>
        <time>2022-03-20T09:26:36Z</time>
      </trkpt>
      <trkpt lat="50.3757" lon="4.35619">
        <ele>137.053986</ele>
        <time>2022-03-20T09:26:38Z</time>
      </trkpt>
      <trkpt lat="50.37573" lon="4.35636">
        <ele>136.30188</ele>
        <time>2022-03-20T09:26:40Z</time>
      </trkpt>
      <trkpt lat="50.37574" lon="4.35646">
        <ele>135.634659</ele>
        <time>2022-03-20T09:26:42Z</time>
      </trkpt>
      <trkpt lat="50.37575" lon="4.35654">
        <ele>134.825302</ele>
        <time>2022-03-20T09:26:44Z</time>
      </trkpt>
      <trkpt lat="50.37576" lon="4.35662">
        <ele>134.457474</ele>
        <time>2022-03-20T09:26:46Z</time>
      </trkpt>
      <trkpt lat="50.37575" lon="4.35666">
        <ele>133.665848</ele>
        <time>2022-03-20T09:26:48Z</time>
      </trkpt>
      <trkpt lat="50.37574" lon="4.35668">
        <ele>132.909424</ele>
        <time>2022-03-20T09:26:50Z</time>
      </trkpt>
      <trkpt lat="50.37573" lon="4.3567">
        <ele>132.261078</ele>
        <time>2022-03-20T09:26:52Z</time>
      </trkpt>
      <trkpt lat="50.37573" lon="4.35671">
        <ele>131.924469</ele>
        <time>2022-03-20T09:26:53Z</time>
      </trkpt>
      <trkpt lat="50.37585" lon="4.35684">
        <ele>123.072372</ele>
        <time>2022-03-20T09:27:28Z</time>
      </trkpt>
      <trkpt lat="50.37589" lon="4.35684">
        <ele>122.790321</ele>
        <time>2022-03-20T09:27:30Z</time>
      </trkpt>
      <trkpt lat="50.37602" lon="4.35686">
        <ele>122.489296</ele>
        <time>2022-03-20T09:27:32Z</time>
      </trkpt>
      <trkpt lat="50.37603" lon="4.35686">
        <ele>121.962013</ele>
        <time>2022-03-20T09:27:35Z</time>
      </trkpt>
      <trkpt lat="50.37607" lon="4.35684">
        <ele>120.933044</ele>
        <time>2022-03-20T09:27:43Z</time>
      </trkpt>
      <trkpt lat="50.3761" lon="4.35683">
        <ele>119.233253</ele>
        <time>2022-03-20T09:27:51Z</time>
      </trkpt>
      <trkpt lat="50.37613" lon="4.35682">
        <ele>114.79348</ele>
        <time>2022-03-20T09:28:16Z</time>
      </trkpt>
      <trkpt lat="50.37617" lon="4.35681">
        <ele>114.291489</ele>
        <time>2022-03-20T09:28:18Z</time>
      </trkpt>
      <trkpt lat="50.37624" lon="4.35679">
        <ele>113.845016</ele>
        <time>2022-03-20T09:28:20Z</time>
      </trkpt>
      <trkpt lat="50.37638" lon="4.35669">
        <ele>113.209717</ele>
        <time>2022-03-20T09:28:22Z</time>
      </trkpt>
      <trkpt lat="50.37638" lon="4.35666">
        <ele>112.402916</ele>
        <time>2022-03-20T09:28:25Z</time>
      </trkpt>
      <trkpt lat="50.37638" lon="4.35665">
        <ele>111.911377</ele>
        <time>2022-03-20T09:28:27Z</time>
      </trkpt>
      <trkpt lat="50.37637" lon="4.35662">
        <ele>111.44519</ele>
        <time>2022-03-20T09:28:31Z</time>
      </trkpt>
      <trkpt lat="50.37637" lon="4.3566">
        <ele>110.993484</ele>
        <time>2022-03-20T09:28:33Z</time>
      </trkpt>
      <trkpt lat="50.37635" lon="4.35656">
        <ele>110.546555</ele>
        <time>2022-03-20T09:28:35Z</time>
      </trkpt>
      <trkpt lat="50.37634" lon="4.35651">
        <ele>110.30188</ele>
        <time>2022-03-20T09:28:37Z</time>
      </trkpt>
      <trkpt lat="50.37637" lon="4.35642">
        <ele>109.82914</ele>
        <time>2022-03-20T09:28:39Z</time>
      </trkpt>
      <trkpt lat="50.37641" lon="4.35632">
        <ele>109.242409</ele>
        <time>2022-03-20T09:28:41Z</time>
      </trkpt>
      <trkpt lat="50.3764" lon="4.35621">
        <ele>108.790443</ele>
        <time>2022-03-20T09:28:43Z</time>
      </trkpt>
      <trkpt lat="50.37638" lon="4.35614">
        <ele>108.364296</ele>
        <time>2022-03-20T09:28:45Z</time>
      </trkpt>
      <trkpt lat="50.37635" lon="4.35611">
        <ele>107.897842</ele>
        <time>2022-03-20T09:28:47Z</time>
      </trkpt>
      <trkpt lat="50.37634" lon="4.35605">
        <ele>107.454185</ele>
        <time>2022-03-20T09:28:49Z</time>
      </trkpt>
      <trkpt lat="50.37632" lon="4.35598">
        <ele>107.01265</ele>
        <time>2022-03-20T09:28:51Z</time>
      </trkpt>
      <trkpt lat="50.3763" lon="4.35591">
        <ele>106.606346</ele>
        <time>2022-03-20T09:28:53Z</time>
      </trkpt>
      <trkpt lat="50.37627" lon="4.35583">
        <ele>106.195923</ele>
        <time>2022-03-20T09:28:55Z</time>
      </trkpt>
      <trkpt lat="50.37627" lon="4.35573">
        <ele>105.88562</ele>
        <time>2022-03-20T09:28:57Z</time>
      </trkpt>
      <trkpt lat="50.37626" lon="4.35565">
        <ele>105.580933</ele>
        <time>2022-03-20T09:28:59Z</time>
      </trkpt>
      <trkpt lat="50.37623" lon="4.35559">
        <ele>105.343079</ele>
        <time>2022-03-20T09:29:01Z</time>
      </trkpt>
      <trkpt lat="50.37619" lon="4.35553">
        <ele>105.075729</ele>
        <time>2022-03-20T09:29:03Z</time>
      </trkpt>
      <trkpt lat="50.37613" lon="4.35548">
        <ele>104.80217</ele>
        <time>2022-03-20T09:29:05Z</time>
      </trkpt>
      <trkpt lat="50.37611" lon="4.35546">
        <ele>104.630173</ele>
        <time>2022-03-20T09:29:06Z</time>
      </trkpt>
      <trkpt lat="50.37608" lon="4.3554">
        <ele>104.530685</ele>
        <time>2022-03-20T09:29:08Z</time>
      </trkpt>
      <trkpt lat="50.37607" lon="4.35535">
        <ele>104.292343</ele>
        <time>2022-03-20T09:29:10Z</time>
      </trkpt>
      <trkpt lat="50.37606" lon="4.35531">
        <ele>104.001511</ele>
        <time>2022-03-20T09:29:12Z</time>
      </trkpt>
      <trkpt lat="50.37605" lon="4.35524">
        <ele>103.821411</ele>
        <time>2022-03-20T09:29:14Z</time>
      </trkpt>
      <trkpt lat="50.37604" lon="4.35513">
        <ele>103.687454</ele>
        <time>2022-03-20T09:29:16Z</time>
      </trkpt>
      <trkpt lat="50.37603" lon="4.35504">
        <ele>103.487564</ele>
        <time>2022-03-20T09:29:18Z</time>
      </trkpt>
      <trkpt lat="50.376" lon="4.35495">
        <ele>103.301064</ele>
        <time>2022-03-20T09:29:20Z</time>
      </trkpt>
      <trkpt lat="50.37597" lon="4.35482">
        <ele>103.412865</ele>
        <time>2022-03-20T09:29:22Z</time>
      </trkpt>
      <trkpt lat="50.37594" lon="4.35473">
        <ele>103.261635</ele>
        <time>2022-03-20T09:29:24Z</time>
      </trkpt>
      <trkpt lat="50.37589" lon="4.35462">
        <ele>103.130127</ele>
        <time>2022-03-20T09:29:26Z</time>
      </trkpt>
      <trkpt lat="50.37586" lon="4.35452">
        <ele>103.059326</ele>
        <time>2022-03-20T09:29:28Z</time>
      </trkpt>
      <trkpt lat="50.37584" lon="4.35444">
        <ele>103.044823</ele>
        <time>2022-03-20T09:29:30Z</time>
      </trkpt>
      <trkpt lat="50.37582" lon="4.35438">
        <ele>103.028244</ele>
        <time>2022-03-20T09:29:32Z</time>
      </trkpt>
      <trkpt lat="50.37581" lon="4.3543">
        <ele>102.964012</ele>
        <time>2022-03-20T09:29:34Z</time>
      </trkpt>
      <trkpt lat="50.37578" lon="4.35426">
        <ele>102.988876</ele>
        <time>2022-03-20T09:29:36Z</time>
      </trkpt>
      <trkpt lat="50.37576" lon="4.35419">
        <ele>102.969582</ele>
        <time>2022-03-20T09:29:38Z</time>
      </trkpt>
      <trkpt lat="50.37574" lon="4.35411">
        <ele>102.967506</ele>
        <time>2022-03-20T09:29:40Z</time>
      </trkpt>
      <trkpt lat="50.37572" lon="4.35402">
        <ele>102.930214</ele>
        <time>2022-03-20T09:29:42Z</time>
      </trkpt>
      <trkpt lat="50.3757" lon="4.35394">
        <ele>103.042809</ele>
        <time>2022-03-20T09:29:44Z</time>
      </trkpt>
      <trkpt lat="50.37568" lon="4.35384">
        <ele>103.086327</ele>
        <time>2022-03-20T09:29:46Z</time>
      </trkpt>
      <trkpt lat="50.37568" lon="4.35372">
        <ele>103.247948</ele>
        <time>2022-03-20T09:29:48Z</time>
      </trkpt>
      <trkpt lat="50.37566" lon="4.35357">
        <ele>103.194077</ele>
        <time>2022-03-20T09:29:50Z</time>
      </trkpt>
      <trkpt lat="50.37564" lon="4.35347">
        <ele>103.299744</ele>
        <time>2022-03-20T09:29:52Z</time>
      </trkpt>
      <trkpt lat="50.37562" lon="4.35341">
        <ele>103.35984</ele>
        <time>2022-03-20T09:29:53Z</time>
      </trkpt>
      <trkpt lat="50.37561" lon="4.35329">
        <ele>103.377762</ele>
        <time>2022-03-20T09:29:55Z</time>
      </trkpt>
      <trkpt lat="50.3756" lon="4.35314">
        <ele>103.390198</ele>
        <time>2022-03-20T09:29:57Z</time>
      </trkpt>
      <trkpt lat="50.37557" lon="4.35301">
        <ele>103.46608</ele>
        <time>2022-03-20T09:29:59Z</time>
      </trkpt>
      <trkpt lat="50.37558" lon="4.35287">
        <ele>103.582718</ele>
        <time>2022-03-20T09:30:01Z</time>
      </trkpt>
      <trkpt lat="50.37557" lon="4.35275">
        <ele>103.509804</ele>
        <time>2022-03-20T09:30:03Z</time>
      </trkpt>
      <trkpt lat="50.37554" lon="4.35262">
        <ele>103.667374</ele>
        <time>2022-03-20T09:30:05Z</time>
      </trkpt>
      <trkpt lat="50.37552" lon="4.35251">
        <ele>103.735573</ele>
        <time>2022-03-20T09:30:07Z</time>
      </trkpt>
      <trkpt lat="50.37552" lon="4.35237">
        <ele>103.781509</ele>
        <time>2022-03-20T09:30:09Z</time>
      </trkpt>
      <trkpt lat="50.37552" lon="4.35226">
        <ele>103.89547</ele>
        <time>2022-03-20T09:30:11Z</time>
      </trkpt>
      <trkpt lat="50.3755" lon="4.35216">
        <ele>103.93071</ele>
        <time>2022-03-20T09:30:13Z</time>
      </trkpt>
      <trkpt lat="50.3755" lon="4.35205">
        <ele>104.108925</ele>
        <time>2022-03-20T09:30:15Z</time>
      </trkpt>
      <trkpt lat="50.37552" lon="4.352">
        <ele>104.193886</ele>
        <time>2022-03-20T09:30:16Z</time>
      </trkpt>
      <trkpt lat="50.37552" lon="4.35189">
        <ele>104.27771</ele>
        <time>2022-03-20T09:30:18Z</time>
      </trkpt>
      <trkpt lat="50.37553" lon="4.35175">
        <ele>104.344032</ele>
        <time>2022-03-20T09:30:20Z</time>
      </trkpt>
      <trkpt lat="50.37555" lon="4.35163">
        <ele>104.271507</ele>
        <time>2022-03-20T09:30:22Z</time>
      </trkpt>
      <trkpt lat="50.37557" lon="4.35152">
        <ele>104.375122</ele>
        <time>2022-03-20T09:30:24Z</time>
      </trkpt>
      <trkpt lat="50.37559" lon="4.35142">
        <ele>104.466324</ele>
        <time>2022-03-20T09:30:26Z</time>
      </trkpt>
      <trkpt lat="50.37559" lon="4.35133">
        <ele>104.636475</ele>
        <time>2022-03-20T09:30:28Z</time>
      </trkpt>
      <trkpt lat="50.3756" lon="4.35125">
        <ele>104.703659</ele>
        <time>2022-03-20T09:30:30Z</time>
      </trkpt>
      <trkpt lat="50.3756" lon="4.35115">
        <ele>104.931618</ele>
        <time>2022-03-20T09:30:32Z</time>
      </trkpt>
      <trkpt lat="50.3756" lon="4.35102">
        <ele>105.070412</ele>
        <time>2022-03-20T09:30:34Z</time>
      </trkpt>
      <trkpt lat="50.37558" lon="4.3509">
        <ele>105.181259</ele>
        <time>2022-03-20T09:30:36Z</time>
      </trkpt>
      <trkpt lat="50.37554" lon="4.35079">
        <ele>105.336014</ele>
        <time>2022-03-20T09:30:38Z</time>
      </trkpt>
      <trkpt lat="50.3755" lon="4.35073">
        <ele>105.46785</ele>
        <time>2022-03-20T09:30:40Z</time>
      </trkpt>
      <trkpt lat="50.37547" lon="4.35068">
        <ele>105.668274</ele>
        <time>2022-03-20T09:30:42Z</time>
      </trkpt>
      <trkpt lat="50.37544" lon="4.35063">
        <ele>105.790909</ele>
        <time>2022-03-20T09:30:44Z</time>
      </trkpt>
      <trkpt lat="50.37542" lon="4.35059">
        <ele>105.962929</ele>
        <time>2022-03-20T09:30:46Z</time>
      </trkpt>
      <trkpt lat="50.37539" lon="4.35054">
        <ele>106.170372</ele>
        <time>2022-03-20T09:30:48Z</time>
      </trkpt>
      <trkpt lat="50.37536" lon="4.3505">
        <ele>106.358299</ele>
        <time>2022-03-20T09:30:50Z</time>
      </trkpt>
      <trkpt lat="50.37534" lon="4.35046">
        <ele>106.571571</ele>
        <time>2022-03-20T09:30:52Z</time>
      </trkpt>
      <trkpt lat="50.37531" lon="4.35041">
        <ele>106.826538</ele>
        <time>2022-03-20T09:30:54Z</time>
      </trkpt>
      <trkpt lat="50.37529" lon="4.35037">
        <ele>106.921898</ele>
        <time>2022-03-20T09:30:56Z</time>
      </trkpt>
      <trkpt lat="50.37528" lon="4.35033">
        <ele>107.141624</ele>
        <time>2022-03-20T09:30:58Z</time>
      </trkpt>
      <trkpt lat="50.37526" lon="4.35028">
        <ele>107.350052</ele>
        <time>2022-03-20T09:31:00Z</time>
      </trkpt>
      <trkpt lat="50.37524" lon="4.35021">
        <ele>107.587173</ele>
        <time>2022-03-20T09:31:02Z</time>
      </trkpt>
      <trkpt lat="50.37522" lon="4.35015">
        <ele>107.949387</ele>
        <time>2022-03-20T09:31:04Z</time>
      </trkpt>
      <trkpt lat="50.3752" lon="4.35011">
        <ele>108.215988</ele>
        <time>2022-03-20T09:31:06Z</time>
      </trkpt>
      <trkpt lat="50.37518" lon="4.35006">
        <ele>108.423317</ele>
        <time>2022-03-20T09:31:08Z</time>
      </trkpt>
      <trkpt lat="50.37516" lon="4.35002">
        <ele>108.704613</ele>
        <time>2022-03-20T09:31:10Z</time>
      </trkpt>
      <trkpt lat="50.37513" lon="4.34995">
        <ele>109.000244</ele>
        <time>2022-03-20T09:31:12Z</time>
      </trkpt>
      <trkpt lat="50.37499" lon="4.3497">
        <ele>109.218002</ele>
        <time>2022-03-20T09:31:14Z</time>
      </trkpt>
      <trkpt lat="50.37497" lon="4.34965">
        <ele>109.493935</ele>
        <time>2022-03-20T09:31:16Z</time>
      </trkpt>
      <trkpt lat="50.37494" lon="4.3496">
        <ele>109.853333</ele>
        <time>2022-03-20T09:31:18Z</time>
      </trkpt>
      <trkpt lat="50.37492" lon="4.34957">
        <ele>110.187988</ele>
        <time>2022-03-20T09:31:20Z</time>
      </trkpt>
      <trkpt lat="50.3749" lon="4.34955">
        <ele>110.476212</ele>
        <time>2022-03-20T09:31:22Z</time>
      </trkpt>
      <trkpt lat="50.37488" lon="4.34953">
        <ele>110.82869</ele>
        <time>2022-03-20T09:31:24Z</time>
      </trkpt>
      <trkpt lat="50.37486" lon="4.34951">
        <ele>111.187424</ele>
        <time>2022-03-20T09:31:26Z</time>
      </trkpt>
      <trkpt lat="50.37478" lon="4.34944">
        <ele>115.989136</ele>
        <time>2022-03-20T09:32:02Z</time>
      </trkpt>
      <trkpt lat="50.37464" lon="4.34921">
        <ele>116.15094</ele>
        <time>2022-03-20T09:32:04Z</time>
      </trkpt>
      <trkpt lat="50.37464" lon="4.34913">
        <ele>116.289932</ele>
        <time>2022-03-20T09:32:06Z</time>
      </trkpt>
      <trkpt lat="50.37465" lon="4.34907">
        <ele>116.356308</ele>
        <time>2022-03-20T09:32:08Z</time>
      </trkpt>
      <trkpt lat="50.37467" lon="4.34901">
        <ele>116.467712</ele>
        <time>2022-03-20T09:32:10Z</time>
      </trkpt>
      <trkpt lat="50.37466" lon="4.34897">
        <ele>116.578796</ele>
        <time>2022-03-20T09:32:12Z</time>
      </trkpt>
      <trkpt lat="50.37466" lon="4.34889">
        <ele>116.475082</ele>
        <time>2022-03-20T09:32:14Z</time>
      </trkpt>
      <trkpt lat="50.37466" lon="4.34884">
        <ele>116.369301</ele>
        <time>2022-03-20T09:32:16Z</time>
      </trkpt>
      <trkpt lat="50.37465" lon="4.3488">
        <ele>116.265579</ele>
        <time>2022-03-20T09:32:18Z</time>
      </trkpt>
      <trkpt lat="50.37464" lon="4.34877">
        <ele>116.130737</ele>
        <time>2022-03-20T09:32:20Z</time>
      </trkpt>
      <trkpt lat="50.37463" lon="4.34873">
        <ele>115.93988</ele>
        <time>2022-03-20T09:32:22Z</time>
      </trkpt>
      <trkpt lat="50.37463" lon="4.3487">
        <ele>115.76149</ele>
        <time>2022-03-20T09:32:24Z</time>
      </trkpt>
      <trkpt lat="50.37462" lon="4.34866">
        <ele>115.653625</ele>
        <time>2022-03-20T09:32:26Z</time>
      </trkpt>
      <trkpt lat="50.37463" lon="4.34862">
        <ele>115.400558</ele>
        <time>2022-03-20T09:32:28Z</time>
      </trkpt>
      <trkpt lat="50.37463" lon="4.34857">
        <ele>115.157875</ele>
        <time>2022-03-20T09:32:30Z</time>
      </trkpt>
      <trkpt lat="50.37462" lon="4.34853">
        <ele>114.931763</ele>
        <time>2022-03-20T09:32:32Z</time>
      </trkpt>
      <trkpt lat="50.37461" lon="4.3485">
        <ele>114.733238</ele>
        <time>2022-03-20T09:32:34Z</time>
      </trkpt>
      <trkpt lat="50.37461" lon="4.34847">
        <ele>114.48645</ele>
        <time>2022-03-20T09:32:36Z</time>
      </trkpt>
      <trkpt lat="50.3746" lon="4.34844">
        <ele>114.193954</ele>
        <time>2022-03-20T09:32:38Z</time>
      </trkpt>
      <trkpt lat="50.37459" lon="4.34841">
        <ele>113.902504</ele>
        <time>2022-03-20T09:32:40Z</time>
      </trkpt>
      <trkpt lat="50.37458" lon="4.34838">
        <ele>113.641159</ele>
        <time>2022-03-20T09:32:42Z</time>
      </trkpt>
      <trkpt lat="50.37457" lon="4.34832">
        <ele>113.376114</ele>
        <time>2022-03-20T09:32:44Z</time>
      </trkpt>
      <trkpt lat="50.37455" lon="4.34825">
        <ele>112.971664</ele>
        <time>2022-03-20T09:32:46Z</time>
      </trkpt>
      <trkpt lat="50.37455" lon="4.34818">
        <ele>112.770775</ele>
        <time>2022-03-20T09:32:48Z</time>
      </trkpt>
      <trkpt lat="50.37455" lon="4.34812">
        <ele>112.432129</ele>
        <time>2022-03-20T09:32:50Z</time>
      </trkpt>
      <trkpt lat="50.37455" lon="4.34808">
        <ele>112.134384</ele>
        <time>2022-03-20T09:32:52Z</time>
      </trkpt>
      <trkpt lat="50.37453" lon="4.34807">
        <ele>111.902283</ele>
        <time>2022-03-20T09:32:54Z</time>
      </trkpt>
      <trkpt lat="50.37451" lon="4.34806">
        <ele>111.829712</ele>
        <time>2022-03-20T09:32:56Z</time>
      </trkpt>
      <trkpt lat="50.3745" lon="4.34804">
        <ele>111.716141</ele>
        <time>2022-03-20T09:32:58Z</time>
      </trkpt>
      <trkpt lat="50.3745" lon="4.34801">
        <ele>111.581139</ele>
        <time>2022-03-20T09:33:00Z</time>
      </trkpt>
      <trkpt lat="50.3745" lon="4.34798">
        <ele>111.399277</ele>
        <time>2022-03-20T09:33:02Z</time>
      </trkpt>
      <trkpt lat="50.37451" lon="4.34794">
        <ele>111.282959</ele>
        <time>2022-03-20T09:33:04Z</time>
      </trkpt>
      <trkpt lat="50.37452" lon="4.34789">
        <ele>111.187561</ele>
        <time>2022-03-20T09:33:06Z</time>
      </trkpt>
      <trkpt lat="50.37454" lon="4.34785">
        <ele>111.152306</ele>
        <time>2022-03-20T09:33:08Z</time>
      </trkpt>
      <trkpt lat="50.37455" lon="4.34782">
        <ele>111.115334</ele>
        <time>2022-03-20T09:33:10Z</time>
      </trkpt>
      <trkpt lat="50.37454" lon="4.34778">
        <ele>111.053123</ele>
        <time>2022-03-20T09:33:12Z</time>
      </trkpt>
      <trkpt lat="50.37453" lon="4.34771">
        <ele>110.959801</ele>
        <time>2022-03-20T09:33:14Z</time>
      </trkpt>
      <trkpt lat="50.37452" lon="4.34766">
        <ele>110.917847</ele>
        <time>2022-03-20T09:33:16Z</time>
      </trkpt>
      <trkpt lat="50.37451" lon="4.34762">
        <ele>110.919922</ele>
        <time>2022-03-20T09:33:18Z</time>
      </trkpt>
      <trkpt lat="50.37449" lon="4.34756">
        <ele>110.907265</ele>
        <time>2022-03-20T09:33:20Z</time>
      </trkpt>
      <trkpt lat="50.37451" lon="4.34747">
        <ele>110.934227</ele>
        <time>2022-03-20T09:33:22Z</time>
      </trkpt>
      <trkpt lat="50.3745" lon="4.34736">
        <ele>110.84507</ele>
        <time>2022-03-20T09:33:24Z</time>
      </trkpt>
      <trkpt lat="50.37447" lon="4.34725">
        <ele>110.860008</ele>
        <time>2022-03-20T09:33:26Z</time>
      </trkpt>
      <trkpt lat="50.37446" lon="4.34716">
        <ele>110.84314</ele>
        <time>2022-03-20T09:33:28Z</time>
      </trkpt>
      <trkpt lat="50.37445" lon="4.34706">
        <ele>110.818253</ele>
        <time>2022-03-20T09:33:30Z</time>
      </trkpt>
      <trkpt lat="50.37443" lon="4.34697">
        <ele>110.838989</ele>
        <time>2022-03-20T09:33:32Z</time>
      </trkpt>
      <trkpt lat="50.37441" lon="4.34689">
        <ele>110.830688</ele>
        <time>2022-03-20T09:33:34Z</time>
      </trkpt>
      <trkpt lat="50.37439" lon="4.3468">
        <ele>110.799622</ele>
        <time>2022-03-20T09:33:36Z</time>
      </trkpt>
      <trkpt lat="50.37437" lon="4.34671">
        <ele>110.865494</ele>
        <time>2022-03-20T09:33:38Z</time>
      </trkpt>
      <trkpt lat="50.37435" lon="4.34661">
        <ele>110.730919</ele>
        <time>2022-03-20T09:33:40Z</time>
      </trkpt>
      <trkpt lat="50.37433" lon="4.34652">
        <ele>110.632797</ele>
        <time>2022-03-20T09:33:42Z</time>
      </trkpt>
      <trkpt lat="50.37431" lon="4.34638">
        <ele>110.666153</ele>
        <time>2022-03-20T09:33:44Z</time>
      </trkpt>
      <trkpt lat="50.37429" lon="4.34626">
        <ele>110.562477</ele>
        <time>2022-03-20T09:33:46Z</time>
      </trkpt>
      <trkpt lat="50.37428" lon="4.34614">
        <ele>110.460876</ele>
        <time>2022-03-20T09:33:48Z</time>
      </trkpt>
      <trkpt lat="50.37425" lon="4.34604">
        <ele>110.468201</ele>
        <time>2022-03-20T09:33:50Z</time>
      </trkpt>
      <trkpt lat="50.37425" lon="4.34592">
        <ele>110.503098</ele>
        <time>2022-03-20T09:33:52Z</time>
      </trkpt>
      <trkpt lat="50.37426" lon="4.34583">
        <ele>110.457497</ele>
        <time>2022-03-20T09:33:54Z</time>
      </trkpt>
      <trkpt lat="50.37427" lon="4.34578">
        <ele>110.41394</ele>
        <time>2022-03-20T09:33:56Z</time>
      </trkpt>
      <trkpt lat="50.37431" lon="4.34572">
        <ele>110.331009</ele>
        <time>2022-03-20T09:33:58Z</time>
      </trkpt>
      <trkpt lat="50.37434" lon="4.34568">
        <ele>110.214493</ele>
        <time>2022-03-20T09:34:00Z</time>
      </trkpt>
      <trkpt lat="50.37439" lon="4.34564">
        <ele>110.009438</ele>
        <time>2022-03-20T09:34:02Z</time>
      </trkpt>
      <trkpt lat="50.37442" lon="4.34561">
        <ele>109.974564</ele>
        <time>2022-03-20T09:34:04Z</time>
      </trkpt>
      <trkpt lat="50.37445" lon="4.34556">
        <ele>109.855484</ele>
        <time>2022-03-20T09:34:06Z</time>
      </trkpt>
      <trkpt lat="50.37449" lon="4.34552">
        <ele>109.785683</ele>
        <time>2022-03-20T09:34:08Z</time>
      </trkpt>
      <trkpt lat="50.37452" lon="4.34548">
        <ele>109.68203</ele>
        <time>2022-03-20T09:34:10Z</time>
      </trkpt>
      <trkpt lat="50.37456" lon="4.34542">
        <ele>109.499588</ele>
        <time>2022-03-20T09:34:12Z</time>
      </trkpt>
      <trkpt lat="50.37459" lon="4.34534">
        <ele>109.337868</ele>
        <time>2022-03-20T09:34:14Z</time>
      </trkpt>
      <trkpt lat="50.37462" lon="4.34527">
        <ele>109.217636</ele>
        <time>2022-03-20T09:34:16Z</time>
      </trkpt>
      <trkpt lat="50.37467" lon="4.34521">
        <ele>108.943748</ele>
        <time>2022-03-20T09:34:18Z</time>
      </trkpt>
      <trkpt lat="50.37471" lon="4.34515">
        <ele>108.676659</ele>
        <time>2022-03-20T09:34:20Z</time>
      </trkpt>
      <trkpt lat="50.37474" lon="4.34506">
        <ele>108.616196</ele>
        <time>2022-03-20T09:34:22Z</time>
      </trkpt>
      <trkpt lat="50.37472" lon="4.34499">
        <ele>108.369919</ele>
        <time>2022-03-20T09:34:24Z</time>
      </trkpt>
      <trkpt lat="50.37474" lon="4.34489">
        <ele>108.063156</ele>
        <time>2022-03-20T09:34:26Z</time>
      </trkpt>
      <trkpt lat="50.37474" lon="4.34482">
        <ele>107.84761</ele>
        <time>2022-03-20T09:34:28Z</time>
      </trkpt>
      <trkpt lat="50.37474" lon="4.3447">
        <ele>107.51799</ele>
        <time>2022-03-20T09:34:30Z</time>
      </trkpt>
      <trkpt lat="50.37473" lon="4.34459">
        <ele>107.23909</ele>
        <time>2022-03-20T09:34:32Z</time>
      </trkpt>
      <trkpt lat="50.37471" lon="4.34447">
        <ele>106.899155</ele>
        <time>2022-03-20T09:34:34Z</time>
      </trkpt>
      <trkpt lat="50.37473" lon="4.34437">
        <ele>106.644203</ele>
        <time>2022-03-20T09:34:36Z</time>
      </trkpt>
      <trkpt lat="50.37474" lon="4.34423">
        <ele>106.271103</ele>
        <time>2022-03-20T09:34:38Z</time>
      </trkpt>
      <trkpt lat="50.37474" lon="4.34412">
        <ele>105.945702</ele>
        <time>2022-03-20T09:34:40Z</time>
      </trkpt>
      <trkpt lat="50.37473" lon="4.34405">
        <ele>105.670448</ele>
        <time>2022-03-20T09:34:42Z</time>
      </trkpt>
      <trkpt lat="50.37476" lon="4.34396">
        <ele>105.326027</ele>
        <time>2022-03-20T09:34:44Z</time>
      </trkpt>
      <trkpt lat="50.37475" lon="4.34388">
        <ele>105.176796</ele>
        <time>2022-03-20T09:34:46Z</time>
      </trkpt>
      <trkpt lat="50.37472" lon="4.34381">
        <ele>104.88871</ele>
        <time>2022-03-20T09:34:48Z</time>
      </trkpt>
      <trkpt lat="50.37467" lon="4.34371">
        <ele>104.604507</ele>
        <time>2022-03-20T09:34:50Z</time>
      </trkpt>
      <trkpt lat="50.37461" lon="4.3436">
        <ele>104.381836</ele>
        <time>2022-03-20T09:34:52Z</time>
      </trkpt>
      <trkpt lat="50.37458" lon="4.34346">
        <ele>104.178734</ele>
        <time>2022-03-20T09:34:54Z</time>
      </trkpt>
      <trkpt lat="50.37457" lon="4.34342">
        <ele>104.060608</ele>
        <time>2022-03-20T09:34:55Z</time>
      </trkpt>
      <trkpt lat="50.37455" lon="4.34333">
        <ele>103.904709</ele>
        <time>2022-03-20T09:34:57Z</time>
      </trkpt>
      <trkpt lat="50.37452" lon="4.34328">
        <ele>103.728561</ele>
        <time>2022-03-20T09:34:59Z</time>
      </trkpt>
      <trkpt lat="50.37449" lon="4.34324">
        <ele>103.579041</ele>
        <time>2022-03-20T09:35:01Z</time>
      </trkpt>
      <trkpt lat="50.37446" lon="4.34323">
        <ele>103.413612</ele>
        <time>2022-03-20T09:35:03Z</time>
      </trkpt>
      <trkpt lat="50.37442" lon="4.34323">
        <ele>103.253784</ele>
        <time>2022-03-20T09:35:05Z</time>
      </trkpt>
      <trkpt lat="50.37438" lon="4.34327">
        <ele>103.201981</ele>
        <time>2022-03-20T09:35:07Z</time>
      </trkpt>
      <trkpt lat="50.37435" lon="4.34327">
        <ele>103.177109</ele>
        <time>2022-03-20T09:35:09Z</time>
      </trkpt>
      <trkpt lat="50.37431" lon="4.34322">
        <ele>103.160538</ele>
        <time>2022-03-20T09:35:11Z</time>
      </trkpt>
      <trkpt lat="50.37428" lon="4.34318">
        <ele>102.978172</ele>
        <time>2022-03-20T09:35:13Z</time>
      </trkpt>
      <trkpt lat="50.37425" lon="4.34318">
        <ele>103.027908</ele>
        <time>2022-03-20T09:35:15Z</time>
      </trkpt>
      <trkpt lat="50.37421" lon="4.34318">
        <ele>103.071426</ele>
        <time>2022-03-20T09:35:17Z</time>
      </trkpt>
      <trkpt lat="50.37417" lon="4.3432">
        <ele>103.165527</ele>
        <time>2022-03-20T09:35:19Z</time>
      </trkpt>
      <trkpt lat="50.37413" lon="4.34321">
        <ele>103.21035</ele>
        <time>2022-03-20T09:35:21Z</time>
      </trkpt>
      <trkpt lat="50.3741" lon="4.34321">
        <ele>103.367836</ele>
        <time>2022-03-20T09:35:23Z</time>
      </trkpt>
      <trkpt lat="50.37407" lon="4.34319">
        <ele>103.558495</ele>
        <time>2022-03-20T09:35:25Z</time>
      </trkpt>
      <trkpt lat="50.37403" lon="4.34319">
        <ele>103.715981</ele>
        <time>2022-03-20T09:35:27Z</time>
      </trkpt>
      <trkpt lat="50.374" lon="4.34319">
        <ele>103.883835</ele>
        <time>2022-03-20T09:35:29Z</time>
      </trkpt>
      <trkpt lat="50.37397" lon="4.34319">
        <ele>104.024315</ele>
        <time>2022-03-20T09:35:31Z</time>
      </trkpt>
      <trkpt lat="50.37396" lon="4.34319">
        <ele>104.166153</ele>
        <time>2022-03-20T09:35:33Z</time>
      </trkpt>
      <trkpt lat="50.37388" lon="4.34319">
        <ele>105.932091</ele>
        <time>2022-03-20T09:35:55Z</time>
      </trkpt>
      <trkpt lat="50.37386" lon="4.34319">
        <ele>106.064049</ele>
        <time>2022-03-20T09:35:57Z</time>
      </trkpt>
      <trkpt lat="50.37381" lon="4.34318">
        <ele>106.271912</ele>
        <time>2022-03-20T09:36:03Z</time>
      </trkpt>
      <trkpt lat="50.37379" lon="4.34317">
        <ele>106.325806</ele>
        <time>2022-03-20T09:36:05Z</time>
      </trkpt>
      <trkpt lat="50.37376" lon="4.34317">
        <ele>106.396278</ele>
        <time>2022-03-20T09:36:07Z</time>
      </trkpt>
      <trkpt lat="50.37372" lon="4.34317">
        <ele>106.452438</ele>
        <time>2022-03-20T09:36:09Z</time>
      </trkpt>
      <trkpt lat="50.37369" lon="4.34318">
        <ele>106.560226</ele>
        <time>2022-03-20T09:36:11Z</time>
      </trkpt>
      <trkpt lat="50.37366" lon="4.34318">
        <ele>106.630699</ele>
        <time>2022-03-20T09:36:13Z</time>
      </trkpt>
      <trkpt lat="50.37363" lon="4.34319">
        <ele>106.742638</ele>
        <time>2022-03-20T09:36:15Z</time>
      </trkpt>
      <trkpt lat="50.37361" lon="4.34319">
        <ele>106.856224</ele>
        <time>2022-03-20T09:36:17Z</time>
      </trkpt>
      <trkpt lat="50.37356" lon="4.34318">
        <ele>107.003395</ele>
        <time>2022-03-20T09:36:19Z</time>
      </trkpt>
      <trkpt lat="50.37343" lon="4.34314">
        <ele>107.142288</ele>
        <time>2022-03-20T09:36:21Z</time>
      </trkpt>
      <trkpt lat="50.37339" lon="4.34312">
        <ele>107.301918</ele>
        <time>2022-03-20T09:36:23Z</time>
      </trkpt>
      <trkpt lat="50.37336" lon="4.34312">
        <ele>107.397263</ele>
        <time>2022-03-20T09:36:25Z</time>
      </trkpt>
      <trkpt lat="50.37331" lon="4.34312">
        <ele>107.538231</ele>
        <time>2022-03-20T09:36:27Z</time>
      </trkpt>
      <trkpt lat="50.37328" lon="4.34311">
        <ele>107.764206</ele>
        <time>2022-03-20T09:36:29Z</time>
      </trkpt>
      <trkpt lat="50.37324" lon="4.34311">
        <ele>107.912354</ele>
        <time>2022-03-20T09:36:31Z</time>
      </trkpt>
      <trkpt lat="50.37321" lon="4.34311">
        <ele>108.087936</ele>
        <time>2022-03-20T09:36:33Z</time>
      </trkpt>
      <trkpt lat="50.37317" lon="4.34311">
        <ele>108.371964</ele>
        <time>2022-03-20T09:36:35Z</time>
      </trkpt>
      <trkpt lat="50.37313" lon="4.3431">
        <ele>108.642174</ele>
        <time>2022-03-20T09:36:37Z</time>
      </trkpt>
      <trkpt lat="50.37309" lon="4.3431">
        <ele>108.893044</ele>
        <time>2022-03-20T09:36:39Z</time>
      </trkpt>
      <trkpt lat="50.37304" lon="4.34308">
        <ele>109.143936</ele>
        <time>2022-03-20T09:36:41Z</time>
      </trkpt>
      <trkpt lat="50.37301" lon="4.34307">
        <ele>109.498093</ele>
        <time>2022-03-20T09:36:43Z</time>
      </trkpt>
      <trkpt lat="50.37298" lon="4.34306">
        <ele>109.792191</ele>
        <time>2022-03-20T09:36:45Z</time>
      </trkpt>
      <trkpt lat="50.37296" lon="4.34305">
        <ele>109.949783</ele>
        <time>2022-03-20T09:36:46Z</time>
      </trkpt>
      <trkpt lat="50.37293" lon="4.34303">
        <ele>110.227829</ele>
        <time>2022-03-20T09:36:48Z</time>
      </trkpt>
      <trkpt lat="50.3729" lon="4.34302">
        <ele>110.466064</ele>
        <time>2022-03-20T09:36:50Z</time>
      </trkpt>
      <trkpt lat="50.37286" lon="4.343">
        <ele>110.683792</ele>
        <time>2022-03-20T09:36:52Z</time>
      </trkpt>
      <trkpt lat="50.37283" lon="4.34297">
        <ele>110.952469</ele>
        <time>2022-03-20T09:36:54Z</time>
      </trkpt>
      <trkpt lat="50.3728" lon="4.34292">
        <ele>111.122498</ele>
        <time>2022-03-20T09:36:56Z</time>
      </trkpt>
      <trkpt lat="50.37275" lon="4.34278">
        <ele>111.306168</ele>
        <time>2022-03-20T09:36:58Z</time>
      </trkpt>
      <trkpt lat="50.37275" lon="4.34272">
        <ele>111.432655</ele>
        <time>2022-03-20T09:37:00Z</time>
      </trkpt>
      <trkpt lat="50.37273" lon="4.34269">
        <ele>111.552917</ele>
        <time>2022-03-20T09:37:02Z</time>
      </trkpt>
      <trkpt lat="50.37271" lon="4.34266">
        <ele>111.729172</ele>
        <time>2022-03-20T09:37:04Z</time>
      </trkpt>
      <trkpt lat="50.37269" lon="4.34264">
        <ele>111.76857</ele>
        <time>2022-03-20T09:37:06Z</time>
      </trkpt>
      <trkpt lat="50.37267" lon="4.34259">
        <ele>111.915161</ele>
        <time>2022-03-20T09:37:08Z</time>
      </trkpt>
      <trkpt lat="50.37262" lon="4.34253">
        <ele>112.018845</ele>
        <time>2022-03-20T09:37:10Z</time>
      </trkpt>
      <trkpt lat="50.37259" lon="4.34248">
        <ele>112.117432</ele>
        <time>2022-03-20T09:37:12Z</time>
      </trkpt>
      <trkpt lat="50.37255" lon="4.34241">
        <ele>112.273582</ele>
        <time>2022-03-20T09:37:14Z</time>
      </trkpt>
      <trkpt lat="50.37254" lon="4.34239">
        <ele>112.276993</ele>
        <time>2022-03-20T09:37:15Z</time>
      </trkpt>
      <trkpt lat="50.37253" lon="4.34234">
        <ele>112.331619</ele>
        <time>2022-03-20T09:37:17Z</time>
      </trkpt>
      <trkpt lat="50.3725" lon="4.34229">
        <ele>112.381386</ele>
        <time>2022-03-20T09:37:19Z</time>
      </trkpt>
      <trkpt lat="50.37248" lon="4.34223">
        <ele>112.404198</ele>
        <time>2022-03-20T09:37:21Z</time>
      </trkpt>
      <trkpt lat="50.37245" lon="4.3422">
        <ele>112.439392</ele>
        <time>2022-03-20T09:37:23Z</time>
      </trkpt>
      <trkpt lat="50.37243" lon="4.34218">
        <ele>112.460129</ele>
        <time>2022-03-20T09:37:25Z</time>
      </trkpt>
      <trkpt lat="50.37242" lon="4.34213">
        <ele>112.453903</ele>
        <time>2022-03-20T09:37:27Z</time>
      </trkpt>
      <trkpt lat="50.3724" lon="4.34208">
        <ele>112.495178</ele>
        <time>2022-03-20T09:37:29Z</time>
      </trkpt>
      <trkpt lat="50.37239" lon="4.34201">
        <ele>112.565697</ele>
        <time>2022-03-20T09:37:31Z</time>
      </trkpt>
      <trkpt lat="50.37236" lon="4.34195">
        <ele>112.712967</ele>
        <time>2022-03-20T09:37:33Z</time>
      </trkpt>
      <trkpt lat="50.37233" lon="4.34188">
        <ele>112.761208</ele>
        <time>2022-03-20T09:37:35Z</time>
      </trkpt>
      <trkpt lat="50.37231" lon="4.34181">
        <ele>112.903114</ele>
        <time>2022-03-20T09:37:37Z</time>
      </trkpt>
      <trkpt lat="50.37228" lon="4.34175">
        <ele>113.069046</ele>
        <time>2022-03-20T09:37:39Z</time>
      </trkpt>
      <trkpt lat="50.37226" lon="4.34171">
        <ele>113.283958</ele>
        <time>2022-03-20T09:37:41Z</time>
      </trkpt>
      <trkpt lat="50.37224" lon="4.34164">
        <ele>113.495529</ele>
        <time>2022-03-20T09:37:43Z</time>
      </trkpt>
      <trkpt lat="50.37224" lon="4.34154">
        <ele>113.636581</ele>
        <time>2022-03-20T09:37:45Z</time>
      </trkpt>
      <trkpt lat="50.3722" lon="4.34144">
        <ele>113.927017</ele>
        <time>2022-03-20T09:37:47Z</time>
      </trkpt>
      <trkpt lat="50.37217" lon="4.34137">
        <ele>114.162048</ele>
        <time>2022-03-20T09:37:49Z</time>
      </trkpt>
      <trkpt lat="50.37215" lon="4.34132">
        <ele>114.338364</ele>
        <time>2022-03-20T09:37:51Z</time>
      </trkpt>
      <trkpt lat="50.37214" lon="4.34124">
        <ele>114.589355</ele>
        <time>2022-03-20T09:37:53Z</time>
      </trkpt>
      <trkpt lat="50.37212" lon="4.34118">
        <ele>114.773094</ele>
        <time>2022-03-20T09:37:55Z</time>
      </trkpt>
      <trkpt lat="50.37208" lon="4.34109">
        <ele>114.972275</ele>
        <time>2022-03-20T09:37:57Z</time>
      </trkpt>
      <trkpt lat="50.37204" lon="4.341">
        <ele>115.204613</ele>
        <time>2022-03-20T09:37:59Z</time>
      </trkpt>
      <trkpt lat="50.37202" lon="4.34088">
        <ele>115.385086</ele>
        <time>2022-03-20T09:38:01Z</time>
      </trkpt>
      <trkpt lat="50.37204" lon="4.34072">
        <ele>116.103554</ele>
        <time>2022-03-20T09:38:03Z</time>
      </trkpt>
      <trkpt lat="50.37203" lon="4.34056">
        <ele>116.182388</ele>
        <time>2022-03-20T09:38:05Z</time>
      </trkpt>
      <trkpt lat="50.37201" lon="4.34043">
        <ele>116.505455</ele>
        <time>2022-03-20T09:38:07Z</time>
      </trkpt>
      <trkpt lat="50.37199" lon="4.34032">
        <ele>116.75486</ele>
        <time>2022-03-20T09:38:09Z</time>
      </trkpt>
      <trkpt lat="50.37198" lon="4.34021">
        <ele>117.007973</ele>
        <time>2022-03-20T09:38:11Z</time>
      </trkpt>
      <trkpt lat="50.37196" lon="4.34007">
        <ele>117.236191</ele>
        <time>2022-03-20T09:38:13Z</time>
      </trkpt>
      <trkpt lat="50.37196" lon="4.33993">
        <ele>116.910934</ele>
        <time>2022-03-20T09:38:15Z</time>
      </trkpt>
      <trkpt lat="50.37193" lon="4.3398">
        <ele>117.159348</ele>
        <time>2022-03-20T09:38:17Z</time>
      </trkpt>
      <trkpt lat="50.37191" lon="4.33963">
        <ele>117.275536</ele>
        <time>2022-03-20T09:38:19Z</time>
      </trkpt>
      <trkpt lat="50.37192" lon="4.33948">
        <ele>117.279701</ele>
        <time>2022-03-20T09:38:21Z</time>
      </trkpt>
      <trkpt lat="50.37194" lon="4.33931">
        <ele>117.37307</ele>
        <time>2022-03-20T09:38:23Z</time>
      </trkpt>
      <trkpt lat="50.37195" lon="4.33916">
        <ele>117.521645</ele>
        <time>2022-03-20T09:38:25Z</time>
      </trkpt>
      <trkpt lat="50.37193" lon="4.33904">
        <ele>117.97654</ele>
        <time>2022-03-20T09:38:27Z</time>
      </trkpt>
      <trkpt lat="50.37186" lon="4.33897">
        <ele>118.050598</ele>
        <time>2022-03-20T09:38:29Z</time>
      </trkpt>
      <trkpt lat="50.37181" lon="4.33892">
        <ele>118.088097</ele>
        <time>2022-03-20T09:38:31Z</time>
      </trkpt>
      <trkpt lat="50.37176" lon="4.33891">
        <ele>118.198082</ele>
        <time>2022-03-20T09:38:33Z</time>
      </trkpt>
      <trkpt lat="50.3717" lon="4.33892">
        <ele>118.146217</ele>
        <time>2022-03-20T09:38:35Z</time>
      </trkpt>
      <trkpt lat="50.37168" lon="4.33893">
        <ele>118.124283</ele>
        <time>2022-03-20T09:38:36Z</time>
      </trkpt>
      <trkpt lat="50.37164" lon="4.33895">
        <ele>118.172462</ele>
        <time>2022-03-20T09:38:38Z</time>
      </trkpt>
      <trkpt lat="50.37161" lon="4.33896">
        <ele>118.124733</ele>
        <time>2022-03-20T09:38:40Z</time>
      </trkpt>
      <trkpt lat="50.37157" lon="4.33895">
        <ele>118.149635</ele>
        <time>2022-03-20T09:38:42Z</time>
      </trkpt>
      <trkpt lat="50.37155" lon="4.33896">
        <ele>117.62001</ele>
        <time>2022-03-20T09:38:44Z</time>
      </trkpt>
      <trkpt lat="50.37153" lon="4.33897">
        <ele>117.630211</ele>
        <time>2022-03-20T09:38:46Z</time>
      </trkpt>
      <trkpt lat="50.37151" lon="4.33898">
        <ele>117.009216</ele>
        <time>2022-03-20T09:38:48Z</time>
      </trkpt>
      <trkpt lat="50.37148" lon="4.33898">
        <ele>116.966232</ele>
        <time>2022-03-20T09:38:50Z</time>
      </trkpt>
      <trkpt lat="50.37143" lon="4.33897">
        <ele>116.267555</ele>
        <time>2022-03-20T09:38:52Z</time>
      </trkpt>
      <trkpt lat="50.37137" lon="4.33898">
        <ele>115.707779</ele>
        <time>2022-03-20T09:38:54Z</time>
      </trkpt>
      <trkpt lat="50.3713" lon="4.339">
        <ele>116.224953</ele>
        <time>2022-03-20T09:38:56Z</time>
      </trkpt>
      <trkpt lat="50.37123" lon="4.33905">
        <ele>116.1959</ele>
        <time>2022-03-20T09:38:58Z</time>
      </trkpt>
      <trkpt lat="50.37118" lon="4.33908">
        <ele>116.156479</ele>
        <time>2022-03-20T09:39:00Z</time>
      </trkpt>
      <trkpt lat="50.37113" lon="4.33908">
        <ele>116.222862</ele>
        <time>2022-03-20T09:39:02Z</time>
      </trkpt>
      <trkpt lat="50.3711" lon="4.33912">
        <ele>116.160622</ele>
        <time>2022-03-20T09:39:04Z</time>
      </trkpt>
      <trkpt lat="50.37106" lon="4.33915">
        <ele>116.171814</ele>
        <time>2022-03-20T09:39:06Z</time>
      </trkpt>
      <trkpt lat="50.37104" lon="4.33919">
        <ele>115.808212</ele>
        <time>2022-03-20T09:39:08Z</time>
      </trkpt>
      <trkpt lat="50.37103" lon="4.33922">
        <ele>115.858643</ele>
        <time>2022-03-20T09:39:10Z</time>
      </trkpt>
      <trkpt lat="50.371" lon="4.33923">
        <ele>115.926964</ele>
        <time>2022-03-20T09:39:12Z</time>
      </trkpt>
      <trkpt lat="50.37096" lon="4.33924">
        <ele>116.020348</ele>
        <time>2022-03-20T09:39:14Z</time>
      </trkpt>
      <trkpt lat="50.37091" lon="4.33927">
        <ele>116.265213</ele>
        <time>2022-03-20T09:39:16Z</time>
      </trkpt>
      <trkpt lat="50.37086" lon="4.33928">
        <ele>116.399475</ele>
        <time>2022-03-20T09:39:18Z</time>
      </trkpt>
      <trkpt lat="50.37082" lon="4.33929">
        <ele>116.486649</ele>
        <time>2022-03-20T09:39:20Z</time>
      </trkpt>
      <trkpt lat="50.37077" lon="4.33931">
        <ele>116.666672</ele>
        <time>2022-03-20T09:39:22Z</time>
      </trkpt>
      <trkpt lat="50.37074" lon="4.33933">
        <ele>116.817162</ele>
        <time>2022-03-20T09:39:24Z</time>
      </trkpt>
      <trkpt lat="50.37071" lon="4.33936">
        <ele>116.96698</ele>
        <time>2022-03-20T09:39:26Z</time>
      </trkpt>
      <trkpt lat="50.37067" lon="4.33939">
        <ele>117.140907</ele>
        <time>2022-03-20T09:39:28Z</time>
      </trkpt>
      <trkpt lat="50.37062" lon="4.33941">
        <ele>117.840698</ele>
        <time>2022-03-20T09:39:30Z</time>
      </trkpt>
      <trkpt lat="50.37056" lon="4.33944">
        <ele>118.12291</ele>
        <time>2022-03-20T09:39:32Z</time>
      </trkpt>
      <trkpt lat="50.37051" lon="4.33945">
        <ele>119.317856</ele>
        <time>2022-03-20T09:39:34Z</time>
      </trkpt>
      <trkpt lat="50.37046" lon="4.33947">
        <ele>119.547157</ele>
        <time>2022-03-20T09:39:36Z</time>
      </trkpt>
      <trkpt lat="50.37042" lon="4.33949">
        <ele>119.790001</ele>
        <time>2022-03-20T09:39:38Z</time>
      </trkpt>
      <trkpt lat="50.37038" lon="4.33952">
        <ele>120.041115</ele>
        <time>2022-03-20T09:39:40Z</time>
      </trkpt>
      <trkpt lat="50.37034" lon="4.33955">
        <ele>120.298447</ele>
        <time>2022-03-20T09:39:42Z</time>
      </trkpt>
      <trkpt lat="50.37031" lon="4.33956">
        <ele>120.620789</ele>
        <time>2022-03-20T09:39:44Z</time>
      </trkpt>
      <trkpt lat="50.37027" lon="4.33956">
        <ele>120.89476</ele>
        <time>2022-03-20T09:39:46Z</time>
      </trkpt>
      <trkpt lat="50.37025" lon="4.33955">
        <ele>120.971573</ele>
        <time>2022-03-20T09:39:47Z</time>
      </trkpt>
      <trkpt lat="50.37017" lon="4.33954">
        <ele>121.177078</ele>
        <time>2022-03-20T09:39:49Z</time>
      </trkpt>
      <trkpt lat="50.37014" lon="4.33952">
        <ele>121.465591</ele>
        <time>2022-03-20T09:39:51Z</time>
      </trkpt>
      <trkpt lat="50.3701" lon="4.33949">
        <ele>121.721214</ele>
        <time>2022-03-20T09:39:53Z</time>
      </trkpt>
      <trkpt lat="50.37006" lon="4.33948">
        <ele>121.85614</ele>
        <time>2022-03-20T09:39:55Z</time>
      </trkpt>
      <trkpt lat="50.37001" lon="4.33948">
        <ele>121.922569</ele>
        <time>2022-03-20T09:39:57Z</time>
      </trkpt>
      <trkpt lat="50.36995" lon="4.33948">
        <ele>122.145767</ele>
        <time>2022-03-20T09:39:59Z</time>
      </trkpt>
      <trkpt lat="50.3699" lon="4.33949">
        <ele>122.318192</ele>
        <time>2022-03-20T09:40:01Z</time>
      </trkpt>
      <trkpt lat="50.36984" lon="4.33952">
        <ele>122.640465</ele>
        <time>2022-03-20T09:40:03Z</time>
      </trkpt>
      <trkpt lat="50.36978" lon="4.33955">
        <ele>122.967407</ele>
        <time>2022-03-20T09:40:05Z</time>
      </trkpt>
      <trkpt lat="50.36976" lon="4.33955">
        <ele>123.094711</ele>
        <time>2022-03-20T09:40:06Z</time>
      </trkpt>
      <trkpt lat="50.36973" lon="4.33951">
        <ele>123.372154</ele>
        <time>2022-03-20T09:40:08Z</time>
      </trkpt>
      <trkpt lat="50.36968" lon="4.33952">
        <ele>123.654518</ele>
        <time>2022-03-20T09:40:10Z</time>
      </trkpt>
      <trkpt lat="50.36963" lon="4.33953">
        <ele>123.889137</ele>
        <time>2022-03-20T09:40:12Z</time>
      </trkpt>
      <trkpt lat="50.36958" lon="4.33954">
        <ele>124.042763</ele>
        <time>2022-03-20T09:40:14Z</time>
      </trkpt>
      <trkpt lat="50.36954" lon="4.33949">
        <ele>124.363815</ele>
        <time>2022-03-20T09:40:16Z</time>
      </trkpt>
      <trkpt lat="50.3695" lon="4.33945">
        <ele>124.643356</ele>
        <time>2022-03-20T09:40:18Z</time>
      </trkpt>
      <trkpt lat="50.36943" lon="4.33942">
        <ele>124.923691</ele>
        <time>2022-03-20T09:40:20Z</time>
      </trkpt>
      <trkpt lat="50.36938" lon="4.3394">
        <ele>125.1978</ele>
        <time>2022-03-20T09:40:22Z</time>
      </trkpt>
      <trkpt lat="50.36932" lon="4.3394">
        <ele>125.476318</ele>
        <time>2022-03-20T09:40:24Z</time>
      </trkpt>
      <trkpt lat="50.36927" lon="4.33937">
        <ele>125.74147</ele>
        <time>2022-03-20T09:40:26Z</time>
      </trkpt>
      <trkpt lat="50.36921" lon="4.33935">
        <ele>125.949135</ele>
        <time>2022-03-20T09:40:28Z</time>
      </trkpt>
      <trkpt lat="50.36915" lon="4.33932">
        <ele>126.262695</ele>
        <time>2022-03-20T09:40:30Z</time>
      </trkpt>
      <trkpt lat="50.36908" lon="4.33928">
        <ele>126.412216</ele>
        <time>2022-03-20T09:40:32Z</time>
      </trkpt>
      <trkpt lat="50.36901" lon="4.33924">
        <ele>126.621971</ele>
        <time>2022-03-20T09:40:34Z</time>
      </trkpt>
      <trkpt lat="50.36894" lon="4.33921">
        <ele>126.924866</ele>
        <time>2022-03-20T09:40:36Z</time>
      </trkpt>
      <trkpt lat="50.36887" lon="4.33917">
        <ele>127.258484</ele>
        <time>2022-03-20T09:40:38Z</time>
      </trkpt>
      <trkpt lat="50.3688" lon="4.33916">
        <ele>127.521156</ele>
        <time>2022-03-20T09:40:40Z</time>
      </trkpt>
      <trkpt lat="50.36876" lon="4.33914">
        <ele>127.807739</ele>
        <time>2022-03-20T09:40:42Z</time>
      </trkpt>
      <trkpt lat="50.36873" lon="4.33912">
        <ele>127.915749</ele>
        <time>2022-03-20T09:40:44Z</time>
      </trkpt>
      <trkpt lat="50.36871" lon="4.33911">
        <ele>128.178207</ele>
        <time>2022-03-20T09:40:46Z</time>
      </trkpt>
      <trkpt lat="50.36869" lon="4.33911">
        <ele>128.282776</ele>
        <time>2022-03-20T09:40:48Z</time>
      </trkpt>
      <trkpt lat="50.36865" lon="4.3391">
        <ele>128.781235</ele>
        <time>2022-03-20T09:40:54Z</time>
      </trkpt>
      <trkpt lat="50.3686" lon="4.33909">
        <ele>128.908325</ele>
        <time>2022-03-20T09:40:56Z</time>
      </trkpt>
      <trkpt lat="50.36857" lon="4.33908">
        <ele>129.068176</ele>
        <time>2022-03-20T09:40:58Z</time>
      </trkpt>
      <trkpt lat="50.36851" lon="4.33907">
        <ele>129.061951</ele>
        <time>2022-03-20T09:41:00Z</time>
      </trkpt>
      <trkpt lat="50.36845" lon="4.33905">
        <ele>129.051544</ele>
        <time>2022-03-20T09:41:02Z</time>
      </trkpt>
      <trkpt lat="50.3684" lon="4.33904">
        <ele>129.205109</ele>
        <time>2022-03-20T09:41:04Z</time>
      </trkpt>
      <trkpt lat="50.36832" lon="4.33901">
        <ele>129.267166</ele>
        <time>2022-03-20T09:41:06Z</time>
      </trkpt>
      <trkpt lat="50.36824" lon="4.33898">
        <ele>129.468643</ele>
        <time>2022-03-20T09:41:08Z</time>
      </trkpt>
      <trkpt lat="50.36815" lon="4.33894">
        <ele>129.468643</ele>
        <time>2022-03-20T09:41:10Z</time>
      </trkpt>
      <trkpt lat="50.36801" lon="4.33884">
        <ele>129.535126</ele>
        <time>2022-03-20T09:41:12Z</time>
      </trkpt>
      <trkpt lat="50.36795" lon="4.33877">
        <ele>129.651443</ele>
        <time>2022-03-20T09:41:14Z</time>
      </trkpt>
      <trkpt lat="50.36791" lon="4.33875">
        <ele>129.616043</ele>
        <time>2022-03-20T09:41:16Z</time>
      </trkpt>
      <trkpt lat="50.36788" lon="4.33872">
        <ele>129.602234</ele>
        <time>2022-03-20T09:41:18Z</time>
      </trkpt>
      <trkpt lat="50.36784" lon="4.33869">
        <ele>129.574326</ele>
        <time>2022-03-20T09:41:20Z</time>
      </trkpt>
      <trkpt lat="50.36777" lon="4.33861">
        <ele>129.507874</ele>
        <time>2022-03-20T09:41:22Z</time>
      </trkpt>
      <trkpt lat="50.36768" lon="4.33854">
        <ele>129.427994</ele>
        <time>2022-03-20T09:41:24Z</time>
      </trkpt>
      <trkpt lat="50.3676" lon="4.33847">
        <ele>129.344849</ele>
        <time>2022-03-20T09:41:26Z</time>
      </trkpt>
      <trkpt lat="50.36753" lon="4.33842">
        <ele>129.219116</ele>
        <time>2022-03-20T09:41:28Z</time>
      </trkpt>
      <trkpt lat="50.36747" lon="4.33834">
        <ele>129.065216</ele>
        <time>2022-03-20T09:41:30Z</time>
      </trkpt>
      <trkpt lat="50.3674" lon="4.33823">
        <ele>128.942093</ele>
        <time>2022-03-20T09:41:32Z</time>
      </trkpt>
      <trkpt lat="50.36731" lon="4.33815">
        <ele>128.669952</ele>
        <time>2022-03-20T09:41:34Z</time>
      </trkpt>
      <trkpt lat="50.36723" lon="4.33807">
        <ele>128.494995</ele>
        <time>2022-03-20T09:41:36Z</time>
      </trkpt>
      <trkpt lat="50.36715" lon="4.33797">
        <ele>128.294586</ele>
        <time>2022-03-20T09:41:38Z</time>
      </trkpt>
      <trkpt lat="50.36709" lon="4.33787">
        <ele>128.039139</ele>
        <time>2022-03-20T09:41:40Z</time>
      </trkpt>
      <trkpt lat="50.36704" lon="4.3378">
        <ele>127.773331</ele>
        <time>2022-03-20T09:41:42Z</time>
      </trkpt>
      <trkpt lat="50.36697" lon="4.33772">
        <ele>127.382957</ele>
        <time>2022-03-20T09:41:44Z</time>
      </trkpt>
      <trkpt lat="50.3669" lon="4.33764">
        <ele>127.048645</ele>
        <time>2022-03-20T09:41:46Z</time>
      </trkpt>
      <trkpt lat="50.36684" lon="4.3375">
        <ele>126.915794</ele>
        <time>2022-03-20T09:41:48Z</time>
      </trkpt>
      <trkpt lat="50.36676" lon="4.33736">
        <ele>126.558609</ele>
        <time>2022-03-20T09:41:50Z</time>
      </trkpt>
      <trkpt lat="50.36673" lon="4.3373">
        <ele>126.334366</ele>
        <time>2022-03-20T09:41:51Z</time>
      </trkpt>
      <trkpt lat="50.36666" lon="4.33719">
        <ele>125.79451</ele>
        <time>2022-03-20T09:41:52Z</time>
      </trkpt>
      <trkpt lat="50.36659" lon="4.33712">
        <ele>125.437416</ele>
        <time>2022-03-20T09:41:55Z</time>
      </trkpt>
      <trkpt lat="50.36654" lon="4.33708">
        <ele>125.354675</ele>
        <time>2022-03-20T09:41:57Z</time>
      </trkpt>
      <trkpt lat="50.36651" lon="4.33703">
        <ele>124.900406</ele>
        <time>2022-03-20T09:41:59Z</time>
      </trkpt>
      <trkpt lat="50.36648" lon="4.33699">
        <ele>124.362694</ele>
        <time>2022-03-20T09:42:01Z</time>
      </trkpt>
      <trkpt lat="50.36645" lon="4.33692">
        <ele>123.891617</ele>
        <time>2022-03-20T09:42:03Z</time>
      </trkpt>
      <trkpt lat="50.36643" lon="4.33687">
        <ele>123.248978</ele>
        <time>2022-03-20T09:42:05Z</time>
      </trkpt>
      <trkpt lat="50.36639" lon="4.33683">
        <ele>122.601746</ele>
        <time>2022-03-20T09:42:07Z</time>
      </trkpt>
      <trkpt lat="50.36635" lon="4.33682">
        <ele>122.071777</ele>
        <time>2022-03-20T09:42:09Z</time>
      </trkpt>
      <trkpt lat="50.36631" lon="4.33681">
        <ele>121.451172</ele>
        <time>2022-03-20T09:42:11Z</time>
      </trkpt>
      <trkpt lat="50.36626" lon="4.33676">
        <ele>120.901199</ele>
        <time>2022-03-20T09:42:13Z</time>
      </trkpt>
      <trkpt lat="50.3662" lon="4.33663">
        <ele>120.384926</ele>
        <time>2022-03-20T09:42:15Z</time>
      </trkpt>
      <trkpt lat="50.3662" lon="4.33652">
        <ele>119.660751</ele>
        <time>2022-03-20T09:42:17Z</time>
      </trkpt>
      <trkpt lat="50.36623" lon="4.33644">
        <ele>118.977806</ele>
        <time>2022-03-20T09:42:19Z</time>
      </trkpt>
      <trkpt lat="50.36625" lon="4.33639">
        <ele>118.370804</ele>
        <time>2022-03-20T09:42:21Z</time>
      </trkpt>
      <trkpt lat="50.36622" lon="4.33631">
        <ele>106.858658</ele>
        <time>2022-03-20T09:43:12Z</time>
      </trkpt>
      <trkpt lat="50.36622" lon="4.33618">
        <ele>106.763306</ele>
        <time>2022-03-20T09:43:14Z</time>
      </trkpt>
      <trkpt lat="50.36625" lon="4.33619">
        <ele>106.556015</ele>
        <time>2022-03-20T09:43:16Z</time>
      </trkpt>
      <trkpt lat="50.36628" lon="4.3362">
        <ele>106.388931</ele>
        <time>2022-03-20T09:43:18Z</time>
      </trkpt>
      <trkpt lat="50.36631" lon="4.33619">
        <ele>106.223122</ele>
        <time>2022-03-20T09:43:20Z</time>
      </trkpt>
      <trkpt lat="50.36632" lon="4.33613">
        <ele>106.026222</ele>
        <time>2022-03-20T09:43:22Z</time>
      </trkpt>
      <trkpt lat="50.36633" lon="4.33608">
        <ele>105.796165</ele>
        <time>2022-03-20T09:43:24Z</time>
      </trkpt>
      <trkpt lat="50.36634" lon="4.33603">
        <ele>105.592407</ele>
        <time>2022-03-20T09:43:26Z</time>
      </trkpt>
      <trkpt lat="50.36634" lon="4.336">
        <ele>105.387245</ele>
        <time>2022-03-20T09:43:28Z</time>
      </trkpt>
      <trkpt lat="50.36633" lon="4.33597">
        <ele>105.153061</ele>
        <time>2022-03-20T09:43:30Z</time>
      </trkpt>
      <trkpt lat="50.36634" lon="4.33595">
        <ele>104.922409</ele>
        <time>2022-03-20T09:43:32Z</time>
      </trkpt>
      <trkpt lat="50.36634" lon="4.33593">
        <ele>104.445297</ele>
        <time>2022-03-20T09:43:36Z</time>
      </trkpt>
      <trkpt lat="50.36632" lon="4.3359">
        <ele>103.854736</ele>
        <time>2022-03-20T09:43:40Z</time>
      </trkpt>
      <trkpt lat="50.36631" lon="4.33587">
        <ele>103.58329</ele>
        <time>2022-03-20T09:43:42Z</time>
      </trkpt>
      <trkpt lat="50.36631" lon="4.33585">
        <ele>103.295609</ele>
        <time>2022-03-20T09:43:44Z</time>
      </trkpt>
      <trkpt lat="50.3663" lon="4.33582">
        <ele>102.986511</ele>
        <time>2022-03-20T09:43:46Z</time>
      </trkpt>
      <trkpt lat="50.36631" lon="4.33578">
        <ele>102.717789</ele>
        <time>2022-03-20T09:43:48Z</time>
      </trkpt>
      <trkpt lat="50.3663" lon="4.33574">
        <ele>102.569077</ele>
        <time>2022-03-20T09:43:50Z</time>
      </trkpt>
      <trkpt lat="50.36629" lon="4.33574">
        <ele>102.34124</ele>
        <time>2022-03-20T09:43:52Z</time>
      </trkpt>
      <trkpt lat="50.36626" lon="4.33571">
        <ele>101.659134</ele>
        <time>2022-03-20T09:43:58Z</time>
      </trkpt>
      <trkpt lat="50.36624" lon="4.33572">
        <ele>100.55899</ele>
        <time>2022-03-20T09:44:10Z</time>
      </trkpt>
      <trkpt lat="50.36626" lon="4.33563">
        <ele>92.052681</ele>
        <time>2022-03-20T09:50:22Z</time>
      </trkpt>
      <trkpt lat="50.36626" lon="4.3355">
        <ele>92.296829</ele>
        <time>2022-03-20T09:50:24Z</time>
      </trkpt>
      <trkpt lat="50.36623" lon="4.33546">
        <ele>92.605293</ele>
        <time>2022-03-20T09:50:26Z</time>
      </trkpt>
      <trkpt lat="50.36621" lon="4.3354">
        <ele>92.928246</ele>
        <time>2022-03-20T09:50:28Z</time>
      </trkpt>
      <trkpt lat="50.36619" lon="4.33534">
        <ele>93.345848</ele>
        <time>2022-03-20T09:50:30Z</time>
      </trkpt>
      <trkpt lat="50.36616" lon="4.33529">
        <ele>93.809525</ele>
        <time>2022-03-20T09:50:32Z</time>
      </trkpt>
      <trkpt lat="50.36614" lon="4.33526">
        <ele>94.275314</ele>
        <time>2022-03-20T09:50:34Z</time>
      </trkpt>
      <trkpt lat="50.36611" lon="4.33526">
        <ele>94.534134</ele>
        <time>2022-03-20T09:50:36Z</time>
      </trkpt>
      <trkpt lat="50.36608" lon="4.33526">
        <ele>94.963989</ele>
        <time>2022-03-20T09:50:38Z</time>
      </trkpt>
      <trkpt lat="50.36606" lon="4.33521">
        <ele>95.432159</ele>
        <time>2022-03-20T09:50:40Z</time>
      </trkpt>
      <trkpt lat="50.36605" lon="4.33513">
        <ele>95.903648</ele>
        <time>2022-03-20T09:50:42Z</time>
      </trkpt>
      <trkpt lat="50.36604" lon="4.33504">
        <ele>96.360924</ele>
        <time>2022-03-20T09:50:44Z</time>
      </trkpt>
      <trkpt lat="50.36602" lon="4.33494">
        <ele>96.761642</ele>
        <time>2022-03-20T09:50:46Z</time>
      </trkpt>
      <trkpt lat="50.36601" lon="4.33484">
        <ele>97.117233</ele>
        <time>2022-03-20T09:50:48Z</time>
      </trkpt>
      <trkpt lat="50.366" lon="4.33474">
        <ele>97.523132</ele>
        <time>2022-03-20T09:50:50Z</time>
      </trkpt>
      <trkpt lat="50.366" lon="4.33468">
        <ele>97.724014</ele>
        <time>2022-03-20T09:50:51Z</time>
      </trkpt>
      <trkpt lat="50.36598" lon="4.33458">
        <ele>98.098862</ele>
        <time>2022-03-20T09:50:53Z</time>
      </trkpt>
      <trkpt lat="50.36597" lon="4.33448">
        <ele>98.498589</ele>
        <time>2022-03-20T09:50:55Z</time>
      </trkpt>
      <trkpt lat="50.36596" lon="4.33438">
        <ele>98.877617</ele>
        <time>2022-03-20T09:50:57Z</time>
      </trkpt>
      <trkpt lat="50.36594" lon="4.3343">
        <ele>99.260818</ele>
        <time>2022-03-20T09:50:59Z</time>
      </trkpt>
      <trkpt lat="50.36594" lon="4.3342">
        <ele>99.714424</ele>
        <time>2022-03-20T09:51:01Z</time>
      </trkpt>
      <trkpt lat="50.36592" lon="4.33411">
        <ele>99.923538</ele>
        <time>2022-03-20T09:51:03Z</time>
      </trkpt>
      <trkpt lat="50.36588" lon="4.33402">
        <ele>100.400497</ele>
        <time>2022-03-20T09:51:05Z</time>
      </trkpt>
      <trkpt lat="50.36586" lon="4.33395">
        <ele>100.786911</ele>
        <time>2022-03-20T09:51:07Z</time>
      </trkpt>
      <trkpt lat="50.36584" lon="4.33387">
        <ele>101.244751</ele>
        <time>2022-03-20T09:51:09Z</time>
      </trkpt>
      <trkpt lat="50.36585" lon="4.33376">
        <ele>101.652901</ele>
        <time>2022-03-20T09:51:11Z</time>
      </trkpt>
      <trkpt lat="50.36586" lon="4.33367">
        <ele>101.994827</ele>
        <time>2022-03-20T09:51:13Z</time>
      </trkpt>
      <trkpt lat="50.36586" lon="4.33361">
        <ele>102.388962</ele>
        <time>2022-03-20T09:51:15Z</time>
      </trkpt>
      <trkpt lat="50.3658" lon="4.33358">
        <ele>102.705338</ele>
        <time>2022-03-20T09:51:17Z</time>
      </trkpt>
      <trkpt lat="50.3658" lon="4.33348">
        <ele>103.153687</ele>
        <time>2022-03-20T09:51:19Z</time>
      </trkpt>
      <trkpt lat="50.36587" lon="4.33342">
        <ele>103.539818</ele>
        <time>2022-03-20T09:51:21Z</time>
      </trkpt>
      <trkpt lat="50.36589" lon="4.33344">
        <ele>103.908676</ele>
        <time>2022-03-20T09:51:23Z</time>
      </trkpt>
      <trkpt lat="50.36595" lon="4.33347">
        <ele>104.340714</ele>
        <time>2022-03-20T09:51:25Z</time>
      </trkpt>
      <trkpt lat="50.36601" lon="4.3335">
        <ele>104.799667</ele>
        <time>2022-03-20T09:51:27Z</time>
      </trkpt>
      <trkpt lat="50.36609" lon="4.3335">
        <ele>105.295555</ele>
        <time>2022-03-20T09:51:29Z</time>
      </trkpt>
      <trkpt lat="50.36617" lon="4.33344">
        <ele>105.593971</ele>
        <time>2022-03-20T09:51:31Z</time>
      </trkpt>
      <trkpt lat="50.36624" lon="4.33334">
        <ele>106.027176</ele>
        <time>2022-03-20T09:51:33Z</time>
      </trkpt>
      <trkpt lat="50.36629" lon="4.33321">
        <ele>106.479019</ele>
        <time>2022-03-20T09:51:35Z</time>
      </trkpt>
      <trkpt lat="50.36633" lon="4.33307">
        <ele>106.871803</ele>
        <time>2022-03-20T09:51:37Z</time>
      </trkpt>
      <trkpt lat="50.36637" lon="4.33294">
        <ele>107.16819</ele>
        <time>2022-03-20T09:51:39Z</time>
      </trkpt>
      <trkpt lat="50.3664" lon="4.33279">
        <ele>107.49984</ele>
        <time>2022-03-20T09:51:41Z</time>
      </trkpt>
      <trkpt lat="50.36644" lon="4.33265">
        <ele>107.630417</ele>
        <time>2022-03-20T09:51:43Z</time>
      </trkpt>
      <trkpt lat="50.36651" lon="4.33255">
        <ele>108.07412</ele>
        <time>2022-03-20T09:51:45Z</time>
      </trkpt>
      <trkpt lat="50.36659" lon="4.33254">
        <ele>108.453506</ele>
        <time>2022-03-20T09:51:47Z</time>
      </trkpt>
      <trkpt lat="50.36667" lon="4.33261">
        <ele>108.766174</ele>
        <time>2022-03-20T09:51:49Z</time>
      </trkpt>
      <trkpt lat="50.36673" lon="4.33274">
        <ele>108.969467</ele>
        <time>2022-03-20T09:51:51Z</time>
      </trkpt>
      <trkpt lat="50.36678" lon="4.33287">
        <ele>109.222389</ele>
        <time>2022-03-20T09:51:53Z</time>
      </trkpt>
      <trkpt lat="50.36683" lon="4.33301">
        <ele>109.462875</ele>
        <time>2022-03-20T09:51:55Z</time>
      </trkpt>
      <trkpt lat="50.36688" lon="4.33314">
        <ele>109.669395</ele>
        <time>2022-03-20T09:51:57Z</time>
      </trkpt>
      <trkpt lat="50.36692" lon="4.33326">
        <ele>109.843544</ele>
        <time>2022-03-20T09:51:59Z</time>
      </trkpt>
      <trkpt lat="50.36695" lon="4.33339">
        <ele>110.050865</ele>
        <time>2022-03-20T09:52:01Z</time>
      </trkpt>
      <trkpt lat="50.36698" lon="4.33351">
        <ele>110.203552</ele>
        <time>2022-03-20T09:52:03Z</time>
      </trkpt>
      <trkpt lat="50.36699" lon="4.33364">
        <ele>110.388077</ele>
        <time>2022-03-20T09:52:05Z</time>
      </trkpt>
      <trkpt lat="50.36699" lon="4.33377">
        <ele>110.500023</ele>
        <time>2022-03-20T09:52:07Z</time>
      </trkpt>
      <trkpt lat="50.367" lon="4.33391">
        <ele>110.549789</ele>
        <time>2022-03-20T09:52:09Z</time>
      </trkpt>
      <trkpt lat="50.36701" lon="4.33405">
        <ele>110.653458</ele>
        <time>2022-03-20T09:52:11Z</time>
      </trkpt>
      <trkpt lat="50.36702" lon="4.33419">
        <ele>110.773705</ele>
        <time>2022-03-20T09:52:13Z</time>
      </trkpt>
      <trkpt lat="50.36703" lon="4.33432">
        <ele>110.811035</ele>
        <time>2022-03-20T09:52:15Z</time>
      </trkpt>
      <trkpt lat="50.36704" lon="4.33446">
        <ele>110.792374</ele>
        <time>2022-03-20T09:52:17Z</time>
      </trkpt>
      <trkpt lat="50.36705" lon="4.33459">
        <ele>110.882545</ele>
        <time>2022-03-20T09:52:19Z</time>
      </trkpt>
      <trkpt lat="50.36706" lon="4.33473">
        <ele>110.865639</ele>
        <time>2022-03-20T09:52:21Z</time>
      </trkpt>
      <trkpt lat="50.36707" lon="4.33485">
        <ele>110.917374</ele>
        <time>2022-03-20T09:52:23Z</time>
      </trkpt>
      <trkpt lat="50.36708" lon="4.33497">
        <ele>110.898697</ele>
        <time>2022-03-20T09:52:25Z</time>
      </trkpt>
      <trkpt lat="50.36708" lon="4.33508">
        <ele>110.807449</ele>
        <time>2022-03-20T09:52:27Z</time>
      </trkpt>
      <trkpt lat="50.36709" lon="4.33518">
        <ele>110.831566</ele>
        <time>2022-03-20T09:52:29Z</time>
      </trkpt>
      <trkpt lat="50.3671" lon="4.33528">
        <ele>110.84816</ele>
        <time>2022-03-20T09:52:31Z</time>
      </trkpt>
      <trkpt lat="50.36712" lon="4.33537">
        <ele>110.789963</ele>
        <time>2022-03-20T09:52:33Z</time>
      </trkpt>
      <trkpt lat="50.36713" lon="4.33544">
        <ele>110.777527</ele>
        <time>2022-03-20T09:52:35Z</time>
      </trkpt>
      <trkpt lat="50.36717" lon="4.33549">
        <ele>110.752174</ele>
        <time>2022-03-20T09:52:37Z</time>
      </trkpt>
      <trkpt lat="50.36722" lon="4.33552">
        <ele>110.724747</ele>
        <time>2022-03-20T09:52:39Z</time>
      </trkpt>
      <trkpt lat="50.36726" lon="4.33551">
        <ele>110.718521</ele>
        <time>2022-03-20T09:52:41Z</time>
      </trkpt>
      <trkpt lat="50.3673" lon="4.3355">
        <ele>110.642052</ele>
        <time>2022-03-20T09:52:45Z</time>
      </trkpt>
      <trkpt lat="50.36731" lon="4.33549">
        <ele>110.596436</ele>
        <time>2022-03-20T09:52:47Z</time>
      </trkpt>
      <trkpt lat="50.36733" lon="4.33549">
        <ele>110.542503</ele>
        <time>2022-03-20T09:52:49Z</time>
      </trkpt>
      <trkpt lat="50.36735" lon="4.33549">
        <ele>110.488602</ele>
        <time>2022-03-20T09:52:51Z</time>
      </trkpt>
      <trkpt lat="50.36739" lon="4.33551">
        <ele>110.237709</ele>
        <time>2022-03-20T09:52:57Z</time>
      </trkpt>
      <trkpt lat="50.36741" lon="4.33556">
        <ele>110.144409</ele>
        <time>2022-03-20T09:52:59Z</time>
      </trkpt>
      <trkpt lat="50.36742" lon="4.33564">
        <ele>109.970581</ele>
        <time>2022-03-20T09:53:01Z</time>
      </trkpt>
      <trkpt lat="50.36746" lon="4.33572">
        <ele>110.032875</ele>
        <time>2022-03-20T09:53:03Z</time>
      </trkpt>
      <trkpt lat="50.36749" lon="4.33575">
        <ele>109.983971</ele>
        <time>2022-03-20T09:53:04Z</time>
      </trkpt>
      <trkpt lat="50.36754" lon="4.33579">
        <ele>109.854721</ele>
        <time>2022-03-20T09:53:06Z</time>
      </trkpt>
      <trkpt lat="50.36759" lon="4.33581">
        <ele>109.701294</ele>
        <time>2022-03-20T09:53:08Z</time>
      </trkpt>
      <trkpt lat="50.36766" lon="4.3358">
        <ele>109.547867</ele>
        <time>2022-03-20T09:53:10Z</time>
      </trkpt>
      <trkpt lat="50.36769" lon="4.33581">
        <ele>109.458717</ele>
        <time>2022-03-20T09:53:11Z</time>
      </trkpt>
      <trkpt lat="50.36776" lon="4.3358">
        <ele>109.361282</ele>
        <time>2022-03-20T09:53:13Z</time>
      </trkpt>
      <trkpt lat="50.36784" lon="4.33579">
        <ele>109.244484</ele>
        <time>2022-03-20T09:53:15Z</time>
      </trkpt>
      <trkpt lat="50.36791" lon="4.33577">
        <ele>109.188499</ele>
        <time>2022-03-20T09:53:17Z</time>
      </trkpt>
      <trkpt lat="50.36799" lon="4.33574">
        <ele>109.124229</ele>
        <time>2022-03-20T09:53:19Z</time>
      </trkpt>
      <trkpt lat="50.36806" lon="4.33572">
        <ele>109.077744</ele>
        <time>2022-03-20T09:53:21Z</time>
      </trkpt>
      <trkpt lat="50.36814" lon="4.33569">
        <ele>108.972008</ele>
        <time>2022-03-20T09:53:23Z</time>
      </trkpt>
      <trkpt lat="50.36821" lon="4.33564">
        <ele>108.95726</ele>
        <time>2022-03-20T09:53:25Z</time>
      </trkpt>
      <trkpt lat="50.36829" lon="4.3356">
        <ele>108.911644</ele>
        <time>2022-03-20T09:53:27Z</time>
      </trkpt>
      <trkpt lat="50.36836" lon="4.33554">
        <ele>108.896927</ele>
        <time>2022-03-20T09:53:29Z</time>
      </trkpt>
      <trkpt lat="50.36844" lon="4.33549">
        <ele>108.998535</ele>
        <time>2022-03-20T09:53:31Z</time>
      </trkpt>
      <trkpt lat="50.36851" lon="4.33542">
        <ele>109.066956</ele>
        <time>2022-03-20T09:53:33Z</time>
      </trkpt>
      <trkpt lat="50.36858" lon="4.33537">
        <ele>109.116722</ele>
        <time>2022-03-20T09:53:35Z</time>
      </trkpt>
      <trkpt lat="50.36865" lon="4.33531">
        <ele>109.069077</ele>
        <time>2022-03-20T09:53:37Z</time>
      </trkpt>
      <trkpt lat="50.36873" lon="4.33526">
        <ele>109.241165</ele>
        <time>2022-03-20T09:53:39Z</time>
      </trkpt>
      <trkpt lat="50.36881" lon="4.3352">
        <ele>109.407043</ele>
        <time>2022-03-20T09:53:41Z</time>
      </trkpt>
      <trkpt lat="50.36888" lon="4.33514">
        <ele>109.601952</ele>
        <time>2022-03-20T09:53:43Z</time>
      </trkpt>
      <trkpt lat="50.36895" lon="4.33509">
        <ele>109.662354</ele>
        <time>2022-03-20T09:53:45Z</time>
      </trkpt>
      <trkpt lat="50.36902" lon="4.33502">
        <ele>109.872055</ele>
        <time>2022-03-20T09:53:47Z</time>
      </trkpt>
      <trkpt lat="50.36909" lon="4.33497">
        <ele>109.996483</ele>
        <time>2022-03-20T09:53:49Z</time>
      </trkpt>
      <trkpt lat="50.36916" lon="4.33491">
        <ele>110.255066</ele>
        <time>2022-03-20T09:53:51Z</time>
      </trkpt>
      <trkpt lat="50.36923" lon="4.33485">
        <ele>110.564041</ele>
        <time>2022-03-20T09:53:53Z</time>
      </trkpt>
      <trkpt lat="50.3693" lon="4.3348">
        <ele>110.864708</ele>
        <time>2022-03-20T09:53:55Z</time>
      </trkpt>
      <trkpt lat="50.36935" lon="4.33474">
        <ele>111.186829</ele>
        <time>2022-03-20T09:53:57Z</time>
      </trkpt>
      <trkpt lat="50.3694" lon="4.33468">
        <ele>111.479904</ele>
        <time>2022-03-20T09:53:59Z</time>
      </trkpt>
      <trkpt lat="50.36942" lon="4.33463">
        <ele>111.806229</ele>
        <time>2022-03-20T09:54:01Z</time>
      </trkpt>
      <trkpt lat="50.36945" lon="4.3346">
        <ele>112.144272</ele>
        <time>2022-03-20T09:54:03Z</time>
      </trkpt>
      <trkpt lat="50.36947" lon="4.33458">
        <ele>112.328842</ele>
        <time>2022-03-20T09:54:04Z</time>
      </trkpt>
      <trkpt lat="50.3695" lon="4.33456">
        <ele>112.611832</ele>
        <time>2022-03-20T09:54:06Z</time>
      </trkpt>
      <trkpt lat="50.36952" lon="4.33453">
        <ele>112.903625</ele>
        <time>2022-03-20T09:54:08Z</time>
      </trkpt>
      <trkpt lat="50.36955" lon="4.3345">
        <ele>113.781845</ele>
        <time>2022-03-20T09:54:10Z</time>
      </trkpt>
      <trkpt lat="50.36956" lon="4.33449">
        <ele>114.018311</ele>
        <time>2022-03-20T09:54:12Z</time>
      </trkpt>
      <trkpt lat="50.36958" lon="4.33449">
        <ele>114.202904</ele>
        <time>2022-03-20T09:54:14Z</time>
      </trkpt>
      <trkpt lat="50.36962" lon="4.33446">
        <ele>114.527428</ele>
        <time>2022-03-20T09:54:16Z</time>
      </trkpt>
      <trkpt lat="50.36966" lon="4.33444">
        <ele>115.513283</ele>
        <time>2022-03-20T09:54:18Z</time>
      </trkpt>
      <trkpt lat="50.36968" lon="4.33442">
        <ele>115.816124</ele>
        <time>2022-03-20T09:54:20Z</time>
      </trkpt>
      <trkpt lat="50.36971" lon="4.3344">
        <ele>116.089943</ele>
        <time>2022-03-20T09:54:22Z</time>
      </trkpt>
      <trkpt lat="50.36974" lon="4.33439">
        <ele>116.383743</ele>
        <time>2022-03-20T09:54:24Z</time>
      </trkpt>
      <trkpt lat="50.36976" lon="4.33437">
        <ele>116.680382</ele>
        <time>2022-03-20T09:54:26Z</time>
      </trkpt>
      <trkpt lat="50.36977" lon="4.33435">
        <ele>117.007034</ele>
        <time>2022-03-20T09:54:28Z</time>
      </trkpt>
      <trkpt lat="50.36978" lon="4.33434">
        <ele>117.290283</ele>
        <time>2022-03-20T09:54:30Z</time>
      </trkpt>
      <trkpt lat="50.3698" lon="4.33432">
        <ele>117.56266</ele>
        <time>2022-03-20T09:54:32Z</time>
      </trkpt>
      <trkpt lat="50.36983" lon="4.33431">
        <ele>117.954773</ele>
        <time>2022-03-20T09:54:36Z</time>
      </trkpt>
      <trkpt lat="50.36984" lon="4.33429">
        <ele>118.239014</ele>
        <time>2022-03-20T09:54:38Z</time>
      </trkpt>
      <trkpt lat="50.36987" lon="4.33428">
        <ele>118.498375</ele>
        <time>2022-03-20T09:54:40Z</time>
      </trkpt>
      <trkpt lat="50.36989" lon="4.33427">
        <ele>118.99778</ele>
        <time>2022-03-20T09:54:44Z</time>
      </trkpt>
      <trkpt lat="50.36992" lon="4.33426">
        <ele>119.216896</ele>
        <time>2022-03-20T09:54:46Z</time>
      </trkpt>
      <trkpt lat="50.36995" lon="4.33424">
        <ele>119.438187</ele>
        <time>2022-03-20T09:54:48Z</time>
      </trkpt>
      <trkpt lat="50.36997" lon="4.33423">
        <ele>119.573685</ele>
        <time>2022-03-20T09:54:49Z</time>
      </trkpt>
      <trkpt lat="50.37002" lon="4.33422">
        <ele>119.271927</ele>
        <time>2022-03-20T09:54:51Z</time>
      </trkpt>
      <trkpt lat="50.37005" lon="4.33423">
        <ele>119.364304</ele>
        <time>2022-03-20T09:54:53Z</time>
      </trkpt>
      <trkpt lat="50.37008" lon="4.33421">
        <ele>119.587753</ele>
        <time>2022-03-20T09:54:55Z</time>
      </trkpt>
      <trkpt lat="50.37011" lon="4.33421">
        <ele>119.405556</ele>
        <time>2022-03-20T09:54:59Z</time>
      </trkpt>
      <trkpt lat="50.37012" lon="4.33422">
        <ele>119.590248</ele>
        <time>2022-03-20T09:55:01Z</time>
      </trkpt>
      <trkpt lat="50.37017" lon="4.33421">
        <ele>120.788681</ele>
        <time>2022-03-20T09:55:09Z</time>
      </trkpt>
      <trkpt lat="50.37022" lon="4.33423">
        <ele>121.856979</ele>
        <time>2022-03-20T09:55:17Z</time>
      </trkpt>
      <trkpt lat="50.37024" lon="4.33421">
        <ele>122.195389</ele>
        <time>2022-03-20T09:55:19Z</time>
      </trkpt>
      <trkpt lat="50.37028" lon="4.3342">
        <ele>122.591286</ele>
        <time>2022-03-20T09:55:23Z</time>
      </trkpt>
      <trkpt lat="50.3703" lon="4.33419">
        <ele>122.84713</ele>
        <time>2022-03-20T09:55:25Z</time>
      </trkpt>
      <trkpt lat="50.37032" lon="4.33418">
        <ele>123.121994</ele>
        <time>2022-03-20T09:55:27Z</time>
      </trkpt>
      <trkpt lat="50.37033" lon="4.33417">
        <ele>123.343948</ele>
        <time>2022-03-20T09:55:29Z</time>
      </trkpt>
      <trkpt lat="50.37034" lon="4.33415">
        <ele>123.833984</ele>
        <time>2022-03-20T09:55:33Z</time>
      </trkpt>
      <trkpt lat="50.37038" lon="4.33413">
        <ele>124.08728</ele>
        <time>2022-03-20T09:55:35Z</time>
      </trkpt>
      <trkpt lat="50.37041" lon="4.33409">
        <ele>124.694443</ele>
        <time>2022-03-20T09:55:39Z</time>
      </trkpt>
      <trkpt lat="50.37043" lon="4.33407">
        <ele>124.985252</ele>
        <time>2022-03-20T09:55:41Z</time>
      </trkpt>
      <trkpt lat="50.3705" lon="4.334">
        <ele>126.098793</ele>
        <time>2022-03-20T09:56:03Z</time>
      </trkpt>
      <trkpt lat="50.37052" lon="4.33398">
        <ele>126.195595</ele>
        <time>2022-03-20T09:56:05Z</time>
      </trkpt>
      <trkpt lat="50.37054" lon="4.33397">
        <ele>126.322281</ele>
        <time>2022-03-20T09:56:07Z</time>
      </trkpt>
      <trkpt lat="50.37056" lon="4.33395">
        <ele>126.511269</ele>
        <time>2022-03-20T09:56:09Z</time>
      </trkpt>
      <trkpt lat="50.37059" lon="4.33393">
        <ele>126.630859</ele>
        <time>2022-03-20T09:56:11Z</time>
      </trkpt>
      <trkpt lat="50.37061" lon="4.33392">
        <ele>126.831459</ele>
        <time>2022-03-20T09:56:13Z</time>
      </trkpt>
      <trkpt lat="50.37079" lon="4.33379">
        <ele>127.018105</ele>
        <time>2022-03-20T09:56:15Z</time>
      </trkpt>
      <trkpt lat="50.37082" lon="4.3338">
        <ele>127.172791</ele>
        <time>2022-03-20T09:56:17Z</time>
      </trkpt>
      <trkpt lat="50.37083" lon="4.33378">
        <ele>127.255875</ele>
        <time>2022-03-20T09:56:19Z</time>
      </trkpt>
      <trkpt lat="50.37085" lon="4.33378">
        <ele>127.318069</ele>
        <time>2022-03-20T09:56:21Z</time>
      </trkpt>
      <trkpt lat="50.37086" lon="4.33378">
        <ele>127.386612</ele>
        <time>2022-03-20T09:56:23Z</time>
      </trkpt>
      <trkpt lat="50.37088" lon="4.33378">
        <ele>127.509171</ele>
        <time>2022-03-20T09:56:25Z</time>
      </trkpt>
      <trkpt lat="50.3709" lon="4.33377">
        <ele>127.694016</ele>
        <time>2022-03-20T09:56:27Z</time>
      </trkpt>
      <trkpt lat="50.37091" lon="4.33377">
        <ele>127.930824</ele>
        <time>2022-03-20T09:56:29Z</time>
      </trkpt>
      <trkpt lat="50.37093" lon="4.33377">
        <ele>128.157211</ele>
        <time>2022-03-20T09:56:31Z</time>
      </trkpt>
      <trkpt lat="50.37096" lon="4.33379">
        <ele>128.562286</ele>
        <time>2022-03-20T09:56:35Z</time>
      </trkpt>
      <trkpt lat="50.37098" lon="4.3338">
        <ele>128.842697</ele>
        <time>2022-03-20T09:56:37Z</time>
      </trkpt>
      <trkpt lat="50.371" lon="4.3338">
        <ele>129.160507</ele>
        <time>2022-03-20T09:56:39Z</time>
      </trkpt>
      <trkpt lat="50.37103" lon="4.33381">
        <ele>129.538574</ele>
        <time>2022-03-20T09:56:41Z</time>
      </trkpt>
      <trkpt lat="50.37107" lon="4.33385">
        <ele>130.073975</ele>
        <time>2022-03-20T09:56:45Z</time>
      </trkpt>
      <trkpt lat="50.37109" lon="4.33387">
        <ele>130.347794</ele>
        <time>2022-03-20T09:56:47Z</time>
      </trkpt>
      <trkpt lat="50.37111" lon="4.33388">
        <ele>130.626205</ele>
        <time>2022-03-20T09:56:49Z</time>
      </trkpt>
      <trkpt lat="50.37113" lon="4.33388">
        <ele>130.982529</ele>
        <time>2022-03-20T09:56:51Z</time>
      </trkpt>
      <trkpt lat="50.37116" lon="4.33388">
        <ele>131.221466</ele>
        <time>2022-03-20T09:56:53Z</time>
      </trkpt>
      <trkpt lat="50.37117" lon="4.33388">
        <ele>131.560181</ele>
        <time>2022-03-20T09:56:55Z</time>
      </trkpt>
      <trkpt lat="50.3712" lon="4.33388">
        <ele>131.936554</ele>
        <time>2022-03-20T09:56:57Z</time>
      </trkpt>
      <trkpt lat="50.37122" lon="4.33388">
        <ele>132.364532</ele>
        <time>2022-03-20T09:56:59Z</time>
      </trkpt>
      <trkpt lat="50.37124" lon="4.33387">
        <ele>132.81131</ele>
        <time>2022-03-20T09:57:01Z</time>
      </trkpt>
      <trkpt lat="50.37125" lon="4.33387">
        <ele>133.270554</ele>
        <time>2022-03-20T09:57:03Z</time>
      </trkpt>
      <trkpt lat="50.3713" lon="4.33386">
        <ele>133.611649</ele>
        <time>2022-03-20T09:57:07Z</time>
      </trkpt>
      <trkpt lat="50.37133" lon="4.33387">
        <ele>134.426392</ele>
        <time>2022-03-20T09:57:11Z</time>
      </trkpt>
      <trkpt lat="50.37139" lon="4.33388">
        <ele>134.832977</ele>
        <time>2022-03-20T09:57:13Z</time>
      </trkpt>
      <trkpt lat="50.37141" lon="4.33386">
        <ele>135.021286</ele>
        <time>2022-03-20T09:57:15Z</time>
      </trkpt>
      <trkpt lat="50.37144" lon="4.33387">
        <ele>136.330856</ele>
        <time>2022-03-20T09:57:21Z</time>
      </trkpt>
      <trkpt lat="50.37148" lon="4.33388">
        <ele>137.09407</ele>
        <time>2022-03-20T09:57:25Z</time>
      </trkpt>
      <trkpt lat="50.37151" lon="4.33388">
        <ele>137.523834</ele>
        <time>2022-03-20T09:57:27Z</time>
      </trkpt>
      <trkpt lat="50.37153" lon="4.3339">
        <ele>137.960419</ele>
        <time>2022-03-20T09:57:29Z</time>
      </trkpt>
      <trkpt lat="50.37155" lon="4.3339">
        <ele>138.338821</ele>
        <time>2022-03-20T09:57:31Z</time>
      </trkpt>
      <trkpt lat="50.37157" lon="4.3339">
        <ele>138.716431</ele>
        <time>2022-03-20T09:57:33Z</time>
      </trkpt>
      <trkpt lat="50.37159" lon="4.33389">
        <ele>139.182159</ele>
        <time>2022-03-20T09:57:35Z</time>
      </trkpt>
      <trkpt lat="50.37162" lon="4.33389">
        <ele>139.583481</ele>
        <time>2022-03-20T09:57:37Z</time>
      </trkpt>
      <trkpt lat="50.37164" lon="4.33389">
        <ele>139.984894</ele>
        <time>2022-03-20T09:57:39Z</time>
      </trkpt>
      <trkpt lat="50.37168" lon="4.33392">
        <ele>140.743973</ele>
        <time>2022-03-20T09:57:43Z</time>
      </trkpt>
      <trkpt lat="50.3717" lon="4.33393">
        <ele>141.1082</ele>
        <time>2022-03-20T09:57:45Z</time>
      </trkpt>
      <trkpt lat="50.37175" lon="4.33393">
        <ele>142.363693</ele>
        <time>2022-03-20T09:57:49Z</time>
      </trkpt>
      <trkpt lat="50.37178" lon="4.33395">
        <ele>143.371216</ele>
        <time>2022-03-20T09:57:55Z</time>
      </trkpt>
      <trkpt lat="50.37183" lon="4.33395">
        <ele>144.005524</ele>
        <time>2022-03-20T09:57:59Z</time>
      </trkpt>
      <trkpt lat="50.37186" lon="4.33396">
        <ele>144.323807</ele>
        <time>2022-03-20T09:58:01Z</time>
      </trkpt>
      <trkpt lat="50.37188" lon="4.33397">
        <ele>144.676971</ele>
        <time>2022-03-20T09:58:03Z</time>
      </trkpt>
      <trkpt lat="50.3719" lon="4.33398">
        <ele>145.035934</ele>
        <time>2022-03-20T09:58:05Z</time>
      </trkpt>
      <trkpt lat="50.37194" lon="4.33399">
        <ele>145.742462</ele>
        <time>2022-03-20T09:58:09Z</time>
      </trkpt>
      <trkpt lat="50.37198" lon="4.334">
        <ele>146.104492</ele>
        <time>2022-03-20T09:58:11Z</time>
      </trkpt>
      <trkpt lat="50.372" lon="4.33401">
        <ele>146.48291</ele>
        <time>2022-03-20T09:58:13Z</time>
      </trkpt>
      <trkpt lat="50.37203" lon="4.33401">
        <ele>146.813919</ele>
        <time>2022-03-20T09:58:15Z</time>
      </trkpt>
      <trkpt lat="50.37208" lon="4.33402">
        <ele>147.550583</ele>
        <time>2022-03-20T09:58:19Z</time>
      </trkpt>
      <trkpt lat="50.37211" lon="4.33404">
        <ele>147.841919</ele>
        <time>2022-03-20T09:58:21Z</time>
      </trkpt>
      <trkpt lat="50.37214" lon="4.33403">
        <ele>148.152008</ele>
        <time>2022-03-20T09:58:23Z</time>
      </trkpt>
      <trkpt lat="50.37218" lon="4.33402">
        <ele>148.539108</ele>
        <time>2022-03-20T09:58:25Z</time>
      </trkpt>
      <trkpt lat="50.37219" lon="4.33404">
        <ele>148.921768</ele>
        <time>2022-03-20T09:58:27Z</time>
      </trkpt>
      <trkpt lat="50.37222" lon="4.33403">
        <ele>149.063293</ele>
        <time>2022-03-20T09:58:29Z</time>
      </trkpt>
      <trkpt lat="50.37223" lon="4.33404">
        <ele>149.38588</ele>
        <time>2022-03-20T09:58:31Z</time>
      </trkpt>
      <trkpt lat="50.37228" lon="4.33402">
        <ele>150.798355</ele>
        <time>2022-03-20T09:58:39Z</time>
      </trkpt>
      <trkpt lat="50.37229" lon="4.33401">
        <ele>151.187607</ele>
        <time>2022-03-20T09:58:41Z</time>
      </trkpt>
      <trkpt lat="50.3723" lon="4.334">
        <ele>151.352051</ele>
        <time>2022-03-20T09:58:42Z</time>
      </trkpt>
      <trkpt lat="50.37233" lon="4.33398">
        <ele>151.660919</ele>
        <time>2022-03-20T09:58:44Z</time>
      </trkpt>
      <trkpt lat="50.37235" lon="4.33395">
        <ele>151.903305</ele>
        <time>2022-03-20T09:58:46Z</time>
      </trkpt>
      <trkpt lat="50.37237" lon="4.33393">
        <ele>152.088593</ele>
        <time>2022-03-20T09:58:47Z</time>
      </trkpt>
      <trkpt lat="50.37238" lon="4.33391">
        <ele>152.407074</ele>
        <time>2022-03-20T09:58:49Z</time>
      </trkpt>
      <trkpt lat="50.3724" lon="4.33391">
        <ele>152.538971</ele>
        <time>2022-03-20T09:58:51Z</time>
      </trkpt>
      <trkpt lat="50.37242" lon="4.3339">
        <ele>152.809616</ele>
        <time>2022-03-20T09:58:53Z</time>
      </trkpt>
      <trkpt lat="50.37244" lon="4.33389">
        <ele>153.234039</ele>
        <time>2022-03-20T09:58:56Z</time>
      </trkpt>
      <trkpt lat="50.37247" lon="4.33387">
        <ele>153.77124</ele>
        <time>2022-03-20T09:59:00Z</time>
      </trkpt>
      <trkpt lat="50.37251" lon="4.33386">
        <ele>154.21315</ele>
        <time>2022-03-20T09:59:04Z</time>
      </trkpt>
      <trkpt lat="50.37254" lon="4.33384">
        <ele>154.505341</ele>
        <time>2022-03-20T09:59:06Z</time>
      </trkpt>
      <trkpt lat="50.37257" lon="4.33382">
        <ele>154.794815</ele>
        <time>2022-03-20T09:59:08Z</time>
      </trkpt>
      <trkpt lat="50.37258" lon="4.33381">
        <ele>155.048859</ele>
        <time>2022-03-20T09:59:10Z</time>
      </trkpt>
      <trkpt lat="50.3726" lon="4.3338">
        <ele>155.372253</ele>
        <time>2022-03-20T09:59:12Z</time>
      </trkpt>
      <trkpt lat="50.37261" lon="4.3338">
        <ele>155.673935</ele>
        <time>2022-03-20T09:59:14Z</time>
      </trkpt>
      <trkpt lat="50.37264" lon="4.3338">
        <ele>155.917587</ele>
        <time>2022-03-20T09:59:16Z</time>
      </trkpt>
      <trkpt lat="50.37267" lon="4.3338">
        <ele>156.163361</ele>
        <time>2022-03-20T09:59:18Z</time>
      </trkpt>
      <trkpt lat="50.37269" lon="4.3338">
        <ele>156.45079</ele>
        <time>2022-03-20T09:59:20Z</time>
      </trkpt>
      <trkpt lat="50.37272" lon="4.3338">
        <ele>156.669495</ele>
        <time>2022-03-20T09:59:22Z</time>
      </trkpt>
      <trkpt lat="50.37275" lon="4.33378">
        <ele>156.923599</ele>
        <time>2022-03-20T09:59:24Z</time>
      </trkpt>
      <trkpt lat="50.37278" lon="4.33378">
        <ele>157.219376</ele>
        <time>2022-03-20T09:59:26Z</time>
      </trkpt>
      <trkpt lat="50.3728" lon="4.33379">
        <ele>157.415146</ele>
        <time>2022-03-20T09:59:27Z</time>
      </trkpt>
      <trkpt lat="50.3728" lon="4.33379">
        <ele>157.72464</ele>
        <time>2022-03-20T09:59:29Z</time>
      </trkpt>
      <trkpt lat="50.37283" lon="4.33378">
        <ele>158.097504</ele>
        <time>2022-03-20T09:59:31Z</time>
      </trkpt>
      <trkpt lat="50.37284" lon="4.33378">
        <ele>158.480057</ele>
        <time>2022-03-20T09:59:34Z</time>
      </trkpt>
      <trkpt lat="50.37287" lon="4.33378">
        <ele>158.790848</ele>
        <time>2022-03-20T09:59:36Z</time>
      </trkpt>
      <trkpt lat="50.37289" lon="4.33379">
        <ele>159.105194</ele>
        <time>2022-03-20T09:59:38Z</time>
      </trkpt>
      <trkpt lat="50.37291" lon="4.3338">
        <ele>159.365616</ele>
        <time>2022-03-20T09:59:40Z</time>
      </trkpt>
      <trkpt lat="50.37293" lon="4.3338">
        <ele>159.657257</ele>
        <time>2022-03-20T09:59:42Z</time>
      </trkpt>
      <trkpt lat="50.37298" lon="4.33384">
        <ele>160.300995</ele>
        <time>2022-03-20T09:59:46Z</time>
      </trkpt>
      <trkpt lat="50.37303" lon="4.33386">
        <ele>160.928192</ele>
        <time>2022-03-20T09:59:50Z</time>
      </trkpt>
      <trkpt lat="50.37305" lon="4.33387">
        <ele>161.258911</ele>
        <time>2022-03-20T09:59:52Z</time>
      </trkpt>
      <trkpt lat="50.37308" lon="4.33388">
        <ele>161.604843</ele>
        <time>2022-03-20T09:59:54Z</time>
      </trkpt>
      <trkpt lat="50.3731" lon="4.33388">
        <ele>161.970062</ele>
        <time>2022-03-20T09:59:56Z</time>
      </trkpt>
      <trkpt lat="50.37311" lon="4.33389">
        <ele>162.297226</ele>
        <time>2022-03-20T09:59:58Z</time>
      </trkpt>
      <trkpt lat="50.37314" lon="4.3339">
        <ele>162.65358</ele>
        <time>2022-03-20T10:00:00Z</time>
      </trkpt>
      <trkpt lat="50.37317" lon="4.33391">
        <ele>162.964081</ele>
        <time>2022-03-20T10:00:02Z</time>
      </trkpt>
      <trkpt lat="50.37322" lon="4.33392">
        <ele>163.543457</ele>
        <time>2022-03-20T10:00:06Z</time>
      </trkpt>
      <trkpt lat="50.37325" lon="4.33393">
        <ele>163.914459</ele>
        <time>2022-03-20T10:00:08Z</time>
      </trkpt>
      <trkpt lat="50.37328" lon="4.33394">
        <ele>164.258362</ele>
        <time>2022-03-20T10:00:10Z</time>
      </trkpt>
      <trkpt lat="50.37331" lon="4.33394">
        <ele>164.66275</ele>
        <time>2022-03-20T10:00:12Z</time>
      </trkpt>
      <trkpt lat="50.37334" lon="4.33395">
        <ele>164.953812</ele>
        <time>2022-03-20T10:00:14Z</time>
      </trkpt>
      <trkpt lat="50.37338" lon="4.33396">
        <ele>165.268768</ele>
        <time>2022-03-20T10:00:16Z</time>
      </trkpt>
      <trkpt lat="50.37341" lon="4.33397">
        <ele>165.625214</ele>
        <time>2022-03-20T10:00:18Z</time>
      </trkpt>
      <trkpt lat="50.37343" lon="4.33398">
        <ele>166.002258</ele>
        <time>2022-03-20T10:00:20Z</time>
      </trkpt>
      <trkpt lat="50.37346" lon="4.33399">
        <ele>166.467148</ele>
        <time>2022-03-20T10:00:22Z</time>
      </trkpt>
      <trkpt lat="50.37349" lon="4.334">
        <ele>166.845001</ele>
        <time>2022-03-20T10:00:24Z</time>
      </trkpt>
      <trkpt lat="50.37352" lon="4.33401">
        <ele>167.293716</ele>
        <time>2022-03-20T10:00:26Z</time>
      </trkpt>
      <trkpt lat="50.37355" lon="4.33402">
        <ele>167.627304</ele>
        <time>2022-03-20T10:00:28Z</time>
      </trkpt>
      <trkpt lat="50.37359" lon="4.33404">
        <ele>167.944199</ele>
        <time>2022-03-20T10:00:30Z</time>
      </trkpt>
      <trkpt lat="50.37362" lon="4.33405">
        <ele>168.329971</ele>
        <time>2022-03-20T10:00:32Z</time>
      </trkpt>
      <trkpt lat="50.37366" lon="4.33408">
        <ele>168.66568</ele>
        <time>2022-03-20T10:00:34Z</time>
      </trkpt>
      <trkpt lat="50.37369" lon="4.33409">
        <ele>168.963837</ele>
        <time>2022-03-20T10:00:36Z</time>
      </trkpt>
      <trkpt lat="50.37373" lon="4.33412">
        <ele>169.145126</ele>
        <time>2022-03-20T10:00:38Z</time>
      </trkpt>
      <trkpt lat="50.37379" lon="4.33415">
        <ele>169.952179</ele>
        <time>2022-03-20T10:00:42Z</time>
      </trkpt>
      <trkpt lat="50.37393" lon="4.33422">
        <ele>170.318695</ele>
        <time>2022-03-20T10:00:44Z</time>
      </trkpt>
      <trkpt lat="50.37397" lon="4.33424">
        <ele>170.652374</ele>
        <time>2022-03-20T10:00:46Z</time>
      </trkpt>
      <trkpt lat="50.374" lon="4.33425">
        <ele>171.017349</ele>
        <time>2022-03-20T10:00:48Z</time>
      </trkpt>
      <trkpt lat="50.37405" lon="4.33426">
        <ele>171.418671</ele>
        <time>2022-03-20T10:00:50Z</time>
      </trkpt>
      <trkpt lat="50.37408" lon="4.33427">
        <ele>171.728363</ele>
        <time>2022-03-20T10:00:52Z</time>
      </trkpt>
      <trkpt lat="50.3741" lon="4.33428">
        <ele>172.064224</ele>
        <time>2022-03-20T10:00:54Z</time>
      </trkpt>
      <trkpt lat="50.37414" lon="4.3343">
        <ele>172.42926</ele>
        <time>2022-03-20T10:00:56Z</time>
      </trkpt>
      <trkpt lat="50.37416" lon="4.33431">
        <ele>172.84227</ele>
        <time>2022-03-20T10:00:58Z</time>
      </trkpt>
      <trkpt lat="50.37421" lon="4.33434">
        <ele>173.309555</ele>
        <time>2022-03-20T10:01:00Z</time>
      </trkpt>
      <trkpt lat="50.37425" lon="4.33438">
        <ele>173.668365</ele>
        <time>2022-03-20T10:01:02Z</time>
      </trkpt>
      <trkpt lat="50.37429" lon="4.33439">
        <ele>174.046005</ele>
        <time>2022-03-20T10:01:04Z</time>
      </trkpt>
      <trkpt lat="50.37433" lon="4.33441">
        <ele>174.338089</ele>
        <time>2022-03-20T10:01:06Z</time>
      </trkpt>
      <trkpt lat="50.37437" lon="4.33444">
        <ele>174.705292</ele>
        <time>2022-03-20T10:01:08Z</time>
      </trkpt>
      <trkpt lat="50.3744" lon="4.33446">
        <ele>175.053741</ele>
        <time>2022-03-20T10:01:10Z</time>
      </trkpt>
      <trkpt lat="50.37443" lon="4.33449">
        <ele>175.493988</ele>
        <time>2022-03-20T10:01:12Z</time>
      </trkpt>
      <trkpt lat="50.37446" lon="4.33451">
        <ele>175.882111</ele>
        <time>2022-03-20T10:01:14Z</time>
      </trkpt>
      <trkpt lat="50.37451" lon="4.33454">
        <ele>176.287674</ele>
        <time>2022-03-20T10:01:16Z</time>
      </trkpt>
      <trkpt lat="50.37455" lon="4.33458">
        <ele>176.777588</ele>
        <time>2022-03-20T10:01:18Z</time>
      </trkpt>
      <trkpt lat="50.37459" lon="4.33462">
        <ele>177.176193</ele>
        <time>2022-03-20T10:01:20Z</time>
      </trkpt>
      <trkpt lat="50.37465" lon="4.33467">
        <ele>177.418259</ele>
        <time>2022-03-20T10:01:22Z</time>
      </trkpt>
      <trkpt lat="50.3747" lon="4.33471">
        <ele>177.652054</ele>
        <time>2022-03-20T10:01:24Z</time>
      </trkpt>
      <trkpt lat="50.37474" lon="4.33474">
        <ele>177.983887</ele>
        <time>2022-03-20T10:01:26Z</time>
      </trkpt>
      <trkpt lat="50.37478" lon="4.33478">
        <ele>178.37912</ele>
        <time>2022-03-20T10:01:28Z</time>
      </trkpt>
      <trkpt lat="50.37481" lon="4.3348">
        <ele>178.606613</ele>
        <time>2022-03-20T10:01:29Z</time>
      </trkpt>
      <trkpt lat="50.37487" lon="4.33484">
        <ele>179.027176</ele>
        <time>2022-03-20T10:01:31Z</time>
      </trkpt>
      <trkpt lat="50.37494" lon="4.33491">
        <ele>179.593948</ele>
        <time>2022-03-20T10:01:33Z</time>
      </trkpt>
      <trkpt lat="50.37497" lon="4.33493">
        <ele>179.809647</ele>
        <time>2022-03-20T10:01:34Z</time>
      </trkpt>
      <trkpt lat="50.37503" lon="4.33499">
        <ele>180.250092</ele>
        <time>2022-03-20T10:01:36Z</time>
      </trkpt>
      <trkpt lat="50.3751" lon="4.33506">
        <ele>180.707275</ele>
        <time>2022-03-20T10:01:38Z</time>
      </trkpt>
      <trkpt lat="50.37516" lon="4.33509">
        <ele>181.095612</ele>
        <time>2022-03-20T10:01:40Z</time>
      </trkpt>
      <trkpt lat="50.3752" lon="4.33512">
        <ele>181.536163</ele>
        <time>2022-03-20T10:01:42Z</time>
      </trkpt>
      <trkpt lat="50.37524" lon="4.33513">
        <ele>181.744247</ele>
        <time>2022-03-20T10:01:44Z</time>
      </trkpt>
      <trkpt lat="50.37529" lon="4.33511">
        <ele>182.135864</ele>
        <time>2022-03-20T10:01:46Z</time>
      </trkpt>
      <trkpt lat="50.37536" lon="4.33506">
        <ele>182.578644</ele>
        <time>2022-03-20T10:01:48Z</time>
      </trkpt>
      <trkpt lat="50.37541" lon="4.33498">
        <ele>182.969116</ele>
        <time>2022-03-20T10:01:50Z</time>
      </trkpt>
      <trkpt lat="50.37545" lon="4.33486">
        <ele>183.395996</ele>
        <time>2022-03-20T10:01:52Z</time>
      </trkpt>
      <trkpt lat="50.37547" lon="4.33477">
        <ele>183.67305</ele>
        <time>2022-03-20T10:01:54Z</time>
      </trkpt>
      <trkpt lat="50.37548" lon="4.33467">
        <ele>184.084427</ele>
        <time>2022-03-20T10:01:56Z</time>
      </trkpt>
      <trkpt lat="50.3755" lon="4.33458">
        <ele>184.434525</ele>
        <time>2022-03-20T10:01:58Z</time>
      </trkpt>
      <trkpt lat="50.37552" lon="4.33446">
        <ele>184.745697</ele>
        <time>2022-03-20T10:02:00Z</time>
      </trkpt>
      <trkpt lat="50.37554" lon="4.33434">
        <ele>185.067307</ele>
        <time>2022-03-20T10:02:02Z</time>
      </trkpt>
      <trkpt lat="50.37556" lon="4.33422">
        <ele>185.552643</ele>
        <time>2022-03-20T10:02:04Z</time>
      </trkpt>
      <trkpt lat="50.37555" lon="4.3341">
        <ele>185.912308</ele>
        <time>2022-03-20T10:02:06Z</time>
      </trkpt>
      <trkpt lat="50.37557" lon="4.33399">
        <ele>186.093994</ele>
        <time>2022-03-20T10:02:08Z</time>
      </trkpt>
      <trkpt lat="50.37556" lon="4.33393">
        <ele>186.24646</ele>
        <time>2022-03-20T10:02:09Z</time>
      </trkpt>
      <trkpt lat="50.37556" lon="4.3338">
        <ele>186.551636</ele>
        <time>2022-03-20T10:02:11Z</time>
      </trkpt>
      <trkpt lat="50.37554" lon="4.33367">
        <ele>186.813812</ele>
        <time>2022-03-20T10:02:13Z</time>
      </trkpt>
      <trkpt lat="50.37555" lon="4.33354">
        <ele>186.976761</ele>
        <time>2022-03-20T10:02:15Z</time>
      </trkpt>
      <trkpt lat="50.37556" lon="4.33342">
        <ele>187.333954</ele>
        <time>2022-03-20T10:02:17Z</time>
      </trkpt>
      <trkpt lat="50.37558" lon="4.33328">
        <ele>187.46138</ele>
        <time>2022-03-20T10:02:19Z</time>
      </trkpt>
      <trkpt lat="50.37558" lon="4.33314">
        <ele>187.706924</ele>
        <time>2022-03-20T10:02:21Z</time>
      </trkpt>
      <trkpt lat="50.3756" lon="4.33301">
        <ele>187.955704</ele>
        <time>2022-03-20T10:02:23Z</time>
      </trkpt>
      <trkpt lat="50.37558" lon="4.3329">
        <ele>188.185516</ele>
        <time>2022-03-20T10:02:25Z</time>
      </trkpt>
      <trkpt lat="50.37558" lon="4.33273">
        <ele>188.420181</ele>
        <time>2022-03-20T10:02:27Z</time>
      </trkpt>
      <trkpt lat="50.37559" lon="4.33265">
        <ele>188.575668</ele>
        <time>2022-03-20T10:02:28Z</time>
      </trkpt>
      <trkpt lat="50.37562" lon="4.33258">
        <ele>188.681366</ele>
        <time>2022-03-20T10:02:29Z</time>
      </trkpt>
      <trkpt lat="50.37561" lon="4.33244">
        <ele>188.832825</ele>
        <time>2022-03-20T10:02:31Z</time>
      </trkpt>
      <trkpt lat="50.37562" lon="4.33233">
        <ele>189.090927</ele>
        <time>2022-03-20T10:02:33Z</time>
      </trkpt>
      <trkpt lat="50.37565" lon="4.33221">
        <ele>189.31723</ele>
        <time>2022-03-20T10:02:35Z</time>
      </trkpt>
      <trkpt lat="50.37565" lon="4.33213">
        <ele>189.50943</ele>
        <time>2022-03-20T10:02:36Z</time>
      </trkpt>
      <trkpt lat="50.37569" lon="4.33199">
        <ele>189.643158</ele>
        <time>2022-03-20T10:02:38Z</time>
      </trkpt>
      <trkpt lat="50.37573" lon="4.33179">
        <ele>189.787216</ele>
        <time>2022-03-20T10:02:40Z</time>
      </trkpt>
      <trkpt lat="50.37576" lon="4.33163">
        <ele>189.895859</ele>
        <time>2022-03-20T10:02:42Z</time>
      </trkpt>
      <trkpt lat="50.37577" lon="4.33148">
        <ele>189.989883</ele>
        <time>2022-03-20T10:02:44Z</time>
      </trkpt>
      <trkpt lat="50.37581" lon="4.33134">
        <ele>190.074646</ele>
        <time>2022-03-20T10:02:46Z</time>
      </trkpt>
      <trkpt lat="50.37582" lon="4.33127">
        <ele>190.009888</ele>
        <time>2022-03-20T10:02:47Z</time>
      </trkpt>
      <trkpt lat="50.37585" lon="4.33108">
        <ele>190.090164</ele>
        <time>2022-03-20T10:02:49Z</time>
      </trkpt>
      <trkpt lat="50.37586" lon="4.33093">
        <ele>189.754028</ele>
        <time>2022-03-20T10:02:51Z</time>
      </trkpt>
      <trkpt lat="50.3759" lon="4.33078">
        <ele>189.930634</ele>
        <time>2022-03-20T10:02:53Z</time>
      </trkpt>
      <trkpt lat="50.37592" lon="4.3306">
        <ele>190.087524</ele>
        <time>2022-03-20T10:02:55Z</time>
      </trkpt>
      <trkpt lat="50.37596" lon="4.33043">
        <ele>190.077072</ele>
        <time>2022-03-20T10:02:57Z</time>
      </trkpt>
      <trkpt lat="50.37598" lon="4.33027">
        <ele>190.086639</ele>
        <time>2022-03-20T10:02:59Z</time>
      </trkpt>
      <trkpt lat="50.37603" lon="4.33011">
        <ele>190.078339</ele>
        <time>2022-03-20T10:03:01Z</time>
      </trkpt>
      <trkpt lat="50.37608" lon="4.32993">
        <ele>190.018707</ele>
        <time>2022-03-20T10:03:03Z</time>
      </trkpt>
      <trkpt lat="50.37609" lon="4.3297">
        <ele>189.870209</ele>
        <time>2022-03-20T10:03:05Z</time>
      </trkpt>
      <trkpt lat="50.3761" lon="4.32948">
        <ele>189.790817</ele>
        <time>2022-03-20T10:03:07Z</time>
      </trkpt>
      <trkpt lat="50.3761" lon="4.32928">
        <ele>189.792908</ele>
        <time>2022-03-20T10:03:09Z</time>
      </trkpt>
      <trkpt lat="50.37611" lon="4.32909">
        <ele>189.756149</ele>
        <time>2022-03-20T10:03:11Z</time>
      </trkpt>
      <trkpt lat="50.37613" lon="4.32892">
        <ele>189.742386</ele>
        <time>2022-03-20T10:03:13Z</time>
      </trkpt>
      <trkpt lat="50.37615" lon="4.32875">
        <ele>189.723587</ele>
        <time>2022-03-20T10:03:15Z</time>
      </trkpt>
      <trkpt lat="50.37616" lon="4.32863">
        <ele>189.598236</ele>
        <time>2022-03-20T10:03:17Z</time>
      </trkpt>
      <trkpt lat="50.37616" lon="4.32849">
        <ele>189.286926</ele>
        <time>2022-03-20T10:03:19Z</time>
      </trkpt>
      <trkpt lat="50.37615" lon="4.32833">
        <ele>189.161667</ele>
        <time>2022-03-20T10:03:21Z</time>
      </trkpt>
      <trkpt lat="50.37618" lon="4.32815">
        <ele>189.082291</ele>
        <time>2022-03-20T10:03:23Z</time>
      </trkpt>
      <trkpt lat="50.37617" lon="4.32798">
        <ele>188.991119</ele>
        <time>2022-03-20T10:03:25Z</time>
      </trkpt>
      <trkpt lat="50.37618" lon="4.32784">
        <ele>188.933456</ele>
        <time>2022-03-20T10:03:27Z</time>
      </trkpt>
      <trkpt lat="50.37619" lon="4.32767">
        <ele>188.885422</ele>
        <time>2022-03-20T10:03:29Z</time>
      </trkpt>
      <trkpt lat="50.3762" lon="4.3275">
        <ele>188.817734</ele>
        <time>2022-03-20T10:03:31Z</time>
      </trkpt>
      <trkpt lat="50.37621" lon="4.32735">
        <ele>189.078674</ele>
        <time>2022-03-20T10:03:33Z</time>
      </trkpt>
      <trkpt lat="50.37624" lon="4.32718">
        <ele>188.938522</ele>
        <time>2022-03-20T10:03:35Z</time>
      </trkpt>
      <trkpt lat="50.37628" lon="4.32701">
        <ele>188.677399</ele>
        <time>2022-03-20T10:03:37Z</time>
      </trkpt>
      <trkpt lat="50.37629" lon="4.32683">
        <ele>188.4673</ele>
        <time>2022-03-20T10:03:39Z</time>
      </trkpt>
      <trkpt lat="50.37633" lon="4.32665">
        <ele>188.172775</ele>
        <time>2022-03-20T10:03:41Z</time>
      </trkpt>
      <trkpt lat="50.37635" lon="4.32651">
        <ele>188.045746</ele>
        <time>2022-03-20T10:03:43Z</time>
      </trkpt>
      <trkpt lat="50.37636" lon="4.32637">
        <ele>187.974716</ele>
        <time>2022-03-20T10:03:45Z</time>
      </trkpt>
      <trkpt lat="50.37637" lon="4.3262">
        <ele>187.832672</ele>
        <time>2022-03-20T10:03:47Z</time>
      </trkpt>
      <trkpt lat="50.37639" lon="4.32604">
        <ele>187.502563</ele>
        <time>2022-03-20T10:03:49Z</time>
      </trkpt>
      <trkpt lat="50.37641" lon="4.32588">
        <ele>187.343781</ele>
        <time>2022-03-20T10:03:51Z</time>
      </trkpt>
      <trkpt lat="50.37643" lon="4.32572">
        <ele>187.256042</ele>
        <time>2022-03-20T10:03:53Z</time>
      </trkpt>
      <trkpt lat="50.37647" lon="4.32555">
        <ele>187.028366</ele>
        <time>2022-03-20T10:03:55Z</time>
      </trkpt>
      <trkpt lat="50.3765" lon="4.32541">
        <ele>186.589691</ele>
        <time>2022-03-20T10:03:57Z</time>
      </trkpt>
      <trkpt lat="50.3765" lon="4.32525">
        <ele>186.53537</ele>
        <time>2022-03-20T10:03:59Z</time>
      </trkpt>
      <trkpt lat="50.37653" lon="4.32506">
        <ele>186.458084</ele>
        <time>2022-03-20T10:04:01Z</time>
      </trkpt>
      <trkpt lat="50.37655" lon="4.32492">
        <ele>186.470612</ele>
        <time>2022-03-20T10:04:03Z</time>
      </trkpt>
      <trkpt lat="50.37657" lon="4.32478">
        <ele>186.374634</ele>
        <time>2022-03-20T10:04:05Z</time>
      </trkpt>
      <trkpt lat="50.37659" lon="4.32465">
        <ele>186.167084</ele>
        <time>2022-03-20T10:04:07Z</time>
      </trkpt>
      <trkpt lat="50.37662" lon="4.32449">
        <ele>185.990784</ele>
        <time>2022-03-20T10:04:09Z</time>
      </trkpt>
      <trkpt lat="50.37665" lon="4.32434">
        <ele>185.8759</ele>
        <time>2022-03-20T10:04:11Z</time>
      </trkpt>
      <trkpt lat="50.37667" lon="4.32418">
        <ele>185.620331</ele>
        <time>2022-03-20T10:04:13Z</time>
      </trkpt>
      <trkpt lat="50.37671" lon="4.324">
        <ele>185.51889</ele>
        <time>2022-03-20T10:04:15Z</time>
      </trkpt>
      <trkpt lat="50.37674" lon="4.32385">
        <ele>185.485504</ele>
        <time>2022-03-20T10:04:17Z</time>
      </trkpt>
      <trkpt lat="50.37679" lon="4.32369">
        <ele>185.31424</ele>
        <time>2022-03-20T10:04:19Z</time>
      </trkpt>
      <trkpt lat="50.37681" lon="4.32362">
        <ele>185.176392</ele>
        <time>2022-03-20T10:04:20Z</time>
      </trkpt>
      <trkpt lat="50.37684" lon="4.32354">
        <ele>185.186829</ele>
        <time>2022-03-20T10:04:21Z</time>
      </trkpt>
      <trkpt lat="50.37689" lon="4.32339">
        <ele>185.078247</ele>
        <time>2022-03-20T10:04:23Z</time>
      </trkpt>
      <trkpt lat="50.37695" lon="4.32325">
        <ele>184.896088</ele>
        <time>2022-03-20T10:04:25Z</time>
      </trkpt>
      <trkpt lat="50.377" lon="4.3231">
        <ele>184.641327</ele>
        <time>2022-03-20T10:04:27Z</time>
      </trkpt>
      <trkpt lat="50.37705" lon="4.32295">
        <ele>184.495178</ele>
        <time>2022-03-20T10:04:29Z</time>
      </trkpt>
      <trkpt lat="50.3771" lon="4.32279">
        <ele>184.237518</ele>
        <time>2022-03-20T10:04:31Z</time>
      </trkpt>
      <trkpt lat="50.37715" lon="4.32264">
        <ele>183.930542</ele>
        <time>2022-03-20T10:04:33Z</time>
      </trkpt>
      <trkpt lat="50.3772" lon="4.32248">
        <ele>183.671112</ele>
        <time>2022-03-20T10:04:35Z</time>
      </trkpt>
      <trkpt lat="50.37725" lon="4.32233">
        <ele>183.50174</ele>
        <time>2022-03-20T10:04:37Z</time>
      </trkpt>
      <trkpt lat="50.37729" lon="4.32219">
        <ele>183.272079</ele>
        <time>2022-03-20T10:04:39Z</time>
      </trkpt>
      <trkpt lat="50.37734" lon="4.32204">
        <ele>183.082108</ele>
        <time>2022-03-20T10:04:41Z</time>
      </trkpt>
      <trkpt lat="50.37737" lon="4.3219">
        <ele>182.752213</ele>
        <time>2022-03-20T10:04:43Z</time>
      </trkpt>
      <trkpt lat="50.37742" lon="4.32178">
        <ele>182.415909</ele>
        <time>2022-03-20T10:04:45Z</time>
      </trkpt>
      <trkpt lat="50.37748" lon="4.32166">
        <ele>182.125717</ele>
        <time>2022-03-20T10:04:47Z</time>
      </trkpt>
      <trkpt lat="50.37752" lon="4.32153">
        <ele>181.758255</ele>
        <time>2022-03-20T10:04:49Z</time>
      </trkpt>
      <trkpt lat="50.37756" lon="4.3214">
        <ele>181.357452</ele>
        <time>2022-03-20T10:04:51Z</time>
      </trkpt>
      <trkpt lat="50.3776" lon="4.32128">
        <ele>181.061615</ele>
        <time>2022-03-20T10:04:53Z</time>
      </trkpt>
      <trkpt lat="50.37764" lon="4.32117">
        <ele>180.726654</ele>
        <time>2022-03-20T10:04:55Z</time>
      </trkpt>
      <trkpt lat="50.37764" lon="4.32108">
        <ele>180.377991</ele>
        <time>2022-03-20T10:04:57Z</time>
      </trkpt>
      <trkpt lat="50.37759" lon="4.32101">
        <ele>180.248566</ele>
        <time>2022-03-20T10:04:59Z</time>
      </trkpt>
      <trkpt lat="50.37754" lon="4.32095">
        <ele>179.929169</ele>
        <time>2022-03-20T10:05:01Z</time>
      </trkpt>
      <trkpt lat="50.37747" lon="4.3209">
        <ele>179.715973</ele>
        <time>2022-03-20T10:05:03Z</time>
      </trkpt>
      <trkpt lat="50.37744" lon="4.32087">
        <ele>179.513489</ele>
        <time>2022-03-20T10:05:04Z</time>
      </trkpt>
      <trkpt lat="50.37736" lon="4.32083">
        <ele>179.243973</ele>
        <time>2022-03-20T10:05:06Z</time>
      </trkpt>
      <trkpt lat="50.37727" lon="4.32074">
        <ele>179.033142</ele>
        <time>2022-03-20T10:05:08Z</time>
      </trkpt>
      <trkpt lat="50.37717" lon="4.32061">
        <ele>178.935043</ele>
        <time>2022-03-20T10:05:10Z</time>
      </trkpt>
      <trkpt lat="50.37711" lon="4.32043">
        <ele>178.672882</ele>
        <time>2022-03-20T10:05:12Z</time>
      </trkpt>
      <trkpt lat="50.37708" lon="4.32026">
        <ele>178.405746</ele>
        <time>2022-03-20T10:05:14Z</time>
      </trkpt>
      <trkpt lat="50.37703" lon="4.32009">
        <ele>178.022247</ele>
        <time>2022-03-20T10:05:16Z</time>
      </trkpt>
      <trkpt lat="50.37696" lon="4.31991">
        <ele>177.680206</ele>
        <time>2022-03-20T10:05:18Z</time>
      </trkpt>
      <trkpt lat="50.37686" lon="4.31969">
        <ele>177.375565</ele>
        <time>2022-03-20T10:05:20Z</time>
      </trkpt>
      <trkpt lat="50.37681" lon="4.31953">
        <ele>177.0103</ele>
        <time>2022-03-20T10:05:22Z</time>
      </trkpt>
      <trkpt lat="50.37674" lon="4.31934">
        <ele>176.793259</ele>
        <time>2022-03-20T10:05:24Z</time>
      </trkpt>
      <trkpt lat="50.37669" lon="4.31918">
        <ele>176.501221</ele>
        <time>2022-03-20T10:05:26Z</time>
      </trkpt>
      <trkpt lat="50.37664" lon="4.31902">
        <ele>176.390625</ele>
        <time>2022-03-20T10:05:28Z</time>
      </trkpt>
      <trkpt lat="50.37658" lon="4.31886">
        <ele>176.199249</ele>
        <time>2022-03-20T10:05:30Z</time>
      </trkpt>
      <trkpt lat="50.37653" lon="4.31868">
        <ele>175.928009</ele>
        <time>2022-03-20T10:05:32Z</time>
      </trkpt>
      <trkpt lat="50.37647" lon="4.31848">
        <ele>175.792358</ele>
        <time>2022-03-20T10:05:34Z</time>
      </trkpt>
      <trkpt lat="50.37642" lon="4.31829">
        <ele>175.594147</ele>
        <time>2022-03-20T10:05:36Z</time>
      </trkpt>
      <trkpt lat="50.37638" lon="4.3181">
        <ele>175.313507</ele>
        <time>2022-03-20T10:05:38Z</time>
      </trkpt>
      <trkpt lat="50.37633" lon="4.31793">
        <ele>175.133423</ele>
        <time>2022-03-20T10:05:40Z</time>
      </trkpt>
      <trkpt lat="50.37633" lon="4.31776">
        <ele>175.011398</ele>
        <time>2022-03-20T10:05:42Z</time>
      </trkpt>
      <trkpt lat="50.37629" lon="4.31762">
        <ele>174.67363</ele>
        <time>2022-03-20T10:05:44Z</time>
      </trkpt>
      <trkpt lat="50.37623" lon="4.31758">
        <ele>174.306717</ele>
        <time>2022-03-20T10:05:46Z</time>
      </trkpt>
      <trkpt lat="50.37612" lon="4.31754">
        <ele>174.039673</ele>
        <time>2022-03-20T10:05:48Z</time>
      </trkpt>
      <trkpt lat="50.37605" lon="4.31754">
        <ele>173.935349</ele>
        <time>2022-03-20T10:05:50Z</time>
      </trkpt>
      <trkpt lat="50.37599" lon="4.31754">
        <ele>173.718353</ele>
        <time>2022-03-20T10:05:52Z</time>
      </trkpt>
      <trkpt lat="50.37588" lon="4.31753">
        <ele>173.659958</ele>
        <time>2022-03-20T10:05:54Z</time>
      </trkpt>
      <trkpt lat="50.37578" lon="4.31754">
        <ele>173.443069</ele>
        <time>2022-03-20T10:05:56Z</time>
      </trkpt>
      <trkpt lat="50.3757" lon="4.31757">
        <ele>173.205215</ele>
        <time>2022-03-20T10:05:58Z</time>
      </trkpt>
      <trkpt lat="50.37562" lon="4.31751">
        <ele>173.040176</ele>
        <time>2022-03-20T10:06:00Z</time>
      </trkpt>
      <trkpt lat="50.37557" lon="4.31744">
        <ele>172.959091</ele>
        <time>2022-03-20T10:06:02Z</time>
      </trkpt>
      <trkpt lat="50.37556" lon="4.31737">
        <ele>172.871475</ele>
        <time>2022-03-20T10:06:04Z</time>
      </trkpt>
      <trkpt lat="50.37552" lon="4.31726">
        <ele>172.571136</ele>
        <time>2022-03-20T10:06:06Z</time>
      </trkpt>
      <trkpt lat="50.37549" lon="4.31715">
        <ele>172.258118</ele>
        <time>2022-03-20T10:06:08Z</time>
      </trkpt>
      <trkpt lat="50.37547" lon="4.31703">
        <ele>171.982208</ele>
        <time>2022-03-20T10:06:10Z</time>
      </trkpt>
      <trkpt lat="50.37544" lon="4.31692">
        <ele>171.736145</ele>
        <time>2022-03-20T10:06:12Z</time>
      </trkpt>
      <trkpt lat="50.37539" lon="4.3168">
        <ele>171.50882</ele>
        <time>2022-03-20T10:06:14Z</time>
      </trkpt>
      <trkpt lat="50.37532" lon="4.31667">
        <ele>171.207413</ele>
        <time>2022-03-20T10:06:16Z</time>
      </trkpt>
      <trkpt lat="50.37528" lon="4.31657">
        <ele>171.103012</ele>
        <time>2022-03-20T10:06:18Z</time>
      </trkpt>
      <trkpt lat="50.37524" lon="4.31649">
        <ele>170.802719</ele>
        <time>2022-03-20T10:06:20Z</time>
      </trkpt>
      <trkpt lat="50.37523" lon="4.31642">
        <ele>170.512344</ele>
        <time>2022-03-20T10:06:22Z</time>
      </trkpt>
      <trkpt lat="50.37518" lon="4.31632">
        <ele>170.224518</ele>
        <time>2022-03-20T10:06:24Z</time>
      </trkpt>
      <trkpt lat="50.37515" lon="4.31625">
        <ele>170.03685</ele>
        <time>2022-03-20T10:06:26Z</time>
      </trkpt>
      <trkpt lat="50.3751" lon="4.31616">
        <ele>169.728165</ele>
        <time>2022-03-20T10:06:28Z</time>
      </trkpt>
      <trkpt lat="50.37503" lon="4.31605">
        <ele>169.600433</ele>
        <time>2022-03-20T10:06:30Z</time>
      </trkpt>
      <trkpt lat="50.37497" lon="4.31591">
        <ele>169.335556</ele>
        <time>2022-03-20T10:06:32Z</time>
      </trkpt>
      <trkpt lat="50.37491" lon="4.31572">
        <ele>168.970276</ele>
        <time>2022-03-20T10:06:34Z</time>
      </trkpt>
      <trkpt lat="50.37485" lon="4.31553">
        <ele>168.778458</ele>
        <time>2022-03-20T10:06:36Z</time>
      </trkpt>
      <trkpt lat="50.37479" lon="4.31537">
        <ele>168.588699</ele>
        <time>2022-03-20T10:06:38Z</time>
      </trkpt>
      <trkpt lat="50.37469" lon="4.3152">
        <ele>168.47612</ele>
        <time>2022-03-20T10:06:40Z</time>
      </trkpt>
      <trkpt lat="50.37461" lon="4.31505">
        <ele>168.073975</ele>
        <time>2022-03-20T10:06:42Z</time>
      </trkpt>
      <trkpt lat="50.37454" lon="4.31487">
        <ele>167.592133</ele>
        <time>2022-03-20T10:06:44Z</time>
      </trkpt>
      <trkpt lat="50.37447" lon="4.31469">
        <ele>167.586456</ele>
        <time>2022-03-20T10:06:46Z</time>
      </trkpt>
      <trkpt lat="50.37444" lon="4.31454">
        <ele>167.485352</ele>
        <time>2022-03-20T10:06:48Z</time>
      </trkpt>
      <trkpt lat="50.37439" lon="4.31441">
        <ele>167.529984</ele>
        <time>2022-03-20T10:06:50Z</time>
      </trkpt>
      <trkpt lat="50.37435" lon="4.31426">
        <ele>167.330734</ele>
        <time>2022-03-20T10:06:52Z</time>
      </trkpt>
      <trkpt lat="50.3743" lon="4.3141">
        <ele>167.277863</ele>
        <time>2022-03-20T10:06:54Z</time>
      </trkpt>
      <trkpt lat="50.37425" lon="4.31396">
        <ele>167.27681</ele>
        <time>2022-03-20T10:06:56Z</time>
      </trkpt>
      <trkpt lat="50.37419" lon="4.3138">
        <ele>167.249802</ele>
        <time>2022-03-20T10:06:58Z</time>
      </trkpt>
      <trkpt lat="50.37413" lon="4.3136">
        <ele>167.131912</ele>
        <time>2022-03-20T10:07:00Z</time>
      </trkpt>
      <trkpt lat="50.37409" lon="4.3134">
        <ele>167.242432</ele>
        <time>2022-03-20T10:07:02Z</time>
      </trkpt>
      <trkpt lat="50.37405" lon="4.31327">
        <ele>167.238251</ele>
        <time>2022-03-20T10:07:04Z</time>
      </trkpt>
      <trkpt lat="50.37402" lon="4.31315">
        <ele>167.342529</ele>
        <time>2022-03-20T10:07:06Z</time>
      </trkpt>
      <trkpt lat="50.37399" lon="4.31301">
        <ele>167.367523</ele>
        <time>2022-03-20T10:07:08Z</time>
      </trkpt>
      <trkpt lat="50.37398" lon="4.31287">
        <ele>167.390991</ele>
        <time>2022-03-20T10:07:10Z</time>
      </trkpt>
      <trkpt lat="50.37398" lon="4.31275">
        <ele>167.426437</ele>
        <time>2022-03-20T10:07:12Z</time>
      </trkpt>
      <trkpt lat="50.37399" lon="4.31263">
        <ele>167.477203</ele>
        <time>2022-03-20T10:07:14Z</time>
      </trkpt>
      <trkpt lat="50.37397" lon="4.31248">
        <ele>167.55896</ele>
        <time>2022-03-20T10:07:16Z</time>
      </trkpt>
      <trkpt lat="50.37394" lon="4.31234">
        <ele>167.594406</ele>
        <time>2022-03-20T10:07:18Z</time>
      </trkpt>
      <trkpt lat="50.37393" lon="4.31222">
        <ele>167.661133</ele>
        <time>2022-03-20T10:07:20Z</time>
      </trkpt>
      <trkpt lat="50.37391" lon="4.31212">
        <ele>167.975464</ele>
        <time>2022-03-20T10:07:22Z</time>
      </trkpt>
      <trkpt lat="50.37388" lon="4.31199">
        <ele>168.290192</ele>
        <time>2022-03-20T10:07:24Z</time>
      </trkpt>
      <trkpt lat="50.37386" lon="4.31186">
        <ele>168.460602</ele>
        <time>2022-03-20T10:07:26Z</time>
      </trkpt>
      <trkpt lat="50.37384" lon="4.31175">
        <ele>168.462677</ele>
        <time>2022-03-20T10:07:28Z</time>
      </trkpt>
      <trkpt lat="50.37384" lon="4.31162">
        <ele>168.655762</ele>
        <time>2022-03-20T10:07:30Z</time>
      </trkpt>
      <trkpt lat="50.37381" lon="4.3115">
        <ele>168.756989</ele>
        <time>2022-03-20T10:07:32Z</time>
      </trkpt>
      <trkpt lat="50.3738" lon="4.31139">
        <ele>168.923798</ele>
        <time>2022-03-20T10:07:34Z</time>
      </trkpt>
      <trkpt lat="50.37378" lon="4.31128">
        <ele>169.03299</ele>
        <time>2022-03-20T10:07:36Z</time>
      </trkpt>
      <trkpt lat="50.37375" lon="4.31116">
        <ele>169.118591</ele>
        <time>2022-03-20T10:07:38Z</time>
      </trkpt>
      <trkpt lat="50.37374" lon="4.31105">
        <ele>169.28334</ele>
        <time>2022-03-20T10:07:40Z</time>
      </trkpt>
      <trkpt lat="50.37372" lon="4.31093">
        <ele>169.400146</ele>
        <time>2022-03-20T10:07:42Z</time>
      </trkpt>
      <trkpt lat="50.37371" lon="4.3108">
        <ele>169.579498</ele>
        <time>2022-03-20T10:07:44Z</time>
      </trkpt>
      <trkpt lat="50.37369" lon="4.31067">
        <ele>169.677521</ele>
        <time>2022-03-20T10:07:46Z</time>
      </trkpt>
      <trkpt lat="50.37367" lon="4.31056">
        <ele>169.95697</ele>
        <time>2022-03-20T10:07:48Z</time>
      </trkpt>
      <trkpt lat="50.37366" lon="4.31045">
        <ele>170.090439</ele>
        <time>2022-03-20T10:07:50Z</time>
      </trkpt>
      <trkpt lat="50.37364" lon="4.31033">
        <ele>170.347</ele>
        <time>2022-03-20T10:07:52Z</time>
      </trkpt>
      <trkpt lat="50.37363" lon="4.31023">
        <ele>170.643158</ele>
        <time>2022-03-20T10:07:54Z</time>
      </trkpt>
      <trkpt lat="50.37361" lon="4.31011">
        <ele>170.763367</ele>
        <time>2022-03-20T10:07:56Z</time>
      </trkpt>
      <trkpt lat="50.3736" lon="4.31004">
        <ele>170.857025</ele>
        <time>2022-03-20T10:07:57Z</time>
      </trkpt>
      <trkpt lat="50.37359" lon="4.30992">
        <ele>171.142258</ele>
        <time>2022-03-20T10:07:59Z</time>
      </trkpt>
      <trkpt lat="50.37357" lon="4.30981">
        <ele>171.372086</ele>
        <time>2022-03-20T10:08:01Z</time>
      </trkpt>
      <trkpt lat="50.37355" lon="4.30967">
        <ele>171.608231</ele>
        <time>2022-03-20T10:08:03Z</time>
      </trkpt>
      <trkpt lat="50.37352" lon="4.30955">
        <ele>171.891876</ele>
        <time>2022-03-20T10:08:05Z</time>
      </trkpt>
      <trkpt lat="50.37351" lon="4.30942">
        <ele>172.202682</ele>
        <time>2022-03-20T10:08:07Z</time>
      </trkpt>
      <trkpt lat="50.37351" lon="4.30931">
        <ele>172.408112</ele>
        <time>2022-03-20T10:08:09Z</time>
      </trkpt>
      <trkpt lat="50.37349" lon="4.30919">
        <ele>172.583069</ele>
        <time>2022-03-20T10:08:11Z</time>
      </trkpt>
      <trkpt lat="50.37346" lon="4.30907">
        <ele>172.916855</ele>
        <time>2022-03-20T10:08:13Z</time>
      </trkpt>
      <trkpt lat="50.37344" lon="4.30894">
        <ele>173.064957</ele>
        <time>2022-03-20T10:08:15Z</time>
      </trkpt>
      <trkpt lat="50.37343" lon="4.30881">
        <ele>173.179688</ele>
        <time>2022-03-20T10:08:17Z</time>
      </trkpt>
      <trkpt lat="50.37341" lon="4.30869">
        <ele>173.415375</ele>
        <time>2022-03-20T10:08:19Z</time>
      </trkpt>
      <trkpt lat="50.37339" lon="4.30857">
        <ele>173.721954</ele>
        <time>2022-03-20T10:08:21Z</time>
      </trkpt>
      <trkpt lat="50.37336" lon="4.30844">
        <ele>173.84346</ele>
        <time>2022-03-20T10:08:23Z</time>
      </trkpt>
      <trkpt lat="50.37333" lon="4.30831">
        <ele>174.099289</ele>
        <time>2022-03-20T10:08:25Z</time>
      </trkpt>
      <trkpt lat="50.37333" lon="4.30819">
        <ele>174.364243</ele>
        <time>2022-03-20T10:08:27Z</time>
      </trkpt>
      <trkpt lat="50.37333" lon="4.30807">
        <ele>174.602112</ele>
        <time>2022-03-20T10:08:29Z</time>
      </trkpt>
      <trkpt lat="50.37332" lon="4.30795">
        <ele>174.83371</ele>
        <time>2022-03-20T10:08:31Z</time>
      </trkpt>
      <trkpt lat="50.37334" lon="4.30783">
        <ele>174.958221</ele>
        <time>2022-03-20T10:08:33Z</time>
      </trkpt>
      <trkpt lat="50.37336" lon="4.30773">
        <ele>175.175247</ele>
        <time>2022-03-20T10:08:35Z</time>
      </trkpt>
      <trkpt lat="50.37338" lon="4.30763">
        <ele>175.613373</ele>
        <time>2022-03-20T10:08:37Z</time>
      </trkpt>
      <trkpt lat="50.37339" lon="4.3075">
        <ele>175.95401</ele>
        <time>2022-03-20T10:08:39Z</time>
      </trkpt>
      <trkpt lat="50.37339" lon="4.30738">
        <ele>175.84549</ele>
        <time>2022-03-20T10:08:41Z</time>
      </trkpt>
      <trkpt lat="50.37339" lon="4.30725">
        <ele>176.104126</ele>
        <time>2022-03-20T10:08:43Z</time>
      </trkpt>
      <trkpt lat="50.37339" lon="4.30712">
        <ele>176.356644</ele>
        <time>2022-03-20T10:08:45Z</time>
      </trkpt>
      <trkpt lat="50.3734" lon="4.30699">
        <ele>176.623749</ele>
        <time>2022-03-20T10:08:47Z</time>
      </trkpt>
      <trkpt lat="50.37342" lon="4.30691">
        <ele>176.642532</ele>
        <time>2022-03-20T10:08:48Z</time>
      </trkpt>
      <trkpt lat="50.37343" lon="4.30679">
        <ele>176.917984</ele>
        <time>2022-03-20T10:08:50Z</time>
      </trkpt>
      <trkpt lat="50.37346" lon="4.30664">
        <ele>177.024658</ele>
        <time>2022-03-20T10:08:52Z</time>
      </trkpt>
      <trkpt lat="50.37349" lon="4.30652">
        <ele>177.298035</ele>
        <time>2022-03-20T10:08:54Z</time>
      </trkpt>
      <trkpt lat="50.37348" lon="4.30636">
        <ele>177.627869</ele>
        <time>2022-03-20T10:08:56Z</time>
      </trkpt>
      <trkpt lat="50.37348" lon="4.30622">
        <ele>177.930481</ele>
        <time>2022-03-20T10:08:58Z</time>
      </trkpt>
      <trkpt lat="50.37349" lon="4.30609">
        <ele>178.281097</ele>
        <time>2022-03-20T10:09:00Z</time>
      </trkpt>
      <trkpt lat="50.37349" lon="4.30595">
        <ele>178.446991</ele>
        <time>2022-03-20T10:09:02Z</time>
      </trkpt>
      <trkpt lat="50.37349" lon="4.30581">
        <ele>178.202652</ele>
        <time>2022-03-20T10:09:04Z</time>
      </trkpt>
      <trkpt lat="50.37348" lon="4.30568">
        <ele>178.997162</ele>
        <time>2022-03-20T10:09:06Z</time>
      </trkpt>
      <trkpt lat="50.37347" lon="4.30555">
        <ele>179.374969</ele>
        <time>2022-03-20T10:09:08Z</time>
      </trkpt>
      <trkpt lat="50.37345" lon="4.3054">
        <ele>179.608795</ele>
        <time>2022-03-20T10:09:10Z</time>
      </trkpt>
      <trkpt lat="50.37342" lon="4.30526">
        <ele>179.99501</ele>
        <time>2022-03-20T10:09:12Z</time>
      </trkpt>
      <trkpt lat="50.37341" lon="4.30514">
        <ele>180.320099</ele>
        <time>2022-03-20T10:09:14Z</time>
      </trkpt>
      <trkpt lat="50.37339" lon="4.305">
        <ele>180.582657</ele>
        <time>2022-03-20T10:09:16Z</time>
      </trkpt>
      <trkpt lat="50.37336" lon="4.30486">
        <ele>180.609818</ele>
        <time>2022-03-20T10:09:18Z</time>
      </trkpt>
      <trkpt lat="50.37333" lon="4.30474">
        <ele>180.787277</ele>
        <time>2022-03-20T10:09:20Z</time>
      </trkpt>
      <trkpt lat="50.3733" lon="4.30462">
        <ele>181.360855</ele>
        <time>2022-03-20T10:09:22Z</time>
      </trkpt>
      <trkpt lat="50.37325" lon="4.30449">
        <ele>181.632416</ele>
        <time>2022-03-20T10:09:24Z</time>
      </trkpt>
      <trkpt lat="50.37323" lon="4.30437">
        <ele>181.684601</ele>
        <time>2022-03-20T10:09:26Z</time>
      </trkpt>
      <trkpt lat="50.3732" lon="4.30427">
        <ele>181.98732</ele>
        <time>2022-03-20T10:09:28Z</time>
      </trkpt>
      <trkpt lat="50.37313" lon="4.30412">
        <ele>182.118835</ele>
        <time>2022-03-20T10:09:30Z</time>
      </trkpt>
      <trkpt lat="50.37308" lon="4.30399">
        <ele>182.279816</ele>
        <time>2022-03-20T10:09:32Z</time>
      </trkpt>
      <trkpt lat="50.37302" lon="4.30386">
        <ele>182.476044</ele>
        <time>2022-03-20T10:09:34Z</time>
      </trkpt>
      <trkpt lat="50.37298" lon="4.30375">
        <ele>182.46347</ele>
        <time>2022-03-20T10:09:36Z</time>
      </trkpt>
      <trkpt lat="50.37293" lon="4.30366">
        <ele>182.570175</ele>
        <time>2022-03-20T10:09:38Z</time>
      </trkpt>
      <trkpt lat="50.37287" lon="4.30354">
        <ele>182.071793</ele>
        <time>2022-03-20T10:09:40Z</time>
      </trkpt>
      <trkpt lat="50.37282" lon="4.30339">
        <ele>182.05304</ele>
        <time>2022-03-20T10:09:42Z</time>
      </trkpt>
      <trkpt lat="50.37276" lon="4.30325">
        <ele>183.088516</ele>
        <time>2022-03-20T10:09:44Z</time>
      </trkpt>
      <trkpt lat="50.37272" lon="4.30313">
        <ele>182.628693</ele>
        <time>2022-03-20T10:09:46Z</time>
      </trkpt>
      <trkpt lat="50.37268" lon="4.30301">
        <ele>182.574402</ele>
        <time>2022-03-20T10:09:48Z</time>
      </trkpt>
      <trkpt lat="50.37265" lon="4.30291">
        <ele>182.492981</ele>
        <time>2022-03-20T10:09:50Z</time>
      </trkpt>
      <trkpt lat="50.37262" lon="4.3028">
        <ele>182.831604</ele>
        <time>2022-03-20T10:09:52Z</time>
      </trkpt>
      <trkpt lat="50.3726" lon="4.30271">
        <ele>183.746231</ele>
        <time>2022-03-20T10:09:54Z</time>
      </trkpt>
      <trkpt lat="50.37257" lon="4.30262">
        <ele>184.30954</ele>
        <time>2022-03-20T10:09:56Z</time>
      </trkpt>
      <trkpt lat="50.37254" lon="4.30252">
        <ele>184.963898</ele>
        <time>2022-03-20T10:09:58Z</time>
      </trkpt>
      <trkpt lat="50.37253" lon="4.3024">
        <ele>184.406998</ele>
        <time>2022-03-20T10:10:00Z</time>
      </trkpt>
      <trkpt lat="50.37254" lon="4.30231">
        <ele>183.714417</ele>
        <time>2022-03-20T10:10:02Z</time>
      </trkpt>
      <trkpt lat="50.37259" lon="4.30225">
        <ele>184.007172</ele>
        <time>2022-03-20T10:10:04Z</time>
      </trkpt>
      <trkpt lat="50.37262" lon="4.30222">
        <ele>183.954971</ele>
        <time>2022-03-20T10:10:05Z</time>
      </trkpt>
      <trkpt lat="50.37267" lon="4.30216">
        <ele>183.890259</ele>
        <time>2022-03-20T10:10:07Z</time>
      </trkpt>
      <trkpt lat="50.37274" lon="4.30212">
        <ele>183.86319</ele>
        <time>2022-03-20T10:10:09Z</time>
      </trkpt>
      <trkpt lat="50.37281" lon="4.30209">
        <ele>183.773407</ele>
        <time>2022-03-20T10:10:11Z</time>
      </trkpt>
      <trkpt lat="50.37287" lon="4.30205">
        <ele>183.700119</ele>
        <time>2022-03-20T10:10:13Z</time>
      </trkpt>
      <trkpt lat="50.37291" lon="4.30203">
        <ele>183.716827</ele>
        <time>2022-03-20T10:10:15Z</time>
      </trkpt>
      <trkpt lat="50.37297" lon="4.302">
        <ele>184.251816</ele>
        <time>2022-03-20T10:10:17Z</time>
      </trkpt>
      <trkpt lat="50.37303" lon="4.302">
        <ele>184.341354</ele>
        <time>2022-03-20T10:10:19Z</time>
      </trkpt>
      <trkpt lat="50.37309" lon="4.30199">
        <ele>184.720795</ele>
        <time>2022-03-20T10:10:21Z</time>
      </trkpt>
      <trkpt lat="50.37315" lon="4.30198">
        <ele>184.826218</ele>
        <time>2022-03-20T10:10:23Z</time>
      </trkpt>
      <trkpt lat="50.37322" lon="4.30196">
        <ele>184.454147</ele>
        <time>2022-03-20T10:10:25Z</time>
      </trkpt>
      <trkpt lat="50.3733" lon="4.30195">
        <ele>184.46666</ele>
        <time>2022-03-20T10:10:27Z</time>
      </trkpt>
      <trkpt lat="50.37336" lon="4.30192">
        <ele>184.525131</ele>
        <time>2022-03-20T10:10:29Z</time>
      </trkpt>
      <trkpt lat="50.37342" lon="4.30189">
        <ele>184.72142</ele>
        <time>2022-03-20T10:10:31Z</time>
      </trkpt>
      <trkpt lat="50.37347" lon="4.30187">
        <ele>184.418289</ele>
        <time>2022-03-20T10:10:33Z</time>
      </trkpt>
      <trkpt lat="50.37353" lon="4.30183">
        <ele>183.634399</ele>
        <time>2022-03-20T10:10:35Z</time>
      </trkpt>
      <trkpt lat="50.3736" lon="4.30182">
        <ele>183.178757</ele>
        <time>2022-03-20T10:10:37Z</time>
      </trkpt>
      <trkpt lat="50.37367" lon="4.30182">
        <ele>182.728027</ele>
        <time>2022-03-20T10:10:39Z</time>
      </trkpt>
      <trkpt lat="50.37373" lon="4.30181">
        <ele>183.253754</ele>
        <time>2022-03-20T10:10:41Z</time>
      </trkpt>
      <trkpt lat="50.37381" lon="4.3018">
        <ele>183.946335</ele>
        <time>2022-03-20T10:10:43Z</time>
      </trkpt>
      <trkpt lat="50.37387" lon="4.3018">
        <ele>184.186447</ele>
        <time>2022-03-20T10:10:45Z</time>
      </trkpt>
      <trkpt lat="50.37395" lon="4.3018">
        <ele>184.001678</ele>
        <time>2022-03-20T10:10:47Z</time>
      </trkpt>
      <trkpt lat="50.37403" lon="4.30179">
        <ele>184.276962</ele>
        <time>2022-03-20T10:10:49Z</time>
      </trkpt>
      <trkpt lat="50.3741" lon="4.30178">
        <ele>184.565155</ele>
        <time>2022-03-20T10:10:51Z</time>
      </trkpt>
      <trkpt lat="50.37417" lon="4.30176">
        <ele>184.878387</ele>
        <time>2022-03-20T10:10:53Z</time>
      </trkpt>
      <trkpt lat="50.37423" lon="4.30173">
        <ele>185.003677</ele>
        <time>2022-03-20T10:10:55Z</time>
      </trkpt>
      <trkpt lat="50.37426" lon="4.3017">
        <ele>185.185394</ele>
        <time>2022-03-20T10:10:56Z</time>
      </trkpt>
      <trkpt lat="50.37433" lon="4.30167">
        <ele>184.869644</ele>
        <time>2022-03-20T10:10:58Z</time>
      </trkpt>
      <trkpt lat="50.37439" lon="4.30168">
        <ele>184.955292</ele>
        <time>2022-03-20T10:11:00Z</time>
      </trkpt>
      <trkpt lat="50.37445" lon="4.3017">
        <ele>185.218323</ele>
        <time>2022-03-20T10:11:02Z</time>
      </trkpt>
      <trkpt lat="50.37453" lon="4.3017">
        <ele>185.450165</ele>
        <time>2022-03-20T10:11:04Z</time>
      </trkpt>
      <trkpt lat="50.37461" lon="4.3017">
        <ele>185.784363</ele>
        <time>2022-03-20T10:11:06Z</time>
      </trkpt>
      <trkpt lat="50.3747" lon="4.3017">
        <ele>185.995697</ele>
        <time>2022-03-20T10:11:08Z</time>
      </trkpt>
      <trkpt lat="50.37479" lon="4.30167">
        <ele>186.223328</ele>
        <time>2022-03-20T10:11:10Z</time>
      </trkpt>
      <trkpt lat="50.3749" lon="4.30168">
        <ele>186.332291</ele>
        <time>2022-03-20T10:11:12Z</time>
      </trkpt>
      <trkpt lat="50.37498" lon="4.30167">
        <ele>186.482681</ele>
        <time>2022-03-20T10:11:14Z</time>
      </trkpt>
      <trkpt lat="50.37508" lon="4.30165">
        <ele>186.557877</ele>
        <time>2022-03-20T10:11:16Z</time>
      </trkpt>
      <trkpt lat="50.37517" lon="4.30163">
        <ele>186.729889</ele>
        <time>2022-03-20T10:11:18Z</time>
      </trkpt>
      <trkpt lat="50.37526" lon="4.30163">
        <ele>186.759125</ele>
        <time>2022-03-20T10:11:20Z</time>
      </trkpt>
      <trkpt lat="50.37536" lon="4.30154">
        <ele>187.013412</ele>
        <time>2022-03-20T10:11:22Z</time>
      </trkpt>
      <trkpt lat="50.37544" lon="4.30146">
        <ele>187.184692</ele>
        <time>2022-03-20T10:11:24Z</time>
      </trkpt>
      <trkpt lat="50.37552" lon="4.30136">
        <ele>187.416336</ele>
        <time>2022-03-20T10:11:26Z</time>
      </trkpt>
      <trkpt lat="50.37561" lon="4.3013">
        <ele>187.50473</ele>
        <time>2022-03-20T10:11:28Z</time>
      </trkpt>
      <trkpt lat="50.37571" lon="4.30121">
        <ele>187.596909</ele>
        <time>2022-03-20T10:11:30Z</time>
      </trkpt>
      <trkpt lat="50.37579" lon="4.30114">
        <ele>187.755707</ele>
        <time>2022-03-20T10:11:32Z</time>
      </trkpt>
      <trkpt lat="50.37589" lon="4.3011">
        <ele>187.899841</ele>
        <time>2022-03-20T10:11:34Z</time>
      </trkpt>
      <trkpt lat="50.37598" lon="4.30108">
        <ele>188.031448</ele>
        <time>2022-03-20T10:11:36Z</time>
      </trkpt>
      <trkpt lat="50.37605" lon="4.30103">
        <ele>188.201752</ele>
        <time>2022-03-20T10:11:38Z</time>
      </trkpt>
      <trkpt lat="50.37608" lon="4.30098">
        <ele>188.446167</ele>
        <time>2022-03-20T10:11:40Z</time>
      </trkpt>
      <trkpt lat="50.37608" lon="4.3009">
        <ele>188.623749</ele>
        <time>2022-03-20T10:11:42Z</time>
      </trkpt>
      <trkpt lat="50.37608" lon="4.30077">
        <ele>188.753693</ele>
        <time>2022-03-20T10:11:44Z</time>
      </trkpt>
      <trkpt lat="50.37609" lon="4.30065">
        <ele>188.824692</ele>
        <time>2022-03-20T10:11:46Z</time>
      </trkpt>
      <trkpt lat="50.3761" lon="4.3006">
        <ele>188.753647</ele>
        <time>2022-03-20T10:11:47Z</time>
      </trkpt>
      <trkpt lat="50.37612" lon="4.30045">
        <ele>188.970551</ele>
        <time>2022-03-20T10:11:49Z</time>
      </trkpt>
      <trkpt lat="50.37614" lon="4.30031">
        <ele>189.158569</ele>
        <time>2022-03-20T10:11:51Z</time>
      </trkpt>
      <trkpt lat="50.37615" lon="4.30017">
        <ele>189.193726</ele>
        <time>2022-03-20T10:11:53Z</time>
      </trkpt>
      <trkpt lat="50.37616" lon="4.30003">
        <ele>189.275192</ele>
        <time>2022-03-20T10:11:55Z</time>
      </trkpt>
      <trkpt lat="50.37617" lon="4.29988">
        <ele>189.344391</ele>
        <time>2022-03-20T10:11:57Z</time>
      </trkpt>
      <trkpt lat="50.37616" lon="4.29974">
        <ele>189.48645</ele>
        <time>2022-03-20T10:11:59Z</time>
      </trkpt>
      <trkpt lat="50.37616" lon="4.29961">
        <ele>189.622757</ele>
        <time>2022-03-20T10:12:01Z</time>
      </trkpt>
      <trkpt lat="50.37616" lon="4.29947">
        <ele>189.639481</ele>
        <time>2022-03-20T10:12:03Z</time>
      </trkpt>
      <trkpt lat="50.37616" lon="4.29934">
        <ele>189.713211</ele>
        <time>2022-03-20T10:12:05Z</time>
      </trkpt>
      <trkpt lat="50.37616" lon="4.29924">
        <ele>189.828354</ele>
        <time>2022-03-20T10:12:07Z</time>
      </trkpt>
      <trkpt lat="50.37619" lon="4.29915">
        <ele>189.849243</ele>
        <time>2022-03-20T10:12:09Z</time>
      </trkpt>
      <trkpt lat="50.37624" lon="4.29912">
        <ele>189.985672</ele>
        <time>2022-03-20T10:12:11Z</time>
      </trkpt>
      <trkpt lat="50.37635" lon="4.2991">
        <ele>189.891647</ele>
        <time>2022-03-20T10:12:13Z</time>
      </trkpt>
      <trkpt lat="50.37646" lon="4.29907">
        <ele>189.937439</ele>
        <time>2022-03-20T10:12:15Z</time>
      </trkpt>
      <trkpt lat="50.37658" lon="4.29904">
        <ele>189.278076</ele>
        <time>2022-03-20T10:12:17Z</time>
      </trkpt>
      <trkpt lat="50.37668" lon="4.29899">
        <ele>189.301056</ele>
        <time>2022-03-20T10:12:19Z</time>
      </trkpt>
      <trkpt lat="50.37675" lon="4.29895">
        <ele>189.183167</ele>
        <time>2022-03-20T10:12:21Z</time>
      </trkpt>
      <trkpt lat="50.3768" lon="4.29891">
        <ele>189.178909</ele>
        <time>2022-03-20T10:12:23Z</time>
      </trkpt>
      <trkpt lat="50.37684" lon="4.29888">
        <ele>189.1129</ele>
        <time>2022-03-20T10:12:25Z</time>
      </trkpt>
      <trkpt lat="50.37685" lon="4.29888">
        <ele>189.166229</ele>
        <time>2022-03-20T10:12:27Z</time>
      </trkpt>
      <trkpt lat="50.3769" lon="4.2988">
        <ele>188.465134</ele>
        <time>2022-03-20T10:13:02Z</time>
      </trkpt>
      <trkpt lat="50.37705" lon="4.2986">
        <ele>188.329422</ele>
        <time>2022-03-20T10:13:04Z</time>
      </trkpt>
      <trkpt lat="50.37711" lon="4.29856">
        <ele>188.238007</ele>
        <time>2022-03-20T10:13:06Z</time>
      </trkpt>
      <trkpt lat="50.37714" lon="4.29853">
        <ele>188.115768</ele>
        <time>2022-03-20T10:13:08Z</time>
      </trkpt>
      <trkpt lat="50.37718" lon="4.29851">
        <ele>187.913284</ele>
        <time>2022-03-20T10:13:10Z</time>
      </trkpt>
      <trkpt lat="50.37724" lon="4.29849">
        <ele>187.761688</ele>
        <time>2022-03-20T10:13:12Z</time>
      </trkpt>
      <trkpt lat="50.37727" lon="4.29847">
        <ele>187.654572</ele>
        <time>2022-03-20T10:13:14Z</time>
      </trkpt>
      <trkpt lat="50.37733" lon="4.29843">
        <ele>187.53537</ele>
        <time>2022-03-20T10:13:16Z</time>
      </trkpt>
      <trkpt lat="50.37738" lon="4.29839">
        <ele>187.394257</ele>
        <time>2022-03-20T10:13:18Z</time>
      </trkpt>
      <trkpt lat="50.37743" lon="4.29836">
        <ele>187.289154</ele>
        <time>2022-03-20T10:13:20Z</time>
      </trkpt>
      <trkpt lat="50.37748" lon="4.29832">
        <ele>187.096268</ele>
        <time>2022-03-20T10:13:22Z</time>
      </trkpt>
      <trkpt lat="50.37754" lon="4.29828">
        <ele>186.89798</ele>
        <time>2022-03-20T10:13:24Z</time>
      </trkpt>
      <trkpt lat="50.37761" lon="4.29823">
        <ele>186.902161</ele>
        <time>2022-03-20T10:13:26Z</time>
      </trkpt>
      <trkpt lat="50.37767" lon="4.2982">
        <ele>186.781006</ele>
        <time>2022-03-20T10:13:28Z</time>
      </trkpt>
      <trkpt lat="50.37773" lon="4.29818">
        <ele>186.663849</ele>
        <time>2022-03-20T10:13:30Z</time>
      </trkpt>
      <trkpt lat="50.3778" lon="4.29815">
        <ele>186.576126</ele>
        <time>2022-03-20T10:13:32Z</time>
      </trkpt>
      <trkpt lat="50.37786" lon="4.29812">
        <ele>186.497223</ele>
        <time>2022-03-20T10:13:34Z</time>
      </trkpt>
      <trkpt lat="50.37794" lon="4.29809">
        <ele>186.37085</ele>
        <time>2022-03-20T10:13:36Z</time>
      </trkpt>
      <trkpt lat="50.37802" lon="4.29808">
        <ele>186.262238</ele>
        <time>2022-03-20T10:13:38Z</time>
      </trkpt>
      <trkpt lat="50.37809" lon="4.29807">
        <ele>186.196503</ele>
        <time>2022-03-20T10:13:40Z</time>
      </trkpt>
      <trkpt lat="50.37817" lon="4.29804">
        <ele>186.095428</ele>
        <time>2022-03-20T10:13:42Z</time>
      </trkpt>
      <trkpt lat="50.37826" lon="4.29799">
        <ele>185.867676</ele>
        <time>2022-03-20T10:13:44Z</time>
      </trkpt>
      <trkpt lat="50.37835" lon="4.29795">
        <ele>185.769501</ele>
        <time>2022-03-20T10:13:46Z</time>
      </trkpt>
      <trkpt lat="50.37842" lon="4.29792">
        <ele>185.672318</ele>
        <time>2022-03-20T10:13:48Z</time>
      </trkpt>
      <trkpt lat="50.3785" lon="4.29792">
        <ele>185.511505</ele>
        <time>2022-03-20T10:13:50Z</time>
      </trkpt>
      <trkpt lat="50.37855" lon="4.29793">
        <ele>185.870926</ele>
        <time>2022-03-20T10:13:52Z</time>
      </trkpt>
      <trkpt lat="50.37862" lon="4.2979">
        <ele>185.746201</ele>
        <time>2022-03-20T10:13:54Z</time>
      </trkpt>
      <trkpt lat="50.37869" lon="4.29788">
        <ele>185.659271</ele>
        <time>2022-03-20T10:13:56Z</time>
      </trkpt>
      <trkpt lat="50.37874" lon="4.29785">
        <ele>185.592438</ele>
        <time>2022-03-20T10:13:58Z</time>
      </trkpt>
      <trkpt lat="50.37877" lon="4.29785">
        <ele>185.495438</ele>
        <time>2022-03-20T10:14:00Z</time>
      </trkpt>
      <trkpt lat="50.37883" lon="4.29783">
        <ele>179.629547</ele>
        <time>2022-03-20T10:22:45Z</time>
      </trkpt>
      <trkpt lat="50.37889" lon="4.29771">
        <ele>179.575287</ele>
        <time>2022-03-20T10:22:47Z</time>
      </trkpt>
      <trkpt lat="50.37888" lon="4.29768">
        <ele>179.46257</ele>
        <time>2022-03-20T10:22:49Z</time>
      </trkpt>
      <trkpt lat="50.37885" lon="4.29762">
        <ele>179.376968</ele>
        <time>2022-03-20T10:22:51Z</time>
      </trkpt>
      <trkpt lat="50.37882" lon="4.29757">
        <ele>179.280945</ele>
        <time>2022-03-20T10:22:53Z</time>
      </trkpt>
      <trkpt lat="50.3788" lon="4.29751">
        <ele>179.266342</ele>
        <time>2022-03-20T10:22:55Z</time>
      </trkpt>
      <trkpt lat="50.37878" lon="4.29745">
        <ele>179.237122</ele>
        <time>2022-03-20T10:22:57Z</time>
      </trkpt>
      <trkpt lat="50.37876" lon="4.29742">
        <ele>179.237305</ele>
        <time>2022-03-20T10:22:59Z</time>
      </trkpt>
      <trkpt lat="50.37874" lon="4.29738">
        <ele>179.22673</ele>
        <time>2022-03-20T10:23:01Z</time>
      </trkpt>
      <trkpt lat="50.37872" lon="4.29733">
        <ele>179.179047</ele>
        <time>2022-03-20T10:23:03Z</time>
      </trkpt>
      <trkpt lat="50.37871" lon="4.29726">
        <ele>179.162338</ele>
        <time>2022-03-20T10:23:05Z</time>
      </trkpt>
      <trkpt lat="50.37869" lon="4.29719">
        <ele>179.13353</ele>
        <time>2022-03-20T10:23:07Z</time>
      </trkpt>
      <trkpt lat="50.37865" lon="4.29711">
        <ele>179.13353</ele>
        <time>2022-03-20T10:23:09Z</time>
      </trkpt>
      <trkpt lat="50.37861" lon="4.29704">
        <ele>179.100128</ele>
        <time>2022-03-20T10:23:11Z</time>
      </trkpt>
      <trkpt lat="50.37858" lon="4.29697">
        <ele>179.075089</ele>
        <time>2022-03-20T10:23:13Z</time>
      </trkpt>
      <trkpt lat="50.37856" lon="4.29691">
        <ele>179.077179</ele>
        <time>2022-03-20T10:23:15Z</time>
      </trkpt>
      <trkpt lat="50.37855" lon="4.29686">
        <ele>179.121002</ele>
        <time>2022-03-20T10:23:17Z</time>
      </trkpt>
      <trkpt lat="50.37851" lon="4.29678">
        <ele>178.991608</ele>
        <time>2022-03-20T10:23:19Z</time>
      </trkpt>
      <trkpt lat="50.37846" lon="4.29669">
        <ele>178.97699</ele>
        <time>2022-03-20T10:23:21Z</time>
      </trkpt>
      <trkpt lat="50.37843" lon="4.29664">
        <ele>179.001923</ele>
        <time>2022-03-20T10:23:23Z</time>
      </trkpt>
      <trkpt lat="50.37838" lon="4.29656">
        <ele>179.032486</ele>
        <time>2022-03-20T10:23:25Z</time>
      </trkpt>
      <trkpt lat="50.37833" lon="4.29647">
        <ele>179.024139</ele>
        <time>2022-03-20T10:23:27Z</time>
      </trkpt>
      <trkpt lat="50.37829" lon="4.29639">
        <ele>179.036652</ele>
        <time>2022-03-20T10:23:29Z</time>
      </trkpt>
      <trkpt lat="50.37827" lon="4.29634">
        <ele>178.990738</ele>
        <time>2022-03-20T10:23:31Z</time>
      </trkpt>
      <trkpt lat="50.37825" lon="4.29627">
        <ele>179.036713</ele>
        <time>2022-03-20T10:23:33Z</time>
      </trkpt>
      <trkpt lat="50.37822" lon="4.29618">
        <ele>179.030426</ele>
        <time>2022-03-20T10:23:35Z</time>
      </trkpt>
      <trkpt lat="50.37819" lon="4.29609">
        <ele>179.072174</ele>
        <time>2022-03-20T10:23:37Z</time>
      </trkpt>
      <trkpt lat="50.37815" lon="4.29607">
        <ele>179.070084</ele>
        <time>2022-03-20T10:23:39Z</time>
      </trkpt>
      <trkpt lat="50.37812" lon="4.29602">
        <ele>179.07254</ele>
        <time>2022-03-20T10:23:41Z</time>
      </trkpt>
      <trkpt lat="50.37808" lon="4.29595">
        <ele>179.072052</ele>
        <time>2022-03-20T10:23:43Z</time>
      </trkpt>
      <trkpt lat="50.37805" lon="4.2959">
        <ele>179.065811</ele>
        <time>2022-03-20T10:23:45Z</time>
      </trkpt>
      <trkpt lat="50.37804" lon="4.29585">
        <ele>179.095032</ele>
        <time>2022-03-20T10:23:46Z</time>
      </trkpt>
      <trkpt lat="50.37803" lon="4.29578">
        <ele>179.69223</ele>
        <time>2022-03-20T10:23:48Z</time>
      </trkpt>
      <trkpt lat="50.378" lon="4.29574">
        <ele>179.723541</ele>
        <time>2022-03-20T10:23:50Z</time>
      </trkpt>
      <trkpt lat="50.37796" lon="4.29566">
        <ele>179.812775</ele>
        <time>2022-03-20T10:23:56Z</time>
      </trkpt>
      <trkpt lat="50.37794" lon="4.29564">
        <ele>179.819061</ele>
        <time>2022-03-20T10:23:58Z</time>
      </trkpt>
      <trkpt lat="50.37791" lon="4.29557">
        <ele>180.331268</ele>
        <time>2022-03-20T10:24:20Z</time>
      </trkpt>
      <trkpt lat="50.37787" lon="4.29536">
        <ele>180.206024</ele>
        <time>2022-03-20T10:24:24Z</time>
      </trkpt>
      <trkpt lat="50.37787" lon="4.29532">
        <ele>180.095413</ele>
        <time>2022-03-20T10:24:26Z</time>
      </trkpt>
      <trkpt lat="50.37785" lon="4.29527">
        <ele>179.97644</ele>
        <time>2022-03-20T10:24:28Z</time>
      </trkpt>
      <trkpt lat="50.3778" lon="4.29522">
        <ele>179.309967</ele>
        <time>2022-03-20T10:24:30Z</time>
      </trkpt>
      <trkpt lat="50.37776" lon="4.29516">
        <ele>179.180557</ele>
        <time>2022-03-20T10:24:32Z</time>
      </trkpt>
      <trkpt lat="50.37772" lon="4.29512">
        <ele>179.136719</ele>
        <time>2022-03-20T10:24:34Z</time>
      </trkpt>
      <trkpt lat="50.37769" lon="4.29506">
        <ele>179.09549</ele>
        <time>2022-03-20T10:24:36Z</time>
      </trkpt>
      <trkpt lat="50.37766" lon="4.295">
        <ele>179.023895</ele>
        <time>2022-03-20T10:24:38Z</time>
      </trkpt>
      <trkpt lat="50.37764" lon="4.29494">
        <ele>178.858994</ele>
        <time>2022-03-20T10:24:40Z</time>
      </trkpt>
      <trkpt lat="50.37759" lon="4.29488">
        <ele>178.730499</ele>
        <time>2022-03-20T10:24:42Z</time>
      </trkpt>
      <trkpt lat="50.37757" lon="4.2948">
        <ele>178.644592</ele>
        <time>2022-03-20T10:24:44Z</time>
      </trkpt>
      <trkpt lat="50.37754" lon="4.29472">
        <ele>178.600754</ele>
        <time>2022-03-20T10:24:46Z</time>
      </trkpt>
      <trkpt lat="50.37754" lon="4.29466">
        <ele>178.491425</ele>
        <time>2022-03-20T10:24:48Z</time>
      </trkpt>
      <trkpt lat="50.3775" lon="4.2946">
        <ele>178.412109</ele>
        <time>2022-03-20T10:24:50Z</time>
      </trkpt>
      <trkpt lat="50.37746" lon="4.29451">
        <ele>178.316116</ele>
        <time>2022-03-20T10:24:52Z</time>
      </trkpt>
      <trkpt lat="50.37742" lon="4.29441">
        <ele>178.157501</ele>
        <time>2022-03-20T10:24:54Z</time>
      </trkpt>
      <trkpt lat="50.37737" lon="4.29432">
        <ele>178.013504</ele>
        <time>2022-03-20T10:24:56Z</time>
      </trkpt>
      <trkpt lat="50.37733" lon="4.29424">
        <ele>177.894547</ele>
        <time>2022-03-20T10:24:58Z</time>
      </trkpt>
      <trkpt lat="50.3773" lon="4.29415">
        <ele>177.853073</ele>
        <time>2022-03-20T10:25:00Z</time>
      </trkpt>
      <trkpt lat="50.37723" lon="4.29405">
        <ele>177.775864</ele>
        <time>2022-03-20T10:25:02Z</time>
      </trkpt>
      <trkpt lat="50.37715" lon="4.29393">
        <ele>177.83432</ele>
        <time>2022-03-20T10:25:04Z</time>
      </trkpt>
      <trkpt lat="50.37711" lon="4.29384">
        <ele>177.730011</ele>
        <time>2022-03-20T10:25:06Z</time>
      </trkpt>
      <trkpt lat="50.37708" lon="4.29374">
        <ele>177.750885</ele>
        <time>2022-03-20T10:25:08Z</time>
      </trkpt>
      <trkpt lat="50.37701" lon="4.29364">
        <ele>177.754181</ele>
        <time>2022-03-20T10:25:10Z</time>
      </trkpt>
      <trkpt lat="50.37697" lon="4.29354">
        <ele>177.69368</ele>
        <time>2022-03-20T10:25:12Z</time>
      </trkpt>
      <trkpt lat="50.37692" lon="4.29344">
        <ele>177.735916</ele>
        <time>2022-03-20T10:25:14Z</time>
      </trkpt>
      <trkpt lat="50.3769" lon="4.29335">
        <ele>177.621124</ele>
        <time>2022-03-20T10:25:16Z</time>
      </trkpt>
      <trkpt lat="50.37687" lon="4.29325">
        <ele>177.532028</ele>
        <time>2022-03-20T10:25:20Z</time>
      </trkpt>
      <trkpt lat="50.37687" lon="4.29323">
        <ele>177.532028</ele>
        <time>2022-03-20T10:25:21Z</time>
      </trkpt>
      <trkpt lat="50.37686" lon="4.29321">
        <ele>177.526932</ele>
        <time>2022-03-20T10:25:23Z</time>
      </trkpt>
      <trkpt lat="50.37682" lon="4.29312">
        <ele>177.237183</ele>
        <time>2022-03-20T10:25:27Z</time>
      </trkpt>
      <trkpt lat="50.37678" lon="4.29301">
        <ele>177.187897</ele>
        <time>2022-03-20T10:25:29Z</time>
      </trkpt>
      <trkpt lat="50.37677" lon="4.29295">
        <ele>177.15239</ele>
        <time>2022-03-20T10:25:31Z</time>
      </trkpt>
      <trkpt lat="50.37676" lon="4.29285">
        <ele>177.096039</ele>
        <time>2022-03-20T10:25:33Z</time>
      </trkpt>
      <trkpt lat="50.37677" lon="4.29273">
        <ele>177.15239</ele>
        <time>2022-03-20T10:25:35Z</time>
      </trkpt>
      <trkpt lat="50.37677" lon="4.29262">
        <ele>177.158661</ele>
        <time>2022-03-20T10:25:37Z</time>
      </trkpt>
      <trkpt lat="50.37678" lon="4.29254">
        <ele>177.139359</ele>
        <time>2022-03-20T10:25:39Z</time>
      </trkpt>
      <trkpt lat="50.3768" lon="4.29244">
        <ele>177.164139</ele>
        <time>2022-03-20T10:25:41Z</time>
      </trkpt>
      <trkpt lat="50.37684" lon="4.29237">
        <ele>177.162048</ele>
        <time>2022-03-20T10:25:43Z</time>
      </trkpt>
      <trkpt lat="50.3769" lon="4.29228">
        <ele>177.141022</ele>
        <time>2022-03-20T10:25:45Z</time>
      </trkpt>
      <trkpt lat="50.37695" lon="4.29222">
        <ele>177.26619</ele>
        <time>2022-03-20T10:25:47Z</time>
      </trkpt>
      <trkpt lat="50.37698" lon="4.29214">
        <ele>177.341339</ele>
        <time>2022-03-20T10:25:49Z</time>
      </trkpt>
      <trkpt lat="50.37702" lon="4.29206">
        <ele>177.375595</ele>
        <time>2022-03-20T10:25:51Z</time>
      </trkpt>
      <trkpt lat="50.37705" lon="4.29199">
        <ele>177.471588</ele>
        <time>2022-03-20T10:25:53Z</time>
      </trkpt>
      <trkpt lat="50.37709" lon="4.29188">
        <ele>177.481537</ele>
        <time>2022-03-20T10:25:55Z</time>
      </trkpt>
      <trkpt lat="50.37711" lon="4.29178">
        <ele>177.523254</ele>
        <time>2022-03-20T10:25:57Z</time>
      </trkpt>
      <trkpt lat="50.37714" lon="4.29169">
        <ele>177.537872</ele>
        <time>2022-03-20T10:25:59Z</time>
      </trkpt>
      <trkpt lat="50.37717" lon="4.29161">
        <ele>177.600479</ele>
        <time>2022-03-20T10:26:01Z</time>
      </trkpt>
      <trkpt lat="50.37722" lon="4.29151">
        <ele>177.552475</ele>
        <time>2022-03-20T10:26:03Z</time>
      </trkpt>
      <trkpt lat="50.37726" lon="4.29143">
        <ele>177.593033</ele>
        <time>2022-03-20T10:26:05Z</time>
      </trkpt>
      <trkpt lat="50.37732" lon="4.29134">
        <ele>177.467834</ele>
        <time>2022-03-20T10:26:07Z</time>
      </trkpt>
      <trkpt lat="50.37734" lon="4.2912">
        <ele>177.369781</ele>
        <time>2022-03-20T10:26:09Z</time>
      </trkpt>
      <trkpt lat="50.37737" lon="4.29108">
        <ele>177.248764</ele>
        <time>2022-03-20T10:26:11Z</time>
      </trkpt>
      <trkpt lat="50.37742" lon="4.29098">
        <ele>177.088074</ele>
        <time>2022-03-20T10:26:13Z</time>
      </trkpt>
      <trkpt lat="50.37745" lon="4.29088">
        <ele>176.919052</ele>
        <time>2022-03-20T10:26:15Z</time>
      </trkpt>
      <trkpt lat="50.37751" lon="4.29076">
        <ele>176.764648</ele>
        <time>2022-03-20T10:26:17Z</time>
      </trkpt>
      <trkpt lat="50.37752" lon="4.29066">
        <ele>176.702942</ele>
        <time>2022-03-20T10:26:19Z</time>
      </trkpt>
      <trkpt lat="50.37754" lon="4.29056">
        <ele>176.686249</ele>
        <time>2022-03-20T10:26:21Z</time>
      </trkpt>
      <trkpt lat="50.37758" lon="4.29044">
        <ele>176.631989</ele>
        <time>2022-03-20T10:26:23Z</time>
      </trkpt>
      <trkpt lat="50.37761" lon="4.29032">
        <ele>176.542389</ele>
        <time>2022-03-20T10:26:25Z</time>
      </trkpt>
      <trkpt lat="50.37763" lon="4.29024">
        <ele>176.417206</ele>
        <time>2022-03-20T10:26:27Z</time>
      </trkpt>
      <trkpt lat="50.37766" lon="4.29013">
        <ele>176.331635</ele>
        <time>2022-03-20T10:26:29Z</time>
      </trkpt>
      <trkpt lat="50.37766" lon="4.29">
        <ele>176.233124</ele>
        <time>2022-03-20T10:26:31Z</time>
      </trkpt>
      <trkpt lat="50.37769" lon="4.2899">
        <ele>176.158707</ele>
        <time>2022-03-20T10:26:33Z</time>
      </trkpt>
      <trkpt lat="50.37774" lon="4.2898">
        <ele>176.035568</ele>
        <time>2022-03-20T10:26:35Z</time>
      </trkpt>
      <trkpt lat="50.37779" lon="4.28969">
        <ele>175.877716</ele>
        <time>2022-03-20T10:26:37Z</time>
      </trkpt>
      <trkpt lat="50.37782" lon="4.28961">
        <ele>175.762955</ele>
        <time>2022-03-20T10:26:39Z</time>
      </trkpt>
      <trkpt lat="50.37787" lon="4.28951">
        <ele>175.625229</ele>
        <time>2022-03-20T10:26:41Z</time>
      </trkpt>
      <trkpt lat="50.37791" lon="4.28943">
        <ele>175.585571</ele>
        <time>2022-03-20T10:26:43Z</time>
      </trkpt>
      <trkpt lat="50.37797" lon="4.28934">
        <ele>175.524155</ele>
        <time>2022-03-20T10:26:45Z</time>
      </trkpt>
      <trkpt lat="50.37801" lon="4.28925">
        <ele>175.440704</ele>
        <time>2022-03-20T10:26:47Z</time>
      </trkpt>
      <trkpt lat="50.37802" lon="4.2892">
        <ele>175.503281</ele>
        <time>2022-03-20T10:26:48Z</time>
      </trkpt>
      <trkpt lat="50.378" lon="4.28911">
        <ele>175.631424</ele>
        <time>2022-03-20T10:26:50Z</time>
      </trkpt>
      <trkpt lat="50.37799" lon="4.28902">
        <ele>175.658539</ele>
        <time>2022-03-20T10:26:52Z</time>
      </trkpt>
      <trkpt lat="50.37797" lon="4.28893">
        <ele>175.739914</ele>
        <time>2022-03-20T10:26:54Z</time>
      </trkpt>
      <trkpt lat="50.37799" lon="4.28884">
        <ele>175.871368</ele>
        <time>2022-03-20T10:26:56Z</time>
      </trkpt>
      <trkpt lat="50.37796" lon="4.28874">
        <ele>175.967361</ele>
        <time>2022-03-20T10:26:58Z</time>
      </trkpt>
      <trkpt lat="50.37795" lon="4.28867">
        <ele>176.083145</ele>
        <time>2022-03-20T10:27:00Z</time>
      </trkpt>
      <trkpt lat="50.37792" lon="4.28861">
        <ele>175.999695</ele>
        <time>2022-03-20T10:27:02Z</time>
      </trkpt>
      <trkpt lat="50.37789" lon="4.28854">
        <ele>175.939178</ele>
        <time>2022-03-20T10:27:04Z</time>
      </trkpt>
      <trkpt lat="50.37787" lon="4.28848">
        <ele>175.855713</ele>
        <time>2022-03-20T10:27:06Z</time>
      </trkpt>
      <trkpt lat="50.37783" lon="4.2884">
        <ele>175.907867</ele>
        <time>2022-03-20T10:27:08Z</time>
      </trkpt>
      <trkpt lat="50.37778" lon="4.2883">
        <ele>175.932907</ele>
        <time>2022-03-20T10:27:10Z</time>
      </trkpt>
      <trkpt lat="50.37775" lon="4.28821">
        <ele>175.891586</ele>
        <time>2022-03-20T10:27:12Z</time>
      </trkpt>
      <trkpt lat="50.37773" lon="4.28814">
        <ele>175.888809</ele>
        <time>2022-03-20T10:27:14Z</time>
      </trkpt>
      <trkpt lat="50.3777" lon="4.28807">
        <ele>176.036972</ele>
        <time>2022-03-20T10:27:16Z</time>
      </trkpt>
      <trkpt lat="50.37766" lon="4.28798">
        <ele>176.048752</ele>
        <time>2022-03-20T10:27:18Z</time>
      </trkpt>
      <trkpt lat="50.37761" lon="4.28788">
        <ele>176.167694</ele>
        <time>2022-03-20T10:27:20Z</time>
      </trkpt>
      <trkpt lat="50.37757" lon="4.28778">
        <ele>176.196899</ele>
        <time>2022-03-20T10:27:22Z</time>
      </trkpt>
      <trkpt lat="50.37751" lon="4.28767">
        <ele>176.210419</ele>
        <time>2022-03-20T10:27:24Z</time>
      </trkpt>
      <trkpt lat="50.37745" lon="4.28758">
        <ele>176.217636</ele>
        <time>2022-03-20T10:27:26Z</time>
      </trkpt>
      <trkpt lat="50.37741" lon="4.28749">
        <ele>176.315704</ele>
        <time>2022-03-20T10:27:28Z</time>
      </trkpt>
      <trkpt lat="50.37737" lon="4.28739">
        <ele>176.447342</ele>
        <time>2022-03-20T10:27:30Z</time>
      </trkpt>
      <trkpt lat="50.37732" lon="4.28728">
        <ele>176.446487</ele>
        <time>2022-03-20T10:27:32Z</time>
      </trkpt>
      <trkpt lat="50.37728" lon="4.28719">
        <ele>176.482391</ele>
        <time>2022-03-20T10:27:34Z</time>
      </trkpt>
      <trkpt lat="50.37726" lon="4.28715">
        <ele>176.436493</ele>
        <time>2022-03-20T10:27:35Z</time>
      </trkpt>
      <trkpt lat="50.37722" lon="4.28706">
        <ele>176.117569</ele>
        <time>2022-03-20T10:27:37Z</time>
      </trkpt>
      <trkpt lat="50.37717" lon="4.28696">
        <ele>176.16153</ele>
        <time>2022-03-20T10:27:39Z</time>
      </trkpt>
      <trkpt lat="50.37711" lon="4.28686">
        <ele>176.805679</ele>
        <time>2022-03-20T10:27:41Z</time>
      </trkpt>
      <trkpt lat="50.37708" lon="4.28676">
        <ele>177.033112</ele>
        <time>2022-03-20T10:27:43Z</time>
      </trkpt>
      <trkpt lat="50.37704" lon="4.28668">
        <ele>176.783035</ele>
        <time>2022-03-20T10:27:45Z</time>
      </trkpt>
      <trkpt lat="50.37699" lon="4.28658">
        <ele>177.504608</ele>
        <time>2022-03-20T10:27:47Z</time>
      </trkpt>
      <trkpt lat="50.37693" lon="4.28646">
        <ele>177.699295</ele>
        <time>2022-03-20T10:27:49Z</time>
      </trkpt>
      <trkpt lat="50.37687" lon="4.28638">
        <ele>177.902664</ele>
        <time>2022-03-20T10:27:51Z</time>
      </trkpt>
      <trkpt lat="50.37681" lon="4.28629">
        <ele>178.173996</ele>
        <time>2022-03-20T10:27:53Z</time>
      </trkpt>
      <trkpt lat="50.37677" lon="4.28621">
        <ele>178.278351</ele>
        <time>2022-03-20T10:27:55Z</time>
      </trkpt>
      <trkpt lat="50.37671" lon="4.2861">
        <ele>178.533035</ele>
        <time>2022-03-20T10:27:57Z</time>
      </trkpt>
      <trkpt lat="50.37666" lon="4.28601">
        <ele>179.734451</ele>
        <time>2022-03-20T10:27:59Z</time>
      </trkpt>
      <trkpt lat="50.37664" lon="4.28592">
        <ele>180.003738</ele>
        <time>2022-03-20T10:28:01Z</time>
      </trkpt>
      <trkpt lat="50.37661" lon="4.28585">
        <ele>180.822556</ele>
        <time>2022-03-20T10:28:03Z</time>
      </trkpt>
      <trkpt lat="50.37658" lon="4.28576">
        <ele>181.103348</ele>
        <time>2022-03-20T10:28:05Z</time>
      </trkpt>
      <trkpt lat="50.37652" lon="4.28563">
        <ele>181.399734</ele>
        <time>2022-03-20T10:28:07Z</time>
      </trkpt>
      <trkpt lat="50.37647" lon="4.28552">
        <ele>181.653809</ele>
        <time>2022-03-20T10:28:09Z</time>
      </trkpt>
      <trkpt lat="50.37643" lon="4.28542">
        <ele>181.334747</ele>
        <time>2022-03-20T10:28:11Z</time>
      </trkpt>
      <trkpt lat="50.37637" lon="4.28532">
        <ele>181.040741</ele>
        <time>2022-03-20T10:28:13Z</time>
      </trkpt>
      <trkpt lat="50.37632" lon="4.28523">
        <ele>181.38269</ele>
        <time>2022-03-20T10:28:15Z</time>
      </trkpt>
      <trkpt lat="50.37629" lon="4.28515">
        <ele>182.167023</ele>
        <time>2022-03-20T10:28:17Z</time>
      </trkpt>
      <trkpt lat="50.37624" lon="4.28506">
        <ele>182.3862</ele>
        <time>2022-03-20T10:28:19Z</time>
      </trkpt>
      <trkpt lat="50.3762" lon="4.28497">
        <ele>182.137161</ele>
        <time>2022-03-20T10:28:21Z</time>
      </trkpt>
      <trkpt lat="50.37615" lon="4.28488">
        <ele>182.325043</ele>
        <time>2022-03-20T10:28:23Z</time>
      </trkpt>
      <trkpt lat="50.37609" lon="4.28478">
        <ele>181.914276</ele>
        <time>2022-03-20T10:28:25Z</time>
      </trkpt>
      <trkpt lat="50.37602" lon="4.28466">
        <ele>182.507782</ele>
        <time>2022-03-20T10:28:27Z</time>
      </trkpt>
      <trkpt lat="50.37595" lon="4.28453">
        <ele>182.033417</ele>
        <time>2022-03-20T10:28:29Z</time>
      </trkpt>
      <trkpt lat="50.3759" lon="4.2844">
        <ele>182.086151</ele>
        <time>2022-03-20T10:28:31Z</time>
      </trkpt>
      <trkpt lat="50.37586" lon="4.28434">
        <ele>182.074814</ele>
        <time>2022-03-20T10:28:32Z</time>
      </trkpt>
      <trkpt lat="50.37579" lon="4.28421">
        <ele>182.091522</ele>
        <time>2022-03-20T10:28:34Z</time>
      </trkpt>
      <trkpt lat="50.37572" lon="4.28408">
        <ele>182.13327</ele>
        <time>2022-03-20T10:28:36Z</time>
      </trkpt>
      <trkpt lat="50.37565" lon="4.28395">
        <ele>181.953735</ele>
        <time>2022-03-20T10:28:38Z</time>
      </trkpt>
      <trkpt lat="50.3756" lon="4.28383">
        <ele>181.035309</ele>
        <time>2022-03-20T10:28:40Z</time>
      </trkpt>
      <trkpt lat="50.37555" lon="4.28373">
        <ele>180.964325</ele>
        <time>2022-03-20T10:28:42Z</time>
      </trkpt>
      <trkpt lat="50.3755" lon="4.28361">
        <ele>180.532074</ele>
        <time>2022-03-20T10:28:44Z</time>
      </trkpt>
      <trkpt lat="50.37544" lon="4.2835">
        <ele>180.438126</ele>
        <time>2022-03-20T10:28:46Z</time>
      </trkpt>
      <trkpt lat="50.37537" lon="4.28338">
        <ele>179.834366</ele>
        <time>2022-03-20T10:28:48Z</time>
      </trkpt>
      <trkpt lat="50.37532" lon="4.28327">
        <ele>179.88681</ele>
        <time>2022-03-20T10:28:50Z</time>
      </trkpt>
      <trkpt lat="50.37526" lon="4.28316">
        <ele>180.541824</ele>
        <time>2022-03-20T10:28:52Z</time>
      </trkpt>
      <trkpt lat="50.37521" lon="4.28304">
        <ele>181.132217</ele>
        <time>2022-03-20T10:28:54Z</time>
      </trkpt>
      <trkpt lat="50.37515" lon="4.28292">
        <ele>181.182343</ele>
        <time>2022-03-20T10:28:56Z</time>
      </trkpt>
      <trkpt lat="50.37511" lon="4.28281">
        <ele>181.339462</ele>
        <time>2022-03-20T10:28:58Z</time>
      </trkpt>
      <trkpt lat="50.37507" lon="4.28271">
        <ele>181.448059</ele>
        <time>2022-03-20T10:29:00Z</time>
      </trkpt>
      <trkpt lat="50.37501" lon="4.2826">
        <ele>181.42717</ele>
        <time>2022-03-20T10:29:02Z</time>
      </trkpt>
      <trkpt lat="50.37495" lon="4.28248">
        <ele>181.597839</ele>
        <time>2022-03-20T10:29:04Z</time>
      </trkpt>
      <trkpt lat="50.37489" lon="4.28237">
        <ele>181.760742</ele>
        <time>2022-03-20T10:29:06Z</time>
      </trkpt>
      <trkpt lat="50.37484" lon="4.28228">
        <ele>182.522308</ele>
        <time>2022-03-20T10:29:08Z</time>
      </trkpt>
      <trkpt lat="50.37481" lon="4.28221">
        <ele>182.684921</ele>
        <time>2022-03-20T10:29:10Z</time>
      </trkpt>
      <trkpt lat="50.37476" lon="4.28213">
        <ele>182.788803</ele>
        <time>2022-03-20T10:29:12Z</time>
      </trkpt>
      <trkpt lat="50.3747" lon="4.28202">
        <ele>183.029205</ele>
        <time>2022-03-20T10:29:14Z</time>
      </trkpt>
      <trkpt lat="50.37464" lon="4.28192">
        <ele>183.161667</ele>
        <time>2022-03-20T10:29:16Z</time>
      </trkpt>
      <trkpt lat="50.37457" lon="4.2818">
        <ele>183.474274</ele>
        <time>2022-03-20T10:29:18Z</time>
      </trkpt>
      <trkpt lat="50.37452" lon="4.2817">
        <ele>183.719467</ele>
        <time>2022-03-20T10:29:20Z</time>
      </trkpt>
      <trkpt lat="50.37446" lon="4.2816">
        <ele>184.00972</ele>
        <time>2022-03-20T10:29:22Z</time>
      </trkpt>
      <trkpt lat="50.37442" lon="4.28152">
        <ele>184.032684</ele>
        <time>2022-03-20T10:29:24Z</time>
      </trkpt>
      <trkpt lat="50.37437" lon="4.28141">
        <ele>184.071976</ele>
        <time>2022-03-20T10:29:26Z</time>
      </trkpt>
      <trkpt lat="50.37433" lon="4.2813">
        <ele>184.886993</ele>
        <time>2022-03-20T10:29:28Z</time>
      </trkpt>
      <trkpt lat="50.37426" lon="4.28119">
        <ele>185.033508</ele>
        <time>2022-03-20T10:29:30Z</time>
      </trkpt>
      <trkpt lat="50.37423" lon="4.28109">
        <ele>185.094086</ele>
        <time>2022-03-20T10:29:32Z</time>
      </trkpt>
      <trkpt lat="50.37417" lon="4.28098">
        <ele>185.087814</ele>
        <time>2022-03-20T10:29:34Z</time>
      </trkpt>
      <trkpt lat="50.37411" lon="4.28088">
        <ele>185.237152</ele>
        <time>2022-03-20T10:29:36Z</time>
      </trkpt>
      <trkpt lat="50.37407" lon="4.28077">
        <ele>185.322479</ele>
        <time>2022-03-20T10:29:38Z</time>
      </trkpt>
      <trkpt lat="50.37403" lon="4.28067">
        <ele>185.272339</ele>
        <time>2022-03-20T10:29:40Z</time>
      </trkpt>
      <trkpt lat="50.37396" lon="4.28055">
        <ele>185.30368</ele>
        <time>2022-03-20T10:29:42Z</time>
      </trkpt>
      <trkpt lat="50.37391" lon="4.28043">
        <ele>185.353851</ele>
        <time>2022-03-20T10:29:44Z</time>
      </trkpt>
      <trkpt lat="50.37384" lon="4.28035">
        <ele>185.330872</ele>
        <time>2022-03-20T10:29:46Z</time>
      </trkpt>
      <trkpt lat="50.3738" lon="4.28027">
        <ele>185.355927</ele>
        <time>2022-03-20T10:29:48Z</time>
      </trkpt>
      <trkpt lat="50.37376" lon="4.28025">
        <ele>185.37326</ele>
        <time>2022-03-20T10:29:50Z</time>
      </trkpt>
      <trkpt lat="50.37369" lon="4.28025">
        <ele>185.408051</ele>
        <time>2022-03-20T10:29:52Z</time>
      </trkpt>
      <trkpt lat="50.37364" lon="4.28032">
        <ele>185.408783</ele>
        <time>2022-03-20T10:29:54Z</time>
      </trkpt>
      <trkpt lat="50.37359" lon="4.28041">
        <ele>185.453827</ele>
        <time>2022-03-20T10:29:56Z</time>
      </trkpt>
      <trkpt lat="50.37352" lon="4.28051">
        <ele>185.459564</ele>
        <time>2022-03-20T10:29:58Z</time>
      </trkpt>
      <trkpt lat="50.37346" lon="4.28063">
        <ele>185.225647</ele>
        <time>2022-03-20T10:30:00Z</time>
      </trkpt>
      <trkpt lat="50.37339" lon="4.28074">
        <ele>185.012634</ele>
        <time>2022-03-20T10:30:02Z</time>
      </trkpt>
      <trkpt lat="50.37333" lon="4.28088">
        <ele>184.975037</ele>
        <time>2022-03-20T10:30:04Z</time>
      </trkpt>
      <trkpt lat="50.37323" lon="4.28102">
        <ele>184.908218</ele>
        <time>2022-03-20T10:30:06Z</time>
      </trkpt>
      <trkpt lat="50.37317" lon="4.28119">
        <ele>184.762024</ele>
        <time>2022-03-20T10:30:08Z</time>
      </trkpt>
      <trkpt lat="50.37309" lon="4.28136">
        <ele>184.631287</ele>
        <time>2022-03-20T10:30:10Z</time>
      </trkpt>
      <trkpt lat="50.37299" lon="4.28153">
        <ele>184.437119</ele>
        <time>2022-03-20T10:30:12Z</time>
      </trkpt>
      <trkpt lat="50.37293" lon="4.28172">
        <ele>184.236664</ele>
        <time>2022-03-20T10:30:14Z</time>
      </trkpt>
      <trkpt lat="50.37286" lon="4.28192">
        <ele>183.615021</ele>
        <time>2022-03-20T10:30:16Z</time>
      </trkpt>
      <trkpt lat="50.37277" lon="4.28209">
        <ele>183.380096</ele>
        <time>2022-03-20T10:30:18Z</time>
      </trkpt>
      <trkpt lat="50.3727" lon="4.28232">
        <ele>183.043686</ele>
        <time>2022-03-20T10:30:20Z</time>
      </trkpt>
      <trkpt lat="50.37264" lon="4.28256">
        <ele>182.340652</ele>
        <time>2022-03-20T10:30:22Z</time>
      </trkpt>
      <trkpt lat="50.37256" lon="4.28279">
        <ele>182.14534</ele>
        <time>2022-03-20T10:30:24Z</time>
      </trkpt>
      <trkpt lat="50.37249" lon="4.28301">
        <ele>181.841705</ele>
        <time>2022-03-20T10:30:26Z</time>
      </trkpt>
      <trkpt lat="50.37244" lon="4.28322">
        <ele>181.518097</ele>
        <time>2022-03-20T10:30:28Z</time>
      </trkpt>
      <trkpt lat="50.37239" lon="4.28342">
        <ele>181.07962</ele>
        <time>2022-03-20T10:30:30Z</time>
      </trkpt>
      <trkpt lat="50.3723" lon="4.28358">
        <ele>180.705658</ele>
        <time>2022-03-20T10:30:32Z</time>
      </trkpt>
      <trkpt lat="50.37219" lon="4.28375">
        <ele>180.280869</ele>
        <time>2022-03-20T10:30:34Z</time>
      </trkpt>
      <trkpt lat="50.37206" lon="4.28393">
        <ele>179.796585</ele>
        <time>2022-03-20T10:30:36Z</time>
      </trkpt>
      <trkpt lat="50.37195" lon="4.28409">
        <ele>179.198654</ele>
        <time>2022-03-20T10:30:38Z</time>
      </trkpt>
      <trkpt lat="50.37184" lon="4.28425">
        <ele>178.741531</ele>
        <time>2022-03-20T10:30:40Z</time>
      </trkpt>
      <trkpt lat="50.37172" lon="4.28442">
        <ele>178.332443</ele>
        <time>2022-03-20T10:30:42Z</time>
      </trkpt>
      <trkpt lat="50.37161" lon="4.28457">
        <ele>177.764847</ele>
        <time>2022-03-20T10:30:44Z</time>
      </trkpt>
      <trkpt lat="50.37153" lon="4.2847">
        <ele>177.23056</ele>
        <time>2022-03-20T10:30:46Z</time>
      </trkpt>
      <trkpt lat="50.37145" lon="4.28481">
        <ele>176.652542</ele>
        <time>2022-03-20T10:30:48Z</time>
      </trkpt>
      <trkpt lat="50.37137" lon="4.28486">
        <ele>176.045319</ele>
        <time>2022-03-20T10:30:50Z</time>
      </trkpt>
      <trkpt lat="50.37133" lon="4.28487">
        <ele>175.653046</ele>
        <time>2022-03-20T10:30:51Z</time>
      </trkpt>
      <trkpt lat="50.37126" lon="4.28484">
        <ele>175.150192</ele>
        <time>2022-03-20T10:30:53Z</time>
      </trkpt>
      <trkpt lat="50.37124" lon="4.28482">
        <ele>174.696289</ele>
        <time>2022-03-20T10:30:55Z</time>
      </trkpt>
      <trkpt lat="50.3712" lon="4.28482">
        <ele>174.919342</ele>
        <time>2022-03-20T10:30:57Z</time>
      </trkpt>
      <trkpt lat="50.37118" lon="4.28483">
        <ele>174.359055</ele>
        <time>2022-03-20T10:30:59Z</time>
      </trkpt>
      <trkpt lat="50.37115" lon="4.28482">
        <ele>173.783234</ele>
        <time>2022-03-20T10:31:01Z</time>
      </trkpt>
      <trkpt lat="50.37114" lon="4.28482">
        <ele>173.564133</ele>
        <time>2022-03-20T10:31:02Z</time>
      </trkpt>
      <trkpt lat="50.37112" lon="4.28482">
        <ele>173.340866</ele>
        <time>2022-03-20T10:31:04Z</time>
      </trkpt>
      <trkpt lat="50.37109" lon="4.28483">
        <ele>172.676666</ele>
        <time>2022-03-20T10:31:06Z</time>
      </trkpt>
      <trkpt lat="50.37107" lon="4.28484">
        <ele>172.207382</ele>
        <time>2022-03-20T10:31:08Z</time>
      </trkpt>
      <trkpt lat="50.37104" lon="4.28484">
        <ele>171.731781</ele>
        <time>2022-03-20T10:31:10Z</time>
      </trkpt>
      <trkpt lat="50.37101" lon="4.28483">
        <ele>171.147659</ele>
        <time>2022-03-20T10:31:12Z</time>
      </trkpt>
      <trkpt lat="50.37096" lon="4.28482">
        <ele>170.669998</ele>
        <time>2022-03-20T10:31:14Z</time>
      </trkpt>
      <trkpt lat="50.3709" lon="4.2848">
        <ele>170.259064</ele>
        <time>2022-03-20T10:31:16Z</time>
      </trkpt>
      <trkpt lat="50.37084" lon="4.28479">
        <ele>170.021286</ele>
        <time>2022-03-20T10:31:18Z</time>
      </trkpt>
      <trkpt lat="50.37079" lon="4.28477">
        <ele>169.708405</ele>
        <time>2022-03-20T10:31:20Z</time>
      </trkpt>
      <trkpt lat="50.37076" lon="4.28476">
        <ele>169.389252</ele>
        <time>2022-03-20T10:31:22Z</time>
      </trkpt>
      <trkpt lat="50.37071" lon="4.28472">
        <ele>169.182816</ele>
        <time>2022-03-20T10:31:24Z</time>
      </trkpt>
      <trkpt lat="50.37064" lon="4.28464">
        <ele>169.143188</ele>
        <time>2022-03-20T10:31:26Z</time>
      </trkpt>
      <trkpt lat="50.37058" lon="4.28454">
        <ele>168.957565</ele>
        <time>2022-03-20T10:31:28Z</time>
      </trkpt>
      <trkpt lat="50.37051" lon="4.28444">
        <ele>168.813812</ele>
        <time>2022-03-20T10:31:30Z</time>
      </trkpt>
      <trkpt lat="50.37046" lon="4.28436">
        <ele>168.699127</ele>
        <time>2022-03-20T10:31:32Z</time>
      </trkpt>
      <trkpt lat="50.37043" lon="4.2843">
        <ele>168.607376</ele>
        <time>2022-03-20T10:31:34Z</time>
      </trkpt>
      <trkpt lat="50.37038" lon="4.28421">
        <ele>168.488815</ele>
        <time>2022-03-20T10:31:36Z</time>
      </trkpt>
      <trkpt lat="50.37034" lon="4.28415">
        <ele>168.46907</ele>
        <time>2022-03-20T10:31:38Z</time>
      </trkpt>
      <trkpt lat="50.3703" lon="4.28407">
        <ele>168.362259</ele>
        <time>2022-03-20T10:31:40Z</time>
      </trkpt>
      <trkpt lat="50.37027" lon="4.28401">
        <ele>168.343475</ele>
        <time>2022-03-20T10:31:42Z</time>
      </trkpt>
      <trkpt lat="50.37025" lon="4.28395">
        <ele>168.177612</ele>
        <time>2022-03-20T10:31:44Z</time>
      </trkpt>
      <trkpt lat="50.3702" lon="4.28389">
        <ele>168.271408</ele>
        <time>2022-03-20T10:31:46Z</time>
      </trkpt>
      <trkpt lat="50.37015" lon="4.28381">
        <ele>168.333984</ele>
        <time>2022-03-20T10:31:48Z</time>
      </trkpt>
      <trkpt lat="50.3701" lon="4.28375">
        <ele>168.404755</ele>
        <time>2022-03-20T10:31:50Z</time>
      </trkpt>
      <trkpt lat="50.37005" lon="4.28368">
        <ele>168.400345</ele>
        <time>2022-03-20T10:31:52Z</time>
      </trkpt>
      <trkpt lat="50.37" lon="4.28365">
        <ele>168.479584</ele>
        <time>2022-03-20T10:31:54Z</time>
      </trkpt>
      <trkpt lat="50.36995" lon="4.28362">
        <ele>168.510742</ele>
        <time>2022-03-20T10:31:56Z</time>
      </trkpt>
      <trkpt lat="50.36991" lon="4.28359">
        <ele>168.583725</ele>
        <time>2022-03-20T10:31:58Z</time>
      </trkpt>
      <trkpt lat="50.36986" lon="4.28353">
        <ele>168.66507</ele>
        <time>2022-03-20T10:32:00Z</time>
      </trkpt>
      <trkpt lat="50.36979" lon="4.28346">
        <ele>168.756805</ele>
        <time>2022-03-20T10:32:02Z</time>
      </trkpt>
      <trkpt lat="50.36975" lon="4.2834">
        <ele>168.813705</ele>
        <time>2022-03-20T10:32:04Z</time>
      </trkpt>
      <trkpt lat="50.36969" lon="4.28334">
        <ele>168.86792</ele>
        <time>2022-03-20T10:32:06Z</time>
      </trkpt>
      <trkpt lat="50.36964" lon="4.28328">
        <ele>168.876266</ele>
        <time>2022-03-20T10:32:08Z</time>
      </trkpt>
      <trkpt lat="50.3696" lon="4.28322">
        <ele>168.942856</ele>
        <time>2022-03-20T10:32:10Z</time>
      </trkpt>
      <trkpt lat="50.36957" lon="4.28316">
        <ele>169.070068</ele>
        <time>2022-03-20T10:32:12Z</time>
      </trkpt>
      <trkpt lat="50.36955" lon="4.28308">
        <ele>169.230621</ele>
        <time>2022-03-20T10:32:14Z</time>
      </trkpt>
      <trkpt lat="50.36955" lon="4.283">
        <ele>169.409958</ele>
        <time>2022-03-20T10:32:16Z</time>
      </trkpt>
      <trkpt lat="50.36954" lon="4.28289">
        <ele>169.533508</ele>
        <time>2022-03-20T10:32:18Z</time>
      </trkpt>
      <trkpt lat="50.36954" lon="4.28284">
        <ele>169.498062</ele>
        <time>2022-03-20T10:32:19Z</time>
      </trkpt>
      <trkpt lat="50.36953" lon="4.28274">
        <ele>169.643494</ele>
        <time>2022-03-20T10:32:21Z</time>
      </trkpt>
      <trkpt lat="50.36952" lon="4.28265">
        <ele>169.806152</ele>
        <time>2022-03-20T10:32:23Z</time>
      </trkpt>
      <trkpt lat="50.36949" lon="4.28258">
        <ele>169.954193</ele>
        <time>2022-03-20T10:32:25Z</time>
      </trkpt>
      <trkpt lat="50.36947" lon="4.28252">
        <ele>170.121033</ele>
        <time>2022-03-20T10:32:27Z</time>
      </trkpt>
      <trkpt lat="50.36946" lon="4.28246">
        <ele>170.175247</ele>
        <time>2022-03-20T10:32:28Z</time>
      </trkpt>
      <trkpt lat="50.36947" lon="4.28239">
        <ele>170.298294</ele>
        <time>2022-03-20T10:32:30Z</time>
      </trkpt>
      <trkpt lat="50.36945" lon="4.28233">
        <ele>170.440109</ele>
        <time>2022-03-20T10:32:32Z</time>
      </trkpt>
      <trkpt lat="50.36944" lon="4.28224">
        <ele>170.542542</ele>
        <time>2022-03-20T10:32:34Z</time>
      </trkpt>
      <trkpt lat="50.36944" lon="4.28215">
        <ele>170.774033</ele>
        <time>2022-03-20T10:32:36Z</time>
      </trkpt>
      <trkpt lat="50.36943" lon="4.28204">
        <ele>170.928497</ele>
        <time>2022-03-20T10:32:38Z</time>
      </trkpt>
      <trkpt lat="50.36942" lon="4.28193">
        <ele>171.024445</ele>
        <time>2022-03-20T10:32:40Z</time>
      </trkpt>
      <trkpt lat="50.36942" lon="4.28186">
        <ele>171.147491</ele>
        <time>2022-03-20T10:32:42Z</time>
      </trkpt>
      <trkpt lat="50.36942" lon="4.28176">
        <ele>171.368622</ele>
        <time>2022-03-20T10:32:44Z</time>
      </trkpt>
      <trkpt lat="50.3694" lon="4.28166">
        <ele>171.593109</ele>
        <time>2022-03-20T10:32:46Z</time>
      </trkpt>
      <trkpt lat="50.36941" lon="4.28155">
        <ele>171.759979</ele>
        <time>2022-03-20T10:32:48Z</time>
      </trkpt>
      <trkpt lat="50.36941" lon="4.28146">
        <ele>172.020721</ele>
        <time>2022-03-20T10:32:50Z</time>
      </trkpt>
      <trkpt lat="50.36942" lon="4.28134">
        <ele>172.25853</ele>
        <time>2022-03-20T10:32:52Z</time>
      </trkpt>
      <trkpt lat="50.36942" lon="4.28123">
        <ele>172.496353</ele>
        <time>2022-03-20T10:32:54Z</time>
      </trkpt>
      <trkpt lat="50.36942" lon="4.28111">
        <ele>172.721649</ele>
        <time>2022-03-20T10:32:56Z</time>
      </trkpt>
      <trkpt lat="50.36941" lon="4.28099">
        <ele>172.901443</ele>
        <time>2022-03-20T10:32:58Z</time>
      </trkpt>
      <trkpt lat="50.36941" lon="4.28088">
        <ele>173.230621</ele>
        <time>2022-03-20T10:33:00Z</time>
      </trkpt>
      <trkpt lat="50.36942" lon="4.28078">
        <ele>173.539383</ele>
        <time>2022-03-20T10:33:02Z</time>
      </trkpt>
      <trkpt lat="50.36943" lon="4.28069">
        <ele>173.841904</ele>
        <time>2022-03-20T10:33:04Z</time>
      </trkpt>
      <trkpt lat="50.36943" lon="4.28058">
        <ele>174.152786</ele>
        <time>2022-03-20T10:33:06Z</time>
      </trkpt>
      <trkpt lat="50.36944" lon="4.28046">
        <ele>174.36145</ele>
        <time>2022-03-20T10:33:08Z</time>
      </trkpt>
      <trkpt lat="50.36944" lon="4.28037">
        <ele>174.650269</ele>
        <time>2022-03-20T10:33:10Z</time>
      </trkpt>
      <trkpt lat="50.36945" lon="4.28027">
        <ele>174.931396</ele>
        <time>2022-03-20T10:33:12Z</time>
      </trkpt>
      <trkpt lat="50.36944" lon="4.28016">
        <ele>175.250641</ele>
        <time>2022-03-20T10:33:14Z</time>
      </trkpt>
      <trkpt lat="50.36944" lon="4.28011">
        <ele>175.394608</ele>
        <time>2022-03-20T10:33:15Z</time>
      </trkpt>
      <trkpt lat="50.36945" lon="4.27998">
        <ele>175.771759</ele>
        <time>2022-03-20T10:33:17Z</time>
      </trkpt>
      <trkpt lat="50.36949" lon="4.2799">
        <ele>176.184723</ele>
        <time>2022-03-20T10:33:19Z</time>
      </trkpt>
      <trkpt lat="50.36952" lon="4.27978">
        <ele>176.447662</ele>
        <time>2022-03-20T10:33:21Z</time>
      </trkpt>
      <trkpt lat="50.36956" lon="4.27969">
        <ele>176.946442</ele>
        <time>2022-03-20T10:33:23Z</time>
      </trkpt>
      <trkpt lat="50.36958" lon="4.27958">
        <ele>177.226105</ele>
        <time>2022-03-20T10:33:25Z</time>
      </trkpt>
      <trkpt lat="50.36958" lon="4.27948">
        <ele>178.074219</ele>
        <time>2022-03-20T10:33:27Z</time>
      </trkpt>
      <trkpt lat="50.36956" lon="4.27935">
        <ele>178.485321</ele>
        <time>2022-03-20T10:33:29Z</time>
      </trkpt>
      <trkpt lat="50.36953" lon="4.27924">
        <ele>178.84433</ele>
        <time>2022-03-20T10:33:31Z</time>
      </trkpt>
      <trkpt lat="50.36952" lon="4.27911">
        <ele>179.092682</ele>
        <time>2022-03-20T10:33:33Z</time>
      </trkpt>
      <trkpt lat="50.36949" lon="4.27898">
        <ele>179.453156</ele>
        <time>2022-03-20T10:33:35Z</time>
      </trkpt>
      <trkpt lat="50.36949" lon="4.27887">
        <ele>179.889389</ele>
        <time>2022-03-20T10:33:37Z</time>
      </trkpt>
      <trkpt lat="50.36948" lon="4.27877">
        <ele>180.266815</ele>
        <time>2022-03-20T10:33:39Z</time>
      </trkpt>
      <trkpt lat="50.36945" lon="4.27871">
        <ele>180.659241</ele>
        <time>2022-03-20T10:33:41Z</time>
      </trkpt>
      <trkpt lat="50.36942" lon="4.27868">
        <ele>181.02829</ele>
        <time>2022-03-20T10:33:43Z</time>
      </trkpt>
      <trkpt lat="50.36934" lon="4.27864">
        <ele>181.318451</ele>
        <time>2022-03-20T10:33:45Z</time>
      </trkpt>
      <trkpt lat="50.36929" lon="4.27864">
        <ele>181.653168</ele>
        <time>2022-03-20T10:33:47Z</time>
      </trkpt>
      <trkpt lat="50.36922" lon="4.27858">
        <ele>181.861908</ele>
        <time>2022-03-20T10:33:49Z</time>
      </trkpt>
      <trkpt lat="50.36916" lon="4.27853">
        <ele>182.220062</ele>
        <time>2022-03-20T10:33:51Z</time>
      </trkpt>
      <trkpt lat="50.36909" lon="4.2785">
        <ele>183.012329</ele>
        <time>2022-03-20T10:33:53Z</time>
      </trkpt>
      <trkpt lat="50.36903" lon="4.27848">
        <ele>183.244049</ele>
        <time>2022-03-20T10:33:55Z</time>
      </trkpt>
      <trkpt lat="50.36898" lon="4.27846">
        <ele>183.98204</ele>
        <time>2022-03-20T10:33:57Z</time>
      </trkpt>
      <trkpt lat="50.36892" lon="4.27848">
        <ele>184.191025</ele>
        <time>2022-03-20T10:33:59Z</time>
      </trkpt>
      <trkpt lat="50.36889" lon="4.27854">
        <ele>184.360458</ele>
        <time>2022-03-20T10:34:01Z</time>
      </trkpt>
      <trkpt lat="50.36882" lon="4.27866">
        <ele>184.101959</ele>
        <time>2022-03-20T10:34:03Z</time>
      </trkpt>
      <trkpt lat="50.36874" lon="4.27878">
        <ele>184.062286</ele>
        <time>2022-03-20T10:34:05Z</time>
      </trkpt>
      <trkpt lat="50.36867" lon="4.27891">
        <ele>184.189667</ele>
        <time>2022-03-20T10:34:07Z</time>
      </trkpt>
      <trkpt lat="50.36857" lon="4.27902">
        <ele>183.661057</ele>
        <time>2022-03-20T10:34:09Z</time>
      </trkpt>
      <trkpt lat="50.36848" lon="4.27915">
        <ele>183.425201</ele>
        <time>2022-03-20T10:34:11Z</time>
      </trkpt>
      <trkpt lat="50.36838" lon="4.27927">
        <ele>183.398041</ele>
        <time>2022-03-20T10:34:13Z</time>
      </trkpt>
      <trkpt lat="50.36833" lon="4.27936">
        <ele>183.410416</ele>
        <time>2022-03-20T10:34:15Z</time>
      </trkpt>
      <trkpt lat="50.36824" lon="4.27947">
        <ele>183.337997</ele>
        <time>2022-03-20T10:34:17Z</time>
      </trkpt>
      <trkpt lat="50.36818" lon="4.27957">
        <ele>183.221893</ele>
        <time>2022-03-20T10:34:19Z</time>
      </trkpt>
      <trkpt lat="50.36813" lon="4.27968">
        <ele>183.115402</ele>
        <time>2022-03-20T10:34:21Z</time>
      </trkpt>
      <trkpt lat="50.36807" lon="4.27976">
        <ele>183.045883</ele>
        <time>2022-03-20T10:34:23Z</time>
      </trkpt>
      <trkpt lat="50.36801" lon="4.27988">
        <ele>183.461868</ele>
        <time>2022-03-20T10:34:25Z</time>
      </trkpt>
      <trkpt lat="50.36793" lon="4.27996">
        <ele>183.567642</ele>
        <time>2022-03-20T10:34:27Z</time>
      </trkpt>
      <trkpt lat="50.36788" lon="4.28006">
        <ele>183.459076</ele>
        <time>2022-03-20T10:34:29Z</time>
      </trkpt>
      <trkpt lat="50.36783" lon="4.28016">
        <ele>183.239868</ele>
        <time>2022-03-20T10:34:31Z</time>
      </trkpt>
      <trkpt lat="50.36777" lon="4.28028">
        <ele>182.091644</ele>
        <time>2022-03-20T10:34:33Z</time>
      </trkpt>
      <trkpt lat="50.36773" lon="4.28038">
        <ele>181.889114</ele>
        <time>2022-03-20T10:34:35Z</time>
      </trkpt>
      <trkpt lat="50.36765" lon="4.28044">
        <ele>181.201721</ele>
        <time>2022-03-20T10:34:37Z</time>
      </trkpt>
      <trkpt lat="50.36761" lon="4.28051">
        <ele>180.861237</ele>
        <time>2022-03-20T10:34:39Z</time>
      </trkpt>
      <trkpt lat="50.36757" lon="4.28055">
        <ele>180.629379</ele>
        <time>2022-03-20T10:34:41Z</time>
      </trkpt>
      <trkpt lat="50.36756" lon="4.2806">
        <ele>181.012482</ele>
        <time>2022-03-20T10:34:43Z</time>
      </trkpt>
      <trkpt lat="50.36755" lon="4.28065">
        <ele>180.816254</ele>
        <time>2022-03-20T10:34:45Z</time>
      </trkpt>
      <trkpt lat="50.36755" lon="4.28073">
        <ele>180.615814</ele>
        <time>2022-03-20T10:34:47Z</time>
      </trkpt>
      <trkpt lat="50.36757" lon="4.28083">
        <ele>180.54483</ele>
        <time>2022-03-20T10:34:49Z</time>
      </trkpt>
      <trkpt lat="50.3676" lon="4.28098">
        <ele>180.565704</ele>
        <time>2022-03-20T10:34:51Z</time>
      </trkpt>
      <trkpt lat="50.36757" lon="4.28112">
        <ele>180.46344</ele>
        <time>2022-03-20T10:34:53Z</time>
      </trkpt>
      <trkpt lat="50.3675" lon="4.28126">
        <ele>180.089981</ele>
        <time>2022-03-20T10:34:55Z</time>
      </trkpt>
      <trkpt lat="50.36746" lon="4.28139">
        <ele>180.520538</ele>
        <time>2022-03-20T10:34:57Z</time>
      </trkpt>
      <trkpt lat="50.36741" lon="4.28155">
        <ele>180.367294</ele>
        <time>2022-03-20T10:34:59Z</time>
      </trkpt>
      <trkpt lat="50.36734" lon="4.28163">
        <ele>180.199188</ele>
        <time>2022-03-20T10:35:01Z</time>
      </trkpt>
      <trkpt lat="50.36726" lon="4.28166">
        <ele>180.020294</ele>
        <time>2022-03-20T10:35:03Z</time>
      </trkpt>
      <trkpt lat="50.3672" lon="4.28171">
        <ele>179.777161</ele>
        <time>2022-03-20T10:35:05Z</time>
      </trkpt>
      <trkpt lat="50.36716" lon="4.28174">
        <ele>179.010529</ele>
        <time>2022-03-20T10:35:06Z</time>
      </trkpt>
      <trkpt lat="50.36704" lon="4.28181">
        <ele>178.618515</ele>
        <time>2022-03-20T10:35:08Z</time>
      </trkpt>
      <trkpt lat="50.36698" lon="4.28185">
        <ele>178.610291</ele>
        <time>2022-03-20T10:35:10Z</time>
      </trkpt>
      <trkpt lat="50.36692" lon="4.28193">
        <ele>178.59079</ele>
        <time>2022-03-20T10:35:12Z</time>
      </trkpt>
      <trkpt lat="50.36684" lon="4.282">
        <ele>179.605316</ele>
        <time>2022-03-20T10:35:14Z</time>
      </trkpt>
      <trkpt lat="50.36678" lon="4.28208">
        <ele>179.532272</ele>
        <time>2022-03-20T10:35:16Z</time>
      </trkpt>
      <trkpt lat="50.36673" lon="4.28214">
        <ele>179.440445</ele>
        <time>2022-03-20T10:35:18Z</time>
      </trkpt>
      <trkpt lat="50.36666" lon="4.28221">
        <ele>179.576141</ele>
        <time>2022-03-20T10:35:20Z</time>
      </trkpt>
      <trkpt lat="50.36659" lon="4.28232">
        <ele>179.425873</ele>
        <time>2022-03-20T10:35:22Z</time>
      </trkpt>
      <trkpt lat="50.36656" lon="4.28242">
        <ele>179.326324</ele>
        <time>2022-03-20T10:35:24Z</time>
      </trkpt>
      <trkpt lat="50.36651" lon="4.28254">
        <ele>179.357635</ele>
        <time>2022-03-20T10:35:26Z</time>
      </trkpt>
      <trkpt lat="50.36647" lon="4.28266">
        <ele>179.338852</ele>
        <time>2022-03-20T10:35:28Z</time>
      </trkpt>
      <trkpt lat="50.36643" lon="4.28277">
        <ele>179.524628</ele>
        <time>2022-03-20T10:35:30Z</time>
      </trkpt>
      <trkpt lat="50.36638" lon="4.28287">
        <ele>179.46199</ele>
        <time>2022-03-20T10:35:32Z</time>
      </trkpt>
      <trkpt lat="50.36634" lon="4.28297">
        <ele>179.651886</ele>
        <time>2022-03-20T10:35:34Z</time>
      </trkpt>
      <trkpt lat="50.36628" lon="4.28306">
        <ele>179.911819</ele>
        <time>2022-03-20T10:35:36Z</time>
      </trkpt>
      <trkpt lat="50.36628" lon="4.28312">
        <ele>179.48468</ele>
        <time>2022-03-20T10:35:38Z</time>
      </trkpt>
      <trkpt lat="50.36623" lon="4.28318">
        <ele>179.692184</ele>
        <time>2022-03-20T10:35:40Z</time>
      </trkpt>
      <trkpt lat="50.36619" lon="4.28327">
        <ele>180.29213</ele>
        <time>2022-03-20T10:35:42Z</time>
      </trkpt>
      <trkpt lat="50.36614" lon="4.28335">
        <ele>180.94606</ele>
        <time>2022-03-20T10:35:44Z</time>
      </trkpt>
      <trkpt lat="50.36608" lon="4.28342">
        <ele>181.185043</ele>
        <time>2022-03-20T10:35:46Z</time>
      </trkpt>
      <trkpt lat="50.36604" lon="4.28349">
        <ele>181.536713</ele>
        <time>2022-03-20T10:35:48Z</time>
      </trkpt>
      <trkpt lat="50.36601" lon="4.28355">
        <ele>181.496979</ele>
        <time>2022-03-20T10:35:50Z</time>
      </trkpt>
      <trkpt lat="50.36596" lon="4.28363">
        <ele>181.81839</ele>
        <time>2022-03-20T10:35:52Z</time>
      </trkpt>
      <trkpt lat="50.36591" lon="4.28372">
        <ele>181.472137</ele>
        <time>2022-03-20T10:35:54Z</time>
      </trkpt>
      <trkpt lat="50.36586" lon="4.28379">
        <ele>181.628693</ele>
        <time>2022-03-20T10:35:56Z</time>
      </trkpt>
      <trkpt lat="50.36583" lon="4.28384">
        <ele>181.862503</ele>
        <time>2022-03-20T10:35:58Z</time>
      </trkpt>
      <trkpt lat="50.36579" lon="4.2839">
        <ele>182.001099</ele>
        <time>2022-03-20T10:36:00Z</time>
      </trkpt>
      <trkpt lat="50.36577" lon="4.28393">
        <ele>182.095032</ele>
        <time>2022-03-20T10:36:01Z</time>
      </trkpt>
      <trkpt lat="50.36573" lon="4.28398">
        <ele>182.235748</ele>
        <time>2022-03-20T10:36:03Z</time>
      </trkpt>
      <trkpt lat="50.36568" lon="4.28403">
        <ele>181.912659</ele>
        <time>2022-03-20T10:36:05Z</time>
      </trkpt>
      <trkpt lat="50.36564" lon="4.28409">
        <ele>181.972565</ele>
        <time>2022-03-20T10:36:07Z</time>
      </trkpt>
      <trkpt lat="50.36559" lon="4.28415">
        <ele>182.104156</ele>
        <time>2022-03-20T10:36:09Z</time>
      </trkpt>
      <trkpt lat="50.36555" lon="4.28422">
        <ele>182.11879</ele>
        <time>2022-03-20T10:36:11Z</time>
      </trkpt>
      <trkpt lat="50.36552" lon="4.28428">
        <ele>182.221085</ele>
        <time>2022-03-20T10:36:13Z</time>
      </trkpt>
      <trkpt lat="50.36551" lon="4.28431">
        <ele>182.302383</ele>
        <time>2022-03-20T10:36:15Z</time>
      </trkpt>
      <trkpt lat="50.36549" lon="4.28435">
        <ele>181.78273</ele>
        <time>2022-03-20T10:36:19Z</time>
      </trkpt>
      <trkpt lat="50.36548" lon="4.28439">
        <ele>181.729523</ele>
        <time>2022-03-20T10:36:21Z</time>
      </trkpt>
      <trkpt lat="50.36546" lon="4.28446">
        <ele>181.198761</ele>
        <time>2022-03-20T10:36:23Z</time>
      </trkpt>
      <trkpt lat="50.36546" lon="4.28454">
        <ele>180.098572</ele>
        <time>2022-03-20T10:36:25Z</time>
      </trkpt>
      <trkpt lat="50.36548" lon="4.28465">
        <ele>180.087677</ele>
        <time>2022-03-20T10:36:27Z</time>
      </trkpt>
      <trkpt lat="50.36555" lon="4.28488">
        <ele>180.048553</ele>
        <time>2022-03-20T10:36:29Z</time>
      </trkpt>
      <trkpt lat="50.36558" lon="4.28493">
        <ele>180.008881</ele>
        <time>2022-03-20T10:36:31Z</time>
      </trkpt>
      <trkpt lat="50.3656" lon="4.28496">
        <ele>179.900497</ele>
        <time>2022-03-20T10:36:33Z</time>
      </trkpt>
      <trkpt lat="50.36563" lon="4.28501">
        <ele>179.768982</ele>
        <time>2022-03-20T10:36:35Z</time>
      </trkpt>
      <trkpt lat="50.36566" lon="4.28505">
        <ele>179.649963</ele>
        <time>2022-03-20T10:36:37Z</time>
      </trkpt>
      <trkpt lat="50.36572" lon="4.28509">
        <ele>179.570648</ele>
        <time>2022-03-20T10:36:39Z</time>
      </trkpt>
      <trkpt lat="50.36578" lon="4.28515">
        <ele>179.486557</ele>
        <time>2022-03-20T10:36:41Z</time>
      </trkpt>
      <trkpt lat="50.36586" lon="4.28523">
        <ele>179.37088</ele>
        <time>2022-03-20T10:36:43Z</time>
      </trkpt>
      <trkpt lat="50.36591" lon="4.2853">
        <ele>179.210114</ele>
        <time>2022-03-20T10:36:45Z</time>
      </trkpt>
      <trkpt lat="50.36598" lon="4.28538">
        <ele>179.586014</ele>
        <time>2022-03-20T10:36:47Z</time>
      </trkpt>
      <trkpt lat="50.36605" lon="4.28543">
        <ele>179.535904</ele>
        <time>2022-03-20T10:36:49Z</time>
      </trkpt>
      <trkpt lat="50.36611" lon="4.28548">
        <ele>179.460663</ele>
        <time>2022-03-20T10:36:51Z</time>
      </trkpt>
      <trkpt lat="50.36617" lon="4.28553">
        <ele>179.304108</ele>
        <time>2022-03-20T10:36:53Z</time>
      </trkpt>
      <trkpt lat="50.36623" lon="4.28558">
        <ele>179.160187</ele>
        <time>2022-03-20T10:36:55Z</time>
      </trkpt>
      <trkpt lat="50.36631" lon="4.28563">
        <ele>179.204025</ele>
        <time>2022-03-20T10:36:57Z</time>
      </trkpt>
      <trkpt lat="50.36639" lon="4.28568">
        <ele>178.961945</ele>
        <time>2022-03-20T10:36:59Z</time>
      </trkpt>
      <trkpt lat="50.36647" lon="4.28574">
        <ele>179.418594</ele>
        <time>2022-03-20T10:37:01Z</time>
      </trkpt>
      <trkpt lat="50.36657" lon="4.28577">
        <ele>179.294342</ele>
        <time>2022-03-20T10:37:03Z</time>
      </trkpt>
      <trkpt lat="50.36667" lon="4.28583">
        <ele>179.835007</ele>
        <time>2022-03-20T10:37:05Z</time>
      </trkpt>
      <trkpt lat="50.36681" lon="4.28591">
        <ele>179.662231</ele>
        <time>2022-03-20T10:37:07Z</time>
      </trkpt>
      <trkpt lat="50.36693" lon="4.28597">
        <ele>179.562042</ele>
        <time>2022-03-20T10:37:09Z</time>
      </trkpt>
      <trkpt lat="50.36705" lon="4.28604">
        <ele>179.532837</ele>
        <time>2022-03-20T10:37:11Z</time>
      </trkpt>
      <trkpt lat="50.36716" lon="4.2861">
        <ele>179.498428</ele>
        <time>2022-03-20T10:37:13Z</time>
      </trkpt>
      <trkpt lat="50.36727" lon="4.28616">
        <ele>179.360489</ele>
        <time>2022-03-20T10:37:15Z</time>
      </trkpt>
      <trkpt lat="50.36737" lon="4.28622">
        <ele>179.026611</ele>
        <time>2022-03-20T10:37:17Z</time>
      </trkpt>
      <trkpt lat="50.36742" lon="4.28627">
        <ele>178.807465</ele>
        <time>2022-03-20T10:37:19Z</time>
      </trkpt>
      <trkpt lat="50.36752" lon="4.28635">
        <ele>178.585846</ele>
        <time>2022-03-20T10:37:21Z</time>
      </trkpt>
      <trkpt lat="50.3676" lon="4.28638">
        <ele>178.373032</ele>
        <time>2022-03-20T10:37:23Z</time>
      </trkpt>
      <trkpt lat="50.3677" lon="4.28641">
        <ele>178.251984</ele>
        <time>2022-03-20T10:37:25Z</time>
      </trkpt>
      <trkpt lat="50.36778" lon="4.28646">
        <ele>178.155975</ele>
        <time>2022-03-20T10:37:27Z</time>
      </trkpt>
      <trkpt lat="50.36787" lon="4.28651">
        <ele>177.884674</ele>
        <time>2022-03-20T10:37:29Z</time>
      </trkpt>
      <trkpt lat="50.36797" lon="4.28656">
        <ele>177.646759</ele>
        <time>2022-03-20T10:37:31Z</time>
      </trkpt>
      <trkpt lat="50.36808" lon="4.28658">
        <ele>177.415131</ele>
        <time>2022-03-20T10:37:33Z</time>
      </trkpt>
      <trkpt lat="50.36815" lon="4.28663">
        <ele>177.192032</ele>
        <time>2022-03-20T10:37:35Z</time>
      </trkpt>
      <trkpt lat="50.36824" lon="4.28671">
        <ele>176.820526</ele>
        <time>2022-03-20T10:37:37Z</time>
      </trkpt>
      <trkpt lat="50.36834" lon="4.2868">
        <ele>176.51796</ele>
        <time>2022-03-20T10:37:39Z</time>
      </trkpt>
      <trkpt lat="50.36842" lon="4.28682">
        <ele>176.446991</ele>
        <time>2022-03-20T10:37:41Z</time>
      </trkpt>
      <trkpt lat="50.36848" lon="4.28682">
        <ele>176.225739</ele>
        <time>2022-03-20T10:37:43Z</time>
      </trkpt>
      <trkpt lat="50.36852" lon="4.28684">
        <ele>175.951935</ele>
        <time>2022-03-20T10:37:45Z</time>
      </trkpt>
      <trkpt lat="50.36856" lon="4.28685">
        <ele>175.653625</ele>
        <time>2022-03-20T10:37:47Z</time>
      </trkpt>
      <trkpt lat="50.36859" lon="4.28687">
        <ele>174.644714</ele>
        <time>2022-03-20T10:37:57Z</time>
      </trkpt>
      <trkpt lat="50.36861" lon="4.28688">
        <ele>174.588394</ele>
        <time>2022-03-20T10:37:59Z</time>
      </trkpt>
      <trkpt lat="50.36863" lon="4.28688">
        <ele>174.36734</ele>
        <time>2022-03-20T10:38:01Z</time>
      </trkpt>
      <trkpt lat="50.36873" lon="4.28694">
        <ele>171.427399</ele>
        <time>2022-03-20T10:38:27Z</time>
      </trkpt>
      <trkpt lat="50.36901" lon="4.2871">
        <ele>169.046051</ele>
        <time>2022-03-20T10:38:45Z</time>
      </trkpt>
      <trkpt lat="50.36902" lon="4.2871">
        <ele>168.766632</ele>
        <time>2022-03-20T10:38:47Z</time>
      </trkpt>
      <trkpt lat="50.36903" lon="4.28707">
        <ele>168.151398</ele>
        <time>2022-03-20T10:38:51Z</time>
      </trkpt>
      <trkpt lat="50.36905" lon="4.28705">
        <ele>167.229126</ele>
        <time>2022-03-20T10:38:57Z</time>
      </trkpt>
      <trkpt lat="50.36906" lon="4.28705">
        <ele>167.064423</ele>
        <time>2022-03-20T10:38:58Z</time>
      </trkpt>
      <trkpt lat="50.36909" lon="4.28707">
        <ele>153.646774</ele>
        <time>2022-03-20T10:40:08Z</time>
      </trkpt>
      <trkpt lat="50.36932" lon="4.28721">
        <ele>152.756546</ele>
        <time>2022-03-20T10:40:14Z</time>
      </trkpt>
      <trkpt lat="50.36934" lon="4.28719">
        <ele>149.490051</ele>
        <time>2022-03-20T10:40:31Z</time>
      </trkpt>
      <trkpt lat="50.36935" lon="4.28716">
        <ele>149.148697</ele>
        <time>2022-03-20T10:40:33Z</time>
      </trkpt>
      <trkpt lat="50.3694" lon="4.28712">
        <ele>148.838562</ele>
        <time>2022-03-20T10:40:35Z</time>
      </trkpt>
      <trkpt lat="50.36941" lon="4.2871">
        <ele>148.247437</ele>
        <time>2022-03-20T10:40:39Z</time>
      </trkpt>
      <trkpt lat="50.36943" lon="4.28709">
        <ele>148.006012</ele>
        <time>2022-03-20T10:40:41Z</time>
      </trkpt>
      <trkpt lat="50.36947" lon="4.2871">
        <ele>147.562714</ele>
        <time>2022-03-20T10:40:45Z</time>
      </trkpt>
      <trkpt lat="50.36949" lon="4.28712">
        <ele>147.414963</ele>
        <time>2022-03-20T10:40:47Z</time>
      </trkpt>
      <trkpt lat="50.36948" lon="4.28717">
        <ele>147.307068</ele>
        <time>2022-03-20T10:40:49Z</time>
      </trkpt>
      <trkpt lat="50.36947" lon="4.28723">
        <ele>147.169708</ele>
        <time>2022-03-20T10:40:51Z</time>
      </trkpt>
      <trkpt lat="50.36947" lon="4.28729">
        <ele>147.01239</ele>
        <time>2022-03-20T10:40:53Z</time>
      </trkpt>
      <trkpt lat="50.36946" lon="4.28733">
        <ele>146.866028</ele>
        <time>2022-03-20T10:40:55Z</time>
      </trkpt>
      <trkpt lat="50.36945" lon="4.28742">
        <ele>146.828629</ele>
        <time>2022-03-20T10:40:57Z</time>
      </trkpt>
      <trkpt lat="50.36943" lon="4.28749">
        <ele>146.724152</ele>
        <time>2022-03-20T10:40:59Z</time>
      </trkpt>
      <trkpt lat="50.36939" lon="4.28757">
        <ele>146.60556</ele>
        <time>2022-03-20T10:41:01Z</time>
      </trkpt>
      <trkpt lat="50.36935" lon="4.28766">
        <ele>146.514023</ele>
        <time>2022-03-20T10:41:03Z</time>
      </trkpt>
      <trkpt lat="50.36932" lon="4.28777">
        <ele>146.436249</ele>
        <time>2022-03-20T10:41:05Z</time>
      </trkpt>
      <trkpt lat="50.36926" lon="4.28787">
        <ele>146.317642</ele>
        <time>2022-03-20T10:41:07Z</time>
      </trkpt>
      <trkpt lat="50.3692" lon="4.28799">
        <ele>146.208191</ele>
        <time>2022-03-20T10:41:09Z</time>
      </trkpt>
      <trkpt lat="50.36913" lon="4.28811">
        <ele>146.121414</ele>
        <time>2022-03-20T10:41:11Z</time>
      </trkpt>
      <trkpt lat="50.36905" lon="4.28827">
        <ele>145.9841</ele>
        <time>2022-03-20T10:41:13Z</time>
      </trkpt>
      <trkpt lat="50.36897" lon="4.28843">
        <ele>145.848663</ele>
        <time>2022-03-20T10:41:15Z</time>
      </trkpt>
      <trkpt lat="50.3689" lon="4.2886">
        <ele>145.690552</ele>
        <time>2022-03-20T10:41:17Z</time>
      </trkpt>
      <trkpt lat="50.36883" lon="4.28876">
        <ele>145.515808</ele>
        <time>2022-03-20T10:41:19Z</time>
      </trkpt>
      <trkpt lat="50.36875" lon="4.28892">
        <ele>145.395157</ele>
        <time>2022-03-20T10:41:21Z</time>
      </trkpt>
      <trkpt lat="50.36866" lon="4.28906">
        <ele>145.187134</ele>
        <time>2022-03-20T10:41:23Z</time>
      </trkpt>
      <trkpt lat="50.3686" lon="4.28925">
        <ele>144.960388</ele>
        <time>2022-03-20T10:41:25Z</time>
      </trkpt>
      <trkpt lat="50.36853" lon="4.28944">
        <ele>144.681625</ele>
        <time>2022-03-20T10:41:27Z</time>
      </trkpt>
      <trkpt lat="50.36848" lon="4.28966">
        <ele>144.468002</ele>
        <time>2022-03-20T10:41:29Z</time>
      </trkpt>
      <trkpt lat="50.36842" lon="4.28987">
        <ele>144.151825</ele>
        <time>2022-03-20T10:41:31Z</time>
      </trkpt>
      <trkpt lat="50.36837" lon="4.29009">
        <ele>143.841049</ele>
        <time>2022-03-20T10:41:33Z</time>
      </trkpt>
      <trkpt lat="50.36829" lon="4.2903">
        <ele>143.475662</ele>
        <time>2022-03-20T10:41:35Z</time>
      </trkpt>
      <trkpt lat="50.36823" lon="4.29052">
        <ele>142.661713</ele>
        <time>2022-03-20T10:41:37Z</time>
      </trkpt>
      <trkpt lat="50.36821" lon="4.29079">
        <ele>142.302322</ele>
        <time>2022-03-20T10:41:39Z</time>
      </trkpt>
      <trkpt lat="50.36821" lon="4.29105">
        <ele>141.975876</ele>
        <time>2022-03-20T10:41:41Z</time>
      </trkpt>
      <trkpt lat="50.36821" lon="4.29133">
        <ele>141.622284</ele>
        <time>2022-03-20T10:41:43Z</time>
      </trkpt>
      <trkpt lat="50.36818" lon="4.29161">
        <ele>141.289551</ele>
        <time>2022-03-20T10:41:45Z</time>
      </trkpt>
      <trkpt lat="50.3681" lon="4.29183">
        <ele>140.920654</ele>
        <time>2022-03-20T10:41:47Z</time>
      </trkpt>
      <trkpt lat="50.36799" lon="4.29203">
        <ele>140.587982</ele>
        <time>2022-03-20T10:41:49Z</time>
      </trkpt>
      <trkpt lat="50.36789" lon="4.2922">
        <ele>139.725586</ele>
        <time>2022-03-20T10:41:51Z</time>
      </trkpt>
      <trkpt lat="50.36781" lon="4.29235">
        <ele>139.384155</ele>
        <time>2022-03-20T10:41:53Z</time>
      </trkpt>
      <trkpt lat="50.36771" lon="4.29249">
        <ele>139.169968</ele>
        <time>2022-03-20T10:41:55Z</time>
      </trkpt>
      <trkpt lat="50.36763" lon="4.29264">
        <ele>138.727249</ele>
        <time>2022-03-20T10:41:57Z</time>
      </trkpt>
      <trkpt lat="50.36758" lon="4.29271">
        <ele>138.550507</ele>
        <time>2022-03-20T10:41:58Z</time>
      </trkpt>
      <trkpt lat="50.36751" lon="4.29286">
        <ele>138.149704</ele>
        <time>2022-03-20T10:42:00Z</time>
      </trkpt>
      <trkpt lat="50.36745" lon="4.293">
        <ele>137.80246</ele>
        <time>2022-03-20T10:42:02Z</time>
      </trkpt>
      <trkpt lat="50.36739" lon="4.29314">
        <ele>137.434448</ele>
        <time>2022-03-20T10:42:04Z</time>
      </trkpt>
      <trkpt lat="50.3673" lon="4.29324">
        <ele>137.105957</ele>
        <time>2022-03-20T10:42:06Z</time>
      </trkpt>
      <trkpt lat="50.36721" lon="4.29333">
        <ele>136.800339</ele>
        <time>2022-03-20T10:42:08Z</time>
      </trkpt>
      <trkpt lat="50.36715" lon="4.29345">
        <ele>136.410889</ele>
        <time>2022-03-20T10:42:10Z</time>
      </trkpt>
      <trkpt lat="50.36709" lon="4.29356">
        <ele>136.1427</ele>
        <time>2022-03-20T10:42:12Z</time>
      </trkpt>
      <trkpt lat="50.367" lon="4.29366">
        <ele>135.829987</ele>
        <time>2022-03-20T10:42:14Z</time>
      </trkpt>
      <trkpt lat="50.36695" lon="4.29377">
        <ele>135.649109</ele>
        <time>2022-03-20T10:42:15Z</time>
      </trkpt>
      <trkpt lat="50.36691" lon="4.29389">
        <ele>135.901031</ele>
        <time>2022-03-20T10:42:18Z</time>
      </trkpt>
      <trkpt lat="50.36689" lon="4.29404">
        <ele>135.802139</ele>
        <time>2022-03-20T10:42:20Z</time>
      </trkpt>
      <trkpt lat="50.36686" lon="4.29417">
        <ele>135.55896</ele>
        <time>2022-03-20T10:42:22Z</time>
      </trkpt>
      <trkpt lat="50.36683" lon="4.29435">
        <ele>135.307861</ele>
        <time>2022-03-20T10:42:24Z</time>
      </trkpt>
      <trkpt lat="50.3668" lon="4.29448">
        <ele>135.044907</ele>
        <time>2022-03-20T10:42:26Z</time>
      </trkpt>
      <trkpt lat="50.36679" lon="4.29462">
        <ele>134.815765</ele>
        <time>2022-03-20T10:42:28Z</time>
      </trkpt>
      <trkpt lat="50.3668" lon="4.29477">
        <ele>134.6017</ele>
        <time>2022-03-20T10:42:30Z</time>
      </trkpt>
      <trkpt lat="50.36675" lon="4.29492">
        <ele>134.310272</ele>
        <time>2022-03-20T10:42:32Z</time>
      </trkpt>
      <trkpt lat="50.36673" lon="4.2951">
        <ele>134.572205</ele>
        <time>2022-03-20T10:42:34Z</time>
      </trkpt>
      <trkpt lat="50.36671" lon="4.29526">
        <ele>134.496521</ele>
        <time>2022-03-20T10:42:36Z</time>
      </trkpt>
      <trkpt lat="50.36669" lon="4.29542">
        <ele>134.364899</ele>
        <time>2022-03-20T10:42:38Z</time>
      </trkpt>
      <trkpt lat="50.36666" lon="4.2956">
        <ele>134.173172</ele>
        <time>2022-03-20T10:42:40Z</time>
      </trkpt>
      <trkpt lat="50.36664" lon="4.2958">
        <ele>134.01088</ele>
        <time>2022-03-20T10:42:42Z</time>
      </trkpt>
      <trkpt lat="50.36663" lon="4.29604">
        <ele>133.846542</ele>
        <time>2022-03-20T10:42:44Z</time>
      </trkpt>
      <trkpt lat="50.36658" lon="4.29626">
        <ele>133.620056</ele>
        <time>2022-03-20T10:42:46Z</time>
      </trkpt>
      <trkpt lat="50.36655" lon="4.29651">
        <ele>133.329132</ele>
        <time>2022-03-20T10:42:48Z</time>
      </trkpt>
      <trkpt lat="50.36655" lon="4.29675">
        <ele>133.071487</ele>
        <time>2022-03-20T10:42:50Z</time>
      </trkpt>
      <trkpt lat="50.36652" lon="4.29701">
        <ele>132.853333</ele>
        <time>2022-03-20T10:42:52Z</time>
      </trkpt>
      <trkpt lat="50.36653" lon="4.29728">
        <ele>132.246857</ele>
        <time>2022-03-20T10:42:54Z</time>
      </trkpt>
      <trkpt lat="50.36658" lon="4.29756">
        <ele>132.009979</ele>
        <time>2022-03-20T10:42:56Z</time>
      </trkpt>
      <trkpt lat="50.36663" lon="4.29785">
        <ele>131.586548</ele>
        <time>2022-03-20T10:42:58Z</time>
      </trkpt>
      <trkpt lat="50.36673" lon="4.2981">
        <ele>131.257782</ele>
        <time>2022-03-20T10:43:00Z</time>
      </trkpt>
      <trkpt lat="50.36686" lon="4.29832">
        <ele>131.057404</ele>
        <time>2022-03-20T10:43:01Z</time>
      </trkpt>
      <trkpt lat="50.367" lon="4.29852">
        <ele>130.747604</ele>
        <time>2022-03-20T10:43:04Z</time>
      </trkpt>
      <trkpt lat="50.36712" lon="4.29867">
        <ele>130.587616</ele>
        <time>2022-03-20T10:43:06Z</time>
      </trkpt>
      <trkpt lat="50.36724" lon="4.29882">
        <ele>130.164871</ele>
        <time>2022-03-20T10:43:08Z</time>
      </trkpt>
      <trkpt lat="50.36736" lon="4.29894">
        <ele>129.519043</ele>
        <time>2022-03-20T10:43:10Z</time>
      </trkpt>
      <trkpt lat="50.36746" lon="4.29906">
        <ele>129.265625</ele>
        <time>2022-03-20T10:43:12Z</time>
      </trkpt>
      <trkpt lat="50.36757" lon="4.29918">
        <ele>129.14827</ele>
        <time>2022-03-20T10:43:14Z</time>
      </trkpt>
      <trkpt lat="50.36766" lon="4.2993">
        <ele>128.763885</ele>
        <time>2022-03-20T10:43:16Z</time>
      </trkpt>
      <trkpt lat="50.36778" lon="4.29943">
        <ele>128.496735</ele>
        <time>2022-03-20T10:43:18Z</time>
      </trkpt>
      <trkpt lat="50.36786" lon="4.29954">
        <ele>128.243988</ele>
        <time>2022-03-20T10:43:20Z</time>
      </trkpt>
      <trkpt lat="50.36791" lon="4.2997">
        <ele>128.021698</ele>
        <time>2022-03-20T10:43:22Z</time>
      </trkpt>
      <trkpt lat="50.36793" lon="4.29986">
        <ele>127.71785</ele>
        <time>2022-03-20T10:43:24Z</time>
      </trkpt>
      <trkpt lat="50.36795" lon="4.29993">
        <ele>127.551292</ele>
        <time>2022-03-20T10:43:25Z</time>
      </trkpt>
      <trkpt lat="50.36796" lon="4.30009">
        <ele>127.306274</ele>
        <time>2022-03-20T10:43:27Z</time>
      </trkpt>
      <trkpt lat="50.36797" lon="4.30023">
        <ele>127.009277</ele>
        <time>2022-03-20T10:43:29Z</time>
      </trkpt>
      <trkpt lat="50.36798" lon="4.30039">
        <ele>126.604393</ele>
        <time>2022-03-20T10:43:31Z</time>
      </trkpt>
      <trkpt lat="50.36799" lon="4.30054">
        <ele>126.31572</ele>
        <time>2022-03-20T10:43:33Z</time>
      </trkpt>
      <trkpt lat="50.36799" lon="4.3007">
        <ele>126.410355</ele>
        <time>2022-03-20T10:43:35Z</time>
      </trkpt>
      <trkpt lat="50.36798" lon="4.30086">
        <ele>125.997116</ele>
        <time>2022-03-20T10:43:37Z</time>
      </trkpt>
      <trkpt lat="50.36794" lon="4.30102">
        <ele>125.728844</ele>
        <time>2022-03-20T10:43:39Z</time>
      </trkpt>
      <trkpt lat="50.36788" lon="4.30116">
        <ele>125.413712</ele>
        <time>2022-03-20T10:43:41Z</time>
      </trkpt>
      <trkpt lat="50.36782" lon="4.30128">
        <ele>125.106369</ele>
        <time>2022-03-20T10:43:43Z</time>
      </trkpt>
      <trkpt lat="50.36776" lon="4.30139">
        <ele>124.808517</ele>
        <time>2022-03-20T10:43:45Z</time>
      </trkpt>
      <trkpt lat="50.36769" lon="4.30148">
        <ele>124.619568</ele>
        <time>2022-03-20T10:43:47Z</time>
      </trkpt>
      <trkpt lat="50.36763" lon="4.30157">
        <ele>124.370621</ele>
        <time>2022-03-20T10:43:49Z</time>
      </trkpt>
      <trkpt lat="50.36756" lon="4.30166">
        <ele>124.190323</ele>
        <time>2022-03-20T10:43:51Z</time>
      </trkpt>
      <trkpt lat="50.36749" lon="4.30175">
        <ele>124.005508</ele>
        <time>2022-03-20T10:43:53Z</time>
      </trkpt>
      <trkpt lat="50.36742" lon="4.30185">
        <ele>123.589539</ele>
        <time>2022-03-20T10:43:55Z</time>
      </trkpt>
      <trkpt lat="50.36735" lon="4.30195">
        <ele>123.21376</ele>
        <time>2022-03-20T10:43:57Z</time>
      </trkpt>
      <trkpt lat="50.36727" lon="4.30203">
        <ele>122.893616</ele>
        <time>2022-03-20T10:43:59Z</time>
      </trkpt>
      <trkpt lat="50.36719" lon="4.3021">
        <ele>122.5905</ele>
        <time>2022-03-20T10:44:01Z</time>
      </trkpt>
      <trkpt lat="50.36712" lon="4.30219">
        <ele>122.225075</ele>
        <time>2022-03-20T10:44:03Z</time>
      </trkpt>
      <trkpt lat="50.36704" lon="4.30225">
        <ele>121.879135</ele>
        <time>2022-03-20T10:44:05Z</time>
      </trkpt>
      <trkpt lat="50.36696" lon="4.30234">
        <ele>121.965004</ele>
        <time>2022-03-20T10:44:07Z</time>
      </trkpt>
      <trkpt lat="50.36689" lon="4.30241">
        <ele>121.601784</ele>
        <time>2022-03-20T10:44:09Z</time>
      </trkpt>
      <trkpt lat="50.36681" lon="4.30248">
        <ele>121.466873</ele>
        <time>2022-03-20T10:44:11Z</time>
      </trkpt>
      <trkpt lat="50.36673" lon="4.30253">
        <ele>121.298744</ele>
        <time>2022-03-20T10:44:13Z</time>
      </trkpt>
      <trkpt lat="50.36667" lon="4.30258">
        <ele>121.039474</ele>
        <time>2022-03-20T10:44:15Z</time>
      </trkpt>
      <trkpt lat="50.3666" lon="4.30263">
        <ele>120.83812</ele>
        <time>2022-03-20T10:44:17Z</time>
      </trkpt>
      <trkpt lat="50.36656" lon="4.30268">
        <ele>120.786232</ele>
        <time>2022-03-20T10:44:19Z</time>
      </trkpt>
      <trkpt lat="50.36651" lon="4.30269">
        <ele>120.557938</ele>
        <time>2022-03-20T10:44:21Z</time>
      </trkpt>
      <trkpt lat="50.36646" lon="4.30275">
        <ele>120.391891</ele>
        <time>2022-03-20T10:44:23Z</time>
      </trkpt>
      <trkpt lat="50.36642" lon="4.30279">
        <ele>119.679245</ele>
        <time>2022-03-20T10:44:25Z</time>
      </trkpt>
      <trkpt lat="50.36638" lon="4.30284">
        <ele>119.509583</ele>
        <time>2022-03-20T10:44:27Z</time>
      </trkpt>
      <trkpt lat="50.36635" lon="4.30287">
        <ele>119.362671</ele>
        <time>2022-03-20T10:44:29Z</time>
      </trkpt>
      <trkpt lat="50.36631" lon="4.30287">
        <ele>119.198349</ele>
        <time>2022-03-20T10:44:31Z</time>
      </trkpt>
      <trkpt lat="50.36629" lon="4.30286">
        <ele>119.214951</ele>
        <time>2022-03-20T10:44:33Z</time>
      </trkpt>
      <trkpt lat="50.36627" lon="4.30287">
        <ele>119.246094</ele>
        <time>2022-03-20T10:44:35Z</time>
      </trkpt>
      <trkpt lat="50.36624" lon="4.30287">
        <ele>119.268921</ele>
        <time>2022-03-20T10:44:37Z</time>
      </trkpt>
      <trkpt lat="50.36622" lon="4.30287">
        <ele>119.242493</ele>
        <time>2022-03-20T10:44:39Z</time>
      </trkpt>
      <trkpt lat="50.3662" lon="4.30287">
        <ele>119.232117</ele>
        <time>2022-03-20T10:44:41Z</time>
      </trkpt>
      <trkpt lat="50.36618" lon="4.30285">
        <ele>119.250809</ele>
        <time>2022-03-20T10:44:43Z</time>
      </trkpt>
      <trkpt lat="50.36616" lon="4.30284">
        <ele>119.294388</ele>
        <time>2022-03-20T10:44:45Z</time>
      </trkpt>
      <trkpt lat="50.36614" lon="4.30282">
        <ele>119.394005</ele>
        <time>2022-03-20T10:44:47Z</time>
      </trkpt>
      <trkpt lat="50.36611" lon="4.30281">
        <ele>118.934937</ele>
        <time>2022-03-20T10:44:49Z</time>
      </trkpt>
      <trkpt lat="50.36609" lon="4.30279">
        <ele>119.115479</ele>
        <time>2022-03-20T10:44:51Z</time>
      </trkpt>
      <trkpt lat="50.36607" lon="4.30278">
        <ele>119.231705</ele>
        <time>2022-03-20T10:44:53Z</time>
      </trkpt>
      <trkpt lat="50.36604" lon="4.30277">
        <ele>119.341698</ele>
        <time>2022-03-20T10:44:55Z</time>
      </trkpt>
      <trkpt lat="50.36602" lon="4.30276">
        <ele>119.493591</ele>
        <time>2022-03-20T10:44:57Z</time>
      </trkpt>
      <trkpt lat="50.36599" lon="4.30274">
        <ele>119.6119</ele>
        <time>2022-03-20T10:44:59Z</time>
      </trkpt>
      <trkpt lat="50.36596" lon="4.30272">
        <ele>119.769638</ele>
        <time>2022-03-20T10:45:01Z</time>
      </trkpt>
      <trkpt lat="50.36589" lon="4.30269">
        <ele>120.00209</ele>
        <time>2022-03-20T10:45:03Z</time>
      </trkpt>
      <trkpt lat="50.36587" lon="4.30266">
        <ele>120.872459</ele>
        <time>2022-03-20T10:45:07Z</time>
      </trkpt>
      <trkpt lat="50.36585" lon="4.30265">
        <ele>121.042648</ele>
        <time>2022-03-20T10:45:09Z</time>
      </trkpt>
      <trkpt lat="50.36583" lon="4.30263">
        <ele>121.247452</ele>
        <time>2022-03-20T10:45:11Z</time>
      </trkpt>
      <trkpt lat="50.3658" lon="4.30262">
        <ele>121.463318</ele>
        <time>2022-03-20T10:45:13Z</time>
      </trkpt>
      <trkpt lat="50.36578" lon="4.30259">
        <ele>121.575417</ele>
        <time>2022-03-20T10:45:15Z</time>
      </trkpt>
      <trkpt lat="50.36575" lon="4.30259">
        <ele>121.78508</ele>
        <time>2022-03-20T10:45:17Z</time>
      </trkpt>
      <trkpt lat="50.36573" lon="4.30257">
        <ele>121.89286</ele>
        <time>2022-03-20T10:45:19Z</time>
      </trkpt>
      <trkpt lat="50.3657" lon="4.30256">
        <ele>122.083839</ele>
        <time>2022-03-20T10:45:21Z</time>
      </trkpt>
      <trkpt lat="50.36568" lon="4.30254">
        <ele>122.270653</ele>
        <time>2022-03-20T10:45:23Z</time>
      </trkpt>
      <trkpt lat="50.36566" lon="4.30253">
        <ele>122.440895</ele>
        <time>2022-03-20T10:45:25Z</time>
      </trkpt>
      <trkpt lat="50.36563" lon="4.30251">
        <ele>122.51355</ele>
        <time>2022-03-20T10:45:27Z</time>
      </trkpt>
      <trkpt lat="50.3656" lon="4.3025">
        <ele>122.693985</ele>
        <time>2022-03-20T10:45:29Z</time>
      </trkpt>
      <trkpt lat="50.36556" lon="4.30248">
        <ele>122.926491</ele>
        <time>2022-03-20T10:45:31Z</time>
      </trkpt>
      <trkpt lat="50.36551" lon="4.30246">
        <ele>123.060165</ele>
        <time>2022-03-20T10:45:33Z</time>
      </trkpt>
      <trkpt lat="50.36548" lon="4.30244">
        <ele>123.232468</ele>
        <time>2022-03-20T10:45:35Z</time>
      </trkpt>
      <trkpt lat="50.36545" lon="4.30242">
        <ele>123.43412</ele>
        <time>2022-03-20T10:45:37Z</time>
      </trkpt>
      <trkpt lat="50.36543" lon="4.3024">
        <ele>123.637589</ele>
        <time>2022-03-20T10:45:39Z</time>
      </trkpt>
      <trkpt lat="50.36541" lon="4.30239">
        <ele>124.024063</ele>
        <time>2022-03-20T10:45:43Z</time>
      </trkpt>
      <trkpt lat="50.36538" lon="4.30237">
        <ele>124.160706</ele>
        <time>2022-03-20T10:45:45Z</time>
      </trkpt>
      <trkpt lat="50.36535" lon="4.30235">
        <ele>124.337196</ele>
        <time>2022-03-20T10:45:47Z</time>
      </trkpt>
      <trkpt lat="50.36531" lon="4.30233">
        <ele>124.507584</ele>
        <time>2022-03-20T10:45:49Z</time>
      </trkpt>
      <trkpt lat="50.36527" lon="4.30232">
        <ele>124.893799</ele>
        <time>2022-03-20T10:45:53Z</time>
      </trkpt>
      <trkpt lat="50.36525" lon="4.30234">
        <ele>125.097305</ele>
        <time>2022-03-20T10:45:55Z</time>
      </trkpt>
      <trkpt lat="50.36523" lon="4.30233">
        <ele>125.341476</ele>
        <time>2022-03-20T10:45:57Z</time>
      </trkpt>
      <trkpt lat="50.36521" lon="4.30233">
        <ele>125.588577</ele>
        <time>2022-03-20T10:45:59Z</time>
      </trkpt>
      <trkpt lat="50.36518" lon="4.30232">
        <ele>125.856461</ele>
        <time>2022-03-20T10:46:01Z</time>
      </trkpt>
      <trkpt lat="50.36516" lon="4.30231">
        <ele>126.074509</ele>
        <time>2022-03-20T10:46:03Z</time>
      </trkpt>
      <trkpt lat="50.36512" lon="4.3023">
        <ele>126.369423</ele>
        <time>2022-03-20T10:46:05Z</time>
      </trkpt>
      <trkpt lat="50.36509" lon="4.30229">
        <ele>126.487808</ele>
        <time>2022-03-20T10:46:07Z</time>
      </trkpt>
      <trkpt lat="50.36503" lon="4.30228">
        <ele>127.011337</ele>
        <time>2022-03-20T10:46:11Z</time>
      </trkpt>
      <trkpt lat="50.36501" lon="4.30228">
        <ele>127.286743</ele>
        <time>2022-03-20T10:46:13Z</time>
      </trkpt>
      <trkpt lat="50.36497" lon="4.30227">
        <ele>127.596207</ele>
        <time>2022-03-20T10:46:15Z</time>
      </trkpt>
      <trkpt lat="50.36494" lon="4.30226">
        <ele>128.141357</ele>
        <time>2022-03-20T10:46:19Z</time>
      </trkpt>
      <trkpt lat="50.36488" lon="4.30224">
        <ele>128.379913</ele>
        <time>2022-03-20T10:46:21Z</time>
      </trkpt>
      <trkpt lat="50.36486" lon="4.30223">
        <ele>128.672806</ele>
        <time>2022-03-20T10:46:23Z</time>
      </trkpt>
      <trkpt lat="50.36483" lon="4.30222">
        <ele>129.32402</ele>
        <time>2022-03-20T10:46:27Z</time>
      </trkpt>
      <trkpt lat="50.36482" lon="4.30221">
        <ele>129.660431</ele>
        <time>2022-03-20T10:46:29Z</time>
      </trkpt>
      <trkpt lat="50.36478" lon="4.30221">
        <ele>129.988647</ele>
        <time>2022-03-20T10:46:31Z</time>
      </trkpt>
      <trkpt lat="50.36477" lon="4.30219">
        <ele>130.325165</ele>
        <time>2022-03-20T10:46:33Z</time>
      </trkpt>
      <trkpt lat="50.36471" lon="4.30217">
        <ele>131.468781</ele>
        <time>2022-03-20T10:46:41Z</time>
      </trkpt>
      <trkpt lat="50.36468" lon="4.30217">
        <ele>132.164841</ele>
        <time>2022-03-20T10:46:45Z</time>
      </trkpt>
      <trkpt lat="50.36466" lon="4.30216">
        <ele>132.446869</ele>
        <time>2022-03-20T10:46:47Z</time>
      </trkpt>
      <trkpt lat="50.36464" lon="4.30216">
        <ele>133.118088</ele>
        <time>2022-03-20T10:46:51Z</time>
      </trkpt>
      <trkpt lat="50.36461" lon="4.30216">
        <ele>133.89743</ele>
        <time>2022-03-20T10:46:55Z</time>
      </trkpt>
      <trkpt lat="50.36456" lon="4.30218">
        <ele>141.539764</ele>
        <time>2022-03-20T10:47:44Z</time>
      </trkpt>
      <trkpt lat="50.3645" lon="4.30218">
        <ele>141.73941</ele>
        <time>2022-03-20T10:47:46Z</time>
      </trkpt>
      <trkpt lat="50.36446" lon="4.30217">
        <ele>142.563782</ele>
        <time>2022-03-20T10:47:56Z</time>
      </trkpt>
      <trkpt lat="50.36444" lon="4.30215">
        <ele>142.97403</ele>
        <time>2022-03-20T10:48:00Z</time>
      </trkpt>
      <trkpt lat="50.36442" lon="4.30212">
        <ele>143.432098</ele>
        <time>2022-03-20T10:48:04Z</time>
      </trkpt>
      <trkpt lat="50.36439" lon="4.30209">
        <ele>143.948029</ele>
        <time>2022-03-20T10:48:08Z</time>
      </trkpt>
      <trkpt lat="50.36433" lon="4.30203">
        <ele>144.391159</ele>
        <time>2022-03-20T10:48:12Z</time>
      </trkpt>
      <trkpt lat="50.36432" lon="4.30202">
        <ele>144.695404</ele>
        <time>2022-03-20T10:48:14Z</time>
      </trkpt>
      <trkpt lat="50.36425" lon="4.30196">
        <ele>156.393372</ele>
        <time>2022-03-20T10:49:25Z</time>
      </trkpt>
      <trkpt lat="50.36388" lon="4.30169">
        <ele>156.730347</ele>
        <time>2022-03-20T10:49:27Z</time>
      </trkpt>
      <trkpt lat="50.36385" lon="4.30168">
        <ele>157.453094</ele>
        <time>2022-03-20T10:49:31Z</time>
      </trkpt>
      <trkpt lat="50.36383" lon="4.30167">
        <ele>157.862091</ele>
        <time>2022-03-20T10:49:33Z</time>
      </trkpt>
      <trkpt lat="50.36382" lon="4.30166">
        <ele>158.070404</ele>
        <time>2022-03-20T10:49:34Z</time>
      </trkpt>
      <trkpt lat="50.36381" lon="4.30164">
        <ele>158.473419</ele>
        <time>2022-03-20T10:49:36Z</time>
      </trkpt>
      <trkpt lat="50.36379" lon="4.30164">
        <ele>158.85257</ele>
        <time>2022-03-20T10:49:38Z</time>
      </trkpt>
      <trkpt lat="50.36377" lon="4.30163">
        <ele>159.217148</ele>
        <time>2022-03-20T10:49:40Z</time>
      </trkpt>
      <trkpt lat="50.36374" lon="4.30164">
        <ele>160.31926</ele>
        <time>2022-03-20T10:49:46Z</time>
      </trkpt>
      <trkpt lat="50.36372" lon="4.30164">
        <ele>160.657013</ele>
        <time>2022-03-20T10:49:48Z</time>
      </trkpt>
      <trkpt lat="50.36369" lon="4.30162">
        <ele>161.240448</ele>
        <time>2022-03-20T10:49:52Z</time>
      </trkpt>
      <trkpt lat="50.36365" lon="4.3016">
        <ele>162.367798</ele>
        <time>2022-03-20T10:49:58Z</time>
      </trkpt>
      <trkpt lat="50.36364" lon="4.3016">
        <ele>162.765839</ele>
        <time>2022-03-20T10:50:00Z</time>
      </trkpt>
      <trkpt lat="50.36362" lon="4.30159">
        <ele>163.125717</ele>
        <time>2022-03-20T10:50:02Z</time>
      </trkpt>
      <trkpt lat="50.3636" lon="4.30159">
        <ele>163.477936</ele>
        <time>2022-03-20T10:50:04Z</time>
      </trkpt>
      <trkpt lat="50.36355" lon="4.30158">
        <ele>164.912506</ele>
        <time>2022-03-20T10:50:12Z</time>
      </trkpt>
      <trkpt lat="50.36351" lon="4.30158">
        <ele>165.261917</ele>
        <time>2022-03-20T10:50:14Z</time>
      </trkpt>
      <trkpt lat="50.36346" lon="4.30156">
        <ele>165.584991</ele>
        <time>2022-03-20T10:50:16Z</time>
      </trkpt>
      <trkpt lat="50.36344" lon="4.30156">
        <ele>165.855988</ele>
        <time>2022-03-20T10:50:18Z</time>
      </trkpt>
      <trkpt lat="50.36342" lon="4.30155">
        <ele>166.131134</ele>
        <time>2022-03-20T10:50:20Z</time>
      </trkpt>
      <trkpt lat="50.36339" lon="4.30155">
        <ele>166.42923</ele>
        <time>2022-03-20T10:50:22Z</time>
      </trkpt>
      <trkpt lat="50.36336" lon="4.30153">
        <ele>166.731918</ele>
        <time>2022-03-20T10:50:24Z</time>
      </trkpt>
      <trkpt lat="50.36333" lon="4.30152">
        <ele>166.996674</ele>
        <time>2022-03-20T10:50:26Z</time>
      </trkpt>
      <trkpt lat="50.36329" lon="4.30153">
        <ele>167.130096</ele>
        <time>2022-03-20T10:50:28Z</time>
      </trkpt>
      <trkpt lat="50.36326" lon="4.30154">
        <ele>167.46759</ele>
        <time>2022-03-20T10:50:30Z</time>
      </trkpt>
      <trkpt lat="50.36323" lon="4.30153">
        <ele>167.732407</ele>
        <time>2022-03-20T10:50:32Z</time>
      </trkpt>
      <trkpt lat="50.3632" lon="4.30153">
        <ele>167.993027</ele>
        <time>2022-03-20T10:50:34Z</time>
      </trkpt>
      <trkpt lat="50.36317" lon="4.30151">
        <ele>168.270523</ele>
        <time>2022-03-20T10:50:36Z</time>
      </trkpt>
      <trkpt lat="50.36313" lon="4.30149">
        <ele>168.491547</ele>
        <time>2022-03-20T10:50:38Z</time>
      </trkpt>
      <trkpt lat="50.36307" lon="4.30151">
        <ele>168.74176</ele>
        <time>2022-03-20T10:50:40Z</time>
      </trkpt>
      <trkpt lat="50.36303" lon="4.30151">
        <ele>169.054581</ele>
        <time>2022-03-20T10:50:42Z</time>
      </trkpt>
      <trkpt lat="50.36301" lon="4.30151">
        <ele>169.230362</ele>
        <time>2022-03-20T10:50:43Z</time>
      </trkpt>
      <trkpt lat="50.36296" lon="4.30152">
        <ele>169.501801</ele>
        <time>2022-03-20T10:50:45Z</time>
      </trkpt>
      <trkpt lat="50.36289" lon="4.30152">
        <ele>169.826935</ele>
        <time>2022-03-20T10:50:47Z</time>
      </trkpt>
      <trkpt lat="50.36283" lon="4.30152">
        <ele>170.110565</ele>
        <time>2022-03-20T10:50:49Z</time>
      </trkpt>
      <trkpt lat="50.36277" lon="4.30151">
        <ele>170.331604</ele>
        <time>2022-03-20T10:50:51Z</time>
      </trkpt>
      <trkpt lat="50.36271" lon="4.30149">
        <ele>170.567276</ele>
        <time>2022-03-20T10:50:53Z</time>
      </trkpt>
      <trkpt lat="50.36266" lon="4.30148">
        <ele>170.794586</ele>
        <time>2022-03-20T10:50:55Z</time>
      </trkpt>
      <trkpt lat="50.36261" lon="4.30149">
        <ele>170.90097</ele>
        <time>2022-03-20T10:50:57Z</time>
      </trkpt>
      <trkpt lat="50.36258" lon="4.30147">
        <ele>171.176254</ele>
        <time>2022-03-20T10:50:59Z</time>
      </trkpt>
      <trkpt lat="50.36255" lon="4.30146">
        <ele>171.472427</ele>
        <time>2022-03-20T10:51:01Z</time>
      </trkpt>
      <trkpt lat="50.36251" lon="4.30143">
        <ele>171.718536</ele>
        <time>2022-03-20T10:51:03Z</time>
      </trkpt>
      <trkpt lat="50.36248" lon="4.30142">
        <ele>171.99855</ele>
        <time>2022-03-20T10:51:05Z</time>
      </trkpt>
      <trkpt lat="50.36244" lon="4.30139">
        <ele>172.246765</ele>
        <time>2022-03-20T10:51:07Z</time>
      </trkpt>
      <trkpt lat="50.3624" lon="4.30136">
        <ele>172.517929</ele>
        <time>2022-03-20T10:51:09Z</time>
      </trkpt>
      <trkpt lat="50.36236" lon="4.30133">
        <ele>172.705658</ele>
        <time>2022-03-20T10:51:11Z</time>
      </trkpt>
      <trkpt lat="50.36232" lon="4.3013">
        <ele>172.9664</ele>
        <time>2022-03-20T10:51:13Z</time>
      </trkpt>
      <trkpt lat="50.36228" lon="4.30129">
        <ele>173.266815</ele>
        <time>2022-03-20T10:51:15Z</time>
      </trkpt>
      <trkpt lat="50.36223" lon="4.30126">
        <ele>173.485687</ele>
        <time>2022-03-20T10:51:17Z</time>
      </trkpt>
      <trkpt lat="50.36219" lon="4.30124">
        <ele>173.767303</ele>
        <time>2022-03-20T10:51:19Z</time>
      </trkpt>
      <trkpt lat="50.36215" lon="4.3012">
        <ele>173.9655</ele>
        <time>2022-03-20T10:51:21Z</time>
      </trkpt>
      <trkpt lat="50.36211" lon="4.30117">
        <ele>174.144119</ele>
        <time>2022-03-20T10:51:23Z</time>
      </trkpt>
      <trkpt lat="50.3621" lon="4.30113">
        <ele>174.323212</ele>
        <time>2022-03-20T10:51:25Z</time>
      </trkpt>
      <trkpt lat="50.36205" lon="4.3011">
        <ele>174.494843</ele>
        <time>2022-03-20T10:51:27Z</time>
      </trkpt>
      <trkpt lat="50.36201" lon="4.30106">
        <ele>174.707123</ele>
        <time>2022-03-20T10:51:29Z</time>
      </trkpt>
      <trkpt lat="50.36197" lon="4.30103">
        <ele>174.894882</ele>
        <time>2022-03-20T10:51:31Z</time>
      </trkpt>
      <trkpt lat="50.36194" lon="4.30101">
        <ele>175.036758</ele>
        <time>2022-03-20T10:51:32Z</time>
      </trkpt>
      <trkpt lat="50.3619" lon="4.30097">
        <ele>175.337234</ele>
        <time>2022-03-20T10:51:34Z</time>
      </trkpt>
      <trkpt lat="50.36187" lon="4.30096">
        <ele>175.441559</ele>
        <time>2022-03-20T10:51:35Z</time>
      </trkpt>
      <trkpt lat="50.36183" lon="4.30095">
        <ele>175.748276</ele>
        <time>2022-03-20T10:51:37Z</time>
      </trkpt>
      <trkpt lat="50.36179" lon="4.30092">
        <ele>175.92775</ele>
        <time>2022-03-20T10:51:39Z</time>
      </trkpt>
      <trkpt lat="50.36174" lon="4.30088">
        <ele>176.212189</ele>
        <time>2022-03-20T10:51:41Z</time>
      </trkpt>
      <trkpt lat="50.36168" lon="4.30084">
        <ele>176.431549</ele>
        <time>2022-03-20T10:51:43Z</time>
      </trkpt>
      <trkpt lat="50.36164" lon="4.30081">
        <ele>176.718582</ele>
        <time>2022-03-20T10:51:45Z</time>
      </trkpt>
      <trkpt lat="50.3616" lon="4.30077">
        <ele>177.00238</ele>
        <time>2022-03-20T10:51:47Z</time>
      </trkpt>
      <trkpt lat="50.36156" lon="4.30076">
        <ele>177.306122</ele>
        <time>2022-03-20T10:51:49Z</time>
      </trkpt>
      <trkpt lat="50.36152" lon="4.30073">
        <ele>177.101974</ele>
        <time>2022-03-20T10:51:51Z</time>
      </trkpt>
      <trkpt lat="50.36147" lon="4.3007">
        <ele>177.454712</ele>
        <time>2022-03-20T10:51:53Z</time>
      </trkpt>
      <trkpt lat="50.36144" lon="4.30065">
        <ele>177.60495</ele>
        <time>2022-03-20T10:51:55Z</time>
      </trkpt>
      <trkpt lat="50.36138" lon="4.30062">
        <ele>177.838715</ele>
        <time>2022-03-20T10:51:57Z</time>
      </trkpt>
      <trkpt lat="50.36134" lon="4.30058">
        <ele>178.133026</ele>
        <time>2022-03-20T10:51:59Z</time>
      </trkpt>
      <trkpt lat="50.36128" lon="4.30054">
        <ele>178.46701</ele>
        <time>2022-03-20T10:52:01Z</time>
      </trkpt>
      <trkpt lat="50.36122" lon="4.30051">
        <ele>178.835159</ele>
        <time>2022-03-20T10:52:03Z</time>
      </trkpt>
      <trkpt lat="50.36116" lon="4.30045">
        <ele>179.208786</ele>
        <time>2022-03-20T10:52:05Z</time>
      </trkpt>
      <trkpt lat="50.36112" lon="4.3004">
        <ele>179.323532</ele>
        <time>2022-03-20T10:52:07Z</time>
      </trkpt>
      <trkpt lat="50.36108" lon="4.30036">
        <ele>179.61731</ele>
        <time>2022-03-20T10:52:09Z</time>
      </trkpt>
      <trkpt lat="50.36103" lon="4.30032">
        <ele>179.870087</ele>
        <time>2022-03-20T10:52:11Z</time>
      </trkpt>
      <trkpt lat="50.36101" lon="4.3003">
        <ele>180.066315</ele>
        <time>2022-03-20T10:52:12Z</time>
      </trkpt>
      <trkpt lat="50.36097" lon="4.30023">
        <ele>180.372025</ele>
        <time>2022-03-20T10:52:13Z</time>
      </trkpt>
      <trkpt lat="50.36092" lon="4.30019">
        <ele>180.609406</ele>
        <time>2022-03-20T10:52:16Z</time>
      </trkpt>
      <trkpt lat="50.36089" lon="4.30017">
        <ele>180.786865</ele>
        <time>2022-03-20T10:52:17Z</time>
      </trkpt>
      <trkpt lat="50.36089" lon="4.30016">
        <ele>181.097946</ele>
        <time>2022-03-20T10:52:19Z</time>
      </trkpt>
      <trkpt lat="50.36087" lon="4.30012">
        <ele>181.297729</ele>
        <time>2022-03-20T10:52:21Z</time>
      </trkpt>
      <trkpt lat="50.36083" lon="4.30007">
        <ele>181.508881</ele>
        <time>2022-03-20T10:52:23Z</time>
      </trkpt>
      <trkpt lat="50.36079" lon="4.30004">
        <ele>181.770386</ele>
        <time>2022-03-20T10:52:25Z</time>
      </trkpt>
      <trkpt lat="50.36073" lon="4.29997">
        <ele>181.889404</ele>
        <time>2022-03-20T10:52:27Z</time>
      </trkpt>
      <trkpt lat="50.36068" lon="4.29992">
        <ele>182.14415</ele>
        <time>2022-03-20T10:52:29Z</time>
      </trkpt>
      <trkpt lat="50.36063" lon="4.29986">
        <ele>182.904526</ele>
        <time>2022-03-20T10:52:31Z</time>
      </trkpt>
      <trkpt lat="50.36058" lon="4.2998">
        <ele>183.098724</ele>
        <time>2022-03-20T10:52:33Z</time>
      </trkpt>
      <trkpt lat="50.36051" lon="4.29973">
        <ele>183.180176</ele>
        <time>2022-03-20T10:52:35Z</time>
      </trkpt>
      <trkpt lat="50.36046" lon="4.29968">
        <ele>183.526764</ele>
        <time>2022-03-20T10:52:37Z</time>
      </trkpt>
      <trkpt lat="50.36043" lon="4.29963">
        <ele>183.775238</ele>
        <time>2022-03-20T10:52:39Z</time>
      </trkpt>
      <trkpt lat="50.36039" lon="4.29959">
        <ele>183.957672</ele>
        <time>2022-03-20T10:52:41Z</time>
      </trkpt>
      <trkpt lat="50.36036" lon="4.29954">
        <ele>184.110138</ele>
        <time>2022-03-20T10:52:43Z</time>
      </trkpt>
      <trkpt lat="50.36032" lon="4.29949">
        <ele>184.264664</ele>
        <time>2022-03-20T10:52:45Z</time>
      </trkpt>
      <trkpt lat="50.36024" lon="4.29942">
        <ele>184.412933</ele>
        <time>2022-03-20T10:52:47Z</time>
      </trkpt>
      <trkpt lat="50.36019" lon="4.29937">
        <ele>184.586319</ele>
        <time>2022-03-20T10:52:49Z</time>
      </trkpt>
      <trkpt lat="50.36015" lon="4.29932">
        <ele>184.93338</ele>
        <time>2022-03-20T10:52:51Z</time>
      </trkpt>
      <trkpt lat="50.3601" lon="4.29927">
        <ele>185.166138</ele>
        <time>2022-03-20T10:52:53Z</time>
      </trkpt>
      <trkpt lat="50.36005" lon="4.2992">
        <ele>185.417938</ele>
        <time>2022-03-20T10:52:55Z</time>
      </trkpt>
      <trkpt lat="50.35997" lon="4.29912">
        <ele>185.61734</ele>
        <time>2022-03-20T10:52:57Z</time>
      </trkpt>
      <trkpt lat="50.35992" lon="4.29906">
        <ele>185.838745</ele>
        <time>2022-03-20T10:52:59Z</time>
      </trkpt>
      <trkpt lat="50.35986" lon="4.29898">
        <ele>186.074753</ele>
        <time>2022-03-20T10:53:01Z</time>
      </trkpt>
      <trkpt lat="50.35981" lon="4.29891">
        <ele>186.326263</ele>
        <time>2022-03-20T10:53:03Z</time>
      </trkpt>
      <trkpt lat="50.35976" lon="4.29886">
        <ele>186.449493</ele>
        <time>2022-03-20T10:53:05Z</time>
      </trkpt>
      <trkpt lat="50.3597" lon="4.29882">
        <ele>186.664124</ele>
        <time>2022-03-20T10:53:07Z</time>
      </trkpt>
      <trkpt lat="50.35965" lon="4.29878">
        <ele>186.960648</ele>
        <time>2022-03-20T10:53:09Z</time>
      </trkpt>
      <trkpt lat="50.35959" lon="4.29875">
        <ele>187.145096</ele>
        <time>2022-03-20T10:53:11Z</time>
      </trkpt>
      <trkpt lat="50.35952" lon="4.2987">
        <ele>187.368622</ele>
        <time>2022-03-20T10:53:13Z</time>
      </trkpt>
      <trkpt lat="50.35945" lon="4.29865">
        <ele>187.646454</ele>
        <time>2022-03-20T10:53:15Z</time>
      </trkpt>
      <trkpt lat="50.35941" lon="4.29858">
        <ele>187.85849</ele>
        <time>2022-03-20T10:53:17Z</time>
      </trkpt>
      <trkpt lat="50.35934" lon="4.29849">
        <ele>188.099625</ele>
        <time>2022-03-20T10:53:19Z</time>
      </trkpt>
      <trkpt lat="50.35926" lon="4.29841">
        <ele>188.210342</ele>
        <time>2022-03-20T10:53:21Z</time>
      </trkpt>
      <trkpt lat="50.35919" lon="4.29833">
        <ele>188.445679</ele>
        <time>2022-03-20T10:53:23Z</time>
      </trkpt>
      <trkpt lat="50.35912" lon="4.29825">
        <ele>188.734833</ele>
        <time>2022-03-20T10:53:25Z</time>
      </trkpt>
      <trkpt lat="50.35907" lon="4.2982">
        <ele>188.853912</ele>
        <time>2022-03-20T10:53:27Z</time>
      </trkpt>
      <trkpt lat="50.35902" lon="4.29814">
        <ele>189.238358</ele>
        <time>2022-03-20T10:53:29Z</time>
      </trkpt>
      <trkpt lat="50.35897" lon="4.29809">
        <ele>189.501617</ele>
        <time>2022-03-20T10:53:31Z</time>
      </trkpt>
      <trkpt lat="50.35891" lon="4.29804">
        <ele>189.716858</ele>
        <time>2022-03-20T10:53:33Z</time>
      </trkpt>
      <trkpt lat="50.35885" lon="4.29796">
        <ele>189.855927</ele>
        <time>2022-03-20T10:53:35Z</time>
      </trkpt>
      <trkpt lat="50.3588" lon="4.29791">
        <ele>189.960022</ele>
        <time>2022-03-20T10:53:37Z</time>
      </trkpt>
      <trkpt lat="50.35874" lon="4.29784">
        <ele>190.148071</ele>
        <time>2022-03-20T10:53:39Z</time>
      </trkpt>
      <trkpt lat="50.35867" lon="4.29778">
        <ele>190.369583</ele>
        <time>2022-03-20T10:53:41Z</time>
      </trkpt>
      <trkpt lat="50.3586" lon="4.2977">
        <ele>190.49704</ele>
        <time>2022-03-20T10:53:43Z</time>
      </trkpt>
      <trkpt lat="50.35853" lon="4.29763">
        <ele>190.767288</ele>
        <time>2022-03-20T10:53:45Z</time>
      </trkpt>
      <trkpt lat="50.35847" lon="4.29757">
        <ele>190.882217</ele>
        <time>2022-03-20T10:53:47Z</time>
      </trkpt>
      <trkpt lat="50.35842" lon="4.29753">
        <ele>190.867645</ele>
        <time>2022-03-20T10:53:49Z</time>
      </trkpt>
      <trkpt lat="50.35837" lon="4.29748">
        <ele>191.134537</ele>
        <time>2022-03-20T10:53:51Z</time>
      </trkpt>
      <trkpt lat="50.35833" lon="4.29745">
        <ele>191.312164</ele>
        <time>2022-03-20T10:53:53Z</time>
      </trkpt>
      <trkpt lat="50.35826" lon="4.29738">
        <ele>191.4104</ele>
        <time>2022-03-20T10:53:55Z</time>
      </trkpt>
      <trkpt lat="50.35817" lon="4.29729">
        <ele>191.540833</ele>
        <time>2022-03-20T10:53:57Z</time>
      </trkpt>
      <trkpt lat="50.35811" lon="4.29721">
        <ele>191.659073</ele>
        <time>2022-03-20T10:53:59Z</time>
      </trkpt>
      <trkpt lat="50.35807" lon="4.29715">
        <ele>191.865921</ele>
        <time>2022-03-20T10:54:01Z</time>
      </trkpt>
      <trkpt lat="50.358" lon="4.29707">
        <ele>192.016388</ele>
        <time>2022-03-20T10:54:03Z</time>
      </trkpt>
      <trkpt lat="50.35794" lon="4.29701">
        <ele>192.134796</ele>
        <time>2022-03-20T10:54:05Z</time>
      </trkpt>
      <trkpt lat="50.35789" lon="4.29694">
        <ele>192.296906</ele>
        <time>2022-03-20T10:54:07Z</time>
      </trkpt>
      <trkpt lat="50.35782" lon="4.29686">
        <ele>192.614594</ele>
        <time>2022-03-20T10:54:09Z</time>
      </trkpt>
      <trkpt lat="50.35776" lon="4.2968">
        <ele>192.599976</ele>
        <time>2022-03-20T10:54:11Z</time>
      </trkpt>
      <trkpt lat="50.35771" lon="4.29676">
        <ele>192.800644</ele>
        <time>2022-03-20T10:54:13Z</time>
      </trkpt>
      <trkpt lat="50.35766" lon="4.29672">
        <ele>192.832001</ele>
        <time>2022-03-20T10:54:15Z</time>
      </trkpt>
      <trkpt lat="50.35759" lon="4.29667">
        <ele>192.898865</ele>
        <time>2022-03-20T10:54:17Z</time>
      </trkpt>
      <trkpt lat="50.35753" lon="4.29665">
        <ele>193.148285</ele>
        <time>2022-03-20T10:54:19Z</time>
      </trkpt>
      <trkpt lat="50.35743" lon="4.29663">
        <ele>193.360443</ele>
        <time>2022-03-20T10:54:21Z</time>
      </trkpt>
      <trkpt lat="50.35732" lon="4.29661">
        <ele>193.534912</ele>
        <time>2022-03-20T10:54:23Z</time>
      </trkpt>
      <trkpt lat="50.35722" lon="4.2966">
        <ele>193.831757</ele>
        <time>2022-03-20T10:54:25Z</time>
      </trkpt>
      <trkpt lat="50.35717" lon="4.2966">
        <ele>193.823395</ele>
        <time>2022-03-20T10:54:26Z</time>
      </trkpt>
      <trkpt lat="50.35704" lon="4.29658">
        <ele>193.977875</ele>
        <time>2022-03-20T10:54:27Z</time>
      </trkpt>
      <trkpt lat="50.35693" lon="4.29658">
        <ele>194.015533</ele>
        <time>2022-03-20T10:54:30Z</time>
      </trkpt>
      <trkpt lat="50.3568" lon="4.29657">
        <ele>194.132599</ele>
        <time>2022-03-20T10:54:32Z</time>
      </trkpt>
      <trkpt lat="50.35667" lon="4.29657">
        <ele>194.264282</ele>
        <time>2022-03-20T10:54:34Z</time>
      </trkpt>
      <trkpt lat="50.35654" lon="4.29656">
        <ele>194.339523</ele>
        <time>2022-03-20T10:54:36Z</time>
      </trkpt>
      <trkpt lat="50.3564" lon="4.29655">
        <ele>194.571747</ele>
        <time>2022-03-20T10:54:38Z</time>
      </trkpt>
      <trkpt lat="50.35627" lon="4.29654">
        <ele>194.692993</ele>
        <time>2022-03-20T10:54:40Z</time>
      </trkpt>
      <trkpt lat="50.35616" lon="4.29655">
        <ele>194.927094</ele>
        <time>2022-03-20T10:54:42Z</time>
      </trkpt>
      <trkpt lat="50.35605" lon="4.29654">
        <ele>195.02327</ele>
        <time>2022-03-20T10:54:44Z</time>
      </trkpt>
      <trkpt lat="50.35593" lon="4.29652">
        <ele>195.158859</ele>
        <time>2022-03-20T10:54:46Z</time>
      </trkpt>
      <trkpt lat="50.35583" lon="4.29652">
        <ele>195.335175</ele>
        <time>2022-03-20T10:54:48Z</time>
      </trkpt>
      <trkpt lat="50.35573" lon="4.29652">
        <ele>195.498123</ele>
        <time>2022-03-20T10:54:50Z</time>
      </trkpt>
      <trkpt lat="50.35563" lon="4.29652">
        <ele>195.611038</ele>
        <time>2022-03-20T10:54:52Z</time>
      </trkpt>
      <trkpt lat="50.35552" lon="4.29652">
        <ele>195.782471</ele>
        <time>2022-03-20T10:54:54Z</time>
      </trkpt>
      <trkpt lat="50.35542" lon="4.29653">
        <ele>195.82222</ele>
        <time>2022-03-20T10:54:56Z</time>
      </trkpt>
      <trkpt lat="50.35532" lon="4.29653">
        <ele>196.064697</ele>
        <time>2022-03-20T10:54:58Z</time>
      </trkpt>
      <trkpt lat="50.35521" lon="4.29654">
        <ele>196.139236</ele>
        <time>2022-03-20T10:55:00Z</time>
      </trkpt>
      <trkpt lat="50.35511" lon="4.29654">
        <ele>196.131912</ele>
        <time>2022-03-20T10:55:02Z</time>
      </trkpt>
      <trkpt lat="50.355" lon="4.29655">
        <ele>196.14975</ele>
        <time>2022-03-20T10:55:04Z</time>
      </trkpt>
      <trkpt lat="50.3549" lon="4.29655">
        <ele>196.149734</ele>
        <time>2022-03-20T10:55:06Z</time>
      </trkpt>
      <trkpt lat="50.35481" lon="4.29656">
        <ele>196.226318</ele>
        <time>2022-03-20T10:55:08Z</time>
      </trkpt>
      <trkpt lat="50.35473" lon="4.29657">
        <ele>196.263962</ele>
        <time>2022-03-20T10:55:10Z</time>
      </trkpt>
      <trkpt lat="50.35463" lon="4.29653">
        <ele>196.451874</ele>
        <time>2022-03-20T10:55:12Z</time>
      </trkpt>
      <trkpt lat="50.35457" lon="4.29641">
        <ele>196.554321</ele>
        <time>2022-03-20T10:55:14Z</time>
      </trkpt>
      <trkpt lat="50.35456" lon="4.29625">
        <ele>196.594406</ele>
        <time>2022-03-20T10:55:16Z</time>
      </trkpt>
      <trkpt lat="50.35455" lon="4.29608">
        <ele>196.709381</ele>
        <time>2022-03-20T10:55:18Z</time>
      </trkpt>
      <trkpt lat="50.35455" lon="4.29592">
        <ele>196.675217</ele>
        <time>2022-03-20T10:55:20Z</time>
      </trkpt>
      <trkpt lat="50.35455" lon="4.29576">
        <ele>196.731644</ele>
        <time>2022-03-20T10:55:22Z</time>
      </trkpt>
      <trkpt lat="50.35454" lon="4.29559">
        <ele>196.677292</ele>
        <time>2022-03-20T10:55:24Z</time>
      </trkpt>
      <trkpt lat="50.35454" lon="4.29543">
        <ele>196.598145</ele>
        <time>2022-03-20T10:55:26Z</time>
      </trkpt>
      <trkpt lat="50.35454" lon="4.29525">
        <ele>196.608597</ele>
        <time>2022-03-20T10:55:28Z</time>
      </trkpt>
      <trkpt lat="50.35453" lon="4.29508">
        <ele>196.508224</ele>
        <time>2022-03-20T10:55:30Z</time>
      </trkpt>
      <trkpt lat="50.35454" lon="4.29491">
        <ele>196.330643</ele>
        <time>2022-03-20T10:55:32Z</time>
      </trkpt>
      <trkpt lat="50.35454" lon="4.29474">
        <ele>196.173828</ele>
        <time>2022-03-20T10:55:34Z</time>
      </trkpt>
      <trkpt lat="50.35454" lon="4.29457">
        <ele>196.148727</ele>
        <time>2022-03-20T10:55:36Z</time>
      </trkpt>
      <trkpt lat="50.35454" lon="4.2944">
        <ele>196.008636</ele>
        <time>2022-03-20T10:55:38Z</time>
      </trkpt>
      <trkpt lat="50.35454" lon="4.29423">
        <ele>195.936646</ele>
        <time>2022-03-20T10:55:40Z</time>
      </trkpt>
      <trkpt lat="50.35454" lon="4.29406">
        <ele>195.763123</ele>
        <time>2022-03-20T10:55:42Z</time>
      </trkpt>
      <trkpt lat="50.35453" lon="4.29389">
        <ele>195.677414</ele>
        <time>2022-03-20T10:55:44Z</time>
      </trkpt>
      <trkpt lat="50.35453" lon="4.29372">
        <ele>195.478821</ele>
        <time>2022-03-20T10:55:46Z</time>
      </trkpt>
      <trkpt lat="50.35453" lon="4.29356">
        <ele>195.376389</ele>
        <time>2022-03-20T10:55:48Z</time>
      </trkpt>
      <trkpt lat="50.35453" lon="4.29339">
        <ele>195.180878</ele>
        <time>2022-03-20T10:55:50Z</time>
      </trkpt>
      <trkpt lat="50.35453" lon="4.29324">
        <ele>194.999008</ele>
        <time>2022-03-20T10:55:52Z</time>
      </trkpt>
      <trkpt lat="50.35453" lon="4.29306">
        <ele>194.950928</ele>
        <time>2022-03-20T10:55:54Z</time>
      </trkpt>
      <trkpt lat="50.35453" lon="4.29289">
        <ele>194.757004</ele>
        <time>2022-03-20T10:55:56Z</time>
      </trkpt>
      <trkpt lat="50.35453" lon="4.29272">
        <ele>194.486969</ele>
        <time>2022-03-20T10:55:58Z</time>
      </trkpt>
      <trkpt lat="50.35453" lon="4.29256">
        <ele>194.213531</ele>
        <time>2022-03-20T10:56:00Z</time>
      </trkpt>
      <trkpt lat="50.35452" lon="4.29239">
        <ele>193.929291</ele>
        <time>2022-03-20T10:56:02Z</time>
      </trkpt>
      <trkpt lat="50.35452" lon="4.29223">
        <ele>193.695816</ele>
        <time>2022-03-20T10:56:04Z</time>
      </trkpt>
      <trkpt lat="50.35452" lon="4.29206">
        <ele>193.234085</ele>
        <time>2022-03-20T10:56:06Z</time>
      </trkpt>
      <trkpt lat="50.35452" lon="4.29197">
        <ele>192.968719</ele>
        <time>2022-03-20T10:56:07Z</time>
      </trkpt>
      <trkpt lat="50.3545" lon="4.2918">
        <ele>192.699722</ele>
        <time>2022-03-20T10:56:09Z</time>
      </trkpt>
      <trkpt lat="50.3545" lon="4.29163">
        <ele>192.444931</ele>
        <time>2022-03-20T10:56:11Z</time>
      </trkpt>
      <trkpt lat="50.35449" lon="4.29144">
        <ele>192.15654</ele>
        <time>2022-03-20T10:56:13Z</time>
      </trkpt>
      <trkpt lat="50.35449" lon="4.29126">
        <ele>191.838898</ele>
        <time>2022-03-20T10:56:15Z</time>
      </trkpt>
      <trkpt lat="50.35448" lon="4.29108">
        <ele>191.636185</ele>
        <time>2022-03-20T10:56:17Z</time>
      </trkpt>
      <trkpt lat="50.35448" lon="4.29091">
        <ele>191.343597</ele>
        <time>2022-03-20T10:56:19Z</time>
      </trkpt>
      <trkpt lat="50.35447" lon="4.29074">
        <ele>191.035202</ele>
        <time>2022-03-20T10:56:21Z</time>
      </trkpt>
      <trkpt lat="50.35447" lon="4.29057">
        <ele>190.777817</ele>
        <time>2022-03-20T10:56:23Z</time>
      </trkpt>
      <trkpt lat="50.35447" lon="4.29039">
        <ele>190.587662</ele>
        <time>2022-03-20T10:56:25Z</time>
      </trkpt>
      <trkpt lat="50.35447" lon="4.29021">
        <ele>190.253342</ele>
        <time>2022-03-20T10:56:27Z</time>
      </trkpt>
      <trkpt lat="50.35447" lon="4.29003">
        <ele>189.877274</ele>
        <time>2022-03-20T10:56:29Z</time>
      </trkpt>
      <trkpt lat="50.35446" lon="4.28985">
        <ele>189.613983</ele>
        <time>2022-03-20T10:56:31Z</time>
      </trkpt>
      <trkpt lat="50.35445" lon="4.28966">
        <ele>189.374146</ele>
        <time>2022-03-20T10:56:33Z</time>
      </trkpt>
      <trkpt lat="50.35445" lon="4.28947">
        <ele>188.996002</ele>
        <time>2022-03-20T10:56:35Z</time>
      </trkpt>
      <trkpt lat="50.35445" lon="4.28928">
        <ele>188.54425</ele>
        <time>2022-03-20T10:56:37Z</time>
      </trkpt>
      <trkpt lat="50.35444" lon="4.28909">
        <ele>188.195374</ele>
        <time>2022-03-20T10:56:39Z</time>
      </trkpt>
      <trkpt lat="50.35443" lon="4.2889">
        <ele>187.763321</ele>
        <time>2022-03-20T10:56:41Z</time>
      </trkpt>
      <trkpt lat="50.35443" lon="4.28871">
        <ele>187.488052</ele>
        <time>2022-03-20T10:56:43Z</time>
      </trkpt>
      <trkpt lat="50.35442" lon="4.28853">
        <ele>187.142746</ele>
        <time>2022-03-20T10:56:45Z</time>
      </trkpt>
      <trkpt lat="50.35442" lon="4.28834">
        <ele>186.971405</ele>
        <time>2022-03-20T10:56:47Z</time>
      </trkpt>
      <trkpt lat="50.35441" lon="4.28816">
        <ele>186.809906</ele>
        <time>2022-03-20T10:56:49Z</time>
      </trkpt>
      <trkpt lat="50.3544" lon="4.28796">
        <ele>186.389832</ele>
        <time>2022-03-20T10:56:51Z</time>
      </trkpt>
      <trkpt lat="50.3544" lon="4.28777">
        <ele>186.079758</ele>
        <time>2022-03-20T10:56:53Z</time>
      </trkpt>
      <trkpt lat="50.3544" lon="4.28768">
        <ele>185.937744</ele>
        <time>2022-03-20T10:56:54Z</time>
      </trkpt>
      <trkpt lat="50.35439" lon="4.28748">
        <ele>185.752731</ele>
        <time>2022-03-20T10:56:56Z</time>
      </trkpt>
      <trkpt lat="50.35438" lon="4.28728">
        <ele>185.449875</ele>
        <time>2022-03-20T10:56:58Z</time>
      </trkpt>
      <trkpt lat="50.35437" lon="4.28708">
        <ele>185.163788</ele>
        <time>2022-03-20T10:57:00Z</time>
      </trkpt>
      <trkpt lat="50.35437" lon="4.28688">
        <ele>184.852615</ele>
        <time>2022-03-20T10:57:02Z</time>
      </trkpt>
      <trkpt lat="50.35432" lon="4.28672">
        <ele>184.437225</ele>
        <time>2022-03-20T10:57:04Z</time>
      </trkpt>
      <trkpt lat="50.3542" lon="4.28661">
        <ele>183.9841</ele>
        <time>2022-03-20T10:57:06Z</time>
      </trkpt>
      <trkpt lat="50.35408" lon="4.28655">
        <ele>183.522675</ele>
        <time>2022-03-20T10:57:08Z</time>
      </trkpt>
      <trkpt lat="50.35396" lon="4.2865">
        <ele>183.282913</ele>
        <time>2022-03-20T10:57:10Z</time>
      </trkpt>
      <trkpt lat="50.35385" lon="4.28645">
        <ele>182.829788</ele>
        <time>2022-03-20T10:57:12Z</time>
      </trkpt>
      <trkpt lat="50.35374" lon="4.28641">
        <ele>182.278137</ele>
        <time>2022-03-20T10:57:14Z</time>
      </trkpt>
      <trkpt lat="50.35363" lon="4.28636">
        <ele>181.912781</ele>
        <time>2022-03-20T10:57:16Z</time>
      </trkpt>
      <trkpt lat="50.35351" lon="4.28632">
        <ele>181.768723</ele>
        <time>2022-03-20T10:57:18Z</time>
      </trkpt>
      <trkpt lat="50.35339" lon="4.28628">
        <ele>182.048904</ele>
        <time>2022-03-20T10:57:20Z</time>
      </trkpt>
      <trkpt lat="50.35327" lon="4.28624">
        <ele>181.831818</ele>
        <time>2022-03-20T10:57:22Z</time>
      </trkpt>
      <trkpt lat="50.35315" lon="4.2862">
        <ele>181.374146</ele>
        <time>2022-03-20T10:57:24Z</time>
      </trkpt>
      <trkpt lat="50.35302" lon="4.28615">
        <ele>181.117355</ele>
        <time>2022-03-20T10:57:26Z</time>
      </trkpt>
      <trkpt lat="50.35289" lon="4.2861">
        <ele>181.134064</ele>
        <time>2022-03-20T10:57:28Z</time>
      </trkpt>
      <trkpt lat="50.35276" lon="4.28605">
        <ele>180.83342</ele>
        <time>2022-03-20T10:57:30Z</time>
      </trkpt>
      <trkpt lat="50.35264" lon="4.286">
        <ele>180.476517</ele>
        <time>2022-03-20T10:57:32Z</time>
      </trkpt>
      <trkpt lat="50.35251" lon="4.28595">
        <ele>179.898438</ele>
        <time>2022-03-20T10:57:34Z</time>
      </trkpt>
      <trkpt lat="50.35239" lon="4.2859">
        <ele>179.688446</ele>
        <time>2022-03-20T10:57:36Z</time>
      </trkpt>
      <trkpt lat="50.35226" lon="4.28586">
        <ele>179.282593</ele>
        <time>2022-03-20T10:57:38Z</time>
      </trkpt>
      <trkpt lat="50.35215" lon="4.2858">
        <ele>178.716827</ele>
        <time>2022-03-20T10:57:40Z</time>
      </trkpt>
      <trkpt lat="50.35209" lon="4.28578">
        <ele>178.729355</ele>
        <time>2022-03-20T10:57:41Z</time>
      </trkpt>
      <trkpt lat="50.35197" lon="4.28574">
        <ele>178.516037</ele>
        <time>2022-03-20T10:57:43Z</time>
      </trkpt>
      <trkpt lat="50.35187" lon="4.2857">
        <ele>178.257355</ele>
        <time>2022-03-20T10:57:45Z</time>
      </trkpt>
      <trkpt lat="50.35182" lon="4.28568">
        <ele>178.15715</ele>
        <time>2022-03-20T10:57:46Z</time>
      </trkpt>
      <trkpt lat="50.35172" lon="4.28564">
        <ele>178.109177</ele>
        <time>2022-03-20T10:57:48Z</time>
      </trkpt>
      <trkpt lat="50.35163" lon="4.28557">
        <ele>177.99234</ele>
        <time>2022-03-20T10:57:49Z</time>
      </trkpt>
      <trkpt lat="50.35154" lon="4.2855">
        <ele>177.84053</ele>
        <time>2022-03-20T10:57:52Z</time>
      </trkpt>
      <trkpt lat="50.35146" lon="4.28541">
        <ele>177.629761</ele>
        <time>2022-03-20T10:57:54Z</time>
      </trkpt>
      <trkpt lat="50.35138" lon="4.28533">
        <ele>177.49202</ele>
        <time>2022-03-20T10:57:56Z</time>
      </trkpt>
      <trkpt lat="50.35129" lon="4.28525">
        <ele>177.527145</ele>
        <time>2022-03-20T10:57:58Z</time>
      </trkpt>
      <trkpt lat="50.3512" lon="4.28516">
        <ele>177.273682</ele>
        <time>2022-03-20T10:58:00Z</time>
      </trkpt>
      <trkpt lat="50.35112" lon="4.28507">
        <ele>176.563477</ele>
        <time>2022-03-20T10:58:02Z</time>
      </trkpt>
      <trkpt lat="50.35103" lon="4.28499">
        <ele>176.317245</ele>
        <time>2022-03-20T10:58:04Z</time>
      </trkpt>
      <trkpt lat="50.35095" lon="4.28491">
        <ele>176.265076</ele>
        <time>2022-03-20T10:58:06Z</time>
      </trkpt>
      <trkpt lat="50.35086" lon="4.28482">
        <ele>176.090103</ele>
        <time>2022-03-20T10:58:08Z</time>
      </trkpt>
      <trkpt lat="50.35078" lon="4.28474">
        <ele>175.812515</ele>
        <time>2022-03-20T10:58:10Z</time>
      </trkpt>
      <trkpt lat="50.3507" lon="4.28466">
        <ele>175.712372</ele>
        <time>2022-03-20T10:58:12Z</time>
      </trkpt>
      <trkpt lat="50.35061" lon="4.28457">
        <ele>175.560043</ele>
        <time>2022-03-20T10:58:14Z</time>
      </trkpt>
      <trkpt lat="50.35052" lon="4.28448">
        <ele>175.562119</ele>
        <time>2022-03-20T10:58:16Z</time>
      </trkpt>
      <trkpt lat="50.35042" lon="4.28441">
        <ele>175.574646</ele>
        <time>2022-03-20T10:58:18Z</time>
      </trkpt>
      <trkpt lat="50.35032" lon="4.28436">
        <ele>175.547516</ele>
        <time>2022-03-20T10:58:20Z</time>
      </trkpt>
      <trkpt lat="50.35024" lon="4.2843">
        <ele>175.404053</ele>
        <time>2022-03-20T10:58:22Z</time>
      </trkpt>
      <trkpt lat="50.35019" lon="4.28422">
        <ele>175.30011</ele>
        <time>2022-03-20T10:58:24Z</time>
      </trkpt>
      <trkpt lat="50.35013" lon="4.28416">
        <ele>175.132965</ele>
        <time>2022-03-20T10:58:26Z</time>
      </trkpt>
      <trkpt lat="50.35006" lon="4.28414">
        <ele>175.030731</ele>
        <time>2022-03-20T10:58:28Z</time>
      </trkpt>
      <trkpt lat="50.34999" lon="4.28416">
        <ele>174.923859</ele>
        <time>2022-03-20T10:58:30Z</time>
      </trkpt>
      <trkpt lat="50.3499" lon="4.28417">
        <ele>174.789383</ele>
        <time>2022-03-20T10:58:32Z</time>
      </trkpt>
      <trkpt lat="50.34986" lon="4.28417">
        <ele>174.616196</ele>
        <time>2022-03-20T10:58:33Z</time>
      </trkpt>
      <trkpt lat="50.34977" lon="4.28419">
        <ele>174.525757</ele>
        <time>2022-03-20T10:58:35Z</time>
      </trkpt>
      <trkpt lat="50.34967" lon="4.28422">
        <ele>174.335938</ele>
        <time>2022-03-20T10:58:37Z</time>
      </trkpt>
      <trkpt lat="50.34958" lon="4.28426">
        <ele>174.092163</ele>
        <time>2022-03-20T10:58:39Z</time>
      </trkpt>
      <trkpt lat="50.34948" lon="4.28431">
        <ele>173.894897</ele>
        <time>2022-03-20T10:58:41Z</time>
      </trkpt>
      <trkpt lat="50.3494" lon="4.28435">
        <ele>173.621613</ele>
        <time>2022-03-20T10:58:43Z</time>
      </trkpt>
      <trkpt lat="50.34931" lon="4.28439">
        <ele>173.503052</ele>
        <time>2022-03-20T10:58:45Z</time>
      </trkpt>
      <trkpt lat="50.34922" lon="4.28443">
        <ele>173.38414</ele>
        <time>2022-03-20T10:58:47Z</time>
      </trkpt>
      <trkpt lat="50.34913" lon="4.28448">
        <ele>173.227768</ele>
        <time>2022-03-20T10:58:49Z</time>
      </trkpt>
      <trkpt lat="50.34904" lon="4.28452">
        <ele>173.05011</ele>
        <time>2022-03-20T10:58:51Z</time>
      </trkpt>
      <trkpt lat="50.34894" lon="4.28456">
        <ele>172.782013</ele>
        <time>2022-03-20T10:58:53Z</time>
      </trkpt>
      <trkpt lat="50.34885" lon="4.28462">
        <ele>172.579697</ele>
        <time>2022-03-20T10:58:55Z</time>
      </trkpt>
      <trkpt lat="50.34877" lon="4.28465">
        <ele>172.379471</ele>
        <time>2022-03-20T10:58:57Z</time>
      </trkpt>
      <trkpt lat="50.34867" lon="4.28469">
        <ele>172.022781</ele>
        <time>2022-03-20T10:58:59Z</time>
      </trkpt>
      <trkpt lat="50.34857" lon="4.28474">
        <ele>171.864227</ele>
        <time>2022-03-20T10:59:01Z</time>
      </trkpt>
      <trkpt lat="50.34848" lon="4.28478">
        <ele>171.503433</ele>
        <time>2022-03-20T10:59:03Z</time>
      </trkpt>
      <trkpt lat="50.34839" lon="4.28482">
        <ele>171.304764</ele>
        <time>2022-03-20T10:59:05Z</time>
      </trkpt>
      <trkpt lat="50.34829" lon="4.28486">
        <ele>171.09433</ele>
        <time>2022-03-20T10:59:07Z</time>
      </trkpt>
      <trkpt lat="50.34819" lon="4.28491">
        <ele>170.837769</ele>
        <time>2022-03-20T10:59:09Z</time>
      </trkpt>
      <trkpt lat="50.34809" lon="4.28495">
        <ele>170.663025</ele>
        <time>2022-03-20T10:59:11Z</time>
      </trkpt>
      <trkpt lat="50.34799" lon="4.28499">
        <ele>170.619232</ele>
        <time>2022-03-20T10:59:13Z</time>
      </trkpt>
      <trkpt lat="50.34789" lon="4.28504">
        <ele>170.539963</ele>
        <time>2022-03-20T10:59:15Z</time>
      </trkpt>
      <trkpt lat="50.34779" lon="4.28509">
        <ele>170.461456</ele>
        <time>2022-03-20T10:59:17Z</time>
      </trkpt>
      <trkpt lat="50.34774" lon="4.28512">
        <ele>170.463531</ele>
        <time>2022-03-20T10:59:18Z</time>
      </trkpt>
      <trkpt lat="50.34764" lon="4.28517">
        <ele>170.357239</ele>
        <time>2022-03-20T10:59:20Z</time>
      </trkpt>
      <trkpt lat="50.34754" lon="4.28521">
        <ele>170.190384</ele>
        <time>2022-03-20T10:59:22Z</time>
      </trkpt>
      <trkpt lat="50.34744" lon="4.28527">
        <ele>170.077774</ele>
        <time>2022-03-20T10:59:24Z</time>
      </trkpt>
      <trkpt lat="50.34734" lon="4.28531">
        <ele>169.981857</ele>
        <time>2022-03-20T10:59:26Z</time>
      </trkpt>
      <trkpt lat="50.34723" lon="4.28534">
        <ele>169.893341</ele>
        <time>2022-03-20T10:59:28Z</time>
      </trkpt>
      <trkpt lat="50.34712" lon="4.28539">
        <ele>169.783539</ele>
        <time>2022-03-20T10:59:30Z</time>
      </trkpt>
      <trkpt lat="50.34702" lon="4.28542">
        <ele>169.664459</ele>
        <time>2022-03-20T10:59:32Z</time>
      </trkpt>
      <trkpt lat="50.34692" lon="4.28537">
        <ele>169.581894</ele>
        <time>2022-03-20T10:59:34Z</time>
      </trkpt>
      <trkpt lat="50.34685" lon="4.28524">
        <ele>169.493256</ele>
        <time>2022-03-20T10:59:36Z</time>
      </trkpt>
      <trkpt lat="50.3468" lon="4.2851">
        <ele>169.48909</ele>
        <time>2022-03-20T10:59:38Z</time>
      </trkpt>
      <trkpt lat="50.34676" lon="4.28496">
        <ele>169.459351</ele>
        <time>2022-03-20T10:59:40Z</time>
      </trkpt>
      <trkpt lat="50.3467" lon="4.28479">
        <ele>169.330048</ele>
        <time>2022-03-20T10:59:42Z</time>
      </trkpt>
      <trkpt lat="50.34664" lon="4.2846">
        <ele>169.282074</ele>
        <time>2022-03-20T10:59:44Z</time>
      </trkpt>
      <trkpt lat="50.34658" lon="4.28438">
        <ele>169.109009</ele>
        <time>2022-03-20T10:59:46Z</time>
      </trkpt>
      <trkpt lat="50.34652" lon="4.28417">
        <ele>168.976273</ele>
        <time>2022-03-20T10:59:48Z</time>
      </trkpt>
      <trkpt lat="50.34647" lon="4.28395">
        <ele>168.803207</ele>
        <time>2022-03-20T10:59:50Z</time>
      </trkpt>
      <trkpt lat="50.34642" lon="4.28373">
        <ele>168.523834</ele>
        <time>2022-03-20T10:59:52Z</time>
      </trkpt>
      <trkpt lat="50.34636" lon="4.28349">
        <ele>168.415436</ele>
        <time>2022-03-20T10:59:54Z</time>
      </trkpt>
      <trkpt lat="50.34631" lon="4.28327">
        <ele>168.067261</ele>
        <time>2022-03-20T10:59:56Z</time>
      </trkpt>
      <trkpt lat="50.34625" lon="4.28306">
        <ele>167.745743</ele>
        <time>2022-03-20T10:59:58Z</time>
      </trkpt>
      <trkpt lat="50.3462" lon="4.28287">
        <ele>167.374405</ele>
        <time>2022-03-20T11:00:00Z</time>
      </trkpt>
      <trkpt lat="50.34616" lon="4.28273">
        <ele>167.026169</ele>
        <time>2022-03-20T11:00:02Z</time>
      </trkpt>
      <trkpt lat="50.34617" lon="4.28259">
        <ele>166.636353</ele>
        <time>2022-03-20T11:00:04Z</time>
      </trkpt>
      <trkpt lat="50.34625" lon="4.28249">
        <ele>166.268021</ele>
        <time>2022-03-20T11:00:06Z</time>
      </trkpt>
      <trkpt lat="50.34633" lon="4.2824">
        <ele>165.916351</ele>
        <time>2022-03-20T11:00:08Z</time>
      </trkpt>
      <trkpt lat="50.34642" lon="4.28228">
        <ele>165.490387</ele>
        <time>2022-03-20T11:00:10Z</time>
      </trkpt>
      <trkpt lat="50.34652" lon="4.28213">
        <ele>165.036148</ele>
        <time>2022-03-20T11:00:12Z</time>
      </trkpt>
      <trkpt lat="50.34664" lon="4.28198">
        <ele>165.068909</ele>
        <time>2022-03-20T11:00:14Z</time>
      </trkpt>
      <trkpt lat="50.34678" lon="4.28184">
        <ele>164.605774</ele>
        <time>2022-03-20T11:00:16Z</time>
      </trkpt>
      <trkpt lat="50.34693" lon="4.28172">
        <ele>164.028503</ele>
        <time>2022-03-20T11:00:18Z</time>
      </trkpt>
      <trkpt lat="50.34705" lon="4.28159">
        <ele>163.382996</ele>
        <time>2022-03-20T11:00:20Z</time>
      </trkpt>
      <trkpt lat="50.34716" lon="4.28147">
        <ele>162.968246</ele>
        <time>2022-03-20T11:00:22Z</time>
      </trkpt>
      <trkpt lat="50.34724" lon="4.28137">
        <ele>163.297867</ele>
        <time>2022-03-20T11:00:24Z</time>
      </trkpt>
      <trkpt lat="50.34731" lon="4.28128">
        <ele>162.736588</ele>
        <time>2022-03-20T11:00:26Z</time>
      </trkpt>
      <trkpt lat="50.34738" lon="4.28122">
        <ele>162.287384</ele>
        <time>2022-03-20T11:00:28Z</time>
      </trkpt>
      <trkpt lat="50.34747" lon="4.28115">
        <ele>161.804871</ele>
        <time>2022-03-20T11:00:30Z</time>
      </trkpt>
      <trkpt lat="50.34752" lon="4.28112">
        <ele>161.59024</ele>
        <time>2022-03-20T11:00:31Z</time>
      </trkpt>
      <trkpt lat="50.3476" lon="4.28108">
        <ele>161.208466</ele>
        <time>2022-03-20T11:00:33Z</time>
      </trkpt>
      <trkpt lat="50.34769" lon="4.28102">
        <ele>160.869415</ele>
        <time>2022-03-20T11:00:35Z</time>
      </trkpt>
      <trkpt lat="50.34778" lon="4.28102">
        <ele>160.379868</ele>
        <time>2022-03-20T11:00:37Z</time>
      </trkpt>
      <trkpt lat="50.34784" lon="4.281">
        <ele>159.973953</ele>
        <time>2022-03-20T11:00:39Z</time>
      </trkpt>
      <trkpt lat="50.34794" lon="4.28101">
        <ele>159.605438</ele>
        <time>2022-03-20T11:00:41Z</time>
      </trkpt>
      <trkpt lat="50.34802" lon="4.28102">
        <ele>159.380432</ele>
        <time>2022-03-20T11:00:43Z</time>
      </trkpt>
      <trkpt lat="50.34806" lon="4.28103">
        <ele>158.878448</ele>
        <time>2022-03-20T11:00:45Z</time>
      </trkpt>
      <trkpt lat="50.34808" lon="4.28101">
        <ele>158.670166</ele>
        <time>2022-03-20T11:00:46Z</time>
      </trkpt>
      <trkpt lat="50.3481" lon="4.28096">
        <ele>158.301605</ele>
        <time>2022-03-20T11:00:48Z</time>
      </trkpt>
      <trkpt lat="50.34814" lon="4.28094">
        <ele>157.876709</ele>
        <time>2022-03-20T11:00:50Z</time>
      </trkpt>
      <trkpt lat="50.34818" lon="4.28094">
        <ele>157.422684</ele>
        <time>2022-03-20T11:00:52Z</time>
      </trkpt>
      <trkpt lat="50.34821" lon="4.28094">
        <ele>157.149902</ele>
        <time>2022-03-20T11:00:53Z</time>
      </trkpt>
      <trkpt lat="50.3483" lon="4.28096">
        <ele>156.97287</ele>
        <time>2022-03-20T11:00:55Z</time>
      </trkpt>
      <trkpt lat="50.34841" lon="4.28091">
        <ele>155.691864</ele>
        <time>2022-03-20T11:00:57Z</time>
      </trkpt>
      <trkpt lat="50.34856" lon="4.28087">
        <ele>155.49614</ele>
        <time>2022-03-20T11:00:59Z</time>
      </trkpt>
      <trkpt lat="50.34869" lon="4.28085">
        <ele>155.177002</ele>
        <time>2022-03-20T11:01:01Z</time>
      </trkpt>
      <trkpt lat="50.34877" lon="4.28079">
        <ele>154.905685</ele>
        <time>2022-03-20T11:01:03Z</time>
      </trkpt>
      <trkpt lat="50.34883" lon="4.2807">
        <ele>154.398605</ele>
        <time>2022-03-20T11:01:05Z</time>
      </trkpt>
      <trkpt lat="50.34884" lon="4.28066">
        <ele>153.651291</ele>
        <time>2022-03-20T11:01:06Z</time>
      </trkpt>
      <trkpt lat="50.34887" lon="4.28058">
        <ele>153.31308</ele>
        <time>2022-03-20T11:01:08Z</time>
      </trkpt>
      <trkpt lat="50.34885" lon="4.28051">
        <ele>152.868652</ele>
        <time>2022-03-20T11:01:10Z</time>
      </trkpt>
      <trkpt lat="50.34884" lon="4.28045">
        <ele>152.573456</ele>
        <time>2022-03-20T11:01:12Z</time>
      </trkpt>
      <trkpt lat="50.34883" lon="4.2804">
        <ele>152.134186</ele>
        <time>2022-03-20T11:01:14Z</time>
      </trkpt>
      <trkpt lat="50.34883" lon="4.28036">
        <ele>151.64949</ele>
        <time>2022-03-20T11:01:16Z</time>
      </trkpt>
      <trkpt lat="50.34884" lon="4.28028">
        <ele>151.113846</ele>
        <time>2022-03-20T11:01:18Z</time>
      </trkpt>
      <trkpt lat="50.34884" lon="4.2802">
        <ele>150.822418</ele>
        <time>2022-03-20T11:01:20Z</time>
      </trkpt>
      <trkpt lat="50.34885" lon="4.28015">
        <ele>150.391235</ele>
        <time>2022-03-20T11:01:22Z</time>
      </trkpt>
      <trkpt lat="50.34885" lon="4.28012">
        <ele>149.971832</ele>
        <time>2022-03-20T11:01:24Z</time>
      </trkpt>
      <trkpt lat="50.34885" lon="4.28006">
        <ele>149.662872</ele>
        <time>2022-03-20T11:01:26Z</time>
      </trkpt>
      <trkpt lat="50.34885" lon="4.28">
        <ele>149.40892</ele>
        <time>2022-03-20T11:01:28Z</time>
      </trkpt>
      <trkpt lat="50.34885" lon="4.27997">
        <ele>149.159805</ele>
        <time>2022-03-20T11:01:29Z</time>
      </trkpt>
      <trkpt lat="50.34886" lon="4.2799">
        <ele>148.897995</ele>
        <time>2022-03-20T11:01:31Z</time>
      </trkpt>
      <trkpt lat="50.34882" lon="4.27982">
        <ele>148.567047</ele>
        <time>2022-03-20T11:01:35Z</time>
      </trkpt>
      <trkpt lat="50.3488" lon="4.27976">
        <ele>148.390808</ele>
        <time>2022-03-20T11:01:37Z</time>
      </trkpt>
      <trkpt lat="50.34877" lon="4.2797">
        <ele>148.166031</ele>
        <time>2022-03-20T11:01:39Z</time>
      </trkpt>
      <trkpt lat="50.34876" lon="4.27963">
        <ele>148.112457</ele>
        <time>2022-03-20T11:01:41Z</time>
      </trkpt>
      <trkpt lat="50.34875" lon="4.27954">
        <ele>147.979813</ele>
        <time>2022-03-20T11:01:43Z</time>
      </trkpt>
      <trkpt lat="50.34872" lon="4.27947">
        <ele>147.855255</ele>
        <time>2022-03-20T11:01:45Z</time>
      </trkpt>
      <trkpt lat="50.34871" lon="4.27942">
        <ele>147.779327</ele>
        <time>2022-03-20T11:01:47Z</time>
      </trkpt>
      <trkpt lat="50.34871" lon="4.27939">
        <ele>147.634293</ele>
        <time>2022-03-20T11:01:49Z</time>
      </trkpt>
      <trkpt lat="50.34869" lon="4.27936">
        <ele>147.619781</ele>
        <time>2022-03-20T11:01:51Z</time>
      </trkpt>
      <trkpt lat="50.34868" lon="4.27933">
        <ele>147.652634</ele>
        <time>2022-03-20T11:01:53Z</time>
      </trkpt>
      <trkpt lat="50.34867" lon="4.2793">
        <ele>147.692169</ele>
        <time>2022-03-20T11:01:55Z</time>
      </trkpt>
      <trkpt lat="50.34865" lon="4.27923">
        <ele>147.648468</ele>
        <time>2022-03-20T11:01:57Z</time>
      </trkpt>
      <trkpt lat="50.34866" lon="4.27918">
        <ele>147.679428</ele>
        <time>2022-03-20T11:01:59Z</time>
      </trkpt>
      <trkpt lat="50.34866" lon="4.27916">
        <ele>147.708572</ele>
        <time>2022-03-20T11:02:01Z</time>
      </trkpt>
      <trkpt lat="50.34866" lon="4.27912">
        <ele>147.785919</ele>
        <time>2022-03-20T11:02:03Z</time>
      </trkpt>
      <trkpt lat="50.34866" lon="4.27904">
        <ele>147.883514</ele>
        <time>2022-03-20T11:02:07Z</time>
      </trkpt>
      <trkpt lat="50.34868" lon="4.279">
        <ele>147.943359</ele>
        <time>2022-03-20T11:02:09Z</time>
      </trkpt>
      <trkpt lat="50.34869" lon="4.27898">
        <ele>148.06424</ele>
        <time>2022-03-20T11:02:11Z</time>
      </trkpt>
      <trkpt lat="50.3487" lon="4.27894">
        <ele>148.160339</ele>
        <time>2022-03-20T11:02:13Z</time>
      </trkpt>
      <trkpt lat="50.34872" lon="4.27892">
        <ele>148.245316</ele>
        <time>2022-03-20T11:02:15Z</time>
      </trkpt>
      <trkpt lat="50.34872" lon="4.27889">
        <ele>148.293594</ele>
        <time>2022-03-20T11:02:17Z</time>
      </trkpt>
      <trkpt lat="50.34872" lon="4.27887">
        <ele>148.493378</ele>
        <time>2022-03-20T11:02:19Z</time>
      </trkpt>
      <trkpt lat="50.34874" lon="4.27885">
        <ele>148.649429</ele>
        <time>2022-03-20T11:02:21Z</time>
      </trkpt>
      <trkpt lat="50.34875" lon="4.27883">
        <ele>148.738388</ele>
        <time>2022-03-20T11:02:22Z</time>
      </trkpt>
      <trkpt lat="50.34875" lon="4.2788">
        <ele>148.796448</ele>
        <time>2022-03-20T11:02:24Z</time>
      </trkpt>
      <trkpt lat="50.34876" lon="4.27877">
        <ele>148.921173</ele>
        <time>2022-03-20T11:02:26Z</time>
      </trkpt>
      <trkpt lat="50.34878" lon="4.27874">
        <ele>149.083038</ele>
        <time>2022-03-20T11:02:28Z</time>
      </trkpt>
      <trkpt lat="50.34879" lon="4.27873">
        <ele>149.189194</ele>
        <time>2022-03-20T11:02:29Z</time>
      </trkpt>
      <trkpt lat="50.3488" lon="4.27871">
        <ele>149.412811</ele>
        <time>2022-03-20T11:02:31Z</time>
      </trkpt>
      <trkpt lat="50.34879" lon="4.27868">
        <ele>149.502304</ele>
        <time>2022-03-20T11:02:33Z</time>
      </trkpt>
      <trkpt lat="50.3488" lon="4.27864">
        <ele>149.730835</ele>
        <time>2022-03-20T11:02:35Z</time>
      </trkpt>
      <trkpt lat="50.34882" lon="4.27862">
        <ele>149.956497</ele>
        <time>2022-03-20T11:02:37Z</time>
      </trkpt>
      <trkpt lat="50.34884" lon="4.2786">
        <ele>150.1828</ele>
        <time>2022-03-20T11:02:39Z</time>
      </trkpt>
      <trkpt lat="50.34885" lon="4.27858">
        <ele>150.493362</ele>
        <time>2022-03-20T11:02:41Z</time>
      </trkpt>
      <trkpt lat="50.34886" lon="4.27856">
        <ele>150.796387</ele>
        <time>2022-03-20T11:02:43Z</time>
      </trkpt>
      <trkpt lat="50.34887" lon="4.27854">
        <ele>151.08194</ele>
        <time>2022-03-20T11:02:45Z</time>
      </trkpt>
      <trkpt lat="50.34889" lon="4.27851">
        <ele>151.417114</ele>
        <time>2022-03-20T11:02:47Z</time>
      </trkpt>
      <trkpt lat="50.34889" lon="4.27848">
        <ele>151.806427</ele>
        <time>2022-03-20T11:02:49Z</time>
      </trkpt>
      <trkpt lat="50.34891" lon="4.27842">
        <ele>152.970673</ele>
        <time>2022-03-20T11:02:55Z</time>
      </trkpt>
      <trkpt lat="50.34892" lon="4.2784">
        <ele>153.313553</ele>
        <time>2022-03-20T11:02:57Z</time>
      </trkpt>
      <trkpt lat="50.34893" lon="4.27835">
        <ele>153.764313</ele>
        <time>2022-03-20T11:02:59Z</time>
      </trkpt>
      <trkpt lat="50.34893" lon="4.27832">
        <ele>154.182861</ele>
        <time>2022-03-20T11:03:01Z</time>
      </trkpt>
      <trkpt lat="50.34894" lon="4.27827">
        <ele>154.836823</ele>
        <time>2022-03-20T11:03:05Z</time>
      </trkpt>
      <trkpt lat="50.34895" lon="4.2782">
        <ele>155.725464</ele>
        <time>2022-03-20T11:03:09Z</time>
      </trkpt>
      <trkpt lat="50.34895" lon="4.27817">
        <ele>156.163956</ele>
        <time>2022-03-20T11:03:11Z</time>
      </trkpt>
      <trkpt lat="50.34897" lon="4.27813">
        <ele>156.631683</ele>
        <time>2022-03-20T11:03:13Z</time>
      </trkpt>
      <trkpt lat="50.34898" lon="4.2781">
        <ele>157.07991</ele>
        <time>2022-03-20T11:03:15Z</time>
      </trkpt>
      <trkpt lat="50.34899" lon="4.27806">
        <ele>157.558578</ele>
        <time>2022-03-20T11:03:17Z</time>
      </trkpt>
      <trkpt lat="50.34901" lon="4.27799">
        <ele>157.951172</ele>
        <time>2022-03-20T11:03:19Z</time>
      </trkpt>
      <trkpt lat="50.34903" lon="4.27792">
        <ele>158.403046</ele>
        <time>2022-03-20T11:03:21Z</time>
      </trkpt>
      <trkpt lat="50.34905" lon="4.27788">
        <ele>158.78511</ele>
        <time>2022-03-20T11:03:23Z</time>
      </trkpt>
      <trkpt lat="50.34907" lon="4.27784">
        <ele>159.220123</ele>
        <time>2022-03-20T11:03:25Z</time>
      </trkpt>
      <trkpt lat="50.34908" lon="4.27782">
        <ele>159.601349</ele>
        <time>2022-03-20T11:03:27Z</time>
      </trkpt>
      <trkpt lat="50.34911" lon="4.27778">
        <ele>159.942627</ele>
        <time>2022-03-20T11:03:29Z</time>
      </trkpt>
      <trkpt lat="50.34913" lon="4.27774">
        <ele>160.292389</ele>
        <time>2022-03-20T11:03:31Z</time>
      </trkpt>
      <trkpt lat="50.34914" lon="4.27769">
        <ele>160.563416</ele>
        <time>2022-03-20T11:03:33Z</time>
      </trkpt>
      <trkpt lat="50.34916" lon="4.27765">
        <ele>160.907196</ele>
        <time>2022-03-20T11:03:35Z</time>
      </trkpt>
      <trkpt lat="50.34919" lon="4.2776">
        <ele>161.242279</ele>
        <time>2022-03-20T11:03:37Z</time>
      </trkpt>
      <trkpt lat="50.34921" lon="4.27755">
        <ele>161.431885</ele>
        <time>2022-03-20T11:03:39Z</time>
      </trkpt>
      <trkpt lat="50.34924" lon="4.27747">
        <ele>161.671494</ele>
        <time>2022-03-20T11:03:41Z</time>
      </trkpt>
      <trkpt lat="50.34924" lon="4.27741">
        <ele>161.902069</ele>
        <time>2022-03-20T11:03:43Z</time>
      </trkpt>
      <trkpt lat="50.34926" lon="4.27737">
        <ele>162.135468</ele>
        <time>2022-03-20T11:03:45Z</time>
      </trkpt>
      <trkpt lat="50.34928" lon="4.27731">
        <ele>162.431366</ele>
        <time>2022-03-20T11:03:47Z</time>
      </trkpt>
      <trkpt lat="50.3493" lon="4.27725">
        <ele>162.677032</ele>
        <time>2022-03-20T11:03:49Z</time>
      </trkpt>
      <trkpt lat="50.34932" lon="4.27718">
        <ele>162.894714</ele>
        <time>2022-03-20T11:03:51Z</time>
      </trkpt>
      <trkpt lat="50.34933" lon="4.27713">
        <ele>163.111084</ele>
        <time>2022-03-20T11:03:53Z</time>
      </trkpt>
      <trkpt lat="50.34935" lon="4.27707">
        <ele>163.346588</ele>
        <time>2022-03-20T11:03:55Z</time>
      </trkpt>
      <trkpt lat="50.34937" lon="4.27702">
        <ele>163.511246</ele>
        <time>2022-03-20T11:03:57Z</time>
      </trkpt>
      <trkpt lat="50.3494" lon="4.27696">
        <ele>163.732147</ele>
        <time>2022-03-20T11:03:59Z</time>
      </trkpt>
      <trkpt lat="50.34942" lon="4.2769">
        <ele>163.958893</ele>
        <time>2022-03-20T11:04:01Z</time>
      </trkpt>
      <trkpt lat="50.34944" lon="4.27684">
        <ele>164.200653</ele>
        <time>2022-03-20T11:04:03Z</time>
      </trkpt>
      <trkpt lat="50.34947" lon="4.27678">
        <ele>164.359055</ele>
        <time>2022-03-20T11:04:05Z</time>
      </trkpt>
      <trkpt lat="50.34948" lon="4.27672">
        <ele>164.550812</ele>
        <time>2022-03-20T11:04:07Z</time>
      </trkpt>
      <trkpt lat="50.34951" lon="4.27664">
        <ele>164.750702</ele>
        <time>2022-03-20T11:04:09Z</time>
      </trkpt>
      <trkpt lat="50.34952" lon="4.27656">
        <ele>164.967987</ele>
        <time>2022-03-20T11:04:11Z</time>
      </trkpt>
      <trkpt lat="50.34954" lon="4.27649">
        <ele>165.178513</ele>
        <time>2022-03-20T11:04:13Z</time>
      </trkpt>
      <trkpt lat="50.34955" lon="4.27646">
        <ele>165.268112</ele>
        <time>2022-03-20T11:04:14Z</time>
      </trkpt>
      <trkpt lat="50.34956" lon="4.27641">
        <ele>165.319183</ele>
        <time>2022-03-20T11:04:16Z</time>
      </trkpt>
      <trkpt lat="50.34956" lon="4.27634">
        <ele>165.474762</ele>
        <time>2022-03-20T11:04:18Z</time>
      </trkpt>
      <trkpt lat="50.34959" lon="4.27628">
        <ele>165.616516</ele>
        <time>2022-03-20T11:04:20Z</time>
      </trkpt>
      <trkpt lat="50.34961" lon="4.27621">
        <ele>165.803452</ele>
        <time>2022-03-20T11:04:22Z</time>
      </trkpt>
      <trkpt lat="50.34963" lon="4.27619">
        <ele>165.891708</ele>
        <time>2022-03-20T11:04:23Z</time>
      </trkpt>
      <trkpt lat="50.34966" lon="4.27615">
        <ele>166.030304</ele>
        <time>2022-03-20T11:04:25Z</time>
      </trkpt>
      <trkpt lat="50.3497" lon="4.27616">
        <ele>166.134521</ele>
        <time>2022-03-20T11:04:27Z</time>
      </trkpt>
      <trkpt lat="50.34975" lon="4.27617">
        <ele>166.243195</ele>
        <time>2022-03-20T11:04:29Z</time>
      </trkpt>
      <trkpt lat="50.34981" lon="4.27615">
        <ele>166.349762</ele>
        <time>2022-03-20T11:04:31Z</time>
      </trkpt>
      <trkpt lat="50.34985" lon="4.27611">
        <ele>166.491364</ele>
        <time>2022-03-20T11:04:33Z</time>
      </trkpt>
      <trkpt lat="50.34989" lon="4.27603">
        <ele>166.577682</ele>
        <time>2022-03-20T11:04:35Z</time>
      </trkpt>
      <trkpt lat="50.34993" lon="4.27594">
        <ele>166.627243</ele>
        <time>2022-03-20T11:04:37Z</time>
      </trkpt>
      <trkpt lat="50.34997" lon="4.27584">
        <ele>166.741913</ele>
        <time>2022-03-20T11:04:39Z</time>
      </trkpt>
      <trkpt lat="50.35" lon="4.27575">
        <ele>166.816956</ele>
        <time>2022-03-20T11:04:41Z</time>
      </trkpt>
      <trkpt lat="50.35004" lon="4.27567">
        <ele>166.891556</ele>
        <time>2022-03-20T11:04:43Z</time>
      </trkpt>
      <trkpt lat="50.35005" lon="4.27563">
        <ele>166.883209</ele>
        <time>2022-03-20T11:04:44Z</time>
      </trkpt>
      <trkpt lat="50.35009" lon="4.27555">
        <ele>166.960342</ele>
        <time>2022-03-20T11:04:46Z</time>
      </trkpt>
      <trkpt lat="50.35012" lon="4.27546">
        <ele>167.020813</ele>
        <time>2022-03-20T11:04:48Z</time>
      </trkpt>
      <trkpt lat="50.35014" lon="4.27536">
        <ele>167.060425</ele>
        <time>2022-03-20T11:04:50Z</time>
      </trkpt>
      <trkpt lat="50.35018" lon="4.27528">
        <ele>167.114838</ele>
        <time>2022-03-20T11:04:52Z</time>
      </trkpt>
      <trkpt lat="50.35022" lon="4.27519">
        <ele>167.16684</ele>
        <time>2022-03-20T11:04:54Z</time>
      </trkpt>
      <trkpt lat="50.35025" lon="4.2751">
        <ele>167.250092</ele>
        <time>2022-03-20T11:04:56Z</time>
      </trkpt>
      <trkpt lat="50.35027" lon="4.27501">
        <ele>167.41452</ele>
        <time>2022-03-20T11:04:58Z</time>
      </trkpt>
      <trkpt lat="50.3503" lon="4.27495">
        <ele>167.490326</ele>
        <time>2022-03-20T11:05:00Z</time>
      </trkpt>
      <trkpt lat="50.35033" lon="4.27486">
        <ele>167.502838</ele>
        <time>2022-03-20T11:05:02Z</time>
      </trkpt>
      <trkpt lat="50.35037" lon="4.27478">
        <ele>167.558258</ele>
        <time>2022-03-20T11:05:04Z</time>
      </trkpt>
      <trkpt lat="50.3504" lon="4.27474">
        <ele>167.605347</ele>
        <time>2022-03-20T11:05:06Z</time>
      </trkpt>
      <trkpt lat="50.35042" lon="4.27468">
        <ele>167.690826</ele>
        <time>2022-03-20T11:05:08Z</time>
      </trkpt>
      <trkpt lat="50.35045" lon="4.27462">
        <ele>167.669983</ele>
        <time>2022-03-20T11:05:10Z</time>
      </trkpt>
      <trkpt lat="50.35048" lon="4.27454">
        <ele>167.717682</ele>
        <time>2022-03-20T11:05:12Z</time>
      </trkpt>
      <trkpt lat="50.35053" lon="4.27445">
        <ele>167.857513</ele>
        <time>2022-03-20T11:05:14Z</time>
      </trkpt>
      <trkpt lat="50.35057" lon="4.27437">
        <ele>167.875443</ele>
        <time>2022-03-20T11:05:16Z</time>
      </trkpt>
      <trkpt lat="50.35061" lon="4.27431">
        <ele>167.915527</ele>
        <time>2022-03-20T11:05:18Z</time>
      </trkpt>
      <trkpt lat="50.35063" lon="4.27422">
        <ele>167.946808</ele>
        <time>2022-03-20T11:05:20Z</time>
      </trkpt>
      <trkpt lat="50.35064" lon="4.27415">
        <ele>168.078156</ele>
        <time>2022-03-20T11:05:22Z</time>
      </trkpt>
      <trkpt lat="50.3507" lon="4.27407">
        <ele>168.167206</ele>
        <time>2022-03-20T11:05:24Z</time>
      </trkpt>
      <trkpt lat="50.35077" lon="4.274">
        <ele>168.33403</ele>
        <time>2022-03-20T11:05:26Z</time>
      </trkpt>
      <trkpt lat="50.35081" lon="4.2739">
        <ele>168.273575</ele>
        <time>2022-03-20T11:05:28Z</time>
      </trkpt>
      <trkpt lat="50.35085" lon="4.27379">
        <ele>168.321533</ele>
        <time>2022-03-20T11:05:30Z</time>
      </trkpt>
      <trkpt lat="50.35089" lon="4.27369">
        <ele>168.391296</ele>
        <time>2022-03-20T11:05:32Z</time>
      </trkpt>
      <trkpt lat="50.35093" lon="4.27359">
        <ele>168.405884</ele>
        <time>2022-03-20T11:05:34Z</time>
      </trkpt>
      <trkpt lat="50.35096" lon="4.27348">
        <ele>168.424393</ele>
        <time>2022-03-20T11:05:36Z</time>
      </trkpt>
      <trkpt lat="50.35099" lon="4.27337">
        <ele>168.38475</ele>
        <time>2022-03-20T11:05:38Z</time>
      </trkpt>
      <trkpt lat="50.35102" lon="4.27327">
        <ele>168.336029</ele>
        <time>2022-03-20T11:05:40Z</time>
      </trkpt>
      <trkpt lat="50.35104" lon="4.27316">
        <ele>168.339447</ele>
        <time>2022-03-20T11:05:42Z</time>
      </trkpt>
      <trkpt lat="50.35109" lon="4.27309">
        <ele>168.397293</ele>
        <time>2022-03-20T11:05:44Z</time>
      </trkpt>
      <trkpt lat="50.35113" lon="4.27306">
        <ele>168.430817</ele>
        <time>2022-03-20T11:05:46Z</time>
      </trkpt>
      <trkpt lat="50.3512" lon="4.27303">
        <ele>168.587234</ele>
        <time>2022-03-20T11:05:48Z</time>
      </trkpt>
      <trkpt lat="50.35127" lon="4.273">
        <ele>168.681061</ele>
        <time>2022-03-20T11:05:50Z</time>
      </trkpt>
      <trkpt lat="50.35135" lon="4.27297">
        <ele>168.683136</ele>
        <time>2022-03-20T11:05:52Z</time>
      </trkpt>
      <trkpt lat="50.35142" lon="4.27297">
        <ele>168.687302</ele>
        <time>2022-03-20T11:05:54Z</time>
      </trkpt>
      <trkpt lat="50.35149" lon="4.27296">
        <ele>168.74736</ele>
        <time>2022-03-20T11:05:56Z</time>
      </trkpt>
      <trkpt lat="50.35152" lon="4.27295">
        <ele>168.791168</ele>
        <time>2022-03-20T11:05:57Z</time>
      </trkpt>
      <trkpt lat="50.35155" lon="4.27293">
        <ele>168.839691</ele>
        <time>2022-03-20T11:05:59Z</time>
      </trkpt>
      <trkpt lat="50.35161" lon="4.27291">
        <ele>168.891815</ele>
        <time>2022-03-20T11:06:01Z</time>
      </trkpt>
      <trkpt lat="50.35167" lon="4.27288">
        <ele>168.883499</ele>
        <time>2022-03-20T11:06:03Z</time>
      </trkpt>
      <trkpt lat="50.35173" lon="4.27284">
        <ele>168.908081</ele>
        <time>2022-03-20T11:06:05Z</time>
      </trkpt>
      <trkpt lat="50.35178" lon="4.27279">
        <ele>168.957108</ele>
        <time>2022-03-20T11:06:07Z</time>
      </trkpt>
      <trkpt lat="50.35182" lon="4.27274">
        <ele>168.973801</ele>
        <time>2022-03-20T11:06:09Z</time>
      </trkpt>
      <trkpt lat="50.35186" lon="4.27266">
        <ele>169.234451</ele>
        <time>2022-03-20T11:06:11Z</time>
      </trkpt>
      <trkpt lat="50.35189" lon="4.27257">
        <ele>169.369049</ele>
        <time>2022-03-20T11:06:13Z</time>
      </trkpt>
      <trkpt lat="50.35191" lon="4.27248">
        <ele>169.512939</ele>
        <time>2022-03-20T11:06:15Z</time>
      </trkpt>
      <trkpt lat="50.35194" lon="4.27238">
        <ele>169.703979</ele>
        <time>2022-03-20T11:06:17Z</time>
      </trkpt>
      <trkpt lat="50.35196" lon="4.27228">
        <ele>169.914627</ele>
        <time>2022-03-20T11:06:19Z</time>
      </trkpt>
      <trkpt lat="50.35199" lon="4.27218">
        <ele>170.087723</ele>
        <time>2022-03-20T11:06:21Z</time>
      </trkpt>
      <trkpt lat="50.35201" lon="4.27208">
        <ele>170.283752</ele>
        <time>2022-03-20T11:06:23Z</time>
      </trkpt>
      <trkpt lat="50.35202" lon="4.27204">
        <ele>170.340057</ele>
        <time>2022-03-20T11:06:24Z</time>
      </trkpt>
      <trkpt lat="50.35204" lon="4.27196">
        <ele>170.503204</ele>
        <time>2022-03-20T11:06:26Z</time>
      </trkpt>
      <trkpt lat="50.35206" lon="4.27188">
        <ele>170.569244</ele>
        <time>2022-03-20T11:06:28Z</time>
      </trkpt>
      <trkpt lat="50.35207" lon="4.27182">
        <ele>170.667267</ele>
        <time>2022-03-20T11:06:30Z</time>
      </trkpt>
      <trkpt lat="50.35209" lon="4.27176">
        <ele>170.834106</ele>
        <time>2022-03-20T11:06:32Z</time>
      </trkpt>
      <trkpt lat="50.3521" lon="4.27171">
        <ele>171.011368</ele>
        <time>2022-03-20T11:06:34Z</time>
      </trkpt>
      <trkpt lat="50.3521" lon="4.27169">
        <ele>171.069763</ele>
        <time>2022-03-20T11:06:35Z</time>
      </trkpt>
      <trkpt lat="50.35211" lon="4.27165">
        <ele>171.103134</ele>
        <time>2022-03-20T11:06:37Z</time>
      </trkpt>
      <trkpt lat="50.35212" lon="4.27162">
        <ele>171.367996</ele>
        <time>2022-03-20T11:06:41Z</time>
      </trkpt>
      <trkpt lat="50.35211" lon="4.27161">
        <ele>171.503357</ele>
        <time>2022-03-20T11:06:43Z</time>
      </trkpt>
      <trkpt lat="50.35212" lon="4.27158">
        <ele>171.645844</ele>
        <time>2022-03-20T11:06:45Z</time>
      </trkpt>
      <trkpt lat="50.35212" lon="4.27155">
        <ele>171.791931</ele>
        <time>2022-03-20T11:06:47Z</time>
      </trkpt>
      <trkpt lat="50.35211" lon="4.27152">
        <ele>171.87117</ele>
        <time>2022-03-20T11:06:49Z</time>
      </trkpt>
      <trkpt lat="50.35214" lon="4.27149">
        <ele>167.05397</ele>
        <time>2022-03-20T11:11:37Z</time>
      </trkpt>
      <trkpt lat="50.35216" lon="4.27145">
        <ele>166.937225</ele>
        <time>2022-03-20T11:11:39Z</time>
      </trkpt>
      <trkpt lat="50.35218" lon="4.2714">
        <ele>166.883011</ele>
        <time>2022-03-20T11:11:41Z</time>
      </trkpt>
      <trkpt lat="50.35219" lon="4.27134">
        <ele>166.744186</ele>
        <time>2022-03-20T11:11:43Z</time>
      </trkpt>
      <trkpt lat="50.3522" lon="4.27128">
        <ele>166.694153</ele>
        <time>2022-03-20T11:11:45Z</time>
      </trkpt>
      <trkpt lat="50.35222" lon="4.27121">
        <ele>166.602417</ele>
        <time>2022-03-20T11:11:47Z</time>
      </trkpt>
      <trkpt lat="50.35224" lon="4.27114">
        <ele>166.496063</ele>
        <time>2022-03-20T11:11:49Z</time>
      </trkpt>
      <trkpt lat="50.35225" lon="4.27107">
        <ele>166.413177</ele>
        <time>2022-03-20T11:11:51Z</time>
      </trkpt>
      <trkpt lat="50.35221" lon="4.27101">
        <ele>166.36937</ele>
        <time>2022-03-20T11:11:53Z</time>
      </trkpt>
      <trkpt lat="50.35213" lon="4.27097">
        <ele>166.422699</ele>
        <time>2022-03-20T11:11:55Z</time>
      </trkpt>
      <trkpt lat="50.35205" lon="4.27094">
        <ele>166.511871</ele>
        <time>2022-03-20T11:11:57Z</time>
      </trkpt>
      <trkpt lat="50.35195" lon="4.27089">
        <ele>166.541046</ele>
        <time>2022-03-20T11:11:59Z</time>
      </trkpt>
      <trkpt lat="50.35185" lon="4.27085">
        <ele>166.705582</ele>
        <time>2022-03-20T11:12:01Z</time>
      </trkpt>
      <trkpt lat="50.35174" lon="4.2708">
        <ele>166.832779</ele>
        <time>2022-03-20T11:12:03Z</time>
      </trkpt>
      <trkpt lat="50.35163" lon="4.27077">
        <ele>166.868225</ele>
        <time>2022-03-20T11:12:05Z</time>
      </trkpt>
      <trkpt lat="50.35152" lon="4.27072">
        <ele>167.024597</ele>
        <time>2022-03-20T11:12:07Z</time>
      </trkpt>
      <trkpt lat="50.35144" lon="4.27068">
        <ele>167.295639</ele>
        <time>2022-03-20T11:12:09Z</time>
      </trkpt>
      <trkpt lat="50.35139" lon="4.27063">
        <ele>167.564636</ele>
        <time>2022-03-20T11:12:11Z</time>
      </trkpt>
      <trkpt lat="50.35134" lon="4.27055">
        <ele>167.800385</ele>
        <time>2022-03-20T11:12:13Z</time>
      </trkpt>
      <trkpt lat="50.35129" lon="4.27047">
        <ele>168.045563</ele>
        <time>2022-03-20T11:12:15Z</time>
      </trkpt>
      <trkpt lat="50.35123" lon="4.27037">
        <ele>168.318298</ele>
        <time>2022-03-20T11:12:17Z</time>
      </trkpt>
      <trkpt lat="50.35117" lon="4.27026">
        <ele>168.491364</ele>
        <time>2022-03-20T11:12:19Z</time>
      </trkpt>
      <trkpt lat="50.35111" lon="4.27015">
        <ele>168.597687</ele>
        <time>2022-03-20T11:12:21Z</time>
      </trkpt>
      <trkpt lat="50.35104" lon="4.27003">
        <ele>168.803238</ele>
        <time>2022-03-20T11:12:23Z</time>
      </trkpt>
      <trkpt lat="50.35098" lon="4.26992">
        <ele>168.937515</ele>
        <time>2022-03-20T11:12:25Z</time>
      </trkpt>
      <trkpt lat="50.3509" lon="4.2698">
        <ele>169.162735</ele>
        <time>2022-03-20T11:12:27Z</time>
      </trkpt>
      <trkpt lat="50.35083" lon="4.26968">
        <ele>169.173187</ele>
        <time>2022-03-20T11:12:29Z</time>
      </trkpt>
      <trkpt lat="50.35077" lon="4.26957">
        <ele>169.141968</ele>
        <time>2022-03-20T11:12:31Z</time>
      </trkpt>
      <trkpt lat="50.35071" lon="4.26946">
        <ele>169.333282</ele>
        <time>2022-03-20T11:12:33Z</time>
      </trkpt>
      <trkpt lat="50.35064" lon="4.26935">
        <ele>169.365479</ele>
        <time>2022-03-20T11:12:35Z</time>
      </trkpt>
      <trkpt lat="50.35057" lon="4.26923">
        <ele>169.190323</ele>
        <time>2022-03-20T11:12:37Z</time>
      </trkpt>
      <trkpt lat="50.35049" lon="4.2691">
        <ele>169.228363</ele>
        <time>2022-03-20T11:12:39Z</time>
      </trkpt>
      <trkpt lat="50.35041" lon="4.26896">
        <ele>169.222641</ele>
        <time>2022-03-20T11:12:41Z</time>
      </trkpt>
      <trkpt lat="50.35033" lon="4.26883">
        <ele>169.185104</ele>
        <time>2022-03-20T11:12:43Z</time>
      </trkpt>
      <trkpt lat="50.35026" lon="4.2687">
        <ele>169.239319</ele>
        <time>2022-03-20T11:12:45Z</time>
      </trkpt>
      <trkpt lat="50.35018" lon="4.26856">
        <ele>169.147598</ele>
        <time>2022-03-20T11:12:47Z</time>
      </trkpt>
      <trkpt lat="50.35011" lon="4.26844">
        <ele>169.01622</ele>
        <time>2022-03-20T11:12:49Z</time>
      </trkpt>
      <trkpt lat="50.35004" lon="4.26833">
        <ele>168.809784</ele>
        <time>2022-03-20T11:12:51Z</time>
      </trkpt>
      <trkpt lat="50.34999" lon="4.26821">
        <ele>168.428253</ele>
        <time>2022-03-20T11:12:53Z</time>
      </trkpt>
      <trkpt lat="50.34995" lon="4.26808">
        <ele>168.340561</ele>
        <time>2022-03-20T11:12:55Z</time>
      </trkpt>
      <trkpt lat="50.3499" lon="4.26796">
        <ele>168.123703</ele>
        <time>2022-03-20T11:12:57Z</time>
      </trkpt>
      <trkpt lat="50.34985" lon="4.26785">
        <ele>167.865143</ele>
        <time>2022-03-20T11:12:59Z</time>
      </trkpt>
      <trkpt lat="50.34979" lon="4.26779">
        <ele>167.704605</ele>
        <time>2022-03-20T11:13:01Z</time>
      </trkpt>
      <trkpt lat="50.34972" lon="4.26771">
        <ele>167.498169</ele>
        <time>2022-03-20T11:13:03Z</time>
      </trkpt>
      <trkpt lat="50.34964" lon="4.26762">
        <ele>167.328461</ele>
        <time>2022-03-20T11:13:05Z</time>
      </trkpt>
      <trkpt lat="50.34959" lon="4.26751">
        <ele>167.117889</ele>
        <time>2022-03-20T11:13:07Z</time>
      </trkpt>
      <trkpt lat="50.34954" lon="4.26741">
        <ele>167.029099</ele>
        <time>2022-03-20T11:13:09Z</time>
      </trkpt>
      <trkpt lat="50.34948" lon="4.2673">
        <ele>166.758087</ele>
        <time>2022-03-20T11:13:11Z</time>
      </trkpt>
      <trkpt lat="50.3494" lon="4.26718">
        <ele>166.587128</ele>
        <time>2022-03-20T11:13:13Z</time>
      </trkpt>
      <trkpt lat="50.34934" lon="4.26706">
        <ele>166.320267</ele>
        <time>2022-03-20T11:13:15Z</time>
      </trkpt>
      <trkpt lat="50.34927" lon="4.26694">
        <ele>166.204269</ele>
        <time>2022-03-20T11:13:17Z</time>
      </trkpt>
      <trkpt lat="50.34921" lon="4.26682">
        <ele>165.960358</ele>
        <time>2022-03-20T11:13:19Z</time>
      </trkpt>
      <trkpt lat="50.34914" lon="4.2667">
        <ele>165.731049</ele>
        <time>2022-03-20T11:13:21Z</time>
      </trkpt>
      <trkpt lat="50.34908" lon="4.26659">
        <ele>165.382568</ele>
        <time>2022-03-20T11:13:23Z</time>
      </trkpt>
      <trkpt lat="50.34901" lon="4.26648">
        <ele>165.069855</ele>
        <time>2022-03-20T11:13:25Z</time>
      </trkpt>
      <trkpt lat="50.34898" lon="4.26639">
        <ele>164.932281</ele>
        <time>2022-03-20T11:13:27Z</time>
      </trkpt>
      <trkpt lat="50.34894" lon="4.26632">
        <ele>164.852142</ele>
        <time>2022-03-20T11:13:29Z</time>
      </trkpt>
      <trkpt lat="50.34894" lon="4.26618">
        <ele>164.53743</ele>
        <time>2022-03-20T11:13:31Z</time>
      </trkpt>
      <trkpt lat="50.34893" lon="4.26603">
        <ele>164.233124</ele>
        <time>2022-03-20T11:13:33Z</time>
      </trkpt>
      <trkpt lat="50.34894" lon="4.26587">
        <ele>163.564743</ele>
        <time>2022-03-20T11:13:35Z</time>
      </trkpt>
      <trkpt lat="50.34894" lon="4.26572">
        <ele>163.289642</ele>
        <time>2022-03-20T11:13:37Z</time>
      </trkpt>
      <trkpt lat="50.34896" lon="4.26563">
        <ele>162.924927</ele>
        <time>2022-03-20T11:13:39Z</time>
      </trkpt>
      <trkpt lat="50.34898" lon="4.26558">
        <ele>162.6436</ele>
        <time>2022-03-20T11:13:41Z</time>
      </trkpt>
      <trkpt lat="50.349" lon="4.26557">
        <ele>162.353638</ele>
        <time>2022-03-20T11:13:43Z</time>
      </trkpt>
      <trkpt lat="50.34904" lon="4.26558">
        <ele>161.934784</ele>
        <time>2022-03-20T11:13:45Z</time>
      </trkpt>
      <trkpt lat="50.3491" lon="4.26559">
        <ele>161.57637</ele>
        <time>2022-03-20T11:13:47Z</time>
      </trkpt>
      <trkpt lat="50.34915" lon="4.2656">
        <ele>161.257568</ele>
        <time>2022-03-20T11:13:49Z</time>
      </trkpt>
      <trkpt lat="50.3492" lon="4.26561">
        <ele>160.808685</ele>
        <time>2022-03-20T11:13:51Z</time>
      </trkpt>
      <trkpt lat="50.34927" lon="4.26563">
        <ele>160.444107</ele>
        <time>2022-03-20T11:13:53Z</time>
      </trkpt>
      <trkpt lat="50.34933" lon="4.26563">
        <ele>160.06076</ele>
        <time>2022-03-20T11:13:55Z</time>
      </trkpt>
      <trkpt lat="50.3494" lon="4.26564">
        <ele>159.720383</ele>
        <time>2022-03-20T11:13:57Z</time>
      </trkpt>
      <trkpt lat="50.34948" lon="4.26566">
        <ele>159.322418</ele>
        <time>2022-03-20T11:13:59Z</time>
      </trkpt>
      <trkpt lat="50.34956" lon="4.2657">
        <ele>159.045319</ele>
        <time>2022-03-20T11:14:01Z</time>
      </trkpt>
      <trkpt lat="50.34964" lon="4.26574">
        <ele>158.68071</ele>
        <time>2022-03-20T11:14:03Z</time>
      </trkpt>
      <trkpt lat="50.34972" lon="4.26578">
        <ele>158.389038</ele>
        <time>2022-03-20T11:14:05Z</time>
      </trkpt>
      <trkpt lat="50.34981" lon="4.26581">
        <ele>158.072357</ele>
        <time>2022-03-20T11:14:07Z</time>
      </trkpt>
      <trkpt lat="50.34989" lon="4.26584">
        <ele>157.750534</ele>
        <time>2022-03-20T11:14:09Z</time>
      </trkpt>
      <trkpt lat="50.34996" lon="4.26585">
        <ele>157.400528</ele>
        <time>2022-03-20T11:14:11Z</time>
      </trkpt>
      <trkpt lat="50.35003" lon="4.26588">
        <ele>157.140106</ele>
        <time>2022-03-20T11:14:13Z</time>
      </trkpt>
      <trkpt lat="50.35011" lon="4.26589">
        <ele>157.495819</ele>
        <time>2022-03-20T11:14:15Z</time>
      </trkpt>
      <trkpt lat="50.3502" lon="4.2659">
        <ele>157.285233</ele>
        <time>2022-03-20T11:14:17Z</time>
      </trkpt>
      <trkpt lat="50.35027" lon="4.2659">
        <ele>157.04776</ele>
        <time>2022-03-20T11:14:19Z</time>
      </trkpt>
      <trkpt lat="50.35036" lon="4.26588">
        <ele>156.8853</ele>
        <time>2022-03-20T11:14:21Z</time>
      </trkpt>
      <trkpt lat="50.35043" lon="4.26589">
        <ele>156.679367</ele>
        <time>2022-03-20T11:14:23Z</time>
      </trkpt>
      <trkpt lat="50.35048" lon="4.26586">
        <ele>156.579391</ele>
        <time>2022-03-20T11:14:25Z</time>
      </trkpt>
      <trkpt lat="50.3505" lon="4.26586">
        <ele>156.51944</ele>
        <time>2022-03-20T11:14:27Z</time>
      </trkpt>
      <trkpt lat="50.35052" lon="4.26586">
        <ele>156.436127</ele>
        <time>2022-03-20T11:14:29Z</time>
      </trkpt>
      <trkpt lat="50.35055" lon="4.26586">
        <ele>156.440826</ele>
        <time>2022-03-20T11:14:31Z</time>
      </trkpt>
      <trkpt lat="50.35062" lon="4.26589">
        <ele>156.49884</ele>
        <time>2022-03-20T11:14:35Z</time>
      </trkpt>
      <trkpt lat="50.35066" lon="4.26591">
        <ele>156.482178</ele>
        <time>2022-03-20T11:14:37Z</time>
      </trkpt>
      <trkpt lat="50.3507" lon="4.26592">
        <ele>156.471771</ele>
        <time>2022-03-20T11:14:39Z</time>
      </trkpt>
      <trkpt lat="50.35074" lon="4.26591">
        <ele>156.490509</ele>
        <time>2022-03-20T11:14:41Z</time>
      </trkpt>
      <trkpt lat="50.35076" lon="4.26587">
        <ele>156.505081</ele>
        <time>2022-03-20T11:14:43Z</time>
      </trkpt>
      <trkpt lat="50.35078" lon="4.26586">
        <ele>156.478806</ele>
        <time>2022-03-20T11:14:45Z</time>
      </trkpt>
      <trkpt lat="50.35079" lon="4.26585">
        <ele>156.162445</ele>
        <time>2022-03-20T11:14:53Z</time>
      </trkpt>
      <trkpt lat="50.35078" lon="4.26583">
        <ele>155.987518</ele>
        <time>2022-03-20T11:14:55Z</time>
      </trkpt>
      <trkpt lat="50.35075" lon="4.26578">
        <ele>155.89798</ele>
        <time>2022-03-20T11:14:57Z</time>
      </trkpt>
      <trkpt lat="50.35074" lon="4.26572">
        <ele>155.692032</ele>
        <time>2022-03-20T11:14:59Z</time>
      </trkpt>
      <trkpt lat="50.35075" lon="4.26563">
        <ele>155.554596</ele>
        <time>2022-03-20T11:15:01Z</time>
      </trkpt>
      <trkpt lat="50.35075" lon="4.26553">
        <ele>155.363052</ele>
        <time>2022-03-20T11:15:03Z</time>
      </trkpt>
      <trkpt lat="50.35076" lon="4.2654">
        <ele>155.081955</ele>
        <time>2022-03-20T11:15:05Z</time>
      </trkpt>
      <trkpt lat="50.35077" lon="4.26526">
        <ele>154.790436</ele>
        <time>2022-03-20T11:15:07Z</time>
      </trkpt>
      <trkpt lat="50.3508" lon="4.26512">
        <ele>154.527649</ele>
        <time>2022-03-20T11:15:09Z</time>
      </trkpt>
      <trkpt lat="50.35082" lon="4.26497">
        <ele>154.29599</ele>
        <time>2022-03-20T11:15:11Z</time>
      </trkpt>
      <trkpt lat="50.35082" lon="4.2648">
        <ele>154.152283</ele>
        <time>2022-03-20T11:15:13Z</time>
      </trkpt>
      <trkpt lat="50.35084" lon="4.26461">
        <ele>153.841888</ele>
        <time>2022-03-20T11:15:15Z</time>
      </trkpt>
      <trkpt lat="50.35084" lon="4.26444">
        <ele>153.486313</ele>
        <time>2022-03-20T11:15:17Z</time>
      </trkpt>
      <trkpt lat="50.35086" lon="4.26431">
        <ele>153.065765</ele>
        <time>2022-03-20T11:15:19Z</time>
      </trkpt>
      <trkpt lat="50.35088" lon="4.26419">
        <ele>152.584854</ele>
        <time>2022-03-20T11:15:21Z</time>
      </trkpt>
      <trkpt lat="50.35091" lon="4.26409">
        <ele>152.133133</ele>
        <time>2022-03-20T11:15:23Z</time>
      </trkpt>
      <trkpt lat="50.3509" lon="4.26399">
        <ele>151.543243</ele>
        <time>2022-03-20T11:15:25Z</time>
      </trkpt>
      <trkpt lat="50.35088" lon="4.26393">
        <ele>151.301788</ele>
        <time>2022-03-20T11:15:27Z</time>
      </trkpt>
      <trkpt lat="50.35081" lon="4.26389">
        <ele>150.724838</ele>
        <time>2022-03-20T11:15:29Z</time>
      </trkpt>
      <trkpt lat="50.35077" lon="4.26386">
        <ele>150.220856</ele>
        <time>2022-03-20T11:15:31Z</time>
      </trkpt>
      <trkpt lat="50.35076" lon="4.26382">
        <ele>149.744232</ele>
        <time>2022-03-20T11:15:33Z</time>
      </trkpt>
      <trkpt lat="50.35075" lon="4.26378">
        <ele>149.230194</ele>
        <time>2022-03-20T11:15:35Z</time>
      </trkpt>
      <trkpt lat="50.35073" lon="4.26371">
        <ele>148.67868</ele>
        <time>2022-03-20T11:15:37Z</time>
      </trkpt>
      <trkpt lat="50.35073" lon="4.26365">
        <ele>148.258408</ele>
        <time>2022-03-20T11:15:39Z</time>
      </trkpt>
      <trkpt lat="50.35072" lon="4.26361">
        <ele>147.94838</ele>
        <time>2022-03-20T11:15:40Z</time>
      </trkpt>
      <trkpt lat="50.3507" lon="4.26352">
        <ele>147.403107</ele>
        <time>2022-03-20T11:15:42Z</time>
      </trkpt>
      <trkpt lat="50.35067" lon="4.26342">
        <ele>146.789322</ele>
        <time>2022-03-20T11:15:44Z</time>
      </trkpt>
      <trkpt lat="50.35064" lon="4.26334">
        <ele>146.163147</ele>
        <time>2022-03-20T11:15:46Z</time>
      </trkpt>
      <trkpt lat="50.35061" lon="4.26324">
        <ele>145.593079</ele>
        <time>2022-03-20T11:15:48Z</time>
      </trkpt>
      <trkpt lat="50.35056" lon="4.26315">
        <ele>144.228302</ele>
        <time>2022-03-20T11:15:52Z</time>
      </trkpt>
      <trkpt lat="50.35051" lon="4.26311">
        <ele>143.527283</ele>
        <time>2022-03-20T11:15:54Z</time>
      </trkpt>
      <trkpt lat="50.35042" lon="4.26301">
        <ele>142.942719</ele>
        <time>2022-03-20T11:15:56Z</time>
      </trkpt>
      <trkpt lat="50.35033" lon="4.26297">
        <ele>142.31871</ele>
        <time>2022-03-20T11:15:58Z</time>
      </trkpt>
      <trkpt lat="50.35024" lon="4.26295">
        <ele>141.744659</ele>
        <time>2022-03-20T11:16:00Z</time>
      </trkpt>
      <trkpt lat="50.35016" lon="4.2629">
        <ele>141.461777</ele>
        <time>2022-03-20T11:16:02Z</time>
      </trkpt>
      <trkpt lat="50.35012" lon="4.26278">
        <ele>140.987579</ele>
        <time>2022-03-20T11:16:04Z</time>
      </trkpt>
      <trkpt lat="50.35012" lon="4.26271">
        <ele>140.754654</ele>
        <time>2022-03-20T11:16:05Z</time>
      </trkpt>
      <trkpt lat="50.35013" lon="4.26258">
        <ele>140.28244</ele>
        <time>2022-03-20T11:16:07Z</time>
      </trkpt>
      <trkpt lat="50.35012" lon="4.26244">
        <ele>139.804153</ele>
        <time>2022-03-20T11:16:09Z</time>
      </trkpt>
      <trkpt lat="50.35012" lon="4.2623">
        <ele>139.323853</ele>
        <time>2022-03-20T11:16:11Z</time>
      </trkpt>
      <trkpt lat="50.35011" lon="4.26216">
        <ele>138.779053</ele>
        <time>2022-03-20T11:16:13Z</time>
      </trkpt>
      <trkpt lat="50.3501" lon="4.26202">
        <ele>138.337189</ele>
        <time>2022-03-20T11:16:15Z</time>
      </trkpt>
      <trkpt lat="50.35008" lon="4.26189">
        <ele>138.089752</ele>
        <time>2022-03-20T11:16:17Z</time>
      </trkpt>
      <trkpt lat="50.35004" lon="4.26178">
        <ele>137.662689</ele>
        <time>2022-03-20T11:16:19Z</time>
      </trkpt>
      <trkpt lat="50.34996" lon="4.26171">
        <ele>137.133209</ele>
        <time>2022-03-20T11:16:21Z</time>
      </trkpt>
      <trkpt lat="50.34989" lon="4.26163">
        <ele>136.653046</ele>
        <time>2022-03-20T11:16:23Z</time>
      </trkpt>
      <trkpt lat="50.34984" lon="4.26155">
        <ele>136.299103</ele>
        <time>2022-03-20T11:16:25Z</time>
      </trkpt>
      <trkpt lat="50.3498" lon="4.26144">
        <ele>136.105789</ele>
        <time>2022-03-20T11:16:27Z</time>
      </trkpt>
      <trkpt lat="50.34978" lon="4.26132">
        <ele>135.735794</ele>
        <time>2022-03-20T11:16:29Z</time>
      </trkpt>
      <trkpt lat="50.34977" lon="4.26121">
        <ele>135.5009</ele>
        <time>2022-03-20T11:16:31Z</time>
      </trkpt>
      <trkpt lat="50.34976" lon="4.26109">
        <ele>135.263947</ele>
        <time>2022-03-20T11:16:33Z</time>
      </trkpt>
      <trkpt lat="50.34975" lon="4.26099">
        <ele>135.024689</ele>
        <time>2022-03-20T11:16:35Z</time>
      </trkpt>
      <trkpt lat="50.34974" lon="4.26087">
        <ele>134.689957</ele>
        <time>2022-03-20T11:16:37Z</time>
      </trkpt>
      <trkpt lat="50.34974" lon="4.26075">
        <ele>134.6754</ele>
        <time>2022-03-20T11:16:39Z</time>
      </trkpt>
      <trkpt lat="50.34975" lon="4.26064">
        <ele>134.619293</ele>
        <time>2022-03-20T11:16:41Z</time>
      </trkpt>
      <trkpt lat="50.34977" lon="4.26052">
        <ele>134.534073</ele>
        <time>2022-03-20T11:16:43Z</time>
      </trkpt>
      <trkpt lat="50.34978" lon="4.2604">
        <ele>134.463394</ele>
        <time>2022-03-20T11:16:45Z</time>
      </trkpt>
      <trkpt lat="50.34979" lon="4.26028">
        <ele>134.442963</ele>
        <time>2022-03-20T11:16:47Z</time>
      </trkpt>
      <trkpt lat="50.3498" lon="4.26017">
        <ele>134.50531</ele>
        <time>2022-03-20T11:16:49Z</time>
      </trkpt>
      <trkpt lat="50.34981" lon="4.26006">
        <ele>134.551041</ele>
        <time>2022-03-20T11:16:51Z</time>
      </trkpt>
      <trkpt lat="50.34981" lon="4.25994">
        <ele>134.711929</ele>
        <time>2022-03-20T11:16:53Z</time>
      </trkpt>
      <trkpt lat="50.34981" lon="4.25983">
        <ele>134.839096</ele>
        <time>2022-03-20T11:16:55Z</time>
      </trkpt>
      <trkpt lat="50.3498" lon="4.25971">
        <ele>135.014786</ele>
        <time>2022-03-20T11:16:57Z</time>
      </trkpt>
      <trkpt lat="50.34979" lon="4.2596">
        <ele>135.169098</ele>
        <time>2022-03-20T11:16:59Z</time>
      </trkpt>
      <trkpt lat="50.34977" lon="4.25949">
        <ele>135.401917</ele>
        <time>2022-03-20T11:17:01Z</time>
      </trkpt>
      <trkpt lat="50.34976" lon="4.25938">
        <ele>135.675385</ele>
        <time>2022-03-20T11:17:03Z</time>
      </trkpt>
      <trkpt lat="50.34975" lon="4.25928">
        <ele>136.456039</ele>
        <time>2022-03-20T11:17:05Z</time>
      </trkpt>
      <trkpt lat="50.34975" lon="4.25922">
        <ele>136.601547</ele>
        <time>2022-03-20T11:17:06Z</time>
      </trkpt>
      <trkpt lat="50.34973" lon="4.25912">
        <ele>136.846054</ele>
        <time>2022-03-20T11:17:08Z</time>
      </trkpt>
      <trkpt lat="50.34973" lon="4.25908">
        <ele>136.962463</ele>
        <time>2022-03-20T11:17:09Z</time>
      </trkpt>
      <trkpt lat="50.34974" lon="4.25898">
        <ele>137.382355</ele>
        <time>2022-03-20T11:17:11Z</time>
      </trkpt>
      <trkpt lat="50.34975" lon="4.25889">
        <ele>137.642181</ele>
        <time>2022-03-20T11:17:13Z</time>
      </trkpt>
      <trkpt lat="50.34977" lon="4.25883">
        <ele>137.936874</ele>
        <time>2022-03-20T11:17:15Z</time>
      </trkpt>
      <trkpt lat="50.34979" lon="4.2588">
        <ele>138.259125</ele>
        <time>2022-03-20T11:17:17Z</time>
      </trkpt>
      <trkpt lat="50.34979" lon="4.25875">
        <ele>139.016693</ele>
        <time>2022-03-20T11:17:19Z</time>
      </trkpt>
      <trkpt lat="50.34977" lon="4.25873">
        <ele>139.101929</ele>
        <time>2022-03-20T11:17:21Z</time>
      </trkpt>
      <trkpt lat="50.34973" lon="4.25875">
        <ele>139.386749</ele>
        <time>2022-03-20T11:17:23Z</time>
      </trkpt>
      <trkpt lat="50.3497" lon="4.25876">
        <ele>139.58078</ele>
        <time>2022-03-20T11:17:25Z</time>
      </trkpt>
      <trkpt lat="50.34967" lon="4.25873">
        <ele>139.79245</ele>
        <time>2022-03-20T11:17:27Z</time>
      </trkpt>
      <trkpt lat="50.34966" lon="4.25868">
        <ele>140.006439</ele>
        <time>2022-03-20T11:17:29Z</time>
      </trkpt>
      <trkpt lat="50.34964" lon="4.25862">
        <ele>140.184418</ele>
        <time>2022-03-20T11:17:31Z</time>
      </trkpt>
      <trkpt lat="50.34961" lon="4.25855">
        <ele>139.81192</ele>
        <time>2022-03-20T11:17:33Z</time>
      </trkpt>
      <trkpt lat="50.3496" lon="4.25848">
        <ele>139.938629</ele>
        <time>2022-03-20T11:17:35Z</time>
      </trkpt>
      <trkpt lat="50.34959" lon="4.25839">
        <ele>140.144135</ele>
        <time>2022-03-20T11:17:37Z</time>
      </trkpt>
      <trkpt lat="50.34959" lon="4.25833">
        <ele>140.336441</ele>
        <time>2022-03-20T11:17:39Z</time>
      </trkpt>
      <trkpt lat="50.34958" lon="4.25827">
        <ele>140.490646</ele>
        <time>2022-03-20T11:17:41Z</time>
      </trkpt>
      <trkpt lat="50.34958" lon="4.2582">
        <ele>140.61319</ele>
        <time>2022-03-20T11:17:43Z</time>
      </trkpt>
      <trkpt lat="50.34957" lon="4.25815">
        <ele>140.744202</ele>
        <time>2022-03-20T11:17:45Z</time>
      </trkpt>
      <trkpt lat="50.34955" lon="4.25806">
        <ele>140.377792</ele>
        <time>2022-03-20T11:17:47Z</time>
      </trkpt>
      <trkpt lat="50.34953" lon="4.25801">
        <ele>140.538696</ele>
        <time>2022-03-20T11:17:49Z</time>
      </trkpt>
      <trkpt lat="50.34951" lon="4.25793">
        <ele>140.648911</ele>
        <time>2022-03-20T11:17:51Z</time>
      </trkpt>
      <trkpt lat="50.34951" lon="4.25789">
        <ele>140.707153</ele>
        <time>2022-03-20T11:17:52Z</time>
      </trkpt>
      <trkpt lat="50.34949" lon="4.25782">
        <ele>140.790344</ele>
        <time>2022-03-20T11:17:54Z</time>
      </trkpt>
      <trkpt lat="50.34946" lon="4.25773">
        <ele>141.00325</ele>
        <time>2022-03-20T11:17:56Z</time>
      </trkpt>
      <trkpt lat="50.34945" lon="4.25767">
        <ele>141.076096</ele>
        <time>2022-03-20T11:17:58Z</time>
      </trkpt>
      <trkpt lat="50.34944" lon="4.25759">
        <ele>141.21199</ele>
        <time>2022-03-20T11:18:00Z</time>
      </trkpt>
      <trkpt lat="50.34943" lon="4.2575">
        <ele>140.893402</ele>
        <time>2022-03-20T11:18:02Z</time>
      </trkpt>
      <trkpt lat="50.34942" lon="4.25741">
        <ele>140.99324</ele>
        <time>2022-03-20T11:18:04Z</time>
      </trkpt>
      <trkpt lat="50.34939" lon="4.25728">
        <ele>141.1922</ele>
        <time>2022-03-20T11:18:06Z</time>
      </trkpt>
      <trkpt lat="50.34939" lon="4.25722">
        <ele>141.397537</ele>
        <time>2022-03-20T11:18:08Z</time>
      </trkpt>
      <trkpt lat="50.34935" lon="4.2571">
        <ele>141.601364</ele>
        <time>2022-03-20T11:18:10Z</time>
      </trkpt>
      <trkpt lat="50.34933" lon="4.257">
        <ele>141.768585</ele>
        <time>2022-03-20T11:18:12Z</time>
      </trkpt>
      <trkpt lat="50.3493" lon="4.25688">
        <ele>142.52243</ele>
        <time>2022-03-20T11:18:14Z</time>
      </trkpt>
      <trkpt lat="50.34927" lon="4.25679">
        <ele>142.046875</ele>
        <time>2022-03-20T11:18:16Z</time>
      </trkpt>
      <trkpt lat="50.34927" lon="4.25669">
        <ele>142.149139</ele>
        <time>2022-03-20T11:18:18Z</time>
      </trkpt>
      <trkpt lat="50.34926" lon="4.25663">
        <ele>142.279175</ele>
        <time>2022-03-20T11:18:20Z</time>
      </trkpt>
      <trkpt lat="50.34925" lon="4.25654">
        <ele>142.403961</ele>
        <time>2022-03-20T11:18:22Z</time>
      </trkpt>
      <trkpt lat="50.34928" lon="4.25641">
        <ele>142.437561</ele>
        <time>2022-03-20T11:18:24Z</time>
      </trkpt>
      <trkpt lat="50.34932" lon="4.25628">
        <ele>142.491638</ele>
        <time>2022-03-20T11:18:26Z</time>
      </trkpt>
      <trkpt lat="50.34933" lon="4.25619">
        <ele>142.487473</ele>
        <time>2022-03-20T11:18:28Z</time>
      </trkpt>
      <trkpt lat="50.34934" lon="4.25612">
        <ele>142.516739</ele>
        <time>2022-03-20T11:18:30Z</time>
      </trkpt>
      <trkpt lat="50.34937" lon="4.25597">
        <ele>142.475128</ele>
        <time>2022-03-20T11:18:32Z</time>
      </trkpt>
      <trkpt lat="50.34943" lon="4.25583">
        <ele>142.378708</ele>
        <time>2022-03-20T11:18:34Z</time>
      </trkpt>
      <trkpt lat="50.34947" lon="4.25568">
        <ele>142.327179</ele>
        <time>2022-03-20T11:18:36Z</time>
      </trkpt>
      <trkpt lat="50.34948" lon="4.25556">
        <ele>142.24704</ele>
        <time>2022-03-20T11:18:38Z</time>
      </trkpt>
      <trkpt lat="50.3495" lon="4.25551">
        <ele>142.197891</ele>
        <time>2022-03-20T11:18:39Z</time>
      </trkpt>
      <trkpt lat="50.34953" lon="4.25542">
        <ele>141.928757</ele>
        <time>2022-03-20T11:18:41Z</time>
      </trkpt>
      <trkpt lat="50.34955" lon="4.25536">
        <ele>141.770691</ele>
        <time>2022-03-20T11:18:43Z</time>
      </trkpt>
      <trkpt lat="50.34957" lon="4.25533">
        <ele>141.053894</ele>
        <time>2022-03-20T11:18:45Z</time>
      </trkpt>
      <trkpt lat="50.34958" lon="4.25529">
        <ele>140.272629</ele>
        <time>2022-03-20T11:18:47Z</time>
      </trkpt>
      <trkpt lat="50.34958" lon="4.25528">
        <ele>140.119705</ele>
        <time>2022-03-20T11:18:48Z</time>
      </trkpt>
      <trkpt lat="50.34959" lon="4.25522">
        <ele>139.009018</ele>
        <time>2022-03-20T11:18:58Z</time>
      </trkpt>
      <trkpt lat="50.34959" lon="4.2552">
        <ele>138.57692</ele>
        <time>2022-03-20T11:19:00Z</time>
      </trkpt>
      <trkpt lat="50.34959" lon="4.25516">
        <ele>138.16713</ele>
        <time>2022-03-20T11:19:02Z</time>
      </trkpt>
      <trkpt lat="50.34959" lon="4.25512">
        <ele>137.826401</ele>
        <time>2022-03-20T11:19:04Z</time>
      </trkpt>
      <trkpt lat="50.34959" lon="4.25505">
        <ele>136.394806</ele>
        <time>2022-03-20T11:19:12Z</time>
      </trkpt>
      <trkpt lat="50.34961" lon="4.25484">
        <ele>135.927765</ele>
        <time>2022-03-20T11:19:14Z</time>
      </trkpt>
      <trkpt lat="50.34963" lon="4.25477">
        <ele>134.410934</ele>
        <time>2022-03-20T11:19:20Z</time>
      </trkpt>
      <trkpt lat="50.34964" lon="4.25471">
        <ele>133.455811</ele>
        <time>2022-03-20T11:19:24Z</time>
      </trkpt>
      <trkpt lat="50.34964" lon="4.25463">
        <ele>132.819458</ele>
        <time>2022-03-20T11:19:30Z</time>
      </trkpt>
      <trkpt lat="50.34963" lon="4.25456">
        <ele>132.258133</ele>
        <time>2022-03-20T11:19:32Z</time>
      </trkpt>
      <trkpt lat="50.34963" lon="4.25452">
        <ele>131.630707</ele>
        <time>2022-03-20T11:19:34Z</time>
      </trkpt>
      <trkpt lat="50.34964" lon="4.2545">
        <ele>131.112793</ele>
        <time>2022-03-20T11:19:36Z</time>
      </trkpt>
      <trkpt lat="50.34964" lon="4.25441">
        <ele>127.910278</ele>
        <time>2022-03-20T11:19:46Z</time>
      </trkpt>
      <trkpt lat="50.34963" lon="4.25438">
        <ele>127.216164</ele>
        <time>2022-03-20T11:19:48Z</time>
      </trkpt>
      <trkpt lat="50.34962" lon="4.25434">
        <ele>126.894089</ele>
        <time>2022-03-20T11:19:50Z</time>
      </trkpt>
      <trkpt lat="50.34958" lon="4.25421">
        <ele>126.255081</ele>
        <time>2022-03-20T11:19:52Z</time>
      </trkpt>
      <trkpt lat="50.34955" lon="4.25418">
        <ele>124.688156</ele>
        <time>2022-03-20T11:19:56Z</time>
      </trkpt>
      <trkpt lat="50.34952" lon="4.2542">
        <ele>123.358582</ele>
        <time>2022-03-20T11:19:58Z</time>
      </trkpt>
      <trkpt lat="50.3495" lon="4.25424">
        <ele>122.665207</ele>
        <time>2022-03-20T11:20:00Z</time>
      </trkpt>
      <trkpt lat="50.34949" lon="4.2543">
        <ele>121.96151</ele>
        <time>2022-03-20T11:20:02Z</time>
      </trkpt>
      <trkpt lat="50.34946" lon="4.25437">
        <ele>121.180008</ele>
        <time>2022-03-20T11:20:04Z</time>
      </trkpt>
      <trkpt lat="50.34945" lon="4.2544">
        <ele>120.837509</ele>
        <time>2022-03-20T11:20:05Z</time>
      </trkpt>
      <trkpt lat="50.34941" lon="4.25446">
        <ele>120.158798</ele>
        <time>2022-03-20T11:20:07Z</time>
      </trkpt>
      <trkpt lat="50.34938" lon="4.25453">
        <ele>119.428238</ele>
        <time>2022-03-20T11:20:09Z</time>
      </trkpt>
      <trkpt lat="50.34935" lon="4.25463">
        <ele>118.763084</ele>
        <time>2022-03-20T11:20:11Z</time>
      </trkpt>
      <trkpt lat="50.3493" lon="4.25473">
        <ele>117.935349</ele>
        <time>2022-03-20T11:20:13Z</time>
      </trkpt>
      <trkpt lat="50.34925" lon="4.25484">
        <ele>117.313622</ele>
        <time>2022-03-20T11:20:15Z</time>
      </trkpt>
      <trkpt lat="50.3492" lon="4.25495">
        <ele>116.527725</ele>
        <time>2022-03-20T11:20:17Z</time>
      </trkpt>
      <trkpt lat="50.34915" lon="4.25503">
        <ele>116.19989</ele>
        <time>2022-03-20T11:20:19Z</time>
      </trkpt>
      <trkpt lat="50.34909" lon="4.25513">
        <ele>115.225685</ele>
        <time>2022-03-20T11:20:21Z</time>
      </trkpt>
      <trkpt lat="50.34902" lon="4.25521">
        <ele>114.860558</ele>
        <time>2022-03-20T11:20:23Z</time>
      </trkpt>
      <trkpt lat="50.34895" lon="4.2553">
        <ele>114.217422</ele>
        <time>2022-03-20T11:20:25Z</time>
      </trkpt>
      <trkpt lat="50.34889" lon="4.25538">
        <ele>113.611671</ele>
        <time>2022-03-20T11:20:27Z</time>
      </trkpt>
      <trkpt lat="50.3488" lon="4.25545">
        <ele>113.034973</ele>
        <time>2022-03-20T11:20:29Z</time>
      </trkpt>
      <trkpt lat="50.34874" lon="4.25556">
        <ele>112.428795</ele>
        <time>2022-03-20T11:20:31Z</time>
      </trkpt>
      <trkpt lat="50.34868" lon="4.25565">
        <ele>111.868027</ele>
        <time>2022-03-20T11:20:33Z</time>
      </trkpt>
      <trkpt lat="50.3486" lon="4.25571">
        <ele>111.399338</ele>
        <time>2022-03-20T11:20:35Z</time>
      </trkpt>
      <trkpt lat="50.3485" lon="4.25574">
        <ele>110.970016</ele>
        <time>2022-03-20T11:20:37Z</time>
      </trkpt>
      <trkpt lat="50.34842" lon="4.25575">
        <ele>111.110756</ele>
        <time>2022-03-20T11:20:39Z</time>
      </trkpt>
      <trkpt lat="50.34831" lon="4.25577">
        <ele>110.74369</ele>
        <time>2022-03-20T11:20:41Z</time>
      </trkpt>
      <trkpt lat="50.34821" lon="4.25581">
        <ele>110.498978</ele>
        <time>2022-03-20T11:20:43Z</time>
      </trkpt>
      <trkpt lat="50.3481" lon="4.25581">
        <ele>110.221092</ele>
        <time>2022-03-20T11:20:45Z</time>
      </trkpt>
      <trkpt lat="50.34799" lon="4.25583">
        <ele>109.94944</ele>
        <time>2022-03-20T11:20:47Z</time>
      </trkpt>
      <trkpt lat="50.34788" lon="4.25585">
        <ele>109.7939</ele>
        <time>2022-03-20T11:20:49Z</time>
      </trkpt>
      <trkpt lat="50.34776" lon="4.25586">
        <ele>109.54924</ele>
        <time>2022-03-20T11:20:51Z</time>
      </trkpt>
      <trkpt lat="50.34763" lon="4.25589">
        <ele>109.388184</ele>
        <time>2022-03-20T11:20:53Z</time>
      </trkpt>
      <trkpt lat="50.34752" lon="4.25593">
        <ele>109.277489</ele>
        <time>2022-03-20T11:20:55Z</time>
      </trkpt>
      <trkpt lat="50.34741" lon="4.25599">
        <ele>109.316895</ele>
        <time>2022-03-20T11:20:57Z</time>
      </trkpt>
      <trkpt lat="50.34729" lon="4.25608">
        <ele>109.267136</ele>
        <time>2022-03-20T11:20:59Z</time>
      </trkpt>
      <trkpt lat="50.34718" lon="4.25618">
        <ele>109.161377</ele>
        <time>2022-03-20T11:21:01Z</time>
      </trkpt>
      <trkpt lat="50.34707" lon="4.25628">
        <ele>109.138573</ele>
        <time>2022-03-20T11:21:03Z</time>
      </trkpt>
      <trkpt lat="50.34697" lon="4.25636">
        <ele>109.244308</ele>
        <time>2022-03-20T11:21:05Z</time>
      </trkpt>
      <trkpt lat="50.34687" lon="4.25646">
        <ele>109.238281</ele>
        <time>2022-03-20T11:21:07Z</time>
      </trkpt>
      <trkpt lat="50.34677" lon="4.25655">
        <ele>109.298904</ele>
        <time>2022-03-20T11:21:09Z</time>
      </trkpt>
      <trkpt lat="50.34668" lon="4.25669">
        <ele>109.30928</ele>
        <time>2022-03-20T11:21:11Z</time>
      </trkpt>
      <trkpt lat="50.34659" lon="4.25684">
        <ele>109.450272</ele>
        <time>2022-03-20T11:21:13Z</time>
      </trkpt>
      <trkpt lat="50.34648" lon="4.25697">
        <ele>109.616257</ele>
        <time>2022-03-20T11:21:15Z</time>
      </trkpt>
      <trkpt lat="50.34638" lon="4.2571">
        <ele>109.757225</ele>
        <time>2022-03-20T11:21:17Z</time>
      </trkpt>
      <trkpt lat="50.34633" lon="4.25717">
        <ele>109.811134</ele>
        <time>2022-03-20T11:21:18Z</time>
      </trkpt>
      <trkpt lat="50.34624" lon="4.25729">
        <ele>109.988991</ele>
        <time>2022-03-20T11:21:20Z</time>
      </trkpt>
      <trkpt lat="50.34615" lon="4.2574">
        <ele>110.105103</ele>
        <time>2022-03-20T11:21:22Z</time>
      </trkpt>
      <trkpt lat="50.34607" lon="4.25751">
        <ele>110.150757</ele>
        <time>2022-03-20T11:21:24Z</time>
      </trkpt>
      <trkpt lat="50.346" lon="4.25762">
        <ele>110.219193</ele>
        <time>2022-03-20T11:21:26Z</time>
      </trkpt>
      <trkpt lat="50.34592" lon="4.25774">
        <ele>110.331161</ele>
        <time>2022-03-20T11:21:28Z</time>
      </trkpt>
      <trkpt lat="50.34585" lon="4.25786">
        <ele>110.387146</ele>
        <time>2022-03-20T11:21:30Z</time>
      </trkpt>
      <trkpt lat="50.34578" lon="4.258">
        <ele>110.4431</ele>
        <time>2022-03-20T11:21:32Z</time>
      </trkpt>
      <trkpt lat="50.34571" lon="4.25814">
        <ele>110.426514</ele>
        <time>2022-03-20T11:21:34Z</time>
      </trkpt>
      <trkpt lat="50.34565" lon="4.25828">
        <ele>110.360497</ele>
        <time>2022-03-20T11:21:36Z</time>
      </trkpt>
      <trkpt lat="50.34559" lon="4.25843">
        <ele>110.33976</ele>
        <time>2022-03-20T11:21:38Z</time>
      </trkpt>
      <trkpt lat="50.34554" lon="4.25859">
        <ele>110.287918</ele>
        <time>2022-03-20T11:21:40Z</time>
      </trkpt>
      <trkpt lat="50.3455" lon="4.25875">
        <ele>110.304489</ele>
        <time>2022-03-20T11:21:42Z</time>
      </trkpt>
      <trkpt lat="50.34547" lon="4.25891">
        <ele>110.269249</ele>
        <time>2022-03-20T11:21:44Z</time>
      </trkpt>
      <trkpt lat="50.34545" lon="4.25906">
        <ele>110.254738</ele>
        <time>2022-03-20T11:21:46Z</time>
      </trkpt>
      <trkpt lat="50.34544" lon="4.25922">
        <ele>110.302246</ele>
        <time>2022-03-20T11:21:48Z</time>
      </trkpt>
      <trkpt lat="50.34542" lon="4.25939">
        <ele>110.245766</ele>
        <time>2022-03-20T11:21:50Z</time>
      </trkpt>
      <trkpt lat="50.34541" lon="4.25956">
        <ele>110.193932</ele>
        <time>2022-03-20T11:21:52Z</time>
      </trkpt>
      <trkpt lat="50.34541" lon="4.25973">
        <ele>110.08403</ele>
        <time>2022-03-20T11:21:54Z</time>
      </trkpt>
      <trkpt lat="50.3454" lon="4.25989">
        <ele>109.974037</ele>
        <time>2022-03-20T11:21:56Z</time>
      </trkpt>
      <trkpt lat="50.3454" lon="4.26006">
        <ele>109.947083</ele>
        <time>2022-03-20T11:21:58Z</time>
      </trkpt>
      <trkpt lat="50.34539" lon="4.26023">
        <ele>109.881187</ele>
        <time>2022-03-20T11:22:00Z</time>
      </trkpt>
      <trkpt lat="50.34539" lon="4.26041">
        <ele>109.850075</ele>
        <time>2022-03-20T11:22:02Z</time>
      </trkpt>
      <trkpt lat="50.34539" lon="4.26058">
        <ele>109.821045</ele>
        <time>2022-03-20T11:22:04Z</time>
      </trkpt>
      <trkpt lat="50.34539" lon="4.26076">
        <ele>109.79612</ele>
        <time>2022-03-20T11:22:06Z</time>
      </trkpt>
      <trkpt lat="50.34538" lon="4.26094">
        <ele>109.8293</ele>
        <time>2022-03-20T11:22:08Z</time>
      </trkpt>
      <trkpt lat="50.34538" lon="4.26112">
        <ele>109.801437</ele>
        <time>2022-03-20T11:22:10Z</time>
      </trkpt>
      <trkpt lat="50.34536" lon="4.26129">
        <ele>109.803627</ele>
        <time>2022-03-20T11:22:12Z</time>
      </trkpt>
      <trkpt lat="50.34535" lon="4.26147">
        <ele>109.810219</ele>
        <time>2022-03-20T11:22:14Z</time>
      </trkpt>
      <trkpt lat="50.34533" lon="4.26164">
        <ele>109.891075</ele>
        <time>2022-03-20T11:22:16Z</time>
      </trkpt>
      <trkpt lat="50.3453" lon="4.26181">
        <ele>109.928391</ele>
        <time>2022-03-20T11:22:18Z</time>
      </trkpt>
      <trkpt lat="50.34529" lon="4.26197">
        <ele>110.025841</ele>
        <time>2022-03-20T11:22:20Z</time>
      </trkpt>
      <trkpt lat="50.34525" lon="4.26212">
        <ele>110.077682</ele>
        <time>2022-03-20T11:22:22Z</time>
      </trkpt>
      <trkpt lat="50.34523" lon="4.26228">
        <ele>110.154404</ele>
        <time>2022-03-20T11:22:24Z</time>
      </trkpt>
      <trkpt lat="50.3452" lon="4.26244">
        <ele>110.231117</ele>
        <time>2022-03-20T11:22:26Z</time>
      </trkpt>
      <trkpt lat="50.34518" lon="4.26259">
        <ele>110.218674</ele>
        <time>2022-03-20T11:22:28Z</time>
      </trkpt>
      <trkpt lat="50.34516" lon="4.26275">
        <ele>110.276733</ele>
        <time>2022-03-20T11:22:30Z</time>
      </trkpt>
      <trkpt lat="50.34512" lon="4.26292">
        <ele>110.432251</ele>
        <time>2022-03-20T11:22:32Z</time>
      </trkpt>
      <trkpt lat="50.3451" lon="4.2631">
        <ele>110.581528</ele>
        <time>2022-03-20T11:22:34Z</time>
      </trkpt>
      <trkpt lat="50.34507" lon="4.26327">
        <ele>110.658249</ele>
        <time>2022-03-20T11:22:36Z</time>
      </trkpt>
      <trkpt lat="50.34504" lon="4.26344">
        <ele>110.693497</ele>
        <time>2022-03-20T11:22:38Z</time>
      </trkpt>
      <trkpt lat="50.34502" lon="4.26362">
        <ele>110.732895</ele>
        <time>2022-03-20T11:22:40Z</time>
      </trkpt>
      <trkpt lat="50.34502" lon="4.26379">
        <ele>110.869766</ele>
        <time>2022-03-20T11:22:42Z</time>
      </trkpt>
      <trkpt lat="50.34501" lon="4.26396">
        <ele>110.890503</ele>
        <time>2022-03-20T11:22:44Z</time>
      </trkpt>
      <trkpt lat="50.34501" lon="4.26413">
        <ele>110.994186</ele>
        <time>2022-03-20T11:22:46Z</time>
      </trkpt>
      <trkpt lat="50.34498" lon="4.26431">
        <ele>111.038879</ele>
        <time>2022-03-20T11:22:48Z</time>
      </trkpt>
      <trkpt lat="50.34497" lon="4.26444">
        <ele>111.176636</ele>
        <time>2022-03-20T11:22:50Z</time>
      </trkpt>
      <trkpt lat="50.34496" lon="4.26455">
        <ele>111.261551</ele>
        <time>2022-03-20T11:22:52Z</time>
      </trkpt>
      <trkpt lat="50.34494" lon="4.26464">
        <ele>111.398621</ele>
        <time>2022-03-20T11:22:54Z</time>
      </trkpt>
      <trkpt lat="50.34489" lon="4.2647">
        <ele>111.456322</ele>
        <time>2022-03-20T11:22:56Z</time>
      </trkpt>
      <trkpt lat="50.34483" lon="4.26468">
        <ele>111.547562</ele>
        <time>2022-03-20T11:22:58Z</time>
      </trkpt>
      <trkpt lat="50.34476" lon="4.26464">
        <ele>111.696854</ele>
        <time>2022-03-20T11:23:00Z</time>
      </trkpt>
      <trkpt lat="50.34468" lon="4.2646">
        <ele>111.83374</ele>
        <time>2022-03-20T11:23:02Z</time>
      </trkpt>
      <trkpt lat="50.34461" lon="4.26456">
        <ele>111.941574</ele>
        <time>2022-03-20T11:23:04Z</time>
      </trkpt>
      <trkpt lat="50.34457" lon="4.26454">
        <ele>112.022461</ele>
        <time>2022-03-20T11:23:05Z</time>
      </trkpt>
      <trkpt lat="50.34449" lon="4.26449">
        <ele>112.142746</ele>
        <time>2022-03-20T11:23:07Z</time>
      </trkpt>
      <trkpt lat="50.34444" lon="4.26446">
        <ele>112.240234</ele>
        <time>2022-03-20T11:23:08Z</time>
      </trkpt>
      <trkpt lat="50.34435" lon="4.26441">
        <ele>112.321091</ele>
        <time>2022-03-20T11:23:10Z</time>
      </trkpt>
      <trkpt lat="50.34427" lon="4.26436">
        <ele>112.412354</ele>
        <time>2022-03-20T11:23:12Z</time>
      </trkpt>
      <trkpt lat="50.34419" lon="4.26431">
        <ele>112.42894</ele>
        <time>2022-03-20T11:23:14Z</time>
      </trkpt>
      <trkpt lat="50.34416" lon="4.26418">
        <ele>112.482864</ele>
        <time>2022-03-20T11:23:16Z</time>
      </trkpt>
      <trkpt lat="50.3442" lon="4.26408">
        <ele>112.538864</ele>
        <time>2022-03-20T11:23:18Z</time>
      </trkpt>
      <trkpt lat="50.34424" lon="4.26398">
        <ele>112.613754</ele>
        <time>2022-03-20T11:23:20Z</time>
      </trkpt>
      <trkpt lat="50.34428" lon="4.26389">
        <ele>112.715378</ele>
        <time>2022-03-20T11:23:22Z</time>
      </trkpt>
      <trkpt lat="50.34433" lon="4.26383">
        <ele>112.785889</ele>
        <time>2022-03-20T11:23:24Z</time>
      </trkpt>
      <trkpt lat="50.34439" lon="4.26383">
        <ele>112.850182</ele>
        <time>2022-03-20T11:23:26Z</time>
      </trkpt>
      <trkpt lat="50.34445" lon="4.26381">
        <ele>112.91024</ele>
        <time>2022-03-20T11:23:28Z</time>
      </trkpt>
      <trkpt lat="50.3445" lon="4.26372">
        <ele>112.908569</ele>
        <time>2022-03-20T11:23:30Z</time>
      </trkpt>
      <trkpt lat="50.34452" lon="4.26366">
        <ele>112.879532</ele>
        <time>2022-03-20T11:23:31Z</time>
      </trkpt>
      <trkpt lat="50.34457" lon="4.26353">
        <ele>112.850502</ele>
        <time>2022-03-20T11:23:33Z</time>
      </trkpt>
      <trkpt lat="50.34461" lon="4.26342">
        <ele>112.821251</ele>
        <time>2022-03-20T11:23:35Z</time>
      </trkpt>
      <trkpt lat="50.34465" lon="4.26339">
        <ele>112.911171</ele>
        <time>2022-03-20T11:23:37Z</time>
      </trkpt>
      <trkpt lat="50.34467" lon="4.26344">
        <ele>112.900803</ele>
        <time>2022-03-20T11:23:39Z</time>
      </trkpt>
      <trkpt lat="50.34465" lon="4.26353">
        <ele>112.884216</ele>
        <time>2022-03-20T11:23:41Z</time>
      </trkpt>
      <trkpt lat="50.34464" lon="4.26364">
        <ele>112.87384</ele>
        <time>2022-03-20T11:23:43Z</time>
      </trkpt>
      <trkpt lat="50.34463" lon="4.2637">
        <ele>112.821999</ele>
        <time>2022-03-20T11:23:44Z</time>
      </trkpt>
      <trkpt lat="50.3446" lon="4.26382">
        <ele>112.779053</ele>
        <time>2022-03-20T11:23:46Z</time>
      </trkpt>
      <trkpt lat="50.34457" lon="4.26394">
        <ele>112.737465</ele>
        <time>2022-03-20T11:23:48Z</time>
      </trkpt>
      <trkpt lat="50.34453" lon="4.26404">
        <ele>112.660728</ele>
        <time>2022-03-20T11:23:50Z</time>
      </trkpt>
      <trkpt lat="50.3445" lon="4.26415">
        <ele>112.587547</ele>
        <time>2022-03-20T11:23:52Z</time>
      </trkpt>
      <trkpt lat="50.34449" lon="4.26427">
        <ele>112.456886</ele>
        <time>2022-03-20T11:23:54Z</time>
      </trkpt>
      <trkpt lat="50.34448" lon="4.26438">
        <ele>112.41481</ele>
        <time>2022-03-20T11:23:56Z</time>
      </trkpt>
      <trkpt lat="50.34446" lon="4.26449">
        <ele>112.384911</ele>
        <time>2022-03-20T11:23:58Z</time>
      </trkpt>
      <trkpt lat="50.34443" lon="4.2646">
        <ele>112.295731</ele>
        <time>2022-03-20T11:24:00Z</time>
      </trkpt>
      <trkpt lat="50.3444" lon="4.2647">
        <ele>112.18351</ele>
        <time>2022-03-20T11:24:02Z</time>
      </trkpt>
      <trkpt lat="50.34436" lon="4.26478">
        <ele>112.077988</ele>
        <time>2022-03-20T11:24:04Z</time>
      </trkpt>
      <trkpt lat="50.34429" lon="4.26478">
        <ele>111.856102</ele>
        <time>2022-03-20T11:24:06Z</time>
      </trkpt>
      <trkpt lat="50.34423" lon="4.26472">
        <ele>111.694359</ele>
        <time>2022-03-20T11:24:08Z</time>
      </trkpt>
      <trkpt lat="50.34417" lon="4.26466">
        <ele>111.606201</ele>
        <time>2022-03-20T11:24:10Z</time>
      </trkpt>
      <trkpt lat="50.34412" lon="4.26464">
        <ele>111.516624</ele>
        <time>2022-03-20T11:24:12Z</time>
      </trkpt>
      <trkpt lat="50.34408" lon="4.26469">
        <ele>111.514549</ele>
        <time>2022-03-20T11:24:14Z</time>
      </trkpt>
      <trkpt lat="50.34407" lon="4.26477">
        <ele>111.477234</ele>
        <time>2022-03-20T11:24:16Z</time>
      </trkpt>
      <trkpt lat="50.34404" lon="4.26488">
        <ele>111.437828</ele>
        <time>2022-03-20T11:24:18Z</time>
      </trkpt>
      <trkpt lat="50.34401" lon="4.26499">
        <ele>111.356979</ele>
        <time>2022-03-20T11:24:20Z</time>
      </trkpt>
      <trkpt lat="50.34397" lon="4.26512">
        <ele>111.316833</ele>
        <time>2022-03-20T11:24:22Z</time>
      </trkpt>
      <trkpt lat="50.34394" lon="4.26525">
        <ele>111.318909</ele>
        <time>2022-03-20T11:24:24Z</time>
      </trkpt>
      <trkpt lat="50.34391" lon="4.26539">
        <ele>111.277428</ele>
        <time>2022-03-20T11:24:26Z</time>
      </trkpt>
      <trkpt lat="50.34387" lon="4.26552">
        <ele>111.22496</ele>
        <time>2022-03-20T11:24:28Z</time>
      </trkpt>
      <trkpt lat="50.34382" lon="4.26566">
        <ele>111.169083</ele>
        <time>2022-03-20T11:24:30Z</time>
      </trkpt>
      <trkpt lat="50.34379" lon="4.26572">
        <ele>111.193954</ele>
        <time>2022-03-20T11:24:31Z</time>
      </trkpt>
      <trkpt lat="50.34375" lon="4.26585">
        <ele>111.18895</ele>
        <time>2022-03-20T11:24:33Z</time>
      </trkpt>
      <trkpt lat="50.34371" lon="4.26597">
        <ele>111.215904</ele>
        <time>2022-03-20T11:24:35Z</time>
      </trkpt>
      <trkpt lat="50.34366" lon="4.26609">
        <ele>111.26033</ele>
        <time>2022-03-20T11:24:37Z</time>
      </trkpt>
      <trkpt lat="50.3436" lon="4.2662">
        <ele>111.281937</ele>
        <time>2022-03-20T11:24:39Z</time>
      </trkpt>
      <trkpt lat="50.34355" lon="4.26631">
        <ele>111.321335</ele>
        <time>2022-03-20T11:24:41Z</time>
      </trkpt>
      <trkpt lat="50.34351" lon="4.26643">
        <ele>111.362816</ele>
        <time>2022-03-20T11:24:43Z</time>
      </trkpt>
      <trkpt lat="50.34346" lon="4.26654">
        <ele>111.450806</ele>
        <time>2022-03-20T11:24:45Z</time>
      </trkpt>
      <trkpt lat="50.3434" lon="4.26666">
        <ele>111.459312</ele>
        <time>2022-03-20T11:24:47Z</time>
      </trkpt>
      <trkpt lat="50.34335" lon="4.26676">
        <ele>111.565041</ele>
        <time>2022-03-20T11:24:49Z</time>
      </trkpt>
      <trkpt lat="50.34331" lon="4.26688">
        <ele>111.585777</ele>
        <time>2022-03-20T11:24:51Z</time>
      </trkpt>
      <trkpt lat="50.34326" lon="4.26698">
        <ele>111.610657</ele>
        <time>2022-03-20T11:24:53Z</time>
      </trkpt>
      <trkpt lat="50.3432" lon="4.26708">
        <ele>111.604446</ele>
        <time>2022-03-20T11:24:55Z</time>
      </trkpt>
      <trkpt lat="50.34314" lon="4.26717">
        <ele>111.608597</ele>
        <time>2022-03-20T11:24:57Z</time>
      </trkpt>
      <trkpt lat="50.34307" lon="4.26725">
        <ele>111.643845</ele>
        <time>2022-03-20T11:24:59Z</time>
      </trkpt>
      <trkpt lat="50.34301" lon="4.26734">
        <ele>111.620262</ele>
        <time>2022-03-20T11:25:01Z</time>
      </trkpt>
      <trkpt lat="50.34294" lon="4.26741">
        <ele>111.591965</ele>
        <time>2022-03-20T11:25:03Z</time>
      </trkpt>
      <trkpt lat="50.34286" lon="4.26748">
        <ele>111.492432</ele>
        <time>2022-03-20T11:25:05Z</time>
      </trkpt>
      <trkpt lat="50.3428" lon="4.26756">
        <ele>111.488281</ele>
        <time>2022-03-20T11:25:07Z</time>
      </trkpt>
      <trkpt lat="50.34275" lon="4.26764">
        <ele>111.459251</ele>
        <time>2022-03-20T11:25:09Z</time>
      </trkpt>
      <trkpt lat="50.34268" lon="4.26772">
        <ele>111.471703</ele>
        <time>2022-03-20T11:25:11Z</time>
      </trkpt>
      <trkpt lat="50.34261" lon="4.26781">
        <ele>111.390846</ele>
        <time>2022-03-20T11:25:13Z</time>
      </trkpt>
      <trkpt lat="50.34254" lon="4.2679">
        <ele>111.297928</ele>
        <time>2022-03-20T11:25:15Z</time>
      </trkpt>
      <trkpt lat="50.34247" lon="4.26799">
        <ele>111.270729</ele>
        <time>2022-03-20T11:25:17Z</time>
      </trkpt>
      <trkpt lat="50.3424" lon="4.26808">
        <ele>111.25193</ele>
        <time>2022-03-20T11:25:19Z</time>
      </trkpt>
      <trkpt lat="50.34234" lon="4.26817">
        <ele>111.245705</ele>
        <time>2022-03-20T11:25:21Z</time>
      </trkpt>
      <trkpt lat="50.34226" lon="4.26826">
        <ele>111.204269</ele>
        <time>2022-03-20T11:25:23Z</time>
      </trkpt>
      <trkpt lat="50.34219" lon="4.26835">
        <ele>111.158081</ele>
        <time>2022-03-20T11:25:25Z</time>
      </trkpt>
      <trkpt lat="50.34213" lon="4.26843">
        <ele>111.004173</ele>
        <time>2022-03-20T11:25:27Z</time>
      </trkpt>
      <trkpt lat="50.34207" lon="4.26852">
        <ele>110.968948</ele>
        <time>2022-03-20T11:25:29Z</time>
      </trkpt>
      <trkpt lat="50.34201" lon="4.26861">
        <ele>111.029076</ele>
        <time>2022-03-20T11:25:31Z</time>
      </trkpt>
      <trkpt lat="50.34197" lon="4.26872">
        <ele>110.970619</ele>
        <time>2022-03-20T11:25:33Z</time>
      </trkpt>
      <trkpt lat="50.34193" lon="4.26883">
        <ele>110.997574</ele>
        <time>2022-03-20T11:25:35Z</time>
      </trkpt>
      <trkpt lat="50.34188" lon="4.26893">
        <ele>111.02578</ele>
        <time>2022-03-20T11:25:37Z</time>
      </trkpt>
      <trkpt lat="50.34184" lon="4.26904">
        <ele>111.002975</ele>
        <time>2022-03-20T11:25:39Z</time>
      </trkpt>
      <trkpt lat="50.34179" lon="4.26914">
        <ele>110.899307</ele>
        <time>2022-03-20T11:25:41Z</time>
      </trkpt>
      <trkpt lat="50.34175" lon="4.26925">
        <ele>110.924179</ele>
        <time>2022-03-20T11:25:43Z</time>
      </trkpt>
      <trkpt lat="50.34171" lon="4.26935">
        <ele>110.928329</ele>
        <time>2022-03-20T11:25:45Z</time>
      </trkpt>
      <trkpt lat="50.34167" lon="4.26946">
        <ele>110.857826</ele>
        <time>2022-03-20T11:25:47Z</time>
      </trkpt>
      <trkpt lat="50.34163" lon="4.26957">
        <ele>110.799767</ele>
        <time>2022-03-20T11:25:49Z</time>
      </trkpt>
      <trkpt lat="50.34158" lon="4.26968">
        <ele>110.818436</ele>
        <time>2022-03-20T11:25:51Z</time>
      </trkpt>
      <trkpt lat="50.34155" lon="4.26979">
        <ele>110.697266</ele>
        <time>2022-03-20T11:25:53Z</time>
      </trkpt>
      <trkpt lat="50.3415" lon="4.2699">
        <ele>110.751137</ele>
        <time>2022-03-20T11:25:55Z</time>
      </trkpt>
      <trkpt lat="50.34146" lon="4.27">
        <ele>110.762733</ele>
        <time>2022-03-20T11:25:57Z</time>
      </trkpt>
      <trkpt lat="50.34142" lon="4.2701">
        <ele>110.580246</ele>
        <time>2022-03-20T11:25:59Z</time>
      </trkpt>
      <trkpt lat="50.34139" lon="4.2702">
        <ele>110.522316</ele>
        <time>2022-03-20T11:26:01Z</time>
      </trkpt>
      <trkpt lat="50.34136" lon="4.27029">
        <ele>110.468361</ele>
        <time>2022-03-20T11:26:03Z</time>
      </trkpt>
      <trkpt lat="50.34133" lon="4.27036">
        <ele>110.472511</ele>
        <time>2022-03-20T11:26:05Z</time>
      </trkpt>
      <trkpt lat="50.34131" lon="4.27043">
        <ele>110.534714</ele>
        <time>2022-03-20T11:26:07Z</time>
      </trkpt>
      <trkpt lat="50.34129" lon="4.27048">
        <ele>110.667419</ele>
        <time>2022-03-20T11:26:09Z</time>
      </trkpt>
      <trkpt lat="50.34128" lon="4.27051">
        <ele>110.643127</ele>
        <time>2022-03-20T11:26:11Z</time>
      </trkpt>
      <trkpt lat="50.34126" lon="4.27055">
        <ele>110.705345</ele>
        <time>2022-03-20T11:26:13Z</time>
      </trkpt>
      <trkpt lat="50.34126" lon="4.27059">
        <ele>110.757591</ele>
        <time>2022-03-20T11:26:15Z</time>
      </trkpt>
      <trkpt lat="50.34124" lon="4.27061">
        <ele>110.741356</ele>
        <time>2022-03-20T11:26:16Z</time>
      </trkpt>
      <trkpt lat="50.34122" lon="4.27064">
        <ele>110.743614</ele>
        <time>2022-03-20T11:26:18Z</time>
      </trkpt>
      <trkpt lat="50.34121" lon="4.27068">
        <ele>110.784378</ele>
        <time>2022-03-20T11:26:20Z</time>
      </trkpt>
      <trkpt lat="50.34118" lon="4.27072">
        <ele>110.855125</ele>
        <time>2022-03-20T11:26:22Z</time>
      </trkpt>
      <trkpt lat="50.34116" lon="4.27077">
        <ele>111.052147</ele>
        <time>2022-03-20T11:26:24Z</time>
      </trkpt>
      <trkpt lat="50.34116" lon="4.2708">
        <ele>111.147545</ele>
        <time>2022-03-20T11:26:26Z</time>
      </trkpt>
      <trkpt lat="50.34115" lon="4.27083">
        <ele>111.346634</ele>
        <time>2022-03-20T11:26:28Z</time>
      </trkpt>
      <trkpt lat="50.34115" lon="4.27085">
        <ele>111.597557</ele>
        <time>2022-03-20T11:26:30Z</time>
      </trkpt>
      <trkpt lat="50.34116" lon="4.27089">
        <ele>111.732376</ele>
        <time>2022-03-20T11:26:32Z</time>
      </trkpt>
      <trkpt lat="50.34114" lon="4.27091">
        <ele>111.943321</ele>
        <time>2022-03-20T11:26:34Z</time>
      </trkpt>
      <trkpt lat="50.34114" lon="4.27092">
        <ele>112.31443</ele>
        <time>2022-03-20T11:26:38Z</time>
      </trkpt>
      <trkpt lat="50.34113" lon="4.27094">
        <ele>112.633774</ele>
        <time>2022-03-20T11:26:40Z</time>
      </trkpt>
      <trkpt lat="50.3411" lon="4.27103">
        <ele>114.0811</ele>
        <time>2022-03-20T11:26:52Z</time>
      </trkpt>
      <trkpt lat="50.34108" lon="4.27107">
        <ele>114.888084</ele>
        <time>2022-03-20T11:26:54Z</time>
      </trkpt>
      <trkpt lat="50.34107" lon="4.27114">
        <ele>115.197266</ele>
        <time>2022-03-20T11:26:56Z</time>
      </trkpt>
      <trkpt lat="50.34106" lon="4.27116">
        <ele>115.505997</ele>
        <time>2022-03-20T11:26:58Z</time>
      </trkpt>
      <trkpt lat="50.34105" lon="4.27118">
        <ele>115.821938</ele>
        <time>2022-03-20T11:27:00Z</time>
      </trkpt>
      <trkpt lat="50.34105" lon="4.2712">
        <ele>116.17926</ele>
        <time>2022-03-20T11:27:02Z</time>
      </trkpt>
      <trkpt lat="50.34104" lon="4.27122">
        <ele>116.484024</ele>
        <time>2022-03-20T11:27:04Z</time>
      </trkpt>
      <trkpt lat="50.34104" lon="4.27123">
        <ele>116.780701</ele>
        <time>2022-03-20T11:27:06Z</time>
      </trkpt>
      <trkpt lat="50.34103" lon="4.27125">
        <ele>117.096359</ele>
        <time>2022-03-20T11:27:08Z</time>
      </trkpt>
      <trkpt lat="50.341" lon="4.27126">
        <ele>117.397217</ele>
        <time>2022-03-20T11:27:10Z</time>
      </trkpt>
      <trkpt lat="50.341" lon="4.27128">
        <ele>117.700157</ele>
        <time>2022-03-20T11:27:12Z</time>
      </trkpt>
      <trkpt lat="50.341" lon="4.2713">
        <ele>118.05851</ele>
        <time>2022-03-20T11:27:14Z</time>
      </trkpt>
      <trkpt lat="50.34099" lon="4.27134">
        <ele>118.378036</ele>
        <time>2022-03-20T11:27:16Z</time>
      </trkpt>
      <trkpt lat="50.34099" lon="4.27136">
        <ele>118.774391</ele>
        <time>2022-03-20T11:27:18Z</time>
      </trkpt>
      <trkpt lat="50.341" lon="4.27139">
        <ele>119.137527</ele>
        <time>2022-03-20T11:27:20Z</time>
      </trkpt>
      <trkpt lat="50.341" lon="4.27143">
        <ele>119.392761</ele>
        <time>2022-03-20T11:27:22Z</time>
      </trkpt>
      <trkpt lat="50.34101" lon="4.27148">
        <ele>119.910645</ele>
        <time>2022-03-20T11:27:26Z</time>
      </trkpt>
      <trkpt lat="50.34102" lon="4.27151">
        <ele>120.23024</ele>
        <time>2022-03-20T11:27:28Z</time>
      </trkpt>
      <trkpt lat="50.34102" lon="4.27154">
        <ele>120.570618</ele>
        <time>2022-03-20T11:27:30Z</time>
      </trkpt>
      <trkpt lat="50.34102" lon="4.27156">
        <ele>120.856361</ele>
        <time>2022-03-20T11:27:32Z</time>
      </trkpt>
      <trkpt lat="50.34102" lon="4.27157">
        <ele>120.642845</ele>
        <time>2022-03-20T11:27:34Z</time>
      </trkpt>
      <trkpt lat="50.34102" lon="4.27159">
        <ele>120.957336</ele>
        <time>2022-03-20T11:27:36Z</time>
      </trkpt>
      <trkpt lat="50.34102" lon="4.27161">
        <ele>121.217148</ele>
        <time>2022-03-20T11:27:38Z</time>
      </trkpt>
      <trkpt lat="50.34102" lon="4.27164">
        <ele>121.584572</ele>
        <time>2022-03-20T11:27:40Z</time>
      </trkpt>
      <trkpt lat="50.34103" lon="4.27168">
        <ele>121.896164</ele>
        <time>2022-03-20T11:27:42Z</time>
      </trkpt>
      <trkpt lat="50.34103" lon="4.27171">
        <ele>122.222084</ele>
        <time>2022-03-20T11:27:44Z</time>
      </trkpt>
      <trkpt lat="50.34103" lon="4.27174">
        <ele>122.511353</ele>
        <time>2022-03-20T11:27:46Z</time>
      </trkpt>
      <trkpt lat="50.34103" lon="4.27175">
        <ele>122.671188</ele>
        <time>2022-03-20T11:27:47Z</time>
      </trkpt>
      <trkpt lat="50.34103" lon="4.27178">
        <ele>123.027969</ele>
        <time>2022-03-20T11:27:49Z</time>
      </trkpt>
      <trkpt lat="50.34104" lon="4.2718">
        <ele>123.185753</ele>
        <time>2022-03-20T11:27:51Z</time>
      </trkpt>
      <trkpt lat="50.34104" lon="4.27183">
        <ele>123.666542</ele>
        <time>2022-03-20T11:27:54Z</time>
      </trkpt>
      <trkpt lat="50.34103" lon="4.27189">
        <ele>124.598801</ele>
        <time>2022-03-20T11:28:00Z</time>
      </trkpt>
      <trkpt lat="50.34103" lon="4.27191">
        <ele>124.955956</ele>
        <time>2022-03-20T11:28:02Z</time>
      </trkpt>
      <trkpt lat="50.34103" lon="4.27194">
        <ele>125.335732</ele>
        <time>2022-03-20T11:28:04Z</time>
      </trkpt>
      <trkpt lat="50.34103" lon="4.27198">
        <ele>125.861526</ele>
        <time>2022-03-20T11:28:08Z</time>
      </trkpt>
      <trkpt lat="50.34103" lon="4.27203">
        <ele>126.504066</ele>
        <time>2022-03-20T11:28:12Z</time>
      </trkpt>
      <trkpt lat="50.34104" lon="4.27205">
        <ele>126.875954</ele>
        <time>2022-03-20T11:28:14Z</time>
      </trkpt>
      <trkpt lat="50.34104" lon="4.27208">
        <ele>127.22628</ele>
        <time>2022-03-20T11:28:16Z</time>
      </trkpt>
      <trkpt lat="50.34103" lon="4.27209">
        <ele>127.619835</ele>
        <time>2022-03-20T11:28:18Z</time>
      </trkpt>
      <trkpt lat="50.34104" lon="4.27212">
        <ele>127.974548</ele>
        <time>2022-03-20T11:28:20Z</time>
      </trkpt>
      <trkpt lat="50.34104" lon="4.27214">
        <ele>128.267853</ele>
        <time>2022-03-20T11:28:22Z</time>
      </trkpt>
      <trkpt lat="50.34104" lon="4.27217">
        <ele>128.573181</ele>
        <time>2022-03-20T11:28:24Z</time>
      </trkpt>
      <trkpt lat="50.34105" lon="4.27219">
        <ele>128.888901</ele>
        <time>2022-03-20T11:28:26Z</time>
      </trkpt>
      <trkpt lat="50.34105" lon="4.27221">
        <ele>129.235046</ele>
        <time>2022-03-20T11:28:28Z</time>
      </trkpt>
      <trkpt lat="50.34107" lon="4.27225">
        <ele>129.928894</ele>
        <time>2022-03-20T11:28:32Z</time>
      </trkpt>
      <trkpt lat="50.34107" lon="4.27227">
        <ele>130.305801</ele>
        <time>2022-03-20T11:28:34Z</time>
      </trkpt>
      <trkpt lat="50.34106" lon="4.27232">
        <ele>130.989319</ele>
        <time>2022-03-20T11:28:38Z</time>
      </trkpt>
      <trkpt lat="50.34106" lon="4.27238">
        <ele>131.859894</ele>
        <time>2022-03-20T11:28:44Z</time>
      </trkpt>
      <trkpt lat="50.34106" lon="4.27241">
        <ele>132.586777</ele>
        <time>2022-03-20T11:28:48Z</time>
      </trkpt>
      <trkpt lat="50.34109" lon="4.27247">
        <ele>133.732727</ele>
        <time>2022-03-20T11:28:54Z</time>
      </trkpt>
      <trkpt lat="50.3411" lon="4.27249">
        <ele>134.119308</ele>
        <time>2022-03-20T11:28:56Z</time>
      </trkpt>
      <trkpt lat="50.34109" lon="4.27254">
        <ele>134.863373</ele>
        <time>2022-03-20T11:29:00Z</time>
      </trkpt>
      <trkpt lat="50.3411" lon="4.27256">
        <ele>135.266586</ele>
        <time>2022-03-20T11:29:02Z</time>
      </trkpt>
      <trkpt lat="50.3411" lon="4.27261">
        <ele>136.50087</ele>
        <time>2022-03-20T11:29:08Z</time>
      </trkpt>
      <trkpt lat="50.34111" lon="4.27263">
        <ele>139.5737</ele>
        <time>2022-03-20T11:29:24Z</time>
      </trkpt>
      <trkpt lat="50.34111" lon="4.27266">
        <ele>139.923004</ele>
        <time>2022-03-20T11:29:26Z</time>
      </trkpt>
      <trkpt lat="50.34112" lon="4.27269">
        <ele>140.307709</ele>
        <time>2022-03-20T11:29:28Z</time>
      </trkpt>
      <trkpt lat="50.34112" lon="4.27272">
        <ele>140.654968</ele>
        <time>2022-03-20T11:29:30Z</time>
      </trkpt>
      <trkpt lat="50.34113" lon="4.27275">
        <ele>140.995941</ele>
        <time>2022-03-20T11:29:32Z</time>
      </trkpt>
      <trkpt lat="50.34113" lon="4.27277">
        <ele>141.165665</ele>
        <time>2022-03-20T11:29:33Z</time>
      </trkpt>
      <trkpt lat="50.34113" lon="4.27281">
        <ele>141.520782</ele>
        <time>2022-03-20T11:29:35Z</time>
      </trkpt>
      <trkpt lat="50.34114" lon="4.27284">
        <ele>141.843124</ele>
        <time>2022-03-20T11:29:37Z</time>
      </trkpt>
      <trkpt lat="50.34114" lon="4.27287">
        <ele>142.165497</ele>
        <time>2022-03-20T11:29:39Z</time>
      </trkpt>
      <trkpt lat="50.34113" lon="4.2729">
        <ele>142.479553</ele>
        <time>2022-03-20T11:29:41Z</time>
      </trkpt>
      <trkpt lat="50.34113" lon="4.27292">
        <ele>142.625153</ele>
        <time>2022-03-20T11:29:43Z</time>
      </trkpt>
      <trkpt lat="50.34113" lon="4.27295">
        <ele>142.93251</ele>
        <time>2022-03-20T11:29:45Z</time>
      </trkpt>
      <trkpt lat="50.34113" lon="4.27297">
        <ele>143.221497</ele>
        <time>2022-03-20T11:29:47Z</time>
      </trkpt>
      <trkpt lat="50.34113" lon="4.273">
        <ele>143.533844</ele>
        <time>2022-03-20T11:29:49Z</time>
      </trkpt>
      <trkpt lat="50.34113" lon="4.27302">
        <ele>143.825363</ele>
        <time>2022-03-20T11:29:51Z</time>
      </trkpt>
      <trkpt lat="50.34113" lon="4.27305">
        <ele>144.06752</ele>
        <time>2022-03-20T11:29:53Z</time>
      </trkpt>
      <trkpt lat="50.34114" lon="4.27309">
        <ele>144.625046</ele>
        <time>2022-03-20T11:29:57Z</time>
      </trkpt>
      <trkpt lat="50.34115" lon="4.2731">
        <ele>144.772751</ele>
        <time>2022-03-20T11:29:58Z</time>
      </trkpt>
      <trkpt lat="50.34117" lon="4.27314">
        <ele>145.970047</ele>
        <time>2022-03-20T11:30:08Z</time>
      </trkpt>
      <trkpt lat="50.34118" lon="4.27318">
        <ele>146.222809</ele>
        <time>2022-03-20T11:30:10Z</time>
      </trkpt>
      <trkpt lat="50.34119" lon="4.27321">
        <ele>146.502579</ele>
        <time>2022-03-20T11:30:12Z</time>
      </trkpt>
      <trkpt lat="50.3412" lon="4.27324">
        <ele>146.816422</ele>
        <time>2022-03-20T11:30:14Z</time>
      </trkpt>
      <trkpt lat="50.34122" lon="4.27327">
        <ele>147.095062</ele>
        <time>2022-03-20T11:30:16Z</time>
      </trkpt>
      <trkpt lat="50.34123" lon="4.2733">
        <ele>147.319794</ele>
        <time>2022-03-20T11:30:18Z</time>
      </trkpt>
      <trkpt lat="50.34124" lon="4.27333">
        <ele>147.631927</ele>
        <time>2022-03-20T11:30:20Z</time>
      </trkpt>
      <trkpt lat="50.34125" lon="4.27335">
        <ele>147.906601</ele>
        <time>2022-03-20T11:30:22Z</time>
      </trkpt>
      <trkpt lat="50.34126" lon="4.27336">
        <ele>148.187546</ele>
        <time>2022-03-20T11:30:24Z</time>
      </trkpt>
      <trkpt lat="50.34126" lon="4.27342">
        <ele>150.496521</ele>
        <time>2022-03-20T11:30:44Z</time>
      </trkpt>
      <trkpt lat="50.34124" lon="4.27344">
        <ele>150.702332</ele>
        <time>2022-03-20T11:30:46Z</time>
      </trkpt>
      <trkpt lat="50.34123" lon="4.27345">
        <ele>150.869232</ele>
        <time>2022-03-20T11:30:48Z</time>
      </trkpt>
      <trkpt lat="50.34116" lon="4.27339">
        <ele>152.247406</ele>
        <time>2022-03-20T11:31:23Z</time>
      </trkpt>
      <trkpt lat="50.3411" lon="4.27332">
        <ele>152.265411</ele>
        <time>2022-03-20T11:31:25Z</time>
      </trkpt>
      <trkpt lat="50.34105" lon="4.27328">
        <ele>152.274628</ele>
        <time>2022-03-20T11:31:27Z</time>
      </trkpt>
      <trkpt lat="50.34101" lon="4.27324">
        <ele>152.2854</ele>
        <time>2022-03-20T11:31:29Z</time>
      </trkpt>
      <trkpt lat="50.34096" lon="4.27319">
        <ele>152.303055</ele>
        <time>2022-03-20T11:31:31Z</time>
      </trkpt>
      <trkpt lat="50.34092" lon="4.27314">
        <ele>152.347656</ele>
        <time>2022-03-20T11:31:33Z</time>
      </trkpt>
      <trkpt lat="50.34089" lon="4.27311">
        <ele>152.344391</ele>
        <time>2022-03-20T11:31:34Z</time>
      </trkpt>
      <trkpt lat="50.34086" lon="4.27304">
        <ele>152.349442</ele>
        <time>2022-03-20T11:31:36Z</time>
      </trkpt>
      <trkpt lat="50.34081" lon="4.27298">
        <ele>152.345261</ele>
        <time>2022-03-20T11:31:38Z</time>
      </trkpt>
      <trkpt lat="50.34078" lon="4.27291">
        <ele>152.382736</ele>
        <time>2022-03-20T11:31:40Z</time>
      </trkpt>
      <trkpt lat="50.34074" lon="4.27283">
        <ele>152.390656</ele>
        <time>2022-03-20T11:31:42Z</time>
      </trkpt>
      <trkpt lat="50.3407" lon="4.27274">
        <ele>152.414291</ele>
        <time>2022-03-20T11:31:44Z</time>
      </trkpt>
      <trkpt lat="50.34067" lon="4.27264">
        <ele>152.449997</ele>
        <time>2022-03-20T11:31:46Z</time>
      </trkpt>
      <trkpt lat="50.34063" lon="4.27255">
        <ele>152.556183</ele>
        <time>2022-03-20T11:31:48Z</time>
      </trkpt>
      <trkpt lat="50.34061" lon="4.27245">
        <ele>152.614471</ele>
        <time>2022-03-20T11:31:50Z</time>
      </trkpt>
      <trkpt lat="50.34058" lon="4.27235">
        <ele>152.677307</ele>
        <time>2022-03-20T11:31:52Z</time>
      </trkpt>
      <trkpt lat="50.34056" lon="4.27225">
        <ele>152.820984</ele>
        <time>2022-03-20T11:31:54Z</time>
      </trkpt>
      <trkpt lat="50.34053" lon="4.27215">
        <ele>152.929245</ele>
        <time>2022-03-20T11:31:56Z</time>
      </trkpt>
      <trkpt lat="50.34051" lon="4.27205">
        <ele>153.068756</ele>
        <time>2022-03-20T11:31:58Z</time>
      </trkpt>
      <trkpt lat="50.34048" lon="4.27195">
        <ele>153.174347</ele>
        <time>2022-03-20T11:32:00Z</time>
      </trkpt>
      <trkpt lat="50.34045" lon="4.27184">
        <ele>153.347168</ele>
        <time>2022-03-20T11:32:02Z</time>
      </trkpt>
      <trkpt lat="50.34042" lon="4.27173">
        <ele>153.517914</ele>
        <time>2022-03-20T11:32:04Z</time>
      </trkpt>
      <trkpt lat="50.34039" lon="4.27162">
        <ele>153.658066</ele>
        <time>2022-03-20T11:32:06Z</time>
      </trkpt>
      <trkpt lat="50.34036" lon="4.27149">
        <ele>153.804596</ele>
        <time>2022-03-20T11:32:08Z</time>
      </trkpt>
      <trkpt lat="50.34032" lon="4.27136">
        <ele>153.8629</ele>
        <time>2022-03-20T11:32:10Z</time>
      </trkpt>
      <trkpt lat="50.34029" lon="4.27122">
        <ele>154.015182</ele>
        <time>2022-03-20T11:32:12Z</time>
      </trkpt>
      <trkpt lat="50.34026" lon="4.27109">
        <ele>154.189056</ele>
        <time>2022-03-20T11:32:14Z</time>
      </trkpt>
      <trkpt lat="50.34023" lon="4.27095">
        <ele>154.350235</ele>
        <time>2022-03-20T11:32:16Z</time>
      </trkpt>
      <trkpt lat="50.34019" lon="4.27082">
        <ele>154.559647</ele>
        <time>2022-03-20T11:32:18Z</time>
      </trkpt>
      <trkpt lat="50.34016" lon="4.27068">
        <ele>154.744507</ele>
        <time>2022-03-20T11:32:20Z</time>
      </trkpt>
      <trkpt lat="50.34012" lon="4.27055">
        <ele>154.88707</ele>
        <time>2022-03-20T11:32:22Z</time>
      </trkpt>
      <trkpt lat="50.34008" lon="4.27041">
        <ele>155.067352</ele>
        <time>2022-03-20T11:32:24Z</time>
      </trkpt>
      <trkpt lat="50.34004" lon="4.27027">
        <ele>155.217773</ele>
        <time>2022-03-20T11:32:26Z</time>
      </trkpt>
      <trkpt lat="50.34001" lon="4.27015">
        <ele>155.336472</ele>
        <time>2022-03-20T11:32:28Z</time>
      </trkpt>
      <trkpt lat="50.33999" lon="4.27003">
        <ele>155.487198</ele>
        <time>2022-03-20T11:32:30Z</time>
      </trkpt>
      <trkpt lat="50.33995" lon="4.2699">
        <ele>155.674255</ele>
        <time>2022-03-20T11:32:32Z</time>
      </trkpt>
      <trkpt lat="50.33993" lon="4.26978">
        <ele>155.736053</ele>
        <time>2022-03-20T11:32:34Z</time>
      </trkpt>
      <trkpt lat="50.33991" lon="4.26966">
        <ele>155.789703</ele>
        <time>2022-03-20T11:32:36Z</time>
      </trkpt>
      <trkpt lat="50.33989" lon="4.26954">
        <ele>155.854263</ele>
        <time>2022-03-20T11:32:38Z</time>
      </trkpt>
      <trkpt lat="50.33984" lon="4.26945">
        <ele>155.848007</ele>
        <time>2022-03-20T11:32:40Z</time>
      </trkpt>
      <trkpt lat="50.33979" lon="4.26948">
        <ele>155.886078</ele>
        <time>2022-03-20T11:32:42Z</time>
      </trkpt>
      <trkpt lat="50.33976" lon="4.26958">
        <ele>155.881683</ele>
        <time>2022-03-20T11:32:44Z</time>
      </trkpt>
      <trkpt lat="50.33975" lon="4.2697">
        <ele>155.872147</ele>
        <time>2022-03-20T11:32:46Z</time>
      </trkpt>
      <trkpt lat="50.33971" lon="4.26981">
        <ele>155.901306</ele>
        <time>2022-03-20T11:32:48Z</time>
      </trkpt>
      <trkpt lat="50.33969" lon="4.26993">
        <ele>155.92421</ele>
        <time>2022-03-20T11:32:50Z</time>
      </trkpt>
      <trkpt lat="50.33966" lon="4.27004">
        <ele>155.995544</ele>
        <time>2022-03-20T11:32:52Z</time>
      </trkpt>
      <trkpt lat="50.33962" lon="4.27015">
        <ele>155.98494</ele>
        <time>2022-03-20T11:32:54Z</time>
      </trkpt>
      <trkpt lat="50.33959" lon="4.27025">
        <ele>156.016846</ele>
        <time>2022-03-20T11:32:56Z</time>
      </trkpt>
      <trkpt lat="50.33956" lon="4.27036">
        <ele>156.061844</ele>
        <time>2022-03-20T11:32:58Z</time>
      </trkpt>
      <trkpt lat="50.33952" lon="4.27046">
        <ele>156.11438</ele>
        <time>2022-03-20T11:33:00Z</time>
      </trkpt>
      <trkpt lat="50.3395" lon="4.27057">
        <ele>156.184235</ele>
        <time>2022-03-20T11:33:02Z</time>
      </trkpt>
      <trkpt lat="50.33946" lon="4.27068">
        <ele>156.338898</ele>
        <time>2022-03-20T11:33:04Z</time>
      </trkpt>
      <trkpt lat="50.33943" lon="4.2708">
        <ele>156.419647</ele>
        <time>2022-03-20T11:33:06Z</time>
      </trkpt>
      <trkpt lat="50.33941" lon="4.27091">
        <ele>156.502838</ele>
        <time>2022-03-20T11:33:08Z</time>
      </trkpt>
      <trkpt lat="50.33938" lon="4.27102">
        <ele>156.59787</ele>
        <time>2022-03-20T11:33:10Z</time>
      </trkpt>
      <trkpt lat="50.33935" lon="4.27114">
        <ele>156.712433</ele>
        <time>2022-03-20T11:33:12Z</time>
      </trkpt>
      <trkpt lat="50.33934" lon="4.2712">
        <ele>156.815735</ele>
        <time>2022-03-20T11:33:13Z</time>
      </trkpt>
      <trkpt lat="50.33931" lon="4.27131">
        <ele>156.534271</ele>
        <time>2022-03-20T11:33:15Z</time>
      </trkpt>
      <trkpt lat="50.33928" lon="4.27142">
        <ele>156.765976</ele>
        <time>2022-03-20T11:33:17Z</time>
      </trkpt>
      <trkpt lat="50.33925" lon="4.27153">
        <ele>156.882629</ele>
        <time>2022-03-20T11:33:19Z</time>
      </trkpt>
      <trkpt lat="50.33921" lon="4.27164">
        <ele>157.229065</ele>
        <time>2022-03-20T11:33:21Z</time>
      </trkpt>
      <trkpt lat="50.33918" lon="4.27175">
        <ele>157.54689</ele>
        <time>2022-03-20T11:33:23Z</time>
      </trkpt>
      <trkpt lat="50.33915" lon="4.27186">
        <ele>157.842926</ele>
        <time>2022-03-20T11:33:25Z</time>
      </trkpt>
      <trkpt lat="50.33912" lon="4.27196">
        <ele>158.202454</ele>
        <time>2022-03-20T11:33:27Z</time>
      </trkpt>
      <trkpt lat="50.33908" lon="4.27207">
        <ele>158.508682</ele>
        <time>2022-03-20T11:33:29Z</time>
      </trkpt>
      <trkpt lat="50.33905" lon="4.27218">
        <ele>158.914948</ele>
        <time>2022-03-20T11:33:31Z</time>
      </trkpt>
      <trkpt lat="50.33901" lon="4.27228">
        <ele>159.213776</ele>
        <time>2022-03-20T11:33:33Z</time>
      </trkpt>
      <trkpt lat="50.33897" lon="4.27238">
        <ele>159.651276</ele>
        <time>2022-03-20T11:33:35Z</time>
      </trkpt>
      <trkpt lat="50.33894" lon="4.27248">
        <ele>159.931335</ele>
        <time>2022-03-20T11:33:37Z</time>
      </trkpt>
      <trkpt lat="50.33891" lon="4.27258">
        <ele>160.254288</ele>
        <time>2022-03-20T11:33:39Z</time>
      </trkpt>
      <trkpt lat="50.33888" lon="4.27268">
        <ele>160.540833</ele>
        <time>2022-03-20T11:33:41Z</time>
      </trkpt>
      <trkpt lat="50.33884" lon="4.27278">
        <ele>160.876312</ele>
        <time>2022-03-20T11:33:43Z</time>
      </trkpt>
      <trkpt lat="50.33881" lon="4.27289">
        <ele>161.084808</ele>
        <time>2022-03-20T11:33:45Z</time>
      </trkpt>
      <trkpt lat="50.33877" lon="4.27299">
        <ele>161.372345</ele>
        <time>2022-03-20T11:33:47Z</time>
      </trkpt>
      <trkpt lat="50.33873" lon="4.2731">
        <ele>161.745499</ele>
        <time>2022-03-20T11:33:49Z</time>
      </trkpt>
      <trkpt lat="50.3387" lon="4.27322">
        <ele>161.978867</ele>
        <time>2022-03-20T11:33:51Z</time>
      </trkpt>
      <trkpt lat="50.33868" lon="4.27328">
        <ele>161.939301</ele>
        <time>2022-03-20T11:33:52Z</time>
      </trkpt>
      <trkpt lat="50.33864" lon="4.27339">
        <ele>161.973495</ele>
        <time>2022-03-20T11:33:54Z</time>
      </trkpt>
      <trkpt lat="50.3386" lon="4.27351">
        <ele>162.488968</ele>
        <time>2022-03-20T11:33:56Z</time>
      </trkpt>
      <trkpt lat="50.33857" lon="4.27362">
        <ele>162.605652</ele>
        <time>2022-03-20T11:33:58Z</time>
      </trkpt>
      <trkpt lat="50.33853" lon="4.27374">
        <ele>162.551483</ele>
        <time>2022-03-20T11:34:00Z</time>
      </trkpt>
      <trkpt lat="50.33849" lon="4.27385">
        <ele>162.665558</ele>
        <time>2022-03-20T11:34:02Z</time>
      </trkpt>
      <trkpt lat="50.33847" lon="4.27391">
        <ele>162.698898</ele>
        <time>2022-03-20T11:34:03Z</time>
      </trkpt>
      <trkpt lat="50.33843" lon="4.27402">
        <ele>162.740936</ele>
        <time>2022-03-20T11:34:05Z</time>
      </trkpt>
      <trkpt lat="50.33839" lon="4.27413">
        <ele>162.707596</ele>
        <time>2022-03-20T11:34:07Z</time>
      </trkpt>
      <trkpt lat="50.33836" lon="4.27419">
        <ele>162.676331</ele>
        <time>2022-03-20T11:34:08Z</time>
      </trkpt>
      <trkpt lat="50.33831" lon="4.27431">
        <ele>162.741364</ele>
        <time>2022-03-20T11:34:10Z</time>
      </trkpt>
      <trkpt lat="50.33826" lon="4.27443">
        <ele>162.672577</ele>
        <time>2022-03-20T11:34:12Z</time>
      </trkpt>
      <trkpt lat="50.3382" lon="4.27454">
        <ele>162.507996</ele>
        <time>2022-03-20T11:34:14Z</time>
      </trkpt>
      <trkpt lat="50.33815" lon="4.27465">
        <ele>162.520493</ele>
        <time>2022-03-20T11:34:16Z</time>
      </trkpt>
      <trkpt lat="50.33809" lon="4.27476">
        <ele>162.848083</ele>
        <time>2022-03-20T11:34:18Z</time>
      </trkpt>
      <trkpt lat="50.33803" lon="4.27488">
        <ele>162.91893</ele>
        <time>2022-03-20T11:34:20Z</time>
      </trkpt>
      <trkpt lat="50.33797" lon="4.275">
        <ele>162.835571</ele>
        <time>2022-03-20T11:34:22Z</time>
      </trkpt>
      <trkpt lat="50.3379" lon="4.27513">
        <ele>162.807358</ele>
        <time>2022-03-20T11:34:24Z</time>
      </trkpt>
      <trkpt lat="50.33783" lon="4.27526">
        <ele>163.26413</ele>
        <time>2022-03-20T11:34:26Z</time>
      </trkpt>
      <trkpt lat="50.33777" lon="4.27538">
        <ele>163.197296</ele>
        <time>2022-03-20T11:34:28Z</time>
      </trkpt>
      <trkpt lat="50.33772" lon="4.2755">
        <ele>163.188965</ele>
        <time>2022-03-20T11:34:30Z</time>
      </trkpt>
      <trkpt lat="50.33765" lon="4.27563">
        <ele>163.109741</ele>
        <time>2022-03-20T11:34:32Z</time>
      </trkpt>
      <trkpt lat="50.33759" lon="4.27576">
        <ele>163.161835</ele>
        <time>2022-03-20T11:34:34Z</time>
      </trkpt>
      <trkpt lat="50.33752" lon="4.2759">
        <ele>163.451431</ele>
        <time>2022-03-20T11:34:36Z</time>
      </trkpt>
      <trkpt lat="50.33746" lon="4.27603">
        <ele>163.507706</ele>
        <time>2022-03-20T11:34:38Z</time>
      </trkpt>
      <trkpt lat="50.33739" lon="4.27614">
        <ele>163.653564</ele>
        <time>2022-03-20T11:34:40Z</time>
      </trkpt>
      <trkpt lat="50.33732" lon="4.27625">
        <ele>163.895294</ele>
        <time>2022-03-20T11:34:42Z</time>
      </trkpt>
      <trkpt lat="50.33725" lon="4.27635">
        <ele>163.897339</ele>
        <time>2022-03-20T11:34:44Z</time>
      </trkpt>
      <trkpt lat="50.33718" lon="4.27646">
        <ele>163.928604</ele>
        <time>2022-03-20T11:34:46Z</time>
      </trkpt>
      <trkpt lat="50.3371" lon="4.27655">
        <ele>164.020844</ele>
        <time>2022-03-20T11:34:48Z</time>
      </trkpt>
      <trkpt lat="50.33703" lon="4.27665">
        <ele>164.21257</ele>
        <time>2022-03-20T11:34:50Z</time>
      </trkpt>
      <trkpt lat="50.33695" lon="4.27675">
        <ele>164.283005</ele>
        <time>2022-03-20T11:34:52Z</time>
      </trkpt>
      <trkpt lat="50.33687" lon="4.27686">
        <ele>164.484161</ele>
        <time>2022-03-20T11:34:54Z</time>
      </trkpt>
      <trkpt lat="50.3368" lon="4.27696">
        <ele>164.857193</ele>
        <time>2022-03-20T11:34:56Z</time>
      </trkpt>
      <trkpt lat="50.33673" lon="4.27707">
        <ele>165.209442</ele>
        <time>2022-03-20T11:34:58Z</time>
      </trkpt>
      <trkpt lat="50.33666" lon="4.27717">
        <ele>164.950684</ele>
        <time>2022-03-20T11:35:00Z</time>
      </trkpt>
      <trkpt lat="50.33659" lon="4.27728">
        <ele>165.196655</ele>
        <time>2022-03-20T11:35:02Z</time>
      </trkpt>
      <trkpt lat="50.33652" lon="4.27738">
        <ele>165.471802</ele>
        <time>2022-03-20T11:35:04Z</time>
      </trkpt>
      <trkpt lat="50.33645" lon="4.27748">
        <ele>165.342316</ele>
        <time>2022-03-20T11:35:06Z</time>
      </trkpt>
      <trkpt lat="50.33639" lon="4.27757">
        <ele>165.567444</ele>
        <time>2022-03-20T11:35:08Z</time>
      </trkpt>
      <trkpt lat="50.33633" lon="4.27767">
        <ele>165.834274</ele>
        <time>2022-03-20T11:35:10Z</time>
      </trkpt>
      <trkpt lat="50.33627" lon="4.27777">
        <ele>166.04483</ele>
        <time>2022-03-20T11:35:12Z</time>
      </trkpt>
      <trkpt lat="50.3362" lon="4.27786">
        <ele>166.336716</ele>
        <time>2022-03-20T11:35:14Z</time>
      </trkpt>
      <trkpt lat="50.33613" lon="4.27796">
        <ele>166.570267</ele>
        <time>2022-03-20T11:35:16Z</time>
      </trkpt>
      <trkpt lat="50.33606" lon="4.27806">
        <ele>166.85173</ele>
        <time>2022-03-20T11:35:18Z</time>
      </trkpt>
      <trkpt lat="50.336" lon="4.27815">
        <ele>167.159958</ele>
        <time>2022-03-20T11:35:20Z</time>
      </trkpt>
      <trkpt lat="50.33593" lon="4.27825">
        <ele>167.349686</ele>
        <time>2022-03-20T11:35:22Z</time>
      </trkpt>
      <trkpt lat="50.33587" lon="4.27835">
        <ele>167.506348</ele>
        <time>2022-03-20T11:35:24Z</time>
      </trkpt>
      <trkpt lat="50.33579" lon="4.27845">
        <ele>167.789886</ele>
        <time>2022-03-20T11:35:26Z</time>
      </trkpt>
      <trkpt lat="50.33572" lon="4.27853">
        <ele>168.065094</ele>
        <time>2022-03-20T11:35:28Z</time>
      </trkpt>
      <trkpt lat="50.33564" lon="4.27862">
        <ele>168.352203</ele>
        <time>2022-03-20T11:35:30Z</time>
      </trkpt>
      <trkpt lat="50.33557" lon="4.27871">
        <ele>168.615997</ele>
        <time>2022-03-20T11:35:32Z</time>
      </trkpt>
      <trkpt lat="50.3355" lon="4.27879">
        <ele>168.940216</ele>
        <time>2022-03-20T11:35:34Z</time>
      </trkpt>
      <trkpt lat="50.33543" lon="4.27887">
        <ele>169.161011</ele>
        <time>2022-03-20T11:35:36Z</time>
      </trkpt>
      <trkpt lat="50.33536" lon="4.27895">
        <ele>169.286407</ele>
        <time>2022-03-20T11:35:38Z</time>
      </trkpt>
      <trkpt lat="50.33529" lon="4.27903">
        <ele>169.451141</ele>
        <time>2022-03-20T11:35:40Z</time>
      </trkpt>
      <trkpt lat="50.33522" lon="4.27911">
        <ele>169.634644</ele>
        <time>2022-03-20T11:35:42Z</time>
      </trkpt>
      <trkpt lat="50.33515" lon="4.27917">
        <ele>169.836929</ele>
        <time>2022-03-20T11:35:44Z</time>
      </trkpt>
      <trkpt lat="50.33508" lon="4.27924">
        <ele>170.074661</ele>
        <time>2022-03-20T11:35:46Z</time>
      </trkpt>
      <trkpt lat="50.33501" lon="4.27931">
        <ele>170.1539</ele>
        <time>2022-03-20T11:35:48Z</time>
      </trkpt>
      <trkpt lat="50.33494" lon="4.27939">
        <ele>170.414581</ele>
        <time>2022-03-20T11:35:50Z</time>
      </trkpt>
      <trkpt lat="50.33486" lon="4.27948">
        <ele>170.681549</ele>
        <time>2022-03-20T11:35:52Z</time>
      </trkpt>
      <trkpt lat="50.3348" lon="4.27955">
        <ele>170.975632</ele>
        <time>2022-03-20T11:35:54Z</time>
      </trkpt>
      <trkpt lat="50.33472" lon="4.27962">
        <ele>171.080002</ele>
        <time>2022-03-20T11:35:56Z</time>
      </trkpt>
      <trkpt lat="50.33465" lon="4.27968">
        <ele>171.211395</ele>
        <time>2022-03-20T11:35:58Z</time>
      </trkpt>
      <trkpt lat="50.33456" lon="4.27975">
        <ele>171.309433</ele>
        <time>2022-03-20T11:36:00Z</time>
      </trkpt>
      <trkpt lat="50.33447" lon="4.27981">
        <ele>171.524689</ele>
        <time>2022-03-20T11:36:02Z</time>
      </trkpt>
      <trkpt lat="50.3344" lon="4.27987">
        <ele>171.689453</ele>
        <time>2022-03-20T11:36:04Z</time>
      </trkpt>
      <trkpt lat="50.33436" lon="4.27991">
        <ele>171.762161</ele>
        <time>2022-03-20T11:36:05Z</time>
      </trkpt>
      <trkpt lat="50.33428" lon="4.27996">
        <ele>171.878021</ele>
        <time>2022-03-20T11:36:07Z</time>
      </trkpt>
      <trkpt lat="50.33421" lon="4.28002">
        <ele>172.053192</ele>
        <time>2022-03-20T11:36:09Z</time>
      </trkpt>
      <trkpt lat="50.33413" lon="4.28007">
        <ele>172.183136</ele>
        <time>2022-03-20T11:36:11Z</time>
      </trkpt>
      <trkpt lat="50.33405" lon="4.28011">
        <ele>172.259247</ele>
        <time>2022-03-20T11:36:13Z</time>
      </trkpt>
      <trkpt lat="50.33397" lon="4.28016">
        <ele>172.397507</ele>
        <time>2022-03-20T11:36:15Z</time>
      </trkpt>
      <trkpt lat="50.3339" lon="4.28021">
        <ele>172.478714</ele>
        <time>2022-03-20T11:36:17Z</time>
      </trkpt>
      <trkpt lat="50.33382" lon="4.28025">
        <ele>172.662186</ele>
        <time>2022-03-20T11:36:19Z</time>
      </trkpt>
      <trkpt lat="50.33373" lon="4.28028">
        <ele>172.759933</ele>
        <time>2022-03-20T11:36:21Z</time>
      </trkpt>
      <trkpt lat="50.33368" lon="4.28028">
        <ele>172.855896</ele>
        <time>2022-03-20T11:36:22Z</time>
      </trkpt>
      <trkpt lat="50.3336" lon="4.28024">
        <ele>172.994781</ele>
        <time>2022-03-20T11:36:24Z</time>
      </trkpt>
      <trkpt lat="50.33352" lon="4.28019">
        <ele>173.115768</ele>
        <time>2022-03-20T11:36:26Z</time>
      </trkpt>
      <trkpt lat="50.33343" lon="4.28014">
        <ele>173.140808</ele>
        <time>2022-03-20T11:36:28Z</time>
      </trkpt>
      <trkpt lat="50.33334" lon="4.28009">
        <ele>173.253464</ele>
        <time>2022-03-20T11:36:30Z</time>
      </trkpt>
      <trkpt lat="50.33326" lon="4.28005">
        <ele>173.405914</ele>
        <time>2022-03-20T11:36:32Z</time>
      </trkpt>
      <trkpt lat="50.33317" lon="4.28003">
        <ele>173.508133</ele>
        <time>2022-03-20T11:36:34Z</time>
      </trkpt>
      <trkpt lat="50.3331" lon="4.28002">
        <ele>173.449722</ele>
        <time>2022-03-20T11:36:36Z</time>
      </trkpt>
      <trkpt lat="50.33304" lon="4.28005">
        <ele>173.535156</ele>
        <time>2022-03-20T11:36:38Z</time>
      </trkpt>
      <trkpt lat="50.33297" lon="4.28001">
        <ele>173.566452</ele>
        <time>2022-03-20T11:36:40Z</time>
      </trkpt>
      <trkpt lat="50.33292" lon="4.2799">
        <ele>173.685364</ele>
        <time>2022-03-20T11:36:42Z</time>
      </trkpt>
      <trkpt lat="50.33291" lon="4.27978">
        <ele>173.754059</ele>
        <time>2022-03-20T11:36:44Z</time>
      </trkpt>
      <trkpt lat="50.33288" lon="4.27965">
        <ele>173.845856</ele>
        <time>2022-03-20T11:36:46Z</time>
      </trkpt>
      <trkpt lat="50.33286" lon="4.27952">
        <ele>173.926041</ele>
        <time>2022-03-20T11:36:48Z</time>
      </trkpt>
      <trkpt lat="50.33283" lon="4.27939">
        <ele>174.036606</ele>
        <time>2022-03-20T11:36:50Z</time>
      </trkpt>
      <trkpt lat="50.3328" lon="4.27926">
        <ele>174.157608</ele>
        <time>2022-03-20T11:36:52Z</time>
      </trkpt>
      <trkpt lat="50.33274" lon="4.27918">
        <ele>174.205597</ele>
        <time>2022-03-20T11:36:54Z</time>
      </trkpt>
      <trkpt lat="50.33266" lon="4.2792">
        <ele>174.24881</ele>
        <time>2022-03-20T11:36:56Z</time>
      </trkpt>
      <trkpt lat="50.33258" lon="4.27927">
        <ele>174.269806</ele>
        <time>2022-03-20T11:36:58Z</time>
      </trkpt>
      <trkpt lat="50.33251" lon="4.27936">
        <ele>174.324371</ele>
        <time>2022-03-20T11:37:00Z</time>
      </trkpt>
      <trkpt lat="50.33243" lon="4.27945">
        <ele>174.412643</ele>
        <time>2022-03-20T11:37:02Z</time>
      </trkpt>
      <trkpt lat="50.33234" lon="4.27954">
        <ele>174.409332</ele>
        <time>2022-03-20T11:37:04Z</time>
      </trkpt>
      <trkpt lat="50.33225" lon="4.27963">
        <ele>174.453156</ele>
        <time>2022-03-20T11:37:06Z</time>
      </trkpt>
      <trkpt lat="50.33217" lon="4.27971">
        <ele>174.517838</ele>
        <time>2022-03-20T11:37:08Z</time>
      </trkpt>
      <trkpt lat="50.33209" lon="4.2798">
        <ele>174.542587</ele>
        <time>2022-03-20T11:37:10Z</time>
      </trkpt>
      <trkpt lat="50.332" lon="4.27988">
        <ele>174.536163</ele>
        <time>2022-03-20T11:37:12Z</time>
      </trkpt>
      <trkpt lat="50.33191" lon="4.27994">
        <ele>174.523773</ele>
        <time>2022-03-20T11:37:14Z</time>
      </trkpt>
      <trkpt lat="50.33181" lon="4.27994">
        <ele>174.571747</ele>
        <time>2022-03-20T11:37:16Z</time>
      </trkpt>
      <trkpt lat="50.33172" lon="4.2799">
        <ele>174.559219</ele>
        <time>2022-03-20T11:37:18Z</time>
      </trkpt>
      <trkpt lat="50.33164" lon="4.27985">
        <ele>174.48764</ele>
        <time>2022-03-20T11:37:20Z</time>
      </trkpt>
      <trkpt lat="50.33154" lon="4.27984">
        <ele>174.484589</ele>
        <time>2022-03-20T11:37:22Z</time>
      </trkpt>
      <trkpt lat="50.33145" lon="4.27987">
        <ele>174.43869</ele>
        <time>2022-03-20T11:37:24Z</time>
      </trkpt>
      <trkpt lat="50.33136" lon="4.27992">
        <ele>174.342743</ele>
        <time>2022-03-20T11:37:26Z</time>
      </trkpt>
      <trkpt lat="50.33128" lon="4.28">
        <ele>174.292694</ele>
        <time>2022-03-20T11:37:28Z</time>
      </trkpt>
      <trkpt lat="50.3312" lon="4.28007">
        <ele>174.214569</ele>
        <time>2022-03-20T11:37:30Z</time>
      </trkpt>
      <trkpt lat="50.33112" lon="4.28015">
        <ele>174.028915</ele>
        <time>2022-03-20T11:37:32Z</time>
      </trkpt>
      <trkpt lat="50.33104" lon="4.28023">
        <ele>173.920441</ele>
        <time>2022-03-20T11:37:34Z</time>
      </trkpt>
      <trkpt lat="50.33095" lon="4.28031">
        <ele>173.876633</ele>
        <time>2022-03-20T11:37:36Z</time>
      </trkpt>
      <trkpt lat="50.33086" lon="4.2804">
        <ele>173.874542</ele>
        <time>2022-03-20T11:37:38Z</time>
      </trkpt>
      <trkpt lat="50.33078" lon="4.28049">
        <ele>173.814056</ele>
        <time>2022-03-20T11:37:40Z</time>
      </trkpt>
      <trkpt lat="50.33069" lon="4.28059">
        <ele>173.78627</ele>
        <time>2022-03-20T11:37:42Z</time>
      </trkpt>
      <trkpt lat="50.33061" lon="4.28071">
        <ele>173.638153</ele>
        <time>2022-03-20T11:37:44Z</time>
      </trkpt>
      <trkpt lat="50.33054" lon="4.28084">
        <ele>173.667358</ele>
        <time>2022-03-20T11:37:46Z</time>
      </trkpt>
      <trkpt lat="50.33048" lon="4.28097">
        <ele>173.621109</ele>
        <time>2022-03-20T11:37:48Z</time>
      </trkpt>
      <trkpt lat="50.33041" lon="4.2811">
        <ele>173.50296</ele>
        <time>2022-03-20T11:37:50Z</time>
      </trkpt>
      <trkpt lat="50.33036" lon="4.28125">
        <ele>173.398666</ele>
        <time>2022-03-20T11:37:52Z</time>
      </trkpt>
      <trkpt lat="50.3303" lon="4.28139">
        <ele>173.347672</ele>
        <time>2022-03-20T11:37:54Z</time>
      </trkpt>
      <trkpt lat="50.33025" lon="4.28155">
        <ele>173.243256</ele>
        <time>2022-03-20T11:37:56Z</time>
      </trkpt>
      <trkpt lat="50.33019" lon="4.28172">
        <ele>173.143143</ele>
        <time>2022-03-20T11:37:58Z</time>
      </trkpt>
      <trkpt lat="50.33012" lon="4.28189">
        <ele>172.90329</ele>
        <time>2022-03-20T11:38:00Z</time>
      </trkpt>
      <trkpt lat="50.33005" lon="4.28207">
        <ele>172.705765</ele>
        <time>2022-03-20T11:38:02Z</time>
      </trkpt>
      <trkpt lat="50.32998" lon="4.28225">
        <ele>172.437714</ele>
        <time>2022-03-20T11:38:04Z</time>
      </trkpt>
      <trkpt lat="50.3299" lon="4.28243">
        <ele>172.233307</ele>
        <time>2022-03-20T11:38:06Z</time>
      </trkpt>
      <trkpt lat="50.32983" lon="4.28262">
        <ele>172.16449</ele>
        <time>2022-03-20T11:38:08Z</time>
      </trkpt>
      <trkpt lat="50.32976" lon="4.2828">
        <ele>171.946411</ele>
        <time>2022-03-20T11:38:10Z</time>
      </trkpt>
      <trkpt lat="50.32968" lon="4.28297">
        <ele>172.040283</ele>
        <time>2022-03-20T11:38:12Z</time>
      </trkpt>
      <trkpt lat="50.32961" lon="4.28316">
        <ele>172.007584</ele>
        <time>2022-03-20T11:38:14Z</time>
      </trkpt>
      <trkpt lat="50.32955" lon="4.28333">
        <ele>171.761475</ele>
        <time>2022-03-20T11:38:16Z</time>
      </trkpt>
      <trkpt lat="50.32949" lon="4.28347">
        <ele>171.444458</ele>
        <time>2022-03-20T11:38:18Z</time>
      </trkpt>
      <trkpt lat="50.32942" lon="4.28358">
        <ele>171.290131</ele>
        <time>2022-03-20T11:38:20Z</time>
      </trkpt>
      <trkpt lat="50.32938" lon="4.28362">
        <ele>171.079514</ele>
        <time>2022-03-20T11:38:21Z</time>
      </trkpt>
      <trkpt lat="50.32935" lon="4.28368">
        <ele>170.78598</ele>
        <time>2022-03-20T11:38:23Z</time>
      </trkpt>
      <trkpt lat="50.32932" lon="4.28373">
        <ele>170.483582</ele>
        <time>2022-03-20T11:38:25Z</time>
      </trkpt>
      <trkpt lat="50.32927" lon="4.28379">
        <ele>170.158264</ele>
        <time>2022-03-20T11:38:27Z</time>
      </trkpt>
      <trkpt lat="50.32924" lon="4.28391">
        <ele>169.927155</ele>
        <time>2022-03-20T11:38:29Z</time>
      </trkpt>
      <trkpt lat="50.32926" lon="4.284">
        <ele>169.605957</ele>
        <time>2022-03-20T11:38:31Z</time>
      </trkpt>
      <trkpt lat="50.32925" lon="4.28408">
        <ele>169.149872</ele>
        <time>2022-03-20T11:38:33Z</time>
      </trkpt>
      <trkpt lat="50.32925" lon="4.28416">
        <ele>168.748413</ele>
        <time>2022-03-20T11:38:35Z</time>
      </trkpt>
      <trkpt lat="50.32926" lon="4.28426">
        <ele>168.335602</ele>
        <time>2022-03-20T11:38:37Z</time>
      </trkpt>
      <trkpt lat="50.32929" lon="4.28434">
        <ele>167.746094</ele>
        <time>2022-03-20T11:38:39Z</time>
      </trkpt>
      <trkpt lat="50.32931" lon="4.2844">
        <ele>166.783875</ele>
        <time>2022-03-20T11:38:41Z</time>
      </trkpt>
      <trkpt lat="50.32935" lon="4.28447">
        <ele>166.335724</ele>
        <time>2022-03-20T11:38:43Z</time>
      </trkpt>
      <trkpt lat="50.32941" lon="4.28455">
        <ele>166.025131</ele>
        <time>2022-03-20T11:38:45Z</time>
      </trkpt>
      <trkpt lat="50.32946" lon="4.28461">
        <ele>165.495636</ele>
        <time>2022-03-20T11:38:47Z</time>
      </trkpt>
      <trkpt lat="50.32951" lon="4.28464">
        <ele>165.057877</ele>
        <time>2022-03-20T11:38:49Z</time>
      </trkpt>
      <trkpt lat="50.32954" lon="4.28469">
        <ele>164.536819</ele>
        <time>2022-03-20T11:38:51Z</time>
      </trkpt>
      <trkpt lat="50.32959" lon="4.28474">
        <ele>164.08432</ele>
        <time>2022-03-20T11:38:53Z</time>
      </trkpt>
      <trkpt lat="50.32962" lon="4.28478">
        <ele>163.379013</ele>
        <time>2022-03-20T11:38:55Z</time>
      </trkpt>
      <trkpt lat="50.32966" lon="4.2848">
        <ele>163.325104</ele>
        <time>2022-03-20T11:38:57Z</time>
      </trkpt>
      <trkpt lat="50.32969" lon="4.28483">
        <ele>162.718704</ele>
        <time>2022-03-20T11:38:59Z</time>
      </trkpt>
      <trkpt lat="50.32973" lon="4.28489">
        <ele>162.522781</ele>
        <time>2022-03-20T11:39:01Z</time>
      </trkpt>
      <trkpt lat="50.32978" lon="4.28495">
        <ele>162.041428</ele>
        <time>2022-03-20T11:39:03Z</time>
      </trkpt>
      <trkpt lat="50.32987" lon="4.28504">
        <ele>161.303314</ele>
        <time>2022-03-20T11:39:05Z</time>
      </trkpt>
      <trkpt lat="50.32995" lon="4.28512">
        <ele>160.617828</ele>
        <time>2022-03-20T11:39:07Z</time>
      </trkpt>
      <trkpt lat="50.32998" lon="4.28517">
        <ele>159.915741</ele>
        <time>2022-03-20T11:39:09Z</time>
      </trkpt>
      <trkpt lat="50.33003" lon="4.28526">
        <ele>159.338654</ele>
        <time>2022-03-20T11:39:11Z</time>
      </trkpt>
      <trkpt lat="50.33009" lon="4.28534">
        <ele>158.746552</ele>
        <time>2022-03-20T11:39:13Z</time>
      </trkpt>
      <trkpt lat="50.33016" lon="4.28545">
        <ele>158.002289</ele>
        <time>2022-03-20T11:39:15Z</time>
      </trkpt>
      <trkpt lat="50.33019" lon="4.28558">
        <ele>157.39621</ele>
        <time>2022-03-20T11:39:17Z</time>
      </trkpt>
      <trkpt lat="50.33022" lon="4.28573">
        <ele>156.550003</ele>
        <time>2022-03-20T11:39:19Z</time>
      </trkpt>
      <trkpt lat="50.33032" lon="4.28593">
        <ele>155.831589</ele>
        <time>2022-03-20T11:39:21Z</time>
      </trkpt>
      <trkpt lat="50.33042" lon="4.28607">
        <ele>155.685608</ele>
        <time>2022-03-20T11:39:23Z</time>
      </trkpt>
      <trkpt lat="50.33053" lon="4.28618">
        <ele>154.879913</ele>
        <time>2022-03-20T11:39:25Z</time>
      </trkpt>
      <trkpt lat="50.33062" lon="4.28621">
        <ele>153.963898</ele>
        <time>2022-03-20T11:39:27Z</time>
      </trkpt>
      <trkpt lat="50.33069" lon="4.28627">
        <ele>152.912781</ele>
        <time>2022-03-20T11:39:29Z</time>
      </trkpt>
      <trkpt lat="50.33077" lon="4.2863">
        <ele>152.02803</ele>
        <time>2022-03-20T11:39:31Z</time>
      </trkpt>
      <trkpt lat="50.33085" lon="4.2863">
        <ele>151.230789</ele>
        <time>2022-03-20T11:39:33Z</time>
      </trkpt>
      <trkpt lat="50.33091" lon="4.28627">
        <ele>150.298981</ele>
        <time>2022-03-20T11:39:35Z</time>
      </trkpt>
      <trkpt lat="50.33095" lon="4.28629">
        <ele>148.666351</ele>
        <time>2022-03-20T11:39:37Z</time>
      </trkpt>
      <trkpt lat="50.33098" lon="4.2863">
        <ele>148.133652</ele>
        <time>2022-03-20T11:39:38Z</time>
      </trkpt>
      <trkpt lat="50.33099" lon="4.28636">
        <ele>147.783859</ele>
        <time>2022-03-20T11:39:40Z</time>
      </trkpt>
      <trkpt lat="50.33101" lon="4.2864">
        <ele>146.606171</ele>
        <time>2022-03-20T11:39:42Z</time>
      </trkpt>
      <trkpt lat="50.33101" lon="4.28646">
        <ele>145.468155</ele>
        <time>2022-03-20T11:39:44Z</time>
      </trkpt>
      <trkpt lat="50.331" lon="4.2865">
        <ele>144.46347</ele>
        <time>2022-03-20T11:39:46Z</time>
      </trkpt>
      <trkpt lat="50.331" lon="4.28655">
        <ele>143.346573</ele>
        <time>2022-03-20T11:39:48Z</time>
      </trkpt>
      <trkpt lat="50.33101" lon="4.2866">
        <ele>142.294159</ele>
        <time>2022-03-20T11:39:50Z</time>
      </trkpt>
      <trkpt lat="50.33101" lon="4.28665">
        <ele>141.096191</ele>
        <time>2022-03-20T11:39:52Z</time>
      </trkpt>
      <trkpt lat="50.33099" lon="4.28669">
        <ele>139.908707</ele>
        <time>2022-03-20T11:39:54Z</time>
      </trkpt>
      <trkpt lat="50.33098" lon="4.28674">
        <ele>138.80249</ele>
        <time>2022-03-20T11:39:56Z</time>
      </trkpt>
      <trkpt lat="50.33096" lon="4.28683">
        <ele>137.741241</ele>
        <time>2022-03-20T11:39:58Z</time>
      </trkpt>
      <trkpt lat="50.33094" lon="4.28692">
        <ele>136.714203</ele>
        <time>2022-03-20T11:40:00Z</time>
      </trkpt>
      <trkpt lat="50.33092" lon="4.287">
        <ele>136.154922</ele>
        <time>2022-03-20T11:40:02Z</time>
      </trkpt>
      <trkpt lat="50.33091" lon="4.2871">
        <ele>135.142578</ele>
        <time>2022-03-20T11:40:04Z</time>
      </trkpt>
      <trkpt lat="50.33089" lon="4.28719">
        <ele>134.211426</ele>
        <time>2022-03-20T11:40:06Z</time>
      </trkpt>
      <trkpt lat="50.33085" lon="4.28729">
        <ele>133.319611</ele>
        <time>2022-03-20T11:40:08Z</time>
      </trkpt>
      <trkpt lat="50.33081" lon="4.28738">
        <ele>132.673386</ele>
        <time>2022-03-20T11:40:10Z</time>
      </trkpt>
      <trkpt lat="50.33079" lon="4.28744">
        <ele>131.763123</ele>
        <time>2022-03-20T11:40:12Z</time>
      </trkpt>
      <trkpt lat="50.33078" lon="4.28753">
        <ele>130.99649</ele>
        <time>2022-03-20T11:40:14Z</time>
      </trkpt>
      <trkpt lat="50.33072" lon="4.28762">
        <ele>130.181854</ele>
        <time>2022-03-20T11:40:16Z</time>
      </trkpt>
      <trkpt lat="50.33071" lon="4.2877">
        <ele>129.422729</ele>
        <time>2022-03-20T11:40:18Z</time>
      </trkpt>
      <trkpt lat="50.33069" lon="4.28779">
        <ele>128.908066</ele>
        <time>2022-03-20T11:40:20Z</time>
      </trkpt>
      <trkpt lat="50.33066" lon="4.2879">
        <ele>128.386627</ele>
        <time>2022-03-20T11:40:22Z</time>
      </trkpt>
      <trkpt lat="50.33064" lon="4.288">
        <ele>127.96698</ele>
        <time>2022-03-20T11:40:24Z</time>
      </trkpt>
      <trkpt lat="50.33061" lon="4.28814">
        <ele>127.545288</ele>
        <time>2022-03-20T11:40:26Z</time>
      </trkpt>
      <trkpt lat="50.33059" lon="4.2883">
        <ele>127.173462</ele>
        <time>2022-03-20T11:40:28Z</time>
      </trkpt>
      <trkpt lat="50.33057" lon="4.28846">
        <ele>126.936913</ele>
        <time>2022-03-20T11:40:30Z</time>
      </trkpt>
      <trkpt lat="50.33055" lon="4.28862">
        <ele>126.71051</ele>
        <time>2022-03-20T11:40:32Z</time>
      </trkpt>
      <trkpt lat="50.33052" lon="4.28876">
        <ele>126.57135</ele>
        <time>2022-03-20T11:40:34Z</time>
      </trkpt>
      <trkpt lat="50.33048" lon="4.28894">
        <ele>126.440506</ele>
        <time>2022-03-20T11:40:36Z</time>
      </trkpt>
      <trkpt lat="50.33044" lon="4.28908">
        <ele>126.376122</ele>
        <time>2022-03-20T11:40:38Z</time>
      </trkpt>
      <trkpt lat="50.33041" lon="4.28918">
        <ele>126.162979</ele>
        <time>2022-03-20T11:40:40Z</time>
      </trkpt>
      <trkpt lat="50.33036" lon="4.28929">
        <ele>126.063553</ele>
        <time>2022-03-20T11:40:42Z</time>
      </trkpt>
      <trkpt lat="50.3303" lon="4.28938">
        <ele>126.022011</ele>
        <time>2022-03-20T11:40:44Z</time>
      </trkpt>
      <trkpt lat="50.33024" lon="4.28953">
        <ele>125.977554</ele>
        <time>2022-03-20T11:40:46Z</time>
      </trkpt>
      <trkpt lat="50.33018" lon="4.28966">
        <ele>125.913048</ele>
        <time>2022-03-20T11:40:48Z</time>
      </trkpt>
      <trkpt lat="50.33013" lon="4.28979">
        <ele>125.850876</ele>
        <time>2022-03-20T11:40:50Z</time>
      </trkpt>
      <trkpt lat="50.33007" lon="4.28991">
        <ele>125.925636</ele>
        <time>2022-03-20T11:40:52Z</time>
      </trkpt>
      <trkpt lat="50.33005" lon="4.28997">
        <ele>125.902794</ele>
        <time>2022-03-20T11:40:53Z</time>
      </trkpt>
      <trkpt lat="50.33001" lon="4.29008">
        <ele>125.886307</ele>
        <time>2022-03-20T11:40:55Z</time>
      </trkpt>
      <trkpt lat="50.33" lon="4.29021">
        <ele>125.878464</ele>
        <time>2022-03-20T11:40:57Z</time>
      </trkpt>
      <trkpt lat="50.32999" lon="4.29035">
        <ele>125.832748</ele>
        <time>2022-03-20T11:40:59Z</time>
      </trkpt>
      <trkpt lat="50.32995" lon="4.29048">
        <ele>125.860085</ele>
        <time>2022-03-20T11:41:01Z</time>
      </trkpt>
      <trkpt lat="50.32992" lon="4.29062">
        <ele>125.724487</ele>
        <time>2022-03-20T11:41:03Z</time>
      </trkpt>
      <trkpt lat="50.3299" lon="4.29077">
        <ele>125.741112</ele>
        <time>2022-03-20T11:41:05Z</time>
      </trkpt>
      <trkpt lat="50.32987" lon="4.29092">
        <ele>125.743187</ele>
        <time>2022-03-20T11:41:07Z</time>
      </trkpt>
      <trkpt lat="50.32987" lon="4.291">
        <ele>125.811722</ele>
        <time>2022-03-20T11:41:08Z</time>
      </trkpt>
      <trkpt lat="50.32983" lon="4.29115">
        <ele>125.804199</ele>
        <time>2022-03-20T11:41:10Z</time>
      </trkpt>
      <trkpt lat="50.32982" lon="4.29128">
        <ele>125.745811</ele>
        <time>2022-03-20T11:41:12Z</time>
      </trkpt>
      <trkpt lat="50.32979" lon="4.29138">
        <ele>125.689743</ele>
        <time>2022-03-20T11:41:14Z</time>
      </trkpt>
      <trkpt lat="50.32976" lon="4.29145">
        <ele>125.675537</ele>
        <time>2022-03-20T11:41:16Z</time>
      </trkpt>
      <trkpt lat="50.32974" lon="4.29149">
        <ele>125.675537</ele>
        <time>2022-03-20T11:41:17Z</time>
      </trkpt>
      <trkpt lat="50.32968" lon="4.29159">
        <ele>125.663467</ele>
        <time>2022-03-20T11:41:19Z</time>
      </trkpt>
      <trkpt lat="50.32964" lon="4.2917">
        <ele>125.740311</ele>
        <time>2022-03-20T11:41:21Z</time>
      </trkpt>
      <trkpt lat="50.32961" lon="4.29181">
        <ele>125.775352</ele>
        <time>2022-03-20T11:41:23Z</time>
      </trkpt>
      <trkpt lat="50.32958" lon="4.29192">
        <ele>125.856606</ele>
        <time>2022-03-20T11:41:25Z</time>
      </trkpt>
      <trkpt lat="50.32954" lon="4.29205">
        <ele>125.856606</ele>
        <time>2022-03-20T11:41:27Z</time>
      </trkpt>
      <trkpt lat="50.3295" lon="4.2921">
        <ele>125.901047</ele>
        <time>2022-03-20T11:41:28Z</time>
      </trkpt>
      <trkpt lat="50.32946" lon="4.29222">
        <ele>125.938026</ele>
        <time>2022-03-20T11:41:30Z</time>
      </trkpt>
      <trkpt lat="50.32943" lon="4.29236">
        <ele>126.112465</ele>
        <time>2022-03-20T11:41:32Z</time>
      </trkpt>
      <trkpt lat="50.3294" lon="4.29251">
        <ele>126.168541</ele>
        <time>2022-03-20T11:41:34Z</time>
      </trkpt>
      <trkpt lat="50.32938" lon="4.29266">
        <ele>126.272377</ele>
        <time>2022-03-20T11:41:36Z</time>
      </trkpt>
      <trkpt lat="50.32937" lon="4.2928">
        <ele>126.434265</ele>
        <time>2022-03-20T11:41:38Z</time>
      </trkpt>
      <trkpt lat="50.32933" lon="4.29295">
        <ele>126.508316</ele>
        <time>2022-03-20T11:41:40Z</time>
      </trkpt>
      <trkpt lat="50.32934" lon="4.2931">
        <ele>126.740906</ele>
        <time>2022-03-20T11:41:42Z</time>
      </trkpt>
      <trkpt lat="50.32942" lon="4.29323">
        <ele>126.833458</ele>
        <time>2022-03-20T11:41:44Z</time>
      </trkpt>
      <trkpt lat="50.32954" lon="4.29331">
        <ele>127.012413</ele>
        <time>2022-03-20T11:41:46Z</time>
      </trkpt>
      <trkpt lat="50.32967" lon="4.29332">
        <ele>126.993736</ele>
        <time>2022-03-20T11:41:48Z</time>
      </trkpt>
      <trkpt lat="50.32978" lon="4.29334">
        <ele>127.059898</ele>
        <time>2022-03-20T11:41:50Z</time>
      </trkpt>
      <trkpt lat="50.32989" lon="4.29336">
        <ele>127.05912</ele>
        <time>2022-03-20T11:41:52Z</time>
      </trkpt>
      <trkpt lat="50.33001" lon="4.29345">
        <ele>127.210709</ele>
        <time>2022-03-20T11:41:54Z</time>
      </trkpt>
      <trkpt lat="50.33013" lon="4.29353">
        <ele>127.293762</ele>
        <time>2022-03-20T11:41:56Z</time>
      </trkpt>
      <trkpt lat="50.33025" lon="4.29361">
        <ele>127.380676</ele>
        <time>2022-03-20T11:41:58Z</time>
      </trkpt>
      <trkpt lat="50.33035" lon="4.29366">
        <ele>127.415588</ele>
        <time>2022-03-20T11:42:00Z</time>
      </trkpt>
      <trkpt lat="50.33044" lon="4.29372">
        <ele>127.394814</ele>
        <time>2022-03-20T11:42:02Z</time>
      </trkpt>
      <trkpt lat="50.33054" lon="4.29378">
        <ele>127.394814</ele>
        <time>2022-03-20T11:42:04Z</time>
      </trkpt>
      <trkpt lat="50.33063" lon="4.29382">
        <ele>127.42572</ele>
        <time>2022-03-20T11:42:06Z</time>
      </trkpt>
      <trkpt lat="50.3307" lon="4.29385">
        <ele>127.417397</ele>
        <time>2022-03-20T11:42:08Z</time>
      </trkpt>
      <trkpt lat="50.33077" lon="4.29385">
        <ele>127.415504</ele>
        <time>2022-03-20T11:42:10Z</time>
      </trkpt>
      <trkpt lat="50.33084" lon="4.29381">
        <ele>127.376244</ele>
        <time>2022-03-20T11:42:12Z</time>
      </trkpt>
      <trkpt lat="50.3309" lon="4.29379">
        <ele>127.316002</ele>
        <time>2022-03-20T11:42:14Z</time>
      </trkpt>
      <trkpt lat="50.33094" lon="4.29374">
        <ele>127.241249</ele>
        <time>2022-03-20T11:42:16Z</time>
      </trkpt>
      <trkpt lat="50.33094" lon="4.29367">
        <ele>127.170631</ele>
        <time>2022-03-20T11:42:18Z</time>
      </trkpt>
      <trkpt lat="50.33094" lon="4.29361">
        <ele>126.99614</ele>
        <time>2022-03-20T11:42:20Z</time>
      </trkpt>
      <trkpt lat="50.33091" lon="4.29359">
        <ele>126.838295</ele>
        <time>2022-03-20T11:42:22Z</time>
      </trkpt>
      <trkpt lat="50.33088" lon="4.29358">
        <ele>126.654129</ele>
        <time>2022-03-20T11:42:24Z</time>
      </trkpt>
      <trkpt lat="50.33085" lon="4.29356">
        <ele>126.51973</ele>
        <time>2022-03-20T11:42:26Z</time>
      </trkpt>
      <trkpt lat="50.33083" lon="4.29355">
        <ele>126.436661</ele>
        <time>2022-03-20T11:42:27Z</time>
      </trkpt>
      <trkpt lat="50.33084" lon="4.29352">
        <ele>126.361069</ele>
        <time>2022-03-20T11:42:29Z</time>
      </trkpt>
      <trkpt lat="50.33085" lon="4.29346">
        <ele>126.205612</ele>
        <time>2022-03-20T11:42:31Z</time>
      </trkpt>
      <trkpt lat="50.33086" lon="4.29339">
        <ele>126.074791</ele>
        <time>2022-03-20T11:42:33Z</time>
      </trkpt>
      <trkpt lat="50.33088" lon="4.29331">
        <ele>125.898293</ele>
        <time>2022-03-20T11:42:35Z</time>
      </trkpt>
      <trkpt lat="50.33088" lon="4.29325">
        <ele>125.709328</ele>
        <time>2022-03-20T11:42:37Z</time>
      </trkpt>
      <trkpt lat="50.33089" lon="4.29321">
        <ele>125.520363</ele>
        <time>2022-03-20T11:42:39Z</time>
      </trkpt>
      <trkpt lat="50.33091" lon="4.29317">
        <ele>125.377602</ele>
        <time>2022-03-20T11:42:41Z</time>
      </trkpt>
      <trkpt lat="50.33092" lon="4.29313">
        <ele>125.304932</ele>
        <time>2022-03-20T11:42:43Z</time>
      </trkpt>
      <trkpt lat="50.33093" lon="4.29309">
        <ele>125.200729</ele>
        <time>2022-03-20T11:42:45Z</time>
      </trkpt>
      <trkpt lat="50.33095" lon="4.29307">
        <ele>125.074074</ele>
        <time>2022-03-20T11:42:47Z</time>
      </trkpt>
      <trkpt lat="50.33096" lon="4.29304">
        <ele>124.961044</ele>
        <time>2022-03-20T11:42:49Z</time>
      </trkpt>
      <trkpt lat="50.33102" lon="4.29295">
        <ele>124.564148</ele>
        <time>2022-03-20T11:43:18Z</time>
      </trkpt>
      <trkpt lat="50.33103" lon="4.29294">
        <ele>124.578674</ele>
        <time>2022-03-20T11:43:20Z</time>
      </trkpt>
      <trkpt lat="50.33104" lon="4.29292">
        <ele>124.642372</ele>
        <time>2022-03-20T11:43:22Z</time>
      </trkpt>
      <trkpt lat="50.33105" lon="4.29289">
        <ele>124.750206</ele>
        <time>2022-03-20T11:43:26Z</time>
      </trkpt>
      <trkpt lat="50.33105" lon="4.29286">
        <ele>124.802124</ele>
        <time>2022-03-20T11:43:28Z</time>
      </trkpt>
      <trkpt lat="50.33104" lon="4.29286">
        <ele>124.817947</ele>
        <time>2022-03-20T11:43:30Z</time>
      </trkpt>
      <trkpt lat="50.33104" lon="4.29286">
        <ele>124.810196</ele>
        <time>2022-03-20T11:43:32Z</time>
      </trkpt>
      <trkpt lat="50.33099" lon="4.29286">
        <ele>124.953552</ele>
        <time>2022-03-20T11:43:40Z</time>
      </trkpt>
      <trkpt lat="50.33098" lon="4.29284">
        <ele>125.024147</ele>
        <time>2022-03-20T11:43:42Z</time>
      </trkpt>
      <trkpt lat="50.33096" lon="4.29283">
        <ele>125.117592</ele>
        <time>2022-03-20T11:43:44Z</time>
      </trkpt>
      <trkpt lat="50.33095" lon="4.29282">
        <ele>125.223495</ele>
        <time>2022-03-20T11:43:46Z</time>
      </trkpt>
      <trkpt lat="50.33094" lon="4.29281">
        <ele>125.358482</ele>
        <time>2022-03-20T11:43:48Z</time>
      </trkpt>
      <trkpt lat="50.33093" lon="4.2928">
        <ele>125.518387</ele>
        <time>2022-03-20T11:43:50Z</time>
      </trkpt>
      <trkpt lat="50.33091" lon="4.29278">
        <ele>125.663773</ele>
        <time>2022-03-20T11:43:52Z</time>
      </trkpt>
      <trkpt lat="50.33089" lon="4.29277">
        <ele>125.881836</ele>
        <time>2022-03-20T11:43:54Z</time>
      </trkpt>
      <trkpt lat="50.33081" lon="4.29275">
        <ele>127.062866</ele>
        <time>2022-03-20T11:44:06Z</time>
      </trkpt>
      <trkpt lat="50.33079" lon="4.29273">
        <ele>127.771828</ele>
        <time>2022-03-20T11:44:11Z</time>
      </trkpt>
      <trkpt lat="50.33078" lon="4.29271">
        <ele>128.067368</ele>
        <time>2022-03-20T11:44:13Z</time>
      </trkpt>
      <trkpt lat="50.33077" lon="4.2927">
        <ele>128.420486</ele>
        <time>2022-03-20T11:44:15Z</time>
      </trkpt>
      <trkpt lat="50.33075" lon="4.29269">
        <ele>128.764404</ele>
        <time>2022-03-20T11:44:17Z</time>
      </trkpt>
      <trkpt lat="50.33071" lon="4.29266">
        <ele>129.414597</ele>
        <time>2022-03-20T11:44:21Z</time>
      </trkpt>
      <trkpt lat="50.33067" lon="4.29266">
        <ele>129.782303</ele>
        <time>2022-03-20T11:44:23Z</time>
      </trkpt>
      <trkpt lat="50.33067" lon="4.29265">
        <ele>129.97757</ele>
        <time>2022-03-20T11:44:25Z</time>
      </trkpt>
      <trkpt lat="50.33065" lon="4.29264">
        <ele>130.32724</ele>
        <time>2022-03-20T11:44:27Z</time>
      </trkpt>
      <trkpt lat="50.33063" lon="4.29262">
        <ele>131.048676</ele>
        <time>2022-03-20T11:44:31Z</time>
      </trkpt>
      <trkpt lat="50.33061" lon="4.29261">
        <ele>131.391525</ele>
        <time>2022-03-20T11:44:33Z</time>
      </trkpt>
      <trkpt lat="50.33059" lon="4.29259">
        <ele>131.711517</ele>
        <time>2022-03-20T11:44:35Z</time>
      </trkpt>
      <trkpt lat="50.33057" lon="4.29258">
        <ele>132.087448</ele>
        <time>2022-03-20T11:44:37Z</time>
      </trkpt>
      <trkpt lat="50.33056" lon="4.29252">
        <ele>137.462448</ele>
        <time>2022-03-20T11:45:23Z</time>
      </trkpt>
      <trkpt lat="50.33054" lon="4.29246">
        <ele>137.595779</ele>
        <time>2022-03-20T11:45:25Z</time>
      </trkpt>
      <trkpt lat="50.33055" lon="4.2924">
        <ele>137.745453</ele>
        <time>2022-03-20T11:45:27Z</time>
      </trkpt>
      <trkpt lat="50.33056" lon="4.29238">
        <ele>137.84317</ele>
        <time>2022-03-20T11:45:29Z</time>
      </trkpt>
      <trkpt lat="50.33058" lon="4.29235">
        <ele>137.992874</ele>
        <time>2022-03-20T11:45:31Z</time>
      </trkpt>
      <trkpt lat="50.3306" lon="4.29232">
        <ele>138.109299</ele>
        <time>2022-03-20T11:45:33Z</time>
      </trkpt>
      <trkpt lat="50.33061" lon="4.2923">
        <ele>138.23822</ele>
        <time>2022-03-20T11:45:35Z</time>
      </trkpt>
      <trkpt lat="50.33062" lon="4.29225">
        <ele>138.536987</ele>
        <time>2022-03-20T11:45:39Z</time>
      </trkpt>
      <trkpt lat="50.33063" lon="4.29222">
        <ele>138.709595</ele>
        <time>2022-03-20T11:45:41Z</time>
      </trkpt>
      <trkpt lat="50.33063" lon="4.29219">
        <ele>139.409714</ele>
        <time>2022-03-20T11:45:43Z</time>
      </trkpt>
      <trkpt lat="50.33064" lon="4.29216">
        <ele>139.559418</ele>
        <time>2022-03-20T11:45:45Z</time>
      </trkpt>
      <trkpt lat="50.33066" lon="4.29213">
        <ele>139.759064</ele>
        <time>2022-03-20T11:45:47Z</time>
      </trkpt>
      <trkpt lat="50.33067" lon="4.29209">
        <ele>140.00444</ele>
        <time>2022-03-20T11:45:50Z</time>
      </trkpt>
      <trkpt lat="50.3307" lon="4.29206">
        <ele>140.210327</ele>
        <time>2022-03-20T11:45:52Z</time>
      </trkpt>
      <trkpt lat="50.33072" lon="4.29203">
        <ele>140.34758</ele>
        <time>2022-03-20T11:45:54Z</time>
      </trkpt>
      <trkpt lat="50.33074" lon="4.292">
        <ele>140.531815</ele>
        <time>2022-03-20T11:45:56Z</time>
      </trkpt>
      <trkpt lat="50.33077" lon="4.29198">
        <ele>140.674805</ele>
        <time>2022-03-20T11:45:58Z</time>
      </trkpt>
      <trkpt lat="50.33079" lon="4.29196">
        <ele>140.622894</ele>
        <time>2022-03-20T11:46:00Z</time>
      </trkpt>
      <trkpt lat="50.33082" lon="4.29193">
        <ele>142.01033</ele>
        <time>2022-03-20T11:46:06Z</time>
      </trkpt>
      <trkpt lat="50.33085" lon="4.29191">
        <ele>142.324417</ele>
        <time>2022-03-20T11:46:08Z</time>
      </trkpt>
      <trkpt lat="50.33087" lon="4.29191">
        <ele>142.59993</ele>
        <time>2022-03-20T11:46:10Z</time>
      </trkpt>
      <trkpt lat="50.33089" lon="4.2919">
        <ele>142.85994</ele>
        <time>2022-03-20T11:46:12Z</time>
      </trkpt>
      <trkpt lat="50.33092" lon="4.29189">
        <ele>143.483948</ele>
        <time>2022-03-20T11:46:16Z</time>
      </trkpt>
      <trkpt lat="50.33094" lon="4.29188">
        <ele>143.731049</ele>
        <time>2022-03-20T11:46:18Z</time>
      </trkpt>
      <trkpt lat="50.33103" lon="4.29189">
        <ele>144.268829</ele>
        <time>2022-03-20T11:46:21Z</time>
      </trkpt>
      <trkpt lat="50.33107" lon="4.29188">
        <ele>144.483063</ele>
        <time>2022-03-20T11:46:24Z</time>
      </trkpt>
      <trkpt lat="50.33111" lon="4.29188">
        <ele>144.764252</ele>
        <time>2022-03-20T11:46:26Z</time>
      </trkpt>
      <trkpt lat="50.33115" lon="4.2919">
        <ele>144.861725</ele>
        <time>2022-03-20T11:46:28Z</time>
      </trkpt>
      <trkpt lat="50.33118" lon="4.29191">
        <ele>145.142548</ele>
        <time>2022-03-20T11:46:30Z</time>
      </trkpt>
      <trkpt lat="50.3312" lon="4.29191">
        <ele>145.358917</ele>
        <time>2022-03-20T11:46:32Z</time>
      </trkpt>
      <trkpt lat="50.33122" lon="4.29191">
        <ele>146.784378</ele>
        <time>2022-03-20T11:46:53Z</time>
      </trkpt>
      <trkpt lat="50.33132" lon="4.2919">
        <ele>146.813507</ele>
        <time>2022-03-20T11:46:55Z</time>
      </trkpt>
      <trkpt lat="50.33134" lon="4.29192">
        <ele>146.817673</ele>
        <time>2022-03-20T11:46:57Z</time>
      </trkpt>
      <trkpt lat="50.33136" lon="4.29195">
        <ele>146.836426</ele>
        <time>2022-03-20T11:46:59Z</time>
      </trkpt>
      <trkpt lat="50.33139" lon="4.29201">
        <ele>146.855148</ele>
        <time>2022-03-20T11:47:01Z</time>
      </trkpt>
      <trkpt lat="50.33146" lon="4.29205">
        <ele>146.828094</ele>
        <time>2022-03-20T11:47:03Z</time>
      </trkpt>
      <trkpt lat="50.33152" lon="4.29207">
        <ele>146.925934</ele>
        <time>2022-03-20T11:47:05Z</time>
      </trkpt>
      <trkpt lat="50.33162" lon="4.29209">
        <ele>146.744583</ele>
        <time>2022-03-20T11:47:07Z</time>
      </trkpt>
      <trkpt lat="50.33173" lon="4.29213">
        <ele>146.672974</ele>
        <time>2022-03-20T11:47:09Z</time>
      </trkpt>
      <trkpt lat="50.33185" lon="4.2922">
        <ele>146.510696</ele>
        <time>2022-03-20T11:47:11Z</time>
      </trkpt>
      <trkpt lat="50.33194" lon="4.29227">
        <ele>146.440918</ele>
        <time>2022-03-20T11:47:13Z</time>
      </trkpt>
      <trkpt lat="50.33198" lon="4.29231">
        <ele>146.378494</ele>
        <time>2022-03-20T11:47:15Z</time>
      </trkpt>
      <trkpt lat="50.33202" lon="4.29232">
        <ele>146.257813</ele>
        <time>2022-03-20T11:47:17Z</time>
      </trkpt>
      <trkpt lat="50.33205" lon="4.29233">
        <ele>146.141312</ele>
        <time>2022-03-20T11:47:19Z</time>
      </trkpt>
      <trkpt lat="50.33208" lon="4.29234">
        <ele>146.022827</ele>
        <time>2022-03-20T11:47:21Z</time>
      </trkpt>
      <trkpt lat="50.3321" lon="4.29235">
        <ele>145.929199</ele>
        <time>2022-03-20T11:47:23Z</time>
      </trkpt>
      <trkpt lat="50.33213" lon="4.29237">
        <ele>145.865814</ele>
        <time>2022-03-20T11:47:25Z</time>
      </trkpt>
      <trkpt lat="50.33216" lon="4.29238">
        <ele>145.806488</ele>
        <time>2022-03-20T11:47:27Z</time>
      </trkpt>
      <trkpt lat="50.33218" lon="4.29239">
        <ele>145.718552</ele>
        <time>2022-03-20T11:47:29Z</time>
      </trkpt>
      <trkpt lat="50.33223" lon="4.29242">
        <ele>145.539612</ele>
        <time>2022-03-20T11:47:35Z</time>
      </trkpt>
      <trkpt lat="50.33227" lon="4.29245">
        <ele>145.429352</ele>
        <time>2022-03-20T11:47:37Z</time>
      </trkpt>
      <trkpt lat="50.33229" lon="4.29247">
        <ele>145.35025</ele>
        <time>2022-03-20T11:47:39Z</time>
      </trkpt>
      <trkpt lat="50.33232" lon="4.29249">
        <ele>145.299805</ele>
        <time>2022-03-20T11:47:41Z</time>
      </trkpt>
      <trkpt lat="50.33235" lon="4.29252">
        <ele>145.281082</ele>
        <time>2022-03-20T11:47:43Z</time>
      </trkpt>
      <trkpt lat="50.33238" lon="4.29255">
        <ele>145.210327</ele>
        <time>2022-03-20T11:47:45Z</time>
      </trkpt>
      <trkpt lat="50.33243" lon="4.2926">
        <ele>145.280609</ele>
        <time>2022-03-20T11:47:47Z</time>
      </trkpt>
      <trkpt lat="50.33245" lon="4.29263">
        <ele>145.365921</ele>
        <time>2022-03-20T11:47:49Z</time>
      </trkpt>
      <trkpt lat="50.33247" lon="4.29265">
        <ele>145.432465</ele>
        <time>2022-03-20T11:47:51Z</time>
      </trkpt>
      <trkpt lat="50.3325" lon="4.29268">
        <ele>145.596832</ele>
        <time>2022-03-20T11:47:53Z</time>
      </trkpt>
      <trkpt lat="50.33252" lon="4.2927">
        <ele>145.631989</ele>
        <time>2022-03-20T11:47:55Z</time>
      </trkpt>
      <trkpt lat="50.33253" lon="4.29272">
        <ele>145.729782</ele>
        <time>2022-03-20T11:47:57Z</time>
      </trkpt>
      <trkpt lat="50.33256" lon="4.29274">
        <ele>145.858795</ele>
        <time>2022-03-20T11:47:59Z</time>
      </trkpt>
      <trkpt lat="50.3326" lon="4.29277">
        <ele>145.956451</ele>
        <time>2022-03-20T11:48:01Z</time>
      </trkpt>
      <trkpt lat="50.33262" lon="4.29279">
        <ele>146.081299</ele>
        <time>2022-03-20T11:48:03Z</time>
      </trkpt>
      <trkpt lat="50.33264" lon="4.29282">
        <ele>146.212158</ele>
        <time>2022-03-20T11:48:05Z</time>
      </trkpt>
      <trkpt lat="50.33266" lon="4.29284">
        <ele>146.338089</ele>
        <time>2022-03-20T11:48:07Z</time>
      </trkpt>
      <trkpt lat="50.33269" lon="4.29287">
        <ele>146.444214</ele>
        <time>2022-03-20T11:48:09Z</time>
      </trkpt>
      <trkpt lat="50.33272" lon="4.29289">
        <ele>146.5961</ele>
        <time>2022-03-20T11:48:11Z</time>
      </trkpt>
      <trkpt lat="50.33273" lon="4.29293">
        <ele>146.767181</ele>
        <time>2022-03-20T11:48:13Z</time>
      </trkpt>
      <trkpt lat="50.33276" lon="4.29296">
        <ele>146.919098</ele>
        <time>2022-03-20T11:48:15Z</time>
      </trkpt>
      <trkpt lat="50.33279" lon="4.293">
        <ele>147.108734</ele>
        <time>2022-03-20T11:48:17Z</time>
      </trkpt>
      <trkpt lat="50.33284" lon="4.29302">
        <ele>147.316849</ele>
        <time>2022-03-20T11:48:19Z</time>
      </trkpt>
      <trkpt lat="50.33287" lon="4.29303">
        <ele>147.499969</ele>
        <time>2022-03-20T11:48:21Z</time>
      </trkpt>
      <trkpt lat="50.33291" lon="4.29305">
        <ele>147.691925</ele>
        <time>2022-03-20T11:48:23Z</time>
      </trkpt>
      <trkpt lat="50.33295" lon="4.29309">
        <ele>147.777802</ele>
        <time>2022-03-20T11:48:25Z</time>
      </trkpt>
      <trkpt lat="50.33299" lon="4.29312">
        <ele>147.98967</ele>
        <time>2022-03-20T11:48:27Z</time>
      </trkpt>
      <trkpt lat="50.33301" lon="4.29314">
        <ele>148.112885</ele>
        <time>2022-03-20T11:48:29Z</time>
      </trkpt>
      <trkpt lat="50.33304" lon="4.29318">
        <ele>148.352203</ele>
        <time>2022-03-20T11:48:31Z</time>
      </trkpt>
      <trkpt lat="50.3331" lon="4.2932">
        <ele>148.609406</ele>
        <time>2022-03-20T11:48:33Z</time>
      </trkpt>
      <trkpt lat="50.33314" lon="4.29323">
        <ele>148.857071</ele>
        <time>2022-03-20T11:48:35Z</time>
      </trkpt>
      <trkpt lat="50.33316" lon="4.29327">
        <ele>149.161163</ele>
        <time>2022-03-20T11:48:37Z</time>
      </trkpt>
      <trkpt lat="50.3332" lon="4.29332">
        <ele>149.377472</ele>
        <time>2022-03-20T11:48:39Z</time>
      </trkpt>
      <trkpt lat="50.33323" lon="4.29338">
        <ele>149.675125</ele>
        <time>2022-03-20T11:48:41Z</time>
      </trkpt>
      <trkpt lat="50.33326" lon="4.29344">
        <ele>149.970703</ele>
        <time>2022-03-20T11:48:43Z</time>
      </trkpt>
      <trkpt lat="50.3333" lon="4.29351">
        <ele>150.278778</ele>
        <time>2022-03-20T11:48:45Z</time>
      </trkpt>
      <trkpt lat="50.33332" lon="4.29357">
        <ele>150.600525</ele>
        <time>2022-03-20T11:48:47Z</time>
      </trkpt>
      <trkpt lat="50.33334" lon="4.29363">
        <ele>150.931488</ele>
        <time>2022-03-20T11:48:49Z</time>
      </trkpt>
      <trkpt lat="50.33336" lon="4.29368">
        <ele>151.256241</ele>
        <time>2022-03-20T11:48:51Z</time>
      </trkpt>
      <trkpt lat="50.33338" lon="4.29372">
        <ele>151.583099</ele>
        <time>2022-03-20T11:48:53Z</time>
      </trkpt>
      <trkpt lat="50.33339" lon="4.29378">
        <ele>151.763779</ele>
        <time>2022-03-20T11:48:55Z</time>
      </trkpt>
      <trkpt lat="50.33341" lon="4.29383">
        <ele>152.075165</ele>
        <time>2022-03-20T11:48:57Z</time>
      </trkpt>
      <trkpt lat="50.33344" lon="4.2939">
        <ele>152.413315</ele>
        <time>2022-03-20T11:48:59Z</time>
      </trkpt>
      <trkpt lat="50.33347" lon="4.29397">
        <ele>152.737442</ele>
        <time>2022-03-20T11:49:01Z</time>
      </trkpt>
      <trkpt lat="50.33347" lon="4.29405">
        <ele>153.060516</ele>
        <time>2022-03-20T11:49:03Z</time>
      </trkpt>
      <trkpt lat="50.33348" lon="4.29412">
        <ele>153.406448</ele>
        <time>2022-03-20T11:49:05Z</time>
      </trkpt>
      <trkpt lat="50.33349" lon="4.29418">
        <ele>153.707779</ele>
        <time>2022-03-20T11:49:07Z</time>
      </trkpt>
      <trkpt lat="50.33348" lon="4.29422">
        <ele>154.066299</ele>
        <time>2022-03-20T11:49:09Z</time>
      </trkpt>
      <trkpt lat="50.33347" lon="4.2943">
        <ele>154.463974</ele>
        <time>2022-03-20T11:49:11Z</time>
      </trkpt>
      <trkpt lat="50.33347" lon="4.29438">
        <ele>154.749252</ele>
        <time>2022-03-20T11:49:13Z</time>
      </trkpt>
      <trkpt lat="50.33349" lon="4.29446">
        <ele>155.067856</ele>
        <time>2022-03-20T11:49:15Z</time>
      </trkpt>
      <trkpt lat="50.33347" lon="4.29453">
        <ele>155.321915</ele>
        <time>2022-03-20T11:49:17Z</time>
      </trkpt>
      <trkpt lat="50.33348" lon="4.29461">
        <ele>155.60849</ele>
        <time>2022-03-20T11:49:19Z</time>
      </trkpt>
      <trkpt lat="50.33349" lon="4.29468">
        <ele>155.918777</ele>
        <time>2022-03-20T11:49:21Z</time>
      </trkpt>
      <trkpt lat="50.33347" lon="4.29474">
        <ele>156.170776</ele>
        <time>2022-03-20T11:49:23Z</time>
      </trkpt>
      <trkpt lat="50.33347" lon="4.29481">
        <ele>156.291275</ele>
        <time>2022-03-20T11:49:25Z</time>
      </trkpt>
      <trkpt lat="50.33347" lon="4.29487">
        <ele>156.534943</ele>
        <time>2022-03-20T11:49:27Z</time>
      </trkpt>
      <trkpt lat="50.33347" lon="4.29493">
        <ele>156.755722</ele>
        <time>2022-03-20T11:49:29Z</time>
      </trkpt>
      <trkpt lat="50.33347" lon="4.29496">
        <ele>156.87027</ele>
        <time>2022-03-20T11:49:30Z</time>
      </trkpt>
      <trkpt lat="50.33347" lon="4.29504">
        <ele>157.075897</ele>
        <time>2022-03-20T11:49:32Z</time>
      </trkpt>
      <trkpt lat="50.3335" lon="4.29511">
        <ele>157.267517</ele>
        <time>2022-03-20T11:49:34Z</time>
      </trkpt>
      <trkpt lat="50.33352" lon="4.29518">
        <ele>157.513306</ele>
        <time>2022-03-20T11:49:36Z</time>
      </trkpt>
      <trkpt lat="50.33351" lon="4.29521">
        <ele>157.618332</ele>
        <time>2022-03-20T11:49:37Z</time>
      </trkpt>
      <trkpt lat="50.33352" lon="4.29524">
        <ele>157.691238</ele>
        <time>2022-03-20T11:49:38Z</time>
      </trkpt>
      <trkpt lat="50.33353" lon="4.29528">
        <ele>158.325958</ele>
        <time>2022-03-20T11:49:40Z</time>
      </trkpt>
      <trkpt lat="50.33355" lon="4.29532">
        <ele>158.558167</ele>
        <time>2022-03-20T11:49:42Z</time>
      </trkpt>
      <trkpt lat="50.33357" lon="4.29538">
        <ele>158.732773</ele>
        <time>2022-03-20T11:49:44Z</time>
      </trkpt>
      <trkpt lat="50.33357" lon="4.29542">
        <ele>158.924072</ele>
        <time>2022-03-20T11:49:46Z</time>
      </trkpt>
      <trkpt lat="50.3336" lon="4.29548">
        <ele>159.072052</ele>
        <time>2022-03-20T11:49:48Z</time>
      </trkpt>
      <trkpt lat="50.33362" lon="4.29555">
        <ele>159.317856</ele>
        <time>2022-03-20T11:49:50Z</time>
      </trkpt>
      <trkpt lat="50.33366" lon="4.29562">
        <ele>159.438675</ele>
        <time>2022-03-20T11:49:52Z</time>
      </trkpt>
      <trkpt lat="50.33369" lon="4.2957">
        <ele>159.567841</ele>
        <time>2022-03-20T11:49:54Z</time>
      </trkpt>
      <trkpt lat="50.33369" lon="4.29578">
        <ele>159.709488</ele>
        <time>2022-03-20T11:49:56Z</time>
      </trkpt>
      <trkpt lat="50.3337" lon="4.29585">
        <ele>159.860413</ele>
        <time>2022-03-20T11:49:58Z</time>
      </trkpt>
      <trkpt lat="50.33371" lon="4.29591">
        <ele>160.000946</ele>
        <time>2022-03-20T11:50:00Z</time>
      </trkpt>
      <trkpt lat="50.33372" lon="4.29599">
        <ele>160.188446</ele>
        <time>2022-03-20T11:50:02Z</time>
      </trkpt>
      <trkpt lat="50.33374" lon="4.29607">
        <ele>160.35173</ele>
        <time>2022-03-20T11:50:04Z</time>
      </trkpt>
      <trkpt lat="50.33375" lon="4.29614">
        <ele>160.441315</ele>
        <time>2022-03-20T11:50:06Z</time>
      </trkpt>
      <trkpt lat="50.33376" lon="4.29621">
        <ele>160.610367</ele>
        <time>2022-03-20T11:50:08Z</time>
      </trkpt>
      <trkpt lat="50.33379" lon="4.29627">
        <ele>160.779144</ele>
        <time>2022-03-20T11:50:10Z</time>
      </trkpt>
      <trkpt lat="50.33381" lon="4.29632">
        <ele>160.989563</ele>
        <time>2022-03-20T11:50:12Z</time>
      </trkpt>
      <trkpt lat="50.33381" lon="4.29635">
        <ele>161.112885</ele>
        <time>2022-03-20T11:50:13Z</time>
      </trkpt>
      <trkpt lat="50.33383" lon="4.29643">
        <ele>161.209076</ele>
        <time>2022-03-20T11:50:15Z</time>
      </trkpt>
      <trkpt lat="50.33384" lon="4.29648">
        <ele>161.398697</ele>
        <time>2022-03-20T11:50:17Z</time>
      </trkpt>
      <trkpt lat="50.33386" lon="4.29654">
        <ele>161.518112</ele>
        <time>2022-03-20T11:50:19Z</time>
      </trkpt>
      <trkpt lat="50.33389" lon="4.2966">
        <ele>161.740799</ele>
        <time>2022-03-20T11:50:21Z</time>
      </trkpt>
      <trkpt lat="50.33392" lon="4.29666">
        <ele>161.425385</ele>
        <time>2022-03-20T11:50:23Z</time>
      </trkpt>
      <trkpt lat="50.33394" lon="4.29675">
        <ele>161.57872</ele>
        <time>2022-03-20T11:50:25Z</time>
      </trkpt>
      <trkpt lat="50.33395" lon="4.29682">
        <ele>161.837112</ele>
        <time>2022-03-20T11:50:27Z</time>
      </trkpt>
      <trkpt lat="50.33398" lon="4.29692">
        <ele>161.989151</ele>
        <time>2022-03-20T11:50:29Z</time>
      </trkpt>
      <trkpt lat="50.334" lon="4.29701">
        <ele>162.218384</ele>
        <time>2022-03-20T11:50:31Z</time>
      </trkpt>
      <trkpt lat="50.33404" lon="4.29709">
        <ele>162.372589</ele>
        <time>2022-03-20T11:50:33Z</time>
      </trkpt>
      <trkpt lat="50.33406" lon="4.29713">
        <ele>162.59111</ele>
        <time>2022-03-20T11:50:35Z</time>
      </trkpt>
      <trkpt lat="50.33416" lon="4.2972">
        <ele>164.573517</ele>
        <time>2022-03-20T11:50:57Z</time>
      </trkpt>
      <trkpt lat="50.33415" lon="4.29729">
        <ele>164.953384</ele>
        <time>2022-03-20T11:52:59Z</time>
      </trkpt>
      <trkpt lat="50.33416" lon="4.29744">
        <ele>164.983551</ele>
        <time>2022-03-20T11:53:01Z</time>
      </trkpt>
      <trkpt lat="50.33418" lon="4.29751">
        <ele>165.02594</ele>
        <time>2022-03-20T11:53:03Z</time>
      </trkpt>
      <trkpt lat="50.33419" lon="4.29761">
        <ele>164.98941</ele>
        <time>2022-03-20T11:53:05Z</time>
      </trkpt>
      <trkpt lat="50.33416" lon="4.29767">
        <ele>164.95401</ele>
        <time>2022-03-20T11:53:07Z</time>
      </trkpt>
      <trkpt lat="50.33411" lon="4.29772">
        <ele>164.931076</ele>
        <time>2022-03-20T11:53:09Z</time>
      </trkpt>
      <trkpt lat="50.33406" lon="4.29777">
        <ele>164.92691</ele>
        <time>2022-03-20T11:53:11Z</time>
      </trkpt>
      <trkpt lat="50.33401" lon="4.29782">
        <ele>164.897583</ele>
        <time>2022-03-20T11:53:13Z</time>
      </trkpt>
      <trkpt lat="50.33396" lon="4.29789">
        <ele>164.889252</ele>
        <time>2022-03-20T11:53:15Z</time>
      </trkpt>
      <trkpt lat="50.33391" lon="4.29795">
        <ele>164.828812</ele>
        <time>2022-03-20T11:53:17Z</time>
      </trkpt>
      <trkpt lat="50.33386" lon="4.29802">
        <ele>164.837143</ele>
        <time>2022-03-20T11:53:19Z</time>
      </trkpt>
      <trkpt lat="50.33381" lon="4.2981">
        <ele>164.885086</ele>
        <time>2022-03-20T11:53:21Z</time>
      </trkpt>
      <trkpt lat="50.33376" lon="4.2982">
        <ele>164.889053</ele>
        <time>2022-03-20T11:53:23Z</time>
      </trkpt>
      <trkpt lat="50.3337" lon="4.29829">
        <ele>164.974518</ele>
        <time>2022-03-20T11:53:25Z</time>
      </trkpt>
      <trkpt lat="50.33365" lon="4.29839">
        <ele>165.030807</ele>
        <time>2022-03-20T11:53:27Z</time>
      </trkpt>
      <trkpt lat="50.3336" lon="4.29849">
        <ele>165.101685</ele>
        <time>2022-03-20T11:53:29Z</time>
      </trkpt>
      <trkpt lat="50.33355" lon="4.2986">
        <ele>165.206818</ele>
        <time>2022-03-20T11:53:31Z</time>
      </trkpt>
      <trkpt lat="50.33351" lon="4.29869">
        <ele>165.32193</ele>
        <time>2022-03-20T11:53:33Z</time>
      </trkpt>
      <trkpt lat="50.33345" lon="4.29878">
        <ele>165.476273</ele>
        <time>2022-03-20T11:53:35Z</time>
      </trkpt>
      <trkpt lat="50.33339" lon="4.29888">
        <ele>165.622345</ele>
        <time>2022-03-20T11:53:37Z</time>
      </trkpt>
      <trkpt lat="50.33334" lon="4.29898">
        <ele>165.746124</ele>
        <time>2022-03-20T11:53:39Z</time>
      </trkpt>
      <trkpt lat="50.33329" lon="4.29908">
        <ele>165.891083</ele>
        <time>2022-03-20T11:53:41Z</time>
      </trkpt>
      <trkpt lat="50.33324" lon="4.29917">
        <ele>166.030838</ele>
        <time>2022-03-20T11:53:43Z</time>
      </trkpt>
      <trkpt lat="50.33318" lon="4.29927">
        <ele>166.238327</ele>
        <time>2022-03-20T11:53:45Z</time>
      </trkpt>
      <trkpt lat="50.3331" lon="4.29943">
        <ele>166.646927</ele>
        <time>2022-03-20T11:53:48Z</time>
      </trkpt>
      <trkpt lat="50.33308" lon="4.29948">
        <ele>166.797028</ele>
        <time>2022-03-20T11:53:49Z</time>
      </trkpt>
      <trkpt lat="50.33302" lon="4.29958">
        <ele>167.039261</ele>
        <time>2022-03-20T11:53:51Z</time>
      </trkpt>
      <trkpt lat="50.33297" lon="4.29969">
        <ele>167.26651</ele>
        <time>2022-03-20T11:53:53Z</time>
      </trkpt>
      <trkpt lat="50.33291" lon="4.29981">
        <ele>167.393829</ele>
        <time>2022-03-20T11:53:55Z</time>
      </trkpt>
      <trkpt lat="50.33285" lon="4.29992">
        <ele>167.68779</ele>
        <time>2022-03-20T11:53:57Z</time>
      </trkpt>
      <trkpt lat="50.33279" lon="4.30003">
        <ele>168.017181</ele>
        <time>2022-03-20T11:53:59Z</time>
      </trkpt>
      <trkpt lat="50.33274" lon="4.30013">
        <ele>168.29451</ele>
        <time>2022-03-20T11:54:01Z</time>
      </trkpt>
      <trkpt lat="50.33268" lon="4.30022">
        <ele>168.605194</ele>
        <time>2022-03-20T11:54:03Z</time>
      </trkpt>
      <trkpt lat="50.33262" lon="4.3003">
        <ele>168.882721</ele>
        <time>2022-03-20T11:54:05Z</time>
      </trkpt>
      <trkpt lat="50.33255" lon="4.30037">
        <ele>169.145462</ele>
        <time>2022-03-20T11:54:07Z</time>
      </trkpt>
      <trkpt lat="50.33247" lon="4.30044">
        <ele>169.36232</ele>
        <time>2022-03-20T11:54:09Z</time>
      </trkpt>
      <trkpt lat="50.33239" lon="4.30051">
        <ele>169.495773</ele>
        <time>2022-03-20T11:54:11Z</time>
      </trkpt>
      <trkpt lat="50.33231" lon="4.30059">
        <ele>169.620895</ele>
        <time>2022-03-20T11:54:13Z</time>
      </trkpt>
      <trkpt lat="50.33223" lon="4.30067">
        <ele>169.848419</ele>
        <time>2022-03-20T11:54:15Z</time>
      </trkpt>
      <trkpt lat="50.33216" lon="4.30074">
        <ele>170.022064</ele>
        <time>2022-03-20T11:54:17Z</time>
      </trkpt>
      <trkpt lat="50.33208" lon="4.30081">
        <ele>170.225159</ele>
        <time>2022-03-20T11:54:19Z</time>
      </trkpt>
      <trkpt lat="50.33201" lon="4.30088">
        <ele>170.442047</ele>
        <time>2022-03-20T11:54:21Z</time>
      </trkpt>
      <trkpt lat="50.33193" lon="4.30095">
        <ele>170.562988</ele>
        <time>2022-03-20T11:54:23Z</time>
      </trkpt>
      <trkpt lat="50.33186" lon="4.30102">
        <ele>170.769455</ele>
        <time>2022-03-20T11:54:25Z</time>
      </trkpt>
      <trkpt lat="50.33178" lon="4.30109">
        <ele>170.923798</ele>
        <time>2022-03-20T11:54:27Z</time>
      </trkpt>
      <trkpt lat="50.33172" lon="4.30115">
        <ele>171.065628</ele>
        <time>2022-03-20T11:54:29Z</time>
      </trkpt>
      <trkpt lat="50.33165" lon="4.3012">
        <ele>171.177841</ele>
        <time>2022-03-20T11:54:31Z</time>
      </trkpt>
      <trkpt lat="50.33159" lon="4.30126">
        <ele>171.309479</ele>
        <time>2022-03-20T11:54:33Z</time>
      </trkpt>
      <trkpt lat="50.33152" lon="4.30132">
        <ele>171.453583</ele>
        <time>2022-03-20T11:54:35Z</time>
      </trkpt>
      <trkpt lat="50.33146" lon="4.30138">
        <ele>171.553711</ele>
        <time>2022-03-20T11:54:37Z</time>
      </trkpt>
      <trkpt lat="50.33139" lon="4.30143">
        <ele>171.718475</ele>
        <time>2022-03-20T11:54:39Z</time>
      </trkpt>
      <trkpt lat="50.33132" lon="4.30148">
        <ele>171.726837</ele>
        <time>2022-03-20T11:54:41Z</time>
      </trkpt>
      <trkpt lat="50.33125" lon="4.30154">
        <ele>171.820358</ele>
        <time>2022-03-20T11:54:43Z</time>
      </trkpt>
      <trkpt lat="50.33117" lon="4.30161">
        <ele>171.853119</ele>
        <time>2022-03-20T11:54:45Z</time>
      </trkpt>
      <trkpt lat="50.3311" lon="4.30168">
        <ele>171.892746</ele>
        <time>2022-03-20T11:54:47Z</time>
      </trkpt>
      <trkpt lat="50.33104" lon="4.30173">
        <ele>171.944901</ele>
        <time>2022-03-20T11:54:49Z</time>
      </trkpt>
      <trkpt lat="50.33098" lon="4.30178">
        <ele>172.05127</ele>
        <time>2022-03-20T11:54:51Z</time>
      </trkpt>
      <trkpt lat="50.33094" lon="4.30179">
        <ele>172.055466</ele>
        <time>2022-03-20T11:54:53Z</time>
      </trkpt>
      <trkpt lat="50.33093" lon="4.30175">
        <ele>172.123993</ele>
        <time>2022-03-20T11:54:55Z</time>
      </trkpt>
      <trkpt lat="50.33094" lon="4.3017">
        <ele>172.162964</ele>
        <time>2022-03-20T11:54:57Z</time>
      </trkpt>
      <trkpt lat="50.33095" lon="4.30162">
        <ele>172.150436</ele>
        <time>2022-03-20T11:54:59Z</time>
      </trkpt>
      <trkpt lat="50.33093" lon="4.30154">
        <ele>172.146759</ele>
        <time>2022-03-20T11:55:01Z</time>
      </trkpt>
      <trkpt lat="50.33091" lon="4.30149">
        <ele>172.186371</ele>
        <time>2022-03-20T11:55:03Z</time>
      </trkpt>
      <trkpt lat="50.3309" lon="4.30147">
        <ele>171.948578</ele>
        <time>2022-03-20T11:55:11Z</time>
      </trkpt>
      <trkpt lat="50.33088" lon="4.30149">
        <ele>170.493835</ele>
        <time>2022-03-20T11:55:27Z</time>
      </trkpt>
      <trkpt lat="50.33087" lon="4.30151">
        <ele>170.224823</ele>
        <time>2022-03-20T11:55:29Z</time>
      </trkpt>
      <trkpt lat="50.33086" lon="4.30153">
        <ele>169.978745</ele>
        <time>2022-03-20T11:55:31Z</time>
      </trkpt>
      <trkpt lat="50.33085" lon="4.30154">
        <ele>169.698273</ele>
        <time>2022-03-20T11:55:33Z</time>
      </trkpt>
      <trkpt lat="50.33083" lon="4.30153">
        <ele>169.548782</ele>
        <time>2022-03-20T11:55:35Z</time>
      </trkpt>
      <trkpt lat="50.33082" lon="4.3015">
        <ele>169.206787</ele>
        <time>2022-03-20T11:55:37Z</time>
      </trkpt>
      <trkpt lat="50.33081" lon="4.30149">
        <ele>169.037872</ele>
        <time>2022-03-20T11:55:38Z</time>
      </trkpt>
      <trkpt lat="50.3308" lon="4.30147">
        <ele>168.719559</ele>
        <time>2022-03-20T11:55:40Z</time>
      </trkpt>
      <trkpt lat="50.33079" lon="4.30144">
        <ele>168.35675</ele>
        <time>2022-03-20T11:55:42Z</time>
      </trkpt>
    </trkseg>
  </trk>
</gpx>